<?xml version="1.0" encoding="UTF-8" standalone="no" ?>
<gpx xmlns="http://www.topografix.com/GPX/1/1" xmlns:xsi="http://www.w3.org/2001/XMLSchema-instance" xsi:schemaLocation="http://www.topografix.com/GPX/1/1 http://www.topografix.com/GPX/1/1/gpx.xsd" version="1.1" creator="VisuGPX - https://www.visugpx.com">
  <metadata>
    <name>2019 - Etape 7 - Cernay-L'Isle sur le doubs</name>
  </metadata>
  <trk>
    <name><![CDATA[2019 - Etape 7 - Cernay-L'Isle sur le doubs]]></name>
    <trkseg>
      <trkpt lat="47.80699" lon="7.18597">
        <ele>287.7</ele>
        <time>2019-08-16T08:19:48Z</time>
      </trkpt>
      <trkpt lat="47.80695" lon="7.18589">
        <ele>287.7</ele>
        <time>2019-08-16T08:21:05Z</time>
      </trkpt>
      <trkpt lat="47.80692" lon="7.18584">
        <ele>287.7</ele>
        <time>2019-08-16T08:21:07Z</time>
      </trkpt>
      <trkpt lat="47.80689" lon="7.18577">
        <ele>287.7</ele>
        <time>2019-08-16T08:21:09Z</time>
      </trkpt>
      <trkpt lat="47.80688" lon="7.18574">
        <ele>287.7</ele>
        <time>2019-08-16T08:21:10Z</time>
      </trkpt>
      <trkpt lat="47.80686" lon="7.1857">
        <ele>287.7</ele>
        <time>2019-08-16T08:21:11Z</time>
      </trkpt>
      <trkpt lat="47.80684" lon="7.18563">
        <ele>287.7</ele>
        <time>2019-08-16T08:21:13Z</time>
      </trkpt>
      <trkpt lat="47.80683" lon="7.18559">
        <ele>287.7</ele>
        <time>2019-08-16T08:21:15Z</time>
      </trkpt>
      <trkpt lat="47.80686" lon="7.18554">
        <ele>287.7</ele>
        <time>2019-08-16T08:21:18Z</time>
      </trkpt>
      <trkpt lat="47.80691" lon="7.18554">
        <ele>287.7</ele>
        <time>2019-08-16T08:21:20Z</time>
      </trkpt>
      <trkpt lat="47.80696" lon="7.18552">
        <ele>287.7</ele>
        <time>2019-08-16T08:21:22Z</time>
      </trkpt>
      <trkpt lat="47.80701" lon="7.1855">
        <ele>287.7</ele>
        <time>2019-08-16T08:21:24Z</time>
      </trkpt>
      <trkpt lat="47.80706" lon="7.18549">
        <ele>287.7</ele>
        <time>2019-08-16T08:21:26Z</time>
      </trkpt>
      <trkpt lat="47.80709" lon="7.18548">
        <ele>287.7</ele>
        <time>2019-08-16T08:21:27Z</time>
      </trkpt>
      <trkpt lat="47.80714" lon="7.18545">
        <ele>287.7</ele>
        <time>2019-08-16T08:21:29Z</time>
      </trkpt>
      <trkpt lat="47.80718" lon="7.18545">
        <ele>287.6</ele>
        <time>2019-08-16T08:21:31Z</time>
      </trkpt>
      <trkpt lat="47.80722" lon="7.18544">
        <ele>287.6</ele>
        <time>2019-08-16T08:21:33Z</time>
      </trkpt>
      <trkpt lat="47.80725" lon="7.1855">
        <ele>287.6</ele>
        <time>2019-08-16T08:21:35Z</time>
      </trkpt>
      <trkpt lat="47.80727" lon="7.18553">
        <ele>287.6</ele>
        <time>2019-08-16T08:21:37Z</time>
      </trkpt>
      <trkpt lat="47.80729" lon="7.1856">
        <ele>287.6</ele>
        <time>2019-08-16T08:21:39Z</time>
      </trkpt>
      <trkpt lat="47.80729" lon="7.18565">
        <ele>287.6</ele>
        <time>2019-08-16T08:21:40Z</time>
      </trkpt>
      <trkpt lat="47.8073" lon="7.18569">
        <ele>287.6</ele>
        <time>2019-08-16T08:21:41Z</time>
      </trkpt>
      <trkpt lat="47.80731" lon="7.18573">
        <ele>287.6</ele>
        <time>2019-08-16T08:21:42Z</time>
      </trkpt>
      <trkpt lat="47.80731" lon="7.18579">
        <ele>287.6</ele>
        <time>2019-08-16T08:21:43Z</time>
      </trkpt>
      <trkpt lat="47.80731" lon="7.18584">
        <ele>287.6</ele>
        <time>2019-08-16T08:21:44Z</time>
      </trkpt>
      <trkpt lat="47.80731" lon="7.18589">
        <ele>287.6</ele>
        <time>2019-08-16T08:21:45Z</time>
      </trkpt>
      <trkpt lat="47.80732" lon="7.18594">
        <ele>287.5</ele>
        <time>2019-08-16T08:21:46Z</time>
      </trkpt>
      <trkpt lat="47.80732" lon="7.186">
        <ele>287.5</ele>
        <time>2019-08-16T08:21:47Z</time>
      </trkpt>
      <trkpt lat="47.80733" lon="7.18605">
        <ele>287.5</ele>
        <time>2019-08-16T08:21:48Z</time>
      </trkpt>
      <trkpt lat="47.80733" lon="7.1861">
        <ele>287.5</ele>
        <time>2019-08-16T08:21:49Z</time>
      </trkpt>
      <trkpt lat="47.80734" lon="7.18614">
        <ele>287.5</ele>
        <time>2019-08-16T08:21:50Z</time>
      </trkpt>
      <trkpt lat="47.80736" lon="7.18618">
        <ele>287.5</ele>
        <time>2019-08-16T08:21:51Z</time>
      </trkpt>
      <trkpt lat="47.80737" lon="7.18623">
        <ele>287.5</ele>
        <time>2019-08-16T08:21:52Z</time>
      </trkpt>
      <trkpt lat="47.80737" lon="7.18628">
        <ele>287.5</ele>
        <time>2019-08-16T08:21:53Z</time>
      </trkpt>
      <trkpt lat="47.80738" lon="7.18633">
        <ele>287.5</ele>
        <time>2019-08-16T08:21:54Z</time>
      </trkpt>
      <trkpt lat="47.8074" lon="7.18638">
        <ele>287.5</ele>
        <time>2019-08-16T08:21:55Z</time>
      </trkpt>
      <trkpt lat="47.80741" lon="7.18642">
        <ele>287.5</ele>
        <time>2019-08-16T08:21:56Z</time>
      </trkpt>
      <trkpt lat="47.8074" lon="7.18649">
        <ele>287.4</ele>
        <time>2019-08-16T08:21:57Z</time>
      </trkpt>
      <trkpt lat="47.80742" lon="7.18653">
        <ele>287.4</ele>
        <time>2019-08-16T08:21:58Z</time>
      </trkpt>
      <trkpt lat="47.80743" lon="7.18659">
        <ele>287.4</ele>
        <time>2019-08-16T08:21:59Z</time>
      </trkpt>
      <trkpt lat="47.80744" lon="7.18664">
        <ele>287.4</ele>
        <time>2019-08-16T08:22:00Z</time>
      </trkpt>
      <trkpt lat="47.80746" lon="7.18671">
        <ele>287.4</ele>
        <time>2019-08-16T08:22:01Z</time>
      </trkpt>
      <trkpt lat="47.80747" lon="7.18677">
        <ele>287.3</ele>
        <time>2019-08-16T08:22:02Z</time>
      </trkpt>
      <trkpt lat="47.80749" lon="7.18684">
        <ele>287.3</ele>
        <time>2019-08-16T08:22:03Z</time>
      </trkpt>
      <trkpt lat="47.80751" lon="7.1869">
        <ele>287.2</ele>
        <time>2019-08-16T08:22:04Z</time>
      </trkpt>
      <trkpt lat="47.80752" lon="7.18696">
        <ele>287.2</ele>
        <time>2019-08-16T08:22:05Z</time>
      </trkpt>
      <trkpt lat="47.80753" lon="7.18702">
        <ele>287.2</ele>
        <time>2019-08-16T08:22:06Z</time>
      </trkpt>
      <trkpt lat="47.80754" lon="7.18708">
        <ele>287.2</ele>
        <time>2019-08-16T08:22:07Z</time>
      </trkpt>
      <trkpt lat="47.80756" lon="7.18713">
        <ele>287.1</ele>
        <time>2019-08-16T08:22:08Z</time>
      </trkpt>
      <trkpt lat="47.80757" lon="7.18719">
        <ele>287.1</ele>
        <time>2019-08-16T08:22:09Z</time>
      </trkpt>
      <trkpt lat="47.80757" lon="7.18725">
        <ele>287.1</ele>
        <time>2019-08-16T08:22:10Z</time>
      </trkpt>
      <trkpt lat="47.80757" lon="7.18729">
        <ele>287</ele>
        <time>2019-08-16T08:22:11Z</time>
      </trkpt>
      <trkpt lat="47.80758" lon="7.18733">
        <ele>287</ele>
        <time>2019-08-16T08:22:12Z</time>
      </trkpt>
      <trkpt lat="47.8076" lon="7.1874">
        <ele>287</ele>
        <time>2019-08-16T08:22:14Z</time>
      </trkpt>
      <trkpt lat="47.80761" lon="7.18745">
        <ele>287</ele>
        <time>2019-08-16T08:22:15Z</time>
      </trkpt>
      <trkpt lat="47.80761" lon="7.1875">
        <ele>286.9</ele>
        <time>2019-08-16T08:22:16Z</time>
      </trkpt>
      <trkpt lat="47.80761" lon="7.18755">
        <ele>286.9</ele>
        <time>2019-08-16T08:22:17Z</time>
      </trkpt>
      <trkpt lat="47.80763" lon="7.1876">
        <ele>286.9</ele>
        <time>2019-08-16T08:22:18Z</time>
      </trkpt>
      <trkpt lat="47.80765" lon="7.18765">
        <ele>286.9</ele>
        <time>2019-08-16T08:22:19Z</time>
      </trkpt>
      <trkpt lat="47.80766" lon="7.1877">
        <ele>286.8</ele>
        <time>2019-08-16T08:22:20Z</time>
      </trkpt>
      <trkpt lat="47.80767" lon="7.18774">
        <ele>286.8</ele>
        <time>2019-08-16T08:22:21Z</time>
      </trkpt>
      <trkpt lat="47.80767" lon="7.18778">
        <ele>286.8</ele>
        <time>2019-08-16T08:22:22Z</time>
      </trkpt>
      <trkpt lat="47.80768" lon="7.18783">
        <ele>286.8</ele>
        <time>2019-08-16T08:22:23Z</time>
      </trkpt>
      <trkpt lat="47.80769" lon="7.18788">
        <ele>286.7</ele>
        <time>2019-08-16T08:22:24Z</time>
      </trkpt>
      <trkpt lat="47.80769" lon="7.18793">
        <ele>286.7</ele>
        <time>2019-08-16T08:22:25Z</time>
      </trkpt>
      <trkpt lat="47.8077" lon="7.18799">
        <ele>286.7</ele>
        <time>2019-08-16T08:22:26Z</time>
      </trkpt>
      <trkpt lat="47.80771" lon="7.18804">
        <ele>286.6</ele>
        <time>2019-08-16T08:22:27Z</time>
      </trkpt>
      <trkpt lat="47.80771" lon="7.1881">
        <ele>286.6</ele>
        <time>2019-08-16T08:22:28Z</time>
      </trkpt>
      <trkpt lat="47.80772" lon="7.18816">
        <ele>286.5</ele>
        <time>2019-08-16T08:22:29Z</time>
      </trkpt>
      <trkpt lat="47.80773" lon="7.18822">
        <ele>286.5</ele>
        <time>2019-08-16T08:22:30Z</time>
      </trkpt>
      <trkpt lat="47.80775" lon="7.18828">
        <ele>286.4</ele>
        <time>2019-08-16T08:22:31Z</time>
      </trkpt>
      <trkpt lat="47.80776" lon="7.18833">
        <ele>286.3</ele>
        <time>2019-08-16T08:22:32Z</time>
      </trkpt>
      <trkpt lat="47.80777" lon="7.18839">
        <ele>286.3</ele>
        <time>2019-08-16T08:22:33Z</time>
      </trkpt>
      <trkpt lat="47.80778" lon="7.18846">
        <ele>286.2</ele>
        <time>2019-08-16T08:22:34Z</time>
      </trkpt>
      <trkpt lat="47.80778" lon="7.18852">
        <ele>286.3</ele>
        <time>2019-08-16T08:22:35Z</time>
      </trkpt>
      <trkpt lat="47.80779" lon="7.18858">
        <ele>286.5</ele>
        <time>2019-08-16T08:22:36Z</time>
      </trkpt>
      <trkpt lat="47.80781" lon="7.18864">
        <ele>286.6</ele>
        <time>2019-08-16T08:22:37Z</time>
      </trkpt>
      <trkpt lat="47.80782" lon="7.1887">
        <ele>286.7</ele>
        <time>2019-08-16T08:22:38Z</time>
      </trkpt>
      <trkpt lat="47.80785" lon="7.18875">
        <ele>286.8</ele>
        <time>2019-08-16T08:22:39Z</time>
      </trkpt>
      <trkpt lat="47.80786" lon="7.18882">
        <ele>286.9</ele>
        <time>2019-08-16T08:22:40Z</time>
      </trkpt>
      <trkpt lat="47.80787" lon="7.18889">
        <ele>286.9</ele>
        <time>2019-08-16T08:22:41Z</time>
      </trkpt>
      <trkpt lat="47.80789" lon="7.18896">
        <ele>287</ele>
        <time>2019-08-16T08:22:42Z</time>
      </trkpt>
      <trkpt lat="47.80791" lon="7.18903">
        <ele>287</ele>
        <time>2019-08-16T08:22:43Z</time>
      </trkpt>
      <trkpt lat="47.80791" lon="7.18909">
        <ele>287.1</ele>
        <time>2019-08-16T08:22:44Z</time>
      </trkpt>
      <trkpt lat="47.80793" lon="7.18915">
        <ele>287.1</ele>
        <time>2019-08-16T08:22:45Z</time>
      </trkpt>
      <trkpt lat="47.80795" lon="7.18922">
        <ele>287.1</ele>
        <time>2019-08-16T08:22:46Z</time>
      </trkpt>
      <trkpt lat="47.80796" lon="7.18928">
        <ele>287.1</ele>
        <time>2019-08-16T08:22:47Z</time>
      </trkpt>
      <trkpt lat="47.80797" lon="7.18934">
        <ele>287.1</ele>
        <time>2019-08-16T08:22:48Z</time>
      </trkpt>
      <trkpt lat="47.80798" lon="7.18942">
        <ele>287.1</ele>
        <time>2019-08-16T08:22:49Z</time>
      </trkpt>
      <trkpt lat="47.808" lon="7.18949">
        <ele>287.2</ele>
        <time>2019-08-16T08:22:50Z</time>
      </trkpt>
      <trkpt lat="47.80802" lon="7.18955">
        <ele>287.2</ele>
        <time>2019-08-16T08:22:51Z</time>
      </trkpt>
      <trkpt lat="47.80803" lon="7.1896">
        <ele>287.3</ele>
        <time>2019-08-16T08:22:52Z</time>
      </trkpt>
      <trkpt lat="47.80804" lon="7.18966">
        <ele>287.3</ele>
        <time>2019-08-16T08:22:53Z</time>
      </trkpt>
      <trkpt lat="47.80804" lon="7.18971">
        <ele>287.4</ele>
        <time>2019-08-16T08:22:54Z</time>
      </trkpt>
      <trkpt lat="47.80803" lon="7.18977">
        <ele>287.4</ele>
        <time>2019-08-16T08:22:55Z</time>
      </trkpt>
      <trkpt lat="47.80801" lon="7.18982">
        <ele>287.4</ele>
        <time>2019-08-16T08:22:56Z</time>
      </trkpt>
      <trkpt lat="47.80797" lon="7.18983">
        <ele>287.4</ele>
        <time>2019-08-16T08:22:57Z</time>
      </trkpt>
      <trkpt lat="47.80793" lon="7.18982">
        <ele>287.4</ele>
        <time>2019-08-16T08:22:58Z</time>
      </trkpt>
      <trkpt lat="47.80788" lon="7.18981">
        <ele>287.3</ele>
        <time>2019-08-16T08:22:59Z</time>
      </trkpt>
      <trkpt lat="47.80782" lon="7.18978">
        <ele>287.3</ele>
        <time>2019-08-16T08:23:00Z</time>
      </trkpt>
      <trkpt lat="47.80777" lon="7.18975">
        <ele>287.2</ele>
        <time>2019-08-16T08:23:01Z</time>
      </trkpt>
      <trkpt lat="47.80772" lon="7.18972">
        <ele>287.2</ele>
        <time>2019-08-16T08:23:02Z</time>
      </trkpt>
      <trkpt lat="47.80767" lon="7.18971">
        <ele>287.3</ele>
        <time>2019-08-16T08:23:03Z</time>
      </trkpt>
      <trkpt lat="47.80763" lon="7.18969">
        <ele>287.3</ele>
        <time>2019-08-16T08:23:04Z</time>
      </trkpt>
      <trkpt lat="47.80758" lon="7.18968">
        <ele>287.3</ele>
        <time>2019-08-16T08:23:05Z</time>
      </trkpt>
      <trkpt lat="47.80753" lon="7.18967">
        <ele>287.3</ele>
        <time>2019-08-16T08:23:06Z</time>
      </trkpt>
      <trkpt lat="47.80749" lon="7.18965">
        <ele>287.4</ele>
        <time>2019-08-16T08:23:07Z</time>
      </trkpt>
      <trkpt lat="47.80745" lon="7.18964">
        <ele>287.4</ele>
        <time>2019-08-16T08:23:08Z</time>
      </trkpt>
      <trkpt lat="47.8074" lon="7.18962">
        <ele>287.5</ele>
        <time>2019-08-16T08:23:09Z</time>
      </trkpt>
      <trkpt lat="47.80736" lon="7.1896">
        <ele>287.5</ele>
        <time>2019-08-16T08:23:10Z</time>
      </trkpt>
      <trkpt lat="47.80732" lon="7.1896">
        <ele>287.5</ele>
        <time>2019-08-16T08:23:11Z</time>
      </trkpt>
      <trkpt lat="47.80728" lon="7.18957">
        <ele>287.5</ele>
        <time>2019-08-16T08:23:12Z</time>
      </trkpt>
      <trkpt lat="47.80724" lon="7.18955">
        <ele>287.4</ele>
        <time>2019-08-16T08:23:13Z</time>
      </trkpt>
      <trkpt lat="47.8072" lon="7.18955">
        <ele>287.3</ele>
        <time>2019-08-16T08:23:14Z</time>
      </trkpt>
      <trkpt lat="47.80715" lon="7.18953">
        <ele>287.1</ele>
        <time>2019-08-16T08:23:15Z</time>
      </trkpt>
      <trkpt lat="47.80711" lon="7.18951">
        <ele>286.8</ele>
        <time>2019-08-16T08:23:16Z</time>
      </trkpt>
      <trkpt lat="47.80707" lon="7.18949">
        <ele>286.6</ele>
        <time>2019-08-16T08:23:17Z</time>
      </trkpt>
      <trkpt lat="47.80702" lon="7.18946">
        <ele>286.3</ele>
        <time>2019-08-16T08:23:18Z</time>
      </trkpt>
      <trkpt lat="47.80699" lon="7.18944">
        <ele>286.2</ele>
        <time>2019-08-16T08:23:19Z</time>
      </trkpt>
      <trkpt lat="47.80696" lon="7.1894">
        <ele>286.1</ele>
        <time>2019-08-16T08:23:20Z</time>
      </trkpt>
      <trkpt lat="47.80693" lon="7.18936">
        <ele>286</ele>
        <time>2019-08-16T08:23:21Z</time>
      </trkpt>
      <trkpt lat="47.80689" lon="7.18934">
        <ele>285.9</ele>
        <time>2019-08-16T08:23:22Z</time>
      </trkpt>
      <trkpt lat="47.80685" lon="7.18932">
        <ele>285.9</ele>
        <time>2019-08-16T08:23:23Z</time>
      </trkpt>
      <trkpt lat="47.80681" lon="7.18933">
        <ele>285.8</ele>
        <time>2019-08-16T08:23:24Z</time>
      </trkpt>
      <trkpt lat="47.80676" lon="7.18933">
        <ele>285.7</ele>
        <time>2019-08-16T08:23:25Z</time>
      </trkpt>
      <trkpt lat="47.80671" lon="7.18933">
        <ele>285.6</ele>
        <time>2019-08-16T08:23:26Z</time>
      </trkpt>
      <trkpt lat="47.80666" lon="7.18933">
        <ele>285.6</ele>
        <time>2019-08-16T08:23:27Z</time>
      </trkpt>
      <trkpt lat="47.80662" lon="7.18933">
        <ele>285.6</ele>
        <time>2019-08-16T08:23:28Z</time>
      </trkpt>
      <trkpt lat="47.80658" lon="7.1893">
        <ele>285.5</ele>
        <time>2019-08-16T08:23:29Z</time>
      </trkpt>
      <trkpt lat="47.80653" lon="7.18927">
        <ele>285.4</ele>
        <time>2019-08-16T08:23:30Z</time>
      </trkpt>
      <trkpt lat="47.80649" lon="7.18924">
        <ele>285.4</ele>
        <time>2019-08-16T08:23:31Z</time>
      </trkpt>
      <trkpt lat="47.80645" lon="7.18922">
        <ele>285.3</ele>
        <time>2019-08-16T08:23:32Z</time>
      </trkpt>
      <trkpt lat="47.80641" lon="7.18919">
        <ele>285.3</ele>
        <time>2019-08-16T08:23:33Z</time>
      </trkpt>
      <trkpt lat="47.80637" lon="7.18917">
        <ele>285.3</ele>
        <time>2019-08-16T08:23:34Z</time>
      </trkpt>
      <trkpt lat="47.80635" lon="7.18915">
        <ele>285.3</ele>
        <time>2019-08-16T08:23:35Z</time>
      </trkpt>
      <trkpt lat="47.80631" lon="7.18913">
        <ele>285.3</ele>
        <time>2019-08-16T08:23:36Z</time>
      </trkpt>
      <trkpt lat="47.80628" lon="7.18912">
        <ele>285.3</ele>
        <time>2019-08-16T08:23:37Z</time>
      </trkpt>
      <trkpt lat="47.80623" lon="7.18907">
        <ele>285.3</ele>
        <time>2019-08-16T08:23:39Z</time>
      </trkpt>
      <trkpt lat="47.80619" lon="7.18905">
        <ele>285.3</ele>
        <time>2019-08-16T08:23:40Z</time>
      </trkpt>
      <trkpt lat="47.80616" lon="7.18905">
        <ele>285.3</ele>
        <time>2019-08-16T08:23:41Z</time>
      </trkpt>
      <trkpt lat="47.80613" lon="7.18904">
        <ele>285.4</ele>
        <time>2019-08-16T08:23:42Z</time>
      </trkpt>
      <trkpt lat="47.8061" lon="7.18902">
        <ele>285.4</ele>
        <time>2019-08-16T08:23:43Z</time>
      </trkpt>
      <trkpt lat="47.80607" lon="7.18901">
        <ele>285.4</ele>
        <time>2019-08-16T08:23:44Z</time>
      </trkpt>
      <trkpt lat="47.80603" lon="7.189">
        <ele>285.5</ele>
        <time>2019-08-16T08:23:45Z</time>
      </trkpt>
      <trkpt lat="47.806" lon="7.18899">
        <ele>285.5</ele>
        <time>2019-08-16T08:23:46Z</time>
      </trkpt>
      <trkpt lat="47.80594" lon="7.18898">
        <ele>285.6</ele>
        <time>2019-08-16T08:23:48Z</time>
      </trkpt>
      <trkpt lat="47.8059" lon="7.18897">
        <ele>285.7</ele>
        <time>2019-08-16T08:23:49Z</time>
      </trkpt>
      <trkpt lat="47.80587" lon="7.18896">
        <ele>285.8</ele>
        <time>2019-08-16T08:23:50Z</time>
      </trkpt>
      <trkpt lat="47.80584" lon="7.18895">
        <ele>285.8</ele>
        <time>2019-08-16T08:23:51Z</time>
      </trkpt>
      <trkpt lat="47.8058" lon="7.18894">
        <ele>285.9</ele>
        <time>2019-08-16T08:23:52Z</time>
      </trkpt>
      <trkpt lat="47.80576" lon="7.18891">
        <ele>286</ele>
        <time>2019-08-16T08:23:53Z</time>
      </trkpt>
      <trkpt lat="47.80571" lon="7.18889">
        <ele>286.1</ele>
        <time>2019-08-16T08:23:54Z</time>
      </trkpt>
      <trkpt lat="47.80567" lon="7.18887">
        <ele>286.2</ele>
        <time>2019-08-16T08:23:55Z</time>
      </trkpt>
      <trkpt lat="47.80562" lon="7.18886">
        <ele>286.3</ele>
        <time>2019-08-16T08:23:56Z</time>
      </trkpt>
      <trkpt lat="47.80558" lon="7.18886">
        <ele>286.4</ele>
        <time>2019-08-16T08:23:57Z</time>
      </trkpt>
      <trkpt lat="47.80554" lon="7.18885">
        <ele>286.4</ele>
        <time>2019-08-16T08:23:58Z</time>
      </trkpt>
      <trkpt lat="47.8055" lon="7.18884">
        <ele>286.5</ele>
        <time>2019-08-16T08:23:59Z</time>
      </trkpt>
      <trkpt lat="47.80546" lon="7.18882">
        <ele>286.5</ele>
        <time>2019-08-16T08:24:00Z</time>
      </trkpt>
      <trkpt lat="47.80541" lon="7.18881">
        <ele>286.6</ele>
        <time>2019-08-16T08:24:01Z</time>
      </trkpt>
      <trkpt lat="47.80537" lon="7.1888">
        <ele>286.6</ele>
        <time>2019-08-16T08:24:02Z</time>
      </trkpt>
      <trkpt lat="47.80532" lon="7.18879">
        <ele>286.6</ele>
        <time>2019-08-16T08:24:03Z</time>
      </trkpt>
      <trkpt lat="47.80526" lon="7.18877">
        <ele>286.5</ele>
        <time>2019-08-16T08:24:04Z</time>
      </trkpt>
      <trkpt lat="47.80523" lon="7.18876">
        <ele>286.5</ele>
        <time>2019-08-16T08:24:05Z</time>
      </trkpt>
      <trkpt lat="47.80518" lon="7.18878">
        <ele>286.5</ele>
        <time>2019-08-16T08:24:07Z</time>
      </trkpt>
      <trkpt lat="47.80518" lon="7.18883">
        <ele>286.5</ele>
        <time>2019-08-16T08:24:09Z</time>
      </trkpt>
      <trkpt lat="47.80519" lon="7.1889">
        <ele>286.5</ele>
        <time>2019-08-16T08:24:11Z</time>
      </trkpt>
      <trkpt lat="47.80519" lon="7.18895">
        <ele>286.6</ele>
        <time>2019-08-16T08:24:12Z</time>
      </trkpt>
      <trkpt lat="47.8052" lon="7.18901">
        <ele>286.7</ele>
        <time>2019-08-16T08:24:13Z</time>
      </trkpt>
      <trkpt lat="47.80521" lon="7.18907">
        <ele>286.6</ele>
        <time>2019-08-16T08:24:14Z</time>
      </trkpt>
      <trkpt lat="47.80522" lon="7.18913">
        <ele>286.6</ele>
        <time>2019-08-16T08:24:15Z</time>
      </trkpt>
      <trkpt lat="47.80522" lon="7.18919">
        <ele>286.6</ele>
        <time>2019-08-16T08:24:16Z</time>
      </trkpt>
      <trkpt lat="47.80523" lon="7.18925">
        <ele>286.6</ele>
        <time>2019-08-16T08:24:17Z</time>
      </trkpt>
      <trkpt lat="47.80524" lon="7.18931">
        <ele>286.5</ele>
        <time>2019-08-16T08:24:18Z</time>
      </trkpt>
      <trkpt lat="47.80529" lon="7.1894">
        <ele>286.4</ele>
        <time>2019-08-16T08:24:19Z</time>
      </trkpt>
      <trkpt lat="47.80534" lon="7.18946">
        <ele>286.3</ele>
        <time>2019-08-16T08:24:20Z</time>
      </trkpt>
      <trkpt lat="47.80538" lon="7.1895">
        <ele>286.2</ele>
        <time>2019-08-16T08:24:21Z</time>
      </trkpt>
      <trkpt lat="47.80541" lon="7.18953">
        <ele>286.1</ele>
        <time>2019-08-16T08:24:22Z</time>
      </trkpt>
      <trkpt lat="47.80543" lon="7.18956">
        <ele>286</ele>
        <time>2019-08-16T08:24:23Z</time>
      </trkpt>
      <trkpt lat="47.80544" lon="7.18963">
        <ele>286</ele>
        <time>2019-08-16T08:24:25Z</time>
      </trkpt>
      <trkpt lat="47.80543" lon="7.18968">
        <ele>286</ele>
        <time>2019-08-16T08:24:26Z</time>
      </trkpt>
      <trkpt lat="47.80543" lon="7.18972">
        <ele>286</ele>
        <time>2019-08-16T08:24:27Z</time>
      </trkpt>
      <trkpt lat="47.80542" lon="7.18977">
        <ele>286</ele>
        <time>2019-08-16T08:24:28Z</time>
      </trkpt>
      <trkpt lat="47.80541" lon="7.18981">
        <ele>286</ele>
        <time>2019-08-16T08:24:29Z</time>
      </trkpt>
      <trkpt lat="47.8054" lon="7.18986">
        <ele>286</ele>
        <time>2019-08-16T08:24:30Z</time>
      </trkpt>
      <trkpt lat="47.80539" lon="7.1899">
        <ele>286</ele>
        <time>2019-08-16T08:24:31Z</time>
      </trkpt>
      <trkpt lat="47.80539" lon="7.18996">
        <ele>286</ele>
        <time>2019-08-16T08:24:32Z</time>
      </trkpt>
      <trkpt lat="47.80539" lon="7.19002">
        <ele>286</ele>
        <time>2019-08-16T08:24:33Z</time>
      </trkpt>
      <trkpt lat="47.80539" lon="7.19007">
        <ele>286</ele>
        <time>2019-08-16T08:24:34Z</time>
      </trkpt>
      <trkpt lat="47.8054" lon="7.19013">
        <ele>286</ele>
        <time>2019-08-16T08:24:35Z</time>
      </trkpt>
      <trkpt lat="47.80539" lon="7.19018">
        <ele>286</ele>
        <time>2019-08-16T08:24:36Z</time>
      </trkpt>
      <trkpt lat="47.8054" lon="7.19022">
        <ele>286</ele>
        <time>2019-08-16T08:24:37Z</time>
      </trkpt>
      <trkpt lat="47.80541" lon="7.19028">
        <ele>286</ele>
        <time>2019-08-16T08:24:38Z</time>
      </trkpt>
      <trkpt lat="47.80541" lon="7.19033">
        <ele>286.1</ele>
        <time>2019-08-16T08:24:39Z</time>
      </trkpt>
      <trkpt lat="47.80541" lon="7.19039">
        <ele>286.1</ele>
        <time>2019-08-16T08:24:40Z</time>
      </trkpt>
      <trkpt lat="47.80542" lon="7.19045">
        <ele>286.1</ele>
        <time>2019-08-16T08:24:41Z</time>
      </trkpt>
      <trkpt lat="47.80545" lon="7.19055">
        <ele>286.2</ele>
        <time>2019-08-16T08:24:42Z</time>
      </trkpt>
      <trkpt lat="47.80548" lon="7.19063">
        <ele>286.2</ele>
        <time>2019-08-16T08:24:43Z</time>
      </trkpt>
      <trkpt lat="47.8055" lon="7.19072">
        <ele>286.3</ele>
        <time>2019-08-16T08:24:44Z</time>
      </trkpt>
      <trkpt lat="47.80551" lon="7.1908">
        <ele>286.3</ele>
        <time>2019-08-16T08:24:45Z</time>
      </trkpt>
      <trkpt lat="47.80554" lon="7.19085">
        <ele>286.3</ele>
        <time>2019-08-16T08:24:46Z</time>
      </trkpt>
      <trkpt lat="47.80556" lon="7.19092">
        <ele>286.3</ele>
        <time>2019-08-16T08:24:47Z</time>
      </trkpt>
      <trkpt lat="47.80558" lon="7.191">
        <ele>286.3</ele>
        <time>2019-08-16T08:24:48Z</time>
      </trkpt>
      <trkpt lat="47.8056" lon="7.19107">
        <ele>286.3</ele>
        <time>2019-08-16T08:24:49Z</time>
      </trkpt>
      <trkpt lat="47.80562" lon="7.19113">
        <ele>286.3</ele>
        <time>2019-08-16T08:24:50Z</time>
      </trkpt>
      <trkpt lat="47.80563" lon="7.19119">
        <ele>286.3</ele>
        <time>2019-08-16T08:24:51Z</time>
      </trkpt>
      <trkpt lat="47.80565" lon="7.19127">
        <ele>286.3</ele>
        <time>2019-08-16T08:24:52Z</time>
      </trkpt>
      <trkpt lat="47.80566" lon="7.19134">
        <ele>286.3</ele>
        <time>2019-08-16T08:24:53Z</time>
      </trkpt>
      <trkpt lat="47.80568" lon="7.19139">
        <ele>286.3</ele>
        <time>2019-08-16T08:24:54Z</time>
      </trkpt>
      <trkpt lat="47.8057" lon="7.19146">
        <ele>286.3</ele>
        <time>2019-08-16T08:24:55Z</time>
      </trkpt>
      <trkpt lat="47.80572" lon="7.19152">
        <ele>286.2</ele>
        <time>2019-08-16T08:24:56Z</time>
      </trkpt>
      <trkpt lat="47.80573" lon="7.19158">
        <ele>286.2</ele>
        <time>2019-08-16T08:24:57Z</time>
      </trkpt>
      <trkpt lat="47.80575" lon="7.19165">
        <ele>286.1</ele>
        <time>2019-08-16T08:24:58Z</time>
      </trkpt>
      <trkpt lat="47.80576" lon="7.19172">
        <ele>286</ele>
        <time>2019-08-16T08:24:59Z</time>
      </trkpt>
      <trkpt lat="47.80577" lon="7.19178">
        <ele>286</ele>
        <time>2019-08-16T08:25:00Z</time>
      </trkpt>
      <trkpt lat="47.80578" lon="7.19183">
        <ele>285.9</ele>
        <time>2019-08-16T08:25:01Z</time>
      </trkpt>
      <trkpt lat="47.8058" lon="7.19188">
        <ele>285.8</ele>
        <time>2019-08-16T08:25:02Z</time>
      </trkpt>
      <trkpt lat="47.80582" lon="7.19192">
        <ele>285.8</ele>
        <time>2019-08-16T08:25:03Z</time>
      </trkpt>
      <trkpt lat="47.80583" lon="7.19196">
        <ele>285.8</ele>
        <time>2019-08-16T08:25:04Z</time>
      </trkpt>
      <trkpt lat="47.80586" lon="7.19204">
        <ele>285.8</ele>
        <time>2019-08-16T08:25:06Z</time>
      </trkpt>
      <trkpt lat="47.80592" lon="7.19225">
        <ele>285.8</ele>
        <time>2019-08-16T08:25:11Z</time>
      </trkpt>
      <trkpt lat="47.80592" lon="7.19231">
        <ele>285.8</ele>
        <time>2019-08-16T08:25:12Z</time>
      </trkpt>
      <trkpt lat="47.80592" lon="7.19236">
        <ele>285.8</ele>
        <time>2019-08-16T08:25:13Z</time>
      </trkpt>
      <trkpt lat="47.80591" lon="7.19243">
        <ele>285.7</ele>
        <time>2019-08-16T08:25:14Z</time>
      </trkpt>
      <trkpt lat="47.8059" lon="7.19248">
        <ele>285.7</ele>
        <time>2019-08-16T08:25:15Z</time>
      </trkpt>
      <trkpt lat="47.80588" lon="7.19254">
        <ele>285.7</ele>
        <time>2019-08-16T08:25:16Z</time>
      </trkpt>
      <trkpt lat="47.80588" lon="7.1926">
        <ele>285.7</ele>
        <time>2019-08-16T08:25:17Z</time>
      </trkpt>
      <trkpt lat="47.80587" lon="7.19265">
        <ele>285.7</ele>
        <time>2019-08-16T08:25:18Z</time>
      </trkpt>
      <trkpt lat="47.80587" lon="7.19271">
        <ele>285.7</ele>
        <time>2019-08-16T08:25:19Z</time>
      </trkpt>
      <trkpt lat="47.80588" lon="7.19275">
        <ele>285.7</ele>
        <time>2019-08-16T08:25:20Z</time>
      </trkpt>
      <trkpt lat="47.80588" lon="7.19281">
        <ele>285.6</ele>
        <time>2019-08-16T08:25:21Z</time>
      </trkpt>
      <trkpt lat="47.80589" lon="7.19287">
        <ele>285.2</ele>
        <time>2019-08-16T08:25:22Z</time>
      </trkpt>
      <trkpt lat="47.80589" lon="7.19292">
        <ele>284.9</ele>
        <time>2019-08-16T08:25:23Z</time>
      </trkpt>
      <trkpt lat="47.8059" lon="7.19297">
        <ele>284.7</ele>
        <time>2019-08-16T08:25:24Z</time>
      </trkpt>
      <trkpt lat="47.80591" lon="7.19301">
        <ele>284.6</ele>
        <time>2019-08-16T08:25:25Z</time>
      </trkpt>
      <trkpt lat="47.80591" lon="7.19306">
        <ele>284.4</ele>
        <time>2019-08-16T08:25:26Z</time>
      </trkpt>
      <trkpt lat="47.80592" lon="7.19311">
        <ele>284.2</ele>
        <time>2019-08-16T08:25:27Z</time>
      </trkpt>
      <trkpt lat="47.80593" lon="7.19319">
        <ele>284</ele>
        <time>2019-08-16T08:25:28Z</time>
      </trkpt>
      <trkpt lat="47.80594" lon="7.19327">
        <ele>283.6</ele>
        <time>2019-08-16T08:25:29Z</time>
      </trkpt>
      <trkpt lat="47.80596" lon="7.19335">
        <ele>283.3</ele>
        <time>2019-08-16T08:25:30Z</time>
      </trkpt>
      <trkpt lat="47.80598" lon="7.19344">
        <ele>283.1</ele>
        <time>2019-08-16T08:25:31Z</time>
      </trkpt>
      <trkpt lat="47.80599" lon="7.19353">
        <ele>282.9</ele>
        <time>2019-08-16T08:25:32Z</time>
      </trkpt>
      <trkpt lat="47.80599" lon="7.19361">
        <ele>282.8</ele>
        <time>2019-08-16T08:25:33Z</time>
      </trkpt>
      <trkpt lat="47.806" lon="7.19369">
        <ele>282.6</ele>
        <time>2019-08-16T08:25:34Z</time>
      </trkpt>
      <trkpt lat="47.80601" lon="7.19378">
        <ele>282.5</ele>
        <time>2019-08-16T08:25:35Z</time>
      </trkpt>
      <trkpt lat="47.80603" lon="7.19385">
        <ele>282.4</ele>
        <time>2019-08-16T08:25:36Z</time>
      </trkpt>
      <trkpt lat="47.80605" lon="7.19391">
        <ele>282.3</ele>
        <time>2019-08-16T08:25:37Z</time>
      </trkpt>
      <trkpt lat="47.80605" lon="7.19397">
        <ele>282.3</ele>
        <time>2019-08-16T08:25:38Z</time>
      </trkpt>
      <trkpt lat="47.80605" lon="7.19403">
        <ele>282.3</ele>
        <time>2019-08-16T08:25:39Z</time>
      </trkpt>
      <trkpt lat="47.80607" lon="7.19408">
        <ele>282.4</ele>
        <time>2019-08-16T08:25:40Z</time>
      </trkpt>
      <trkpt lat="47.80608" lon="7.19415">
        <ele>282.4</ele>
        <time>2019-08-16T08:25:41Z</time>
      </trkpt>
      <trkpt lat="47.8061" lon="7.1942">
        <ele>282.4</ele>
        <time>2019-08-16T08:25:42Z</time>
      </trkpt>
      <trkpt lat="47.80612" lon="7.19427">
        <ele>282.5</ele>
        <time>2019-08-16T08:25:43Z</time>
      </trkpt>
      <trkpt lat="47.80614" lon="7.19432">
        <ele>282.5</ele>
        <time>2019-08-16T08:25:44Z</time>
      </trkpt>
      <trkpt lat="47.80615" lon="7.19438">
        <ele>282.6</ele>
        <time>2019-08-16T08:25:45Z</time>
      </trkpt>
      <trkpt lat="47.80616" lon="7.19444">
        <ele>282.6</ele>
        <time>2019-08-16T08:25:46Z</time>
      </trkpt>
      <trkpt lat="47.80617" lon="7.19451">
        <ele>282.7</ele>
        <time>2019-08-16T08:25:47Z</time>
      </trkpt>
      <trkpt lat="47.80618" lon="7.19457">
        <ele>282.7</ele>
        <time>2019-08-16T08:25:48Z</time>
      </trkpt>
      <trkpt lat="47.8062" lon="7.19465">
        <ele>282.8</ele>
        <time>2019-08-16T08:25:49Z</time>
      </trkpt>
      <trkpt lat="47.80622" lon="7.19472">
        <ele>282.8</ele>
        <time>2019-08-16T08:25:50Z</time>
      </trkpt>
      <trkpt lat="47.80623" lon="7.1948">
        <ele>282.8</ele>
        <time>2019-08-16T08:25:51Z</time>
      </trkpt>
      <trkpt lat="47.80623" lon="7.19485">
        <ele>282.8</ele>
        <time>2019-08-16T08:25:52Z</time>
      </trkpt>
      <trkpt lat="47.80623" lon="7.19492">
        <ele>282.8</ele>
        <time>2019-08-16T08:25:53Z</time>
      </trkpt>
      <trkpt lat="47.80624" lon="7.19498">
        <ele>282.7</ele>
        <time>2019-08-16T08:25:54Z</time>
      </trkpt>
      <trkpt lat="47.80624" lon="7.19505">
        <ele>282.7</ele>
        <time>2019-08-16T08:25:55Z</time>
      </trkpt>
      <trkpt lat="47.80623" lon="7.19512">
        <ele>282.6</ele>
        <time>2019-08-16T08:25:56Z</time>
      </trkpt>
      <trkpt lat="47.80623" lon="7.19519">
        <ele>282.5</ele>
        <time>2019-08-16T08:25:57Z</time>
      </trkpt>
      <trkpt lat="47.80623" lon="7.19526">
        <ele>282.4</ele>
        <time>2019-08-16T08:25:58Z</time>
      </trkpt>
      <trkpt lat="47.80623" lon="7.19533">
        <ele>282.3</ele>
        <time>2019-08-16T08:25:59Z</time>
      </trkpt>
      <trkpt lat="47.80622" lon="7.1954">
        <ele>282.2</ele>
        <time>2019-08-16T08:26:00Z</time>
      </trkpt>
      <trkpt lat="47.80621" lon="7.19548">
        <ele>282</ele>
        <time>2019-08-16T08:26:01Z</time>
      </trkpt>
      <trkpt lat="47.8062" lon="7.19556">
        <ele>281.8</ele>
        <time>2019-08-16T08:26:02Z</time>
      </trkpt>
      <trkpt lat="47.8062" lon="7.19564">
        <ele>281.6</ele>
        <time>2019-08-16T08:26:03Z</time>
      </trkpt>
      <trkpt lat="47.80621" lon="7.19571">
        <ele>281.5</ele>
        <time>2019-08-16T08:26:04Z</time>
      </trkpt>
      <trkpt lat="47.80622" lon="7.19578">
        <ele>281.4</ele>
        <time>2019-08-16T08:26:05Z</time>
      </trkpt>
      <trkpt lat="47.80623" lon="7.19586">
        <ele>281.3</ele>
        <time>2019-08-16T08:26:06Z</time>
      </trkpt>
      <trkpt lat="47.80624" lon="7.19593">
        <ele>281.2</ele>
        <time>2019-08-16T08:26:07Z</time>
      </trkpt>
      <trkpt lat="47.80626" lon="7.19601">
        <ele>281.1</ele>
        <time>2019-08-16T08:26:08Z</time>
      </trkpt>
      <trkpt lat="47.80627" lon="7.19609">
        <ele>281</ele>
        <time>2019-08-16T08:26:09Z</time>
      </trkpt>
      <trkpt lat="47.80629" lon="7.19616">
        <ele>280.8</ele>
        <time>2019-08-16T08:26:10Z</time>
      </trkpt>
      <trkpt lat="47.80631" lon="7.19623">
        <ele>280.7</ele>
        <time>2019-08-16T08:26:11Z</time>
      </trkpt>
      <trkpt lat="47.80635" lon="7.1963">
        <ele>280.5</ele>
        <time>2019-08-16T08:26:12Z</time>
      </trkpt>
      <trkpt lat="47.80638" lon="7.19638">
        <ele>280.5</ele>
        <time>2019-08-16T08:26:13Z</time>
      </trkpt>
      <trkpt lat="47.80639" lon="7.19644">
        <ele>280.5</ele>
        <time>2019-08-16T08:26:14Z</time>
      </trkpt>
      <trkpt lat="47.80641" lon="7.1965">
        <ele>280.4</ele>
        <time>2019-08-16T08:26:15Z</time>
      </trkpt>
      <trkpt lat="47.80644" lon="7.19658">
        <ele>280.4</ele>
        <time>2019-08-16T08:26:16Z</time>
      </trkpt>
      <trkpt lat="47.80646" lon="7.19664">
        <ele>280.4</ele>
        <time>2019-08-16T08:26:17Z</time>
      </trkpt>
      <trkpt lat="47.80648" lon="7.19671">
        <ele>280.4</ele>
        <time>2019-08-16T08:26:18Z</time>
      </trkpt>
      <trkpt lat="47.8065" lon="7.19678">
        <ele>280.5</ele>
        <time>2019-08-16T08:26:19Z</time>
      </trkpt>
      <trkpt lat="47.80652" lon="7.19684">
        <ele>280.5</ele>
        <time>2019-08-16T08:26:20Z</time>
      </trkpt>
      <trkpt lat="47.80655" lon="7.19688">
        <ele>280.5</ele>
        <time>2019-08-16T08:26:21Z</time>
      </trkpt>
      <trkpt lat="47.80657" lon="7.19694">
        <ele>280.6</ele>
        <time>2019-08-16T08:26:22Z</time>
      </trkpt>
      <trkpt lat="47.80658" lon="7.197">
        <ele>280.6</ele>
        <time>2019-08-16T08:26:23Z</time>
      </trkpt>
      <trkpt lat="47.80659" lon="7.19707">
        <ele>280.7</ele>
        <time>2019-08-16T08:26:24Z</time>
      </trkpt>
      <trkpt lat="47.80659" lon="7.19713">
        <ele>280.8</ele>
        <time>2019-08-16T08:26:25Z</time>
      </trkpt>
      <trkpt lat="47.8066" lon="7.19719">
        <ele>280.7</ele>
        <time>2019-08-16T08:26:26Z</time>
      </trkpt>
      <trkpt lat="47.8066" lon="7.19724">
        <ele>280.7</ele>
        <time>2019-08-16T08:26:27Z</time>
      </trkpt>
      <trkpt lat="47.8066" lon="7.19731">
        <ele>280.7</ele>
        <time>2019-08-16T08:26:28Z</time>
      </trkpt>
      <trkpt lat="47.8066" lon="7.19738">
        <ele>280.6</ele>
        <time>2019-08-16T08:26:29Z</time>
      </trkpt>
      <trkpt lat="47.80658" lon="7.19744">
        <ele>280.6</ele>
        <time>2019-08-16T08:26:30Z</time>
      </trkpt>
      <trkpt lat="47.80658" lon="7.19752">
        <ele>280.6</ele>
        <time>2019-08-16T08:26:31Z</time>
      </trkpt>
      <trkpt lat="47.80657" lon="7.19761">
        <ele>280.6</ele>
        <time>2019-08-16T08:26:32Z</time>
      </trkpt>
      <trkpt lat="47.80656" lon="7.19768">
        <ele>280.6</ele>
        <time>2019-08-16T08:26:33Z</time>
      </trkpt>
      <trkpt lat="47.80655" lon="7.19774">
        <ele>280.6</ele>
        <time>2019-08-16T08:26:34Z</time>
      </trkpt>
      <trkpt lat="47.80654" lon="7.19782">
        <ele>280.5</ele>
        <time>2019-08-16T08:26:35Z</time>
      </trkpt>
      <trkpt lat="47.80654" lon="7.19789">
        <ele>280.5</ele>
        <time>2019-08-16T08:26:36Z</time>
      </trkpt>
      <trkpt lat="47.80653" lon="7.19796">
        <ele>280.5</ele>
        <time>2019-08-16T08:26:37Z</time>
      </trkpt>
      <trkpt lat="47.80653" lon="7.19803">
        <ele>280.5</ele>
        <time>2019-08-16T08:26:38Z</time>
      </trkpt>
      <trkpt lat="47.80652" lon="7.19809">
        <ele>280.5</ele>
        <time>2019-08-16T08:26:39Z</time>
      </trkpt>
      <trkpt lat="47.8065" lon="7.19816">
        <ele>280.5</ele>
        <time>2019-08-16T08:26:40Z</time>
      </trkpt>
      <trkpt lat="47.80649" lon="7.19821">
        <ele>280.5</ele>
        <time>2019-08-16T08:26:41Z</time>
      </trkpt>
      <trkpt lat="47.80647" lon="7.19827">
        <ele>280.5</ele>
        <time>2019-08-16T08:26:42Z</time>
      </trkpt>
      <trkpt lat="47.80646" lon="7.19834">
        <ele>280.5</ele>
        <time>2019-08-16T08:26:43Z</time>
      </trkpt>
      <trkpt lat="47.80645" lon="7.1984">
        <ele>280.6</ele>
        <time>2019-08-16T08:26:44Z</time>
      </trkpt>
      <trkpt lat="47.80645" lon="7.19847">
        <ele>280.6</ele>
        <time>2019-08-16T08:26:45Z</time>
      </trkpt>
      <trkpt lat="47.80644" lon="7.19853">
        <ele>280.7</ele>
        <time>2019-08-16T08:26:46Z</time>
      </trkpt>
      <trkpt lat="47.80643" lon="7.1986">
        <ele>280.7</ele>
        <time>2019-08-16T08:26:47Z</time>
      </trkpt>
      <trkpt lat="47.80642" lon="7.19866">
        <ele>280.8</ele>
        <time>2019-08-16T08:26:48Z</time>
      </trkpt>
      <trkpt lat="47.80641" lon="7.19872">
        <ele>280.8</ele>
        <time>2019-08-16T08:26:49Z</time>
      </trkpt>
      <trkpt lat="47.80641" lon="7.19879">
        <ele>280.8</ele>
        <time>2019-08-16T08:26:50Z</time>
      </trkpt>
      <trkpt lat="47.8064" lon="7.19886">
        <ele>280.9</ele>
        <time>2019-08-16T08:26:51Z</time>
      </trkpt>
      <trkpt lat="47.80639" lon="7.19893">
        <ele>280.9</ele>
        <time>2019-08-16T08:26:52Z</time>
      </trkpt>
      <trkpt lat="47.80638" lon="7.199">
        <ele>280.9</ele>
        <time>2019-08-16T08:26:53Z</time>
      </trkpt>
      <trkpt lat="47.80637" lon="7.19907">
        <ele>281</ele>
        <time>2019-08-16T08:26:54Z</time>
      </trkpt>
      <trkpt lat="47.80635" lon="7.19914">
        <ele>281</ele>
        <time>2019-08-16T08:26:55Z</time>
      </trkpt>
      <trkpt lat="47.80634" lon="7.19922">
        <ele>281</ele>
        <time>2019-08-16T08:26:56Z</time>
      </trkpt>
      <trkpt lat="47.80633" lon="7.19929">
        <ele>281</ele>
        <time>2019-08-16T08:26:57Z</time>
      </trkpt>
      <trkpt lat="47.80632" lon="7.19937">
        <ele>281</ele>
        <time>2019-08-16T08:26:58Z</time>
      </trkpt>
      <trkpt lat="47.80631" lon="7.19944">
        <ele>281</ele>
        <time>2019-08-16T08:26:59Z</time>
      </trkpt>
      <trkpt lat="47.80631" lon="7.19951">
        <ele>281</ele>
        <time>2019-08-16T08:27:00Z</time>
      </trkpt>
      <trkpt lat="47.8063" lon="7.19959">
        <ele>281</ele>
        <time>2019-08-16T08:27:01Z</time>
      </trkpt>
      <trkpt lat="47.8063" lon="7.19967">
        <ele>281</ele>
        <time>2019-08-16T08:27:02Z</time>
      </trkpt>
      <trkpt lat="47.8063" lon="7.19974">
        <ele>281</ele>
        <time>2019-08-16T08:27:03Z</time>
      </trkpt>
      <trkpt lat="47.80629" lon="7.19982">
        <ele>280.9</ele>
        <time>2019-08-16T08:27:04Z</time>
      </trkpt>
      <trkpt lat="47.80629" lon="7.19989">
        <ele>280.9</ele>
        <time>2019-08-16T08:27:05Z</time>
      </trkpt>
      <trkpt lat="47.80631" lon="7.19996">
        <ele>280.9</ele>
        <time>2019-08-16T08:27:06Z</time>
      </trkpt>
      <trkpt lat="47.80634" lon="7.20002">
        <ele>280.9</ele>
        <time>2019-08-16T08:27:07Z</time>
      </trkpt>
      <trkpt lat="47.80638" lon="7.20008">
        <ele>281</ele>
        <time>2019-08-16T08:27:08Z</time>
      </trkpt>
      <trkpt lat="47.8064" lon="7.20014">
        <ele>281</ele>
        <time>2019-08-16T08:27:09Z</time>
      </trkpt>
      <trkpt lat="47.80643" lon="7.2002">
        <ele>281</ele>
        <time>2019-08-16T08:27:10Z</time>
      </trkpt>
      <trkpt lat="47.80646" lon="7.20027">
        <ele>281</ele>
        <time>2019-08-16T08:27:11Z</time>
      </trkpt>
      <trkpt lat="47.8065" lon="7.20034">
        <ele>281</ele>
        <time>2019-08-16T08:27:12Z</time>
      </trkpt>
      <trkpt lat="47.80652" lon="7.2004">
        <ele>281</ele>
        <time>2019-08-16T08:27:13Z</time>
      </trkpt>
      <trkpt lat="47.80655" lon="7.20046">
        <ele>281</ele>
        <time>2019-08-16T08:27:14Z</time>
      </trkpt>
      <trkpt lat="47.80656" lon="7.20052">
        <ele>281</ele>
        <time>2019-08-16T08:27:15Z</time>
      </trkpt>
      <trkpt lat="47.80655" lon="7.20058">
        <ele>281</ele>
        <time>2019-08-16T08:27:16Z</time>
      </trkpt>
      <trkpt lat="47.80653" lon="7.20063">
        <ele>281</ele>
        <time>2019-08-16T08:27:17Z</time>
      </trkpt>
      <trkpt lat="47.80648" lon="7.20069">
        <ele>281</ele>
        <time>2019-08-16T08:27:18Z</time>
      </trkpt>
      <trkpt lat="47.80644" lon="7.20075">
        <ele>281</ele>
        <time>2019-08-16T08:27:19Z</time>
      </trkpt>
      <trkpt lat="47.80639" lon="7.2008">
        <ele>281</ele>
        <time>2019-08-16T08:27:20Z</time>
      </trkpt>
      <trkpt lat="47.80635" lon="7.20086">
        <ele>281</ele>
        <time>2019-08-16T08:27:21Z</time>
      </trkpt>
      <trkpt lat="47.8063" lon="7.2009">
        <ele>281</ele>
        <time>2019-08-16T08:27:22Z</time>
      </trkpt>
      <trkpt lat="47.80626" lon="7.20094">
        <ele>280.9</ele>
        <time>2019-08-16T08:27:23Z</time>
      </trkpt>
      <trkpt lat="47.80622" lon="7.20098">
        <ele>280.9</ele>
        <time>2019-08-16T08:27:24Z</time>
      </trkpt>
      <trkpt lat="47.80618" lon="7.20104">
        <ele>280.9</ele>
        <time>2019-08-16T08:27:25Z</time>
      </trkpt>
      <trkpt lat="47.80615" lon="7.20111">
        <ele>280.9</ele>
        <time>2019-08-16T08:27:26Z</time>
      </trkpt>
      <trkpt lat="47.80612" lon="7.20118">
        <ele>280.9</ele>
        <time>2019-08-16T08:27:27Z</time>
      </trkpt>
      <trkpt lat="47.80608" lon="7.20125">
        <ele>280.9</ele>
        <time>2019-08-16T08:27:28Z</time>
      </trkpt>
      <trkpt lat="47.80607" lon="7.20134">
        <ele>280.9</ele>
        <time>2019-08-16T08:27:29Z</time>
      </trkpt>
      <trkpt lat="47.80606" lon="7.20141">
        <ele>281</ele>
        <time>2019-08-16T08:27:30Z</time>
      </trkpt>
      <trkpt lat="47.80604" lon="7.20148">
        <ele>281</ele>
        <time>2019-08-16T08:27:31Z</time>
      </trkpt>
      <trkpt lat="47.80603" lon="7.20155">
        <ele>281</ele>
        <time>2019-08-16T08:27:32Z</time>
      </trkpt>
      <trkpt lat="47.80602" lon="7.20162">
        <ele>281</ele>
        <time>2019-08-16T08:27:33Z</time>
      </trkpt>
      <trkpt lat="47.80601" lon="7.20168">
        <ele>281</ele>
        <time>2019-08-16T08:27:34Z</time>
      </trkpt>
      <trkpt lat="47.80601" lon="7.20177">
        <ele>281</ele>
        <time>2019-08-16T08:27:35Z</time>
      </trkpt>
      <trkpt lat="47.806" lon="7.20185">
        <ele>281</ele>
        <time>2019-08-16T08:27:36Z</time>
      </trkpt>
      <trkpt lat="47.80599" lon="7.20193">
        <ele>281</ele>
        <time>2019-08-16T08:27:37Z</time>
      </trkpt>
      <trkpt lat="47.80597" lon="7.20201">
        <ele>281</ele>
        <time>2019-08-16T08:27:38Z</time>
      </trkpt>
      <trkpt lat="47.80596" lon="7.20208">
        <ele>281</ele>
        <time>2019-08-16T08:27:39Z</time>
      </trkpt>
      <trkpt lat="47.80594" lon="7.20216">
        <ele>281</ele>
        <time>2019-08-16T08:27:40Z</time>
      </trkpt>
      <trkpt lat="47.80593" lon="7.20223">
        <ele>281</ele>
        <time>2019-08-16T08:27:41Z</time>
      </trkpt>
      <trkpt lat="47.80592" lon="7.2023">
        <ele>281</ele>
        <time>2019-08-16T08:27:42Z</time>
      </trkpt>
      <trkpt lat="47.80591" lon="7.20238">
        <ele>280.9</ele>
        <time>2019-08-16T08:27:43Z</time>
      </trkpt>
      <trkpt lat="47.8059" lon="7.20246">
        <ele>280.9</ele>
        <time>2019-08-16T08:27:44Z</time>
      </trkpt>
      <trkpt lat="47.80589" lon="7.20253">
        <ele>280.9</ele>
        <time>2019-08-16T08:27:45Z</time>
      </trkpt>
      <trkpt lat="47.80589" lon="7.20259">
        <ele>280.9</ele>
        <time>2019-08-16T08:27:46Z</time>
      </trkpt>
      <trkpt lat="47.80588" lon="7.20266">
        <ele>280.9</ele>
        <time>2019-08-16T08:27:47Z</time>
      </trkpt>
      <trkpt lat="47.80586" lon="7.20274">
        <ele>280.9</ele>
        <time>2019-08-16T08:27:48Z</time>
      </trkpt>
      <trkpt lat="47.80584" lon="7.20281">
        <ele>280.8</ele>
        <time>2019-08-16T08:27:49Z</time>
      </trkpt>
      <trkpt lat="47.80583" lon="7.20289">
        <ele>280.8</ele>
        <time>2019-08-16T08:27:50Z</time>
      </trkpt>
      <trkpt lat="47.80581" lon="7.20297">
        <ele>280.8</ele>
        <time>2019-08-16T08:27:51Z</time>
      </trkpt>
      <trkpt lat="47.8058" lon="7.20304">
        <ele>280.8</ele>
        <time>2019-08-16T08:27:52Z</time>
      </trkpt>
      <trkpt lat="47.80579" lon="7.20311">
        <ele>280.7</ele>
        <time>2019-08-16T08:27:53Z</time>
      </trkpt>
      <trkpt lat="47.80578" lon="7.20318">
        <ele>280.7</ele>
        <time>2019-08-16T08:27:54Z</time>
      </trkpt>
      <trkpt lat="47.80576" lon="7.20325">
        <ele>280.7</ele>
        <time>2019-08-16T08:27:55Z</time>
      </trkpt>
      <trkpt lat="47.80576" lon="7.20333">
        <ele>280.7</ele>
        <time>2019-08-16T08:27:56Z</time>
      </trkpt>
      <trkpt lat="47.80575" lon="7.20341">
        <ele>280.6</ele>
        <time>2019-08-16T08:27:57Z</time>
      </trkpt>
      <trkpt lat="47.80574" lon="7.20347">
        <ele>280.6</ele>
        <time>2019-08-16T08:27:58Z</time>
      </trkpt>
      <trkpt lat="47.80572" lon="7.20355">
        <ele>280.5</ele>
        <time>2019-08-16T08:27:59Z</time>
      </trkpt>
      <trkpt lat="47.8057" lon="7.20361">
        <ele>280.5</ele>
        <time>2019-08-16T08:28:00Z</time>
      </trkpt>
      <trkpt lat="47.80568" lon="7.20367">
        <ele>280.5</ele>
        <time>2019-08-16T08:28:01Z</time>
      </trkpt>
      <trkpt lat="47.80567" lon="7.20374">
        <ele>280.4</ele>
        <time>2019-08-16T08:28:02Z</time>
      </trkpt>
      <trkpt lat="47.80565" lon="7.2038">
        <ele>280.4</ele>
        <time>2019-08-16T08:28:03Z</time>
      </trkpt>
      <trkpt lat="47.80563" lon="7.20387">
        <ele>280.4</ele>
        <time>2019-08-16T08:28:04Z</time>
      </trkpt>
      <trkpt lat="47.80562" lon="7.20395">
        <ele>280.3</ele>
        <time>2019-08-16T08:28:05Z</time>
      </trkpt>
      <trkpt lat="47.80562" lon="7.20404">
        <ele>280.3</ele>
        <time>2019-08-16T08:28:06Z</time>
      </trkpt>
      <trkpt lat="47.80562" lon="7.20413">
        <ele>280.2</ele>
        <time>2019-08-16T08:28:07Z</time>
      </trkpt>
      <trkpt lat="47.80562" lon="7.20421">
        <ele>280.1</ele>
        <time>2019-08-16T08:28:08Z</time>
      </trkpt>
      <trkpt lat="47.80562" lon="7.20429">
        <ele>280.1</ele>
        <time>2019-08-16T08:28:09Z</time>
      </trkpt>
      <trkpt lat="47.80563" lon="7.20438">
        <ele>280</ele>
        <time>2019-08-16T08:28:10Z</time>
      </trkpt>
      <trkpt lat="47.80562" lon="7.20445">
        <ele>280</ele>
        <time>2019-08-16T08:28:11Z</time>
      </trkpt>
      <trkpt lat="47.80562" lon="7.20454">
        <ele>280</ele>
        <time>2019-08-16T08:28:12Z</time>
      </trkpt>
      <trkpt lat="47.80563" lon="7.2046">
        <ele>279.9</ele>
        <time>2019-08-16T08:28:13Z</time>
      </trkpt>
      <trkpt lat="47.80564" lon="7.20469">
        <ele>279.9</ele>
        <time>2019-08-16T08:28:14Z</time>
      </trkpt>
      <trkpt lat="47.80564" lon="7.20477">
        <ele>279.8</ele>
        <time>2019-08-16T08:28:15Z</time>
      </trkpt>
      <trkpt lat="47.80564" lon="7.20485">
        <ele>279.8</ele>
        <time>2019-08-16T08:28:16Z</time>
      </trkpt>
      <trkpt lat="47.80566" lon="7.20492">
        <ele>279.7</ele>
        <time>2019-08-16T08:28:17Z</time>
      </trkpt>
      <trkpt lat="47.80567" lon="7.205">
        <ele>279.6</ele>
        <time>2019-08-16T08:28:18Z</time>
      </trkpt>
      <trkpt lat="47.80568" lon="7.20507">
        <ele>279.6</ele>
        <time>2019-08-16T08:28:19Z</time>
      </trkpt>
      <trkpt lat="47.8057" lon="7.20515">
        <ele>279.6</ele>
        <time>2019-08-16T08:28:20Z</time>
      </trkpt>
      <trkpt lat="47.8057" lon="7.20523">
        <ele>279.5</ele>
        <time>2019-08-16T08:28:21Z</time>
      </trkpt>
      <trkpt lat="47.80571" lon="7.20531">
        <ele>279.5</ele>
        <time>2019-08-16T08:28:22Z</time>
      </trkpt>
      <trkpt lat="47.80571" lon="7.20539">
        <ele>279.4</ele>
        <time>2019-08-16T08:28:23Z</time>
      </trkpt>
      <trkpt lat="47.8057" lon="7.20549">
        <ele>279.4</ele>
        <time>2019-08-16T08:28:24Z</time>
      </trkpt>
      <trkpt lat="47.8057" lon="7.20556">
        <ele>279.4</ele>
        <time>2019-08-16T08:28:25Z</time>
      </trkpt>
      <trkpt lat="47.8057" lon="7.20563">
        <ele>279.3</ele>
        <time>2019-08-16T08:28:26Z</time>
      </trkpt>
      <trkpt lat="47.8057" lon="7.2057">
        <ele>279.3</ele>
        <time>2019-08-16T08:28:27Z</time>
      </trkpt>
      <trkpt lat="47.80571" lon="7.20577">
        <ele>279.3</ele>
        <time>2019-08-16T08:28:28Z</time>
      </trkpt>
      <trkpt lat="47.80572" lon="7.20583">
        <ele>279.2</ele>
        <time>2019-08-16T08:28:29Z</time>
      </trkpt>
      <trkpt lat="47.80574" lon="7.2059">
        <ele>279.2</ele>
        <time>2019-08-16T08:28:30Z</time>
      </trkpt>
      <trkpt lat="47.80576" lon="7.20599">
        <ele>279.2</ele>
        <time>2019-08-16T08:28:31Z</time>
      </trkpt>
      <trkpt lat="47.8058" lon="7.20608">
        <ele>279.1</ele>
        <time>2019-08-16T08:28:32Z</time>
      </trkpt>
      <trkpt lat="47.80583" lon="7.20617">
        <ele>279.1</ele>
        <time>2019-08-16T08:28:33Z</time>
      </trkpt>
      <trkpt lat="47.80587" lon="7.20625">
        <ele>279</ele>
        <time>2019-08-16T08:28:34Z</time>
      </trkpt>
      <trkpt lat="47.80589" lon="7.20636">
        <ele>279</ele>
        <time>2019-08-16T08:28:35Z</time>
      </trkpt>
      <trkpt lat="47.80592" lon="7.20645">
        <ele>278.9</ele>
        <time>2019-08-16T08:28:36Z</time>
      </trkpt>
      <trkpt lat="47.80595" lon="7.20652">
        <ele>278.9</ele>
        <time>2019-08-16T08:28:37Z</time>
      </trkpt>
      <trkpt lat="47.80599" lon="7.20661">
        <ele>278.8</ele>
        <time>2019-08-16T08:28:38Z</time>
      </trkpt>
      <trkpt lat="47.80602" lon="7.20669">
        <ele>278.8</ele>
        <time>2019-08-16T08:28:39Z</time>
      </trkpt>
      <trkpt lat="47.80606" lon="7.20675">
        <ele>278.7</ele>
        <time>2019-08-16T08:28:40Z</time>
      </trkpt>
      <trkpt lat="47.80609" lon="7.20682">
        <ele>278.7</ele>
        <time>2019-08-16T08:28:41Z</time>
      </trkpt>
      <trkpt lat="47.80613" lon="7.20688">
        <ele>278.6</ele>
        <time>2019-08-16T08:28:42Z</time>
      </trkpt>
      <trkpt lat="47.80616" lon="7.20695">
        <ele>278.6</ele>
        <time>2019-08-16T08:28:43Z</time>
      </trkpt>
      <trkpt lat="47.8062" lon="7.20702">
        <ele>278.5</ele>
        <time>2019-08-16T08:28:44Z</time>
      </trkpt>
      <trkpt lat="47.80624" lon="7.20708">
        <ele>278.4</ele>
        <time>2019-08-16T08:28:45Z</time>
      </trkpt>
      <trkpt lat="47.80628" lon="7.20715">
        <ele>278.4</ele>
        <time>2019-08-16T08:28:46Z</time>
      </trkpt>
      <trkpt lat="47.80631" lon="7.20722">
        <ele>278.3</ele>
        <time>2019-08-16T08:28:47Z</time>
      </trkpt>
      <trkpt lat="47.80635" lon="7.20729">
        <ele>278.2</ele>
        <time>2019-08-16T08:28:48Z</time>
      </trkpt>
      <trkpt lat="47.80638" lon="7.20736">
        <ele>278.2</ele>
        <time>2019-08-16T08:28:49Z</time>
      </trkpt>
      <trkpt lat="47.80642" lon="7.20743">
        <ele>278.1</ele>
        <time>2019-08-16T08:28:50Z</time>
      </trkpt>
      <trkpt lat="47.80646" lon="7.2075">
        <ele>278</ele>
        <time>2019-08-16T08:28:51Z</time>
      </trkpt>
      <trkpt lat="47.8065" lon="7.20757">
        <ele>277.9</ele>
        <time>2019-08-16T08:28:52Z</time>
      </trkpt>
      <trkpt lat="47.80654" lon="7.20763">
        <ele>277.9</ele>
        <time>2019-08-16T08:28:53Z</time>
      </trkpt>
      <trkpt lat="47.80658" lon="7.20769">
        <ele>277.8</ele>
        <time>2019-08-16T08:28:54Z</time>
      </trkpt>
      <trkpt lat="47.80662" lon="7.20775">
        <ele>277.8</ele>
        <time>2019-08-16T08:28:55Z</time>
      </trkpt>
      <trkpt lat="47.80666" lon="7.20781">
        <ele>277.7</ele>
        <time>2019-08-16T08:28:56Z</time>
      </trkpt>
      <trkpt lat="47.80671" lon="7.20787">
        <ele>277.6</ele>
        <time>2019-08-16T08:28:57Z</time>
      </trkpt>
      <trkpt lat="47.80676" lon="7.20792">
        <ele>277.6</ele>
        <time>2019-08-16T08:28:58Z</time>
      </trkpt>
      <trkpt lat="47.80681" lon="7.20797">
        <ele>277.5</ele>
        <time>2019-08-16T08:28:59Z</time>
      </trkpt>
      <trkpt lat="47.80686" lon="7.20802">
        <ele>277.4</ele>
        <time>2019-08-16T08:29:00Z</time>
      </trkpt>
      <trkpt lat="47.80691" lon="7.20807">
        <ele>277.4</ele>
        <time>2019-08-16T08:29:01Z</time>
      </trkpt>
      <trkpt lat="47.80696" lon="7.20813">
        <ele>277.3</ele>
        <time>2019-08-16T08:29:02Z</time>
      </trkpt>
      <trkpt lat="47.80702" lon="7.20818">
        <ele>277.2</ele>
        <time>2019-08-16T08:29:03Z</time>
      </trkpt>
      <trkpt lat="47.80707" lon="7.20823">
        <ele>277.2</ele>
        <time>2019-08-16T08:29:04Z</time>
      </trkpt>
      <trkpt lat="47.80712" lon="7.20828">
        <ele>277.1</ele>
        <time>2019-08-16T08:29:05Z</time>
      </trkpt>
      <trkpt lat="47.80716" lon="7.20834">
        <ele>277</ele>
        <time>2019-08-16T08:29:06Z</time>
      </trkpt>
      <trkpt lat="47.80721" lon="7.20839">
        <ele>277</ele>
        <time>2019-08-16T08:29:07Z</time>
      </trkpt>
      <trkpt lat="47.80726" lon="7.20844">
        <ele>276.9</ele>
        <time>2019-08-16T08:29:08Z</time>
      </trkpt>
      <trkpt lat="47.80731" lon="7.20849">
        <ele>276.9</ele>
        <time>2019-08-16T08:29:09Z</time>
      </trkpt>
      <trkpt lat="47.80735" lon="7.20854">
        <ele>276.8</ele>
        <time>2019-08-16T08:29:10Z</time>
      </trkpt>
      <trkpt lat="47.8074" lon="7.20859">
        <ele>276.8</ele>
        <time>2019-08-16T08:29:11Z</time>
      </trkpt>
      <trkpt lat="47.80745" lon="7.20865">
        <ele>276.7</ele>
        <time>2019-08-16T08:29:12Z</time>
      </trkpt>
      <trkpt lat="47.8075" lon="7.2087">
        <ele>276.6</ele>
        <time>2019-08-16T08:29:13Z</time>
      </trkpt>
      <trkpt lat="47.80754" lon="7.20876">
        <ele>276.6</ele>
        <time>2019-08-16T08:29:14Z</time>
      </trkpt>
      <trkpt lat="47.80758" lon="7.20882">
        <ele>276.5</ele>
        <time>2019-08-16T08:29:15Z</time>
      </trkpt>
      <trkpt lat="47.80761" lon="7.20888">
        <ele>276.5</ele>
        <time>2019-08-16T08:29:16Z</time>
      </trkpt>
      <trkpt lat="47.80766" lon="7.20894">
        <ele>276.4</ele>
        <time>2019-08-16T08:29:17Z</time>
      </trkpt>
      <trkpt lat="47.8077" lon="7.20899">
        <ele>276.4</ele>
        <time>2019-08-16T08:29:18Z</time>
      </trkpt>
      <trkpt lat="47.80775" lon="7.20905">
        <ele>276.3</ele>
        <time>2019-08-16T08:29:19Z</time>
      </trkpt>
      <trkpt lat="47.8078" lon="7.2091">
        <ele>276.3</ele>
        <time>2019-08-16T08:29:20Z</time>
      </trkpt>
      <trkpt lat="47.80784" lon="7.20915">
        <ele>276.2</ele>
        <time>2019-08-16T08:29:21Z</time>
      </trkpt>
      <trkpt lat="47.80789" lon="7.20921">
        <ele>276.1</ele>
        <time>2019-08-16T08:29:22Z</time>
      </trkpt>
      <trkpt lat="47.80793" lon="7.20928">
        <ele>276</ele>
        <time>2019-08-16T08:29:23Z</time>
      </trkpt>
      <trkpt lat="47.80797" lon="7.20935">
        <ele>276</ele>
        <time>2019-08-16T08:29:24Z</time>
      </trkpt>
      <trkpt lat="47.80801" lon="7.20941">
        <ele>275.9</ele>
        <time>2019-08-16T08:29:25Z</time>
      </trkpt>
      <trkpt lat="47.80805" lon="7.20947">
        <ele>275.8</ele>
        <time>2019-08-16T08:29:26Z</time>
      </trkpt>
      <trkpt lat="47.80809" lon="7.20954">
        <ele>275.7</ele>
        <time>2019-08-16T08:29:27Z</time>
      </trkpt>
      <trkpt lat="47.80814" lon="7.20961">
        <ele>275.6</ele>
        <time>2019-08-16T08:29:28Z</time>
      </trkpt>
      <trkpt lat="47.80818" lon="7.20968">
        <ele>275.6</ele>
        <time>2019-08-16T08:29:29Z</time>
      </trkpt>
      <trkpt lat="47.80822" lon="7.20974">
        <ele>275.5</ele>
        <time>2019-08-16T08:29:30Z</time>
      </trkpt>
      <trkpt lat="47.80826" lon="7.20981">
        <ele>275.4</ele>
        <time>2019-08-16T08:29:31Z</time>
      </trkpt>
      <trkpt lat="47.80829" lon="7.20988">
        <ele>275.3</ele>
        <time>2019-08-16T08:29:32Z</time>
      </trkpt>
      <trkpt lat="47.80833" lon="7.20995">
        <ele>275.2</ele>
        <time>2019-08-16T08:29:33Z</time>
      </trkpt>
      <trkpt lat="47.80837" lon="7.21002">
        <ele>275.1</ele>
        <time>2019-08-16T08:29:34Z</time>
      </trkpt>
      <trkpt lat="47.80841" lon="7.21009">
        <ele>274.9</ele>
        <time>2019-08-16T08:29:35Z</time>
      </trkpt>
      <trkpt lat="47.80845" lon="7.21017">
        <ele>274.8</ele>
        <time>2019-08-16T08:29:36Z</time>
      </trkpt>
      <trkpt lat="47.80849" lon="7.21025">
        <ele>274.7</ele>
        <time>2019-08-16T08:29:37Z</time>
      </trkpt>
      <trkpt lat="47.80854" lon="7.21032">
        <ele>274.6</ele>
        <time>2019-08-16T08:29:38Z</time>
      </trkpt>
      <trkpt lat="47.80856" lon="7.21038">
        <ele>274.5</ele>
        <time>2019-08-16T08:29:39Z</time>
      </trkpt>
      <trkpt lat="47.8086" lon="7.21046">
        <ele>274.4</ele>
        <time>2019-08-16T08:29:40Z</time>
      </trkpt>
      <trkpt lat="47.80864" lon="7.21052">
        <ele>274.3</ele>
        <time>2019-08-16T08:29:41Z</time>
      </trkpt>
      <trkpt lat="47.80868" lon="7.21059">
        <ele>274.3</ele>
        <time>2019-08-16T08:29:42Z</time>
      </trkpt>
      <trkpt lat="47.80871" lon="7.21066">
        <ele>274.2</ele>
        <time>2019-08-16T08:29:43Z</time>
      </trkpt>
      <trkpt lat="47.80875" lon="7.21071">
        <ele>274.1</ele>
        <time>2019-08-16T08:29:44Z</time>
      </trkpt>
      <trkpt lat="47.80878" lon="7.21078">
        <ele>274</ele>
        <time>2019-08-16T08:29:45Z</time>
      </trkpt>
      <trkpt lat="47.80882" lon="7.21084">
        <ele>273.9</ele>
        <time>2019-08-16T08:29:46Z</time>
      </trkpt>
      <trkpt lat="47.80886" lon="7.21091">
        <ele>273.9</ele>
        <time>2019-08-16T08:29:47Z</time>
      </trkpt>
      <trkpt lat="47.8089" lon="7.21097">
        <ele>273.8</ele>
        <time>2019-08-16T08:29:48Z</time>
      </trkpt>
      <trkpt lat="47.80894" lon="7.21103">
        <ele>273.7</ele>
        <time>2019-08-16T08:29:49Z</time>
      </trkpt>
      <trkpt lat="47.80898" lon="7.21109">
        <ele>273.6</ele>
        <time>2019-08-16T08:29:50Z</time>
      </trkpt>
      <trkpt lat="47.80901" lon="7.21115">
        <ele>273.6</ele>
        <time>2019-08-16T08:29:51Z</time>
      </trkpt>
      <trkpt lat="47.80904" lon="7.21122">
        <ele>273.5</ele>
        <time>2019-08-16T08:29:52Z</time>
      </trkpt>
      <trkpt lat="47.80908" lon="7.21129">
        <ele>273.4</ele>
        <time>2019-08-16T08:29:53Z</time>
      </trkpt>
      <trkpt lat="47.80912" lon="7.21135">
        <ele>273.3</ele>
        <time>2019-08-16T08:29:54Z</time>
      </trkpt>
      <trkpt lat="47.80916" lon="7.21142">
        <ele>273.2</ele>
        <time>2019-08-16T08:29:55Z</time>
      </trkpt>
      <trkpt lat="47.8092" lon="7.21149">
        <ele>273.1</ele>
        <time>2019-08-16T08:29:56Z</time>
      </trkpt>
      <trkpt lat="47.80925" lon="7.21156">
        <ele>273</ele>
        <time>2019-08-16T08:29:57Z</time>
      </trkpt>
      <trkpt lat="47.80929" lon="7.21162">
        <ele>272.9</ele>
        <time>2019-08-16T08:29:58Z</time>
      </trkpt>
      <trkpt lat="47.80932" lon="7.21168">
        <ele>272.8</ele>
        <time>2019-08-16T08:29:59Z</time>
      </trkpt>
      <trkpt lat="47.80936" lon="7.21175">
        <ele>272.7</ele>
        <time>2019-08-16T08:30:00Z</time>
      </trkpt>
      <trkpt lat="47.80939" lon="7.21182">
        <ele>272.7</ele>
        <time>2019-08-16T08:30:01Z</time>
      </trkpt>
      <trkpt lat="47.80943" lon="7.21188">
        <ele>272.5</ele>
        <time>2019-08-16T08:30:02Z</time>
      </trkpt>
      <trkpt lat="47.80945" lon="7.21194">
        <ele>272.4</ele>
        <time>2019-08-16T08:30:03Z</time>
      </trkpt>
      <trkpt lat="47.80949" lon="7.21201">
        <ele>272.3</ele>
        <time>2019-08-16T08:30:04Z</time>
      </trkpt>
      <trkpt lat="47.80951" lon="7.21209">
        <ele>272.2</ele>
        <time>2019-08-16T08:30:05Z</time>
      </trkpt>
      <trkpt lat="47.80954" lon="7.21216">
        <ele>272.1</ele>
        <time>2019-08-16T08:30:06Z</time>
      </trkpt>
      <trkpt lat="47.80956" lon="7.21223">
        <ele>272</ele>
        <time>2019-08-16T08:30:07Z</time>
      </trkpt>
      <trkpt lat="47.80959" lon="7.2123">
        <ele>272</ele>
        <time>2019-08-16T08:30:08Z</time>
      </trkpt>
      <trkpt lat="47.80962" lon="7.21237">
        <ele>271.9</ele>
        <time>2019-08-16T08:30:09Z</time>
      </trkpt>
      <trkpt lat="47.80965" lon="7.21243">
        <ele>271.9</ele>
        <time>2019-08-16T08:30:10Z</time>
      </trkpt>
      <trkpt lat="47.80968" lon="7.21249">
        <ele>271.9</ele>
        <time>2019-08-16T08:30:11Z</time>
      </trkpt>
      <trkpt lat="47.8097" lon="7.21256">
        <ele>271.9</ele>
        <time>2019-08-16T08:30:12Z</time>
      </trkpt>
      <trkpt lat="47.80972" lon="7.21263">
        <ele>271.9</ele>
        <time>2019-08-16T08:30:13Z</time>
      </trkpt>
      <trkpt lat="47.80975" lon="7.21269">
        <ele>271.9</ele>
        <time>2019-08-16T08:30:14Z</time>
      </trkpt>
      <trkpt lat="47.80978" lon="7.21276">
        <ele>271.9</ele>
        <time>2019-08-16T08:30:15Z</time>
      </trkpt>
      <trkpt lat="47.8098" lon="7.21283">
        <ele>271.9</ele>
        <time>2019-08-16T08:30:16Z</time>
      </trkpt>
      <trkpt lat="47.80983" lon="7.21291">
        <ele>271.9</ele>
        <time>2019-08-16T08:30:17Z</time>
      </trkpt>
      <trkpt lat="47.80985" lon="7.21298">
        <ele>272</ele>
        <time>2019-08-16T08:30:18Z</time>
      </trkpt>
      <trkpt lat="47.80988" lon="7.21306">
        <ele>272</ele>
        <time>2019-08-16T08:30:19Z</time>
      </trkpt>
      <trkpt lat="47.80991" lon="7.21314">
        <ele>272</ele>
        <time>2019-08-16T08:30:20Z</time>
      </trkpt>
      <trkpt lat="47.80994" lon="7.21321">
        <ele>272</ele>
        <time>2019-08-16T08:30:21Z</time>
      </trkpt>
      <trkpt lat="47.80997" lon="7.21328">
        <ele>272</ele>
        <time>2019-08-16T08:30:22Z</time>
      </trkpt>
      <trkpt lat="47.81" lon="7.21334">
        <ele>272</ele>
        <time>2019-08-16T08:30:23Z</time>
      </trkpt>
      <trkpt lat="47.81003" lon="7.21341">
        <ele>272</ele>
        <time>2019-08-16T08:30:24Z</time>
      </trkpt>
      <trkpt lat="47.81006" lon="7.21347">
        <ele>271.9</ele>
        <time>2019-08-16T08:30:25Z</time>
      </trkpt>
      <trkpt lat="47.81009" lon="7.21353">
        <ele>271.9</ele>
        <time>2019-08-16T08:30:26Z</time>
      </trkpt>
      <trkpt lat="47.81013" lon="7.2136">
        <ele>271.9</ele>
        <time>2019-08-16T08:30:27Z</time>
      </trkpt>
      <trkpt lat="47.81017" lon="7.21365">
        <ele>271.8</ele>
        <time>2019-08-16T08:30:28Z</time>
      </trkpt>
      <trkpt lat="47.81022" lon="7.21372">
        <ele>271.7</ele>
        <time>2019-08-16T08:30:29Z</time>
      </trkpt>
      <trkpt lat="47.81026" lon="7.2138">
        <ele>271.6</ele>
        <time>2019-08-16T08:30:30Z</time>
      </trkpt>
      <trkpt lat="47.81031" lon="7.21386">
        <ele>271.5</ele>
        <time>2019-08-16T08:30:31Z</time>
      </trkpt>
      <trkpt lat="47.81034" lon="7.21393">
        <ele>271.4</ele>
        <time>2019-08-16T08:30:32Z</time>
      </trkpt>
      <trkpt lat="47.81038" lon="7.21399">
        <ele>271.3</ele>
        <time>2019-08-16T08:30:33Z</time>
      </trkpt>
      <trkpt lat="47.81042" lon="7.21406">
        <ele>271.2</ele>
        <time>2019-08-16T08:30:34Z</time>
      </trkpt>
      <trkpt lat="47.81046" lon="7.21413">
        <ele>271</ele>
        <time>2019-08-16T08:30:35Z</time>
      </trkpt>
      <trkpt lat="47.81049" lon="7.2142">
        <ele>270.9</ele>
        <time>2019-08-16T08:30:36Z</time>
      </trkpt>
      <trkpt lat="47.81053" lon="7.21426">
        <ele>270.8</ele>
        <time>2019-08-16T08:30:37Z</time>
      </trkpt>
      <trkpt lat="47.81057" lon="7.21432">
        <ele>270.7</ele>
        <time>2019-08-16T08:30:38Z</time>
      </trkpt>
      <trkpt lat="47.81061" lon="7.21438">
        <ele>270.6</ele>
        <time>2019-08-16T08:30:39Z</time>
      </trkpt>
      <trkpt lat="47.81065" lon="7.21445">
        <ele>270.5</ele>
        <time>2019-08-16T08:30:40Z</time>
      </trkpt>
      <trkpt lat="47.81069" lon="7.21451">
        <ele>270.4</ele>
        <time>2019-08-16T08:30:41Z</time>
      </trkpt>
      <trkpt lat="47.81073" lon="7.21458">
        <ele>270.3</ele>
        <time>2019-08-16T08:30:42Z</time>
      </trkpt>
      <trkpt lat="47.81077" lon="7.21464">
        <ele>270.2</ele>
        <time>2019-08-16T08:30:43Z</time>
      </trkpt>
      <trkpt lat="47.81081" lon="7.21471">
        <ele>270.1</ele>
        <time>2019-08-16T08:30:44Z</time>
      </trkpt>
      <trkpt lat="47.81085" lon="7.21478">
        <ele>270</ele>
        <time>2019-08-16T08:30:45Z</time>
      </trkpt>
      <trkpt lat="47.81088" lon="7.21485">
        <ele>269.9</ele>
        <time>2019-08-16T08:30:46Z</time>
      </trkpt>
      <trkpt lat="47.81091" lon="7.21492">
        <ele>269.8</ele>
        <time>2019-08-16T08:30:47Z</time>
      </trkpt>
      <trkpt lat="47.81093" lon="7.21499">
        <ele>269.8</ele>
        <time>2019-08-16T08:30:48Z</time>
      </trkpt>
      <trkpt lat="47.81096" lon="7.21507">
        <ele>269.7</ele>
        <time>2019-08-16T08:30:49Z</time>
      </trkpt>
      <trkpt lat="47.81098" lon="7.21513">
        <ele>269.7</ele>
        <time>2019-08-16T08:30:50Z</time>
      </trkpt>
      <trkpt lat="47.811" lon="7.21519">
        <ele>269.7</ele>
        <time>2019-08-16T08:30:51Z</time>
      </trkpt>
      <trkpt lat="47.81103" lon="7.21525">
        <ele>269.7</ele>
        <time>2019-08-16T08:30:52Z</time>
      </trkpt>
      <trkpt lat="47.81107" lon="7.21532">
        <ele>269.6</ele>
        <time>2019-08-16T08:30:53Z</time>
      </trkpt>
      <trkpt lat="47.81111" lon="7.2154">
        <ele>269.6</ele>
        <time>2019-08-16T08:30:54Z</time>
      </trkpt>
      <trkpt lat="47.81114" lon="7.21547">
        <ele>269.5</ele>
        <time>2019-08-16T08:30:55Z</time>
      </trkpt>
      <trkpt lat="47.81118" lon="7.21554">
        <ele>269.5</ele>
        <time>2019-08-16T08:30:56Z</time>
      </trkpt>
      <trkpt lat="47.81121" lon="7.2156">
        <ele>269.4</ele>
        <time>2019-08-16T08:30:57Z</time>
      </trkpt>
      <trkpt lat="47.81124" lon="7.21566">
        <ele>269.4</ele>
        <time>2019-08-16T08:30:58Z</time>
      </trkpt>
      <trkpt lat="47.81127" lon="7.21572">
        <ele>269.3</ele>
        <time>2019-08-16T08:30:59Z</time>
      </trkpt>
      <trkpt lat="47.81131" lon="7.21578">
        <ele>269.3</ele>
        <time>2019-08-16T08:31:00Z</time>
      </trkpt>
      <trkpt lat="47.81133" lon="7.21585">
        <ele>269.3</ele>
        <time>2019-08-16T08:31:01Z</time>
      </trkpt>
      <trkpt lat="47.81136" lon="7.21591">
        <ele>269.2</ele>
        <time>2019-08-16T08:31:02Z</time>
      </trkpt>
      <trkpt lat="47.81139" lon="7.21598">
        <ele>269.2</ele>
        <time>2019-08-16T08:31:03Z</time>
      </trkpt>
      <trkpt lat="47.81142" lon="7.21605">
        <ele>269.1</ele>
        <time>2019-08-16T08:31:04Z</time>
      </trkpt>
      <trkpt lat="47.81144" lon="7.21612">
        <ele>269.1</ele>
        <time>2019-08-16T08:31:05Z</time>
      </trkpt>
      <trkpt lat="47.81146" lon="7.21619">
        <ele>269</ele>
        <time>2019-08-16T08:31:06Z</time>
      </trkpt>
      <trkpt lat="47.81148" lon="7.21627">
        <ele>269</ele>
        <time>2019-08-16T08:31:07Z</time>
      </trkpt>
      <trkpt lat="47.81151" lon="7.21634">
        <ele>269</ele>
        <time>2019-08-16T08:31:08Z</time>
      </trkpt>
      <trkpt lat="47.81153" lon="7.21641">
        <ele>268.9</ele>
        <time>2019-08-16T08:31:09Z</time>
      </trkpt>
      <trkpt lat="47.81155" lon="7.21649">
        <ele>268.9</ele>
        <time>2019-08-16T08:31:10Z</time>
      </trkpt>
      <trkpt lat="47.81156" lon="7.21655">
        <ele>268.8</ele>
        <time>2019-08-16T08:31:11Z</time>
      </trkpt>
      <trkpt lat="47.81159" lon="7.21664">
        <ele>268.8</ele>
        <time>2019-08-16T08:31:12Z</time>
      </trkpt>
      <trkpt lat="47.81161" lon="7.21672">
        <ele>268.8</ele>
        <time>2019-08-16T08:31:13Z</time>
      </trkpt>
      <trkpt lat="47.81162" lon="7.21683">
        <ele>268.7</ele>
        <time>2019-08-16T08:31:14Z</time>
      </trkpt>
      <trkpt lat="47.81164" lon="7.2169">
        <ele>268.7</ele>
        <time>2019-08-16T08:31:15Z</time>
      </trkpt>
      <trkpt lat="47.81165" lon="7.217">
        <ele>268.6</ele>
        <time>2019-08-16T08:31:16Z</time>
      </trkpt>
      <trkpt lat="47.81166" lon="7.2171">
        <ele>268.5</ele>
        <time>2019-08-16T08:31:17Z</time>
      </trkpt>
      <trkpt lat="47.81167" lon="7.21721">
        <ele>268.4</ele>
        <time>2019-08-16T08:31:18Z</time>
      </trkpt>
      <trkpt lat="47.81167" lon="7.21729">
        <ele>268.4</ele>
        <time>2019-08-16T08:31:19Z</time>
      </trkpt>
      <trkpt lat="47.81168" lon="7.21737">
        <ele>268.3</ele>
        <time>2019-08-16T08:31:20Z</time>
      </trkpt>
      <trkpt lat="47.81169" lon="7.21747">
        <ele>268.2</ele>
        <time>2019-08-16T08:31:21Z</time>
      </trkpt>
      <trkpt lat="47.81171" lon="7.21757">
        <ele>268</ele>
        <time>2019-08-16T08:31:22Z</time>
      </trkpt>
      <trkpt lat="47.81171" lon="7.21767">
        <ele>267.9</ele>
        <time>2019-08-16T08:31:23Z</time>
      </trkpt>
      <trkpt lat="47.81172" lon="7.21776">
        <ele>267.8</ele>
        <time>2019-08-16T08:31:24Z</time>
      </trkpt>
      <trkpt lat="47.81171" lon="7.21788">
        <ele>267.6</ele>
        <time>2019-08-16T08:31:25Z</time>
      </trkpt>
      <trkpt lat="47.8117" lon="7.21796">
        <ele>267.5</ele>
        <time>2019-08-16T08:31:26Z</time>
      </trkpt>
      <trkpt lat="47.81169" lon="7.21804">
        <ele>267.4</ele>
        <time>2019-08-16T08:31:27Z</time>
      </trkpt>
      <trkpt lat="47.81168" lon="7.21813">
        <ele>267.3</ele>
        <time>2019-08-16T08:31:28Z</time>
      </trkpt>
      <trkpt lat="47.81168" lon="7.21821">
        <ele>267.2</ele>
        <time>2019-08-16T08:31:29Z</time>
      </trkpt>
      <trkpt lat="47.81168" lon="7.21828">
        <ele>267.1</ele>
        <time>2019-08-16T08:31:30Z</time>
      </trkpt>
      <trkpt lat="47.81168" lon="7.21837">
        <ele>266.9</ele>
        <time>2019-08-16T08:31:31Z</time>
      </trkpt>
      <trkpt lat="47.81168" lon="7.21847">
        <ele>266.8</ele>
        <time>2019-08-16T08:31:32Z</time>
      </trkpt>
      <trkpt lat="47.81169" lon="7.21857">
        <ele>266.7</ele>
        <time>2019-08-16T08:31:33Z</time>
      </trkpt>
      <trkpt lat="47.8117" lon="7.21866">
        <ele>266.5</ele>
        <time>2019-08-16T08:31:34Z</time>
      </trkpt>
      <trkpt lat="47.81171" lon="7.21875">
        <ele>266.4</ele>
        <time>2019-08-16T08:31:35Z</time>
      </trkpt>
      <trkpt lat="47.81173" lon="7.21884">
        <ele>266.3</ele>
        <time>2019-08-16T08:31:36Z</time>
      </trkpt>
      <trkpt lat="47.81175" lon="7.21893">
        <ele>266.2</ele>
        <time>2019-08-16T08:31:37Z</time>
      </trkpt>
      <trkpt lat="47.81175" lon="7.21902">
        <ele>266.1</ele>
        <time>2019-08-16T08:31:38Z</time>
      </trkpt>
      <trkpt lat="47.81175" lon="7.21913">
        <ele>265.9</ele>
        <time>2019-08-16T08:31:39Z</time>
      </trkpt>
      <trkpt lat="47.81176" lon="7.2192">
        <ele>265.8</ele>
        <time>2019-08-16T08:31:40Z</time>
      </trkpt>
      <trkpt lat="47.81177" lon="7.2193">
        <ele>265.6</ele>
        <time>2019-08-16T08:31:41Z</time>
      </trkpt>
      <trkpt lat="47.81177" lon="7.2194">
        <ele>265.5</ele>
        <time>2019-08-16T08:31:42Z</time>
      </trkpt>
      <trkpt lat="47.81177" lon="7.21949">
        <ele>265.3</ele>
        <time>2019-08-16T08:31:43Z</time>
      </trkpt>
      <trkpt lat="47.81177" lon="7.21958">
        <ele>265.2</ele>
        <time>2019-08-16T08:31:44Z</time>
      </trkpt>
      <trkpt lat="47.81178" lon="7.21965">
        <ele>265.2</ele>
        <time>2019-08-16T08:31:45Z</time>
      </trkpt>
      <trkpt lat="47.81179" lon="7.21974">
        <ele>265.1</ele>
        <time>2019-08-16T08:31:46Z</time>
      </trkpt>
      <trkpt lat="47.81179" lon="7.21983">
        <ele>265.1</ele>
        <time>2019-08-16T08:31:47Z</time>
      </trkpt>
      <trkpt lat="47.81179" lon="7.21992">
        <ele>265</ele>
        <time>2019-08-16T08:31:48Z</time>
      </trkpt>
      <trkpt lat="47.8118" lon="7.22001">
        <ele>264.9</ele>
        <time>2019-08-16T08:31:49Z</time>
      </trkpt>
      <trkpt lat="47.81181" lon="7.2201">
        <ele>264.8</ele>
        <time>2019-08-16T08:31:50Z</time>
      </trkpt>
      <trkpt lat="47.81181" lon="7.22019">
        <ele>264.7</ele>
        <time>2019-08-16T08:31:51Z</time>
      </trkpt>
      <trkpt lat="47.81182" lon="7.2203">
        <ele>264.6</ele>
        <time>2019-08-16T08:31:52Z</time>
      </trkpt>
      <trkpt lat="47.81182" lon="7.2204">
        <ele>264.5</ele>
        <time>2019-08-16T08:31:53Z</time>
      </trkpt>
      <trkpt lat="47.81183" lon="7.2205">
        <ele>264.4</ele>
        <time>2019-08-16T08:31:54Z</time>
      </trkpt>
      <trkpt lat="47.81184" lon="7.22059">
        <ele>264.3</ele>
        <time>2019-08-16T08:31:55Z</time>
      </trkpt>
      <trkpt lat="47.81185" lon="7.22067">
        <ele>264.3</ele>
        <time>2019-08-16T08:31:56Z</time>
      </trkpt>
      <trkpt lat="47.81186" lon="7.22076">
        <ele>264.2</ele>
        <time>2019-08-16T08:31:57Z</time>
      </trkpt>
      <trkpt lat="47.81187" lon="7.22085">
        <ele>264.1</ele>
        <time>2019-08-16T08:31:58Z</time>
      </trkpt>
      <trkpt lat="47.81187" lon="7.22093">
        <ele>264</ele>
        <time>2019-08-16T08:31:59Z</time>
      </trkpt>
      <trkpt lat="47.81188" lon="7.22101">
        <ele>264</ele>
        <time>2019-08-16T08:32:00Z</time>
      </trkpt>
      <trkpt lat="47.8119" lon="7.22109">
        <ele>263.9</ele>
        <time>2019-08-16T08:32:01Z</time>
      </trkpt>
      <trkpt lat="47.8119" lon="7.22118">
        <ele>263.9</ele>
        <time>2019-08-16T08:32:02Z</time>
      </trkpt>
      <trkpt lat="47.81191" lon="7.22126">
        <ele>263.8</ele>
        <time>2019-08-16T08:32:03Z</time>
      </trkpt>
      <trkpt lat="47.81193" lon="7.22133">
        <ele>263.8</ele>
        <time>2019-08-16T08:32:04Z</time>
      </trkpt>
      <trkpt lat="47.81194" lon="7.2214">
        <ele>263.7</ele>
        <time>2019-08-16T08:32:05Z</time>
      </trkpt>
      <trkpt lat="47.81195" lon="7.22147">
        <ele>263.7</ele>
        <time>2019-08-16T08:32:06Z</time>
      </trkpt>
      <trkpt lat="47.81196" lon="7.22155">
        <ele>263.6</ele>
        <time>2019-08-16T08:32:07Z</time>
      </trkpt>
      <trkpt lat="47.81197" lon="7.22163">
        <ele>263.6</ele>
        <time>2019-08-16T08:32:08Z</time>
      </trkpt>
      <trkpt lat="47.81198" lon="7.22171">
        <ele>263.5</ele>
        <time>2019-08-16T08:32:09Z</time>
      </trkpt>
      <trkpt lat="47.81199" lon="7.22178">
        <ele>263.5</ele>
        <time>2019-08-16T08:32:10Z</time>
      </trkpt>
      <trkpt lat="47.81201" lon="7.22185">
        <ele>263.5</ele>
        <time>2019-08-16T08:32:11Z</time>
      </trkpt>
      <trkpt lat="47.81202" lon="7.22192">
        <ele>263.4</ele>
        <time>2019-08-16T08:32:12Z</time>
      </trkpt>
      <trkpt lat="47.81204" lon="7.22201">
        <ele>263.4</ele>
        <time>2019-08-16T08:32:13Z</time>
      </trkpt>
      <trkpt lat="47.81206" lon="7.22208">
        <ele>263.3</ele>
        <time>2019-08-16T08:32:14Z</time>
      </trkpt>
      <trkpt lat="47.81209" lon="7.22217">
        <ele>263.2</ele>
        <time>2019-08-16T08:32:15Z</time>
      </trkpt>
      <trkpt lat="47.81211" lon="7.22226">
        <ele>263.2</ele>
        <time>2019-08-16T08:32:16Z</time>
      </trkpt>
      <trkpt lat="47.81213" lon="7.22235">
        <ele>263.1</ele>
        <time>2019-08-16T08:32:17Z</time>
      </trkpt>
      <trkpt lat="47.81216" lon="7.22245">
        <ele>263</ele>
        <time>2019-08-16T08:32:18Z</time>
      </trkpt>
      <trkpt lat="47.81218" lon="7.22253">
        <ele>263</ele>
        <time>2019-08-16T08:32:19Z</time>
      </trkpt>
      <trkpt lat="47.81221" lon="7.22261">
        <ele>262.9</ele>
        <time>2019-08-16T08:32:20Z</time>
      </trkpt>
      <trkpt lat="47.81224" lon="7.22271">
        <ele>262.8</ele>
        <time>2019-08-16T08:32:21Z</time>
      </trkpt>
      <trkpt lat="47.81227" lon="7.22281">
        <ele>262.8</ele>
        <time>2019-08-16T08:32:22Z</time>
      </trkpt>
      <trkpt lat="47.8123" lon="7.2229">
        <ele>262.7</ele>
        <time>2019-08-16T08:32:23Z</time>
      </trkpt>
      <trkpt lat="47.81234" lon="7.22295">
        <ele>262.7</ele>
        <time>2019-08-16T08:32:24Z</time>
      </trkpt>
      <trkpt lat="47.81237" lon="7.22302">
        <ele>262.6</ele>
        <time>2019-08-16T08:32:25Z</time>
      </trkpt>
      <trkpt lat="47.81239" lon="7.22308">
        <ele>262.6</ele>
        <time>2019-08-16T08:32:26Z</time>
      </trkpt>
      <trkpt lat="47.81242" lon="7.22315">
        <ele>262.6</ele>
        <time>2019-08-16T08:32:27Z</time>
      </trkpt>
      <trkpt lat="47.81246" lon="7.22322">
        <ele>262.5</ele>
        <time>2019-08-16T08:32:28Z</time>
      </trkpt>
      <trkpt lat="47.81248" lon="7.22331">
        <ele>262.5</ele>
        <time>2019-08-16T08:32:29Z</time>
      </trkpt>
      <trkpt lat="47.8125" lon="7.22339">
        <ele>262.4</ele>
        <time>2019-08-16T08:32:30Z</time>
      </trkpt>
      <trkpt lat="47.81253" lon="7.22346">
        <ele>262.3</ele>
        <time>2019-08-16T08:32:31Z</time>
      </trkpt>
      <trkpt lat="47.81256" lon="7.22354">
        <ele>262.2</ele>
        <time>2019-08-16T08:32:32Z</time>
      </trkpt>
      <trkpt lat="47.81259" lon="7.22362">
        <ele>262.1</ele>
        <time>2019-08-16T08:32:33Z</time>
      </trkpt>
      <trkpt lat="47.81263" lon="7.22369">
        <ele>261.9</ele>
        <time>2019-08-16T08:32:34Z</time>
      </trkpt>
      <trkpt lat="47.81266" lon="7.22374">
        <ele>261.8</ele>
        <time>2019-08-16T08:32:35Z</time>
      </trkpt>
      <trkpt lat="47.81267" lon="7.22381">
        <ele>261.6</ele>
        <time>2019-08-16T08:32:36Z</time>
      </trkpt>
      <trkpt lat="47.8127" lon="7.22389">
        <ele>261.5</ele>
        <time>2019-08-16T08:32:37Z</time>
      </trkpt>
      <trkpt lat="47.81273" lon="7.22396">
        <ele>261.5</ele>
        <time>2019-08-16T08:32:38Z</time>
      </trkpt>
      <trkpt lat="47.81276" lon="7.22402">
        <ele>261.4</ele>
        <time>2019-08-16T08:32:39Z</time>
      </trkpt>
      <trkpt lat="47.81278" lon="7.22409">
        <ele>261.3</ele>
        <time>2019-08-16T08:32:40Z</time>
      </trkpt>
      <trkpt lat="47.81281" lon="7.22416">
        <ele>261.2</ele>
        <time>2019-08-16T08:32:41Z</time>
      </trkpt>
      <trkpt lat="47.81284" lon="7.22424">
        <ele>261.2</ele>
        <time>2019-08-16T08:32:42Z</time>
      </trkpt>
      <trkpt lat="47.81288" lon="7.22432">
        <ele>261.1</ele>
        <time>2019-08-16T08:32:43Z</time>
      </trkpt>
      <trkpt lat="47.81292" lon="7.2244">
        <ele>261.1</ele>
        <time>2019-08-16T08:32:44Z</time>
      </trkpt>
      <trkpt lat="47.81296" lon="7.22448">
        <ele>261</ele>
        <time>2019-08-16T08:32:45Z</time>
      </trkpt>
      <trkpt lat="47.813" lon="7.22454">
        <ele>261</ele>
        <time>2019-08-16T08:32:46Z</time>
      </trkpt>
      <trkpt lat="47.81304" lon="7.22461">
        <ele>260.9</ele>
        <time>2019-08-16T08:32:47Z</time>
      </trkpt>
      <trkpt lat="47.81308" lon="7.22468">
        <ele>260.9</ele>
        <time>2019-08-16T08:32:48Z</time>
      </trkpt>
      <trkpt lat="47.81311" lon="7.22474">
        <ele>260.9</ele>
        <time>2019-08-16T08:32:49Z</time>
      </trkpt>
      <trkpt lat="47.81315" lon="7.2248">
        <ele>260.8</ele>
        <time>2019-08-16T08:32:50Z</time>
      </trkpt>
      <trkpt lat="47.81318" lon="7.22486">
        <ele>260.8</ele>
        <time>2019-08-16T08:32:51Z</time>
      </trkpt>
      <trkpt lat="47.8132" lon="7.22495">
        <ele>260.8</ele>
        <time>2019-08-16T08:32:52Z</time>
      </trkpt>
      <trkpt lat="47.81323" lon="7.22501">
        <ele>260.8</ele>
        <time>2019-08-16T08:32:53Z</time>
      </trkpt>
      <trkpt lat="47.81327" lon="7.22509">
        <ele>260.8</ele>
        <time>2019-08-16T08:32:54Z</time>
      </trkpt>
      <trkpt lat="47.81331" lon="7.22518">
        <ele>260.7</ele>
        <time>2019-08-16T08:32:55Z</time>
      </trkpt>
      <trkpt lat="47.81334" lon="7.22525">
        <ele>260.7</ele>
        <time>2019-08-16T08:32:56Z</time>
      </trkpt>
      <trkpt lat="47.81338" lon="7.22532">
        <ele>260.6</ele>
        <time>2019-08-16T08:32:57Z</time>
      </trkpt>
      <trkpt lat="47.81341" lon="7.22538">
        <ele>260.6</ele>
        <time>2019-08-16T08:32:58Z</time>
      </trkpt>
      <trkpt lat="47.81346" lon="7.22544">
        <ele>260.5</ele>
        <time>2019-08-16T08:32:59Z</time>
      </trkpt>
      <trkpt lat="47.81349" lon="7.22551">
        <ele>260.5</ele>
        <time>2019-08-16T08:33:00Z</time>
      </trkpt>
      <trkpt lat="47.81353" lon="7.22558">
        <ele>260.4</ele>
        <time>2019-08-16T08:33:01Z</time>
      </trkpt>
      <trkpt lat="47.81358" lon="7.22565">
        <ele>260.4</ele>
        <time>2019-08-16T08:33:02Z</time>
      </trkpt>
      <trkpt lat="47.81362" lon="7.22573">
        <ele>260.3</ele>
        <time>2019-08-16T08:33:03Z</time>
      </trkpt>
      <trkpt lat="47.81366" lon="7.22581">
        <ele>260.3</ele>
        <time>2019-08-16T08:33:04Z</time>
      </trkpt>
      <trkpt lat="47.8137" lon="7.22589">
        <ele>260.2</ele>
        <time>2019-08-16T08:33:05Z</time>
      </trkpt>
      <trkpt lat="47.81374" lon="7.22599">
        <ele>260.2</ele>
        <time>2019-08-16T08:33:06Z</time>
      </trkpt>
      <trkpt lat="47.81377" lon="7.22607">
        <ele>260.1</ele>
        <time>2019-08-16T08:33:07Z</time>
      </trkpt>
      <trkpt lat="47.8138" lon="7.22616">
        <ele>260</ele>
        <time>2019-08-16T08:33:08Z</time>
      </trkpt>
      <trkpt lat="47.81384" lon="7.22624">
        <ele>259.9</ele>
        <time>2019-08-16T08:33:09Z</time>
      </trkpt>
      <trkpt lat="47.81387" lon="7.22632">
        <ele>259.8</ele>
        <time>2019-08-16T08:33:10Z</time>
      </trkpt>
      <trkpt lat="47.81391" lon="7.2264">
        <ele>259.7</ele>
        <time>2019-08-16T08:33:11Z</time>
      </trkpt>
      <trkpt lat="47.81394" lon="7.22649">
        <ele>259.6</ele>
        <time>2019-08-16T08:33:12Z</time>
      </trkpt>
      <trkpt lat="47.81397" lon="7.22657">
        <ele>259.5</ele>
        <time>2019-08-16T08:33:13Z</time>
      </trkpt>
      <trkpt lat="47.814" lon="7.22664">
        <ele>259.4</ele>
        <time>2019-08-16T08:33:14Z</time>
      </trkpt>
      <trkpt lat="47.81402" lon="7.22672">
        <ele>259.3</ele>
        <time>2019-08-16T08:33:15Z</time>
      </trkpt>
      <trkpt lat="47.81405" lon="7.2268">
        <ele>259.2</ele>
        <time>2019-08-16T08:33:16Z</time>
      </trkpt>
      <trkpt lat="47.81408" lon="7.22689">
        <ele>259.1</ele>
        <time>2019-08-16T08:33:17Z</time>
      </trkpt>
      <trkpt lat="47.8141" lon="7.22696">
        <ele>259.1</ele>
        <time>2019-08-16T08:33:18Z</time>
      </trkpt>
      <trkpt lat="47.81411" lon="7.22704">
        <ele>259</ele>
        <time>2019-08-16T08:33:19Z</time>
      </trkpt>
      <trkpt lat="47.81413" lon="7.22711">
        <ele>259</ele>
        <time>2019-08-16T08:33:20Z</time>
      </trkpt>
      <trkpt lat="47.81415" lon="7.22718">
        <ele>258.9</ele>
        <time>2019-08-16T08:33:21Z</time>
      </trkpt>
      <trkpt lat="47.81416" lon="7.22725">
        <ele>258.9</ele>
        <time>2019-08-16T08:33:22Z</time>
      </trkpt>
      <trkpt lat="47.81419" lon="7.22731">
        <ele>258.9</ele>
        <time>2019-08-16T08:33:23Z</time>
      </trkpt>
      <trkpt lat="47.81421" lon="7.22737">
        <ele>258.9</ele>
        <time>2019-08-16T08:33:24Z</time>
      </trkpt>
      <trkpt lat="47.81423" lon="7.22743">
        <ele>258.9</ele>
        <time>2019-08-16T08:33:25Z</time>
      </trkpt>
      <trkpt lat="47.81426" lon="7.22748">
        <ele>258.9</ele>
        <time>2019-08-16T08:33:26Z</time>
      </trkpt>
      <trkpt lat="47.81428" lon="7.22754">
        <ele>258.8</ele>
        <time>2019-08-16T08:33:27Z</time>
      </trkpt>
      <trkpt lat="47.81431" lon="7.22761">
        <ele>258.8</ele>
        <time>2019-08-16T08:33:28Z</time>
      </trkpt>
      <trkpt lat="47.81433" lon="7.22767">
        <ele>258.7</ele>
        <time>2019-08-16T08:33:29Z</time>
      </trkpt>
      <trkpt lat="47.81435" lon="7.22774">
        <ele>258.7</ele>
        <time>2019-08-16T08:33:30Z</time>
      </trkpt>
      <trkpt lat="47.81436" lon="7.22783">
        <ele>258.5</ele>
        <time>2019-08-16T08:33:31Z</time>
      </trkpt>
      <trkpt lat="47.81438" lon="7.22793">
        <ele>258.4</ele>
        <time>2019-08-16T08:33:32Z</time>
      </trkpt>
      <trkpt lat="47.8144" lon="7.22803">
        <ele>258.4</ele>
        <time>2019-08-16T08:33:33Z</time>
      </trkpt>
      <trkpt lat="47.81441" lon="7.22812">
        <ele>258.3</ele>
        <time>2019-08-16T08:33:34Z</time>
      </trkpt>
      <trkpt lat="47.81443" lon="7.22821">
        <ele>258.2</ele>
        <time>2019-08-16T08:33:35Z</time>
      </trkpt>
      <trkpt lat="47.81445" lon="7.2283">
        <ele>258.2</ele>
        <time>2019-08-16T08:33:36Z</time>
      </trkpt>
      <trkpt lat="47.81448" lon="7.2284">
        <ele>258.2</ele>
        <time>2019-08-16T08:33:37Z</time>
      </trkpt>
      <trkpt lat="47.81448" lon="7.22849">
        <ele>258.2</ele>
        <time>2019-08-16T08:33:38Z</time>
      </trkpt>
      <trkpt lat="47.8145" lon="7.22857">
        <ele>258.2</ele>
        <time>2019-08-16T08:33:39Z</time>
      </trkpt>
      <trkpt lat="47.81451" lon="7.22866">
        <ele>258.2</ele>
        <time>2019-08-16T08:33:40Z</time>
      </trkpt>
      <trkpt lat="47.81451" lon="7.22874">
        <ele>258.2</ele>
        <time>2019-08-16T08:33:41Z</time>
      </trkpt>
      <trkpt lat="47.81452" lon="7.22882">
        <ele>258.2</ele>
        <time>2019-08-16T08:33:42Z</time>
      </trkpt>
      <trkpt lat="47.81453" lon="7.2289">
        <ele>258.2</ele>
        <time>2019-08-16T08:33:43Z</time>
      </trkpt>
      <trkpt lat="47.81455" lon="7.22898">
        <ele>258.3</ele>
        <time>2019-08-16T08:33:44Z</time>
      </trkpt>
      <trkpt lat="47.81456" lon="7.22906">
        <ele>258.3</ele>
        <time>2019-08-16T08:33:45Z</time>
      </trkpt>
      <trkpt lat="47.81458" lon="7.22914">
        <ele>258.4</ele>
        <time>2019-08-16T08:33:46Z</time>
      </trkpt>
      <trkpt lat="47.8146" lon="7.22922">
        <ele>258.4</ele>
        <time>2019-08-16T08:33:47Z</time>
      </trkpt>
      <trkpt lat="47.81462" lon="7.22931">
        <ele>258.4</ele>
        <time>2019-08-16T08:33:48Z</time>
      </trkpt>
      <trkpt lat="47.81464" lon="7.22941">
        <ele>258.4</ele>
        <time>2019-08-16T08:33:49Z</time>
      </trkpt>
      <trkpt lat="47.81466" lon="7.22949">
        <ele>258.4</ele>
        <time>2019-08-16T08:33:50Z</time>
      </trkpt>
      <trkpt lat="47.81468" lon="7.22955">
        <ele>258.4</ele>
        <time>2019-08-16T08:33:51Z</time>
      </trkpt>
      <trkpt lat="47.81469" lon="7.22963">
        <ele>258.4</ele>
        <time>2019-08-16T08:33:52Z</time>
      </trkpt>
      <trkpt lat="47.81471" lon="7.22969">
        <ele>258.4</ele>
        <time>2019-08-16T08:33:53Z</time>
      </trkpt>
      <trkpt lat="47.81473" lon="7.22978">
        <ele>258.4</ele>
        <time>2019-08-16T08:33:54Z</time>
      </trkpt>
      <trkpt lat="47.81474" lon="7.22984">
        <ele>258.4</ele>
        <time>2019-08-16T08:33:55Z</time>
      </trkpt>
      <trkpt lat="47.81476" lon="7.22991">
        <ele>258.4</ele>
        <time>2019-08-16T08:33:56Z</time>
      </trkpt>
      <trkpt lat="47.81477" lon="7.22999">
        <ele>258.4</ele>
        <time>2019-08-16T08:33:57Z</time>
      </trkpt>
      <trkpt lat="47.81477" lon="7.23007">
        <ele>258.5</ele>
        <time>2019-08-16T08:33:58Z</time>
      </trkpt>
      <trkpt lat="47.81478" lon="7.23015">
        <ele>258.5</ele>
        <time>2019-08-16T08:33:59Z</time>
      </trkpt>
      <trkpt lat="47.81479" lon="7.23023">
        <ele>258.6</ele>
        <time>2019-08-16T08:34:00Z</time>
      </trkpt>
      <trkpt lat="47.81479" lon="7.2303">
        <ele>258.6</ele>
        <time>2019-08-16T08:34:01Z</time>
      </trkpt>
      <trkpt lat="47.8148" lon="7.23038">
        <ele>258.6</ele>
        <time>2019-08-16T08:34:02Z</time>
      </trkpt>
      <trkpt lat="47.81482" lon="7.23047">
        <ele>258.7</ele>
        <time>2019-08-16T08:34:03Z</time>
      </trkpt>
      <trkpt lat="47.81483" lon="7.23055">
        <ele>258.7</ele>
        <time>2019-08-16T08:34:04Z</time>
      </trkpt>
      <trkpt lat="47.81484" lon="7.23063">
        <ele>258.7</ele>
        <time>2019-08-16T08:34:05Z</time>
      </trkpt>
      <trkpt lat="47.81486" lon="7.23072">
        <ele>258.8</ele>
        <time>2019-08-16T08:34:06Z</time>
      </trkpt>
      <trkpt lat="47.81486" lon="7.2308">
        <ele>258.8</ele>
        <time>2019-08-16T08:34:07Z</time>
      </trkpt>
      <trkpt lat="47.81487" lon="7.23086">
        <ele>258.8</ele>
        <time>2019-08-16T08:34:08Z</time>
      </trkpt>
      <trkpt lat="47.81487" lon="7.23093">
        <ele>258.8</ele>
        <time>2019-08-16T08:34:09Z</time>
      </trkpt>
      <trkpt lat="47.81487" lon="7.23101">
        <ele>258.8</ele>
        <time>2019-08-16T08:34:10Z</time>
      </trkpt>
      <trkpt lat="47.81488" lon="7.23109">
        <ele>258.8</ele>
        <time>2019-08-16T08:34:11Z</time>
      </trkpt>
      <trkpt lat="47.81489" lon="7.23119">
        <ele>258.7</ele>
        <time>2019-08-16T08:34:12Z</time>
      </trkpt>
      <trkpt lat="47.81489" lon="7.23126">
        <ele>258.7</ele>
        <time>2019-08-16T08:34:13Z</time>
      </trkpt>
      <trkpt lat="47.8149" lon="7.23133">
        <ele>258.7</ele>
        <time>2019-08-16T08:34:14Z</time>
      </trkpt>
      <trkpt lat="47.81491" lon="7.2314">
        <ele>258.6</ele>
        <time>2019-08-16T08:34:15Z</time>
      </trkpt>
      <trkpt lat="47.81492" lon="7.23148">
        <ele>258.5</ele>
        <time>2019-08-16T08:34:16Z</time>
      </trkpt>
      <trkpt lat="47.81492" lon="7.23157">
        <ele>258.5</ele>
        <time>2019-08-16T08:34:17Z</time>
      </trkpt>
      <trkpt lat="47.81493" lon="7.23164">
        <ele>258.4</ele>
        <time>2019-08-16T08:34:18Z</time>
      </trkpt>
      <trkpt lat="47.81494" lon="7.23172">
        <ele>258.3</ele>
        <time>2019-08-16T08:34:19Z</time>
      </trkpt>
      <trkpt lat="47.81496" lon="7.23179">
        <ele>258.3</ele>
        <time>2019-08-16T08:34:20Z</time>
      </trkpt>
      <trkpt lat="47.81497" lon="7.23187">
        <ele>258.2</ele>
        <time>2019-08-16T08:34:21Z</time>
      </trkpt>
      <trkpt lat="47.81498" lon="7.23195">
        <ele>258.2</ele>
        <time>2019-08-16T08:34:22Z</time>
      </trkpt>
      <trkpt lat="47.81499" lon="7.23204">
        <ele>258.1</ele>
        <time>2019-08-16T08:34:23Z</time>
      </trkpt>
      <trkpt lat="47.815" lon="7.23214">
        <ele>258.1</ele>
        <time>2019-08-16T08:34:24Z</time>
      </trkpt>
      <trkpt lat="47.81501" lon="7.23221">
        <ele>258.1</ele>
        <time>2019-08-16T08:34:25Z</time>
      </trkpt>
      <trkpt lat="47.81502" lon="7.23229">
        <ele>258</ele>
        <time>2019-08-16T08:34:26Z</time>
      </trkpt>
      <trkpt lat="47.81504" lon="7.23238">
        <ele>258</ele>
        <time>2019-08-16T08:34:27Z</time>
      </trkpt>
      <trkpt lat="47.81505" lon="7.23246">
        <ele>258</ele>
        <time>2019-08-16T08:34:28Z</time>
      </trkpt>
      <trkpt lat="47.81506" lon="7.23254">
        <ele>258</ele>
        <time>2019-08-16T08:34:29Z</time>
      </trkpt>
      <trkpt lat="47.81507" lon="7.23263">
        <ele>257.9</ele>
        <time>2019-08-16T08:34:30Z</time>
      </trkpt>
      <trkpt lat="47.81509" lon="7.2327">
        <ele>257.9</ele>
        <time>2019-08-16T08:34:31Z</time>
      </trkpt>
      <trkpt lat="47.8151" lon="7.23277">
        <ele>257.9</ele>
        <time>2019-08-16T08:34:32Z</time>
      </trkpt>
      <trkpt lat="47.81511" lon="7.23286">
        <ele>257.8</ele>
        <time>2019-08-16T08:34:33Z</time>
      </trkpt>
      <trkpt lat="47.81511" lon="7.23293">
        <ele>257.8</ele>
        <time>2019-08-16T08:34:34Z</time>
      </trkpt>
      <trkpt lat="47.81512" lon="7.23301">
        <ele>257.7</ele>
        <time>2019-08-16T08:34:35Z</time>
      </trkpt>
      <trkpt lat="47.81514" lon="7.2331">
        <ele>257.6</ele>
        <time>2019-08-16T08:34:36Z</time>
      </trkpt>
      <trkpt lat="47.81515" lon="7.23318">
        <ele>257.4</ele>
        <time>2019-08-16T08:34:37Z</time>
      </trkpt>
      <trkpt lat="47.81516" lon="7.23326">
        <ele>257.3</ele>
        <time>2019-08-16T08:34:38Z</time>
      </trkpt>
      <trkpt lat="47.81517" lon="7.23335">
        <ele>257</ele>
        <time>2019-08-16T08:34:39Z</time>
      </trkpt>
      <trkpt lat="47.81518" lon="7.23345">
        <ele>256.9</ele>
        <time>2019-08-16T08:34:40Z</time>
      </trkpt>
      <trkpt lat="47.8152" lon="7.23354">
        <ele>256.7</ele>
        <time>2019-08-16T08:34:41Z</time>
      </trkpt>
      <trkpt lat="47.81521" lon="7.23364">
        <ele>256.6</ele>
        <time>2019-08-16T08:34:42Z</time>
      </trkpt>
      <trkpt lat="47.81523" lon="7.23374">
        <ele>256.4</ele>
        <time>2019-08-16T08:34:43Z</time>
      </trkpt>
      <trkpt lat="47.81524" lon="7.23383">
        <ele>256.3</ele>
        <time>2019-08-16T08:34:44Z</time>
      </trkpt>
      <trkpt lat="47.81525" lon="7.23391">
        <ele>256.2</ele>
        <time>2019-08-16T08:34:45Z</time>
      </trkpt>
      <trkpt lat="47.81526" lon="7.23399">
        <ele>256.1</ele>
        <time>2019-08-16T08:34:46Z</time>
      </trkpt>
      <trkpt lat="47.81526" lon="7.23407">
        <ele>256.1</ele>
        <time>2019-08-16T08:34:47Z</time>
      </trkpt>
      <trkpt lat="47.81527" lon="7.23415">
        <ele>256</ele>
        <time>2019-08-16T08:34:48Z</time>
      </trkpt>
      <trkpt lat="47.81528" lon="7.23423">
        <ele>256</ele>
        <time>2019-08-16T08:34:49Z</time>
      </trkpt>
      <trkpt lat="47.81528" lon="7.23432">
        <ele>255.9</ele>
        <time>2019-08-16T08:34:50Z</time>
      </trkpt>
      <trkpt lat="47.81529" lon="7.23441">
        <ele>255.9</ele>
        <time>2019-08-16T08:34:51Z</time>
      </trkpt>
      <trkpt lat="47.8153" lon="7.23448">
        <ele>255.9</ele>
        <time>2019-08-16T08:34:52Z</time>
      </trkpt>
      <trkpt lat="47.81531" lon="7.23455">
        <ele>255.8</ele>
        <time>2019-08-16T08:34:53Z</time>
      </trkpt>
      <trkpt lat="47.81533" lon="7.23462">
        <ele>255.8</ele>
        <time>2019-08-16T08:34:54Z</time>
      </trkpt>
      <trkpt lat="47.81534" lon="7.23469">
        <ele>255.7</ele>
        <time>2019-08-16T08:34:55Z</time>
      </trkpt>
      <trkpt lat="47.81535" lon="7.23477">
        <ele>255.7</ele>
        <time>2019-08-16T08:34:56Z</time>
      </trkpt>
      <trkpt lat="47.81537" lon="7.23485">
        <ele>255.7</ele>
        <time>2019-08-16T08:34:57Z</time>
      </trkpt>
      <trkpt lat="47.81538" lon="7.23493">
        <ele>255.6</ele>
        <time>2019-08-16T08:34:58Z</time>
      </trkpt>
      <trkpt lat="47.81539" lon="7.23502">
        <ele>255.5</ele>
        <time>2019-08-16T08:34:59Z</time>
      </trkpt>
      <trkpt lat="47.81541" lon="7.23511">
        <ele>255.5</ele>
        <time>2019-08-16T08:35:00Z</time>
      </trkpt>
      <trkpt lat="47.81542" lon="7.23519">
        <ele>255.4</ele>
        <time>2019-08-16T08:35:01Z</time>
      </trkpt>
      <trkpt lat="47.81543" lon="7.23525">
        <ele>255.3</ele>
        <time>2019-08-16T08:35:02Z</time>
      </trkpt>
      <trkpt lat="47.81545" lon="7.23532">
        <ele>255.1</ele>
        <time>2019-08-16T08:35:03Z</time>
      </trkpt>
      <trkpt lat="47.81545" lon="7.23539">
        <ele>255</ele>
        <time>2019-08-16T08:35:04Z</time>
      </trkpt>
      <trkpt lat="47.81546" lon="7.23547">
        <ele>254.8</ele>
        <time>2019-08-16T08:35:05Z</time>
      </trkpt>
      <trkpt lat="47.81546" lon="7.23554">
        <ele>254.7</ele>
        <time>2019-08-16T08:35:06Z</time>
      </trkpt>
      <trkpt lat="47.81547" lon="7.23559">
        <ele>254.5</ele>
        <time>2019-08-16T08:35:07Z</time>
      </trkpt>
      <trkpt lat="47.81547" lon="7.23563">
        <ele>254.5</ele>
        <time>2019-08-16T08:35:08Z</time>
      </trkpt>
      <trkpt lat="47.81543" lon="7.23564">
        <ele>254.5</ele>
        <time>2019-08-16T08:35:11Z</time>
      </trkpt>
      <trkpt lat="47.81541" lon="7.23559">
        <ele>254.5</ele>
        <time>2019-08-16T08:35:13Z</time>
      </trkpt>
      <trkpt lat="47.81538" lon="7.23554">
        <ele>254.5</ele>
        <time>2019-08-16T08:35:15Z</time>
      </trkpt>
      <trkpt lat="47.81536" lon="7.23548">
        <ele>254.5</ele>
        <time>2019-08-16T08:35:17Z</time>
      </trkpt>
      <trkpt lat="47.81534" lon="7.23543">
        <ele>254.5</ele>
        <time>2019-08-16T08:35:18Z</time>
      </trkpt>
      <trkpt lat="47.81533" lon="7.2354">
        <ele>254.5</ele>
        <time>2019-08-16T08:35:19Z</time>
      </trkpt>
      <trkpt lat="47.81531" lon="7.23536">
        <ele>254.5</ele>
        <time>2019-08-16T08:35:20Z</time>
      </trkpt>
      <trkpt lat="47.8153" lon="7.23532">
        <ele>254.5</ele>
        <time>2019-08-16T08:35:21Z</time>
      </trkpt>
      <trkpt lat="47.81528" lon="7.23528">
        <ele>254.5</ele>
        <time>2019-08-16T08:35:22Z</time>
      </trkpt>
      <trkpt lat="47.81525" lon="7.23524">
        <ele>254.5</ele>
        <time>2019-08-16T08:35:24Z</time>
      </trkpt>
      <trkpt lat="47.81523" lon="7.2352">
        <ele>254.5</ele>
        <time>2019-08-16T08:35:25Z</time>
      </trkpt>
      <trkpt lat="47.8152" lon="7.23514">
        <ele>254.6</ele>
        <time>2019-08-16T08:35:27Z</time>
      </trkpt>
      <trkpt lat="47.81517" lon="7.23508">
        <ele>254.6</ele>
        <time>2019-08-16T08:35:28Z</time>
      </trkpt>
      <trkpt lat="47.81516" lon="7.23504">
        <ele>254.6</ele>
        <time>2019-08-16T08:35:29Z</time>
      </trkpt>
      <trkpt lat="47.81513" lon="7.23499">
        <ele>254.7</ele>
        <time>2019-08-16T08:35:31Z</time>
      </trkpt>
      <trkpt lat="47.8151" lon="7.23495">
        <ele>254.7</ele>
        <time>2019-08-16T08:35:33Z</time>
      </trkpt>
      <trkpt lat="47.81507" lon="7.23494">
        <ele>254.7</ele>
        <time>2019-08-16T08:35:34Z</time>
      </trkpt>
      <trkpt lat="47.81501" lon="7.23492">
        <ele>254.7</ele>
        <time>2019-08-16T08:35:36Z</time>
      </trkpt>
      <trkpt lat="47.81497" lon="7.23491">
        <ele>254.8</ele>
        <time>2019-08-16T08:35:37Z</time>
      </trkpt>
      <trkpt lat="47.81494" lon="7.23491">
        <ele>254.8</ele>
        <time>2019-08-16T08:35:38Z</time>
      </trkpt>
      <trkpt lat="47.81491" lon="7.23491">
        <ele>254.8</ele>
        <time>2019-08-16T08:35:39Z</time>
      </trkpt>
      <trkpt lat="47.81488" lon="7.23492">
        <ele>254.8</ele>
        <time>2019-08-16T08:35:40Z</time>
      </trkpt>
      <trkpt lat="47.81485" lon="7.23494">
        <ele>254.8</ele>
        <time>2019-08-16T08:35:41Z</time>
      </trkpt>
      <trkpt lat="47.81481" lon="7.23498">
        <ele>254.8</ele>
        <time>2019-08-16T08:35:42Z</time>
      </trkpt>
      <trkpt lat="47.8148" lon="7.23503">
        <ele>254.8</ele>
        <time>2019-08-16T08:35:43Z</time>
      </trkpt>
      <trkpt lat="47.81478" lon="7.23509">
        <ele>254.9</ele>
        <time>2019-08-16T08:35:44Z</time>
      </trkpt>
      <trkpt lat="47.81478" lon="7.23513">
        <ele>254.9</ele>
        <time>2019-08-16T08:35:45Z</time>
      </trkpt>
      <trkpt lat="47.81478" lon="7.23518">
        <ele>254.9</ele>
        <time>2019-08-16T08:35:46Z</time>
      </trkpt>
      <trkpt lat="47.81477" lon="7.23522">
        <ele>254.9</ele>
        <time>2019-08-16T08:35:47Z</time>
      </trkpt>
      <trkpt lat="47.81476" lon="7.23528">
        <ele>254.9</ele>
        <time>2019-08-16T08:35:49Z</time>
      </trkpt>
      <trkpt lat="47.81476" lon="7.23535">
        <ele>254.9</ele>
        <time>2019-08-16T08:35:51Z</time>
      </trkpt>
      <trkpt lat="47.81476" lon="7.2354">
        <ele>254.9</ele>
        <time>2019-08-16T08:35:52Z</time>
      </trkpt>
      <trkpt lat="47.81476" lon="7.23546">
        <ele>254.9</ele>
        <time>2019-08-16T08:35:53Z</time>
      </trkpt>
      <trkpt lat="47.81477" lon="7.23551">
        <ele>255</ele>
        <time>2019-08-16T08:35:54Z</time>
      </trkpt>
      <trkpt lat="47.81477" lon="7.23559">
        <ele>255</ele>
        <time>2019-08-16T08:35:56Z</time>
      </trkpt>
      <trkpt lat="47.81476" lon="7.23565">
        <ele>255</ele>
        <time>2019-08-16T08:35:57Z</time>
      </trkpt>
      <trkpt lat="47.81474" lon="7.23569">
        <ele>255</ele>
        <time>2019-08-16T08:35:58Z</time>
      </trkpt>
      <trkpt lat="47.8147" lon="7.23569">
        <ele>255</ele>
        <time>2019-08-16T08:35:59Z</time>
      </trkpt>
      <trkpt lat="47.81467" lon="7.23568">
        <ele>255</ele>
        <time>2019-08-16T08:36:00Z</time>
      </trkpt>
      <trkpt lat="47.81464" lon="7.23565">
        <ele>255</ele>
        <time>2019-08-16T08:36:01Z</time>
      </trkpt>
      <trkpt lat="47.81461" lon="7.23562">
        <ele>255</ele>
        <time>2019-08-16T08:36:02Z</time>
      </trkpt>
      <trkpt lat="47.81458" lon="7.2356">
        <ele>255</ele>
        <time>2019-08-16T08:36:03Z</time>
      </trkpt>
      <trkpt lat="47.81455" lon="7.23558">
        <ele>255</ele>
        <time>2019-08-16T08:36:04Z</time>
      </trkpt>
      <trkpt lat="47.81453" lon="7.23556">
        <ele>255</ele>
        <time>2019-08-16T08:36:05Z</time>
      </trkpt>
      <trkpt lat="47.81448" lon="7.23553">
        <ele>255</ele>
        <time>2019-08-16T08:36:07Z</time>
      </trkpt>
      <trkpt lat="47.81445" lon="7.23552">
        <ele>255</ele>
        <time>2019-08-16T08:36:08Z</time>
      </trkpt>
      <trkpt lat="47.8144" lon="7.23551">
        <ele>255.1</ele>
        <time>2019-08-16T08:36:10Z</time>
      </trkpt>
      <trkpt lat="47.81437" lon="7.23551">
        <ele>255.1</ele>
        <time>2019-08-16T08:36:11Z</time>
      </trkpt>
      <trkpt lat="47.81434" lon="7.23554">
        <ele>255.1</ele>
        <time>2019-08-16T08:36:12Z</time>
      </trkpt>
      <trkpt lat="47.81431" lon="7.23558">
        <ele>255.1</ele>
        <time>2019-08-16T08:36:13Z</time>
      </trkpt>
      <trkpt lat="47.81429" lon="7.23562">
        <ele>255.2</ele>
        <time>2019-08-16T08:36:14Z</time>
      </trkpt>
      <trkpt lat="47.81426" lon="7.23565">
        <ele>255.2</ele>
        <time>2019-08-16T08:36:15Z</time>
      </trkpt>
      <trkpt lat="47.81423" lon="7.23568">
        <ele>255.3</ele>
        <time>2019-08-16T08:36:16Z</time>
      </trkpt>
      <trkpt lat="47.81419" lon="7.23573">
        <ele>255.4</ele>
        <time>2019-08-16T08:36:18Z</time>
      </trkpt>
      <trkpt lat="47.81416" lon="7.23575">
        <ele>255.4</ele>
        <time>2019-08-16T08:36:19Z</time>
      </trkpt>
      <trkpt lat="47.81414" lon="7.23577">
        <ele>255.5</ele>
        <time>2019-08-16T08:36:20Z</time>
      </trkpt>
      <trkpt lat="47.81411" lon="7.2358">
        <ele>255.5</ele>
        <time>2019-08-16T08:36:21Z</time>
      </trkpt>
      <trkpt lat="47.81409" lon="7.23583">
        <ele>255.6</ele>
        <time>2019-08-16T08:36:22Z</time>
      </trkpt>
      <trkpt lat="47.81406" lon="7.23587">
        <ele>255.6</ele>
        <time>2019-08-16T08:36:23Z</time>
      </trkpt>
      <trkpt lat="47.81404" lon="7.23588">
        <ele>255.7</ele>
        <time>2019-08-16T08:36:24Z</time>
      </trkpt>
      <trkpt lat="47.814" lon="7.23592">
        <ele>255.8</ele>
        <time>2019-08-16T08:36:26Z</time>
      </trkpt>
      <trkpt lat="47.81398" lon="7.23589">
        <ele>256.1</ele>
        <time>2019-08-16T08:36:28Z</time>
      </trkpt>
      <trkpt lat="47.81398" lon="7.23584">
        <ele>256.3</ele>
        <time>2019-08-16T08:36:29Z</time>
      </trkpt>
      <trkpt lat="47.81397" lon="7.23578">
        <ele>256.4</ele>
        <time>2019-08-16T08:36:30Z</time>
      </trkpt>
      <trkpt lat="47.81395" lon="7.23572">
        <ele>256.6</ele>
        <time>2019-08-16T08:36:31Z</time>
      </trkpt>
      <trkpt lat="47.81393" lon="7.23567">
        <ele>256.8</ele>
        <time>2019-08-16T08:36:32Z</time>
      </trkpt>
      <trkpt lat="47.81391" lon="7.23561">
        <ele>256.9</ele>
        <time>2019-08-16T08:36:33Z</time>
      </trkpt>
      <trkpt lat="47.81388" lon="7.23556">
        <ele>257</ele>
        <time>2019-08-16T08:36:34Z</time>
      </trkpt>
      <trkpt lat="47.81386" lon="7.23551">
        <ele>257.1</ele>
        <time>2019-08-16T08:36:35Z</time>
      </trkpt>
      <trkpt lat="47.81384" lon="7.23546">
        <ele>257.2</ele>
        <time>2019-08-16T08:36:36Z</time>
      </trkpt>
      <trkpt lat="47.81382" lon="7.23541">
        <ele>257.3</ele>
        <time>2019-08-16T08:36:37Z</time>
      </trkpt>
      <trkpt lat="47.81379" lon="7.23535">
        <ele>257.4</ele>
        <time>2019-08-16T08:36:38Z</time>
      </trkpt>
      <trkpt lat="47.81375" lon="7.23533">
        <ele>257.4</ele>
        <time>2019-08-16T08:36:39Z</time>
      </trkpt>
      <trkpt lat="47.8137" lon="7.23534">
        <ele>257.5</ele>
        <time>2019-08-16T08:36:40Z</time>
      </trkpt>
      <trkpt lat="47.81365" lon="7.23536">
        <ele>257.5</ele>
        <time>2019-08-16T08:36:41Z</time>
      </trkpt>
      <trkpt lat="47.81361" lon="7.2354">
        <ele>257.6</ele>
        <time>2019-08-16T08:36:42Z</time>
      </trkpt>
      <trkpt lat="47.81357" lon="7.23546">
        <ele>257.6</ele>
        <time>2019-08-16T08:36:43Z</time>
      </trkpt>
      <trkpt lat="47.81354" lon="7.23552">
        <ele>257.6</ele>
        <time>2019-08-16T08:36:44Z</time>
      </trkpt>
      <trkpt lat="47.81351" lon="7.2356">
        <ele>257.6</ele>
        <time>2019-08-16T08:36:45Z</time>
      </trkpt>
      <trkpt lat="47.81349" lon="7.23567">
        <ele>257.7</ele>
        <time>2019-08-16T08:36:46Z</time>
      </trkpt>
      <trkpt lat="47.81346" lon="7.23575">
        <ele>257.7</ele>
        <time>2019-08-16T08:36:47Z</time>
      </trkpt>
      <trkpt lat="47.81344" lon="7.23582">
        <ele>257.7</ele>
        <time>2019-08-16T08:36:48Z</time>
      </trkpt>
      <trkpt lat="47.81341" lon="7.2359">
        <ele>257.7</ele>
        <time>2019-08-16T08:36:49Z</time>
      </trkpt>
      <trkpt lat="47.81339" lon="7.23599">
        <ele>257.6</ele>
        <time>2019-08-16T08:36:50Z</time>
      </trkpt>
      <trkpt lat="47.81338" lon="7.23606">
        <ele>257.6</ele>
        <time>2019-08-16T08:36:51Z</time>
      </trkpt>
      <trkpt lat="47.81337" lon="7.23613">
        <ele>257.6</ele>
        <time>2019-08-16T08:36:52Z</time>
      </trkpt>
      <trkpt lat="47.81335" lon="7.23619">
        <ele>257.6</ele>
        <time>2019-08-16T08:36:53Z</time>
      </trkpt>
      <trkpt lat="47.81335" lon="7.23626">
        <ele>257.7</ele>
        <time>2019-08-16T08:36:54Z</time>
      </trkpt>
      <trkpt lat="47.81333" lon="7.23632">
        <ele>257.8</ele>
        <time>2019-08-16T08:36:55Z</time>
      </trkpt>
      <trkpt lat="47.8133" lon="7.2364">
        <ele>258</ele>
        <time>2019-08-16T08:36:56Z</time>
      </trkpt>
      <trkpt lat="47.81328" lon="7.23649">
        <ele>258.2</ele>
        <time>2019-08-16T08:36:57Z</time>
      </trkpt>
      <trkpt lat="47.81324" lon="7.23654">
        <ele>258.3</ele>
        <time>2019-08-16T08:36:58Z</time>
      </trkpt>
      <trkpt lat="47.8132" lon="7.23658">
        <ele>258.4</ele>
        <time>2019-08-16T08:36:59Z</time>
      </trkpt>
      <trkpt lat="47.81315" lon="7.23662">
        <ele>258.6</ele>
        <time>2019-08-16T08:37:00Z</time>
      </trkpt>
      <trkpt lat="47.8131" lon="7.23666">
        <ele>258.5</ele>
        <time>2019-08-16T08:37:01Z</time>
      </trkpt>
      <trkpt lat="47.81306" lon="7.2367">
        <ele>258.4</ele>
        <time>2019-08-16T08:37:02Z</time>
      </trkpt>
      <trkpt lat="47.81301" lon="7.23674">
        <ele>258.3</ele>
        <time>2019-08-16T08:37:03Z</time>
      </trkpt>
      <trkpt lat="47.81297" lon="7.23678">
        <ele>258.2</ele>
        <time>2019-08-16T08:37:04Z</time>
      </trkpt>
      <trkpt lat="47.81293" lon="7.23682">
        <ele>258.2</ele>
        <time>2019-08-16T08:37:05Z</time>
      </trkpt>
      <trkpt lat="47.81289" lon="7.23686">
        <ele>258.1</ele>
        <time>2019-08-16T08:37:06Z</time>
      </trkpt>
      <trkpt lat="47.81284" lon="7.2369">
        <ele>258.1</ele>
        <time>2019-08-16T08:37:07Z</time>
      </trkpt>
      <trkpt lat="47.8128" lon="7.23694">
        <ele>258.1</ele>
        <time>2019-08-16T08:37:08Z</time>
      </trkpt>
      <trkpt lat="47.81275" lon="7.23698">
        <ele>258.1</ele>
        <time>2019-08-16T08:37:09Z</time>
      </trkpt>
      <trkpt lat="47.81271" lon="7.23702">
        <ele>258.1</ele>
        <time>2019-08-16T08:37:10Z</time>
      </trkpt>
      <trkpt lat="47.81267" lon="7.23705">
        <ele>258.1</ele>
        <time>2019-08-16T08:37:11Z</time>
      </trkpt>
      <trkpt lat="47.81263" lon="7.23708">
        <ele>258.1</ele>
        <time>2019-08-16T08:37:12Z</time>
      </trkpt>
      <trkpt lat="47.81259" lon="7.23712">
        <ele>258.1</ele>
        <time>2019-08-16T08:37:13Z</time>
      </trkpt>
      <trkpt lat="47.81254" lon="7.23715">
        <ele>258.2</ele>
        <time>2019-08-16T08:37:14Z</time>
      </trkpt>
      <trkpt lat="47.8125" lon="7.23717">
        <ele>258.1</ele>
        <time>2019-08-16T08:37:15Z</time>
      </trkpt>
      <trkpt lat="47.81245" lon="7.23721">
        <ele>258</ele>
        <time>2019-08-16T08:37:16Z</time>
      </trkpt>
      <trkpt lat="47.81241" lon="7.23725">
        <ele>258</ele>
        <time>2019-08-16T08:37:17Z</time>
      </trkpt>
      <trkpt lat="47.81237" lon="7.23728">
        <ele>257.9</ele>
        <time>2019-08-16T08:37:18Z</time>
      </trkpt>
      <trkpt lat="47.81233" lon="7.23731">
        <ele>257.8</ele>
        <time>2019-08-16T08:37:19Z</time>
      </trkpt>
      <trkpt lat="47.8123" lon="7.23734">
        <ele>257.8</ele>
        <time>2019-08-16T08:37:20Z</time>
      </trkpt>
      <trkpt lat="47.81227" lon="7.23736">
        <ele>257.7</ele>
        <time>2019-08-16T08:37:21Z</time>
      </trkpt>
      <trkpt lat="47.81224" lon="7.23738">
        <ele>257.7</ele>
        <time>2019-08-16T08:37:23Z</time>
      </trkpt>
      <trkpt lat="47.81227" lon="7.23738">
        <ele>257.6</ele>
        <time>2019-08-16T08:37:59Z</time>
      </trkpt>
      <trkpt lat="47.81224" lon="7.23738">
        <ele>257.6</ele>
        <time>2019-08-16T08:38:01Z</time>
      </trkpt>
      <trkpt lat="47.8122" lon="7.23739">
        <ele>257.3</ele>
        <time>2019-08-16T08:38:03Z</time>
      </trkpt>
      <trkpt lat="47.81215" lon="7.2374">
        <ele>257.3</ele>
        <time>2019-08-16T08:38:05Z</time>
      </trkpt>
      <trkpt lat="47.81212" lon="7.23741">
        <ele>257.2</ele>
        <time>2019-08-16T08:38:06Z</time>
      </trkpt>
      <trkpt lat="47.81208" lon="7.23742">
        <ele>257.1</ele>
        <time>2019-08-16T08:38:07Z</time>
      </trkpt>
      <trkpt lat="47.81203" lon="7.23743">
        <ele>257.1</ele>
        <time>2019-08-16T08:38:08Z</time>
      </trkpt>
      <trkpt lat="47.81199" lon="7.23744">
        <ele>257</ele>
        <time>2019-08-16T08:38:09Z</time>
      </trkpt>
      <trkpt lat="47.81196" lon="7.23743">
        <ele>256.9</ele>
        <time>2019-08-16T08:38:10Z</time>
      </trkpt>
      <trkpt lat="47.81192" lon="7.23743">
        <ele>256.9</ele>
        <time>2019-08-16T08:38:11Z</time>
      </trkpt>
      <trkpt lat="47.81189" lon="7.23743">
        <ele>256.8</ele>
        <time>2019-08-16T08:38:12Z</time>
      </trkpt>
      <trkpt lat="47.81185" lon="7.23742">
        <ele>256.8</ele>
        <time>2019-08-16T08:38:13Z</time>
      </trkpt>
      <trkpt lat="47.81182" lon="7.23741">
        <ele>256.7</ele>
        <time>2019-08-16T08:38:14Z</time>
      </trkpt>
      <trkpt lat="47.81178" lon="7.2374">
        <ele>256.6</ele>
        <time>2019-08-16T08:38:15Z</time>
      </trkpt>
      <trkpt lat="47.81175" lon="7.2374">
        <ele>256.6</ele>
        <time>2019-08-16T08:38:16Z</time>
      </trkpt>
      <trkpt lat="47.81169" lon="7.23739">
        <ele>256.4</ele>
        <time>2019-08-16T08:38:18Z</time>
      </trkpt>
      <trkpt lat="47.81166" lon="7.23738">
        <ele>256.4</ele>
        <time>2019-08-16T08:38:19Z</time>
      </trkpt>
      <trkpt lat="47.81162" lon="7.23737">
        <ele>256.3</ele>
        <time>2019-08-16T08:38:20Z</time>
      </trkpt>
      <trkpt lat="47.81157" lon="7.23737">
        <ele>256.2</ele>
        <time>2019-08-16T08:38:21Z</time>
      </trkpt>
      <trkpt lat="47.8115" lon="7.23736">
        <ele>256.1</ele>
        <time>2019-08-16T08:38:22Z</time>
      </trkpt>
      <trkpt lat="47.81144" lon="7.23735">
        <ele>256</ele>
        <time>2019-08-16T08:38:23Z</time>
      </trkpt>
      <trkpt lat="47.81139" lon="7.23736">
        <ele>256</ele>
        <time>2019-08-16T08:38:24Z</time>
      </trkpt>
      <trkpt lat="47.81134" lon="7.23737">
        <ele>255.9</ele>
        <time>2019-08-16T08:38:25Z</time>
      </trkpt>
      <trkpt lat="47.81129" lon="7.2374">
        <ele>255.9</ele>
        <time>2019-08-16T08:38:26Z</time>
      </trkpt>
      <trkpt lat="47.81125" lon="7.23743">
        <ele>255.8</ele>
        <time>2019-08-16T08:38:27Z</time>
      </trkpt>
      <trkpt lat="47.81121" lon="7.23746">
        <ele>255.7</ele>
        <time>2019-08-16T08:38:28Z</time>
      </trkpt>
      <trkpt lat="47.81116" lon="7.23749">
        <ele>255.7</ele>
        <time>2019-08-16T08:38:29Z</time>
      </trkpt>
      <trkpt lat="47.81112" lon="7.23753">
        <ele>255.6</ele>
        <time>2019-08-16T08:38:30Z</time>
      </trkpt>
      <trkpt lat="47.81108" lon="7.23757">
        <ele>255.7</ele>
        <time>2019-08-16T08:38:31Z</time>
      </trkpt>
      <trkpt lat="47.81104" lon="7.23762">
        <ele>255.7</ele>
        <time>2019-08-16T08:38:32Z</time>
      </trkpt>
      <trkpt lat="47.81101" lon="7.23765">
        <ele>255.8</ele>
        <time>2019-08-16T08:38:33Z</time>
      </trkpt>
      <trkpt lat="47.81098" lon="7.23768">
        <ele>255.8</ele>
        <time>2019-08-16T08:38:34Z</time>
      </trkpt>
      <trkpt lat="47.81095" lon="7.23769">
        <ele>255.8</ele>
        <time>2019-08-16T08:38:35Z</time>
      </trkpt>
      <trkpt lat="47.81091" lon="7.23772">
        <ele>255.7</ele>
        <time>2019-08-16T08:38:36Z</time>
      </trkpt>
      <trkpt lat="47.81087" lon="7.23774">
        <ele>255.7</ele>
        <time>2019-08-16T08:38:37Z</time>
      </trkpt>
      <trkpt lat="47.81084" lon="7.23775">
        <ele>255.6</ele>
        <time>2019-08-16T08:38:38Z</time>
      </trkpt>
      <trkpt lat="47.8108" lon="7.23775">
        <ele>255.6</ele>
        <time>2019-08-16T08:38:39Z</time>
      </trkpt>
      <trkpt lat="47.81075" lon="7.23775">
        <ele>255.6</ele>
        <time>2019-08-16T08:38:40Z</time>
      </trkpt>
      <trkpt lat="47.81071" lon="7.23774">
        <ele>255.6</ele>
        <time>2019-08-16T08:38:41Z</time>
      </trkpt>
      <trkpt lat="47.81067" lon="7.23774">
        <ele>255.7</ele>
        <time>2019-08-16T08:38:42Z</time>
      </trkpt>
      <trkpt lat="47.81063" lon="7.23774">
        <ele>255.8</ele>
        <time>2019-08-16T08:38:43Z</time>
      </trkpt>
      <trkpt lat="47.81058" lon="7.23773">
        <ele>255.9</ele>
        <time>2019-08-16T08:38:44Z</time>
      </trkpt>
      <trkpt lat="47.81053" lon="7.23773">
        <ele>256.1</ele>
        <time>2019-08-16T08:38:45Z</time>
      </trkpt>
      <trkpt lat="47.81048" lon="7.23773">
        <ele>256.2</ele>
        <time>2019-08-16T08:38:46Z</time>
      </trkpt>
      <trkpt lat="47.81044" lon="7.23773">
        <ele>256.4</ele>
        <time>2019-08-16T08:38:47Z</time>
      </trkpt>
      <trkpt lat="47.8104" lon="7.23774">
        <ele>256.6</ele>
        <time>2019-08-16T08:38:48Z</time>
      </trkpt>
      <trkpt lat="47.81036" lon="7.23773">
        <ele>256.8</ele>
        <time>2019-08-16T08:38:49Z</time>
      </trkpt>
      <trkpt lat="47.81033" lon="7.23773">
        <ele>256.9</ele>
        <time>2019-08-16T08:38:50Z</time>
      </trkpt>
      <trkpt lat="47.81029" lon="7.23773">
        <ele>256.9</ele>
        <time>2019-08-16T08:38:51Z</time>
      </trkpt>
      <trkpt lat="47.81025" lon="7.23774">
        <ele>257</ele>
        <time>2019-08-16T08:38:52Z</time>
      </trkpt>
      <trkpt lat="47.81021" lon="7.23775">
        <ele>257.1</ele>
        <time>2019-08-16T08:38:53Z</time>
      </trkpt>
      <trkpt lat="47.81017" lon="7.23776">
        <ele>257.1</ele>
        <time>2019-08-16T08:38:54Z</time>
      </trkpt>
      <trkpt lat="47.81013" lon="7.23776">
        <ele>257.2</ele>
        <time>2019-08-16T08:38:55Z</time>
      </trkpt>
      <trkpt lat="47.8101" lon="7.23776">
        <ele>257.3</ele>
        <time>2019-08-16T08:38:56Z</time>
      </trkpt>
      <trkpt lat="47.81006" lon="7.23777">
        <ele>257.3</ele>
        <time>2019-08-16T08:38:57Z</time>
      </trkpt>
      <trkpt lat="47.81002" lon="7.23777">
        <ele>257.4</ele>
        <time>2019-08-16T08:38:58Z</time>
      </trkpt>
      <trkpt lat="47.80999" lon="7.23777">
        <ele>257.4</ele>
        <time>2019-08-16T08:38:59Z</time>
      </trkpt>
      <trkpt lat="47.80996" lon="7.23777">
        <ele>257.5</ele>
        <time>2019-08-16T08:39:00Z</time>
      </trkpt>
      <trkpt lat="47.80993" lon="7.23777">
        <ele>257.5</ele>
        <time>2019-08-16T08:39:01Z</time>
      </trkpt>
      <trkpt lat="47.8099" lon="7.23776">
        <ele>257.5</ele>
        <time>2019-08-16T08:39:02Z</time>
      </trkpt>
      <trkpt lat="47.80987" lon="7.23772">
        <ele>257.6</ele>
        <time>2019-08-16T08:39:03Z</time>
      </trkpt>
      <trkpt lat="47.80985" lon="7.23769">
        <ele>257.6</ele>
        <time>2019-08-16T08:39:05Z</time>
      </trkpt>
      <trkpt lat="47.80985" lon="7.23764">
        <ele>257.8</ele>
        <time>2019-08-16T08:39:19Z</time>
      </trkpt>
      <trkpt lat="47.80984" lon="7.23761">
        <ele>257.8</ele>
        <time>2019-08-16T08:39:24Z</time>
      </trkpt>
      <trkpt lat="47.80983" lon="7.23756">
        <ele>257.8</ele>
        <time>2019-08-16T08:39:27Z</time>
      </trkpt>
      <trkpt lat="47.80985" lon="7.2376">
        <ele>257.8</ele>
        <time>2019-08-16T08:39:29Z</time>
      </trkpt>
      <trkpt lat="47.80987" lon="7.23758">
        <ele>257.8</ele>
        <time>2019-08-16T08:39:37Z</time>
      </trkpt>
      <trkpt lat="47.80985" lon="7.23764">
        <ele>257.8</ele>
        <time>2019-08-16T08:39:51Z</time>
      </trkpt>
      <trkpt lat="47.80984" lon="7.23768">
        <ele>257.8</ele>
        <time>2019-08-16T08:39:52Z</time>
      </trkpt>
      <trkpt lat="47.80982" lon="7.23774">
        <ele>257.7</ele>
        <time>2019-08-16T08:39:53Z</time>
      </trkpt>
      <trkpt lat="47.80981" lon="7.23781">
        <ele>257.7</ele>
        <time>2019-08-16T08:39:54Z</time>
      </trkpt>
      <trkpt lat="47.80978" lon="7.23789">
        <ele>257.4</ele>
        <time>2019-08-16T08:39:55Z</time>
      </trkpt>
      <trkpt lat="47.80976" lon="7.23797">
        <ele>257.3</ele>
        <time>2019-08-16T08:39:56Z</time>
      </trkpt>
      <trkpt lat="47.80975" lon="7.23804">
        <ele>257.2</ele>
        <time>2019-08-16T08:39:57Z</time>
      </trkpt>
      <trkpt lat="47.80973" lon="7.23812">
        <ele>257.1</ele>
        <time>2019-08-16T08:39:58Z</time>
      </trkpt>
      <trkpt lat="47.80973" lon="7.2382">
        <ele>257</ele>
        <time>2019-08-16T08:39:59Z</time>
      </trkpt>
      <trkpt lat="47.80972" lon="7.23826">
        <ele>257</ele>
        <time>2019-08-16T08:40:00Z</time>
      </trkpt>
      <trkpt lat="47.80971" lon="7.23835">
        <ele>256.9</ele>
        <time>2019-08-16T08:40:01Z</time>
      </trkpt>
      <trkpt lat="47.8097" lon="7.23842">
        <ele>256.9</ele>
        <time>2019-08-16T08:40:02Z</time>
      </trkpt>
      <trkpt lat="47.8097" lon="7.2385">
        <ele>256.8</ele>
        <time>2019-08-16T08:40:03Z</time>
      </trkpt>
      <trkpt lat="47.8097" lon="7.23858">
        <ele>256.8</ele>
        <time>2019-08-16T08:40:04Z</time>
      </trkpt>
      <trkpt lat="47.8097" lon="7.23865">
        <ele>256.8</ele>
        <time>2019-08-16T08:40:05Z</time>
      </trkpt>
      <trkpt lat="47.8097" lon="7.23873">
        <ele>256.7</ele>
        <time>2019-08-16T08:40:06Z</time>
      </trkpt>
      <trkpt lat="47.80969" lon="7.2388">
        <ele>256.7</ele>
        <time>2019-08-16T08:40:07Z</time>
      </trkpt>
      <trkpt lat="47.80968" lon="7.23887">
        <ele>256.6</ele>
        <time>2019-08-16T08:40:08Z</time>
      </trkpt>
      <trkpt lat="47.80969" lon="7.23894">
        <ele>256.6</ele>
        <time>2019-08-16T08:40:09Z</time>
      </trkpt>
      <trkpt lat="47.80967" lon="7.23901">
        <ele>256.5</ele>
        <time>2019-08-16T08:40:10Z</time>
      </trkpt>
      <trkpt lat="47.80967" lon="7.23909">
        <ele>256.4</ele>
        <time>2019-08-16T08:40:11Z</time>
      </trkpt>
      <trkpt lat="47.80966" lon="7.23915">
        <ele>256.4</ele>
        <time>2019-08-16T08:40:12Z</time>
      </trkpt>
      <trkpt lat="47.80965" lon="7.23922">
        <ele>256.3</ele>
        <time>2019-08-16T08:40:13Z</time>
      </trkpt>
      <trkpt lat="47.80964" lon="7.2393">
        <ele>256.4</ele>
        <time>2019-08-16T08:40:14Z</time>
      </trkpt>
      <trkpt lat="47.80964" lon="7.23936">
        <ele>256.4</ele>
        <time>2019-08-16T08:40:15Z</time>
      </trkpt>
      <trkpt lat="47.80963" lon="7.23944">
        <ele>256.4</ele>
        <time>2019-08-16T08:40:16Z</time>
      </trkpt>
      <trkpt lat="47.80963" lon="7.2395">
        <ele>256.5</ele>
        <time>2019-08-16T08:40:17Z</time>
      </trkpt>
      <trkpt lat="47.80963" lon="7.23957">
        <ele>256.5</ele>
        <time>2019-08-16T08:40:18Z</time>
      </trkpt>
      <trkpt lat="47.80964" lon="7.23963">
        <ele>256.6</ele>
        <time>2019-08-16T08:40:19Z</time>
      </trkpt>
      <trkpt lat="47.80962" lon="7.23971">
        <ele>256.6</ele>
        <time>2019-08-16T08:40:20Z</time>
      </trkpt>
      <trkpt lat="47.80963" lon="7.23977">
        <ele>256.7</ele>
        <time>2019-08-16T08:40:21Z</time>
      </trkpt>
      <trkpt lat="47.80962" lon="7.23983">
        <ele>256.7</ele>
        <time>2019-08-16T08:40:22Z</time>
      </trkpt>
      <trkpt lat="47.80961" lon="7.23989">
        <ele>256.7</ele>
        <time>2019-08-16T08:40:23Z</time>
      </trkpt>
      <trkpt lat="47.8096" lon="7.23994">
        <ele>256.8</ele>
        <time>2019-08-16T08:40:24Z</time>
      </trkpt>
      <trkpt lat="47.80958" lon="7.24">
        <ele>256.8</ele>
        <time>2019-08-16T08:40:25Z</time>
      </trkpt>
      <trkpt lat="47.80955" lon="7.24002">
        <ele>256.8</ele>
        <time>2019-08-16T08:40:26Z</time>
      </trkpt>
      <trkpt lat="47.8095" lon="7.24002">
        <ele>256.8</ele>
        <time>2019-08-16T08:40:27Z</time>
      </trkpt>
      <trkpt lat="47.80945" lon="7.24002">
        <ele>256.9</ele>
        <time>2019-08-16T08:40:28Z</time>
      </trkpt>
      <trkpt lat="47.80941" lon="7.24002">
        <ele>256.9</ele>
        <time>2019-08-16T08:40:29Z</time>
      </trkpt>
      <trkpt lat="47.80936" lon="7.24001">
        <ele>256.9</ele>
        <time>2019-08-16T08:40:30Z</time>
      </trkpt>
      <trkpt lat="47.80932" lon="7.24">
        <ele>256.9</ele>
        <time>2019-08-16T08:40:31Z</time>
      </trkpt>
      <trkpt lat="47.80928" lon="7.23998">
        <ele>256.9</ele>
        <time>2019-08-16T08:40:32Z</time>
      </trkpt>
      <trkpt lat="47.80925" lon="7.23997">
        <ele>256.9</ele>
        <time>2019-08-16T08:40:33Z</time>
      </trkpt>
      <trkpt lat="47.80921" lon="7.23996">
        <ele>257</ele>
        <time>2019-08-16T08:40:34Z</time>
      </trkpt>
      <trkpt lat="47.80918" lon="7.23995">
        <ele>257</ele>
        <time>2019-08-16T08:40:35Z</time>
      </trkpt>
      <trkpt lat="47.80914" lon="7.23995">
        <ele>257</ele>
        <time>2019-08-16T08:40:37Z</time>
      </trkpt>
      <trkpt lat="47.80909" lon="7.23995">
        <ele>257</ele>
        <time>2019-08-16T08:40:39Z</time>
      </trkpt>
      <trkpt lat="47.80906" lon="7.23994">
        <ele>257</ele>
        <time>2019-08-16T08:40:40Z</time>
      </trkpt>
      <trkpt lat="47.80901" lon="7.23994">
        <ele>257</ele>
        <time>2019-08-16T08:40:41Z</time>
      </trkpt>
      <trkpt lat="47.80898" lon="7.23995">
        <ele>257</ele>
        <time>2019-08-16T08:40:42Z</time>
      </trkpt>
      <trkpt lat="47.80894" lon="7.23992">
        <ele>257.1</ele>
        <time>2019-08-16T08:40:43Z</time>
      </trkpt>
      <trkpt lat="47.80891" lon="7.2399">
        <ele>257.1</ele>
        <time>2019-08-16T08:40:44Z</time>
      </trkpt>
      <trkpt lat="47.80887" lon="7.23989">
        <ele>257.1</ele>
        <time>2019-08-16T08:40:45Z</time>
      </trkpt>
      <trkpt lat="47.80882" lon="7.23987">
        <ele>257.1</ele>
        <time>2019-08-16T08:40:46Z</time>
      </trkpt>
      <trkpt lat="47.80879" lon="7.23986">
        <ele>257.1</ele>
        <time>2019-08-16T08:40:47Z</time>
      </trkpt>
      <trkpt lat="47.80876" lon="7.23985">
        <ele>257.1</ele>
        <time>2019-08-16T08:40:48Z</time>
      </trkpt>
      <trkpt lat="47.80872" lon="7.23982">
        <ele>257.1</ele>
        <time>2019-08-16T08:40:49Z</time>
      </trkpt>
      <trkpt lat="47.8087" lon="7.2398">
        <ele>257.1</ele>
        <time>2019-08-16T08:40:50Z</time>
      </trkpt>
      <trkpt lat="47.80867" lon="7.23977">
        <ele>257.1</ele>
        <time>2019-08-16T08:40:53Z</time>
      </trkpt>
      <trkpt lat="47.80862" lon="7.23977">
        <ele>257.1</ele>
        <time>2019-08-16T08:41:20Z</time>
      </trkpt>
      <trkpt lat="47.8086" lon="7.23974">
        <ele>257.1</ele>
        <time>2019-08-16T08:41:21Z</time>
      </trkpt>
      <trkpt lat="47.80856" lon="7.23975">
        <ele>257.1</ele>
        <time>2019-08-16T08:41:23Z</time>
      </trkpt>
      <trkpt lat="47.80853" lon="7.23975">
        <ele>257.1</ele>
        <time>2019-08-16T08:41:24Z</time>
      </trkpt>
      <trkpt lat="47.80849" lon="7.23975">
        <ele>257</ele>
        <time>2019-08-16T08:41:25Z</time>
      </trkpt>
      <trkpt lat="47.80845" lon="7.23975">
        <ele>257</ele>
        <time>2019-08-16T08:41:26Z</time>
      </trkpt>
      <trkpt lat="47.80841" lon="7.23972">
        <ele>256.9</ele>
        <time>2019-08-16T08:41:27Z</time>
      </trkpt>
      <trkpt lat="47.80836" lon="7.23968">
        <ele>256.8</ele>
        <time>2019-08-16T08:41:28Z</time>
      </trkpt>
      <trkpt lat="47.80832" lon="7.23966">
        <ele>256.8</ele>
        <time>2019-08-16T08:41:29Z</time>
      </trkpt>
      <trkpt lat="47.80827" lon="7.23962">
        <ele>256.8</ele>
        <time>2019-08-16T08:41:30Z</time>
      </trkpt>
      <trkpt lat="47.80822" lon="7.23959">
        <ele>256.8</ele>
        <time>2019-08-16T08:41:31Z</time>
      </trkpt>
      <trkpt lat="47.80818" lon="7.23957">
        <ele>256.8</ele>
        <time>2019-08-16T08:41:32Z</time>
      </trkpt>
      <trkpt lat="47.80813" lon="7.23955">
        <ele>256.7</ele>
        <time>2019-08-16T08:41:33Z</time>
      </trkpt>
      <trkpt lat="47.80808" lon="7.23953">
        <ele>256.7</ele>
        <time>2019-08-16T08:41:34Z</time>
      </trkpt>
      <trkpt lat="47.80805" lon="7.23951">
        <ele>256.7</ele>
        <time>2019-08-16T08:41:35Z</time>
      </trkpt>
      <trkpt lat="47.80801" lon="7.23949">
        <ele>256.7</ele>
        <time>2019-08-16T08:41:36Z</time>
      </trkpt>
      <trkpt lat="47.80797" lon="7.2395">
        <ele>256.7</ele>
        <time>2019-08-16T08:41:37Z</time>
      </trkpt>
      <trkpt lat="47.80793" lon="7.23948">
        <ele>256.7</ele>
        <time>2019-08-16T08:41:38Z</time>
      </trkpt>
      <trkpt lat="47.80789" lon="7.23946">
        <ele>256.7</ele>
        <time>2019-08-16T08:41:39Z</time>
      </trkpt>
      <trkpt lat="47.80786" lon="7.23945">
        <ele>256.6</ele>
        <time>2019-08-16T08:41:40Z</time>
      </trkpt>
      <trkpt lat="47.80783" lon="7.23944">
        <ele>256.6</ele>
        <time>2019-08-16T08:41:41Z</time>
      </trkpt>
      <trkpt lat="47.80779" lon="7.23943">
        <ele>256.6</ele>
        <time>2019-08-16T08:41:42Z</time>
      </trkpt>
      <trkpt lat="47.80774" lon="7.23942">
        <ele>256.6</ele>
        <time>2019-08-16T08:41:43Z</time>
      </trkpt>
      <trkpt lat="47.8077" lon="7.23939">
        <ele>256.6</ele>
        <time>2019-08-16T08:41:44Z</time>
      </trkpt>
      <trkpt lat="47.80765" lon="7.23937">
        <ele>256.5</ele>
        <time>2019-08-16T08:41:45Z</time>
      </trkpt>
      <trkpt lat="47.8076" lon="7.23935">
        <ele>256.5</ele>
        <time>2019-08-16T08:41:46Z</time>
      </trkpt>
      <trkpt lat="47.80755" lon="7.23933">
        <ele>256.5</ele>
        <time>2019-08-16T08:41:47Z</time>
      </trkpt>
      <trkpt lat="47.8075" lon="7.23931">
        <ele>256.4</ele>
        <time>2019-08-16T08:41:48Z</time>
      </trkpt>
      <trkpt lat="47.80745" lon="7.23928">
        <ele>256.4</ele>
        <time>2019-08-16T08:41:49Z</time>
      </trkpt>
      <trkpt lat="47.80738" lon="7.23925">
        <ele>256.4</ele>
        <time>2019-08-16T08:41:50Z</time>
      </trkpt>
      <trkpt lat="47.80732" lon="7.23923">
        <ele>256.3</ele>
        <time>2019-08-16T08:41:51Z</time>
      </trkpt>
      <trkpt lat="47.80728" lon="7.2392">
        <ele>256.3</ele>
        <time>2019-08-16T08:41:52Z</time>
      </trkpt>
      <trkpt lat="47.80724" lon="7.23919">
        <ele>256.2</ele>
        <time>2019-08-16T08:41:53Z</time>
      </trkpt>
      <trkpt lat="47.80719" lon="7.23917">
        <ele>256.2</ele>
        <time>2019-08-16T08:41:54Z</time>
      </trkpt>
      <trkpt lat="47.80713" lon="7.23916">
        <ele>256.2</ele>
        <time>2019-08-16T08:41:55Z</time>
      </trkpt>
      <trkpt lat="47.80707" lon="7.23919">
        <ele>256.2</ele>
        <time>2019-08-16T08:41:56Z</time>
      </trkpt>
      <trkpt lat="47.80703" lon="7.23923">
        <ele>256.2</ele>
        <time>2019-08-16T08:41:57Z</time>
      </trkpt>
      <trkpt lat="47.80699" lon="7.2393">
        <ele>256.2</ele>
        <time>2019-08-16T08:41:58Z</time>
      </trkpt>
      <trkpt lat="47.80696" lon="7.23935">
        <ele>256.2</ele>
        <time>2019-08-16T08:41:59Z</time>
      </trkpt>
      <trkpt lat="47.80692" lon="7.2394">
        <ele>256.2</ele>
        <time>2019-08-16T08:42:00Z</time>
      </trkpt>
      <trkpt lat="47.80688" lon="7.23944">
        <ele>256.2</ele>
        <time>2019-08-16T08:42:01Z</time>
      </trkpt>
      <trkpt lat="47.80683" lon="7.23947">
        <ele>256.2</ele>
        <time>2019-08-16T08:42:02Z</time>
      </trkpt>
      <trkpt lat="47.80678" lon="7.2395">
        <ele>256.2</ele>
        <time>2019-08-16T08:42:03Z</time>
      </trkpt>
      <trkpt lat="47.80673" lon="7.23952">
        <ele>257</ele>
        <time>2019-08-16T08:42:04Z</time>
      </trkpt>
      <trkpt lat="47.80668" lon="7.23954">
        <ele>257.5</ele>
        <time>2019-08-16T08:42:05Z</time>
      </trkpt>
      <trkpt lat="47.80663" lon="7.23955">
        <ele>257.9</ele>
        <time>2019-08-16T08:42:06Z</time>
      </trkpt>
      <trkpt lat="47.80658" lon="7.23956">
        <ele>258.3</ele>
        <time>2019-08-16T08:42:07Z</time>
      </trkpt>
      <trkpt lat="47.80653" lon="7.23957">
        <ele>258.6</ele>
        <time>2019-08-16T08:42:08Z</time>
      </trkpt>
      <trkpt lat="47.80648" lon="7.23958">
        <ele>258.8</ele>
        <time>2019-08-16T08:42:09Z</time>
      </trkpt>
      <trkpt lat="47.80643" lon="7.23959">
        <ele>258.8</ele>
        <time>2019-08-16T08:42:10Z</time>
      </trkpt>
      <trkpt lat="47.80637" lon="7.23961">
        <ele>258.8</ele>
        <time>2019-08-16T08:42:11Z</time>
      </trkpt>
      <trkpt lat="47.80632" lon="7.23964">
        <ele>258.8</ele>
        <time>2019-08-16T08:42:12Z</time>
      </trkpt>
      <trkpt lat="47.80627" lon="7.23965">
        <ele>258.7</ele>
        <time>2019-08-16T08:42:13Z</time>
      </trkpt>
      <trkpt lat="47.80622" lon="7.23967">
        <ele>258.6</ele>
        <time>2019-08-16T08:42:14Z</time>
      </trkpt>
      <trkpt lat="47.80617" lon="7.23969">
        <ele>258.5</ele>
        <time>2019-08-16T08:42:15Z</time>
      </trkpt>
      <trkpt lat="47.80613" lon="7.23971">
        <ele>258.4</ele>
        <time>2019-08-16T08:42:16Z</time>
      </trkpt>
      <trkpt lat="47.80609" lon="7.23974">
        <ele>258.2</ele>
        <time>2019-08-16T08:42:17Z</time>
      </trkpt>
      <trkpt lat="47.80604" lon="7.23977">
        <ele>258</ele>
        <time>2019-08-16T08:42:18Z</time>
      </trkpt>
      <trkpt lat="47.80599" lon="7.23979">
        <ele>257.7</ele>
        <time>2019-08-16T08:42:19Z</time>
      </trkpt>
      <trkpt lat="47.80594" lon="7.23981">
        <ele>257.6</ele>
        <time>2019-08-16T08:42:20Z</time>
      </trkpt>
      <trkpt lat="47.8059" lon="7.23984">
        <ele>257.6</ele>
        <time>2019-08-16T08:42:21Z</time>
      </trkpt>
      <trkpt lat="47.80585" lon="7.23986">
        <ele>257.7</ele>
        <time>2019-08-16T08:42:22Z</time>
      </trkpt>
      <trkpt lat="47.8058" lon="7.23989">
        <ele>257.7</ele>
        <time>2019-08-16T08:42:23Z</time>
      </trkpt>
      <trkpt lat="47.80575" lon="7.23991">
        <ele>257.7</ele>
        <time>2019-08-16T08:42:24Z</time>
      </trkpt>
      <trkpt lat="47.8057" lon="7.23994">
        <ele>257.8</ele>
        <time>2019-08-16T08:42:25Z</time>
      </trkpt>
      <trkpt lat="47.80566" lon="7.23997">
        <ele>257.8</ele>
        <time>2019-08-16T08:42:26Z</time>
      </trkpt>
      <trkpt lat="47.80561" lon="7.23999">
        <ele>257.9</ele>
        <time>2019-08-16T08:42:27Z</time>
      </trkpt>
      <trkpt lat="47.80556" lon="7.24001">
        <ele>257.9</ele>
        <time>2019-08-16T08:42:28Z</time>
      </trkpt>
      <trkpt lat="47.80551" lon="7.24003">
        <ele>258</ele>
        <time>2019-08-16T08:42:29Z</time>
      </trkpt>
      <trkpt lat="47.80546" lon="7.24005">
        <ele>258</ele>
        <time>2019-08-16T08:42:30Z</time>
      </trkpt>
      <trkpt lat="47.80541" lon="7.24007">
        <ele>258.1</ele>
        <time>2019-08-16T08:42:31Z</time>
      </trkpt>
      <trkpt lat="47.80536" lon="7.24008">
        <ele>258.2</ele>
        <time>2019-08-16T08:42:32Z</time>
      </trkpt>
      <trkpt lat="47.80531" lon="7.2401">
        <ele>258.2</ele>
        <time>2019-08-16T08:42:33Z</time>
      </trkpt>
      <trkpt lat="47.80526" lon="7.24012">
        <ele>258.3</ele>
        <time>2019-08-16T08:42:34Z</time>
      </trkpt>
      <trkpt lat="47.80522" lon="7.24013">
        <ele>258.3</ele>
        <time>2019-08-16T08:42:35Z</time>
      </trkpt>
      <trkpt lat="47.80517" lon="7.24015">
        <ele>258.4</ele>
        <time>2019-08-16T08:42:36Z</time>
      </trkpt>
      <trkpt lat="47.80512" lon="7.24016">
        <ele>258.4</ele>
        <time>2019-08-16T08:42:37Z</time>
      </trkpt>
      <trkpt lat="47.80507" lon="7.24017">
        <ele>258.5</ele>
        <time>2019-08-16T08:42:38Z</time>
      </trkpt>
      <trkpt lat="47.80502" lon="7.24019">
        <ele>258.6</ele>
        <time>2019-08-16T08:42:39Z</time>
      </trkpt>
      <trkpt lat="47.80498" lon="7.2402">
        <ele>258.6</ele>
        <time>2019-08-16T08:42:40Z</time>
      </trkpt>
      <trkpt lat="47.80493" lon="7.24021">
        <ele>258.7</ele>
        <time>2019-08-16T08:42:41Z</time>
      </trkpt>
      <trkpt lat="47.80488" lon="7.24022">
        <ele>258.7</ele>
        <time>2019-08-16T08:42:42Z</time>
      </trkpt>
      <trkpt lat="47.80484" lon="7.24022">
        <ele>258.8</ele>
        <time>2019-08-16T08:42:43Z</time>
      </trkpt>
      <trkpt lat="47.8048" lon="7.24023">
        <ele>258.9</ele>
        <time>2019-08-16T08:42:44Z</time>
      </trkpt>
      <trkpt lat="47.80476" lon="7.24024">
        <ele>258.9</ele>
        <time>2019-08-16T08:42:45Z</time>
      </trkpt>
      <trkpt lat="47.80473" lon="7.24025">
        <ele>258.8</ele>
        <time>2019-08-16T08:42:46Z</time>
      </trkpt>
      <trkpt lat="47.80469" lon="7.24026">
        <ele>258.8</ele>
        <time>2019-08-16T08:42:47Z</time>
      </trkpt>
      <trkpt lat="47.80465" lon="7.24026">
        <ele>258.8</ele>
        <time>2019-08-16T08:42:48Z</time>
      </trkpt>
      <trkpt lat="47.80462" lon="7.24027">
        <ele>258.8</ele>
        <time>2019-08-16T08:42:49Z</time>
      </trkpt>
      <trkpt lat="47.80458" lon="7.24027">
        <ele>258.8</ele>
        <time>2019-08-16T08:42:50Z</time>
      </trkpt>
      <trkpt lat="47.80455" lon="7.24028">
        <ele>258.7</ele>
        <time>2019-08-16T08:42:51Z</time>
      </trkpt>
      <trkpt lat="47.80451" lon="7.24029">
        <ele>258.7</ele>
        <time>2019-08-16T08:42:52Z</time>
      </trkpt>
      <trkpt lat="47.80448" lon="7.24032">
        <ele>258.7</ele>
        <time>2019-08-16T08:42:53Z</time>
      </trkpt>
      <trkpt lat="47.80443" lon="7.24039">
        <ele>258.7</ele>
        <time>2019-08-16T08:42:54Z</time>
      </trkpt>
      <trkpt lat="47.8044" lon="7.24042">
        <ele>258.6</ele>
        <time>2019-08-16T08:42:55Z</time>
      </trkpt>
      <trkpt lat="47.80435" lon="7.24044">
        <ele>258.6</ele>
        <time>2019-08-16T08:42:56Z</time>
      </trkpt>
      <trkpt lat="47.80431" lon="7.24044">
        <ele>258.6</ele>
        <time>2019-08-16T08:42:57Z</time>
      </trkpt>
      <trkpt lat="47.80427" lon="7.24046">
        <ele>258.6</ele>
        <time>2019-08-16T08:42:58Z</time>
      </trkpt>
      <trkpt lat="47.80423" lon="7.24047">
        <ele>258.5</ele>
        <time>2019-08-16T08:42:59Z</time>
      </trkpt>
      <trkpt lat="47.80419" lon="7.24048">
        <ele>258.5</ele>
        <time>2019-08-16T08:43:00Z</time>
      </trkpt>
      <trkpt lat="47.80415" lon="7.24048">
        <ele>258.5</ele>
        <time>2019-08-16T08:43:01Z</time>
      </trkpt>
      <trkpt lat="47.80411" lon="7.24051">
        <ele>258.5</ele>
        <time>2019-08-16T08:43:02Z</time>
      </trkpt>
      <trkpt lat="47.80407" lon="7.24054">
        <ele>258.5</ele>
        <time>2019-08-16T08:43:03Z</time>
      </trkpt>
      <trkpt lat="47.80402" lon="7.24057">
        <ele>258.4</ele>
        <time>2019-08-16T08:43:04Z</time>
      </trkpt>
      <trkpt lat="47.80398" lon="7.2406">
        <ele>258.4</ele>
        <time>2019-08-16T08:43:05Z</time>
      </trkpt>
      <trkpt lat="47.80394" lon="7.24062">
        <ele>258.3</ele>
        <time>2019-08-16T08:43:06Z</time>
      </trkpt>
      <trkpt lat="47.8039" lon="7.24064">
        <ele>258.3</ele>
        <time>2019-08-16T08:43:07Z</time>
      </trkpt>
      <trkpt lat="47.80385" lon="7.24066">
        <ele>258.2</ele>
        <time>2019-08-16T08:43:08Z</time>
      </trkpt>
      <trkpt lat="47.8038" lon="7.24068">
        <ele>258</ele>
        <time>2019-08-16T08:43:09Z</time>
      </trkpt>
      <trkpt lat="47.80375" lon="7.24068">
        <ele>257.9</ele>
        <time>2019-08-16T08:43:10Z</time>
      </trkpt>
      <trkpt lat="47.80369" lon="7.24069">
        <ele>257.6</ele>
        <time>2019-08-16T08:43:11Z</time>
      </trkpt>
      <trkpt lat="47.80364" lon="7.24071">
        <ele>257.4</ele>
        <time>2019-08-16T08:43:12Z</time>
      </trkpt>
      <trkpt lat="47.80358" lon="7.24073">
        <ele>257</ele>
        <time>2019-08-16T08:43:13Z</time>
      </trkpt>
      <trkpt lat="47.80354" lon="7.24076">
        <ele>256.8</ele>
        <time>2019-08-16T08:43:14Z</time>
      </trkpt>
      <trkpt lat="47.80348" lon="7.24076">
        <ele>256.5</ele>
        <time>2019-08-16T08:43:15Z</time>
      </trkpt>
      <trkpt lat="47.80343" lon="7.24078">
        <ele>256.2</ele>
        <time>2019-08-16T08:43:16Z</time>
      </trkpt>
      <trkpt lat="47.80338" lon="7.2408">
        <ele>256</ele>
        <time>2019-08-16T08:43:17Z</time>
      </trkpt>
      <trkpt lat="47.80334" lon="7.24082">
        <ele>255.9</ele>
        <time>2019-08-16T08:43:18Z</time>
      </trkpt>
      <trkpt lat="47.80329" lon="7.24084">
        <ele>255.9</ele>
        <time>2019-08-16T08:43:19Z</time>
      </trkpt>
      <trkpt lat="47.80324" lon="7.24084">
        <ele>256</ele>
        <time>2019-08-16T08:43:20Z</time>
      </trkpt>
      <trkpt lat="47.8032" lon="7.24085">
        <ele>256</ele>
        <time>2019-08-16T08:43:21Z</time>
      </trkpt>
      <trkpt lat="47.80316" lon="7.24085">
        <ele>256.1</ele>
        <time>2019-08-16T08:43:22Z</time>
      </trkpt>
      <trkpt lat="47.80311" lon="7.24087">
        <ele>256.1</ele>
        <time>2019-08-16T08:43:23Z</time>
      </trkpt>
      <trkpt lat="47.80307" lon="7.24087">
        <ele>256.2</ele>
        <time>2019-08-16T08:43:24Z</time>
      </trkpt>
      <trkpt lat="47.80302" lon="7.24088">
        <ele>256.2</ele>
        <time>2019-08-16T08:43:25Z</time>
      </trkpt>
      <trkpt lat="47.80297" lon="7.2409">
        <ele>256.2</ele>
        <time>2019-08-16T08:43:26Z</time>
      </trkpt>
      <trkpt lat="47.80292" lon="7.24091">
        <ele>256.1</ele>
        <time>2019-08-16T08:43:27Z</time>
      </trkpt>
      <trkpt lat="47.80287" lon="7.24093">
        <ele>256</ele>
        <time>2019-08-16T08:43:28Z</time>
      </trkpt>
      <trkpt lat="47.80282" lon="7.24094">
        <ele>255.9</ele>
        <time>2019-08-16T08:43:29Z</time>
      </trkpt>
      <trkpt lat="47.80277" lon="7.24095">
        <ele>255.7</ele>
        <time>2019-08-16T08:43:30Z</time>
      </trkpt>
      <trkpt lat="47.80272" lon="7.24097">
        <ele>255.6</ele>
        <time>2019-08-16T08:43:31Z</time>
      </trkpt>
      <trkpt lat="47.80267" lon="7.24098">
        <ele>255.5</ele>
        <time>2019-08-16T08:43:32Z</time>
      </trkpt>
      <trkpt lat="47.80263" lon="7.241">
        <ele>255.4</ele>
        <time>2019-08-16T08:43:33Z</time>
      </trkpt>
      <trkpt lat="47.80258" lon="7.24101">
        <ele>255.4</ele>
        <time>2019-08-16T08:43:34Z</time>
      </trkpt>
      <trkpt lat="47.80252" lon="7.24099">
        <ele>255.5</ele>
        <time>2019-08-16T08:43:35Z</time>
      </trkpt>
      <trkpt lat="47.80248" lon="7.24099">
        <ele>255.6</ele>
        <time>2019-08-16T08:43:36Z</time>
      </trkpt>
      <trkpt lat="47.80243" lon="7.24101">
        <ele>255.7</ele>
        <time>2019-08-16T08:43:37Z</time>
      </trkpt>
      <trkpt lat="47.80238" lon="7.24102">
        <ele>256</ele>
        <time>2019-08-16T08:43:38Z</time>
      </trkpt>
      <trkpt lat="47.80234" lon="7.24104">
        <ele>256.2</ele>
        <time>2019-08-16T08:43:39Z</time>
      </trkpt>
      <trkpt lat="47.80228" lon="7.24104">
        <ele>256.5</ele>
        <time>2019-08-16T08:43:40Z</time>
      </trkpt>
      <trkpt lat="47.80223" lon="7.24105">
        <ele>256.9</ele>
        <time>2019-08-16T08:43:41Z</time>
      </trkpt>
      <trkpt lat="47.80217" lon="7.24105">
        <ele>257</ele>
        <time>2019-08-16T08:43:42Z</time>
      </trkpt>
      <trkpt lat="47.80212" lon="7.24106">
        <ele>257.2</ele>
        <time>2019-08-16T08:43:43Z</time>
      </trkpt>
      <trkpt lat="47.80206" lon="7.24107">
        <ele>257.3</ele>
        <time>2019-08-16T08:43:44Z</time>
      </trkpt>
      <trkpt lat="47.802" lon="7.24108">
        <ele>257.5</ele>
        <time>2019-08-16T08:43:45Z</time>
      </trkpt>
      <trkpt lat="47.80195" lon="7.24109">
        <ele>257.6</ele>
        <time>2019-08-16T08:43:46Z</time>
      </trkpt>
      <trkpt lat="47.80189" lon="7.24111">
        <ele>257.8</ele>
        <time>2019-08-16T08:43:47Z</time>
      </trkpt>
      <trkpt lat="47.80183" lon="7.24112">
        <ele>257.9</ele>
        <time>2019-08-16T08:43:48Z</time>
      </trkpt>
      <trkpt lat="47.80177" lon="7.24114">
        <ele>258</ele>
        <time>2019-08-16T08:43:49Z</time>
      </trkpt>
      <trkpt lat="47.80171" lon="7.24115">
        <ele>258.1</ele>
        <time>2019-08-16T08:43:50Z</time>
      </trkpt>
      <trkpt lat="47.80166" lon="7.24116">
        <ele>258.2</ele>
        <time>2019-08-16T08:43:51Z</time>
      </trkpt>
      <trkpt lat="47.8016" lon="7.24118">
        <ele>258.3</ele>
        <time>2019-08-16T08:43:52Z</time>
      </trkpt>
      <trkpt lat="47.80155" lon="7.24118">
        <ele>258.2</ele>
        <time>2019-08-16T08:43:53Z</time>
      </trkpt>
      <trkpt lat="47.80149" lon="7.24119">
        <ele>258.1</ele>
        <time>2019-08-16T08:43:54Z</time>
      </trkpt>
      <trkpt lat="47.80144" lon="7.2412">
        <ele>258</ele>
        <time>2019-08-16T08:43:55Z</time>
      </trkpt>
      <trkpt lat="47.8014" lon="7.24121">
        <ele>257.9</ele>
        <time>2019-08-16T08:43:56Z</time>
      </trkpt>
      <trkpt lat="47.80134" lon="7.24123">
        <ele>257.8</ele>
        <time>2019-08-16T08:43:57Z</time>
      </trkpt>
      <trkpt lat="47.80129" lon="7.24124">
        <ele>257.7</ele>
        <time>2019-08-16T08:43:58Z</time>
      </trkpt>
      <trkpt lat="47.80124" lon="7.24123">
        <ele>257.6</ele>
        <time>2019-08-16T08:43:59Z</time>
      </trkpt>
      <trkpt lat="47.80119" lon="7.24123">
        <ele>257.6</ele>
        <time>2019-08-16T08:44:00Z</time>
      </trkpt>
      <trkpt lat="47.80114" lon="7.24123">
        <ele>257.5</ele>
        <time>2019-08-16T08:44:01Z</time>
      </trkpt>
      <trkpt lat="47.80109" lon="7.24123">
        <ele>257.5</ele>
        <time>2019-08-16T08:44:02Z</time>
      </trkpt>
      <trkpt lat="47.80103" lon="7.24123">
        <ele>257.4</ele>
        <time>2019-08-16T08:44:03Z</time>
      </trkpt>
      <trkpt lat="47.80097" lon="7.24124">
        <ele>257.4</ele>
        <time>2019-08-16T08:44:04Z</time>
      </trkpt>
      <trkpt lat="47.80092" lon="7.24124">
        <ele>257.4</ele>
        <time>2019-08-16T08:44:05Z</time>
      </trkpt>
      <trkpt lat="47.80087" lon="7.24124">
        <ele>257.3</ele>
        <time>2019-08-16T08:44:06Z</time>
      </trkpt>
      <trkpt lat="47.80082" lon="7.24124">
        <ele>257.3</ele>
        <time>2019-08-16T08:44:07Z</time>
      </trkpt>
      <trkpt lat="47.80078" lon="7.24123">
        <ele>257.3</ele>
        <time>2019-08-16T08:44:08Z</time>
      </trkpt>
      <trkpt lat="47.80073" lon="7.24123">
        <ele>257.2</ele>
        <time>2019-08-16T08:44:09Z</time>
      </trkpt>
      <trkpt lat="47.80069" lon="7.24123">
        <ele>257.2</ele>
        <time>2019-08-16T08:44:10Z</time>
      </trkpt>
      <trkpt lat="47.80063" lon="7.24124">
        <ele>257.1</ele>
        <time>2019-08-16T08:44:11Z</time>
      </trkpt>
      <trkpt lat="47.80059" lon="7.24125">
        <ele>257</ele>
        <time>2019-08-16T08:44:12Z</time>
      </trkpt>
      <trkpt lat="47.80054" lon="7.24126">
        <ele>257</ele>
        <time>2019-08-16T08:44:13Z</time>
      </trkpt>
      <trkpt lat="47.80049" lon="7.24127">
        <ele>256.9</ele>
        <time>2019-08-16T08:44:14Z</time>
      </trkpt>
      <trkpt lat="47.80045" lon="7.24127">
        <ele>256.9</ele>
        <time>2019-08-16T08:44:15Z</time>
      </trkpt>
      <trkpt lat="47.8004" lon="7.24127">
        <ele>256.8</ele>
        <time>2019-08-16T08:44:16Z</time>
      </trkpt>
      <trkpt lat="47.80036" lon="7.24128">
        <ele>256.8</ele>
        <time>2019-08-16T08:44:17Z</time>
      </trkpt>
      <trkpt lat="47.80031" lon="7.24126">
        <ele>256.8</ele>
        <time>2019-08-16T08:44:18Z</time>
      </trkpt>
      <trkpt lat="47.80025" lon="7.24127">
        <ele>256.8</ele>
        <time>2019-08-16T08:44:19Z</time>
      </trkpt>
      <trkpt lat="47.8002" lon="7.24127">
        <ele>256.8</ele>
        <time>2019-08-16T08:44:20Z</time>
      </trkpt>
      <trkpt lat="47.80015" lon="7.24128">
        <ele>256.7</ele>
        <time>2019-08-16T08:44:21Z</time>
      </trkpt>
      <trkpt lat="47.8001" lon="7.24129">
        <ele>256.7</ele>
        <time>2019-08-16T08:44:22Z</time>
      </trkpt>
      <trkpt lat="47.80006" lon="7.2413">
        <ele>256.7</ele>
        <time>2019-08-16T08:44:23Z</time>
      </trkpt>
      <trkpt lat="47.80001" lon="7.2413">
        <ele>256.7</ele>
        <time>2019-08-16T08:44:24Z</time>
      </trkpt>
      <trkpt lat="47.79997" lon="7.24131">
        <ele>256.7</ele>
        <time>2019-08-16T08:44:25Z</time>
      </trkpt>
      <trkpt lat="47.79992" lon="7.24131">
        <ele>256.7</ele>
        <time>2019-08-16T08:44:26Z</time>
      </trkpt>
      <trkpt lat="47.79987" lon="7.24131">
        <ele>256.8</ele>
        <time>2019-08-16T08:44:27Z</time>
      </trkpt>
      <trkpt lat="47.79983" lon="7.24132">
        <ele>256.8</ele>
        <time>2019-08-16T08:44:28Z</time>
      </trkpt>
      <trkpt lat="47.79978" lon="7.24134">
        <ele>256.8</ele>
        <time>2019-08-16T08:44:29Z</time>
      </trkpt>
      <trkpt lat="47.79973" lon="7.24135">
        <ele>256.8</ele>
        <time>2019-08-16T08:44:30Z</time>
      </trkpt>
      <trkpt lat="47.79969" lon="7.24136">
        <ele>256.9</ele>
        <time>2019-08-16T08:44:31Z</time>
      </trkpt>
      <trkpt lat="47.79965" lon="7.24136">
        <ele>256.9</ele>
        <time>2019-08-16T08:44:32Z</time>
      </trkpt>
      <trkpt lat="47.79961" lon="7.24137">
        <ele>256.9</ele>
        <time>2019-08-16T08:44:33Z</time>
      </trkpt>
      <trkpt lat="47.79956" lon="7.24136">
        <ele>257</ele>
        <time>2019-08-16T08:44:34Z</time>
      </trkpt>
      <trkpt lat="47.79952" lon="7.24136">
        <ele>257</ele>
        <time>2019-08-16T08:44:35Z</time>
      </trkpt>
      <trkpt lat="47.79947" lon="7.24136">
        <ele>257.1</ele>
        <time>2019-08-16T08:44:36Z</time>
      </trkpt>
      <trkpt lat="47.79942" lon="7.24136">
        <ele>257.1</ele>
        <time>2019-08-16T08:44:37Z</time>
      </trkpt>
      <trkpt lat="47.79938" lon="7.24137">
        <ele>257.1</ele>
        <time>2019-08-16T08:44:38Z</time>
      </trkpt>
      <trkpt lat="47.79934" lon="7.24138">
        <ele>257.2</ele>
        <time>2019-08-16T08:44:39Z</time>
      </trkpt>
      <trkpt lat="47.79928" lon="7.24137">
        <ele>257.2</ele>
        <time>2019-08-16T08:44:40Z</time>
      </trkpt>
      <trkpt lat="47.79924" lon="7.24136">
        <ele>257.3</ele>
        <time>2019-08-16T08:44:41Z</time>
      </trkpt>
      <trkpt lat="47.7992" lon="7.24137">
        <ele>257.3</ele>
        <time>2019-08-16T08:44:42Z</time>
      </trkpt>
      <trkpt lat="47.79916" lon="7.24138">
        <ele>257.4</ele>
        <time>2019-08-16T08:44:43Z</time>
      </trkpt>
      <trkpt lat="47.79912" lon="7.24138">
        <ele>257.4</ele>
        <time>2019-08-16T08:44:44Z</time>
      </trkpt>
      <trkpt lat="47.79909" lon="7.24139">
        <ele>257.4</ele>
        <time>2019-08-16T08:44:45Z</time>
      </trkpt>
      <trkpt lat="47.79906" lon="7.24139">
        <ele>257.4</ele>
        <time>2019-08-16T08:44:46Z</time>
      </trkpt>
      <trkpt lat="47.79903" lon="7.2414">
        <ele>257.4</ele>
        <time>2019-08-16T08:44:47Z</time>
      </trkpt>
      <trkpt lat="47.79899" lon="7.24141">
        <ele>257.4</ele>
        <time>2019-08-16T08:44:48Z</time>
      </trkpt>
      <trkpt lat="47.79895" lon="7.24141">
        <ele>257.4</ele>
        <time>2019-08-16T08:44:49Z</time>
      </trkpt>
      <trkpt lat="47.7989" lon="7.24141">
        <ele>257.4</ele>
        <time>2019-08-16T08:44:50Z</time>
      </trkpt>
      <trkpt lat="47.79885" lon="7.24142">
        <ele>257.4</ele>
        <time>2019-08-16T08:44:51Z</time>
      </trkpt>
      <trkpt lat="47.7988" lon="7.24143">
        <ele>257.4</ele>
        <time>2019-08-16T08:44:52Z</time>
      </trkpt>
      <trkpt lat="47.79875" lon="7.24142">
        <ele>257.4</ele>
        <time>2019-08-16T08:44:53Z</time>
      </trkpt>
      <trkpt lat="47.7987" lon="7.24141">
        <ele>257.4</ele>
        <time>2019-08-16T08:44:54Z</time>
      </trkpt>
      <trkpt lat="47.79866" lon="7.2414">
        <ele>257.4</ele>
        <time>2019-08-16T08:44:55Z</time>
      </trkpt>
      <trkpt lat="47.79861" lon="7.2414">
        <ele>257.4</ele>
        <time>2019-08-16T08:44:56Z</time>
      </trkpt>
      <trkpt lat="47.79856" lon="7.24141">
        <ele>257.4</ele>
        <time>2019-08-16T08:44:57Z</time>
      </trkpt>
      <trkpt lat="47.79852" lon="7.24142">
        <ele>257.4</ele>
        <time>2019-08-16T08:44:58Z</time>
      </trkpt>
      <trkpt lat="47.79846" lon="7.24143">
        <ele>257.4</ele>
        <time>2019-08-16T08:44:59Z</time>
      </trkpt>
      <trkpt lat="47.79842" lon="7.24145">
        <ele>257.4</ele>
        <time>2019-08-16T08:45:00Z</time>
      </trkpt>
      <trkpt lat="47.79838" lon="7.24146">
        <ele>257.4</ele>
        <time>2019-08-16T08:45:01Z</time>
      </trkpt>
      <trkpt lat="47.79834" lon="7.24148">
        <ele>257.3</ele>
        <time>2019-08-16T08:45:02Z</time>
      </trkpt>
      <trkpt lat="47.79829" lon="7.24148">
        <ele>257.3</ele>
        <time>2019-08-16T08:45:03Z</time>
      </trkpt>
      <trkpt lat="47.79825" lon="7.24148">
        <ele>257.2</ele>
        <time>2019-08-16T08:45:04Z</time>
      </trkpt>
      <trkpt lat="47.79821" lon="7.24149">
        <ele>257.2</ele>
        <time>2019-08-16T08:45:05Z</time>
      </trkpt>
      <trkpt lat="47.79817" lon="7.24149">
        <ele>257.1</ele>
        <time>2019-08-16T08:45:06Z</time>
      </trkpt>
      <trkpt lat="47.79814" lon="7.2415">
        <ele>257.1</ele>
        <time>2019-08-16T08:45:07Z</time>
      </trkpt>
      <trkpt lat="47.79809" lon="7.2415">
        <ele>257</ele>
        <time>2019-08-16T08:45:08Z</time>
      </trkpt>
      <trkpt lat="47.79806" lon="7.2415">
        <ele>257</ele>
        <time>2019-08-16T08:45:09Z</time>
      </trkpt>
      <trkpt lat="47.79802" lon="7.24148">
        <ele>256.9</ele>
        <time>2019-08-16T08:45:10Z</time>
      </trkpt>
      <trkpt lat="47.79798" lon="7.24148">
        <ele>256.9</ele>
        <time>2019-08-16T08:45:11Z</time>
      </trkpt>
      <trkpt lat="47.79794" lon="7.24149">
        <ele>256.9</ele>
        <time>2019-08-16T08:45:12Z</time>
      </trkpt>
      <trkpt lat="47.7979" lon="7.24149">
        <ele>256.8</ele>
        <time>2019-08-16T08:45:13Z</time>
      </trkpt>
      <trkpt lat="47.79785" lon="7.24149">
        <ele>256.7</ele>
        <time>2019-08-16T08:45:14Z</time>
      </trkpt>
      <trkpt lat="47.79781" lon="7.24149">
        <ele>256.7</ele>
        <time>2019-08-16T08:45:15Z</time>
      </trkpt>
      <trkpt lat="47.79776" lon="7.24148">
        <ele>256.6</ele>
        <time>2019-08-16T08:45:16Z</time>
      </trkpt>
      <trkpt lat="47.79772" lon="7.24148">
        <ele>256.6</ele>
        <time>2019-08-16T08:45:17Z</time>
      </trkpt>
      <trkpt lat="47.79768" lon="7.24147">
        <ele>256.5</ele>
        <time>2019-08-16T08:45:18Z</time>
      </trkpt>
      <trkpt lat="47.79764" lon="7.24147">
        <ele>256.5</ele>
        <time>2019-08-16T08:45:19Z</time>
      </trkpt>
      <trkpt lat="47.79761" lon="7.24147">
        <ele>256.4</ele>
        <time>2019-08-16T08:45:20Z</time>
      </trkpt>
      <trkpt lat="47.79757" lon="7.24145">
        <ele>256.4</ele>
        <time>2019-08-16T08:45:21Z</time>
      </trkpt>
      <trkpt lat="47.79753" lon="7.24144">
        <ele>256.4</ele>
        <time>2019-08-16T08:45:22Z</time>
      </trkpt>
      <trkpt lat="47.79749" lon="7.24142">
        <ele>256.4</ele>
        <time>2019-08-16T08:45:23Z</time>
      </trkpt>
      <trkpt lat="47.79744" lon="7.2414">
        <ele>256.4</ele>
        <time>2019-08-16T08:45:24Z</time>
      </trkpt>
      <trkpt lat="47.7974" lon="7.24137">
        <ele>256.4</ele>
        <time>2019-08-16T08:45:25Z</time>
      </trkpt>
      <trkpt lat="47.79735" lon="7.24136">
        <ele>256.4</ele>
        <time>2019-08-16T08:45:26Z</time>
      </trkpt>
      <trkpt lat="47.79731" lon="7.24134">
        <ele>256.4</ele>
        <time>2019-08-16T08:45:27Z</time>
      </trkpt>
      <trkpt lat="47.79727" lon="7.24134">
        <ele>256.4</ele>
        <time>2019-08-16T08:45:28Z</time>
      </trkpt>
      <trkpt lat="47.79723" lon="7.24131">
        <ele>256.5</ele>
        <time>2019-08-16T08:45:29Z</time>
      </trkpt>
      <trkpt lat="47.79719" lon="7.24129">
        <ele>256.5</ele>
        <time>2019-08-16T08:45:30Z</time>
      </trkpt>
      <trkpt lat="47.79715" lon="7.24126">
        <ele>256.6</ele>
        <time>2019-08-16T08:45:31Z</time>
      </trkpt>
      <trkpt lat="47.7971" lon="7.24123">
        <ele>256.7</ele>
        <time>2019-08-16T08:45:32Z</time>
      </trkpt>
      <trkpt lat="47.79707" lon="7.24121">
        <ele>256.8</ele>
        <time>2019-08-16T08:45:33Z</time>
      </trkpt>
      <trkpt lat="47.79703" lon="7.24118">
        <ele>257</ele>
        <time>2019-08-16T08:45:34Z</time>
      </trkpt>
      <trkpt lat="47.79699" lon="7.24115">
        <ele>257.1</ele>
        <time>2019-08-16T08:45:35Z</time>
      </trkpt>
      <trkpt lat="47.79695" lon="7.2411">
        <ele>257.3</ele>
        <time>2019-08-16T08:45:36Z</time>
      </trkpt>
      <trkpt lat="47.79691" lon="7.24105">
        <ele>257.5</ele>
        <time>2019-08-16T08:45:37Z</time>
      </trkpt>
      <trkpt lat="47.79687" lon="7.241">
        <ele>257.6</ele>
        <time>2019-08-16T08:45:38Z</time>
      </trkpt>
      <trkpt lat="47.79682" lon="7.24096">
        <ele>257.8</ele>
        <time>2019-08-16T08:45:39Z</time>
      </trkpt>
      <trkpt lat="47.79678" lon="7.24093">
        <ele>257.9</ele>
        <time>2019-08-16T08:45:40Z</time>
      </trkpt>
      <trkpt lat="47.79675" lon="7.2409">
        <ele>258</ele>
        <time>2019-08-16T08:45:41Z</time>
      </trkpt>
      <trkpt lat="47.79671" lon="7.24086">
        <ele>258.1</ele>
        <time>2019-08-16T08:45:42Z</time>
      </trkpt>
      <trkpt lat="47.79667" lon="7.24081">
        <ele>258.1</ele>
        <time>2019-08-16T08:45:43Z</time>
      </trkpt>
      <trkpt lat="47.79663" lon="7.24078">
        <ele>258.2</ele>
        <time>2019-08-16T08:45:44Z</time>
      </trkpt>
      <trkpt lat="47.79659" lon="7.24074">
        <ele>258.2</ele>
        <time>2019-08-16T08:45:45Z</time>
      </trkpt>
      <trkpt lat="47.79655" lon="7.24071">
        <ele>258.2</ele>
        <time>2019-08-16T08:45:46Z</time>
      </trkpt>
      <trkpt lat="47.79651" lon="7.24068">
        <ele>258.2</ele>
        <time>2019-08-16T08:45:47Z</time>
      </trkpt>
      <trkpt lat="47.79647" lon="7.24065">
        <ele>258.2</ele>
        <time>2019-08-16T08:45:48Z</time>
      </trkpt>
      <trkpt lat="47.79643" lon="7.24062">
        <ele>258.2</ele>
        <time>2019-08-16T08:45:49Z</time>
      </trkpt>
      <trkpt lat="47.79639" lon="7.24059">
        <ele>258.2</ele>
        <time>2019-08-16T08:45:50Z</time>
      </trkpt>
      <trkpt lat="47.79635" lon="7.24056">
        <ele>258.2</ele>
        <time>2019-08-16T08:45:51Z</time>
      </trkpt>
      <trkpt lat="47.7963" lon="7.24052">
        <ele>258.2</ele>
        <time>2019-08-16T08:45:52Z</time>
      </trkpt>
      <trkpt lat="47.79626" lon="7.24048">
        <ele>258.2</ele>
        <time>2019-08-16T08:45:53Z</time>
      </trkpt>
      <trkpt lat="47.79622" lon="7.24045">
        <ele>258.2</ele>
        <time>2019-08-16T08:45:54Z</time>
      </trkpt>
      <trkpt lat="47.79619" lon="7.24041">
        <ele>258.2</ele>
        <time>2019-08-16T08:45:55Z</time>
      </trkpt>
      <trkpt lat="47.79615" lon="7.24037">
        <ele>258.2</ele>
        <time>2019-08-16T08:45:56Z</time>
      </trkpt>
      <trkpt lat="47.7961" lon="7.24032">
        <ele>258.2</ele>
        <time>2019-08-16T08:45:57Z</time>
      </trkpt>
      <trkpt lat="47.79606" lon="7.24025">
        <ele>258.1</ele>
        <time>2019-08-16T08:45:58Z</time>
      </trkpt>
      <trkpt lat="47.79602" lon="7.24021">
        <ele>258.1</ele>
        <time>2019-08-16T08:45:59Z</time>
      </trkpt>
      <trkpt lat="47.79599" lon="7.24017">
        <ele>258</ele>
        <time>2019-08-16T08:46:00Z</time>
      </trkpt>
      <trkpt lat="47.79594" lon="7.24013">
        <ele>258</ele>
        <time>2019-08-16T08:46:01Z</time>
      </trkpt>
      <trkpt lat="47.79589" lon="7.24009">
        <ele>258</ele>
        <time>2019-08-16T08:46:02Z</time>
      </trkpt>
      <trkpt lat="47.79585" lon="7.24005">
        <ele>258.1</ele>
        <time>2019-08-16T08:46:03Z</time>
      </trkpt>
      <trkpt lat="47.7958" lon="7.24001">
        <ele>258</ele>
        <time>2019-08-16T08:46:04Z</time>
      </trkpt>
      <trkpt lat="47.79576" lon="7.23999">
        <ele>258</ele>
        <time>2019-08-16T08:46:05Z</time>
      </trkpt>
      <trkpt lat="47.79572" lon="7.23995">
        <ele>258</ele>
        <time>2019-08-16T08:46:06Z</time>
      </trkpt>
      <trkpt lat="47.79569" lon="7.23991">
        <ele>258</ele>
        <time>2019-08-16T08:46:07Z</time>
      </trkpt>
      <trkpt lat="47.79566" lon="7.23986">
        <ele>258</ele>
        <time>2019-08-16T08:46:08Z</time>
      </trkpt>
      <trkpt lat="47.79562" lon="7.23981">
        <ele>258.1</ele>
        <time>2019-08-16T08:46:09Z</time>
      </trkpt>
      <trkpt lat="47.79558" lon="7.23977">
        <ele>258.1</ele>
        <time>2019-08-16T08:46:10Z</time>
      </trkpt>
      <trkpt lat="47.79554" lon="7.23976">
        <ele>258.1</ele>
        <time>2019-08-16T08:46:11Z</time>
      </trkpt>
      <trkpt lat="47.79549" lon="7.23975">
        <ele>258.1</ele>
        <time>2019-08-16T08:46:12Z</time>
      </trkpt>
      <trkpt lat="47.79545" lon="7.23971">
        <ele>258.1</ele>
        <time>2019-08-16T08:46:13Z</time>
      </trkpt>
      <trkpt lat="47.79541" lon="7.23969">
        <ele>258.1</ele>
        <time>2019-08-16T08:46:14Z</time>
      </trkpt>
      <trkpt lat="47.79537" lon="7.23967">
        <ele>258.1</ele>
        <time>2019-08-16T08:46:15Z</time>
      </trkpt>
      <trkpt lat="47.79533" lon="7.23965">
        <ele>258.1</ele>
        <time>2019-08-16T08:46:16Z</time>
      </trkpt>
      <trkpt lat="47.7953" lon="7.23962">
        <ele>258.1</ele>
        <time>2019-08-16T08:46:17Z</time>
      </trkpt>
      <trkpt lat="47.79526" lon="7.2396">
        <ele>258.1</ele>
        <time>2019-08-16T08:46:18Z</time>
      </trkpt>
      <trkpt lat="47.79522" lon="7.23958">
        <ele>258.2</ele>
        <time>2019-08-16T08:46:19Z</time>
      </trkpt>
      <trkpt lat="47.79519" lon="7.23955">
        <ele>258.2</ele>
        <time>2019-08-16T08:46:20Z</time>
      </trkpt>
      <trkpt lat="47.79515" lon="7.23953">
        <ele>258.2</ele>
        <time>2019-08-16T08:46:21Z</time>
      </trkpt>
      <trkpt lat="47.7951" lon="7.23951">
        <ele>258.2</ele>
        <time>2019-08-16T08:46:22Z</time>
      </trkpt>
      <trkpt lat="47.79505" lon="7.23948">
        <ele>258.2</ele>
        <time>2019-08-16T08:46:23Z</time>
      </trkpt>
      <trkpt lat="47.795" lon="7.23946">
        <ele>258.2</ele>
        <time>2019-08-16T08:46:24Z</time>
      </trkpt>
      <trkpt lat="47.79496" lon="7.23943">
        <ele>258.2</ele>
        <time>2019-08-16T08:46:25Z</time>
      </trkpt>
      <trkpt lat="47.7949" lon="7.23942">
        <ele>258.2</ele>
        <time>2019-08-16T08:46:26Z</time>
      </trkpt>
      <trkpt lat="47.79486" lon="7.23941">
        <ele>258.2</ele>
        <time>2019-08-16T08:46:27Z</time>
      </trkpt>
      <trkpt lat="47.79481" lon="7.2394">
        <ele>258.2</ele>
        <time>2019-08-16T08:46:28Z</time>
      </trkpt>
      <trkpt lat="47.79477" lon="7.23938">
        <ele>258.2</ele>
        <time>2019-08-16T08:46:29Z</time>
      </trkpt>
      <trkpt lat="47.79472" lon="7.23937">
        <ele>258.2</ele>
        <time>2019-08-16T08:46:30Z</time>
      </trkpt>
      <trkpt lat="47.79467" lon="7.23936">
        <ele>258.2</ele>
        <time>2019-08-16T08:46:31Z</time>
      </trkpt>
      <trkpt lat="47.79463" lon="7.23935">
        <ele>258.2</ele>
        <time>2019-08-16T08:46:32Z</time>
      </trkpt>
      <trkpt lat="47.79458" lon="7.23934">
        <ele>258.2</ele>
        <time>2019-08-16T08:46:33Z</time>
      </trkpt>
      <trkpt lat="47.79452" lon="7.23933">
        <ele>258.2</ele>
        <time>2019-08-16T08:46:34Z</time>
      </trkpt>
      <trkpt lat="47.79447" lon="7.23932">
        <ele>258.2</ele>
        <time>2019-08-16T08:46:35Z</time>
      </trkpt>
      <trkpt lat="47.79442" lon="7.23931">
        <ele>258.1</ele>
        <time>2019-08-16T08:46:36Z</time>
      </trkpt>
      <trkpt lat="47.79437" lon="7.23931">
        <ele>258.1</ele>
        <time>2019-08-16T08:46:37Z</time>
      </trkpt>
      <trkpt lat="47.79431" lon="7.2393">
        <ele>258.1</ele>
        <time>2019-08-16T08:46:38Z</time>
      </trkpt>
      <trkpt lat="47.79426" lon="7.23929">
        <ele>258</ele>
        <time>2019-08-16T08:46:39Z</time>
      </trkpt>
      <trkpt lat="47.79421" lon="7.23929">
        <ele>258</ele>
        <time>2019-08-16T08:46:40Z</time>
      </trkpt>
      <trkpt lat="47.79416" lon="7.23929">
        <ele>258</ele>
        <time>2019-08-16T08:46:41Z</time>
      </trkpt>
      <trkpt lat="47.79412" lon="7.23929">
        <ele>258</ele>
        <time>2019-08-16T08:46:42Z</time>
      </trkpt>
      <trkpt lat="47.79407" lon="7.2393">
        <ele>257.9</ele>
        <time>2019-08-16T08:46:43Z</time>
      </trkpt>
      <trkpt lat="47.79403" lon="7.23931">
        <ele>257.9</ele>
        <time>2019-08-16T08:46:44Z</time>
      </trkpt>
      <trkpt lat="47.79398" lon="7.23931">
        <ele>257.9</ele>
        <time>2019-08-16T08:46:45Z</time>
      </trkpt>
      <trkpt lat="47.79393" lon="7.23933">
        <ele>257.9</ele>
        <time>2019-08-16T08:46:46Z</time>
      </trkpt>
      <trkpt lat="47.79388" lon="7.23934">
        <ele>257.8</ele>
        <time>2019-08-16T08:46:47Z</time>
      </trkpt>
      <trkpt lat="47.79384" lon="7.23935">
        <ele>257.8</ele>
        <time>2019-08-16T08:46:48Z</time>
      </trkpt>
      <trkpt lat="47.79379" lon="7.23936">
        <ele>257.8</ele>
        <time>2019-08-16T08:46:49Z</time>
      </trkpt>
      <trkpt lat="47.79374" lon="7.23937">
        <ele>257.8</ele>
        <time>2019-08-16T08:46:50Z</time>
      </trkpt>
      <trkpt lat="47.79369" lon="7.23938">
        <ele>257.8</ele>
        <time>2019-08-16T08:46:51Z</time>
      </trkpt>
      <trkpt lat="47.79364" lon="7.23938">
        <ele>257.8</ele>
        <time>2019-08-16T08:46:52Z</time>
      </trkpt>
      <trkpt lat="47.79359" lon="7.2394">
        <ele>257.8</ele>
        <time>2019-08-16T08:46:53Z</time>
      </trkpt>
      <trkpt lat="47.79353" lon="7.23942">
        <ele>257.8</ele>
        <time>2019-08-16T08:46:54Z</time>
      </trkpt>
      <trkpt lat="47.79348" lon="7.23944">
        <ele>257.8</ele>
        <time>2019-08-16T08:46:55Z</time>
      </trkpt>
      <trkpt lat="47.79343" lon="7.23945">
        <ele>257.8</ele>
        <time>2019-08-16T08:46:56Z</time>
      </trkpt>
      <trkpt lat="47.79338" lon="7.23949">
        <ele>257.8</ele>
        <time>2019-08-16T08:46:57Z</time>
      </trkpt>
      <trkpt lat="47.79333" lon="7.23952">
        <ele>257.7</ele>
        <time>2019-08-16T08:46:58Z</time>
      </trkpt>
      <trkpt lat="47.79329" lon="7.23955">
        <ele>257.7</ele>
        <time>2019-08-16T08:46:59Z</time>
      </trkpt>
      <trkpt lat="47.79324" lon="7.23959">
        <ele>257.7</ele>
        <time>2019-08-16T08:47:00Z</time>
      </trkpt>
      <trkpt lat="47.79319" lon="7.23961">
        <ele>257.7</ele>
        <time>2019-08-16T08:47:01Z</time>
      </trkpt>
      <trkpt lat="47.79314" lon="7.23964">
        <ele>257.7</ele>
        <time>2019-08-16T08:47:02Z</time>
      </trkpt>
      <trkpt lat="47.79309" lon="7.23968">
        <ele>257.7</ele>
        <time>2019-08-16T08:47:03Z</time>
      </trkpt>
      <trkpt lat="47.79304" lon="7.23971">
        <ele>257.7</ele>
        <time>2019-08-16T08:47:04Z</time>
      </trkpt>
      <trkpt lat="47.793" lon="7.23974">
        <ele>257.7</ele>
        <time>2019-08-16T08:47:05Z</time>
      </trkpt>
      <trkpt lat="47.79295" lon="7.23977">
        <ele>257.7</ele>
        <time>2019-08-16T08:47:06Z</time>
      </trkpt>
      <trkpt lat="47.7929" lon="7.2398">
        <ele>257.7</ele>
        <time>2019-08-16T08:47:07Z</time>
      </trkpt>
      <trkpt lat="47.79285" lon="7.23983">
        <ele>257.7</ele>
        <time>2019-08-16T08:47:08Z</time>
      </trkpt>
      <trkpt lat="47.79281" lon="7.23986">
        <ele>257.7</ele>
        <time>2019-08-16T08:47:09Z</time>
      </trkpt>
      <trkpt lat="47.79276" lon="7.23989">
        <ele>257.7</ele>
        <time>2019-08-16T08:47:10Z</time>
      </trkpt>
      <trkpt lat="47.79271" lon="7.23993">
        <ele>257.7</ele>
        <time>2019-08-16T08:47:11Z</time>
      </trkpt>
      <trkpt lat="47.79267" lon="7.23996">
        <ele>257.7</ele>
        <time>2019-08-16T08:47:12Z</time>
      </trkpt>
      <trkpt lat="47.79261" lon="7.23999">
        <ele>257.8</ele>
        <time>2019-08-16T08:47:13Z</time>
      </trkpt>
      <trkpt lat="47.79256" lon="7.24001">
        <ele>257.8</ele>
        <time>2019-08-16T08:47:14Z</time>
      </trkpt>
      <trkpt lat="47.79249" lon="7.24005">
        <ele>257.7</ele>
        <time>2019-08-16T08:47:15Z</time>
      </trkpt>
      <trkpt lat="47.79245" lon="7.24009">
        <ele>257.7</ele>
        <time>2019-08-16T08:47:16Z</time>
      </trkpt>
      <trkpt lat="47.7924" lon="7.24014">
        <ele>257.7</ele>
        <time>2019-08-16T08:47:17Z</time>
      </trkpt>
      <trkpt lat="47.79237" lon="7.2402">
        <ele>257.7</ele>
        <time>2019-08-16T08:47:18Z</time>
      </trkpt>
      <trkpt lat="47.79233" lon="7.24023">
        <ele>257.7</ele>
        <time>2019-08-16T08:47:19Z</time>
      </trkpt>
      <trkpt lat="47.79229" lon="7.24027">
        <ele>257.6</ele>
        <time>2019-08-16T08:47:20Z</time>
      </trkpt>
      <trkpt lat="47.79224" lon="7.24031">
        <ele>257.5</ele>
        <time>2019-08-16T08:47:21Z</time>
      </trkpt>
      <trkpt lat="47.7922" lon="7.24034">
        <ele>257.5</ele>
        <time>2019-08-16T08:47:22Z</time>
      </trkpt>
      <trkpt lat="47.79216" lon="7.24038">
        <ele>257.3</ele>
        <time>2019-08-16T08:47:23Z</time>
      </trkpt>
      <trkpt lat="47.79212" lon="7.24041">
        <ele>257.2</ele>
        <time>2019-08-16T08:47:24Z</time>
      </trkpt>
      <trkpt lat="47.79208" lon="7.24045">
        <ele>257.1</ele>
        <time>2019-08-16T08:47:25Z</time>
      </trkpt>
      <trkpt lat="47.79204" lon="7.24048">
        <ele>256.9</ele>
        <time>2019-08-16T08:47:26Z</time>
      </trkpt>
      <trkpt lat="47.792" lon="7.24052">
        <ele>256.8</ele>
        <time>2019-08-16T08:47:27Z</time>
      </trkpt>
      <trkpt lat="47.79196" lon="7.24055">
        <ele>256.6</ele>
        <time>2019-08-16T08:47:28Z</time>
      </trkpt>
      <trkpt lat="47.79192" lon="7.24059">
        <ele>256.5</ele>
        <time>2019-08-16T08:47:29Z</time>
      </trkpt>
      <trkpt lat="47.79187" lon="7.24063">
        <ele>256.4</ele>
        <time>2019-08-16T08:47:30Z</time>
      </trkpt>
      <trkpt lat="47.79183" lon="7.24067">
        <ele>256.3</ele>
        <time>2019-08-16T08:47:31Z</time>
      </trkpt>
      <trkpt lat="47.79179" lon="7.2407">
        <ele>256.3</ele>
        <time>2019-08-16T08:47:32Z</time>
      </trkpt>
      <trkpt lat="47.79175" lon="7.24074">
        <ele>256.3</ele>
        <time>2019-08-16T08:47:33Z</time>
      </trkpt>
      <trkpt lat="47.7917" lon="7.24078">
        <ele>256.3</ele>
        <time>2019-08-16T08:47:34Z</time>
      </trkpt>
      <trkpt lat="47.79166" lon="7.24083">
        <ele>256.4</ele>
        <time>2019-08-16T08:47:35Z</time>
      </trkpt>
      <trkpt lat="47.79161" lon="7.24088">
        <ele>256.4</ele>
        <time>2019-08-16T08:47:36Z</time>
      </trkpt>
      <trkpt lat="47.79156" lon="7.24092">
        <ele>256.4</ele>
        <time>2019-08-16T08:47:37Z</time>
      </trkpt>
      <trkpt lat="47.79151" lon="7.24095">
        <ele>256.4</ele>
        <time>2019-08-16T08:47:38Z</time>
      </trkpt>
      <trkpt lat="47.79147" lon="7.24099">
        <ele>256.4</ele>
        <time>2019-08-16T08:47:39Z</time>
      </trkpt>
      <trkpt lat="47.79142" lon="7.24104">
        <ele>256.4</ele>
        <time>2019-08-16T08:47:40Z</time>
      </trkpt>
      <trkpt lat="47.79136" lon="7.24109">
        <ele>256.4</ele>
        <time>2019-08-16T08:47:41Z</time>
      </trkpt>
      <trkpt lat="47.7913" lon="7.24114">
        <ele>256.3</ele>
        <time>2019-08-16T08:47:42Z</time>
      </trkpt>
      <trkpt lat="47.79125" lon="7.24119">
        <ele>256.3</ele>
        <time>2019-08-16T08:47:43Z</time>
      </trkpt>
      <trkpt lat="47.7912" lon="7.24123">
        <ele>256.3</ele>
        <time>2019-08-16T08:47:44Z</time>
      </trkpt>
      <trkpt lat="47.79116" lon="7.24128">
        <ele>256.3</ele>
        <time>2019-08-16T08:47:45Z</time>
      </trkpt>
      <trkpt lat="47.79111" lon="7.24133">
        <ele>256.3</ele>
        <time>2019-08-16T08:47:46Z</time>
      </trkpt>
      <trkpt lat="47.79106" lon="7.24138">
        <ele>256.3</ele>
        <time>2019-08-16T08:47:47Z</time>
      </trkpt>
      <trkpt lat="47.79101" lon="7.24144">
        <ele>256.3</ele>
        <time>2019-08-16T08:47:48Z</time>
      </trkpt>
      <trkpt lat="47.79097" lon="7.24148">
        <ele>256.3</ele>
        <time>2019-08-16T08:47:49Z</time>
      </trkpt>
      <trkpt lat="47.79092" lon="7.24154">
        <ele>256.2</ele>
        <time>2019-08-16T08:47:50Z</time>
      </trkpt>
      <trkpt lat="47.79088" lon="7.24159">
        <ele>256.2</ele>
        <time>2019-08-16T08:47:51Z</time>
      </trkpt>
      <trkpt lat="47.79085" lon="7.24165">
        <ele>256.2</ele>
        <time>2019-08-16T08:47:52Z</time>
      </trkpt>
      <trkpt lat="47.79082" lon="7.2417">
        <ele>256.2</ele>
        <time>2019-08-16T08:47:53Z</time>
      </trkpt>
      <trkpt lat="47.79079" lon="7.24175">
        <ele>256.2</ele>
        <time>2019-08-16T08:47:54Z</time>
      </trkpt>
      <trkpt lat="47.79076" lon="7.2418">
        <ele>256.2</ele>
        <time>2019-08-16T08:47:55Z</time>
      </trkpt>
      <trkpt lat="47.79072" lon="7.24184">
        <ele>256.2</ele>
        <time>2019-08-16T08:47:56Z</time>
      </trkpt>
      <trkpt lat="47.7907" lon="7.2419">
        <ele>256.2</ele>
        <time>2019-08-16T08:47:57Z</time>
      </trkpt>
      <trkpt lat="47.79067" lon="7.24196">
        <ele>256.2</ele>
        <time>2019-08-16T08:47:58Z</time>
      </trkpt>
      <trkpt lat="47.79064" lon="7.24202">
        <ele>256.2</ele>
        <time>2019-08-16T08:47:59Z</time>
      </trkpt>
      <trkpt lat="47.79061" lon="7.24209">
        <ele>256.1</ele>
        <time>2019-08-16T08:48:00Z</time>
      </trkpt>
      <trkpt lat="47.79059" lon="7.24215">
        <ele>256.1</ele>
        <time>2019-08-16T08:48:01Z</time>
      </trkpt>
      <trkpt lat="47.79056" lon="7.24221">
        <ele>256.1</ele>
        <time>2019-08-16T08:48:02Z</time>
      </trkpt>
      <trkpt lat="47.79054" lon="7.24227">
        <ele>256.1</ele>
        <time>2019-08-16T08:48:03Z</time>
      </trkpt>
      <trkpt lat="47.79051" lon="7.24233">
        <ele>256.1</ele>
        <time>2019-08-16T08:48:04Z</time>
      </trkpt>
      <trkpt lat="47.79048" lon="7.24239">
        <ele>256.1</ele>
        <time>2019-08-16T08:48:05Z</time>
      </trkpt>
      <trkpt lat="47.79045" lon="7.24245">
        <ele>256.1</ele>
        <time>2019-08-16T08:48:06Z</time>
      </trkpt>
      <trkpt lat="47.79042" lon="7.24252">
        <ele>256.1</ele>
        <time>2019-08-16T08:48:07Z</time>
      </trkpt>
      <trkpt lat="47.79039" lon="7.24259">
        <ele>256.3</ele>
        <time>2019-08-16T08:48:08Z</time>
      </trkpt>
      <trkpt lat="47.79037" lon="7.24266">
        <ele>256.5</ele>
        <time>2019-08-16T08:48:09Z</time>
      </trkpt>
      <trkpt lat="47.79036" lon="7.24273">
        <ele>256.7</ele>
        <time>2019-08-16T08:48:10Z</time>
      </trkpt>
      <trkpt lat="47.79033" lon="7.2428">
        <ele>256.9</ele>
        <time>2019-08-16T08:48:11Z</time>
      </trkpt>
      <trkpt lat="47.79031" lon="7.24286">
        <ele>257.1</ele>
        <time>2019-08-16T08:48:12Z</time>
      </trkpt>
      <trkpt lat="47.79029" lon="7.24292">
        <ele>257.3</ele>
        <time>2019-08-16T08:48:13Z</time>
      </trkpt>
      <trkpt lat="47.79028" lon="7.24299">
        <ele>257.7</ele>
        <time>2019-08-16T08:48:14Z</time>
      </trkpt>
      <trkpt lat="47.79026" lon="7.24306">
        <ele>257.9</ele>
        <time>2019-08-16T08:48:15Z</time>
      </trkpt>
      <trkpt lat="47.79025" lon="7.24314">
        <ele>258.1</ele>
        <time>2019-08-16T08:48:16Z</time>
      </trkpt>
      <trkpt lat="47.79024" lon="7.24321">
        <ele>258.3</ele>
        <time>2019-08-16T08:48:17Z</time>
      </trkpt>
      <trkpt lat="47.79022" lon="7.24329">
        <ele>258.3</ele>
        <time>2019-08-16T08:48:18Z</time>
      </trkpt>
      <trkpt lat="47.79022" lon="7.24337">
        <ele>258.3</ele>
        <time>2019-08-16T08:48:19Z</time>
      </trkpt>
      <trkpt lat="47.79021" lon="7.24344">
        <ele>258.3</ele>
        <time>2019-08-16T08:48:20Z</time>
      </trkpt>
      <trkpt lat="47.79019" lon="7.24352">
        <ele>258.3</ele>
        <time>2019-08-16T08:48:21Z</time>
      </trkpt>
      <trkpt lat="47.79018" lon="7.2436">
        <ele>258.4</ele>
        <time>2019-08-16T08:48:22Z</time>
      </trkpt>
      <trkpt lat="47.79017" lon="7.24369">
        <ele>258.5</ele>
        <time>2019-08-16T08:48:23Z</time>
      </trkpt>
      <trkpt lat="47.79015" lon="7.24377">
        <ele>258.8</ele>
        <time>2019-08-16T08:48:24Z</time>
      </trkpt>
      <trkpt lat="47.79014" lon="7.24385">
        <ele>258.8</ele>
        <time>2019-08-16T08:48:25Z</time>
      </trkpt>
      <trkpt lat="47.79012" lon="7.24393">
        <ele>258.7</ele>
        <time>2019-08-16T08:48:26Z</time>
      </trkpt>
      <trkpt lat="47.79009" lon="7.24401">
        <ele>258.7</ele>
        <time>2019-08-16T08:48:27Z</time>
      </trkpt>
      <trkpt lat="47.79007" lon="7.24408">
        <ele>258.6</ele>
        <time>2019-08-16T08:48:28Z</time>
      </trkpt>
      <trkpt lat="47.79005" lon="7.24415">
        <ele>258.5</ele>
        <time>2019-08-16T08:48:29Z</time>
      </trkpt>
      <trkpt lat="47.79004" lon="7.24422">
        <ele>258.4</ele>
        <time>2019-08-16T08:48:30Z</time>
      </trkpt>
      <trkpt lat="47.79003" lon="7.2443">
        <ele>258.4</ele>
        <time>2019-08-16T08:48:31Z</time>
      </trkpt>
      <trkpt lat="47.79001" lon="7.24438">
        <ele>258.3</ele>
        <time>2019-08-16T08:48:32Z</time>
      </trkpt>
      <trkpt lat="47.78999" lon="7.24446">
        <ele>258.2</ele>
        <time>2019-08-16T08:48:33Z</time>
      </trkpt>
      <trkpt lat="47.78997" lon="7.24453">
        <ele>258.1</ele>
        <time>2019-08-16T08:48:34Z</time>
      </trkpt>
      <trkpt lat="47.78996" lon="7.24461">
        <ele>258.1</ele>
        <time>2019-08-16T08:48:35Z</time>
      </trkpt>
      <trkpt lat="47.78994" lon="7.2447">
        <ele>258</ele>
        <time>2019-08-16T08:48:36Z</time>
      </trkpt>
      <trkpt lat="47.78992" lon="7.24478">
        <ele>257.9</ele>
        <time>2019-08-16T08:48:37Z</time>
      </trkpt>
      <trkpt lat="47.7899" lon="7.24486">
        <ele>257.8</ele>
        <time>2019-08-16T08:48:38Z</time>
      </trkpt>
      <trkpt lat="47.78988" lon="7.24493">
        <ele>257.7</ele>
        <time>2019-08-16T08:48:39Z</time>
      </trkpt>
      <trkpt lat="47.78986" lon="7.24501">
        <ele>257.6</ele>
        <time>2019-08-16T08:48:40Z</time>
      </trkpt>
      <trkpt lat="47.78985" lon="7.24509">
        <ele>257.6</ele>
        <time>2019-08-16T08:48:41Z</time>
      </trkpt>
      <trkpt lat="47.78984" lon="7.24518">
        <ele>257.5</ele>
        <time>2019-08-16T08:48:42Z</time>
      </trkpt>
      <trkpt lat="47.78983" lon="7.24526">
        <ele>257.4</ele>
        <time>2019-08-16T08:48:43Z</time>
      </trkpt>
      <trkpt lat="47.78982" lon="7.24534">
        <ele>257.4</ele>
        <time>2019-08-16T08:48:44Z</time>
      </trkpt>
      <trkpt lat="47.78981" lon="7.24542">
        <ele>257.3</ele>
        <time>2019-08-16T08:48:45Z</time>
      </trkpt>
      <trkpt lat="47.78979" lon="7.2455">
        <ele>257.2</ele>
        <time>2019-08-16T08:48:46Z</time>
      </trkpt>
      <trkpt lat="47.78978" lon="7.24558">
        <ele>257.1</ele>
        <time>2019-08-16T08:48:47Z</time>
      </trkpt>
      <trkpt lat="47.78976" lon="7.24564">
        <ele>257.1</ele>
        <time>2019-08-16T08:48:48Z</time>
      </trkpt>
      <trkpt lat="47.78975" lon="7.24571">
        <ele>257</ele>
        <time>2019-08-16T08:48:49Z</time>
      </trkpt>
      <trkpt lat="47.78974" lon="7.24578">
        <ele>257.1</ele>
        <time>2019-08-16T08:48:50Z</time>
      </trkpt>
      <trkpt lat="47.78973" lon="7.24585">
        <ele>257.3</ele>
        <time>2019-08-16T08:48:51Z</time>
      </trkpt>
      <trkpt lat="47.78974" lon="7.24593">
        <ele>257.5</ele>
        <time>2019-08-16T08:48:52Z</time>
      </trkpt>
      <trkpt lat="47.78974" lon="7.24601">
        <ele>257.7</ele>
        <time>2019-08-16T08:48:53Z</time>
      </trkpt>
      <trkpt lat="47.78975" lon="7.24609">
        <ele>257.9</ele>
        <time>2019-08-16T08:48:54Z</time>
      </trkpt>
      <trkpt lat="47.78975" lon="7.24617">
        <ele>258.1</ele>
        <time>2019-08-16T08:48:55Z</time>
      </trkpt>
      <trkpt lat="47.78975" lon="7.24625">
        <ele>258.3</ele>
        <time>2019-08-16T08:48:56Z</time>
      </trkpt>
      <trkpt lat="47.78975" lon="7.24632">
        <ele>258.4</ele>
        <time>2019-08-16T08:48:57Z</time>
      </trkpt>
      <trkpt lat="47.78973" lon="7.2464">
        <ele>258.6</ele>
        <time>2019-08-16T08:48:58Z</time>
      </trkpt>
      <trkpt lat="47.78972" lon="7.24649">
        <ele>258.8</ele>
        <time>2019-08-16T08:48:59Z</time>
      </trkpt>
      <trkpt lat="47.78971" lon="7.24656">
        <ele>259</ele>
        <time>2019-08-16T08:49:00Z</time>
      </trkpt>
      <trkpt lat="47.78969" lon="7.24662">
        <ele>259.3</ele>
        <time>2019-08-16T08:49:01Z</time>
      </trkpt>
      <trkpt lat="47.78967" lon="7.24668">
        <ele>259.3</ele>
        <time>2019-08-16T08:49:02Z</time>
      </trkpt>
      <trkpt lat="47.78966" lon="7.24672">
        <ele>259.3</ele>
        <time>2019-08-16T08:49:03Z</time>
      </trkpt>
      <trkpt lat="47.78963" lon="7.24672">
        <ele>259.4</ele>
        <time>2019-08-16T08:49:06Z</time>
      </trkpt>
      <trkpt lat="47.7896" lon="7.24673">
        <ele>259.4</ele>
        <time>2019-08-16T08:49:10Z</time>
      </trkpt>
      <trkpt lat="47.78962" lon="7.24675">
        <ele>259.4</ele>
        <time>2019-08-16T08:49:30Z</time>
      </trkpt>
      <trkpt lat="47.78964" lon="7.24681">
        <ele>259.4</ele>
        <time>2019-08-16T08:49:32Z</time>
      </trkpt>
      <trkpt lat="47.78966" lon="7.24686">
        <ele>259.4</ele>
        <time>2019-08-16T08:49:33Z</time>
      </trkpt>
      <trkpt lat="47.78969" lon="7.2469">
        <ele>259.4</ele>
        <time>2019-08-16T08:49:34Z</time>
      </trkpt>
      <trkpt lat="47.78973" lon="7.24696">
        <ele>259.4</ele>
        <time>2019-08-16T08:49:35Z</time>
      </trkpt>
      <trkpt lat="47.78974" lon="7.24702">
        <ele>259.3</ele>
        <time>2019-08-16T08:49:36Z</time>
      </trkpt>
      <trkpt lat="47.78975" lon="7.24708">
        <ele>259.3</ele>
        <time>2019-08-16T08:49:37Z</time>
      </trkpt>
      <trkpt lat="47.78975" lon="7.24715">
        <ele>259.3</ele>
        <time>2019-08-16T08:49:38Z</time>
      </trkpt>
      <trkpt lat="47.78973" lon="7.24722">
        <ele>259.2</ele>
        <time>2019-08-16T08:49:39Z</time>
      </trkpt>
      <trkpt lat="47.78973" lon="7.24727">
        <ele>259.2</ele>
        <time>2019-08-16T08:49:40Z</time>
      </trkpt>
      <trkpt lat="47.78973" lon="7.24733">
        <ele>259.2</ele>
        <time>2019-08-16T08:49:41Z</time>
      </trkpt>
      <trkpt lat="47.78973" lon="7.2474">
        <ele>259.1</ele>
        <time>2019-08-16T08:49:42Z</time>
      </trkpt>
      <trkpt lat="47.78973" lon="7.24746">
        <ele>259.1</ele>
        <time>2019-08-16T08:49:43Z</time>
      </trkpt>
      <trkpt lat="47.78974" lon="7.24754">
        <ele>259</ele>
        <time>2019-08-16T08:49:44Z</time>
      </trkpt>
      <trkpt lat="47.78974" lon="7.24761">
        <ele>259</ele>
        <time>2019-08-16T08:49:45Z</time>
      </trkpt>
      <trkpt lat="47.78973" lon="7.24768">
        <ele>258.9</ele>
        <time>2019-08-16T08:49:46Z</time>
      </trkpt>
      <trkpt lat="47.78973" lon="7.24776">
        <ele>258.8</ele>
        <time>2019-08-16T08:49:47Z</time>
      </trkpt>
      <trkpt lat="47.78973" lon="7.24784">
        <ele>258.8</ele>
        <time>2019-08-16T08:49:48Z</time>
      </trkpt>
      <trkpt lat="47.78974" lon="7.24792">
        <ele>258.7</ele>
        <time>2019-08-16T08:49:49Z</time>
      </trkpt>
      <trkpt lat="47.78973" lon="7.248">
        <ele>258.7</ele>
        <time>2019-08-16T08:49:50Z</time>
      </trkpt>
      <trkpt lat="47.78974" lon="7.2481">
        <ele>258.6</ele>
        <time>2019-08-16T08:49:51Z</time>
      </trkpt>
      <trkpt lat="47.78974" lon="7.24819">
        <ele>258.5</ele>
        <time>2019-08-16T08:49:52Z</time>
      </trkpt>
      <trkpt lat="47.78973" lon="7.24828">
        <ele>258.5</ele>
        <time>2019-08-16T08:49:53Z</time>
      </trkpt>
      <trkpt lat="47.78972" lon="7.24837">
        <ele>258.4</ele>
        <time>2019-08-16T08:49:54Z</time>
      </trkpt>
      <trkpt lat="47.78971" lon="7.24847">
        <ele>258.3</ele>
        <time>2019-08-16T08:49:55Z</time>
      </trkpt>
      <trkpt lat="47.7897" lon="7.24856">
        <ele>258.2</ele>
        <time>2019-08-16T08:49:56Z</time>
      </trkpt>
      <trkpt lat="47.78968" lon="7.24865">
        <ele>258.1</ele>
        <time>2019-08-16T08:49:57Z</time>
      </trkpt>
      <trkpt lat="47.78966" lon="7.24874">
        <ele>258</ele>
        <time>2019-08-16T08:49:58Z</time>
      </trkpt>
      <trkpt lat="47.78965" lon="7.24882">
        <ele>258</ele>
        <time>2019-08-16T08:49:59Z</time>
      </trkpt>
      <trkpt lat="47.78964" lon="7.24891">
        <ele>257.9</ele>
        <time>2019-08-16T08:50:00Z</time>
      </trkpt>
      <trkpt lat="47.78961" lon="7.24899">
        <ele>257.8</ele>
        <time>2019-08-16T08:50:01Z</time>
      </trkpt>
      <trkpt lat="47.78959" lon="7.24908">
        <ele>257.8</ele>
        <time>2019-08-16T08:50:02Z</time>
      </trkpt>
      <trkpt lat="47.78957" lon="7.24918">
        <ele>257.7</ele>
        <time>2019-08-16T08:50:03Z</time>
      </trkpt>
      <trkpt lat="47.78955" lon="7.24928">
        <ele>257.7</ele>
        <time>2019-08-16T08:50:04Z</time>
      </trkpt>
      <trkpt lat="47.78953" lon="7.24937">
        <ele>257.6</ele>
        <time>2019-08-16T08:50:05Z</time>
      </trkpt>
      <trkpt lat="47.78951" lon="7.24945">
        <ele>257.6</ele>
        <time>2019-08-16T08:50:06Z</time>
      </trkpt>
      <trkpt lat="47.7895" lon="7.24952">
        <ele>257.5</ele>
        <time>2019-08-16T08:50:07Z</time>
      </trkpt>
      <trkpt lat="47.78947" lon="7.24961">
        <ele>257.5</ele>
        <time>2019-08-16T08:50:08Z</time>
      </trkpt>
      <trkpt lat="47.78945" lon="7.24969">
        <ele>257.4</ele>
        <time>2019-08-16T08:50:09Z</time>
      </trkpt>
      <trkpt lat="47.78943" lon="7.24977">
        <ele>257.4</ele>
        <time>2019-08-16T08:50:10Z</time>
      </trkpt>
      <trkpt lat="47.7894" lon="7.24986">
        <ele>257.3</ele>
        <time>2019-08-16T08:50:11Z</time>
      </trkpt>
      <trkpt lat="47.78937" lon="7.24995">
        <ele>257.2</ele>
        <time>2019-08-16T08:50:12Z</time>
      </trkpt>
      <trkpt lat="47.78934" lon="7.25003">
        <ele>257.1</ele>
        <time>2019-08-16T08:50:13Z</time>
      </trkpt>
      <trkpt lat="47.78931" lon="7.25011">
        <ele>257.1</ele>
        <time>2019-08-16T08:50:14Z</time>
      </trkpt>
      <trkpt lat="47.78928" lon="7.2502">
        <ele>257</ele>
        <time>2019-08-16T08:50:15Z</time>
      </trkpt>
      <trkpt lat="47.78925" lon="7.25027">
        <ele>257</ele>
        <time>2019-08-16T08:50:16Z</time>
      </trkpt>
      <trkpt lat="47.78923" lon="7.25035">
        <ele>256.9</ele>
        <time>2019-08-16T08:50:17Z</time>
      </trkpt>
      <trkpt lat="47.7892" lon="7.25043">
        <ele>256.9</ele>
        <time>2019-08-16T08:50:18Z</time>
      </trkpt>
      <trkpt lat="47.78917" lon="7.25052">
        <ele>256.9</ele>
        <time>2019-08-16T08:50:19Z</time>
      </trkpt>
      <trkpt lat="47.78914" lon="7.2506">
        <ele>256.9</ele>
        <time>2019-08-16T08:50:20Z</time>
      </trkpt>
      <trkpt lat="47.78912" lon="7.25068">
        <ele>256.9</ele>
        <time>2019-08-16T08:50:21Z</time>
      </trkpt>
      <trkpt lat="47.78909" lon="7.25076">
        <ele>256.9</ele>
        <time>2019-08-16T08:50:22Z</time>
      </trkpt>
      <trkpt lat="47.78907" lon="7.25085">
        <ele>256.9</ele>
        <time>2019-08-16T08:50:23Z</time>
      </trkpt>
      <trkpt lat="47.78904" lon="7.25092">
        <ele>256.9</ele>
        <time>2019-08-16T08:50:24Z</time>
      </trkpt>
      <trkpt lat="47.78901" lon="7.251">
        <ele>256.9</ele>
        <time>2019-08-16T08:50:25Z</time>
      </trkpt>
      <trkpt lat="47.78898" lon="7.25108">
        <ele>256.9</ele>
        <time>2019-08-16T08:50:26Z</time>
      </trkpt>
      <trkpt lat="47.78895" lon="7.25116">
        <ele>256.9</ele>
        <time>2019-08-16T08:50:27Z</time>
      </trkpt>
      <trkpt lat="47.78892" lon="7.25124">
        <ele>256.9</ele>
        <time>2019-08-16T08:50:28Z</time>
      </trkpt>
      <trkpt lat="47.7889" lon="7.25132">
        <ele>256.9</ele>
        <time>2019-08-16T08:50:29Z</time>
      </trkpt>
      <trkpt lat="47.78887" lon="7.25139">
        <ele>256.9</ele>
        <time>2019-08-16T08:50:30Z</time>
      </trkpt>
      <trkpt lat="47.78885" lon="7.25146">
        <ele>256.9</ele>
        <time>2019-08-16T08:50:31Z</time>
      </trkpt>
      <trkpt lat="47.78883" lon="7.25154">
        <ele>256.9</ele>
        <time>2019-08-16T08:50:32Z</time>
      </trkpt>
      <trkpt lat="47.78881" lon="7.25163">
        <ele>256.9</ele>
        <time>2019-08-16T08:50:33Z</time>
      </trkpt>
      <trkpt lat="47.78879" lon="7.25172">
        <ele>256.9</ele>
        <time>2019-08-16T08:50:34Z</time>
      </trkpt>
      <trkpt lat="47.78876" lon="7.25181">
        <ele>256.9</ele>
        <time>2019-08-16T08:50:35Z</time>
      </trkpt>
      <trkpt lat="47.78873" lon="7.2519">
        <ele>256.9</ele>
        <time>2019-08-16T08:50:36Z</time>
      </trkpt>
      <trkpt lat="47.7887" lon="7.25199">
        <ele>256.9</ele>
        <time>2019-08-16T08:50:37Z</time>
      </trkpt>
      <trkpt lat="47.78868" lon="7.25207">
        <ele>256.9</ele>
        <time>2019-08-16T08:50:38Z</time>
      </trkpt>
      <trkpt lat="47.78866" lon="7.25214">
        <ele>256.9</ele>
        <time>2019-08-16T08:50:39Z</time>
      </trkpt>
      <trkpt lat="47.78864" lon="7.25223">
        <ele>256.9</ele>
        <time>2019-08-16T08:50:40Z</time>
      </trkpt>
      <trkpt lat="47.78862" lon="7.25231">
        <ele>256.9</ele>
        <time>2019-08-16T08:50:41Z</time>
      </trkpt>
      <trkpt lat="47.78859" lon="7.2524">
        <ele>256.9</ele>
        <time>2019-08-16T08:50:42Z</time>
      </trkpt>
      <trkpt lat="47.78857" lon="7.25249">
        <ele>256.9</ele>
        <time>2019-08-16T08:50:43Z</time>
      </trkpt>
      <trkpt lat="47.78855" lon="7.25257">
        <ele>256.9</ele>
        <time>2019-08-16T08:50:44Z</time>
      </trkpt>
      <trkpt lat="47.78852" lon="7.25265">
        <ele>257</ele>
        <time>2019-08-16T08:50:45Z</time>
      </trkpt>
      <trkpt lat="47.7885" lon="7.25272">
        <ele>257</ele>
        <time>2019-08-16T08:50:46Z</time>
      </trkpt>
      <trkpt lat="47.78848" lon="7.2528">
        <ele>257</ele>
        <time>2019-08-16T08:50:47Z</time>
      </trkpt>
      <trkpt lat="47.78844" lon="7.2529">
        <ele>257.2</ele>
        <time>2019-08-16T08:50:48Z</time>
      </trkpt>
      <trkpt lat="47.78841" lon="7.25298">
        <ele>257.4</ele>
        <time>2019-08-16T08:50:49Z</time>
      </trkpt>
      <trkpt lat="47.78837" lon="7.25307">
        <ele>257.5</ele>
        <time>2019-08-16T08:50:50Z</time>
      </trkpt>
      <trkpt lat="47.78835" lon="7.25314">
        <ele>257.6</ele>
        <time>2019-08-16T08:50:51Z</time>
      </trkpt>
      <trkpt lat="47.78832" lon="7.25322">
        <ele>257.7</ele>
        <time>2019-08-16T08:50:52Z</time>
      </trkpt>
      <trkpt lat="47.78829" lon="7.25329">
        <ele>257.8</ele>
        <time>2019-08-16T08:50:53Z</time>
      </trkpt>
      <trkpt lat="47.78826" lon="7.25337">
        <ele>257.8</ele>
        <time>2019-08-16T08:50:54Z</time>
      </trkpt>
      <trkpt lat="47.78823" lon="7.25346">
        <ele>257.8</ele>
        <time>2019-08-16T08:50:55Z</time>
      </trkpt>
      <trkpt lat="47.7882" lon="7.25354">
        <ele>257.8</ele>
        <time>2019-08-16T08:50:56Z</time>
      </trkpt>
      <trkpt lat="47.78818" lon="7.25362">
        <ele>257.8</ele>
        <time>2019-08-16T08:50:57Z</time>
      </trkpt>
      <trkpt lat="47.78815" lon="7.25368">
        <ele>257.8</ele>
        <time>2019-08-16T08:50:58Z</time>
      </trkpt>
      <trkpt lat="47.78812" lon="7.25376">
        <ele>257.9</ele>
        <time>2019-08-16T08:50:59Z</time>
      </trkpt>
      <trkpt lat="47.78809" lon="7.25383">
        <ele>257.9</ele>
        <time>2019-08-16T08:51:00Z</time>
      </trkpt>
      <trkpt lat="47.78806" lon="7.25391">
        <ele>257.9</ele>
        <time>2019-08-16T08:51:01Z</time>
      </trkpt>
      <trkpt lat="47.78803" lon="7.254">
        <ele>257.9</ele>
        <time>2019-08-16T08:51:02Z</time>
      </trkpt>
      <trkpt lat="47.78801" lon="7.25409">
        <ele>257.9</ele>
        <time>2019-08-16T08:51:03Z</time>
      </trkpt>
      <trkpt lat="47.78798" lon="7.25418">
        <ele>257.9</ele>
        <time>2019-08-16T08:51:04Z</time>
      </trkpt>
      <trkpt lat="47.78796" lon="7.25426">
        <ele>257.9</ele>
        <time>2019-08-16T08:51:05Z</time>
      </trkpt>
      <trkpt lat="47.78794" lon="7.25434">
        <ele>257.9</ele>
        <time>2019-08-16T08:51:06Z</time>
      </trkpt>
      <trkpt lat="47.78791" lon="7.25443">
        <ele>257.9</ele>
        <time>2019-08-16T08:51:07Z</time>
      </trkpt>
      <trkpt lat="47.78789" lon="7.25452">
        <ele>257.8</ele>
        <time>2019-08-16T08:51:08Z</time>
      </trkpt>
      <trkpt lat="47.78787" lon="7.25461">
        <ele>257.8</ele>
        <time>2019-08-16T08:51:09Z</time>
      </trkpt>
      <trkpt lat="47.78784" lon="7.25469">
        <ele>257.8</ele>
        <time>2019-08-16T08:51:10Z</time>
      </trkpt>
      <trkpt lat="47.78782" lon="7.25478">
        <ele>257.7</ele>
        <time>2019-08-16T08:51:11Z</time>
      </trkpt>
      <trkpt lat="47.7878" lon="7.25488">
        <ele>257.7</ele>
        <time>2019-08-16T08:51:12Z</time>
      </trkpt>
      <trkpt lat="47.78778" lon="7.25496">
        <ele>257.6</ele>
        <time>2019-08-16T08:51:13Z</time>
      </trkpt>
      <trkpt lat="47.78776" lon="7.25503">
        <ele>257.5</ele>
        <time>2019-08-16T08:51:14Z</time>
      </trkpt>
      <trkpt lat="47.78775" lon="7.25509">
        <ele>257.5</ele>
        <time>2019-08-16T08:51:15Z</time>
      </trkpt>
      <trkpt lat="47.78773" lon="7.25517">
        <ele>257.4</ele>
        <time>2019-08-16T08:51:16Z</time>
      </trkpt>
      <trkpt lat="47.78771" lon="7.25523">
        <ele>257.3</ele>
        <time>2019-08-16T08:51:17Z</time>
      </trkpt>
      <trkpt lat="47.78769" lon="7.25531">
        <ele>257.2</ele>
        <time>2019-08-16T08:51:18Z</time>
      </trkpt>
      <trkpt lat="47.78766" lon="7.25539">
        <ele>257.2</ele>
        <time>2019-08-16T08:51:19Z</time>
      </trkpt>
      <trkpt lat="47.78764" lon="7.25547">
        <ele>257.1</ele>
        <time>2019-08-16T08:51:20Z</time>
      </trkpt>
      <trkpt lat="47.78761" lon="7.25555">
        <ele>257.1</ele>
        <time>2019-08-16T08:51:21Z</time>
      </trkpt>
      <trkpt lat="47.78759" lon="7.25565">
        <ele>257.1</ele>
        <time>2019-08-16T08:51:22Z</time>
      </trkpt>
      <trkpt lat="47.78757" lon="7.25575">
        <ele>257.1</ele>
        <time>2019-08-16T08:51:23Z</time>
      </trkpt>
      <trkpt lat="47.78755" lon="7.25584">
        <ele>257.1</ele>
        <time>2019-08-16T08:51:24Z</time>
      </trkpt>
      <trkpt lat="47.78753" lon="7.25592">
        <ele>257.1</ele>
        <time>2019-08-16T08:51:25Z</time>
      </trkpt>
      <trkpt lat="47.78751" lon="7.256">
        <ele>257.1</ele>
        <time>2019-08-16T08:51:26Z</time>
      </trkpt>
      <trkpt lat="47.78748" lon="7.25608">
        <ele>257.1</ele>
        <time>2019-08-16T08:51:27Z</time>
      </trkpt>
      <trkpt lat="47.78746" lon="7.25615">
        <ele>257.1</ele>
        <time>2019-08-16T08:51:28Z</time>
      </trkpt>
      <trkpt lat="47.78744" lon="7.25623">
        <ele>257.1</ele>
        <time>2019-08-16T08:51:29Z</time>
      </trkpt>
      <trkpt lat="47.78741" lon="7.2563">
        <ele>257.1</ele>
        <time>2019-08-16T08:51:30Z</time>
      </trkpt>
      <trkpt lat="47.78739" lon="7.25639">
        <ele>257.1</ele>
        <time>2019-08-16T08:51:31Z</time>
      </trkpt>
      <trkpt lat="47.78736" lon="7.25646">
        <ele>257.1</ele>
        <time>2019-08-16T08:51:32Z</time>
      </trkpt>
      <trkpt lat="47.78734" lon="7.25653">
        <ele>257.1</ele>
        <time>2019-08-16T08:51:33Z</time>
      </trkpt>
      <trkpt lat="47.78731" lon="7.2566">
        <ele>257.1</ele>
        <time>2019-08-16T08:51:34Z</time>
      </trkpt>
      <trkpt lat="47.78729" lon="7.25667">
        <ele>257.1</ele>
        <time>2019-08-16T08:51:35Z</time>
      </trkpt>
      <trkpt lat="47.78726" lon="7.25674">
        <ele>257</ele>
        <time>2019-08-16T08:51:36Z</time>
      </trkpt>
      <trkpt lat="47.78724" lon="7.25681">
        <ele>257</ele>
        <time>2019-08-16T08:51:37Z</time>
      </trkpt>
      <trkpt lat="47.78721" lon="7.25687">
        <ele>257</ele>
        <time>2019-08-16T08:51:38Z</time>
      </trkpt>
      <trkpt lat="47.78718" lon="7.25693">
        <ele>256.9</ele>
        <time>2019-08-16T08:51:39Z</time>
      </trkpt>
      <trkpt lat="47.78714" lon="7.25699">
        <ele>256.9</ele>
        <time>2019-08-16T08:51:40Z</time>
      </trkpt>
      <trkpt lat="47.7871" lon="7.25705">
        <ele>256.9</ele>
        <time>2019-08-16T08:51:41Z</time>
      </trkpt>
      <trkpt lat="47.78707" lon="7.25711">
        <ele>256.8</ele>
        <time>2019-08-16T08:51:42Z</time>
      </trkpt>
      <trkpt lat="47.78703" lon="7.25716">
        <ele>256.8</ele>
        <time>2019-08-16T08:51:43Z</time>
      </trkpt>
      <trkpt lat="47.78699" lon="7.25721">
        <ele>256.7</ele>
        <time>2019-08-16T08:51:44Z</time>
      </trkpt>
      <trkpt lat="47.78695" lon="7.25726">
        <ele>256.7</ele>
        <time>2019-08-16T08:51:45Z</time>
      </trkpt>
      <trkpt lat="47.78692" lon="7.2573">
        <ele>256.6</ele>
        <time>2019-08-16T08:51:46Z</time>
      </trkpt>
      <trkpt lat="47.78688" lon="7.25735">
        <ele>256.5</ele>
        <time>2019-08-16T08:51:47Z</time>
      </trkpt>
      <trkpt lat="47.78685" lon="7.25739">
        <ele>256.5</ele>
        <time>2019-08-16T08:51:48Z</time>
      </trkpt>
      <trkpt lat="47.78681" lon="7.25744">
        <ele>256.4</ele>
        <time>2019-08-16T08:51:49Z</time>
      </trkpt>
      <trkpt lat="47.78678" lon="7.25748">
        <ele>256.3</ele>
        <time>2019-08-16T08:51:50Z</time>
      </trkpt>
      <trkpt lat="47.78673" lon="7.25753">
        <ele>256.3</ele>
        <time>2019-08-16T08:51:51Z</time>
      </trkpt>
      <trkpt lat="47.7867" lon="7.25758">
        <ele>256.2</ele>
        <time>2019-08-16T08:51:52Z</time>
      </trkpt>
      <trkpt lat="47.78668" lon="7.25762">
        <ele>256.2</ele>
        <time>2019-08-16T08:51:53Z</time>
      </trkpt>
      <trkpt lat="47.78665" lon="7.25766">
        <ele>256.1</ele>
        <time>2019-08-16T08:51:54Z</time>
      </trkpt>
      <trkpt lat="47.78663" lon="7.25769">
        <ele>256.1</ele>
        <time>2019-08-16T08:51:55Z</time>
      </trkpt>
      <trkpt lat="47.78658" lon="7.25769">
        <ele>256</ele>
        <time>2019-08-16T08:51:57Z</time>
      </trkpt>
      <trkpt lat="47.78655" lon="7.25768">
        <ele>256</ele>
        <time>2019-08-16T08:51:59Z</time>
      </trkpt>
      <trkpt lat="47.78654" lon="7.25764">
        <ele>256</ele>
        <time>2019-08-16T08:52:07Z</time>
      </trkpt>
      <trkpt lat="47.78654" lon="7.25769">
        <ele>256</ele>
        <time>2019-08-16T08:52:09Z</time>
      </trkpt>
      <trkpt lat="47.78651" lon="7.25771">
        <ele>256</ele>
        <time>2019-08-16T08:52:42Z</time>
      </trkpt>
      <trkpt lat="47.78648" lon="7.25775">
        <ele>255.9</ele>
        <time>2019-08-16T08:52:44Z</time>
      </trkpt>
      <trkpt lat="47.78644" lon="7.25779">
        <ele>255.9</ele>
        <time>2019-08-16T08:52:46Z</time>
      </trkpt>
      <trkpt lat="47.78642" lon="7.25786">
        <ele>255.9</ele>
        <time>2019-08-16T08:52:48Z</time>
      </trkpt>
      <trkpt lat="47.78641" lon="7.25791">
        <ele>255.7</ele>
        <time>2019-08-16T08:52:49Z</time>
      </trkpt>
      <trkpt lat="47.7864" lon="7.25797">
        <ele>255.7</ele>
        <time>2019-08-16T08:52:50Z</time>
      </trkpt>
      <trkpt lat="47.7864" lon="7.25803">
        <ele>255.6</ele>
        <time>2019-08-16T08:52:51Z</time>
      </trkpt>
      <trkpt lat="47.78641" lon="7.25809">
        <ele>255.6</ele>
        <time>2019-08-16T08:52:52Z</time>
      </trkpt>
      <trkpt lat="47.78641" lon="7.25815">
        <ele>255.6</ele>
        <time>2019-08-16T08:52:53Z</time>
      </trkpt>
      <trkpt lat="47.7864" lon="7.25821">
        <ele>255.5</ele>
        <time>2019-08-16T08:52:54Z</time>
      </trkpt>
      <trkpt lat="47.7864" lon="7.25827">
        <ele>255.5</ele>
        <time>2019-08-16T08:52:55Z</time>
      </trkpt>
      <trkpt lat="47.78638" lon="7.25834">
        <ele>255.4</ele>
        <time>2019-08-16T08:52:56Z</time>
      </trkpt>
      <trkpt lat="47.78637" lon="7.25841">
        <ele>255.4</ele>
        <time>2019-08-16T08:52:57Z</time>
      </trkpt>
      <trkpt lat="47.78635" lon="7.25847">
        <ele>255.3</ele>
        <time>2019-08-16T08:52:58Z</time>
      </trkpt>
      <trkpt lat="47.78634" lon="7.25854">
        <ele>255.3</ele>
        <time>2019-08-16T08:52:59Z</time>
      </trkpt>
      <trkpt lat="47.78632" lon="7.2586">
        <ele>255.2</ele>
        <time>2019-08-16T08:53:00Z</time>
      </trkpt>
      <trkpt lat="47.78631" lon="7.25866">
        <ele>255.1</ele>
        <time>2019-08-16T08:53:01Z</time>
      </trkpt>
      <trkpt lat="47.78629" lon="7.25872">
        <ele>255</ele>
        <time>2019-08-16T08:53:02Z</time>
      </trkpt>
      <trkpt lat="47.78627" lon="7.25878">
        <ele>254.9</ele>
        <time>2019-08-16T08:53:03Z</time>
      </trkpt>
      <trkpt lat="47.78625" lon="7.25884">
        <ele>254.9</ele>
        <time>2019-08-16T08:53:04Z</time>
      </trkpt>
      <trkpt lat="47.78623" lon="7.2589">
        <ele>254.9</ele>
        <time>2019-08-16T08:53:05Z</time>
      </trkpt>
      <trkpt lat="47.78621" lon="7.25896">
        <ele>255</ele>
        <time>2019-08-16T08:53:06Z</time>
      </trkpt>
      <trkpt lat="47.78619" lon="7.25902">
        <ele>255.1</ele>
        <time>2019-08-16T08:53:07Z</time>
      </trkpt>
      <trkpt lat="47.78617" lon="7.25907">
        <ele>255.1</ele>
        <time>2019-08-16T08:53:08Z</time>
      </trkpt>
      <trkpt lat="47.78613" lon="7.25912">
        <ele>255.2</ele>
        <time>2019-08-16T08:53:09Z</time>
      </trkpt>
      <trkpt lat="47.78609" lon="7.25917">
        <ele>255.3</ele>
        <time>2019-08-16T08:53:10Z</time>
      </trkpt>
      <trkpt lat="47.78606" lon="7.25922">
        <ele>255.3</ele>
        <time>2019-08-16T08:53:11Z</time>
      </trkpt>
      <trkpt lat="47.78603" lon="7.25928">
        <ele>255.3</ele>
        <time>2019-08-16T08:53:12Z</time>
      </trkpt>
      <trkpt lat="47.78599" lon="7.25933">
        <ele>255.3</ele>
        <time>2019-08-16T08:53:13Z</time>
      </trkpt>
      <trkpt lat="47.78595" lon="7.25938">
        <ele>255.3</ele>
        <time>2019-08-16T08:53:14Z</time>
      </trkpt>
      <trkpt lat="47.78591" lon="7.25943">
        <ele>255.3</ele>
        <time>2019-08-16T08:53:15Z</time>
      </trkpt>
      <trkpt lat="47.78589" lon="7.25948">
        <ele>255.3</ele>
        <time>2019-08-16T08:53:16Z</time>
      </trkpt>
      <trkpt lat="47.78586" lon="7.25952">
        <ele>255.3</ele>
        <time>2019-08-16T08:53:17Z</time>
      </trkpt>
      <trkpt lat="47.78583" lon="7.25955">
        <ele>255.3</ele>
        <time>2019-08-16T08:53:18Z</time>
      </trkpt>
      <trkpt lat="47.7858" lon="7.25959">
        <ele>255.3</ele>
        <time>2019-08-16T08:53:19Z</time>
      </trkpt>
      <trkpt lat="47.78578" lon="7.25964">
        <ele>255.3</ele>
        <time>2019-08-16T08:53:20Z</time>
      </trkpt>
      <trkpt lat="47.78575" lon="7.25968">
        <ele>255.3</ele>
        <time>2019-08-16T08:53:21Z</time>
      </trkpt>
      <trkpt lat="47.78572" lon="7.25972">
        <ele>255.2</ele>
        <time>2019-08-16T08:53:22Z</time>
      </trkpt>
      <trkpt lat="47.78569" lon="7.25976">
        <ele>255.1</ele>
        <time>2019-08-16T08:53:23Z</time>
      </trkpt>
      <trkpt lat="47.78566" lon="7.25979">
        <ele>255</ele>
        <time>2019-08-16T08:53:24Z</time>
      </trkpt>
      <trkpt lat="47.78563" lon="7.25983">
        <ele>254.9</ele>
        <time>2019-08-16T08:53:25Z</time>
      </trkpt>
      <trkpt lat="47.7856" lon="7.25986">
        <ele>254.8</ele>
        <time>2019-08-16T08:53:26Z</time>
      </trkpt>
      <trkpt lat="47.78557" lon="7.2599">
        <ele>254.7</ele>
        <time>2019-08-16T08:53:27Z</time>
      </trkpt>
      <trkpt lat="47.78554" lon="7.25993">
        <ele>254.6</ele>
        <time>2019-08-16T08:53:28Z</time>
      </trkpt>
      <trkpt lat="47.78551" lon="7.25997">
        <ele>254.6</ele>
        <time>2019-08-16T08:53:29Z</time>
      </trkpt>
      <trkpt lat="47.78547" lon="7.26001">
        <ele>254.5</ele>
        <time>2019-08-16T08:53:30Z</time>
      </trkpt>
      <trkpt lat="47.78544" lon="7.26004">
        <ele>254.5</ele>
        <time>2019-08-16T08:53:31Z</time>
      </trkpt>
      <trkpt lat="47.78541" lon="7.26008">
        <ele>254.5</ele>
        <time>2019-08-16T08:53:32Z</time>
      </trkpt>
      <trkpt lat="47.78538" lon="7.26011">
        <ele>254.5</ele>
        <time>2019-08-16T08:53:33Z</time>
      </trkpt>
      <trkpt lat="47.78535" lon="7.26015">
        <ele>254.5</ele>
        <time>2019-08-16T08:53:34Z</time>
      </trkpt>
      <trkpt lat="47.78532" lon="7.26018">
        <ele>254.5</ele>
        <time>2019-08-16T08:53:35Z</time>
      </trkpt>
      <trkpt lat="47.78529" lon="7.2602">
        <ele>254.5</ele>
        <time>2019-08-16T08:53:36Z</time>
      </trkpt>
      <trkpt lat="47.78526" lon="7.26026">
        <ele>254.5</ele>
        <time>2019-08-16T08:53:38Z</time>
      </trkpt>
      <trkpt lat="47.78524" lon="7.2603">
        <ele>254.5</ele>
        <time>2019-08-16T08:53:39Z</time>
      </trkpt>
      <trkpt lat="47.78521" lon="7.26034">
        <ele>254.4</ele>
        <time>2019-08-16T08:53:40Z</time>
      </trkpt>
      <trkpt lat="47.78518" lon="7.26037">
        <ele>254.4</ele>
        <time>2019-08-16T08:53:41Z</time>
      </trkpt>
      <trkpt lat="47.78515" lon="7.26041">
        <ele>254.4</ele>
        <time>2019-08-16T08:53:42Z</time>
      </trkpt>
      <trkpt lat="47.78512" lon="7.26043">
        <ele>254.4</ele>
        <time>2019-08-16T08:53:43Z</time>
      </trkpt>
      <trkpt lat="47.7851" lon="7.26047">
        <ele>254.4</ele>
        <time>2019-08-16T08:53:44Z</time>
      </trkpt>
      <trkpt lat="47.78507" lon="7.26052">
        <ele>254.4</ele>
        <time>2019-08-16T08:53:45Z</time>
      </trkpt>
      <trkpt lat="47.78505" lon="7.26057">
        <ele>254.4</ele>
        <time>2019-08-16T08:53:46Z</time>
      </trkpt>
      <trkpt lat="47.78502" lon="7.26063">
        <ele>254.4</ele>
        <time>2019-08-16T08:53:47Z</time>
      </trkpt>
      <trkpt lat="47.78499" lon="7.26068">
        <ele>254.4</ele>
        <time>2019-08-16T08:53:48Z</time>
      </trkpt>
      <trkpt lat="47.78496" lon="7.26074">
        <ele>254.5</ele>
        <time>2019-08-16T08:53:49Z</time>
      </trkpt>
      <trkpt lat="47.78495" lon="7.26079">
        <ele>254.5</ele>
        <time>2019-08-16T08:53:50Z</time>
      </trkpt>
      <trkpt lat="47.78492" lon="7.26085">
        <ele>254.6</ele>
        <time>2019-08-16T08:53:51Z</time>
      </trkpt>
      <trkpt lat="47.78489" lon="7.2609">
        <ele>254.6</ele>
        <time>2019-08-16T08:53:52Z</time>
      </trkpt>
      <trkpt lat="47.78487" lon="7.26095">
        <ele>254.7</ele>
        <time>2019-08-16T08:53:53Z</time>
      </trkpt>
      <trkpt lat="47.78484" lon="7.261">
        <ele>254.8</ele>
        <time>2019-08-16T08:53:54Z</time>
      </trkpt>
      <trkpt lat="47.78482" lon="7.26106">
        <ele>255</ele>
        <time>2019-08-16T08:53:55Z</time>
      </trkpt>
      <trkpt lat="47.7848" lon="7.26111">
        <ele>255.1</ele>
        <time>2019-08-16T08:53:56Z</time>
      </trkpt>
      <trkpt lat="47.78477" lon="7.26115">
        <ele>255.2</ele>
        <time>2019-08-16T08:53:57Z</time>
      </trkpt>
      <trkpt lat="47.78476" lon="7.2612">
        <ele>255.2</ele>
        <time>2019-08-16T08:53:58Z</time>
      </trkpt>
      <trkpt lat="47.78473" lon="7.26125">
        <ele>255.3</ele>
        <time>2019-08-16T08:53:59Z</time>
      </trkpt>
      <trkpt lat="47.78472" lon="7.26131">
        <ele>255.3</ele>
        <time>2019-08-16T08:54:00Z</time>
      </trkpt>
      <trkpt lat="47.78471" lon="7.26136">
        <ele>255.3</ele>
        <time>2019-08-16T08:54:01Z</time>
      </trkpt>
      <trkpt lat="47.7847" lon="7.26141">
        <ele>255.3</ele>
        <time>2019-08-16T08:54:02Z</time>
      </trkpt>
      <trkpt lat="47.78468" lon="7.26146">
        <ele>255.3</ele>
        <time>2019-08-16T08:54:03Z</time>
      </trkpt>
      <trkpt lat="47.78466" lon="7.2615">
        <ele>255.3</ele>
        <time>2019-08-16T08:54:04Z</time>
      </trkpt>
      <trkpt lat="47.78466" lon="7.26154">
        <ele>255.2</ele>
        <time>2019-08-16T08:54:05Z</time>
      </trkpt>
      <trkpt lat="47.78465" lon="7.26159">
        <ele>255.2</ele>
        <time>2019-08-16T08:54:06Z</time>
      </trkpt>
      <trkpt lat="47.78465" lon="7.26163">
        <ele>255.2</ele>
        <time>2019-08-16T08:54:07Z</time>
      </trkpt>
      <trkpt lat="47.78464" lon="7.26169">
        <ele>255.1</ele>
        <time>2019-08-16T08:54:08Z</time>
      </trkpt>
      <trkpt lat="47.78463" lon="7.26174">
        <ele>255.1</ele>
        <time>2019-08-16T08:54:09Z</time>
      </trkpt>
      <trkpt lat="47.78461" lon="7.2618">
        <ele>255</ele>
        <time>2019-08-16T08:54:10Z</time>
      </trkpt>
      <trkpt lat="47.7846" lon="7.26186">
        <ele>255</ele>
        <time>2019-08-16T08:54:11Z</time>
      </trkpt>
      <trkpt lat="47.78459" lon="7.26191">
        <ele>254.9</ele>
        <time>2019-08-16T08:54:12Z</time>
      </trkpt>
      <trkpt lat="47.78459" lon="7.26197">
        <ele>254.9</ele>
        <time>2019-08-16T08:54:13Z</time>
      </trkpt>
      <trkpt lat="47.78459" lon="7.26203">
        <ele>254.8</ele>
        <time>2019-08-16T08:54:14Z</time>
      </trkpt>
      <trkpt lat="47.7846" lon="7.26209">
        <ele>254.8</ele>
        <time>2019-08-16T08:54:15Z</time>
      </trkpt>
      <trkpt lat="47.7846" lon="7.26215">
        <ele>254.8</ele>
        <time>2019-08-16T08:54:16Z</time>
      </trkpt>
      <trkpt lat="47.7846" lon="7.26221">
        <ele>254.8</ele>
        <time>2019-08-16T08:54:17Z</time>
      </trkpt>
      <trkpt lat="47.78461" lon="7.26227">
        <ele>254.6</ele>
        <time>2019-08-16T08:54:18Z</time>
      </trkpt>
      <trkpt lat="47.78461" lon="7.26232">
        <ele>254.6</ele>
        <time>2019-08-16T08:54:19Z</time>
      </trkpt>
      <trkpt lat="47.78461" lon="7.26239">
        <ele>254.6</ele>
        <time>2019-08-16T08:54:21Z</time>
      </trkpt>
      <trkpt lat="47.7846" lon="7.26246">
        <ele>254.5</ele>
        <time>2019-08-16T08:54:23Z</time>
      </trkpt>
      <trkpt lat="47.78459" lon="7.2625">
        <ele>254.5</ele>
        <time>2019-08-16T08:54:24Z</time>
      </trkpt>
      <trkpt lat="47.78457" lon="7.26256">
        <ele>254.3</ele>
        <time>2019-08-16T08:54:25Z</time>
      </trkpt>
      <trkpt lat="47.78456" lon="7.26263">
        <ele>254.4</ele>
        <time>2019-08-16T08:54:26Z</time>
      </trkpt>
      <trkpt lat="47.78456" lon="7.26269">
        <ele>254.4</ele>
        <time>2019-08-16T08:54:27Z</time>
      </trkpt>
      <trkpt lat="47.78455" lon="7.26277">
        <ele>254.4</ele>
        <time>2019-08-16T08:54:28Z</time>
      </trkpt>
      <trkpt lat="47.78455" lon="7.26284">
        <ele>254.5</ele>
        <time>2019-08-16T08:54:29Z</time>
      </trkpt>
      <trkpt lat="47.78454" lon="7.2629">
        <ele>254.5</ele>
        <time>2019-08-16T08:54:30Z</time>
      </trkpt>
      <trkpt lat="47.78453" lon="7.26298">
        <ele>254.6</ele>
        <time>2019-08-16T08:54:31Z</time>
      </trkpt>
      <trkpt lat="47.78452" lon="7.26306">
        <ele>254.6</ele>
        <time>2019-08-16T08:54:32Z</time>
      </trkpt>
      <trkpt lat="47.78452" lon="7.26314">
        <ele>254.6</ele>
        <time>2019-08-16T08:54:33Z</time>
      </trkpt>
      <trkpt lat="47.7845" lon="7.26324">
        <ele>254.7</ele>
        <time>2019-08-16T08:54:34Z</time>
      </trkpt>
      <trkpt lat="47.78448" lon="7.26333">
        <ele>254.7</ele>
        <time>2019-08-16T08:54:35Z</time>
      </trkpt>
      <trkpt lat="47.78447" lon="7.26343">
        <ele>254.7</ele>
        <time>2019-08-16T08:54:36Z</time>
      </trkpt>
      <trkpt lat="47.78446" lon="7.26353">
        <ele>254.8</ele>
        <time>2019-08-16T08:54:37Z</time>
      </trkpt>
      <trkpt lat="47.78444" lon="7.26364">
        <ele>254.8</ele>
        <time>2019-08-16T08:54:38Z</time>
      </trkpt>
      <trkpt lat="47.78442" lon="7.26373">
        <ele>254.7</ele>
        <time>2019-08-16T08:54:39Z</time>
      </trkpt>
      <trkpt lat="47.78441" lon="7.26382">
        <ele>254.7</ele>
        <time>2019-08-16T08:54:40Z</time>
      </trkpt>
      <trkpt lat="47.7844" lon="7.26392">
        <ele>254.7</ele>
        <time>2019-08-16T08:54:41Z</time>
      </trkpt>
      <trkpt lat="47.78439" lon="7.26401">
        <ele>254.6</ele>
        <time>2019-08-16T08:54:42Z</time>
      </trkpt>
      <trkpt lat="47.78438" lon="7.26411">
        <ele>254.6</ele>
        <time>2019-08-16T08:54:43Z</time>
      </trkpt>
      <trkpt lat="47.78438" lon="7.26422">
        <ele>254.6</ele>
        <time>2019-08-16T08:54:44Z</time>
      </trkpt>
      <trkpt lat="47.78436" lon="7.26433">
        <ele>254.5</ele>
        <time>2019-08-16T08:54:45Z</time>
      </trkpt>
      <trkpt lat="47.78434" lon="7.26444">
        <ele>254.5</ele>
        <time>2019-08-16T08:54:46Z</time>
      </trkpt>
      <trkpt lat="47.78432" lon="7.26455">
        <ele>254.4</ele>
        <time>2019-08-16T08:54:47Z</time>
      </trkpt>
      <trkpt lat="47.78431" lon="7.26466">
        <ele>254.4</ele>
        <time>2019-08-16T08:54:48Z</time>
      </trkpt>
      <trkpt lat="47.78429" lon="7.26477">
        <ele>254.3</ele>
        <time>2019-08-16T08:54:49Z</time>
      </trkpt>
      <trkpt lat="47.78428" lon="7.26487">
        <ele>254.3</ele>
        <time>2019-08-16T08:54:50Z</time>
      </trkpt>
      <trkpt lat="47.78427" lon="7.26496">
        <ele>254.2</ele>
        <time>2019-08-16T08:54:51Z</time>
      </trkpt>
      <trkpt lat="47.78427" lon="7.26507">
        <ele>254.2</ele>
        <time>2019-08-16T08:54:52Z</time>
      </trkpt>
      <trkpt lat="47.78426" lon="7.26517">
        <ele>254.1</ele>
        <time>2019-08-16T08:54:53Z</time>
      </trkpt>
      <trkpt lat="47.78425" lon="7.26526">
        <ele>254.1</ele>
        <time>2019-08-16T08:54:54Z</time>
      </trkpt>
      <trkpt lat="47.78423" lon="7.26536">
        <ele>254</ele>
        <time>2019-08-16T08:54:55Z</time>
      </trkpt>
      <trkpt lat="47.78421" lon="7.26545">
        <ele>253.9</ele>
        <time>2019-08-16T08:54:56Z</time>
      </trkpt>
      <trkpt lat="47.7842" lon="7.26558">
        <ele>253.8</ele>
        <time>2019-08-16T08:54:57Z</time>
      </trkpt>
      <trkpt lat="47.7842" lon="7.26571">
        <ele>253.7</ele>
        <time>2019-08-16T08:54:58Z</time>
      </trkpt>
      <trkpt lat="47.78419" lon="7.26584">
        <ele>253.6</ele>
        <time>2019-08-16T08:54:59Z</time>
      </trkpt>
      <trkpt lat="47.78418" lon="7.26596">
        <ele>253.5</ele>
        <time>2019-08-16T08:55:00Z</time>
      </trkpt>
      <trkpt lat="47.78417" lon="7.26607">
        <ele>253.4</ele>
        <time>2019-08-16T08:55:01Z</time>
      </trkpt>
      <trkpt lat="47.78416" lon="7.26618">
        <ele>253.3</ele>
        <time>2019-08-16T08:55:02Z</time>
      </trkpt>
      <trkpt lat="47.78414" lon="7.26628">
        <ele>253.2</ele>
        <time>2019-08-16T08:55:03Z</time>
      </trkpt>
      <trkpt lat="47.78412" lon="7.26638">
        <ele>253.2</ele>
        <time>2019-08-16T08:55:04Z</time>
      </trkpt>
      <trkpt lat="47.78409" lon="7.26648">
        <ele>253.1</ele>
        <time>2019-08-16T08:55:05Z</time>
      </trkpt>
      <trkpt lat="47.78407" lon="7.26657">
        <ele>253.1</ele>
        <time>2019-08-16T08:55:06Z</time>
      </trkpt>
      <trkpt lat="47.78406" lon="7.26667">
        <ele>253.1</ele>
        <time>2019-08-16T08:55:07Z</time>
      </trkpt>
      <trkpt lat="47.78404" lon="7.26676">
        <ele>253</ele>
        <time>2019-08-16T08:55:08Z</time>
      </trkpt>
      <trkpt lat="47.78403" lon="7.26686">
        <ele>253</ele>
        <time>2019-08-16T08:55:09Z</time>
      </trkpt>
      <trkpt lat="47.78403" lon="7.26695">
        <ele>253</ele>
        <time>2019-08-16T08:55:10Z</time>
      </trkpt>
      <trkpt lat="47.78401" lon="7.26704">
        <ele>252.9</ele>
        <time>2019-08-16T08:55:11Z</time>
      </trkpt>
      <trkpt lat="47.78401" lon="7.26713">
        <ele>252.8</ele>
        <time>2019-08-16T08:55:12Z</time>
      </trkpt>
      <trkpt lat="47.78399" lon="7.26721">
        <ele>252.8</ele>
        <time>2019-08-16T08:55:13Z</time>
      </trkpt>
      <trkpt lat="47.78398" lon="7.26729">
        <ele>252.7</ele>
        <time>2019-08-16T08:55:14Z</time>
      </trkpt>
      <trkpt lat="47.78397" lon="7.26736">
        <ele>252.7</ele>
        <time>2019-08-16T08:55:15Z</time>
      </trkpt>
      <trkpt lat="47.78395" lon="7.26746">
        <ele>252.5</ele>
        <time>2019-08-16T08:55:16Z</time>
      </trkpt>
      <trkpt lat="47.78394" lon="7.26756">
        <ele>252.4</ele>
        <time>2019-08-16T08:55:17Z</time>
      </trkpt>
      <trkpt lat="47.78393" lon="7.26766">
        <ele>252.4</ele>
        <time>2019-08-16T08:55:18Z</time>
      </trkpt>
      <trkpt lat="47.78391" lon="7.26775">
        <ele>252.3</ele>
        <time>2019-08-16T08:55:19Z</time>
      </trkpt>
      <trkpt lat="47.7839" lon="7.26783">
        <ele>252.3</ele>
        <time>2019-08-16T08:55:20Z</time>
      </trkpt>
      <trkpt lat="47.78388" lon="7.26791">
        <ele>252.3</ele>
        <time>2019-08-16T08:55:21Z</time>
      </trkpt>
      <trkpt lat="47.78387" lon="7.26797">
        <ele>252.3</ele>
        <time>2019-08-16T08:55:22Z</time>
      </trkpt>
      <trkpt lat="47.78386" lon="7.26802">
        <ele>252.3</ele>
        <time>2019-08-16T08:55:23Z</time>
      </trkpt>
      <trkpt lat="47.78383" lon="7.26809">
        <ele>252.2</ele>
        <time>2019-08-16T08:55:24Z</time>
      </trkpt>
      <trkpt lat="47.78381" lon="7.26816">
        <ele>252.2</ele>
        <time>2019-08-16T08:55:25Z</time>
      </trkpt>
      <trkpt lat="47.78379" lon="7.26823">
        <ele>252.2</ele>
        <time>2019-08-16T08:55:26Z</time>
      </trkpt>
      <trkpt lat="47.78376" lon="7.2683">
        <ele>252.1</ele>
        <time>2019-08-16T08:55:27Z</time>
      </trkpt>
      <trkpt lat="47.78374" lon="7.26838">
        <ele>252.1</ele>
        <time>2019-08-16T08:55:28Z</time>
      </trkpt>
      <trkpt lat="47.78372" lon="7.26845">
        <ele>252.1</ele>
        <time>2019-08-16T08:55:29Z</time>
      </trkpt>
      <trkpt lat="47.7837" lon="7.26852">
        <ele>252</ele>
        <time>2019-08-16T08:55:30Z</time>
      </trkpt>
      <trkpt lat="47.78367" lon="7.26859">
        <ele>252</ele>
        <time>2019-08-16T08:55:31Z</time>
      </trkpt>
      <trkpt lat="47.78365" lon="7.26865">
        <ele>252</ele>
        <time>2019-08-16T08:55:32Z</time>
      </trkpt>
      <trkpt lat="47.78363" lon="7.26872">
        <ele>252</ele>
        <time>2019-08-16T08:55:33Z</time>
      </trkpt>
      <trkpt lat="47.78361" lon="7.2688">
        <ele>252</ele>
        <time>2019-08-16T08:55:34Z</time>
      </trkpt>
      <trkpt lat="47.78358" lon="7.26886">
        <ele>252</ele>
        <time>2019-08-16T08:55:35Z</time>
      </trkpt>
      <trkpt lat="47.78356" lon="7.26893">
        <ele>251.9</ele>
        <time>2019-08-16T08:55:36Z</time>
      </trkpt>
      <trkpt lat="47.78354" lon="7.26899">
        <ele>251.9</ele>
        <time>2019-08-16T08:55:37Z</time>
      </trkpt>
      <trkpt lat="47.78351" lon="7.26907">
        <ele>251.8</ele>
        <time>2019-08-16T08:55:38Z</time>
      </trkpt>
      <trkpt lat="47.78349" lon="7.26911">
        <ele>251.8</ele>
        <time>2019-08-16T08:55:39Z</time>
      </trkpt>
      <trkpt lat="47.78346" lon="7.26917">
        <ele>251.8</ele>
        <time>2019-08-16T08:55:40Z</time>
      </trkpt>
      <trkpt lat="47.78344" lon="7.26922">
        <ele>251.8</ele>
        <time>2019-08-16T08:55:41Z</time>
      </trkpt>
      <trkpt lat="47.78341" lon="7.26928">
        <ele>251.8</ele>
        <time>2019-08-16T08:55:42Z</time>
      </trkpt>
      <trkpt lat="47.78339" lon="7.26935">
        <ele>251.8</ele>
        <time>2019-08-16T08:55:43Z</time>
      </trkpt>
      <trkpt lat="47.78336" lon="7.2694">
        <ele>251.7</ele>
        <time>2019-08-16T08:55:44Z</time>
      </trkpt>
      <trkpt lat="47.78334" lon="7.26946">
        <ele>251.7</ele>
        <time>2019-08-16T08:55:45Z</time>
      </trkpt>
      <trkpt lat="47.78331" lon="7.26951">
        <ele>251.7</ele>
        <time>2019-08-16T08:55:46Z</time>
      </trkpt>
      <trkpt lat="47.78329" lon="7.26957">
        <ele>251.7</ele>
        <time>2019-08-16T08:55:47Z</time>
      </trkpt>
      <trkpt lat="47.78326" lon="7.26962">
        <ele>251.6</ele>
        <time>2019-08-16T08:55:48Z</time>
      </trkpt>
      <trkpt lat="47.78324" lon="7.26968">
        <ele>251.6</ele>
        <time>2019-08-16T08:55:49Z</time>
      </trkpt>
      <trkpt lat="47.78321" lon="7.26974">
        <ele>251.6</ele>
        <time>2019-08-16T08:55:50Z</time>
      </trkpt>
      <trkpt lat="47.78319" lon="7.26979">
        <ele>251.6</ele>
        <time>2019-08-16T08:55:51Z</time>
      </trkpt>
      <trkpt lat="47.78317" lon="7.26985">
        <ele>251.6</ele>
        <time>2019-08-16T08:55:52Z</time>
      </trkpt>
      <trkpt lat="47.78314" lon="7.26991">
        <ele>251.6</ele>
        <time>2019-08-16T08:55:53Z</time>
      </trkpt>
      <trkpt lat="47.78312" lon="7.26997">
        <ele>251.5</ele>
        <time>2019-08-16T08:55:54Z</time>
      </trkpt>
      <trkpt lat="47.78309" lon="7.27004">
        <ele>251.5</ele>
        <time>2019-08-16T08:55:55Z</time>
      </trkpt>
      <trkpt lat="47.78306" lon="7.27011">
        <ele>251.5</ele>
        <time>2019-08-16T08:55:56Z</time>
      </trkpt>
      <trkpt lat="47.78303" lon="7.27018">
        <ele>251.5</ele>
        <time>2019-08-16T08:55:57Z</time>
      </trkpt>
      <trkpt lat="47.783" lon="7.27024">
        <ele>251.5</ele>
        <time>2019-08-16T08:55:58Z</time>
      </trkpt>
      <trkpt lat="47.78298" lon="7.2703">
        <ele>251.5</ele>
        <time>2019-08-16T08:55:59Z</time>
      </trkpt>
      <trkpt lat="47.78296" lon="7.27036">
        <ele>251.5</ele>
        <time>2019-08-16T08:56:00Z</time>
      </trkpt>
      <trkpt lat="47.78295" lon="7.27042">
        <ele>251.5</ele>
        <time>2019-08-16T08:56:01Z</time>
      </trkpt>
      <trkpt lat="47.78293" lon="7.27047">
        <ele>251.5</ele>
        <time>2019-08-16T08:56:02Z</time>
      </trkpt>
      <trkpt lat="47.78292" lon="7.27051">
        <ele>251.5</ele>
        <time>2019-08-16T08:56:04Z</time>
      </trkpt>
      <trkpt lat="47.78291" lon="7.27055">
        <ele>251.5</ele>
        <time>2019-08-16T08:56:07Z</time>
      </trkpt>
      <trkpt lat="47.78294" lon="7.27058">
        <ele>251.5</ele>
        <time>2019-08-16T08:56:14Z</time>
      </trkpt>
      <trkpt lat="47.78292" lon="7.27061">
        <ele>251.6</ele>
        <time>2019-08-16T08:56:37Z</time>
      </trkpt>
      <trkpt lat="47.78289" lon="7.27066">
        <ele>251.6</ele>
        <time>2019-08-16T08:56:39Z</time>
      </trkpt>
      <trkpt lat="47.78286" lon="7.27074">
        <ele>251.6</ele>
        <time>2019-08-16T08:56:41Z</time>
      </trkpt>
      <trkpt lat="47.78285" lon="7.2708">
        <ele>251.6</ele>
        <time>2019-08-16T08:56:42Z</time>
      </trkpt>
      <trkpt lat="47.78284" lon="7.27085">
        <ele>251.6</ele>
        <time>2019-08-16T08:56:43Z</time>
      </trkpt>
      <trkpt lat="47.78282" lon="7.27089">
        <ele>251.6</ele>
        <time>2019-08-16T08:56:44Z</time>
      </trkpt>
      <trkpt lat="47.78281" lon="7.27095">
        <ele>251.6</ele>
        <time>2019-08-16T08:56:45Z</time>
      </trkpt>
      <trkpt lat="47.78279" lon="7.27099">
        <ele>251.7</ele>
        <time>2019-08-16T08:56:46Z</time>
      </trkpt>
      <trkpt lat="47.78277" lon="7.27104">
        <ele>251.7</ele>
        <time>2019-08-16T08:56:47Z</time>
      </trkpt>
      <trkpt lat="47.78274" lon="7.27108">
        <ele>251.7</ele>
        <time>2019-08-16T08:56:48Z</time>
      </trkpt>
      <trkpt lat="47.78272" lon="7.27112">
        <ele>251.6</ele>
        <time>2019-08-16T08:56:49Z</time>
      </trkpt>
      <trkpt lat="47.7827" lon="7.27117">
        <ele>251.6</ele>
        <time>2019-08-16T08:56:50Z</time>
      </trkpt>
      <trkpt lat="47.78268" lon="7.27121">
        <ele>251.6</ele>
        <time>2019-08-16T08:56:51Z</time>
      </trkpt>
      <trkpt lat="47.78266" lon="7.27127">
        <ele>251.5</ele>
        <time>2019-08-16T08:56:52Z</time>
      </trkpt>
      <trkpt lat="47.78263" lon="7.27133">
        <ele>251.4</ele>
        <time>2019-08-16T08:56:53Z</time>
      </trkpt>
      <trkpt lat="47.7826" lon="7.27139">
        <ele>251.3</ele>
        <time>2019-08-16T08:56:54Z</time>
      </trkpt>
      <trkpt lat="47.78258" lon="7.27145">
        <ele>251.2</ele>
        <time>2019-08-16T08:56:55Z</time>
      </trkpt>
      <trkpt lat="47.78255" lon="7.27151">
        <ele>251.2</ele>
        <time>2019-08-16T08:56:56Z</time>
      </trkpt>
      <trkpt lat="47.78253" lon="7.27157">
        <ele>251.1</ele>
        <time>2019-08-16T08:56:57Z</time>
      </trkpt>
      <trkpt lat="47.78251" lon="7.27162">
        <ele>251</ele>
        <time>2019-08-16T08:56:58Z</time>
      </trkpt>
      <trkpt lat="47.78249" lon="7.27169">
        <ele>250.8</ele>
        <time>2019-08-16T08:56:59Z</time>
      </trkpt>
      <trkpt lat="47.78247" lon="7.27176">
        <ele>250.7</ele>
        <time>2019-08-16T08:57:00Z</time>
      </trkpt>
      <trkpt lat="47.78245" lon="7.27181">
        <ele>250.6</ele>
        <time>2019-08-16T08:57:01Z</time>
      </trkpt>
      <trkpt lat="47.78243" lon="7.27186">
        <ele>250.4</ele>
        <time>2019-08-16T08:57:02Z</time>
      </trkpt>
      <trkpt lat="47.7824" lon="7.2719">
        <ele>250.3</ele>
        <time>2019-08-16T08:57:03Z</time>
      </trkpt>
      <trkpt lat="47.78238" lon="7.27197">
        <ele>250.2</ele>
        <time>2019-08-16T08:57:04Z</time>
      </trkpt>
      <trkpt lat="47.78236" lon="7.27203">
        <ele>250.1</ele>
        <time>2019-08-16T08:57:05Z</time>
      </trkpt>
      <trkpt lat="47.78233" lon="7.2721">
        <ele>250</ele>
        <time>2019-08-16T08:57:06Z</time>
      </trkpt>
      <trkpt lat="47.7823" lon="7.27216">
        <ele>249.9</ele>
        <time>2019-08-16T08:57:07Z</time>
      </trkpt>
      <trkpt lat="47.78227" lon="7.27224">
        <ele>249.9</ele>
        <time>2019-08-16T08:57:08Z</time>
      </trkpt>
      <trkpt lat="47.78225" lon="7.27232">
        <ele>249.8</ele>
        <time>2019-08-16T08:57:09Z</time>
      </trkpt>
      <trkpt lat="47.78223" lon="7.2724">
        <ele>249.7</ele>
        <time>2019-08-16T08:57:10Z</time>
      </trkpt>
      <trkpt lat="47.7822" lon="7.27248">
        <ele>249.6</ele>
        <time>2019-08-16T08:57:11Z</time>
      </trkpt>
      <trkpt lat="47.78218" lon="7.27256">
        <ele>249.6</ele>
        <time>2019-08-16T08:57:12Z</time>
      </trkpt>
      <trkpt lat="47.78215" lon="7.27263">
        <ele>249.5</ele>
        <time>2019-08-16T08:57:13Z</time>
      </trkpt>
      <trkpt lat="47.78213" lon="7.2727">
        <ele>249.5</ele>
        <time>2019-08-16T08:57:14Z</time>
      </trkpt>
      <trkpt lat="47.78211" lon="7.27277">
        <ele>249.4</ele>
        <time>2019-08-16T08:57:15Z</time>
      </trkpt>
      <trkpt lat="47.78208" lon="7.27283">
        <ele>249.4</ele>
        <time>2019-08-16T08:57:16Z</time>
      </trkpt>
      <trkpt lat="47.78206" lon="7.2729">
        <ele>249.4</ele>
        <time>2019-08-16T08:57:17Z</time>
      </trkpt>
      <trkpt lat="47.78203" lon="7.27298">
        <ele>249.3</ele>
        <time>2019-08-16T08:57:18Z</time>
      </trkpt>
      <trkpt lat="47.78201" lon="7.27304">
        <ele>249.3</ele>
        <time>2019-08-16T08:57:19Z</time>
      </trkpt>
      <trkpt lat="47.78198" lon="7.27311">
        <ele>249.3</ele>
        <time>2019-08-16T08:57:20Z</time>
      </trkpt>
      <trkpt lat="47.78195" lon="7.27318">
        <ele>249.3</ele>
        <time>2019-08-16T08:57:21Z</time>
      </trkpt>
      <trkpt lat="47.78192" lon="7.27326">
        <ele>249.3</ele>
        <time>2019-08-16T08:57:22Z</time>
      </trkpt>
      <trkpt lat="47.78189" lon="7.27333">
        <ele>249.2</ele>
        <time>2019-08-16T08:57:23Z</time>
      </trkpt>
      <trkpt lat="47.78187" lon="7.27341">
        <ele>249.2</ele>
        <time>2019-08-16T08:57:24Z</time>
      </trkpt>
      <trkpt lat="47.78184" lon="7.27346">
        <ele>249.2</ele>
        <time>2019-08-16T08:57:25Z</time>
      </trkpt>
      <trkpt lat="47.78182" lon="7.27353">
        <ele>249.2</ele>
        <time>2019-08-16T08:57:26Z</time>
      </trkpt>
      <trkpt lat="47.78179" lon="7.27359">
        <ele>249.2</ele>
        <time>2019-08-16T08:57:27Z</time>
      </trkpt>
      <trkpt lat="47.78177" lon="7.27367">
        <ele>249.2</ele>
        <time>2019-08-16T08:57:28Z</time>
      </trkpt>
      <trkpt lat="47.78174" lon="7.27375">
        <ele>249.2</ele>
        <time>2019-08-16T08:57:29Z</time>
      </trkpt>
      <trkpt lat="47.78171" lon="7.27382">
        <ele>249.1</ele>
        <time>2019-08-16T08:57:30Z</time>
      </trkpt>
      <trkpt lat="47.78168" lon="7.27389">
        <ele>249.1</ele>
        <time>2019-08-16T08:57:31Z</time>
      </trkpt>
      <trkpt lat="47.78165" lon="7.27397">
        <ele>249.1</ele>
        <time>2019-08-16T08:57:32Z</time>
      </trkpt>
      <trkpt lat="47.78162" lon="7.27404">
        <ele>249.1</ele>
        <time>2019-08-16T08:57:33Z</time>
      </trkpt>
      <trkpt lat="47.78159" lon="7.27412">
        <ele>249.1</ele>
        <time>2019-08-16T08:57:34Z</time>
      </trkpt>
      <trkpt lat="47.78157" lon="7.2742">
        <ele>249.1</ele>
        <time>2019-08-16T08:57:35Z</time>
      </trkpt>
      <trkpt lat="47.78154" lon="7.27428">
        <ele>249.2</ele>
        <time>2019-08-16T08:57:36Z</time>
      </trkpt>
      <trkpt lat="47.78151" lon="7.27436">
        <ele>249.2</ele>
        <time>2019-08-16T08:57:37Z</time>
      </trkpt>
      <trkpt lat="47.78148" lon="7.27442">
        <ele>249.3</ele>
        <time>2019-08-16T08:57:38Z</time>
      </trkpt>
      <trkpt lat="47.78145" lon="7.27449">
        <ele>249.3</ele>
        <time>2019-08-16T08:57:39Z</time>
      </trkpt>
      <trkpt lat="47.78143" lon="7.27457">
        <ele>249.4</ele>
        <time>2019-08-16T08:57:40Z</time>
      </trkpt>
      <trkpt lat="47.7814" lon="7.27464">
        <ele>249.4</ele>
        <time>2019-08-16T08:57:41Z</time>
      </trkpt>
      <trkpt lat="47.78137" lon="7.27472">
        <ele>249.5</ele>
        <time>2019-08-16T08:57:42Z</time>
      </trkpt>
      <trkpt lat="47.78135" lon="7.27479">
        <ele>249.5</ele>
        <time>2019-08-16T08:57:43Z</time>
      </trkpt>
      <trkpt lat="47.78132" lon="7.27487">
        <ele>249.5</ele>
        <time>2019-08-16T08:57:44Z</time>
      </trkpt>
      <trkpt lat="47.78129" lon="7.27495">
        <ele>249.5</ele>
        <time>2019-08-16T08:57:45Z</time>
      </trkpt>
      <trkpt lat="47.78125" lon="7.27502">
        <ele>249.5</ele>
        <time>2019-08-16T08:57:46Z</time>
      </trkpt>
      <trkpt lat="47.78122" lon="7.2751">
        <ele>249.5</ele>
        <time>2019-08-16T08:57:47Z</time>
      </trkpt>
      <trkpt lat="47.78119" lon="7.27516">
        <ele>249.5</ele>
        <time>2019-08-16T08:57:48Z</time>
      </trkpt>
      <trkpt lat="47.78117" lon="7.27522">
        <ele>249.5</ele>
        <time>2019-08-16T08:57:49Z</time>
      </trkpt>
      <trkpt lat="47.78114" lon="7.27529">
        <ele>249.4</ele>
        <time>2019-08-16T08:57:50Z</time>
      </trkpt>
      <trkpt lat="47.78112" lon="7.27535">
        <ele>249.4</ele>
        <time>2019-08-16T08:57:51Z</time>
      </trkpt>
      <trkpt lat="47.78109" lon="7.27542">
        <ele>249.4</ele>
        <time>2019-08-16T08:57:52Z</time>
      </trkpt>
      <trkpt lat="47.78106" lon="7.2755">
        <ele>249.4</ele>
        <time>2019-08-16T08:57:53Z</time>
      </trkpt>
      <trkpt lat="47.78103" lon="7.27557">
        <ele>249.4</ele>
        <time>2019-08-16T08:57:54Z</time>
      </trkpt>
      <trkpt lat="47.78101" lon="7.27565">
        <ele>249.5</ele>
        <time>2019-08-16T08:57:55Z</time>
      </trkpt>
      <trkpt lat="47.78099" lon="7.27572">
        <ele>249.5</ele>
        <time>2019-08-16T08:57:56Z</time>
      </trkpt>
      <trkpt lat="47.78097" lon="7.27578">
        <ele>249.6</ele>
        <time>2019-08-16T08:57:57Z</time>
      </trkpt>
      <trkpt lat="47.78095" lon="7.27585">
        <ele>249.6</ele>
        <time>2019-08-16T08:57:58Z</time>
      </trkpt>
      <trkpt lat="47.78093" lon="7.27592">
        <ele>249.6</ele>
        <time>2019-08-16T08:57:59Z</time>
      </trkpt>
      <trkpt lat="47.78091" lon="7.27599">
        <ele>249.5</ele>
        <time>2019-08-16T08:58:00Z</time>
      </trkpt>
      <trkpt lat="47.78089" lon="7.27605">
        <ele>249.5</ele>
        <time>2019-08-16T08:58:01Z</time>
      </trkpt>
      <trkpt lat="47.78087" lon="7.27611">
        <ele>249.5</ele>
        <time>2019-08-16T08:58:02Z</time>
      </trkpt>
      <trkpt lat="47.78085" lon="7.27617">
        <ele>249.5</ele>
        <time>2019-08-16T08:58:03Z</time>
      </trkpt>
      <trkpt lat="47.78082" lon="7.27623">
        <ele>249.4</ele>
        <time>2019-08-16T08:58:04Z</time>
      </trkpt>
      <trkpt lat="47.7808" lon="7.27629">
        <ele>249.4</ele>
        <time>2019-08-16T08:58:05Z</time>
      </trkpt>
      <trkpt lat="47.78078" lon="7.27635">
        <ele>249.3</ele>
        <time>2019-08-16T08:58:06Z</time>
      </trkpt>
      <trkpt lat="47.78076" lon="7.27641">
        <ele>249.3</ele>
        <time>2019-08-16T08:58:07Z</time>
      </trkpt>
      <trkpt lat="47.78074" lon="7.27647">
        <ele>249.3</ele>
        <time>2019-08-16T08:58:08Z</time>
      </trkpt>
      <trkpt lat="47.78072" lon="7.27653">
        <ele>249.2</ele>
        <time>2019-08-16T08:58:09Z</time>
      </trkpt>
      <trkpt lat="47.7807" lon="7.27658">
        <ele>249.2</ele>
        <time>2019-08-16T08:58:10Z</time>
      </trkpt>
      <trkpt lat="47.78068" lon="7.27664">
        <ele>249.1</ele>
        <time>2019-08-16T08:58:11Z</time>
      </trkpt>
      <trkpt lat="47.78067" lon="7.27671">
        <ele>249.1</ele>
        <time>2019-08-16T08:58:12Z</time>
      </trkpt>
      <trkpt lat="47.78065" lon="7.27677">
        <ele>249.1</ele>
        <time>2019-08-16T08:58:13Z</time>
      </trkpt>
      <trkpt lat="47.78064" lon="7.27684">
        <ele>249.1</ele>
        <time>2019-08-16T08:58:14Z</time>
      </trkpt>
      <trkpt lat="47.78062" lon="7.2769">
        <ele>249.1</ele>
        <time>2019-08-16T08:58:15Z</time>
      </trkpt>
      <trkpt lat="47.78062" lon="7.27696">
        <ele>249</ele>
        <time>2019-08-16T08:58:16Z</time>
      </trkpt>
      <trkpt lat="47.7806" lon="7.27703">
        <ele>249</ele>
        <time>2019-08-16T08:58:17Z</time>
      </trkpt>
      <trkpt lat="47.78058" lon="7.27711">
        <ele>248.9</ele>
        <time>2019-08-16T08:58:18Z</time>
      </trkpt>
      <trkpt lat="47.78056" lon="7.27718">
        <ele>248.8</ele>
        <time>2019-08-16T08:58:19Z</time>
      </trkpt>
      <trkpt lat="47.78054" lon="7.27726">
        <ele>248.7</ele>
        <time>2019-08-16T08:58:20Z</time>
      </trkpt>
      <trkpt lat="47.78053" lon="7.27734">
        <ele>248.6</ele>
        <time>2019-08-16T08:58:21Z</time>
      </trkpt>
      <trkpt lat="47.78053" lon="7.27745">
        <ele>248.4</ele>
        <time>2019-08-16T08:58:22Z</time>
      </trkpt>
      <trkpt lat="47.78052" lon="7.27753">
        <ele>248.3</ele>
        <time>2019-08-16T08:58:23Z</time>
      </trkpt>
      <trkpt lat="47.78051" lon="7.27761">
        <ele>248.2</ele>
        <time>2019-08-16T08:58:24Z</time>
      </trkpt>
      <trkpt lat="47.7805" lon="7.2777">
        <ele>248</ele>
        <time>2019-08-16T08:58:25Z</time>
      </trkpt>
      <trkpt lat="47.78048" lon="7.27778">
        <ele>247.9</ele>
        <time>2019-08-16T08:58:26Z</time>
      </trkpt>
      <trkpt lat="47.78047" lon="7.27785">
        <ele>247.7</ele>
        <time>2019-08-16T08:58:27Z</time>
      </trkpt>
      <trkpt lat="47.78045" lon="7.27793">
        <ele>247.6</ele>
        <time>2019-08-16T08:58:28Z</time>
      </trkpt>
      <trkpt lat="47.78043" lon="7.27801">
        <ele>247.5</ele>
        <time>2019-08-16T08:58:29Z</time>
      </trkpt>
      <trkpt lat="47.78042" lon="7.27808">
        <ele>247.3</ele>
        <time>2019-08-16T08:58:30Z</time>
      </trkpt>
      <trkpt lat="47.7804" lon="7.27815">
        <ele>247.2</ele>
        <time>2019-08-16T08:58:31Z</time>
      </trkpt>
      <trkpt lat="47.78037" lon="7.27822">
        <ele>247.1</ele>
        <time>2019-08-16T08:58:32Z</time>
      </trkpt>
      <trkpt lat="47.78034" lon="7.27829">
        <ele>247</ele>
        <time>2019-08-16T08:58:33Z</time>
      </trkpt>
      <trkpt lat="47.78031" lon="7.27836">
        <ele>247</ele>
        <time>2019-08-16T08:58:34Z</time>
      </trkpt>
      <trkpt lat="47.78028" lon="7.27843">
        <ele>246.9</ele>
        <time>2019-08-16T08:58:35Z</time>
      </trkpt>
      <trkpt lat="47.78026" lon="7.2785">
        <ele>246.9</ele>
        <time>2019-08-16T08:58:36Z</time>
      </trkpt>
      <trkpt lat="47.78025" lon="7.27857">
        <ele>246.9</ele>
        <time>2019-08-16T08:58:37Z</time>
      </trkpt>
      <trkpt lat="47.78023" lon="7.27865">
        <ele>247</ele>
        <time>2019-08-16T08:58:38Z</time>
      </trkpt>
      <trkpt lat="47.78021" lon="7.27872">
        <ele>247</ele>
        <time>2019-08-16T08:58:39Z</time>
      </trkpt>
      <trkpt lat="47.78019" lon="7.27879">
        <ele>247.1</ele>
        <time>2019-08-16T08:58:40Z</time>
      </trkpt>
      <trkpt lat="47.78016" lon="7.27885">
        <ele>247.1</ele>
        <time>2019-08-16T08:58:41Z</time>
      </trkpt>
      <trkpt lat="47.78013" lon="7.27892">
        <ele>247.2</ele>
        <time>2019-08-16T08:58:42Z</time>
      </trkpt>
      <trkpt lat="47.78011" lon="7.27899">
        <ele>247.3</ele>
        <time>2019-08-16T08:58:43Z</time>
      </trkpt>
      <trkpt lat="47.7801" lon="7.27906">
        <ele>247.4</ele>
        <time>2019-08-16T08:58:44Z</time>
      </trkpt>
      <trkpt lat="47.78008" lon="7.27915">
        <ele>247.5</ele>
        <time>2019-08-16T08:58:45Z</time>
      </trkpt>
      <trkpt lat="47.78007" lon="7.27923">
        <ele>247.6</ele>
        <time>2019-08-16T08:58:46Z</time>
      </trkpt>
      <trkpt lat="47.78005" lon="7.27931">
        <ele>247.7</ele>
        <time>2019-08-16T08:58:47Z</time>
      </trkpt>
      <trkpt lat="47.78003" lon="7.27939">
        <ele>247.7</ele>
        <time>2019-08-16T08:58:48Z</time>
      </trkpt>
      <trkpt lat="47.78001" lon="7.27946">
        <ele>247.8</ele>
        <time>2019-08-16T08:58:49Z</time>
      </trkpt>
      <trkpt lat="47.77999" lon="7.27953">
        <ele>247.8</ele>
        <time>2019-08-16T08:58:50Z</time>
      </trkpt>
      <trkpt lat="47.77997" lon="7.2796">
        <ele>247.8</ele>
        <time>2019-08-16T08:58:51Z</time>
      </trkpt>
      <trkpt lat="47.77994" lon="7.27968">
        <ele>247.8</ele>
        <time>2019-08-16T08:58:52Z</time>
      </trkpt>
      <trkpt lat="47.77992" lon="7.27975">
        <ele>247.9</ele>
        <time>2019-08-16T08:58:53Z</time>
      </trkpt>
      <trkpt lat="47.77991" lon="7.27982">
        <ele>247.8</ele>
        <time>2019-08-16T08:58:54Z</time>
      </trkpt>
      <trkpt lat="47.77989" lon="7.2799">
        <ele>247.7</ele>
        <time>2019-08-16T08:58:55Z</time>
      </trkpt>
      <trkpt lat="47.77987" lon="7.27998">
        <ele>247.7</ele>
        <time>2019-08-16T08:58:56Z</time>
      </trkpt>
      <trkpt lat="47.77985" lon="7.28006">
        <ele>247.6</ele>
        <time>2019-08-16T08:58:57Z</time>
      </trkpt>
      <trkpt lat="47.77983" lon="7.28013">
        <ele>247.6</ele>
        <time>2019-08-16T08:58:58Z</time>
      </trkpt>
      <trkpt lat="47.77981" lon="7.28021">
        <ele>247.5</ele>
        <time>2019-08-16T08:58:59Z</time>
      </trkpt>
      <trkpt lat="47.77979" lon="7.28028">
        <ele>247.5</ele>
        <time>2019-08-16T08:59:00Z</time>
      </trkpt>
      <trkpt lat="47.77977" lon="7.28036">
        <ele>247.4</ele>
        <time>2019-08-16T08:59:01Z</time>
      </trkpt>
      <trkpt lat="47.77976" lon="7.28044">
        <ele>247.2</ele>
        <time>2019-08-16T08:59:02Z</time>
      </trkpt>
      <trkpt lat="47.77974" lon="7.28052">
        <ele>247.1</ele>
        <time>2019-08-16T08:59:03Z</time>
      </trkpt>
      <trkpt lat="47.77972" lon="7.28059">
        <ele>247</ele>
        <time>2019-08-16T08:59:04Z</time>
      </trkpt>
      <trkpt lat="47.77971" lon="7.28067">
        <ele>246.9</ele>
        <time>2019-08-16T08:59:05Z</time>
      </trkpt>
      <trkpt lat="47.77969" lon="7.28075">
        <ele>246.8</ele>
        <time>2019-08-16T08:59:06Z</time>
      </trkpt>
      <trkpt lat="47.77968" lon="7.28083">
        <ele>246.7</ele>
        <time>2019-08-16T08:59:07Z</time>
      </trkpt>
      <trkpt lat="47.77966" lon="7.28091">
        <ele>246.6</ele>
        <time>2019-08-16T08:59:08Z</time>
      </trkpt>
      <trkpt lat="47.77965" lon="7.28099">
        <ele>246.4</ele>
        <time>2019-08-16T08:59:09Z</time>
      </trkpt>
      <trkpt lat="47.77963" lon="7.28106">
        <ele>246.2</ele>
        <time>2019-08-16T08:59:10Z</time>
      </trkpt>
      <trkpt lat="47.77961" lon="7.28114">
        <ele>245.9</ele>
        <time>2019-08-16T08:59:11Z</time>
      </trkpt>
      <trkpt lat="47.7796" lon="7.28122">
        <ele>245.8</ele>
        <time>2019-08-16T08:59:12Z</time>
      </trkpt>
      <trkpt lat="47.77959" lon="7.2813">
        <ele>245.7</ele>
        <time>2019-08-16T08:59:13Z</time>
      </trkpt>
      <trkpt lat="47.77957" lon="7.28138">
        <ele>245.6</ele>
        <time>2019-08-16T08:59:14Z</time>
      </trkpt>
      <trkpt lat="47.77955" lon="7.28147">
        <ele>245.5</ele>
        <time>2019-08-16T08:59:15Z</time>
      </trkpt>
      <trkpt lat="47.77954" lon="7.28154">
        <ele>245.4</ele>
        <time>2019-08-16T08:59:16Z</time>
      </trkpt>
      <trkpt lat="47.77953" lon="7.28162">
        <ele>245.3</ele>
        <time>2019-08-16T08:59:17Z</time>
      </trkpt>
      <trkpt lat="47.77951" lon="7.28169">
        <ele>245.2</ele>
        <time>2019-08-16T08:59:18Z</time>
      </trkpt>
      <trkpt lat="47.77949" lon="7.28178">
        <ele>245.1</ele>
        <time>2019-08-16T08:59:19Z</time>
      </trkpt>
      <trkpt lat="47.77947" lon="7.28187">
        <ele>245</ele>
        <time>2019-08-16T08:59:20Z</time>
      </trkpt>
      <trkpt lat="47.77944" lon="7.28195">
        <ele>244.9</ele>
        <time>2019-08-16T08:59:21Z</time>
      </trkpt>
      <trkpt lat="47.77942" lon="7.28203">
        <ele>244.8</ele>
        <time>2019-08-16T08:59:22Z</time>
      </trkpt>
      <trkpt lat="47.77941" lon="7.28211">
        <ele>244.7</ele>
        <time>2019-08-16T08:59:23Z</time>
      </trkpt>
      <trkpt lat="47.77939" lon="7.2822">
        <ele>244.7</ele>
        <time>2019-08-16T08:59:24Z</time>
      </trkpt>
      <trkpt lat="47.77937" lon="7.28229">
        <ele>244.6</ele>
        <time>2019-08-16T08:59:25Z</time>
      </trkpt>
      <trkpt lat="47.77934" lon="7.28238">
        <ele>244.6</ele>
        <time>2019-08-16T08:59:26Z</time>
      </trkpt>
      <trkpt lat="47.77932" lon="7.28247">
        <ele>244.5</ele>
        <time>2019-08-16T08:59:27Z</time>
      </trkpt>
      <trkpt lat="47.77929" lon="7.28256">
        <ele>244.5</ele>
        <time>2019-08-16T08:59:28Z</time>
      </trkpt>
      <trkpt lat="47.77926" lon="7.28263">
        <ele>244.4</ele>
        <time>2019-08-16T08:59:29Z</time>
      </trkpt>
      <trkpt lat="47.77924" lon="7.28271">
        <ele>244.4</ele>
        <time>2019-08-16T08:59:30Z</time>
      </trkpt>
      <trkpt lat="47.77921" lon="7.28279">
        <ele>244.4</ele>
        <time>2019-08-16T08:59:31Z</time>
      </trkpt>
      <trkpt lat="47.77919" lon="7.28287">
        <ele>244.3</ele>
        <time>2019-08-16T08:59:32Z</time>
      </trkpt>
      <trkpt lat="47.77917" lon="7.28295">
        <ele>244.3</ele>
        <time>2019-08-16T08:59:33Z</time>
      </trkpt>
      <trkpt lat="47.77915" lon="7.28303">
        <ele>244.3</ele>
        <time>2019-08-16T08:59:34Z</time>
      </trkpt>
      <trkpt lat="47.77913" lon="7.28311">
        <ele>244.3</ele>
        <time>2019-08-16T08:59:35Z</time>
      </trkpt>
      <trkpt lat="47.77912" lon="7.2832">
        <ele>244.3</ele>
        <time>2019-08-16T08:59:36Z</time>
      </trkpt>
      <trkpt lat="47.77911" lon="7.28327">
        <ele>244.3</ele>
        <time>2019-08-16T08:59:37Z</time>
      </trkpt>
      <trkpt lat="47.77909" lon="7.28335">
        <ele>244.2</ele>
        <time>2019-08-16T08:59:38Z</time>
      </trkpt>
      <trkpt lat="47.77908" lon="7.28343">
        <ele>244.2</ele>
        <time>2019-08-16T08:59:39Z</time>
      </trkpt>
      <trkpt lat="47.77906" lon="7.28352">
        <ele>244</ele>
        <time>2019-08-16T08:59:40Z</time>
      </trkpt>
      <trkpt lat="47.77905" lon="7.28361">
        <ele>244</ele>
        <time>2019-08-16T08:59:41Z</time>
      </trkpt>
      <trkpt lat="47.77903" lon="7.28371">
        <ele>244</ele>
        <time>2019-08-16T08:59:42Z</time>
      </trkpt>
      <trkpt lat="47.77901" lon="7.28379">
        <ele>244</ele>
        <time>2019-08-16T08:59:43Z</time>
      </trkpt>
      <trkpt lat="47.77899" lon="7.28388">
        <ele>244</ele>
        <time>2019-08-16T08:59:44Z</time>
      </trkpt>
      <trkpt lat="47.77898" lon="7.28396">
        <ele>243.9</ele>
        <time>2019-08-16T08:59:45Z</time>
      </trkpt>
      <trkpt lat="47.77898" lon="7.28403">
        <ele>243.8</ele>
        <time>2019-08-16T08:59:46Z</time>
      </trkpt>
      <trkpt lat="47.77897" lon="7.28411">
        <ele>243.7</ele>
        <time>2019-08-16T08:59:47Z</time>
      </trkpt>
      <trkpt lat="47.77896" lon="7.28419">
        <ele>243.6</ele>
        <time>2019-08-16T08:59:48Z</time>
      </trkpt>
      <trkpt lat="47.77895" lon="7.28426">
        <ele>243.5</ele>
        <time>2019-08-16T08:59:49Z</time>
      </trkpt>
      <trkpt lat="47.77894" lon="7.28435">
        <ele>243.4</ele>
        <time>2019-08-16T08:59:50Z</time>
      </trkpt>
      <trkpt lat="47.77894" lon="7.28443">
        <ele>243.3</ele>
        <time>2019-08-16T08:59:51Z</time>
      </trkpt>
      <trkpt lat="47.77893" lon="7.28451">
        <ele>243.3</ele>
        <time>2019-08-16T08:59:52Z</time>
      </trkpt>
      <trkpt lat="47.77892" lon="7.2846">
        <ele>243.2</ele>
        <time>2019-08-16T08:59:53Z</time>
      </trkpt>
      <trkpt lat="47.77891" lon="7.28467">
        <ele>243.2</ele>
        <time>2019-08-16T08:59:54Z</time>
      </trkpt>
      <trkpt lat="47.7789" lon="7.28473">
        <ele>243.2</ele>
        <time>2019-08-16T08:59:55Z</time>
      </trkpt>
      <trkpt lat="47.77888" lon="7.28479">
        <ele>243.1</ele>
        <time>2019-08-16T08:59:56Z</time>
      </trkpt>
      <trkpt lat="47.77887" lon="7.28486">
        <ele>243.1</ele>
        <time>2019-08-16T08:59:57Z</time>
      </trkpt>
      <trkpt lat="47.77886" lon="7.28493">
        <ele>243.1</ele>
        <time>2019-08-16T08:59:58Z</time>
      </trkpt>
      <trkpt lat="47.77885" lon="7.28498">
        <ele>243</ele>
        <time>2019-08-16T08:59:59Z</time>
      </trkpt>
      <trkpt lat="47.77884" lon="7.28502">
        <ele>243</ele>
        <time>2019-08-16T09:00:00Z</time>
      </trkpt>
      <trkpt lat="47.77882" lon="7.28508">
        <ele>243</ele>
        <time>2019-08-16T09:00:02Z</time>
      </trkpt>
      <trkpt lat="47.7788" lon="7.28511">
        <ele>243</ele>
        <time>2019-08-16T09:00:05Z</time>
      </trkpt>
      <trkpt lat="47.77878" lon="7.28517">
        <ele>242.9</ele>
        <time>2019-08-16T09:00:12Z</time>
      </trkpt>
      <trkpt lat="47.7788" lon="7.28514">
        <ele>242.9</ele>
        <time>2019-08-16T09:00:14Z</time>
      </trkpt>
      <trkpt lat="47.77878" lon="7.2851">
        <ele>242.9</ele>
        <time>2019-08-16T09:00:19Z</time>
      </trkpt>
      <trkpt lat="47.77865" lon="7.28509">
        <ele>243.1</ele>
        <time>2019-08-16T09:00:37Z</time>
      </trkpt>
      <trkpt lat="47.77863" lon="7.28508">
        <ele>243.2</ele>
        <time>2019-08-16T09:00:38Z</time>
      </trkpt>
      <trkpt lat="47.77859" lon="7.28506">
        <ele>243.3</ele>
        <time>2019-08-16T09:00:39Z</time>
      </trkpt>
      <trkpt lat="47.77855" lon="7.28504">
        <ele>243.4</ele>
        <time>2019-08-16T09:00:40Z</time>
      </trkpt>
      <trkpt lat="47.7785" lon="7.28502">
        <ele>243.6</ele>
        <time>2019-08-16T09:00:41Z</time>
      </trkpt>
      <trkpt lat="47.77847" lon="7.285">
        <ele>243.7</ele>
        <time>2019-08-16T09:00:42Z</time>
      </trkpt>
      <trkpt lat="47.77841" lon="7.28496">
        <ele>243.8</ele>
        <time>2019-08-16T09:00:43Z</time>
      </trkpt>
      <trkpt lat="47.77836" lon="7.28493">
        <ele>243.9</ele>
        <time>2019-08-16T09:00:44Z</time>
      </trkpt>
      <trkpt lat="47.77831" lon="7.28492">
        <ele>244.1</ele>
        <time>2019-08-16T09:00:45Z</time>
      </trkpt>
      <trkpt lat="47.77826" lon="7.28492">
        <ele>244.2</ele>
        <time>2019-08-16T09:00:46Z</time>
      </trkpt>
      <trkpt lat="47.77821" lon="7.28491">
        <ele>244.3</ele>
        <time>2019-08-16T09:00:47Z</time>
      </trkpt>
      <trkpt lat="47.77817" lon="7.28491">
        <ele>244.4</ele>
        <time>2019-08-16T09:00:48Z</time>
      </trkpt>
      <trkpt lat="47.77812" lon="7.2849">
        <ele>244.4</ele>
        <time>2019-08-16T09:00:49Z</time>
      </trkpt>
      <trkpt lat="47.77808" lon="7.28488">
        <ele>244.5</ele>
        <time>2019-08-16T09:00:50Z</time>
      </trkpt>
      <trkpt lat="47.77803" lon="7.28487">
        <ele>244.5</ele>
        <time>2019-08-16T09:00:51Z</time>
      </trkpt>
      <trkpt lat="47.77799" lon="7.28486">
        <ele>244.6</ele>
        <time>2019-08-16T09:00:52Z</time>
      </trkpt>
      <trkpt lat="47.77795" lon="7.28486">
        <ele>244.6</ele>
        <time>2019-08-16T09:00:53Z</time>
      </trkpt>
      <trkpt lat="47.77789" lon="7.28486">
        <ele>244.7</ele>
        <time>2019-08-16T09:00:54Z</time>
      </trkpt>
      <trkpt lat="47.77785" lon="7.28485">
        <ele>244.8</ele>
        <time>2019-08-16T09:00:55Z</time>
      </trkpt>
      <trkpt lat="47.77781" lon="7.28483">
        <ele>244.8</ele>
        <time>2019-08-16T09:00:56Z</time>
      </trkpt>
      <trkpt lat="47.77779" lon="7.28478">
        <ele>244.8</ele>
        <time>2019-08-16T09:00:57Z</time>
      </trkpt>
      <trkpt lat="47.77778" lon="7.28474">
        <ele>244.8</ele>
        <time>2019-08-16T09:00:58Z</time>
      </trkpt>
      <trkpt lat="47.77778" lon="7.28468">
        <ele>244.9</ele>
        <time>2019-08-16T09:00:59Z</time>
      </trkpt>
      <trkpt lat="47.77777" lon="7.28463">
        <ele>244.9</ele>
        <time>2019-08-16T09:01:00Z</time>
      </trkpt>
      <trkpt lat="47.77778" lon="7.28455">
        <ele>244.9</ele>
        <time>2019-08-16T09:01:01Z</time>
      </trkpt>
      <trkpt lat="47.77779" lon="7.28448">
        <ele>245</ele>
        <time>2019-08-16T09:01:02Z</time>
      </trkpt>
      <trkpt lat="47.77779" lon="7.28442">
        <ele>245</ele>
        <time>2019-08-16T09:01:03Z</time>
      </trkpt>
      <trkpt lat="47.7778" lon="7.28436">
        <ele>245</ele>
        <time>2019-08-16T09:01:04Z</time>
      </trkpt>
      <trkpt lat="47.7778" lon="7.28431">
        <ele>245</ele>
        <time>2019-08-16T09:01:05Z</time>
      </trkpt>
      <trkpt lat="47.77782" lon="7.28423">
        <ele>245.1</ele>
        <time>2019-08-16T09:01:07Z</time>
      </trkpt>
      <trkpt lat="47.77783" lon="7.28418">
        <ele>245.1</ele>
        <time>2019-08-16T09:01:08Z</time>
      </trkpt>
      <trkpt lat="47.77784" lon="7.28411">
        <ele>245.1</ele>
        <time>2019-08-16T09:01:09Z</time>
      </trkpt>
      <trkpt lat="47.77785" lon="7.28404">
        <ele>245.1</ele>
        <time>2019-08-16T09:01:10Z</time>
      </trkpt>
      <trkpt lat="47.77786" lon="7.28397">
        <ele>245.1</ele>
        <time>2019-08-16T09:01:11Z</time>
      </trkpt>
      <trkpt lat="47.77786" lon="7.28389">
        <ele>245.1</ele>
        <time>2019-08-16T09:01:12Z</time>
      </trkpt>
      <trkpt lat="47.77787" lon="7.28383">
        <ele>245.1</ele>
        <time>2019-08-16T09:01:13Z</time>
      </trkpt>
      <trkpt lat="47.77788" lon="7.28378">
        <ele>245.1</ele>
        <time>2019-08-16T09:01:14Z</time>
      </trkpt>
      <trkpt lat="47.77788" lon="7.28373">
        <ele>245.1</ele>
        <time>2019-08-16T09:01:15Z</time>
      </trkpt>
      <trkpt lat="47.77788" lon="7.28368">
        <ele>245.2</ele>
        <time>2019-08-16T09:01:16Z</time>
      </trkpt>
      <trkpt lat="47.77788" lon="7.28362">
        <ele>245.2</ele>
        <time>2019-08-16T09:01:17Z</time>
      </trkpt>
      <trkpt lat="47.77787" lon="7.28356">
        <ele>245.2</ele>
        <time>2019-08-16T09:01:18Z</time>
      </trkpt>
      <trkpt lat="47.77787" lon="7.2835">
        <ele>245.2</ele>
        <time>2019-08-16T09:01:19Z</time>
      </trkpt>
      <trkpt lat="47.77787" lon="7.28346">
        <ele>245.3</ele>
        <time>2019-08-16T09:01:20Z</time>
      </trkpt>
      <trkpt lat="47.77788" lon="7.28341">
        <ele>245.3</ele>
        <time>2019-08-16T09:01:21Z</time>
      </trkpt>
      <trkpt lat="47.77789" lon="7.28335">
        <ele>245.3</ele>
        <time>2019-08-16T09:01:22Z</time>
      </trkpt>
      <trkpt lat="47.77789" lon="7.2833">
        <ele>245.4</ele>
        <time>2019-08-16T09:01:23Z</time>
      </trkpt>
      <trkpt lat="47.77789" lon="7.28324">
        <ele>245.4</ele>
        <time>2019-08-16T09:01:24Z</time>
      </trkpt>
      <trkpt lat="47.77789" lon="7.28319">
        <ele>245.4</ele>
        <time>2019-08-16T09:01:25Z</time>
      </trkpt>
      <trkpt lat="47.7779" lon="7.28314">
        <ele>245.5</ele>
        <time>2019-08-16T09:01:26Z</time>
      </trkpt>
      <trkpt lat="47.7779" lon="7.28309">
        <ele>245.5</ele>
        <time>2019-08-16T09:01:27Z</time>
      </trkpt>
      <trkpt lat="47.77791" lon="7.28304">
        <ele>245.6</ele>
        <time>2019-08-16T09:01:28Z</time>
      </trkpt>
      <trkpt lat="47.77792" lon="7.28298">
        <ele>245.6</ele>
        <time>2019-08-16T09:01:30Z</time>
      </trkpt>
      <trkpt lat="47.77791" lon="7.28293">
        <ele>245.7</ele>
        <time>2019-08-16T09:01:39Z</time>
      </trkpt>
      <trkpt lat="47.77791" lon="7.28285">
        <ele>245.8</ele>
        <time>2019-08-16T09:01:41Z</time>
      </trkpt>
      <trkpt lat="47.77791" lon="7.28278">
        <ele>245.9</ele>
        <time>2019-08-16T09:01:43Z</time>
      </trkpt>
      <trkpt lat="47.77791" lon="7.28274">
        <ele>245.9</ele>
        <time>2019-08-16T09:01:44Z</time>
      </trkpt>
      <trkpt lat="47.77792" lon="7.28269">
        <ele>246</ele>
        <time>2019-08-16T09:01:45Z</time>
      </trkpt>
      <trkpt lat="47.77792" lon="7.28264">
        <ele>246.1</ele>
        <time>2019-08-16T09:01:46Z</time>
      </trkpt>
      <trkpt lat="47.77792" lon="7.28259">
        <ele>246.2</ele>
        <time>2019-08-16T09:01:47Z</time>
      </trkpt>
      <trkpt lat="47.77792" lon="7.28254">
        <ele>246.2</ele>
        <time>2019-08-16T09:01:48Z</time>
      </trkpt>
      <trkpt lat="47.77793" lon="7.28248">
        <ele>246.3</ele>
        <time>2019-08-16T09:01:49Z</time>
      </trkpt>
      <trkpt lat="47.77793" lon="7.28243">
        <ele>246.3</ele>
        <time>2019-08-16T09:01:50Z</time>
      </trkpt>
      <trkpt lat="47.77793" lon="7.28238">
        <ele>246.4</ele>
        <time>2019-08-16T09:01:51Z</time>
      </trkpt>
      <trkpt lat="47.77794" lon="7.28233">
        <ele>246.4</ele>
        <time>2019-08-16T09:01:52Z</time>
      </trkpt>
      <trkpt lat="47.77794" lon="7.28228">
        <ele>246.5</ele>
        <time>2019-08-16T09:01:53Z</time>
      </trkpt>
      <trkpt lat="47.77795" lon="7.28223">
        <ele>246.5</ele>
        <time>2019-08-16T09:01:54Z</time>
      </trkpt>
      <trkpt lat="47.77795" lon="7.28218">
        <ele>246.5</ele>
        <time>2019-08-16T09:01:55Z</time>
      </trkpt>
      <trkpt lat="47.77795" lon="7.28213">
        <ele>246.6</ele>
        <time>2019-08-16T09:01:56Z</time>
      </trkpt>
      <trkpt lat="47.77795" lon="7.28207">
        <ele>246.7</ele>
        <time>2019-08-16T09:01:58Z</time>
      </trkpt>
      <trkpt lat="47.77791" lon="7.282">
        <ele>246.8</ele>
        <time>2019-08-16T09:02:43Z</time>
      </trkpt>
      <trkpt lat="47.77787" lon="7.28197">
        <ele>246.9</ele>
        <time>2019-08-16T09:02:46Z</time>
      </trkpt>
      <trkpt lat="47.77783" lon="7.28196">
        <ele>247</ele>
        <time>2019-08-16T09:02:48Z</time>
      </trkpt>
      <trkpt lat="47.77779" lon="7.28194">
        <ele>247</ele>
        <time>2019-08-16T09:02:50Z</time>
      </trkpt>
      <trkpt lat="47.77776" lon="7.28193">
        <ele>247.1</ele>
        <time>2019-08-16T09:02:51Z</time>
      </trkpt>
      <trkpt lat="47.77773" lon="7.28192">
        <ele>247.1</ele>
        <time>2019-08-16T09:02:52Z</time>
      </trkpt>
      <trkpt lat="47.7777" lon="7.28191">
        <ele>247.2</ele>
        <time>2019-08-16T09:02:53Z</time>
      </trkpt>
      <trkpt lat="47.77765" lon="7.28191">
        <ele>247.3</ele>
        <time>2019-08-16T09:02:54Z</time>
      </trkpt>
      <trkpt lat="47.77761" lon="7.28189">
        <ele>247.3</ele>
        <time>2019-08-16T09:02:55Z</time>
      </trkpt>
      <trkpt lat="47.77757" lon="7.28188">
        <ele>247.4</ele>
        <time>2019-08-16T09:02:56Z</time>
      </trkpt>
      <trkpt lat="47.77752" lon="7.28187">
        <ele>247.4</ele>
        <time>2019-08-16T09:02:57Z</time>
      </trkpt>
      <trkpt lat="47.77748" lon="7.28185">
        <ele>247.5</ele>
        <time>2019-08-16T09:02:58Z</time>
      </trkpt>
      <trkpt lat="47.77744" lon="7.28184">
        <ele>247.5</ele>
        <time>2019-08-16T09:02:59Z</time>
      </trkpt>
      <trkpt lat="47.7774" lon="7.28182">
        <ele>247.5</ele>
        <time>2019-08-16T09:03:00Z</time>
      </trkpt>
      <trkpt lat="47.77736" lon="7.28181">
        <ele>247.6</ele>
        <time>2019-08-16T09:03:01Z</time>
      </trkpt>
      <trkpt lat="47.77732" lon="7.28179">
        <ele>247.6</ele>
        <time>2019-08-16T09:03:02Z</time>
      </trkpt>
      <trkpt lat="47.77728" lon="7.28178">
        <ele>247.7</ele>
        <time>2019-08-16T09:03:03Z</time>
      </trkpt>
      <trkpt lat="47.77724" lon="7.28177">
        <ele>247.7</ele>
        <time>2019-08-16T09:03:04Z</time>
      </trkpt>
      <trkpt lat="47.7772" lon="7.28176">
        <ele>247.7</ele>
        <time>2019-08-16T09:03:05Z</time>
      </trkpt>
      <trkpt lat="47.77716" lon="7.28175">
        <ele>247.7</ele>
        <time>2019-08-16T09:03:06Z</time>
      </trkpt>
      <trkpt lat="47.77712" lon="7.28174">
        <ele>247.7</ele>
        <time>2019-08-16T09:03:07Z</time>
      </trkpt>
      <trkpt lat="47.77709" lon="7.28173">
        <ele>247.8</ele>
        <time>2019-08-16T09:03:08Z</time>
      </trkpt>
      <trkpt lat="47.77705" lon="7.28173">
        <ele>247.9</ele>
        <time>2019-08-16T09:03:09Z</time>
      </trkpt>
      <trkpt lat="47.77703" lon="7.28173">
        <ele>247.9</ele>
        <time>2019-08-16T09:03:10Z</time>
      </trkpt>
      <trkpt lat="47.77697" lon="7.28174">
        <ele>248</ele>
        <time>2019-08-16T09:03:12Z</time>
      </trkpt>
      <trkpt lat="47.77693" lon="7.28174">
        <ele>248.1</ele>
        <time>2019-08-16T09:03:13Z</time>
      </trkpt>
      <trkpt lat="47.77689" lon="7.28173">
        <ele>248.2</ele>
        <time>2019-08-16T09:03:14Z</time>
      </trkpt>
      <trkpt lat="47.77685" lon="7.28172">
        <ele>248.2</ele>
        <time>2019-08-16T09:03:15Z</time>
      </trkpt>
      <trkpt lat="47.77681" lon="7.28171">
        <ele>248.3</ele>
        <time>2019-08-16T09:03:16Z</time>
      </trkpt>
      <trkpt lat="47.77677" lon="7.28171">
        <ele>248.4</ele>
        <time>2019-08-16T09:03:17Z</time>
      </trkpt>
      <trkpt lat="47.77673" lon="7.2817">
        <ele>248.4</ele>
        <time>2019-08-16T09:03:18Z</time>
      </trkpt>
      <trkpt lat="47.77669" lon="7.28169">
        <ele>248.5</ele>
        <time>2019-08-16T09:03:19Z</time>
      </trkpt>
      <trkpt lat="47.77664" lon="7.28168">
        <ele>248.6</ele>
        <time>2019-08-16T09:03:20Z</time>
      </trkpt>
      <trkpt lat="47.77661" lon="7.28166">
        <ele>248.7</ele>
        <time>2019-08-16T09:03:21Z</time>
      </trkpt>
      <trkpt lat="47.77656" lon="7.28165">
        <ele>248.7</ele>
        <time>2019-08-16T09:03:22Z</time>
      </trkpt>
      <trkpt lat="47.77652" lon="7.28164">
        <ele>248.8</ele>
        <time>2019-08-16T09:03:23Z</time>
      </trkpt>
      <trkpt lat="47.77647" lon="7.28164">
        <ele>248.9</ele>
        <time>2019-08-16T09:03:24Z</time>
      </trkpt>
      <trkpt lat="47.77642" lon="7.28163">
        <ele>249</ele>
        <time>2019-08-16T09:03:25Z</time>
      </trkpt>
      <trkpt lat="47.77637" lon="7.28161">
        <ele>249</ele>
        <time>2019-08-16T09:03:26Z</time>
      </trkpt>
      <trkpt lat="47.77632" lon="7.28159">
        <ele>249.1</ele>
        <time>2019-08-16T09:03:27Z</time>
      </trkpt>
      <trkpt lat="47.77627" lon="7.28156">
        <ele>249.2</ele>
        <time>2019-08-16T09:03:28Z</time>
      </trkpt>
      <trkpt lat="47.77622" lon="7.28154">
        <ele>249.3</ele>
        <time>2019-08-16T09:03:29Z</time>
      </trkpt>
      <trkpt lat="47.77618" lon="7.28151">
        <ele>249.4</ele>
        <time>2019-08-16T09:03:30Z</time>
      </trkpt>
      <trkpt lat="47.77613" lon="7.28148">
        <ele>249.5</ele>
        <time>2019-08-16T09:03:31Z</time>
      </trkpt>
      <trkpt lat="47.77608" lon="7.28145">
        <ele>249.5</ele>
        <time>2019-08-16T09:03:32Z</time>
      </trkpt>
      <trkpt lat="47.77604" lon="7.28142">
        <ele>249.6</ele>
        <time>2019-08-16T09:03:33Z</time>
      </trkpt>
      <trkpt lat="47.776" lon="7.28139">
        <ele>249.7</ele>
        <time>2019-08-16T09:03:34Z</time>
      </trkpt>
      <trkpt lat="47.77596" lon="7.28137">
        <ele>249.8</ele>
        <time>2019-08-16T09:03:35Z</time>
      </trkpt>
      <trkpt lat="47.77592" lon="7.28134">
        <ele>249.6</ele>
        <time>2019-08-16T09:03:36Z</time>
      </trkpt>
      <trkpt lat="47.77588" lon="7.28132">
        <ele>249.5</ele>
        <time>2019-08-16T09:03:37Z</time>
      </trkpt>
      <trkpt lat="47.77584" lon="7.28131">
        <ele>249.3</ele>
        <time>2019-08-16T09:03:38Z</time>
      </trkpt>
      <trkpt lat="47.77579" lon="7.28129">
        <ele>249.2</ele>
        <time>2019-08-16T09:03:39Z</time>
      </trkpt>
      <trkpt lat="47.77575" lon="7.28127">
        <ele>249.1</ele>
        <time>2019-08-16T09:03:40Z</time>
      </trkpt>
      <trkpt lat="47.7757" lon="7.28126">
        <ele>249</ele>
        <time>2019-08-16T09:03:41Z</time>
      </trkpt>
      <trkpt lat="47.77566" lon="7.28125">
        <ele>248.9</ele>
        <time>2019-08-16T09:03:42Z</time>
      </trkpt>
      <trkpt lat="47.77562" lon="7.28125">
        <ele>248.9</ele>
        <time>2019-08-16T09:03:43Z</time>
      </trkpt>
      <trkpt lat="47.77558" lon="7.28124">
        <ele>248.8</ele>
        <time>2019-08-16T09:03:44Z</time>
      </trkpt>
      <trkpt lat="47.77554" lon="7.28124">
        <ele>248.8</ele>
        <time>2019-08-16T09:03:45Z</time>
      </trkpt>
      <trkpt lat="47.77551" lon="7.28124">
        <ele>248.8</ele>
        <time>2019-08-16T09:03:46Z</time>
      </trkpt>
      <trkpt lat="47.77547" lon="7.28123">
        <ele>248.9</ele>
        <time>2019-08-16T09:03:47Z</time>
      </trkpt>
      <trkpt lat="47.77543" lon="7.28122">
        <ele>248.9</ele>
        <time>2019-08-16T09:03:48Z</time>
      </trkpt>
      <trkpt lat="47.77538" lon="7.28121">
        <ele>249.1</ele>
        <time>2019-08-16T09:03:49Z</time>
      </trkpt>
      <trkpt lat="47.77533" lon="7.2812">
        <ele>249.2</ele>
        <time>2019-08-16T09:03:50Z</time>
      </trkpt>
      <trkpt lat="47.77528" lon="7.28119">
        <ele>249.5</ele>
        <time>2019-08-16T09:03:51Z</time>
      </trkpt>
      <trkpt lat="47.77524" lon="7.28118">
        <ele>249.7</ele>
        <time>2019-08-16T09:03:52Z</time>
      </trkpt>
      <trkpt lat="47.77519" lon="7.28117">
        <ele>249.8</ele>
        <time>2019-08-16T09:03:53Z</time>
      </trkpt>
      <trkpt lat="47.77516" lon="7.28116">
        <ele>250</ele>
        <time>2019-08-16T09:03:54Z</time>
      </trkpt>
      <trkpt lat="47.77512" lon="7.28114">
        <ele>250.1</ele>
        <time>2019-08-16T09:03:55Z</time>
      </trkpt>
      <trkpt lat="47.77509" lon="7.28113">
        <ele>250.2</ele>
        <time>2019-08-16T09:03:56Z</time>
      </trkpt>
      <trkpt lat="47.77505" lon="7.28111">
        <ele>250.4</ele>
        <time>2019-08-16T09:03:57Z</time>
      </trkpt>
      <trkpt lat="47.77501" lon="7.2811">
        <ele>250.6</ele>
        <time>2019-08-16T09:03:58Z</time>
      </trkpt>
      <trkpt lat="47.77497" lon="7.28108">
        <ele>250.7</ele>
        <time>2019-08-16T09:03:59Z</time>
      </trkpt>
      <trkpt lat="47.77493" lon="7.28106">
        <ele>250.9</ele>
        <time>2019-08-16T09:04:00Z</time>
      </trkpt>
      <trkpt lat="47.77489" lon="7.28104">
        <ele>251</ele>
        <time>2019-08-16T09:04:01Z</time>
      </trkpt>
      <trkpt lat="47.77485" lon="7.28102">
        <ele>251.2</ele>
        <time>2019-08-16T09:04:02Z</time>
      </trkpt>
      <trkpt lat="47.7748" lon="7.281">
        <ele>251.4</ele>
        <time>2019-08-16T09:04:03Z</time>
      </trkpt>
      <trkpt lat="47.77476" lon="7.28098">
        <ele>251.5</ele>
        <time>2019-08-16T09:04:04Z</time>
      </trkpt>
      <trkpt lat="47.77472" lon="7.28097">
        <ele>251.6</ele>
        <time>2019-08-16T09:04:05Z</time>
      </trkpt>
      <trkpt lat="47.77468" lon="7.28096">
        <ele>251.7</ele>
        <time>2019-08-16T09:04:06Z</time>
      </trkpt>
      <trkpt lat="47.77464" lon="7.28094">
        <ele>251.8</ele>
        <time>2019-08-16T09:04:07Z</time>
      </trkpt>
      <trkpt lat="47.77461" lon="7.28093">
        <ele>252</ele>
        <time>2019-08-16T09:04:08Z</time>
      </trkpt>
      <trkpt lat="47.77457" lon="7.28092">
        <ele>252.1</ele>
        <time>2019-08-16T09:04:09Z</time>
      </trkpt>
      <trkpt lat="47.77452" lon="7.2809">
        <ele>252.3</ele>
        <time>2019-08-16T09:04:10Z</time>
      </trkpt>
      <trkpt lat="47.77447" lon="7.28089">
        <ele>252.4</ele>
        <time>2019-08-16T09:04:11Z</time>
      </trkpt>
      <trkpt lat="47.77442" lon="7.28087">
        <ele>252.5</ele>
        <time>2019-08-16T09:04:12Z</time>
      </trkpt>
      <trkpt lat="47.77438" lon="7.28086">
        <ele>252.7</ele>
        <time>2019-08-16T09:04:13Z</time>
      </trkpt>
      <trkpt lat="47.77434" lon="7.28085">
        <ele>252.8</ele>
        <time>2019-08-16T09:04:14Z</time>
      </trkpt>
      <trkpt lat="47.7743" lon="7.28084">
        <ele>252.9</ele>
        <time>2019-08-16T09:04:15Z</time>
      </trkpt>
      <trkpt lat="47.77427" lon="7.28083">
        <ele>253</ele>
        <time>2019-08-16T09:04:16Z</time>
      </trkpt>
      <trkpt lat="47.77422" lon="7.28082">
        <ele>253.1</ele>
        <time>2019-08-16T09:04:17Z</time>
      </trkpt>
      <trkpt lat="47.77418" lon="7.28081">
        <ele>253.2</ele>
        <time>2019-08-16T09:04:18Z</time>
      </trkpt>
      <trkpt lat="47.77414" lon="7.28081">
        <ele>253.3</ele>
        <time>2019-08-16T09:04:19Z</time>
      </trkpt>
      <trkpt lat="47.7741" lon="7.2808">
        <ele>253.3</ele>
        <time>2019-08-16T09:04:20Z</time>
      </trkpt>
      <trkpt lat="47.77406" lon="7.2808">
        <ele>253.4</ele>
        <time>2019-08-16T09:04:21Z</time>
      </trkpt>
      <trkpt lat="47.77401" lon="7.28079">
        <ele>253.4</ele>
        <time>2019-08-16T09:04:22Z</time>
      </trkpt>
      <trkpt lat="47.77397" lon="7.28078">
        <ele>253.3</ele>
        <time>2019-08-16T09:04:23Z</time>
      </trkpt>
      <trkpt lat="47.77393" lon="7.28077">
        <ele>253.3</ele>
        <time>2019-08-16T09:04:24Z</time>
      </trkpt>
      <trkpt lat="47.7739" lon="7.28077">
        <ele>253.3</ele>
        <time>2019-08-16T09:04:25Z</time>
      </trkpt>
      <trkpt lat="47.77386" lon="7.28076">
        <ele>253.3</ele>
        <time>2019-08-16T09:04:26Z</time>
      </trkpt>
      <trkpt lat="47.77382" lon="7.28076">
        <ele>253.2</ele>
        <time>2019-08-16T09:04:27Z</time>
      </trkpt>
      <trkpt lat="47.77378" lon="7.28076">
        <ele>253.2</ele>
        <time>2019-08-16T09:04:28Z</time>
      </trkpt>
      <trkpt lat="47.77373" lon="7.28075">
        <ele>253.1</ele>
        <time>2019-08-16T09:04:29Z</time>
      </trkpt>
      <trkpt lat="47.77369" lon="7.28075">
        <ele>253.1</ele>
        <time>2019-08-16T09:04:30Z</time>
      </trkpt>
      <trkpt lat="47.77365" lon="7.28076">
        <ele>253.1</ele>
        <time>2019-08-16T09:04:31Z</time>
      </trkpt>
      <trkpt lat="47.77361" lon="7.28076">
        <ele>253.1</ele>
        <time>2019-08-16T09:04:32Z</time>
      </trkpt>
      <trkpt lat="47.77357" lon="7.28076">
        <ele>253.1</ele>
        <time>2019-08-16T09:04:33Z</time>
      </trkpt>
      <trkpt lat="47.77353" lon="7.28076">
        <ele>253.1</ele>
        <time>2019-08-16T09:04:34Z</time>
      </trkpt>
      <trkpt lat="47.77349" lon="7.28075">
        <ele>253.1</ele>
        <time>2019-08-16T09:04:35Z</time>
      </trkpt>
      <trkpt lat="47.77345" lon="7.28074">
        <ele>253.1</ele>
        <time>2019-08-16T09:04:36Z</time>
      </trkpt>
      <trkpt lat="47.77341" lon="7.28072">
        <ele>253.1</ele>
        <time>2019-08-16T09:04:37Z</time>
      </trkpt>
      <trkpt lat="47.77336" lon="7.28071">
        <ele>253</ele>
        <time>2019-08-16T09:04:38Z</time>
      </trkpt>
      <trkpt lat="47.77332" lon="7.28071">
        <ele>253</ele>
        <time>2019-08-16T09:04:39Z</time>
      </trkpt>
      <trkpt lat="47.77328" lon="7.2807">
        <ele>253</ele>
        <time>2019-08-16T09:04:40Z</time>
      </trkpt>
      <trkpt lat="47.77323" lon="7.2807">
        <ele>253</ele>
        <time>2019-08-16T09:04:41Z</time>
      </trkpt>
      <trkpt lat="47.77319" lon="7.28069">
        <ele>253</ele>
        <time>2019-08-16T09:04:42Z</time>
      </trkpt>
      <trkpt lat="47.77315" lon="7.28068">
        <ele>252.9</ele>
        <time>2019-08-16T09:04:43Z</time>
      </trkpt>
      <trkpt lat="47.77311" lon="7.28068">
        <ele>252.9</ele>
        <time>2019-08-16T09:04:44Z</time>
      </trkpt>
      <trkpt lat="47.77307" lon="7.28067">
        <ele>253</ele>
        <time>2019-08-16T09:04:45Z</time>
      </trkpt>
      <trkpt lat="47.77303" lon="7.28067">
        <ele>253</ele>
        <time>2019-08-16T09:04:46Z</time>
      </trkpt>
      <trkpt lat="47.773" lon="7.28066">
        <ele>253</ele>
        <time>2019-08-16T09:04:47Z</time>
      </trkpt>
      <trkpt lat="47.77297" lon="7.28065">
        <ele>253.1</ele>
        <time>2019-08-16T09:04:48Z</time>
      </trkpt>
      <trkpt lat="47.77294" lon="7.28064">
        <ele>253.1</ele>
        <time>2019-08-16T09:04:49Z</time>
      </trkpt>
      <trkpt lat="47.77289" lon="7.28062">
        <ele>253.2</ele>
        <time>2019-08-16T09:04:50Z</time>
      </trkpt>
      <trkpt lat="47.77284" lon="7.2806">
        <ele>253.2</ele>
        <time>2019-08-16T09:04:51Z</time>
      </trkpt>
      <trkpt lat="47.7728" lon="7.28059">
        <ele>253.2</ele>
        <time>2019-08-16T09:04:52Z</time>
      </trkpt>
      <trkpt lat="47.77275" lon="7.28058">
        <ele>253.2</ele>
        <time>2019-08-16T09:04:53Z</time>
      </trkpt>
      <trkpt lat="47.77271" lon="7.28058">
        <ele>253.2</ele>
        <time>2019-08-16T09:04:54Z</time>
      </trkpt>
      <trkpt lat="47.77265" lon="7.28059">
        <ele>253.1</ele>
        <time>2019-08-16T09:04:55Z</time>
      </trkpt>
      <trkpt lat="47.7726" lon="7.28059">
        <ele>253.1</ele>
        <time>2019-08-16T09:04:56Z</time>
      </trkpt>
      <trkpt lat="47.77256" lon="7.2806">
        <ele>253.1</ele>
        <time>2019-08-16T09:04:57Z</time>
      </trkpt>
      <trkpt lat="47.77252" lon="7.2806">
        <ele>253</ele>
        <time>2019-08-16T09:04:58Z</time>
      </trkpt>
      <trkpt lat="47.77247" lon="7.2806">
        <ele>253</ele>
        <time>2019-08-16T09:04:59Z</time>
      </trkpt>
      <trkpt lat="47.77243" lon="7.28059">
        <ele>253</ele>
        <time>2019-08-16T09:05:00Z</time>
      </trkpt>
      <trkpt lat="47.7724" lon="7.2806">
        <ele>252.9</ele>
        <time>2019-08-16T09:05:01Z</time>
      </trkpt>
      <trkpt lat="47.77236" lon="7.2806">
        <ele>252.9</ele>
        <time>2019-08-16T09:05:02Z</time>
      </trkpt>
      <trkpt lat="47.77231" lon="7.2806">
        <ele>252.8</ele>
        <time>2019-08-16T09:05:03Z</time>
      </trkpt>
      <trkpt lat="47.77226" lon="7.2806">
        <ele>252.8</ele>
        <time>2019-08-16T09:05:04Z</time>
      </trkpt>
      <trkpt lat="47.77222" lon="7.28059">
        <ele>252.8</ele>
        <time>2019-08-16T09:05:05Z</time>
      </trkpt>
      <trkpt lat="47.77217" lon="7.28058">
        <ele>252.7</ele>
        <time>2019-08-16T09:05:06Z</time>
      </trkpt>
      <trkpt lat="47.77212" lon="7.28057">
        <ele>252.7</ele>
        <time>2019-08-16T09:05:07Z</time>
      </trkpt>
      <trkpt lat="47.77207" lon="7.28056">
        <ele>252.7</ele>
        <time>2019-08-16T09:05:08Z</time>
      </trkpt>
      <trkpt lat="47.77203" lon="7.28056">
        <ele>252.7</ele>
        <time>2019-08-16T09:05:09Z</time>
      </trkpt>
      <trkpt lat="47.77198" lon="7.28054">
        <ele>252.7</ele>
        <time>2019-08-16T09:05:10Z</time>
      </trkpt>
      <trkpt lat="47.77193" lon="7.28053">
        <ele>252.7</ele>
        <time>2019-08-16T09:05:11Z</time>
      </trkpt>
      <trkpt lat="47.77189" lon="7.28052">
        <ele>252.8</ele>
        <time>2019-08-16T09:05:12Z</time>
      </trkpt>
      <trkpt lat="47.77184" lon="7.28051">
        <ele>252.8</ele>
        <time>2019-08-16T09:05:13Z</time>
      </trkpt>
      <trkpt lat="47.77178" lon="7.28049">
        <ele>252.8</ele>
        <time>2019-08-16T09:05:14Z</time>
      </trkpt>
      <trkpt lat="47.77173" lon="7.28047">
        <ele>252.8</ele>
        <time>2019-08-16T09:05:15Z</time>
      </trkpt>
      <trkpt lat="47.77168" lon="7.28047">
        <ele>252.8</ele>
        <time>2019-08-16T09:05:16Z</time>
      </trkpt>
      <trkpt lat="47.77162" lon="7.28047">
        <ele>252.8</ele>
        <time>2019-08-16T09:05:17Z</time>
      </trkpt>
      <trkpt lat="47.77158" lon="7.28046">
        <ele>252.8</ele>
        <time>2019-08-16T09:05:18Z</time>
      </trkpt>
      <trkpt lat="47.77153" lon="7.28045">
        <ele>252.8</ele>
        <time>2019-08-16T09:05:19Z</time>
      </trkpt>
      <trkpt lat="47.77149" lon="7.28044">
        <ele>252.8</ele>
        <time>2019-08-16T09:05:20Z</time>
      </trkpt>
      <trkpt lat="47.77145" lon="7.28044">
        <ele>252.8</ele>
        <time>2019-08-16T09:05:21Z</time>
      </trkpt>
      <trkpt lat="47.77141" lon="7.28044">
        <ele>252.8</ele>
        <time>2019-08-16T09:05:22Z</time>
      </trkpt>
      <trkpt lat="47.77137" lon="7.28042">
        <ele>252.8</ele>
        <time>2019-08-16T09:05:23Z</time>
      </trkpt>
      <trkpt lat="47.77133" lon="7.28041">
        <ele>252.8</ele>
        <time>2019-08-16T09:05:24Z</time>
      </trkpt>
      <trkpt lat="47.7713" lon="7.2804">
        <ele>252.8</ele>
        <time>2019-08-16T09:05:25Z</time>
      </trkpt>
      <trkpt lat="47.77126" lon="7.28038">
        <ele>252.7</ele>
        <time>2019-08-16T09:05:26Z</time>
      </trkpt>
      <trkpt lat="47.77121" lon="7.28037">
        <ele>252.7</ele>
        <time>2019-08-16T09:05:27Z</time>
      </trkpt>
      <trkpt lat="47.77118" lon="7.28035">
        <ele>252.7</ele>
        <time>2019-08-16T09:05:28Z</time>
      </trkpt>
      <trkpt lat="47.77114" lon="7.28033">
        <ele>252.7</ele>
        <time>2019-08-16T09:05:29Z</time>
      </trkpt>
      <trkpt lat="47.7711" lon="7.28031">
        <ele>252.7</ele>
        <time>2019-08-16T09:05:30Z</time>
      </trkpt>
      <trkpt lat="47.77107" lon="7.2803">
        <ele>252.7</ele>
        <time>2019-08-16T09:05:31Z</time>
      </trkpt>
      <trkpt lat="47.77103" lon="7.28028">
        <ele>252.7</ele>
        <time>2019-08-16T09:05:32Z</time>
      </trkpt>
      <trkpt lat="47.77099" lon="7.28027">
        <ele>252.7</ele>
        <time>2019-08-16T09:05:33Z</time>
      </trkpt>
      <trkpt lat="47.77094" lon="7.28026">
        <ele>252.7</ele>
        <time>2019-08-16T09:05:34Z</time>
      </trkpt>
      <trkpt lat="47.7709" lon="7.28026">
        <ele>252.7</ele>
        <time>2019-08-16T09:05:35Z</time>
      </trkpt>
      <trkpt lat="47.77086" lon="7.28026">
        <ele>252.7</ele>
        <time>2019-08-16T09:05:36Z</time>
      </trkpt>
      <trkpt lat="47.77082" lon="7.28025">
        <ele>252.7</ele>
        <time>2019-08-16T09:05:37Z</time>
      </trkpt>
      <trkpt lat="47.77078" lon="7.28024">
        <ele>252.7</ele>
        <time>2019-08-16T09:05:38Z</time>
      </trkpt>
      <trkpt lat="47.77073" lon="7.28023">
        <ele>252.7</ele>
        <time>2019-08-16T09:05:39Z</time>
      </trkpt>
      <trkpt lat="47.77069" lon="7.28021">
        <ele>252.7</ele>
        <time>2019-08-16T09:05:40Z</time>
      </trkpt>
      <trkpt lat="47.77066" lon="7.2802">
        <ele>252.8</ele>
        <time>2019-08-16T09:05:41Z</time>
      </trkpt>
      <trkpt lat="47.77062" lon="7.28019">
        <ele>252.8</ele>
        <time>2019-08-16T09:05:42Z</time>
      </trkpt>
      <trkpt lat="47.77058" lon="7.28016">
        <ele>252.8</ele>
        <time>2019-08-16T09:05:43Z</time>
      </trkpt>
      <trkpt lat="47.77053" lon="7.28015">
        <ele>252.8</ele>
        <time>2019-08-16T09:05:44Z</time>
      </trkpt>
      <trkpt lat="47.77048" lon="7.28015">
        <ele>252.8</ele>
        <time>2019-08-16T09:05:45Z</time>
      </trkpt>
      <trkpt lat="47.77043" lon="7.28014">
        <ele>252.8</ele>
        <time>2019-08-16T09:05:46Z</time>
      </trkpt>
      <trkpt lat="47.77038" lon="7.28014">
        <ele>252.8</ele>
        <time>2019-08-16T09:05:47Z</time>
      </trkpt>
      <trkpt lat="47.77034" lon="7.28013">
        <ele>252.8</ele>
        <time>2019-08-16T09:05:48Z</time>
      </trkpt>
      <trkpt lat="47.7703" lon="7.28012">
        <ele>252.8</ele>
        <time>2019-08-16T09:05:49Z</time>
      </trkpt>
      <trkpt lat="47.77025" lon="7.28011">
        <ele>252.8</ele>
        <time>2019-08-16T09:05:50Z</time>
      </trkpt>
      <trkpt lat="47.77021" lon="7.28011">
        <ele>252.8</ele>
        <time>2019-08-16T09:05:51Z</time>
      </trkpt>
      <trkpt lat="47.77016" lon="7.28012">
        <ele>252.8</ele>
        <time>2019-08-16T09:05:52Z</time>
      </trkpt>
      <trkpt lat="47.77012" lon="7.28011">
        <ele>252.8</ele>
        <time>2019-08-16T09:05:53Z</time>
      </trkpt>
      <trkpt lat="47.77007" lon="7.2801">
        <ele>252.7</ele>
        <time>2019-08-16T09:05:54Z</time>
      </trkpt>
      <trkpt lat="47.77004" lon="7.28009">
        <ele>252.7</ele>
        <time>2019-08-16T09:05:55Z</time>
      </trkpt>
      <trkpt lat="47.76999" lon="7.28008">
        <ele>252.7</ele>
        <time>2019-08-16T09:05:56Z</time>
      </trkpt>
      <trkpt lat="47.76995" lon="7.28007">
        <ele>252.7</ele>
        <time>2019-08-16T09:05:57Z</time>
      </trkpt>
      <trkpt lat="47.7699" lon="7.28007">
        <ele>252.7</ele>
        <time>2019-08-16T09:05:58Z</time>
      </trkpt>
      <trkpt lat="47.76986" lon="7.28006">
        <ele>252.6</ele>
        <time>2019-08-16T09:05:59Z</time>
      </trkpt>
      <trkpt lat="47.76982" lon="7.28006">
        <ele>252.6</ele>
        <time>2019-08-16T09:06:00Z</time>
      </trkpt>
      <trkpt lat="47.76979" lon="7.28006">
        <ele>252.6</ele>
        <time>2019-08-16T09:06:01Z</time>
      </trkpt>
      <trkpt lat="47.76976" lon="7.28007">
        <ele>252.6</ele>
        <time>2019-08-16T09:06:02Z</time>
      </trkpt>
      <trkpt lat="47.76972" lon="7.28007">
        <ele>252.6</ele>
        <time>2019-08-16T09:06:03Z</time>
      </trkpt>
      <trkpt lat="47.76969" lon="7.28008">
        <ele>252.6</ele>
        <time>2019-08-16T09:06:04Z</time>
      </trkpt>
      <trkpt lat="47.76965" lon="7.28008">
        <ele>252.6</ele>
        <time>2019-08-16T09:06:05Z</time>
      </trkpt>
      <trkpt lat="47.76961" lon="7.28008">
        <ele>252.6</ele>
        <time>2019-08-16T09:06:06Z</time>
      </trkpt>
      <trkpt lat="47.76957" lon="7.28007">
        <ele>252.6</ele>
        <time>2019-08-16T09:06:07Z</time>
      </trkpt>
      <trkpt lat="47.76953" lon="7.28006">
        <ele>252.6</ele>
        <time>2019-08-16T09:06:08Z</time>
      </trkpt>
      <trkpt lat="47.76948" lon="7.28006">
        <ele>252.6</ele>
        <time>2019-08-16T09:06:09Z</time>
      </trkpt>
      <trkpt lat="47.76945" lon="7.28005">
        <ele>252.7</ele>
        <time>2019-08-16T09:06:10Z</time>
      </trkpt>
      <trkpt lat="47.76941" lon="7.28007">
        <ele>252.7</ele>
        <time>2019-08-16T09:06:11Z</time>
      </trkpt>
      <trkpt lat="47.76937" lon="7.28006">
        <ele>252.8</ele>
        <time>2019-08-16T09:06:12Z</time>
      </trkpt>
      <trkpt lat="47.76933" lon="7.28006">
        <ele>252.8</ele>
        <time>2019-08-16T09:06:13Z</time>
      </trkpt>
      <trkpt lat="47.76929" lon="7.28005">
        <ele>252.9</ele>
        <time>2019-08-16T09:06:14Z</time>
      </trkpt>
      <trkpt lat="47.76926" lon="7.28004">
        <ele>252.9</ele>
        <time>2019-08-16T09:06:15Z</time>
      </trkpt>
      <trkpt lat="47.76922" lon="7.28003">
        <ele>253</ele>
        <time>2019-08-16T09:06:16Z</time>
      </trkpt>
      <trkpt lat="47.7692" lon="7.28001">
        <ele>253</ele>
        <time>2019-08-16T09:06:17Z</time>
      </trkpt>
      <trkpt lat="47.76917" lon="7.28">
        <ele>253.1</ele>
        <time>2019-08-16T09:06:18Z</time>
      </trkpt>
      <trkpt lat="47.76913" lon="7.27999">
        <ele>253.1</ele>
        <time>2019-08-16T09:06:19Z</time>
      </trkpt>
      <trkpt lat="47.7691" lon="7.27998">
        <ele>253.1</ele>
        <time>2019-08-16T09:06:20Z</time>
      </trkpt>
      <trkpt lat="47.76907" lon="7.27996">
        <ele>253.2</ele>
        <time>2019-08-16T09:06:21Z</time>
      </trkpt>
      <trkpt lat="47.76903" lon="7.27995">
        <ele>253.2</ele>
        <time>2019-08-16T09:06:22Z</time>
      </trkpt>
      <trkpt lat="47.76898" lon="7.27994">
        <ele>253.2</ele>
        <time>2019-08-16T09:06:23Z</time>
      </trkpt>
      <trkpt lat="47.76894" lon="7.27993">
        <ele>253.1</ele>
        <time>2019-08-16T09:06:24Z</time>
      </trkpt>
      <trkpt lat="47.7689" lon="7.27992">
        <ele>253.1</ele>
        <time>2019-08-16T09:06:25Z</time>
      </trkpt>
      <trkpt lat="47.76886" lon="7.27991">
        <ele>253.1</ele>
        <time>2019-08-16T09:06:26Z</time>
      </trkpt>
      <trkpt lat="47.76882" lon="7.27991">
        <ele>253</ele>
        <time>2019-08-16T09:06:27Z</time>
      </trkpt>
      <trkpt lat="47.76878" lon="7.27991">
        <ele>252.9</ele>
        <time>2019-08-16T09:06:28Z</time>
      </trkpt>
      <trkpt lat="47.76873" lon="7.27992">
        <ele>252.9</ele>
        <time>2019-08-16T09:06:29Z</time>
      </trkpt>
      <trkpt lat="47.76869" lon="7.27993">
        <ele>252.8</ele>
        <time>2019-08-16T09:06:30Z</time>
      </trkpt>
      <trkpt lat="47.76864" lon="7.27993">
        <ele>252.7</ele>
        <time>2019-08-16T09:06:31Z</time>
      </trkpt>
      <trkpt lat="47.7686" lon="7.27993">
        <ele>252.6</ele>
        <time>2019-08-16T09:06:32Z</time>
      </trkpt>
      <trkpt lat="47.76854" lon="7.27992">
        <ele>252.6</ele>
        <time>2019-08-16T09:06:33Z</time>
      </trkpt>
      <trkpt lat="47.76849" lon="7.27991">
        <ele>252.5</ele>
        <time>2019-08-16T09:06:34Z</time>
      </trkpt>
      <trkpt lat="47.76844" lon="7.2799">
        <ele>252.5</ele>
        <time>2019-08-16T09:06:35Z</time>
      </trkpt>
      <trkpt lat="47.76839" lon="7.2799">
        <ele>252.4</ele>
        <time>2019-08-16T09:06:36Z</time>
      </trkpt>
      <trkpt lat="47.76834" lon="7.27989">
        <ele>252.4</ele>
        <time>2019-08-16T09:06:37Z</time>
      </trkpt>
      <trkpt lat="47.76828" lon="7.27988">
        <ele>252.4</ele>
        <time>2019-08-16T09:06:38Z</time>
      </trkpt>
      <trkpt lat="47.76823" lon="7.27988">
        <ele>252.4</ele>
        <time>2019-08-16T09:06:39Z</time>
      </trkpt>
      <trkpt lat="47.76818" lon="7.27989">
        <ele>252.4</ele>
        <time>2019-08-16T09:06:40Z</time>
      </trkpt>
      <trkpt lat="47.76813" lon="7.27987">
        <ele>252.4</ele>
        <time>2019-08-16T09:06:41Z</time>
      </trkpt>
      <trkpt lat="47.76809" lon="7.27987">
        <ele>252.4</ele>
        <time>2019-08-16T09:06:42Z</time>
      </trkpt>
      <trkpt lat="47.76805" lon="7.27985">
        <ele>252.4</ele>
        <time>2019-08-16T09:06:43Z</time>
      </trkpt>
      <trkpt lat="47.768" lon="7.27984">
        <ele>252.5</ele>
        <time>2019-08-16T09:06:44Z</time>
      </trkpt>
      <trkpt lat="47.76796" lon="7.27981">
        <ele>252.5</ele>
        <time>2019-08-16T09:06:45Z</time>
      </trkpt>
      <trkpt lat="47.76791" lon="7.27979">
        <ele>252.5</ele>
        <time>2019-08-16T09:06:46Z</time>
      </trkpt>
      <trkpt lat="47.76786" lon="7.27978">
        <ele>252.6</ele>
        <time>2019-08-16T09:06:47Z</time>
      </trkpt>
      <trkpt lat="47.76782" lon="7.27976">
        <ele>252.6</ele>
        <time>2019-08-16T09:06:48Z</time>
      </trkpt>
      <trkpt lat="47.76777" lon="7.27976">
        <ele>252.7</ele>
        <time>2019-08-16T09:06:49Z</time>
      </trkpt>
      <trkpt lat="47.76773" lon="7.27977">
        <ele>252.7</ele>
        <time>2019-08-16T09:06:50Z</time>
      </trkpt>
      <trkpt lat="47.76768" lon="7.27978">
        <ele>252.7</ele>
        <time>2019-08-16T09:06:51Z</time>
      </trkpt>
      <trkpt lat="47.76763" lon="7.2798">
        <ele>252.8</ele>
        <time>2019-08-16T09:06:52Z</time>
      </trkpt>
      <trkpt lat="47.76758" lon="7.2798">
        <ele>252.8</ele>
        <time>2019-08-16T09:06:53Z</time>
      </trkpt>
      <trkpt lat="47.76754" lon="7.2798">
        <ele>252.8</ele>
        <time>2019-08-16T09:06:54Z</time>
      </trkpt>
      <trkpt lat="47.7675" lon="7.2798">
        <ele>252.8</ele>
        <time>2019-08-16T09:06:55Z</time>
      </trkpt>
      <trkpt lat="47.76745" lon="7.2798">
        <ele>252.8</ele>
        <time>2019-08-16T09:06:56Z</time>
      </trkpt>
      <trkpt lat="47.76739" lon="7.27978">
        <ele>252.8</ele>
        <time>2019-08-16T09:06:57Z</time>
      </trkpt>
      <trkpt lat="47.76734" lon="7.27977">
        <ele>252.9</ele>
        <time>2019-08-16T09:06:58Z</time>
      </trkpt>
      <trkpt lat="47.76729" lon="7.27975">
        <ele>252.9</ele>
        <time>2019-08-16T09:06:59Z</time>
      </trkpt>
      <trkpt lat="47.76724" lon="7.27973">
        <ele>252.9</ele>
        <time>2019-08-16T09:07:00Z</time>
      </trkpt>
      <trkpt lat="47.76719" lon="7.27972">
        <ele>252.9</ele>
        <time>2019-08-16T09:07:01Z</time>
      </trkpt>
      <trkpt lat="47.76715" lon="7.2797">
        <ele>253</ele>
        <time>2019-08-16T09:07:02Z</time>
      </trkpt>
      <trkpt lat="47.76711" lon="7.27969">
        <ele>253</ele>
        <time>2019-08-16T09:07:03Z</time>
      </trkpt>
      <trkpt lat="47.76707" lon="7.27969">
        <ele>253</ele>
        <time>2019-08-16T09:07:04Z</time>
      </trkpt>
      <trkpt lat="47.76702" lon="7.27969">
        <ele>253.1</ele>
        <time>2019-08-16T09:07:05Z</time>
      </trkpt>
      <trkpt lat="47.76698" lon="7.27968">
        <ele>253.1</ele>
        <time>2019-08-16T09:07:06Z</time>
      </trkpt>
      <trkpt lat="47.76694" lon="7.27968">
        <ele>253.1</ele>
        <time>2019-08-16T09:07:07Z</time>
      </trkpt>
      <trkpt lat="47.76689" lon="7.27968">
        <ele>253.2</ele>
        <time>2019-08-16T09:07:08Z</time>
      </trkpt>
      <trkpt lat="47.76686" lon="7.27969">
        <ele>253.2</ele>
        <time>2019-08-16T09:07:09Z</time>
      </trkpt>
      <trkpt lat="47.76682" lon="7.2797">
        <ele>253.2</ele>
        <time>2019-08-16T09:07:10Z</time>
      </trkpt>
      <trkpt lat="47.76679" lon="7.2797">
        <ele>253.2</ele>
        <time>2019-08-16T09:07:11Z</time>
      </trkpt>
      <trkpt lat="47.76675" lon="7.27971">
        <ele>253.3</ele>
        <time>2019-08-16T09:07:12Z</time>
      </trkpt>
      <trkpt lat="47.76671" lon="7.27971">
        <ele>253.3</ele>
        <time>2019-08-16T09:07:13Z</time>
      </trkpt>
      <trkpt lat="47.76667" lon="7.27971">
        <ele>253.3</ele>
        <time>2019-08-16T09:07:14Z</time>
      </trkpt>
      <trkpt lat="47.76664" lon="7.27971">
        <ele>253.3</ele>
        <time>2019-08-16T09:07:15Z</time>
      </trkpt>
      <trkpt lat="47.76659" lon="7.27971">
        <ele>253.3</ele>
        <time>2019-08-16T09:07:16Z</time>
      </trkpt>
      <trkpt lat="47.76654" lon="7.27971">
        <ele>253.3</ele>
        <time>2019-08-16T09:07:17Z</time>
      </trkpt>
      <trkpt lat="47.76648" lon="7.27969">
        <ele>253.3</ele>
        <time>2019-08-16T09:07:18Z</time>
      </trkpt>
      <trkpt lat="47.76642" lon="7.27968">
        <ele>253.3</ele>
        <time>2019-08-16T09:07:19Z</time>
      </trkpt>
      <trkpt lat="47.76636" lon="7.27968">
        <ele>253.3</ele>
        <time>2019-08-16T09:07:20Z</time>
      </trkpt>
      <trkpt lat="47.76631" lon="7.27968">
        <ele>253.2</ele>
        <time>2019-08-16T09:07:21Z</time>
      </trkpt>
      <trkpt lat="47.76625" lon="7.27967">
        <ele>253.1</ele>
        <time>2019-08-16T09:07:22Z</time>
      </trkpt>
      <trkpt lat="47.7662" lon="7.27966">
        <ele>253</ele>
        <time>2019-08-16T09:07:23Z</time>
      </trkpt>
      <trkpt lat="47.76614" lon="7.27965">
        <ele>252.9</ele>
        <time>2019-08-16T09:07:24Z</time>
      </trkpt>
      <trkpt lat="47.76609" lon="7.27964">
        <ele>252.8</ele>
        <time>2019-08-16T09:07:25Z</time>
      </trkpt>
      <trkpt lat="47.76605" lon="7.27964">
        <ele>252.7</ele>
        <time>2019-08-16T09:07:26Z</time>
      </trkpt>
      <trkpt lat="47.76602" lon="7.27964">
        <ele>252.7</ele>
        <time>2019-08-16T09:07:27Z</time>
      </trkpt>
      <trkpt lat="47.76597" lon="7.27964">
        <ele>252.6</ele>
        <time>2019-08-16T09:07:29Z</time>
      </trkpt>
      <trkpt lat="47.76594" lon="7.27964">
        <ele>252.5</ele>
        <time>2019-08-16T09:07:31Z</time>
      </trkpt>
      <trkpt lat="47.7659" lon="7.27962">
        <ele>252.5</ele>
        <time>2019-08-16T09:07:33Z</time>
      </trkpt>
      <trkpt lat="47.76587" lon="7.27961">
        <ele>252.4</ele>
        <time>2019-08-16T09:07:34Z</time>
      </trkpt>
      <trkpt lat="47.76584" lon="7.2796">
        <ele>252.4</ele>
        <time>2019-08-16T09:07:35Z</time>
      </trkpt>
      <trkpt lat="47.7658" lon="7.2796">
        <ele>252.4</ele>
        <time>2019-08-16T09:07:36Z</time>
      </trkpt>
      <trkpt lat="47.76575" lon="7.2796">
        <ele>252.3</ele>
        <time>2019-08-16T09:07:37Z</time>
      </trkpt>
      <trkpt lat="47.76571" lon="7.27959">
        <ele>252.3</ele>
        <time>2019-08-16T09:07:38Z</time>
      </trkpt>
      <trkpt lat="47.76567" lon="7.27959">
        <ele>252.3</ele>
        <time>2019-08-16T09:07:39Z</time>
      </trkpt>
      <trkpt lat="47.76563" lon="7.27959">
        <ele>252.4</ele>
        <time>2019-08-16T09:07:40Z</time>
      </trkpt>
      <trkpt lat="47.76558" lon="7.27958">
        <ele>252.4</ele>
        <time>2019-08-16T09:07:41Z</time>
      </trkpt>
      <trkpt lat="47.76554" lon="7.27957">
        <ele>252.4</ele>
        <time>2019-08-16T09:07:42Z</time>
      </trkpt>
      <trkpt lat="47.76549" lon="7.27956">
        <ele>252.5</ele>
        <time>2019-08-16T09:07:43Z</time>
      </trkpt>
      <trkpt lat="47.76545" lon="7.27955">
        <ele>252.5</ele>
        <time>2019-08-16T09:07:44Z</time>
      </trkpt>
      <trkpt lat="47.76541" lon="7.27954">
        <ele>252.6</ele>
        <time>2019-08-16T09:07:45Z</time>
      </trkpt>
      <trkpt lat="47.76537" lon="7.27953">
        <ele>252.6</ele>
        <time>2019-08-16T09:07:46Z</time>
      </trkpt>
      <trkpt lat="47.76531" lon="7.27953">
        <ele>252.6</ele>
        <time>2019-08-16T09:07:47Z</time>
      </trkpt>
      <trkpt lat="47.76526" lon="7.27952">
        <ele>252.6</ele>
        <time>2019-08-16T09:07:48Z</time>
      </trkpt>
      <trkpt lat="47.76522" lon="7.27951">
        <ele>252.5</ele>
        <time>2019-08-16T09:07:49Z</time>
      </trkpt>
      <trkpt lat="47.76516" lon="7.27949">
        <ele>252.5</ele>
        <time>2019-08-16T09:07:50Z</time>
      </trkpt>
      <trkpt lat="47.76511" lon="7.27948">
        <ele>252.4</ele>
        <time>2019-08-16T09:07:51Z</time>
      </trkpt>
      <trkpt lat="47.76507" lon="7.27946">
        <ele>252.4</ele>
        <time>2019-08-16T09:07:52Z</time>
      </trkpt>
      <trkpt lat="47.76502" lon="7.27943">
        <ele>252.3</ele>
        <time>2019-08-16T09:07:53Z</time>
      </trkpt>
      <trkpt lat="47.76498" lon="7.27941">
        <ele>252.3</ele>
        <time>2019-08-16T09:07:54Z</time>
      </trkpt>
      <trkpt lat="47.76493" lon="7.27939">
        <ele>252.2</ele>
        <time>2019-08-16T09:07:55Z</time>
      </trkpt>
      <trkpt lat="47.76488" lon="7.27938">
        <ele>252.2</ele>
        <time>2019-08-16T09:07:56Z</time>
      </trkpt>
      <trkpt lat="47.76484" lon="7.27937">
        <ele>252.2</ele>
        <time>2019-08-16T09:07:57Z</time>
      </trkpt>
      <trkpt lat="47.76479" lon="7.27936">
        <ele>252.2</ele>
        <time>2019-08-16T09:07:58Z</time>
      </trkpt>
      <trkpt lat="47.76475" lon="7.27936">
        <ele>252.3</ele>
        <time>2019-08-16T09:07:59Z</time>
      </trkpt>
      <trkpt lat="47.7647" lon="7.27936">
        <ele>252.3</ele>
        <time>2019-08-16T09:08:00Z</time>
      </trkpt>
      <trkpt lat="47.76465" lon="7.27935">
        <ele>252.3</ele>
        <time>2019-08-16T09:08:01Z</time>
      </trkpt>
      <trkpt lat="47.76461" lon="7.27934">
        <ele>252.4</ele>
        <time>2019-08-16T09:08:02Z</time>
      </trkpt>
      <trkpt lat="47.76456" lon="7.27933">
        <ele>252.4</ele>
        <time>2019-08-16T09:08:03Z</time>
      </trkpt>
      <trkpt lat="47.76451" lon="7.27933">
        <ele>252.5</ele>
        <time>2019-08-16T09:08:04Z</time>
      </trkpt>
      <trkpt lat="47.76446" lon="7.27933">
        <ele>252.5</ele>
        <time>2019-08-16T09:08:05Z</time>
      </trkpt>
      <trkpt lat="47.76441" lon="7.27932">
        <ele>252.6</ele>
        <time>2019-08-16T09:08:06Z</time>
      </trkpt>
      <trkpt lat="47.76437" lon="7.27931">
        <ele>252.6</ele>
        <time>2019-08-16T09:08:07Z</time>
      </trkpt>
      <trkpt lat="47.76433" lon="7.27932">
        <ele>252.6</ele>
        <time>2019-08-16T09:08:08Z</time>
      </trkpt>
      <trkpt lat="47.7643" lon="7.27931">
        <ele>252.6</ele>
        <time>2019-08-16T09:08:09Z</time>
      </trkpt>
      <trkpt lat="47.76426" lon="7.27931">
        <ele>252.7</ele>
        <time>2019-08-16T09:08:10Z</time>
      </trkpt>
      <trkpt lat="47.76422" lon="7.27931">
        <ele>252.7</ele>
        <time>2019-08-16T09:08:11Z</time>
      </trkpt>
      <trkpt lat="47.76418" lon="7.2793">
        <ele>252.8</ele>
        <time>2019-08-16T09:08:12Z</time>
      </trkpt>
      <trkpt lat="47.76413" lon="7.2793">
        <ele>252.9</ele>
        <time>2019-08-16T09:08:13Z</time>
      </trkpt>
      <trkpt lat="47.76408" lon="7.2793">
        <ele>253</ele>
        <time>2019-08-16T09:08:14Z</time>
      </trkpt>
      <trkpt lat="47.76404" lon="7.27931">
        <ele>253</ele>
        <time>2019-08-16T09:08:15Z</time>
      </trkpt>
      <trkpt lat="47.76399" lon="7.2793">
        <ele>253.1</ele>
        <time>2019-08-16T09:08:16Z</time>
      </trkpt>
      <trkpt lat="47.76395" lon="7.2793">
        <ele>253.2</ele>
        <time>2019-08-16T09:08:17Z</time>
      </trkpt>
      <trkpt lat="47.76391" lon="7.27929">
        <ele>253.2</ele>
        <time>2019-08-16T09:08:18Z</time>
      </trkpt>
      <trkpt lat="47.76386" lon="7.27928">
        <ele>253.3</ele>
        <time>2019-08-16T09:08:19Z</time>
      </trkpt>
      <trkpt lat="47.76382" lon="7.27924">
        <ele>253.3</ele>
        <time>2019-08-16T09:08:20Z</time>
      </trkpt>
      <trkpt lat="47.76377" lon="7.27923">
        <ele>253.3</ele>
        <time>2019-08-16T09:08:21Z</time>
      </trkpt>
      <trkpt lat="47.76373" lon="7.27922">
        <ele>253.3</ele>
        <time>2019-08-16T09:08:22Z</time>
      </trkpt>
      <trkpt lat="47.7637" lon="7.27921">
        <ele>253.3</ele>
        <time>2019-08-16T09:08:23Z</time>
      </trkpt>
      <trkpt lat="47.76366" lon="7.2792">
        <ele>253.2</ele>
        <time>2019-08-16T09:08:24Z</time>
      </trkpt>
      <trkpt lat="47.76363" lon="7.27919">
        <ele>253.2</ele>
        <time>2019-08-16T09:08:25Z</time>
      </trkpt>
      <trkpt lat="47.7636" lon="7.27919">
        <ele>253.1</ele>
        <time>2019-08-16T09:08:26Z</time>
      </trkpt>
      <trkpt lat="47.76355" lon="7.27918">
        <ele>253.1</ele>
        <time>2019-08-16T09:08:28Z</time>
      </trkpt>
      <trkpt lat="47.76351" lon="7.27917">
        <ele>253</ele>
        <time>2019-08-16T09:08:29Z</time>
      </trkpt>
      <trkpt lat="47.76348" lon="7.27919">
        <ele>252.9</ele>
        <time>2019-08-16T09:08:30Z</time>
      </trkpt>
      <trkpt lat="47.76343" lon="7.27917">
        <ele>252.9</ele>
        <time>2019-08-16T09:08:31Z</time>
      </trkpt>
      <trkpt lat="47.76339" lon="7.27917">
        <ele>252.6</ele>
        <time>2019-08-16T09:08:32Z</time>
      </trkpt>
      <trkpt lat="47.76334" lon="7.27917">
        <ele>252.5</ele>
        <time>2019-08-16T09:08:33Z</time>
      </trkpt>
      <trkpt lat="47.76331" lon="7.27918">
        <ele>252.4</ele>
        <time>2019-08-16T09:08:34Z</time>
      </trkpt>
      <trkpt lat="47.76327" lon="7.27918">
        <ele>252.2</ele>
        <time>2019-08-16T09:08:35Z</time>
      </trkpt>
      <trkpt lat="47.76322" lon="7.27919">
        <ele>252.1</ele>
        <time>2019-08-16T09:08:36Z</time>
      </trkpt>
      <trkpt lat="47.76319" lon="7.27919">
        <ele>252</ele>
        <time>2019-08-16T09:08:37Z</time>
      </trkpt>
      <trkpt lat="47.76317" lon="7.27919">
        <ele>251.9</ele>
        <time>2019-08-16T09:08:38Z</time>
      </trkpt>
      <trkpt lat="47.7631" lon="7.27921">
        <ele>251.8</ele>
        <time>2019-08-16T09:08:40Z</time>
      </trkpt>
      <trkpt lat="47.76306" lon="7.27923">
        <ele>251.7</ele>
        <time>2019-08-16T09:08:42Z</time>
      </trkpt>
      <trkpt lat="47.76302" lon="7.27924">
        <ele>251.7</ele>
        <time>2019-08-16T09:08:45Z</time>
      </trkpt>
      <trkpt lat="47.763" lon="7.27928">
        <ele>251.6</ele>
        <time>2019-08-16T09:08:49Z</time>
      </trkpt>
      <trkpt lat="47.76298" lon="7.27933">
        <ele>251.5</ele>
        <time>2019-08-16T09:08:52Z</time>
      </trkpt>
      <trkpt lat="47.76295" lon="7.27936">
        <ele>251.7</ele>
        <time>2019-08-16T09:09:23Z</time>
      </trkpt>
      <trkpt lat="47.76293" lon="7.27939">
        <ele>252</ele>
        <time>2019-08-16T09:09:24Z</time>
      </trkpt>
      <trkpt lat="47.7629" lon="7.27945">
        <ele>252.4</ele>
        <time>2019-08-16T09:09:25Z</time>
      </trkpt>
      <trkpt lat="47.76288" lon="7.27947">
        <ele>252.6</ele>
        <time>2019-08-16T09:09:26Z</time>
      </trkpt>
      <trkpt lat="47.76284" lon="7.27952">
        <ele>252.9</ele>
        <time>2019-08-16T09:09:28Z</time>
      </trkpt>
      <trkpt lat="47.7628" lon="7.27957">
        <ele>253.4</ele>
        <time>2019-08-16T09:09:30Z</time>
      </trkpt>
      <trkpt lat="47.76275" lon="7.27962">
        <ele>253.8</ele>
        <time>2019-08-16T09:09:32Z</time>
      </trkpt>
      <trkpt lat="47.76273" lon="7.27965">
        <ele>254</ele>
        <time>2019-08-16T09:09:33Z</time>
      </trkpt>
      <trkpt lat="47.7627" lon="7.27967">
        <ele>254.2</ele>
        <time>2019-08-16T09:09:34Z</time>
      </trkpt>
      <trkpt lat="47.76268" lon="7.27969">
        <ele>254.3</ele>
        <time>2019-08-16T09:09:35Z</time>
      </trkpt>
      <trkpt lat="47.76266" lon="7.27972">
        <ele>254.5</ele>
        <time>2019-08-16T09:09:36Z</time>
      </trkpt>
      <trkpt lat="47.76263" lon="7.27975">
        <ele>254.6</ele>
        <time>2019-08-16T09:09:37Z</time>
      </trkpt>
      <trkpt lat="47.76261" lon="7.27978">
        <ele>254.8</ele>
        <time>2019-08-16T09:09:38Z</time>
      </trkpt>
      <trkpt lat="47.76258" lon="7.27981">
        <ele>254.9</ele>
        <time>2019-08-16T09:09:39Z</time>
      </trkpt>
      <trkpt lat="47.76256" lon="7.27983">
        <ele>255.1</ele>
        <time>2019-08-16T09:09:40Z</time>
      </trkpt>
      <trkpt lat="47.76254" lon="7.27986">
        <ele>255.3</ele>
        <time>2019-08-16T09:09:41Z</time>
      </trkpt>
      <trkpt lat="47.76251" lon="7.27989">
        <ele>255.4</ele>
        <time>2019-08-16T09:09:42Z</time>
      </trkpt>
      <trkpt lat="47.76249" lon="7.27992">
        <ele>255.6</ele>
        <time>2019-08-16T09:09:43Z</time>
      </trkpt>
      <trkpt lat="47.76247" lon="7.27995">
        <ele>255.8</ele>
        <time>2019-08-16T09:09:44Z</time>
      </trkpt>
      <trkpt lat="47.76242" lon="7.27999">
        <ele>256</ele>
        <time>2019-08-16T09:09:46Z</time>
      </trkpt>
      <trkpt lat="47.76239" lon="7.28">
        <ele>256.1</ele>
        <time>2019-08-16T09:09:47Z</time>
      </trkpt>
      <trkpt lat="47.76235" lon="7.28004">
        <ele>256.4</ele>
        <time>2019-08-16T09:09:49Z</time>
      </trkpt>
      <trkpt lat="47.76232" lon="7.28006">
        <ele>256.6</ele>
        <time>2019-08-16T09:09:50Z</time>
      </trkpt>
      <trkpt lat="47.76227" lon="7.28011">
        <ele>256.9</ele>
        <time>2019-08-16T09:09:52Z</time>
      </trkpt>
      <trkpt lat="47.76224" lon="7.28012">
        <ele>257.4</ele>
        <time>2019-08-16T09:09:53Z</time>
      </trkpt>
      <trkpt lat="47.76221" lon="7.28015">
        <ele>257.6</ele>
        <time>2019-08-16T09:09:54Z</time>
      </trkpt>
      <trkpt lat="47.76219" lon="7.28016">
        <ele>257.7</ele>
        <time>2019-08-16T09:09:55Z</time>
      </trkpt>
      <trkpt lat="47.76213" lon="7.28019">
        <ele>258</ele>
        <time>2019-08-16T09:09:57Z</time>
      </trkpt>
      <trkpt lat="47.76211" lon="7.2802">
        <ele>258.2</ele>
        <time>2019-08-16T09:09:58Z</time>
      </trkpt>
      <trkpt lat="47.76207" lon="7.2802">
        <ele>258.4</ele>
        <time>2019-08-16T09:09:59Z</time>
      </trkpt>
      <trkpt lat="47.76204" lon="7.28021">
        <ele>258.6</ele>
        <time>2019-08-16T09:10:00Z</time>
      </trkpt>
      <trkpt lat="47.76201" lon="7.28021">
        <ele>258.7</ele>
        <time>2019-08-16T09:10:01Z</time>
      </trkpt>
      <trkpt lat="47.76198" lon="7.28021">
        <ele>258.9</ele>
        <time>2019-08-16T09:10:02Z</time>
      </trkpt>
      <trkpt lat="47.76195" lon="7.28021">
        <ele>259</ele>
        <time>2019-08-16T09:10:03Z</time>
      </trkpt>
      <trkpt lat="47.76189" lon="7.28023">
        <ele>259.4</ele>
        <time>2019-08-16T09:10:05Z</time>
      </trkpt>
      <trkpt lat="47.76186" lon="7.28024">
        <ele>259.5</ele>
        <time>2019-08-16T09:10:06Z</time>
      </trkpt>
      <trkpt lat="47.76182" lon="7.28025">
        <ele>259.6</ele>
        <time>2019-08-16T09:10:08Z</time>
      </trkpt>
      <trkpt lat="47.76176" lon="7.28028">
        <ele>259.8</ele>
        <time>2019-08-16T09:10:10Z</time>
      </trkpt>
      <trkpt lat="47.76174" lon="7.28029">
        <ele>259.8</ele>
        <time>2019-08-16T09:10:11Z</time>
      </trkpt>
      <trkpt lat="47.76171" lon="7.28031">
        <ele>259.9</ele>
        <time>2019-08-16T09:10:12Z</time>
      </trkpt>
      <trkpt lat="47.76168" lon="7.28032">
        <ele>259.9</ele>
        <time>2019-08-16T09:10:13Z</time>
      </trkpt>
      <trkpt lat="47.76164" lon="7.28034">
        <ele>260</ele>
        <time>2019-08-16T09:10:14Z</time>
      </trkpt>
      <trkpt lat="47.76161" lon="7.28036">
        <ele>260</ele>
        <time>2019-08-16T09:10:15Z</time>
      </trkpt>
      <trkpt lat="47.76158" lon="7.28038">
        <ele>260.1</ele>
        <time>2019-08-16T09:10:16Z</time>
      </trkpt>
      <trkpt lat="47.76156" lon="7.2804">
        <ele>260.1</ele>
        <time>2019-08-16T09:10:17Z</time>
      </trkpt>
      <trkpt lat="47.7615" lon="7.28042">
        <ele>260</ele>
        <time>2019-08-16T09:10:19Z</time>
      </trkpt>
      <trkpt lat="47.76147" lon="7.28043">
        <ele>260</ele>
        <time>2019-08-16T09:10:20Z</time>
      </trkpt>
      <trkpt lat="47.76144" lon="7.28045">
        <ele>260</ele>
        <time>2019-08-16T09:10:21Z</time>
      </trkpt>
      <trkpt lat="47.76141" lon="7.28047">
        <ele>259.9</ele>
        <time>2019-08-16T09:10:22Z</time>
      </trkpt>
      <trkpt lat="47.76137" lon="7.28048">
        <ele>259.9</ele>
        <time>2019-08-16T09:10:23Z</time>
      </trkpt>
      <trkpt lat="47.76134" lon="7.28049">
        <ele>259.8</ele>
        <time>2019-08-16T09:10:24Z</time>
      </trkpt>
      <trkpt lat="47.76131" lon="7.28051">
        <ele>259.7</ele>
        <time>2019-08-16T09:10:25Z</time>
      </trkpt>
      <trkpt lat="47.76127" lon="7.28053">
        <ele>259.5</ele>
        <time>2019-08-16T09:10:26Z</time>
      </trkpt>
      <trkpt lat="47.76124" lon="7.28055">
        <ele>259.4</ele>
        <time>2019-08-16T09:10:27Z</time>
      </trkpt>
      <trkpt lat="47.7612" lon="7.28059">
        <ele>259.2</ele>
        <time>2019-08-16T09:10:28Z</time>
      </trkpt>
      <trkpt lat="47.76117" lon="7.28064">
        <ele>259.1</ele>
        <time>2019-08-16T09:10:29Z</time>
      </trkpt>
      <trkpt lat="47.76112" lon="7.28067">
        <ele>258.9</ele>
        <time>2019-08-16T09:10:30Z</time>
      </trkpt>
      <trkpt lat="47.76108" lon="7.28069">
        <ele>258.7</ele>
        <time>2019-08-16T09:10:31Z</time>
      </trkpt>
      <trkpt lat="47.76103" lon="7.28073">
        <ele>258.5</ele>
        <time>2019-08-16T09:10:32Z</time>
      </trkpt>
      <trkpt lat="47.76098" lon="7.28076">
        <ele>258.2</ele>
        <time>2019-08-16T09:10:33Z</time>
      </trkpt>
      <trkpt lat="47.76093" lon="7.28078">
        <ele>258</ele>
        <time>2019-08-16T09:10:34Z</time>
      </trkpt>
      <trkpt lat="47.76087" lon="7.28081">
        <ele>257.7</ele>
        <time>2019-08-16T09:10:35Z</time>
      </trkpt>
      <trkpt lat="47.76082" lon="7.28084">
        <ele>257.5</ele>
        <time>2019-08-16T09:10:36Z</time>
      </trkpt>
      <trkpt lat="47.76078" lon="7.28087">
        <ele>257.3</ele>
        <time>2019-08-16T09:10:37Z</time>
      </trkpt>
      <trkpt lat="47.76074" lon="7.2809">
        <ele>257</ele>
        <time>2019-08-16T09:10:38Z</time>
      </trkpt>
      <trkpt lat="47.76069" lon="7.28093">
        <ele>256.7</ele>
        <time>2019-08-16T09:10:39Z</time>
      </trkpt>
      <trkpt lat="47.76064" lon="7.28095">
        <ele>256.4</ele>
        <time>2019-08-16T09:10:40Z</time>
      </trkpt>
      <trkpt lat="47.76059" lon="7.28097">
        <ele>256</ele>
        <time>2019-08-16T09:10:41Z</time>
      </trkpt>
      <trkpt lat="47.76055" lon="7.28099">
        <ele>255.7</ele>
        <time>2019-08-16T09:10:42Z</time>
      </trkpt>
      <trkpt lat="47.76051" lon="7.28102">
        <ele>255.5</ele>
        <time>2019-08-16T09:10:43Z</time>
      </trkpt>
      <trkpt lat="47.76047" lon="7.28103">
        <ele>255.3</ele>
        <time>2019-08-16T09:10:44Z</time>
      </trkpt>
      <trkpt lat="47.76044" lon="7.28105">
        <ele>255.1</ele>
        <time>2019-08-16T09:10:45Z</time>
      </trkpt>
      <trkpt lat="47.76041" lon="7.28106">
        <ele>254.9</ele>
        <time>2019-08-16T09:10:46Z</time>
      </trkpt>
      <trkpt lat="47.76038" lon="7.28108">
        <ele>254.8</ele>
        <time>2019-08-16T09:10:47Z</time>
      </trkpt>
      <trkpt lat="47.76034" lon="7.28111">
        <ele>254.4</ele>
        <time>2019-08-16T09:10:49Z</time>
      </trkpt>
      <trkpt lat="47.76031" lon="7.28115">
        <ele>253.9</ele>
        <time>2019-08-16T09:10:51Z</time>
      </trkpt>
      <trkpt lat="47.76034" lon="7.28117">
        <ele>253.9</ele>
        <time>2019-08-16T09:10:57Z</time>
      </trkpt>
      <trkpt lat="47.76037" lon="7.28121">
        <ele>254</ele>
        <time>2019-08-16T09:10:58Z</time>
      </trkpt>
      <trkpt lat="47.7604" lon="7.28123">
        <ele>254</ele>
        <time>2019-08-16T09:11:01Z</time>
      </trkpt>
      <trkpt lat="47.76029" lon="7.28121">
        <ele>254</ele>
        <time>2019-08-16T09:11:43Z</time>
      </trkpt>
      <trkpt lat="47.7603" lon="7.28127">
        <ele>254</ele>
        <time>2019-08-16T09:11:46Z</time>
      </trkpt>
      <trkpt lat="47.76032" lon="7.28134">
        <ele>254.4</ele>
        <time>2019-08-16T09:11:48Z</time>
      </trkpt>
      <trkpt lat="47.76029" lon="7.2814">
        <ele>254.3</ele>
        <time>2019-08-16T09:11:50Z</time>
      </trkpt>
      <trkpt lat="47.76027" lon="7.28141">
        <ele>254.3</ele>
        <time>2019-08-16T09:11:51Z</time>
      </trkpt>
      <trkpt lat="47.76024" lon="7.28142">
        <ele>254.3</ele>
        <time>2019-08-16T09:11:52Z</time>
      </trkpt>
      <trkpt lat="47.76021" lon="7.28143">
        <ele>254.3</ele>
        <time>2019-08-16T09:11:53Z</time>
      </trkpt>
      <trkpt lat="47.76017" lon="7.28144">
        <ele>254.2</ele>
        <time>2019-08-16T09:11:54Z</time>
      </trkpt>
      <trkpt lat="47.76015" lon="7.28145">
        <ele>254.2</ele>
        <time>2019-08-16T09:11:55Z</time>
      </trkpt>
      <trkpt lat="47.76012" lon="7.28146">
        <ele>254.2</ele>
        <time>2019-08-16T09:11:56Z</time>
      </trkpt>
      <trkpt lat="47.76008" lon="7.28148">
        <ele>254.1</ele>
        <time>2019-08-16T09:11:57Z</time>
      </trkpt>
      <trkpt lat="47.76003" lon="7.28151">
        <ele>254</ele>
        <time>2019-08-16T09:11:59Z</time>
      </trkpt>
      <trkpt lat="47.75998" lon="7.28154">
        <ele>253.9</ele>
        <time>2019-08-16T09:12:01Z</time>
      </trkpt>
      <trkpt lat="47.75996" lon="7.28156">
        <ele>253.8</ele>
        <time>2019-08-16T09:12:02Z</time>
      </trkpt>
      <trkpt lat="47.75993" lon="7.28158">
        <ele>253.7</ele>
        <time>2019-08-16T09:12:03Z</time>
      </trkpt>
      <trkpt lat="47.7599" lon="7.28159">
        <ele>253.5</ele>
        <time>2019-08-16T09:12:04Z</time>
      </trkpt>
      <trkpt lat="47.75988" lon="7.28161">
        <ele>253.4</ele>
        <time>2019-08-16T09:12:05Z</time>
      </trkpt>
      <trkpt lat="47.75984" lon="7.28163">
        <ele>253.2</ele>
        <time>2019-08-16T09:12:06Z</time>
      </trkpt>
      <trkpt lat="47.7598" lon="7.28164">
        <ele>253</ele>
        <time>2019-08-16T09:12:07Z</time>
      </trkpt>
      <trkpt lat="47.75977" lon="7.28165">
        <ele>252.8</ele>
        <time>2019-08-16T09:12:08Z</time>
      </trkpt>
      <trkpt lat="47.75973" lon="7.28167">
        <ele>252.7</ele>
        <time>2019-08-16T09:12:09Z</time>
      </trkpt>
      <trkpt lat="47.75969" lon="7.28169">
        <ele>252.5</ele>
        <time>2019-08-16T09:12:10Z</time>
      </trkpt>
      <trkpt lat="47.75965" lon="7.28171">
        <ele>252.3</ele>
        <time>2019-08-16T09:12:11Z</time>
      </trkpt>
      <trkpt lat="47.75962" lon="7.28173">
        <ele>252.1</ele>
        <time>2019-08-16T09:12:12Z</time>
      </trkpt>
      <trkpt lat="47.75958" lon="7.28175">
        <ele>251.9</ele>
        <time>2019-08-16T09:12:13Z</time>
      </trkpt>
      <trkpt lat="47.75955" lon="7.28175">
        <ele>251.8</ele>
        <time>2019-08-16T09:12:14Z</time>
      </trkpt>
      <trkpt lat="47.75951" lon="7.28176">
        <ele>251.6</ele>
        <time>2019-08-16T09:12:15Z</time>
      </trkpt>
      <trkpt lat="47.75948" lon="7.28178">
        <ele>251.5</ele>
        <time>2019-08-16T09:12:16Z</time>
      </trkpt>
      <trkpt lat="47.75945" lon="7.28178">
        <ele>251.3</ele>
        <time>2019-08-16T09:12:17Z</time>
      </trkpt>
      <trkpt lat="47.75942" lon="7.28179">
        <ele>251.2</ele>
        <time>2019-08-16T09:12:18Z</time>
      </trkpt>
      <trkpt lat="47.75939" lon="7.28179">
        <ele>251.1</ele>
        <time>2019-08-16T09:12:19Z</time>
      </trkpt>
      <trkpt lat="47.75935" lon="7.28178">
        <ele>251</ele>
        <time>2019-08-16T09:12:20Z</time>
      </trkpt>
      <trkpt lat="47.75932" lon="7.28177">
        <ele>250.9</ele>
        <time>2019-08-16T09:12:21Z</time>
      </trkpt>
      <trkpt lat="47.75928" lon="7.28177">
        <ele>250.7</ele>
        <time>2019-08-16T09:12:22Z</time>
      </trkpt>
      <trkpt lat="47.75926" lon="7.28176">
        <ele>250.7</ele>
        <time>2019-08-16T09:12:23Z</time>
      </trkpt>
      <trkpt lat="47.75923" lon="7.28176">
        <ele>250.6</ele>
        <time>2019-08-16T09:12:24Z</time>
      </trkpt>
      <trkpt lat="47.75917" lon="7.28176">
        <ele>250.4</ele>
        <time>2019-08-16T09:12:26Z</time>
      </trkpt>
      <trkpt lat="47.75913" lon="7.28176">
        <ele>250.3</ele>
        <time>2019-08-16T09:12:28Z</time>
      </trkpt>
      <trkpt lat="47.7591" lon="7.28189">
        <ele>250.1</ele>
        <time>2019-08-16T09:14:17Z</time>
      </trkpt>
      <trkpt lat="47.75906" lon="7.28194">
        <ele>250</ele>
        <time>2019-08-16T09:14:19Z</time>
      </trkpt>
      <trkpt lat="47.75905" lon="7.28198">
        <ele>250</ele>
        <time>2019-08-16T09:14:20Z</time>
      </trkpt>
      <trkpt lat="47.75903" lon="7.28203">
        <ele>250</ele>
        <time>2019-08-16T09:14:21Z</time>
      </trkpt>
      <trkpt lat="47.75902" lon="7.28208">
        <ele>250</ele>
        <time>2019-08-16T09:14:22Z</time>
      </trkpt>
      <trkpt lat="47.75901" lon="7.28213">
        <ele>250</ele>
        <time>2019-08-16T09:14:23Z</time>
      </trkpt>
      <trkpt lat="47.759" lon="7.28218">
        <ele>250</ele>
        <time>2019-08-16T09:14:24Z</time>
      </trkpt>
      <trkpt lat="47.759" lon="7.28223">
        <ele>250</ele>
        <time>2019-08-16T09:14:25Z</time>
      </trkpt>
      <trkpt lat="47.75899" lon="7.28226">
        <ele>250</ele>
        <time>2019-08-16T09:14:26Z</time>
      </trkpt>
      <trkpt lat="47.75898" lon="7.28233">
        <ele>249.9</ele>
        <time>2019-08-16T09:14:27Z</time>
      </trkpt>
      <trkpt lat="47.75897" lon="7.28239">
        <ele>249.9</ele>
        <time>2019-08-16T09:14:28Z</time>
      </trkpt>
      <trkpt lat="47.75897" lon="7.28245">
        <ele>249.9</ele>
        <time>2019-08-16T09:14:29Z</time>
      </trkpt>
      <trkpt lat="47.75897" lon="7.28251">
        <ele>249.9</ele>
        <time>2019-08-16T09:14:30Z</time>
      </trkpt>
      <trkpt lat="47.75896" lon="7.28257">
        <ele>249.9</ele>
        <time>2019-08-16T09:14:31Z</time>
      </trkpt>
      <trkpt lat="47.75896" lon="7.28264">
        <ele>249.9</ele>
        <time>2019-08-16T09:14:32Z</time>
      </trkpt>
      <trkpt lat="47.75896" lon="7.28272">
        <ele>249.9</ele>
        <time>2019-08-16T09:14:33Z</time>
      </trkpt>
      <trkpt lat="47.75893" lon="7.28278">
        <ele>249.8</ele>
        <time>2019-08-16T09:14:34Z</time>
      </trkpt>
      <trkpt lat="47.75893" lon="7.28284">
        <ele>249.8</ele>
        <time>2019-08-16T09:14:35Z</time>
      </trkpt>
      <trkpt lat="47.75892" lon="7.2829">
        <ele>249.8</ele>
        <time>2019-08-16T09:14:36Z</time>
      </trkpt>
      <trkpt lat="47.75891" lon="7.28297">
        <ele>249.8</ele>
        <time>2019-08-16T09:14:37Z</time>
      </trkpt>
      <trkpt lat="47.7589" lon="7.28304">
        <ele>249.8</ele>
        <time>2019-08-16T09:14:38Z</time>
      </trkpt>
      <trkpt lat="47.75888" lon="7.28311">
        <ele>249.8</ele>
        <time>2019-08-16T09:14:39Z</time>
      </trkpt>
      <trkpt lat="47.75888" lon="7.28318">
        <ele>249.7</ele>
        <time>2019-08-16T09:14:40Z</time>
      </trkpt>
      <trkpt lat="47.75886" lon="7.28324">
        <ele>249.7</ele>
        <time>2019-08-16T09:14:41Z</time>
      </trkpt>
      <trkpt lat="47.75886" lon="7.2833">
        <ele>249.6</ele>
        <time>2019-08-16T09:14:42Z</time>
      </trkpt>
      <trkpt lat="47.75885" lon="7.28335">
        <ele>249.5</ele>
        <time>2019-08-16T09:14:43Z</time>
      </trkpt>
      <trkpt lat="47.75883" lon="7.28341">
        <ele>249.4</ele>
        <time>2019-08-16T09:14:44Z</time>
      </trkpt>
      <trkpt lat="47.75882" lon="7.28347">
        <ele>249.4</ele>
        <time>2019-08-16T09:14:45Z</time>
      </trkpt>
      <trkpt lat="47.7588" lon="7.28353">
        <ele>249.3</ele>
        <time>2019-08-16T09:14:46Z</time>
      </trkpt>
      <trkpt lat="47.75879" lon="7.28359">
        <ele>249.2</ele>
        <time>2019-08-16T09:14:47Z</time>
      </trkpt>
      <trkpt lat="47.75877" lon="7.28365">
        <ele>249</ele>
        <time>2019-08-16T09:14:48Z</time>
      </trkpt>
      <trkpt lat="47.75877" lon="7.28371">
        <ele>248.9</ele>
        <time>2019-08-16T09:14:49Z</time>
      </trkpt>
      <trkpt lat="47.75876" lon="7.28378">
        <ele>248.8</ele>
        <time>2019-08-16T09:14:50Z</time>
      </trkpt>
      <trkpt lat="47.75875" lon="7.28384">
        <ele>248.6</ele>
        <time>2019-08-16T09:14:51Z</time>
      </trkpt>
      <trkpt lat="47.75875" lon="7.28391">
        <ele>248.5</ele>
        <time>2019-08-16T09:14:52Z</time>
      </trkpt>
      <trkpt lat="47.75875" lon="7.28398">
        <ele>248.4</ele>
        <time>2019-08-16T09:14:53Z</time>
      </trkpt>
      <trkpt lat="47.75875" lon="7.28405">
        <ele>248.3</ele>
        <time>2019-08-16T09:14:54Z</time>
      </trkpt>
      <trkpt lat="47.75874" lon="7.28412">
        <ele>248.2</ele>
        <time>2019-08-16T09:14:55Z</time>
      </trkpt>
      <trkpt lat="47.75874" lon="7.28419">
        <ele>248.1</ele>
        <time>2019-08-16T09:14:56Z</time>
      </trkpt>
      <trkpt lat="47.75875" lon="7.28427">
        <ele>247.9</ele>
        <time>2019-08-16T09:14:57Z</time>
      </trkpt>
      <trkpt lat="47.75874" lon="7.28434">
        <ele>247.9</ele>
        <time>2019-08-16T09:14:58Z</time>
      </trkpt>
      <trkpt lat="47.75874" lon="7.28441">
        <ele>247.8</ele>
        <time>2019-08-16T09:14:59Z</time>
      </trkpt>
      <trkpt lat="47.75874" lon="7.28447">
        <ele>247.7</ele>
        <time>2019-08-16T09:15:00Z</time>
      </trkpt>
      <trkpt lat="47.75873" lon="7.28454">
        <ele>247.7</ele>
        <time>2019-08-16T09:15:01Z</time>
      </trkpt>
      <trkpt lat="47.75872" lon="7.28461">
        <ele>247.6</ele>
        <time>2019-08-16T09:15:02Z</time>
      </trkpt>
      <trkpt lat="47.7587" lon="7.28468">
        <ele>247.6</ele>
        <time>2019-08-16T09:15:03Z</time>
      </trkpt>
      <trkpt lat="47.75869" lon="7.28475">
        <ele>247.6</ele>
        <time>2019-08-16T09:15:04Z</time>
      </trkpt>
      <trkpt lat="47.75866" lon="7.28482">
        <ele>247.6</ele>
        <time>2019-08-16T09:15:05Z</time>
      </trkpt>
      <trkpt lat="47.75864" lon="7.28489">
        <ele>247.6</ele>
        <time>2019-08-16T09:15:06Z</time>
      </trkpt>
      <trkpt lat="47.75864" lon="7.28496">
        <ele>247.5</ele>
        <time>2019-08-16T09:15:07Z</time>
      </trkpt>
      <trkpt lat="47.75862" lon="7.28503">
        <ele>247.5</ele>
        <time>2019-08-16T09:15:08Z</time>
      </trkpt>
      <trkpt lat="47.75861" lon="7.28509">
        <ele>247.5</ele>
        <time>2019-08-16T09:15:09Z</time>
      </trkpt>
      <trkpt lat="47.75861" lon="7.28515">
        <ele>247.4</ele>
        <time>2019-08-16T09:15:10Z</time>
      </trkpt>
      <trkpt lat="47.7586" lon="7.2852">
        <ele>247.3</ele>
        <time>2019-08-16T09:15:11Z</time>
      </trkpt>
      <trkpt lat="47.75859" lon="7.28526">
        <ele>247.3</ele>
        <time>2019-08-16T09:15:13Z</time>
      </trkpt>
      <trkpt lat="47.75856" lon="7.2853">
        <ele>247.2</ele>
        <time>2019-08-16T09:15:15Z</time>
      </trkpt>
      <trkpt lat="47.75855" lon="7.28536">
        <ele>247.1</ele>
        <time>2019-08-16T09:15:17Z</time>
      </trkpt>
      <trkpt lat="47.75855" lon="7.2854">
        <ele>247</ele>
        <time>2019-08-16T09:15:18Z</time>
      </trkpt>
      <trkpt lat="47.75853" lon="7.28548">
        <ele>246.9</ele>
        <time>2019-08-16T09:15:20Z</time>
      </trkpt>
      <trkpt lat="47.75852" lon="7.28554">
        <ele>246.9</ele>
        <time>2019-08-16T09:15:22Z</time>
      </trkpt>
      <trkpt lat="47.75851" lon="7.28559">
        <ele>246.8</ele>
        <time>2019-08-16T09:15:23Z</time>
      </trkpt>
      <trkpt lat="47.75851" lon="7.28565">
        <ele>246.7</ele>
        <time>2019-08-16T09:15:24Z</time>
      </trkpt>
      <trkpt lat="47.7585" lon="7.28571">
        <ele>246.7</ele>
        <time>2019-08-16T09:15:25Z</time>
      </trkpt>
      <trkpt lat="47.75851" lon="7.28578">
        <ele>246.7</ele>
        <time>2019-08-16T09:15:26Z</time>
      </trkpt>
      <trkpt lat="47.75852" lon="7.28585">
        <ele>246.7</ele>
        <time>2019-08-16T09:15:27Z</time>
      </trkpt>
      <trkpt lat="47.75851" lon="7.28592">
        <ele>246.8</ele>
        <time>2019-08-16T09:15:28Z</time>
      </trkpt>
      <trkpt lat="47.7585" lon="7.28597">
        <ele>246.8</ele>
        <time>2019-08-16T09:15:29Z</time>
      </trkpt>
      <trkpt lat="47.7585" lon="7.28603">
        <ele>246.8</ele>
        <time>2019-08-16T09:15:30Z</time>
      </trkpt>
      <trkpt lat="47.75851" lon="7.2861">
        <ele>246.8</ele>
        <time>2019-08-16T09:15:31Z</time>
      </trkpt>
      <trkpt lat="47.7585" lon="7.28615">
        <ele>246.9</ele>
        <time>2019-08-16T09:15:32Z</time>
      </trkpt>
      <trkpt lat="47.7585" lon="7.28621">
        <ele>246.9</ele>
        <time>2019-08-16T09:15:33Z</time>
      </trkpt>
      <trkpt lat="47.75849" lon="7.28627">
        <ele>246.9</ele>
        <time>2019-08-16T09:15:34Z</time>
      </trkpt>
      <trkpt lat="47.75848" lon="7.28633">
        <ele>246.9</ele>
        <time>2019-08-16T09:15:35Z</time>
      </trkpt>
      <trkpt lat="47.75847" lon="7.28639">
        <ele>246.9</ele>
        <time>2019-08-16T09:15:36Z</time>
      </trkpt>
      <trkpt lat="47.75846" lon="7.28643">
        <ele>246.9</ele>
        <time>2019-08-16T09:15:37Z</time>
      </trkpt>
      <trkpt lat="47.75844" lon="7.28648">
        <ele>247</ele>
        <time>2019-08-16T09:15:38Z</time>
      </trkpt>
      <trkpt lat="47.75843" lon="7.28653">
        <ele>247.1</ele>
        <time>2019-08-16T09:15:39Z</time>
      </trkpt>
      <trkpt lat="47.75844" lon="7.28659">
        <ele>247.2</ele>
        <time>2019-08-16T09:15:40Z</time>
      </trkpt>
      <trkpt lat="47.75844" lon="7.28663">
        <ele>247.3</ele>
        <time>2019-08-16T09:15:41Z</time>
      </trkpt>
      <trkpt lat="47.75843" lon="7.28668">
        <ele>247.3</ele>
        <time>2019-08-16T09:15:42Z</time>
      </trkpt>
      <trkpt lat="47.75843" lon="7.28674">
        <ele>247.4</ele>
        <time>2019-08-16T09:15:43Z</time>
      </trkpt>
      <trkpt lat="47.75843" lon="7.2868">
        <ele>247.4</ele>
        <time>2019-08-16T09:15:44Z</time>
      </trkpt>
      <trkpt lat="47.75844" lon="7.28686">
        <ele>247.4</ele>
        <time>2019-08-16T09:15:45Z</time>
      </trkpt>
      <trkpt lat="47.75845" lon="7.28694">
        <ele>247.5</ele>
        <time>2019-08-16T09:15:46Z</time>
      </trkpt>
      <trkpt lat="47.75845" lon="7.28701">
        <ele>247.5</ele>
        <time>2019-08-16T09:15:47Z</time>
      </trkpt>
      <trkpt lat="47.75845" lon="7.28707">
        <ele>247.4</ele>
        <time>2019-08-16T09:15:48Z</time>
      </trkpt>
      <trkpt lat="47.75845" lon="7.28714">
        <ele>247.4</ele>
        <time>2019-08-16T09:15:49Z</time>
      </trkpt>
      <trkpt lat="47.75844" lon="7.28719">
        <ele>247.4</ele>
        <time>2019-08-16T09:15:50Z</time>
      </trkpt>
      <trkpt lat="47.75845" lon="7.28725">
        <ele>247.3</ele>
        <time>2019-08-16T09:15:51Z</time>
      </trkpt>
      <trkpt lat="47.75846" lon="7.28729">
        <ele>247.3</ele>
        <time>2019-08-16T09:15:52Z</time>
      </trkpt>
      <trkpt lat="47.75847" lon="7.28734">
        <ele>247.3</ele>
        <time>2019-08-16T09:15:53Z</time>
      </trkpt>
      <trkpt lat="47.75848" lon="7.2874">
        <ele>247.2</ele>
        <time>2019-08-16T09:15:54Z</time>
      </trkpt>
      <trkpt lat="47.75849" lon="7.28745">
        <ele>247.2</ele>
        <time>2019-08-16T09:15:55Z</time>
      </trkpt>
      <trkpt lat="47.75849" lon="7.2875">
        <ele>247.2</ele>
        <time>2019-08-16T09:15:56Z</time>
      </trkpt>
      <trkpt lat="47.75849" lon="7.28755">
        <ele>247.2</ele>
        <time>2019-08-16T09:15:57Z</time>
      </trkpt>
      <trkpt lat="47.75849" lon="7.28761">
        <ele>247.2</ele>
        <time>2019-08-16T09:15:58Z</time>
      </trkpt>
      <trkpt lat="47.75849" lon="7.28768">
        <ele>247.1</ele>
        <time>2019-08-16T09:15:59Z</time>
      </trkpt>
      <trkpt lat="47.75849" lon="7.28773">
        <ele>247.1</ele>
        <time>2019-08-16T09:16:00Z</time>
      </trkpt>
      <trkpt lat="47.75851" lon="7.28779">
        <ele>247.1</ele>
        <time>2019-08-16T09:16:01Z</time>
      </trkpt>
      <trkpt lat="47.75852" lon="7.28785">
        <ele>247</ele>
        <time>2019-08-16T09:16:02Z</time>
      </trkpt>
      <trkpt lat="47.75852" lon="7.28791">
        <ele>247</ele>
        <time>2019-08-16T09:16:03Z</time>
      </trkpt>
      <trkpt lat="47.75853" lon="7.28796">
        <ele>247</ele>
        <time>2019-08-16T09:16:04Z</time>
      </trkpt>
      <trkpt lat="47.75854" lon="7.28802">
        <ele>247</ele>
        <time>2019-08-16T09:16:05Z</time>
      </trkpt>
      <trkpt lat="47.75855" lon="7.28808">
        <ele>247</ele>
        <time>2019-08-16T09:16:06Z</time>
      </trkpt>
      <trkpt lat="47.75855" lon="7.28815">
        <ele>246.9</ele>
        <time>2019-08-16T09:16:07Z</time>
      </trkpt>
      <trkpt lat="47.75855" lon="7.28821">
        <ele>246.9</ele>
        <time>2019-08-16T09:16:08Z</time>
      </trkpt>
      <trkpt lat="47.75856" lon="7.28826">
        <ele>246.9</ele>
        <time>2019-08-16T09:16:09Z</time>
      </trkpt>
      <trkpt lat="47.75856" lon="7.28832">
        <ele>246.9</ele>
        <time>2019-08-16T09:16:10Z</time>
      </trkpt>
      <trkpt lat="47.75856" lon="7.28837">
        <ele>246.9</ele>
        <time>2019-08-16T09:16:11Z</time>
      </trkpt>
      <trkpt lat="47.75857" lon="7.28843">
        <ele>246.9</ele>
        <time>2019-08-16T09:16:12Z</time>
      </trkpt>
      <trkpt lat="47.75858" lon="7.28849">
        <ele>246.8</ele>
        <time>2019-08-16T09:16:13Z</time>
      </trkpt>
      <trkpt lat="47.7586" lon="7.28854">
        <ele>246.8</ele>
        <time>2019-08-16T09:16:14Z</time>
      </trkpt>
      <trkpt lat="47.75861" lon="7.28859">
        <ele>246.8</ele>
        <time>2019-08-16T09:16:15Z</time>
      </trkpt>
      <trkpt lat="47.75863" lon="7.28867">
        <ele>246.7</ele>
        <time>2019-08-16T09:16:17Z</time>
      </trkpt>
      <trkpt lat="47.75863" lon="7.28873">
        <ele>246.7</ele>
        <time>2019-08-16T09:16:19Z</time>
      </trkpt>
      <trkpt lat="47.75863" lon="7.2888">
        <ele>246.7</ele>
        <time>2019-08-16T09:16:21Z</time>
      </trkpt>
      <trkpt lat="47.75863" lon="7.28885">
        <ele>246.7</ele>
        <time>2019-08-16T09:16:22Z</time>
      </trkpt>
      <trkpt lat="47.75863" lon="7.28891">
        <ele>246.7</ele>
        <time>2019-08-16T09:16:23Z</time>
      </trkpt>
      <trkpt lat="47.75864" lon="7.28897">
        <ele>246.7</ele>
        <time>2019-08-16T09:16:24Z</time>
      </trkpt>
      <trkpt lat="47.75865" lon="7.28903">
        <ele>246.7</ele>
        <time>2019-08-16T09:16:25Z</time>
      </trkpt>
      <trkpt lat="47.75865" lon="7.28908">
        <ele>246.7</ele>
        <time>2019-08-16T09:16:26Z</time>
      </trkpt>
      <trkpt lat="47.75865" lon="7.28914">
        <ele>246.7</ele>
        <time>2019-08-16T09:16:27Z</time>
      </trkpt>
      <trkpt lat="47.75865" lon="7.28921">
        <ele>246.6</ele>
        <time>2019-08-16T09:16:28Z</time>
      </trkpt>
      <trkpt lat="47.75863" lon="7.28926">
        <ele>246.6</ele>
        <time>2019-08-16T09:16:29Z</time>
      </trkpt>
      <trkpt lat="47.75862" lon="7.28932">
        <ele>246.6</ele>
        <time>2019-08-16T09:16:30Z</time>
      </trkpt>
      <trkpt lat="47.75863" lon="7.28939">
        <ele>246.5</ele>
        <time>2019-08-16T09:16:31Z</time>
      </trkpt>
      <trkpt lat="47.75864" lon="7.28946">
        <ele>246.4</ele>
        <time>2019-08-16T09:16:32Z</time>
      </trkpt>
      <trkpt lat="47.75864" lon="7.28952">
        <ele>246.4</ele>
        <time>2019-08-16T09:16:33Z</time>
      </trkpt>
      <trkpt lat="47.75864" lon="7.28958">
        <ele>246.2</ele>
        <time>2019-08-16T09:16:34Z</time>
      </trkpt>
      <trkpt lat="47.75864" lon="7.28965">
        <ele>246.1</ele>
        <time>2019-08-16T09:16:35Z</time>
      </trkpt>
      <trkpt lat="47.75866" lon="7.28973">
        <ele>246</ele>
        <time>2019-08-16T09:16:36Z</time>
      </trkpt>
      <trkpt lat="47.75866" lon="7.2898">
        <ele>245.9</ele>
        <time>2019-08-16T09:16:37Z</time>
      </trkpt>
      <trkpt lat="47.75867" lon="7.28987">
        <ele>245.8</ele>
        <time>2019-08-16T09:16:38Z</time>
      </trkpt>
      <trkpt lat="47.75868" lon="7.28993">
        <ele>245.7</ele>
        <time>2019-08-16T09:16:39Z</time>
      </trkpt>
      <trkpt lat="47.75869" lon="7.29">
        <ele>245.6</ele>
        <time>2019-08-16T09:16:40Z</time>
      </trkpt>
      <trkpt lat="47.75869" lon="7.29006">
        <ele>245.5</ele>
        <time>2019-08-16T09:16:41Z</time>
      </trkpt>
      <trkpt lat="47.75868" lon="7.29011">
        <ele>245.5</ele>
        <time>2019-08-16T09:16:42Z</time>
      </trkpt>
      <trkpt lat="47.75868" lon="7.29016">
        <ele>245.5</ele>
        <time>2019-08-16T09:16:43Z</time>
      </trkpt>
      <trkpt lat="47.75865" lon="7.29022">
        <ele>245.3</ele>
        <time>2019-08-16T09:16:45Z</time>
      </trkpt>
      <trkpt lat="47.75862" lon="7.29029">
        <ele>245.2</ele>
        <time>2019-08-16T09:16:47Z</time>
      </trkpt>
      <trkpt lat="47.75862" lon="7.29034">
        <ele>245.1</ele>
        <time>2019-08-16T09:16:48Z</time>
      </trkpt>
      <trkpt lat="47.75861" lon="7.29039">
        <ele>245.1</ele>
        <time>2019-08-16T09:16:49Z</time>
      </trkpt>
      <trkpt lat="47.75861" lon="7.29045">
        <ele>245</ele>
        <time>2019-08-16T09:16:50Z</time>
      </trkpt>
      <trkpt lat="47.75862" lon="7.2905">
        <ele>245</ele>
        <time>2019-08-16T09:16:51Z</time>
      </trkpt>
      <trkpt lat="47.75864" lon="7.29055">
        <ele>245</ele>
        <time>2019-08-16T09:16:52Z</time>
      </trkpt>
      <trkpt lat="47.75865" lon="7.29061">
        <ele>245</ele>
        <time>2019-08-16T09:16:53Z</time>
      </trkpt>
      <trkpt lat="47.75866" lon="7.29066">
        <ele>245.1</ele>
        <time>2019-08-16T09:16:54Z</time>
      </trkpt>
      <trkpt lat="47.75867" lon="7.2907">
        <ele>245.1</ele>
        <time>2019-08-16T09:16:55Z</time>
      </trkpt>
      <trkpt lat="47.75867" lon="7.29078">
        <ele>245.1</ele>
        <time>2019-08-16T09:16:56Z</time>
      </trkpt>
      <trkpt lat="47.75865" lon="7.29084">
        <ele>245.1</ele>
        <time>2019-08-16T09:16:57Z</time>
      </trkpt>
      <trkpt lat="47.75865" lon="7.2909">
        <ele>245.1</ele>
        <time>2019-08-16T09:16:58Z</time>
      </trkpt>
      <trkpt lat="47.75864" lon="7.29096">
        <ele>245.1</ele>
        <time>2019-08-16T09:16:59Z</time>
      </trkpt>
      <trkpt lat="47.75864" lon="7.29102">
        <ele>245</ele>
        <time>2019-08-16T09:17:00Z</time>
      </trkpt>
      <trkpt lat="47.75864" lon="7.29109">
        <ele>245</ele>
        <time>2019-08-16T09:17:01Z</time>
      </trkpt>
      <trkpt lat="47.75863" lon="7.29115">
        <ele>245</ele>
        <time>2019-08-16T09:17:02Z</time>
      </trkpt>
      <trkpt lat="47.75863" lon="7.29121">
        <ele>245</ele>
        <time>2019-08-16T09:17:03Z</time>
      </trkpt>
      <trkpt lat="47.75863" lon="7.29126">
        <ele>245</ele>
        <time>2019-08-16T09:17:04Z</time>
      </trkpt>
      <trkpt lat="47.75861" lon="7.29131">
        <ele>244.9</ele>
        <time>2019-08-16T09:17:05Z</time>
      </trkpt>
      <trkpt lat="47.75861" lon="7.29137">
        <ele>244.9</ele>
        <time>2019-08-16T09:17:06Z</time>
      </trkpt>
      <trkpt lat="47.7586" lon="7.29143">
        <ele>244.9</ele>
        <time>2019-08-16T09:17:07Z</time>
      </trkpt>
      <trkpt lat="47.7586" lon="7.29148">
        <ele>244.9</ele>
        <time>2019-08-16T09:17:08Z</time>
      </trkpt>
      <trkpt lat="47.75859" lon="7.29154">
        <ele>244.8</ele>
        <time>2019-08-16T09:17:09Z</time>
      </trkpt>
      <trkpt lat="47.75859" lon="7.29161">
        <ele>244.8</ele>
        <time>2019-08-16T09:17:10Z</time>
      </trkpt>
      <trkpt lat="47.75859" lon="7.29166">
        <ele>244.8</ele>
        <time>2019-08-16T09:17:11Z</time>
      </trkpt>
      <trkpt lat="47.75858" lon="7.29174">
        <ele>244.7</ele>
        <time>2019-08-16T09:17:12Z</time>
      </trkpt>
      <trkpt lat="47.75856" lon="7.2918">
        <ele>244.7</ele>
        <time>2019-08-16T09:17:13Z</time>
      </trkpt>
      <trkpt lat="47.75854" lon="7.29187">
        <ele>244.6</ele>
        <time>2019-08-16T09:17:14Z</time>
      </trkpt>
      <trkpt lat="47.75851" lon="7.29195">
        <ele>244.4</ele>
        <time>2019-08-16T09:17:15Z</time>
      </trkpt>
      <trkpt lat="47.75848" lon="7.29203">
        <ele>244.3</ele>
        <time>2019-08-16T09:17:16Z</time>
      </trkpt>
      <trkpt lat="47.75845" lon="7.29211">
        <ele>244.2</ele>
        <time>2019-08-16T09:17:17Z</time>
      </trkpt>
      <trkpt lat="47.75843" lon="7.29217">
        <ele>244</ele>
        <time>2019-08-16T09:17:18Z</time>
      </trkpt>
      <trkpt lat="47.75841" lon="7.29223">
        <ele>243.9</ele>
        <time>2019-08-16T09:17:19Z</time>
      </trkpt>
      <trkpt lat="47.75839" lon="7.29228">
        <ele>243.8</ele>
        <time>2019-08-16T09:17:20Z</time>
      </trkpt>
      <trkpt lat="47.75837" lon="7.29234">
        <ele>243.8</ele>
        <time>2019-08-16T09:17:21Z</time>
      </trkpt>
      <trkpt lat="47.75835" lon="7.2924">
        <ele>243.7</ele>
        <time>2019-08-16T09:17:22Z</time>
      </trkpt>
      <trkpt lat="47.75834" lon="7.29246">
        <ele>243.6</ele>
        <time>2019-08-16T09:17:23Z</time>
      </trkpt>
      <trkpt lat="47.75833" lon="7.29254">
        <ele>243.5</ele>
        <time>2019-08-16T09:17:24Z</time>
      </trkpt>
      <trkpt lat="47.75832" lon="7.29261">
        <ele>243.4</ele>
        <time>2019-08-16T09:17:25Z</time>
      </trkpt>
      <trkpt lat="47.75831" lon="7.29267">
        <ele>243.4</ele>
        <time>2019-08-16T09:17:26Z</time>
      </trkpt>
      <trkpt lat="47.7583" lon="7.29275">
        <ele>243.3</ele>
        <time>2019-08-16T09:17:27Z</time>
      </trkpt>
      <trkpt lat="47.75828" lon="7.29282">
        <ele>243.3</ele>
        <time>2019-08-16T09:17:28Z</time>
      </trkpt>
      <trkpt lat="47.75827" lon="7.29288">
        <ele>243.3</ele>
        <time>2019-08-16T09:17:29Z</time>
      </trkpt>
      <trkpt lat="47.75825" lon="7.29294">
        <ele>243.3</ele>
        <time>2019-08-16T09:17:30Z</time>
      </trkpt>
      <trkpt lat="47.75824" lon="7.29299">
        <ele>243.3</ele>
        <time>2019-08-16T09:17:31Z</time>
      </trkpt>
      <trkpt lat="47.75823" lon="7.29305">
        <ele>243.2</ele>
        <time>2019-08-16T09:17:32Z</time>
      </trkpt>
      <trkpt lat="47.75821" lon="7.2931">
        <ele>243.2</ele>
        <time>2019-08-16T09:17:33Z</time>
      </trkpt>
      <trkpt lat="47.75818" lon="7.29317">
        <ele>243.1</ele>
        <time>2019-08-16T09:17:34Z</time>
      </trkpt>
      <trkpt lat="47.75816" lon="7.29323">
        <ele>243.1</ele>
        <time>2019-08-16T09:17:35Z</time>
      </trkpt>
      <trkpt lat="47.75814" lon="7.29329">
        <ele>243</ele>
        <time>2019-08-16T09:17:36Z</time>
      </trkpt>
      <trkpt lat="47.75812" lon="7.29335">
        <ele>242.9</ele>
        <time>2019-08-16T09:17:37Z</time>
      </trkpt>
      <trkpt lat="47.75808" lon="7.29342">
        <ele>242.8</ele>
        <time>2019-08-16T09:17:38Z</time>
      </trkpt>
      <trkpt lat="47.75805" lon="7.29349">
        <ele>242.7</ele>
        <time>2019-08-16T09:17:39Z</time>
      </trkpt>
      <trkpt lat="47.75802" lon="7.29356">
        <ele>242.5</ele>
        <time>2019-08-16T09:17:40Z</time>
      </trkpt>
      <trkpt lat="47.758" lon="7.29361">
        <ele>242.5</ele>
        <time>2019-08-16T09:17:41Z</time>
      </trkpt>
      <trkpt lat="47.75797" lon="7.29368">
        <ele>242.4</ele>
        <time>2019-08-16T09:17:42Z</time>
      </trkpt>
      <trkpt lat="47.75795" lon="7.29375">
        <ele>242.4</ele>
        <time>2019-08-16T09:17:43Z</time>
      </trkpt>
      <trkpt lat="47.75792" lon="7.29382">
        <ele>242.4</ele>
        <time>2019-08-16T09:17:44Z</time>
      </trkpt>
      <trkpt lat="47.75789" lon="7.29388">
        <ele>242.4</ele>
        <time>2019-08-16T09:17:45Z</time>
      </trkpt>
      <trkpt lat="47.75787" lon="7.29395">
        <ele>242.4</ele>
        <time>2019-08-16T09:17:46Z</time>
      </trkpt>
      <trkpt lat="47.75784" lon="7.294">
        <ele>242.4</ele>
        <time>2019-08-16T09:17:47Z</time>
      </trkpt>
      <trkpt lat="47.75783" lon="7.29405">
        <ele>242.4</ele>
        <time>2019-08-16T09:17:48Z</time>
      </trkpt>
      <trkpt lat="47.7578" lon="7.29409">
        <ele>242.4</ele>
        <time>2019-08-16T09:17:49Z</time>
      </trkpt>
      <trkpt lat="47.75778" lon="7.29413">
        <ele>242.4</ele>
        <time>2019-08-16T09:17:50Z</time>
      </trkpt>
      <trkpt lat="47.75776" lon="7.29416">
        <ele>242.4</ele>
        <time>2019-08-16T09:17:51Z</time>
      </trkpt>
      <trkpt lat="47.75774" lon="7.29419">
        <ele>242.4</ele>
        <time>2019-08-16T09:17:53Z</time>
      </trkpt>
      <trkpt lat="47.75771" lon="7.29422">
        <ele>242.4</ele>
        <time>2019-08-16T09:17:56Z</time>
      </trkpt>
      <trkpt lat="47.75768" lon="7.2942">
        <ele>242.4</ele>
        <time>2019-08-16T09:17:57Z</time>
      </trkpt>
      <trkpt lat="47.75766" lon="7.29416">
        <ele>242.4</ele>
        <time>2019-08-16T09:17:58Z</time>
      </trkpt>
      <trkpt lat="47.75769" lon="7.29416">
        <ele>242.4</ele>
        <time>2019-08-16T09:18:01Z</time>
      </trkpt>
      <trkpt lat="47.75772" lon="7.29419">
        <ele>242.4</ele>
        <time>2019-08-16T09:18:03Z</time>
      </trkpt>
      <trkpt lat="47.7576" lon="7.29425">
        <ele>242.4</ele>
        <time>2019-08-16T09:18:29Z</time>
      </trkpt>
      <trkpt lat="47.75757" lon="7.29424">
        <ele>242.4</ele>
        <time>2019-08-16T09:18:32Z</time>
      </trkpt>
      <trkpt lat="47.75759" lon="7.29428">
        <ele>242.4</ele>
        <time>2019-08-16T09:19:19Z</time>
      </trkpt>
      <trkpt lat="47.75762" lon="7.2943">
        <ele>242.4</ele>
        <time>2019-08-16T09:19:23Z</time>
      </trkpt>
      <trkpt lat="47.75764" lon="7.29426">
        <ele>242.4</ele>
        <time>2019-08-16T09:19:26Z</time>
      </trkpt>
      <trkpt lat="47.75763" lon="7.29422">
        <ele>242.4</ele>
        <time>2019-08-16T09:19:31Z</time>
      </trkpt>
      <trkpt lat="47.75764" lon="7.29428">
        <ele>242.4</ele>
        <time>2019-08-16T09:19:40Z</time>
      </trkpt>
      <trkpt lat="47.75766" lon="7.29434">
        <ele>242.6</ele>
        <time>2019-08-16T09:19:44Z</time>
      </trkpt>
      <trkpt lat="47.75767" lon="7.29441">
        <ele>242.6</ele>
        <time>2019-08-16T09:19:46Z</time>
      </trkpt>
      <trkpt lat="47.7577" lon="7.29445">
        <ele>242.7</ele>
        <time>2019-08-16T09:19:48Z</time>
      </trkpt>
      <trkpt lat="47.75771" lon="7.29452">
        <ele>242.8</ele>
        <time>2019-08-16T09:19:50Z</time>
      </trkpt>
      <trkpt lat="47.7577" lon="7.29459">
        <ele>242.9</ele>
        <time>2019-08-16T09:19:52Z</time>
      </trkpt>
      <trkpt lat="47.75769" lon="7.29463">
        <ele>243</ele>
        <time>2019-08-16T09:19:53Z</time>
      </trkpt>
      <trkpt lat="47.75768" lon="7.29468">
        <ele>243.1</ele>
        <time>2019-08-16T09:19:54Z</time>
      </trkpt>
      <trkpt lat="47.75767" lon="7.29473">
        <ele>243.2</ele>
        <time>2019-08-16T09:19:55Z</time>
      </trkpt>
      <trkpt lat="47.75766" lon="7.29478">
        <ele>243.3</ele>
        <time>2019-08-16T09:19:56Z</time>
      </trkpt>
      <trkpt lat="47.75764" lon="7.29483">
        <ele>243.5</ele>
        <time>2019-08-16T09:19:57Z</time>
      </trkpt>
      <trkpt lat="47.75762" lon="7.29488">
        <ele>243.6</ele>
        <time>2019-08-16T09:19:58Z</time>
      </trkpt>
      <trkpt lat="47.75761" lon="7.29493">
        <ele>243.8</ele>
        <time>2019-08-16T09:19:59Z</time>
      </trkpt>
      <trkpt lat="47.75758" lon="7.29499">
        <ele>244</ele>
        <time>2019-08-16T09:20:00Z</time>
      </trkpt>
      <trkpt lat="47.75756" lon="7.29504">
        <ele>244.1</ele>
        <time>2019-08-16T09:20:01Z</time>
      </trkpt>
      <trkpt lat="47.75754" lon="7.29511">
        <ele>244.3</ele>
        <time>2019-08-16T09:20:02Z</time>
      </trkpt>
      <trkpt lat="47.75752" lon="7.29516">
        <ele>244.4</ele>
        <time>2019-08-16T09:20:03Z</time>
      </trkpt>
      <trkpt lat="47.7575" lon="7.29522">
        <ele>244.4</ele>
        <time>2019-08-16T09:20:04Z</time>
      </trkpt>
      <trkpt lat="47.75748" lon="7.29527">
        <ele>244.5</ele>
        <time>2019-08-16T09:20:05Z</time>
      </trkpt>
      <trkpt lat="47.75745" lon="7.29534">
        <ele>244.6</ele>
        <time>2019-08-16T09:20:06Z</time>
      </trkpt>
      <trkpt lat="47.75742" lon="7.2954">
        <ele>244.8</ele>
        <time>2019-08-16T09:20:07Z</time>
      </trkpt>
      <trkpt lat="47.7574" lon="7.29545">
        <ele>244.9</ele>
        <time>2019-08-16T09:20:08Z</time>
      </trkpt>
      <trkpt lat="47.75738" lon="7.29551">
        <ele>245</ele>
        <time>2019-08-16T09:20:09Z</time>
      </trkpt>
      <trkpt lat="47.75736" lon="7.29556">
        <ele>245.1</ele>
        <time>2019-08-16T09:20:10Z</time>
      </trkpt>
      <trkpt lat="47.75734" lon="7.29562">
        <ele>245.3</ele>
        <time>2019-08-16T09:20:11Z</time>
      </trkpt>
      <trkpt lat="47.75732" lon="7.29567">
        <ele>245.4</ele>
        <time>2019-08-16T09:20:12Z</time>
      </trkpt>
      <trkpt lat="47.75731" lon="7.29573">
        <ele>245.5</ele>
        <time>2019-08-16T09:20:13Z</time>
      </trkpt>
      <trkpt lat="47.7573" lon="7.29578">
        <ele>245.7</ele>
        <time>2019-08-16T09:20:14Z</time>
      </trkpt>
      <trkpt lat="47.75728" lon="7.29584">
        <ele>245.9</ele>
        <time>2019-08-16T09:20:15Z</time>
      </trkpt>
      <trkpt lat="47.75726" lon="7.29589">
        <ele>246.1</ele>
        <time>2019-08-16T09:20:16Z</time>
      </trkpt>
      <trkpt lat="47.75724" lon="7.29594">
        <ele>246</ele>
        <time>2019-08-16T09:20:17Z</time>
      </trkpt>
      <trkpt lat="47.75722" lon="7.29599">
        <ele>246</ele>
        <time>2019-08-16T09:20:18Z</time>
      </trkpt>
      <trkpt lat="47.75721" lon="7.29604">
        <ele>245.9</ele>
        <time>2019-08-16T09:20:19Z</time>
      </trkpt>
      <trkpt lat="47.7572" lon="7.2961">
        <ele>245.9</ele>
        <time>2019-08-16T09:20:20Z</time>
      </trkpt>
      <trkpt lat="47.75718" lon="7.29615">
        <ele>245.8</ele>
        <time>2019-08-16T09:20:21Z</time>
      </trkpt>
      <trkpt lat="47.75717" lon="7.2962">
        <ele>245.8</ele>
        <time>2019-08-16T09:20:22Z</time>
      </trkpt>
      <trkpt lat="47.75714" lon="7.29626">
        <ele>245.7</ele>
        <time>2019-08-16T09:20:24Z</time>
      </trkpt>
      <trkpt lat="47.75712" lon="7.29632">
        <ele>245.6</ele>
        <time>2019-08-16T09:20:26Z</time>
      </trkpt>
      <trkpt lat="47.75711" lon="7.29635">
        <ele>245.6</ele>
        <time>2019-08-16T09:20:27Z</time>
      </trkpt>
      <trkpt lat="47.75709" lon="7.2964">
        <ele>245.5</ele>
        <time>2019-08-16T09:20:28Z</time>
      </trkpt>
      <trkpt lat="47.75708" lon="7.29645">
        <ele>245.5</ele>
        <time>2019-08-16T09:20:29Z</time>
      </trkpt>
      <trkpt lat="47.75706" lon="7.2965">
        <ele>245.4</ele>
        <time>2019-08-16T09:20:30Z</time>
      </trkpt>
      <trkpt lat="47.75705" lon="7.29655">
        <ele>245.4</ele>
        <time>2019-08-16T09:20:31Z</time>
      </trkpt>
      <trkpt lat="47.75703" lon="7.29659">
        <ele>245.3</ele>
        <time>2019-08-16T09:20:32Z</time>
      </trkpt>
      <trkpt lat="47.75702" lon="7.29663">
        <ele>245.2</ele>
        <time>2019-08-16T09:20:33Z</time>
      </trkpt>
      <trkpt lat="47.757" lon="7.29667">
        <ele>245</ele>
        <time>2019-08-16T09:20:34Z</time>
      </trkpt>
      <trkpt lat="47.75699" lon="7.29671">
        <ele>244.9</ele>
        <time>2019-08-16T09:20:35Z</time>
      </trkpt>
      <trkpt lat="47.75698" lon="7.29676">
        <ele>244.7</ele>
        <time>2019-08-16T09:20:36Z</time>
      </trkpt>
      <trkpt lat="47.75697" lon="7.2968">
        <ele>244.6</ele>
        <time>2019-08-16T09:20:37Z</time>
      </trkpt>
      <trkpt lat="47.75695" lon="7.29685">
        <ele>244.4</ele>
        <time>2019-08-16T09:20:38Z</time>
      </trkpt>
      <trkpt lat="47.75693" lon="7.2969">
        <ele>244.2</ele>
        <time>2019-08-16T09:20:39Z</time>
      </trkpt>
      <trkpt lat="47.75691" lon="7.29695">
        <ele>244</ele>
        <time>2019-08-16T09:20:40Z</time>
      </trkpt>
      <trkpt lat="47.75691" lon="7.297">
        <ele>243.8</ele>
        <time>2019-08-16T09:20:41Z</time>
      </trkpt>
      <trkpt lat="47.7569" lon="7.29704">
        <ele>243.7</ele>
        <time>2019-08-16T09:20:42Z</time>
      </trkpt>
      <trkpt lat="47.75689" lon="7.29708">
        <ele>243.4</ele>
        <time>2019-08-16T09:20:43Z</time>
      </trkpt>
      <trkpt lat="47.75688" lon="7.29713">
        <ele>243.1</ele>
        <time>2019-08-16T09:20:44Z</time>
      </trkpt>
      <trkpt lat="47.75686" lon="7.29718">
        <ele>242.8</ele>
        <time>2019-08-16T09:20:45Z</time>
      </trkpt>
      <trkpt lat="47.75684" lon="7.29723">
        <ele>242.3</ele>
        <time>2019-08-16T09:20:46Z</time>
      </trkpt>
      <trkpt lat="47.75682" lon="7.29728">
        <ele>242.1</ele>
        <time>2019-08-16T09:20:47Z</time>
      </trkpt>
      <trkpt lat="47.75678" lon="7.29734">
        <ele>241.9</ele>
        <time>2019-08-16T09:20:49Z</time>
      </trkpt>
      <trkpt lat="47.75676" lon="7.29739">
        <ele>241.8</ele>
        <time>2019-08-16T09:20:50Z</time>
      </trkpt>
      <trkpt lat="47.75674" lon="7.29743">
        <ele>241.7</ele>
        <time>2019-08-16T09:20:51Z</time>
      </trkpt>
      <trkpt lat="47.75673" lon="7.29749">
        <ele>241.6</ele>
        <time>2019-08-16T09:20:52Z</time>
      </trkpt>
      <trkpt lat="47.75671" lon="7.29755">
        <ele>241.4</ele>
        <time>2019-08-16T09:20:53Z</time>
      </trkpt>
      <trkpt lat="47.75669" lon="7.29759">
        <ele>241.3</ele>
        <time>2019-08-16T09:20:54Z</time>
      </trkpt>
      <trkpt lat="47.75668" lon="7.29765">
        <ele>241</ele>
        <time>2019-08-16T09:20:55Z</time>
      </trkpt>
      <trkpt lat="47.75665" lon="7.2977">
        <ele>241.1</ele>
        <time>2019-08-16T09:20:56Z</time>
      </trkpt>
      <trkpt lat="47.75665" lon="7.29775">
        <ele>241.1</ele>
        <time>2019-08-16T09:20:57Z</time>
      </trkpt>
      <trkpt lat="47.75662" lon="7.29778">
        <ele>241.1</ele>
        <time>2019-08-16T09:20:58Z</time>
      </trkpt>
      <trkpt lat="47.75661" lon="7.29782">
        <ele>241.2</ele>
        <time>2019-08-16T09:20:59Z</time>
      </trkpt>
      <trkpt lat="47.7566" lon="7.29787">
        <ele>241.3</ele>
        <time>2019-08-16T09:21:00Z</time>
      </trkpt>
      <trkpt lat="47.75659" lon="7.29792">
        <ele>241.3</ele>
        <time>2019-08-16T09:21:01Z</time>
      </trkpt>
      <trkpt lat="47.75658" lon="7.29798">
        <ele>241.4</ele>
        <time>2019-08-16T09:21:02Z</time>
      </trkpt>
      <trkpt lat="47.75657" lon="7.29802">
        <ele>241.5</ele>
        <time>2019-08-16T09:21:03Z</time>
      </trkpt>
      <trkpt lat="47.75655" lon="7.29807">
        <ele>241.6</ele>
        <time>2019-08-16T09:21:04Z</time>
      </trkpt>
      <trkpt lat="47.75653" lon="7.29813">
        <ele>241.8</ele>
        <time>2019-08-16T09:21:05Z</time>
      </trkpt>
      <trkpt lat="47.75651" lon="7.29818">
        <ele>241.9</ele>
        <time>2019-08-16T09:21:06Z</time>
      </trkpt>
      <trkpt lat="47.75649" lon="7.29824">
        <ele>242.1</ele>
        <time>2019-08-16T09:21:07Z</time>
      </trkpt>
      <trkpt lat="47.75648" lon="7.29829">
        <ele>242.2</ele>
        <time>2019-08-16T09:21:08Z</time>
      </trkpt>
      <trkpt lat="47.75648" lon="7.29834">
        <ele>242.4</ele>
        <time>2019-08-16T09:21:09Z</time>
      </trkpt>
      <trkpt lat="47.75646" lon="7.2984">
        <ele>242.6</ele>
        <time>2019-08-16T09:21:10Z</time>
      </trkpt>
      <trkpt lat="47.75645" lon="7.29847">
        <ele>242.8</ele>
        <time>2019-08-16T09:21:11Z</time>
      </trkpt>
      <trkpt lat="47.75645" lon="7.29853">
        <ele>243</ele>
        <time>2019-08-16T09:21:12Z</time>
      </trkpt>
      <trkpt lat="47.75644" lon="7.2986">
        <ele>243.1</ele>
        <time>2019-08-16T09:21:13Z</time>
      </trkpt>
      <trkpt lat="47.75643" lon="7.29866">
        <ele>243.3</ele>
        <time>2019-08-16T09:21:14Z</time>
      </trkpt>
      <trkpt lat="47.75642" lon="7.29872">
        <ele>243.4</ele>
        <time>2019-08-16T09:21:15Z</time>
      </trkpt>
      <trkpt lat="47.75641" lon="7.29878">
        <ele>243.5</ele>
        <time>2019-08-16T09:21:16Z</time>
      </trkpt>
      <trkpt lat="47.75638" lon="7.29885">
        <ele>243.6</ele>
        <time>2019-08-16T09:21:17Z</time>
      </trkpt>
      <trkpt lat="47.75636" lon="7.29891">
        <ele>243.6</ele>
        <time>2019-08-16T09:21:18Z</time>
      </trkpt>
      <trkpt lat="47.75635" lon="7.29897">
        <ele>243.6</ele>
        <time>2019-08-16T09:21:19Z</time>
      </trkpt>
      <trkpt lat="47.75633" lon="7.29902">
        <ele>243.5</ele>
        <time>2019-08-16T09:21:20Z</time>
      </trkpt>
      <trkpt lat="47.75631" lon="7.29907">
        <ele>243.5</ele>
        <time>2019-08-16T09:21:21Z</time>
      </trkpt>
      <trkpt lat="47.75628" lon="7.29913">
        <ele>243.4</ele>
        <time>2019-08-16T09:21:22Z</time>
      </trkpt>
      <trkpt lat="47.75626" lon="7.29918">
        <ele>243.4</ele>
        <time>2019-08-16T09:21:23Z</time>
      </trkpt>
      <trkpt lat="47.75625" lon="7.29924">
        <ele>243.3</ele>
        <time>2019-08-16T09:21:24Z</time>
      </trkpt>
      <trkpt lat="47.75622" lon="7.29929">
        <ele>243.2</ele>
        <time>2019-08-16T09:21:25Z</time>
      </trkpt>
      <trkpt lat="47.75619" lon="7.29934">
        <ele>243.2</ele>
        <time>2019-08-16T09:21:26Z</time>
      </trkpt>
      <trkpt lat="47.75617" lon="7.29939">
        <ele>243.2</ele>
        <time>2019-08-16T09:21:27Z</time>
      </trkpt>
      <trkpt lat="47.75616" lon="7.29943">
        <ele>243.1</ele>
        <time>2019-08-16T09:21:28Z</time>
      </trkpt>
      <trkpt lat="47.75614" lon="7.29948">
        <ele>243.1</ele>
        <time>2019-08-16T09:21:29Z</time>
      </trkpt>
      <trkpt lat="47.75611" lon="7.29953">
        <ele>243.1</ele>
        <time>2019-08-16T09:21:30Z</time>
      </trkpt>
      <trkpt lat="47.75608" lon="7.29958">
        <ele>243.4</ele>
        <time>2019-08-16T09:21:31Z</time>
      </trkpt>
      <trkpt lat="47.75606" lon="7.29962">
        <ele>243.5</ele>
        <time>2019-08-16T09:21:32Z</time>
      </trkpt>
      <trkpt lat="47.75604" lon="7.29967">
        <ele>243.7</ele>
        <time>2019-08-16T09:21:33Z</time>
      </trkpt>
      <trkpt lat="47.75602" lon="7.29972">
        <ele>243.8</ele>
        <time>2019-08-16T09:21:34Z</time>
      </trkpt>
      <trkpt lat="47.75599" lon="7.29978">
        <ele>244</ele>
        <time>2019-08-16T09:21:35Z</time>
      </trkpt>
      <trkpt lat="47.75597" lon="7.29983">
        <ele>244.1</ele>
        <time>2019-08-16T09:21:36Z</time>
      </trkpt>
      <trkpt lat="47.75594" lon="7.29988">
        <ele>244.3</ele>
        <time>2019-08-16T09:21:37Z</time>
      </trkpt>
      <trkpt lat="47.75592" lon="7.29993">
        <ele>244.3</ele>
        <time>2019-08-16T09:21:38Z</time>
      </trkpt>
      <trkpt lat="47.75589" lon="7.29998">
        <ele>244.4</ele>
        <time>2019-08-16T09:21:39Z</time>
      </trkpt>
      <trkpt lat="47.75586" lon="7.30003">
        <ele>244.5</ele>
        <time>2019-08-16T09:21:40Z</time>
      </trkpt>
      <trkpt lat="47.75584" lon="7.30007">
        <ele>244.5</ele>
        <time>2019-08-16T09:21:41Z</time>
      </trkpt>
      <trkpt lat="47.75581" lon="7.30012">
        <ele>244.6</ele>
        <time>2019-08-16T09:21:42Z</time>
      </trkpt>
      <trkpt lat="47.75578" lon="7.30016">
        <ele>244.6</ele>
        <time>2019-08-16T09:21:43Z</time>
      </trkpt>
      <trkpt lat="47.75576" lon="7.30021">
        <ele>244.7</ele>
        <time>2019-08-16T09:21:44Z</time>
      </trkpt>
      <trkpt lat="47.75573" lon="7.30027">
        <ele>244.7</ele>
        <time>2019-08-16T09:21:45Z</time>
      </trkpt>
      <trkpt lat="47.75571" lon="7.30033">
        <ele>244.7</ele>
        <time>2019-08-16T09:21:46Z</time>
      </trkpt>
      <trkpt lat="47.75568" lon="7.30038">
        <ele>244.7</ele>
        <time>2019-08-16T09:21:47Z</time>
      </trkpt>
      <trkpt lat="47.75566" lon="7.30045">
        <ele>244.5</ele>
        <time>2019-08-16T09:21:48Z</time>
      </trkpt>
      <trkpt lat="47.75564" lon="7.30051">
        <ele>244.4</ele>
        <time>2019-08-16T09:21:49Z</time>
      </trkpt>
      <trkpt lat="47.7556" lon="7.30057">
        <ele>244.3</ele>
        <time>2019-08-16T09:21:50Z</time>
      </trkpt>
      <trkpt lat="47.75557" lon="7.30063">
        <ele>244.3</ele>
        <time>2019-08-16T09:21:51Z</time>
      </trkpt>
      <trkpt lat="47.75554" lon="7.30068">
        <ele>244.1</ele>
        <time>2019-08-16T09:21:52Z</time>
      </trkpt>
      <trkpt lat="47.75551" lon="7.30073">
        <ele>243.9</ele>
        <time>2019-08-16T09:21:53Z</time>
      </trkpt>
      <trkpt lat="47.75547" lon="7.30078">
        <ele>243.8</ele>
        <time>2019-08-16T09:21:54Z</time>
      </trkpt>
      <trkpt lat="47.75544" lon="7.30082">
        <ele>243.7</ele>
        <time>2019-08-16T09:21:55Z</time>
      </trkpt>
      <trkpt lat="47.75541" lon="7.30086">
        <ele>243.6</ele>
        <time>2019-08-16T09:21:56Z</time>
      </trkpt>
      <trkpt lat="47.75538" lon="7.30089">
        <ele>243.5</ele>
        <time>2019-08-16T09:21:57Z</time>
      </trkpt>
      <trkpt lat="47.75535" lon="7.30093">
        <ele>243.4</ele>
        <time>2019-08-16T09:21:58Z</time>
      </trkpt>
      <trkpt lat="47.75532" lon="7.30096">
        <ele>243.3</ele>
        <time>2019-08-16T09:21:59Z</time>
      </trkpt>
      <trkpt lat="47.7553" lon="7.30098">
        <ele>243.3</ele>
        <time>2019-08-16T09:22:00Z</time>
      </trkpt>
      <trkpt lat="47.75526" lon="7.30101">
        <ele>243.2</ele>
        <time>2019-08-16T09:22:01Z</time>
      </trkpt>
      <trkpt lat="47.75523" lon="7.30103">
        <ele>243.1</ele>
        <time>2019-08-16T09:22:02Z</time>
      </trkpt>
      <trkpt lat="47.75519" lon="7.30106">
        <ele>243</ele>
        <time>2019-08-16T09:22:03Z</time>
      </trkpt>
      <trkpt lat="47.75515" lon="7.30109">
        <ele>242.9</ele>
        <time>2019-08-16T09:22:04Z</time>
      </trkpt>
      <trkpt lat="47.7551" lon="7.30112">
        <ele>242.9</ele>
        <time>2019-08-16T09:22:05Z</time>
      </trkpt>
      <trkpt lat="47.75506" lon="7.30115">
        <ele>242.9</ele>
        <time>2019-08-16T09:22:06Z</time>
      </trkpt>
      <trkpt lat="47.75501" lon="7.30118">
        <ele>242.9</ele>
        <time>2019-08-16T09:22:07Z</time>
      </trkpt>
      <trkpt lat="47.75497" lon="7.30121">
        <ele>242.8</ele>
        <time>2019-08-16T09:22:08Z</time>
      </trkpt>
      <trkpt lat="47.75493" lon="7.30125">
        <ele>242.8</ele>
        <time>2019-08-16T09:22:09Z</time>
      </trkpt>
      <trkpt lat="47.75489" lon="7.30128">
        <ele>242.8</ele>
        <time>2019-08-16T09:22:10Z</time>
      </trkpt>
      <trkpt lat="47.75486" lon="7.30131">
        <ele>242.8</ele>
        <time>2019-08-16T09:22:11Z</time>
      </trkpt>
      <trkpt lat="47.75482" lon="7.30134">
        <ele>242.8</ele>
        <time>2019-08-16T09:22:12Z</time>
      </trkpt>
      <trkpt lat="47.75478" lon="7.30138">
        <ele>242.7</ele>
        <time>2019-08-16T09:22:13Z</time>
      </trkpt>
      <trkpt lat="47.75474" lon="7.30141">
        <ele>242.7</ele>
        <time>2019-08-16T09:22:14Z</time>
      </trkpt>
      <trkpt lat="47.75471" lon="7.30144">
        <ele>242.7</ele>
        <time>2019-08-16T09:22:15Z</time>
      </trkpt>
      <trkpt lat="47.75467" lon="7.30147">
        <ele>242.6</ele>
        <time>2019-08-16T09:22:16Z</time>
      </trkpt>
      <trkpt lat="47.75463" lon="7.30151">
        <ele>242.6</ele>
        <time>2019-08-16T09:22:17Z</time>
      </trkpt>
      <trkpt lat="47.75461" lon="7.30155">
        <ele>242.6</ele>
        <time>2019-08-16T09:22:18Z</time>
      </trkpt>
      <trkpt lat="47.75457" lon="7.30158">
        <ele>242.5</ele>
        <time>2019-08-16T09:22:19Z</time>
      </trkpt>
      <trkpt lat="47.75453" lon="7.30162">
        <ele>242.5</ele>
        <time>2019-08-16T09:22:20Z</time>
      </trkpt>
      <trkpt lat="47.7545" lon="7.30167">
        <ele>242.5</ele>
        <time>2019-08-16T09:22:21Z</time>
      </trkpt>
      <trkpt lat="47.75447" lon="7.3017">
        <ele>242.4</ele>
        <time>2019-08-16T09:22:22Z</time>
      </trkpt>
      <trkpt lat="47.75443" lon="7.30172">
        <ele>242.4</ele>
        <time>2019-08-16T09:22:23Z</time>
      </trkpt>
      <trkpt lat="47.7544" lon="7.30175">
        <ele>242.3</ele>
        <time>2019-08-16T09:22:24Z</time>
      </trkpt>
      <trkpt lat="47.75435" lon="7.30179">
        <ele>242.3</ele>
        <time>2019-08-16T09:22:25Z</time>
      </trkpt>
      <trkpt lat="47.75431" lon="7.30182">
        <ele>242.3</ele>
        <time>2019-08-16T09:22:26Z</time>
      </trkpt>
      <trkpt lat="47.75427" lon="7.30183">
        <ele>242.4</ele>
        <time>2019-08-16T09:22:27Z</time>
      </trkpt>
      <trkpt lat="47.75424" lon="7.30184">
        <ele>242.4</ele>
        <time>2019-08-16T09:22:28Z</time>
      </trkpt>
      <trkpt lat="47.7542" lon="7.30185">
        <ele>242.4</ele>
        <time>2019-08-16T09:22:29Z</time>
      </trkpt>
      <trkpt lat="47.75416" lon="7.30186">
        <ele>242.4</ele>
        <time>2019-08-16T09:22:30Z</time>
      </trkpt>
      <trkpt lat="47.75412" lon="7.30187">
        <ele>242.4</ele>
        <time>2019-08-16T09:22:31Z</time>
      </trkpt>
      <trkpt lat="47.75408" lon="7.30188">
        <ele>242.4</ele>
        <time>2019-08-16T09:22:32Z</time>
      </trkpt>
      <trkpt lat="47.75404" lon="7.3019">
        <ele>242.4</ele>
        <time>2019-08-16T09:22:33Z</time>
      </trkpt>
      <trkpt lat="47.754" lon="7.30193">
        <ele>242.4</ele>
        <time>2019-08-16T09:22:34Z</time>
      </trkpt>
      <trkpt lat="47.75395" lon="7.30196">
        <ele>242.4</ele>
        <time>2019-08-16T09:22:35Z</time>
      </trkpt>
      <trkpt lat="47.7539" lon="7.302">
        <ele>242.4</ele>
        <time>2019-08-16T09:22:36Z</time>
      </trkpt>
      <trkpt lat="47.75385" lon="7.30204">
        <ele>242.5</ele>
        <time>2019-08-16T09:22:37Z</time>
      </trkpt>
      <trkpt lat="47.7538" lon="7.30209">
        <ele>242.5</ele>
        <time>2019-08-16T09:22:38Z</time>
      </trkpt>
      <trkpt lat="47.75376" lon="7.30213">
        <ele>242.5</ele>
        <time>2019-08-16T09:22:39Z</time>
      </trkpt>
      <trkpt lat="47.75372" lon="7.30217">
        <ele>242.5</ele>
        <time>2019-08-16T09:22:40Z</time>
      </trkpt>
      <trkpt lat="47.75367" lon="7.30221">
        <ele>242.5</ele>
        <time>2019-08-16T09:22:41Z</time>
      </trkpt>
      <trkpt lat="47.75363" lon="7.30223">
        <ele>242.5</ele>
        <time>2019-08-16T09:22:42Z</time>
      </trkpt>
      <trkpt lat="47.75358" lon="7.30226">
        <ele>242.4</ele>
        <time>2019-08-16T09:22:43Z</time>
      </trkpt>
      <trkpt lat="47.75354" lon="7.3023">
        <ele>242.4</ele>
        <time>2019-08-16T09:22:44Z</time>
      </trkpt>
      <trkpt lat="47.75349" lon="7.30234">
        <ele>242.4</ele>
        <time>2019-08-16T09:22:45Z</time>
      </trkpt>
      <trkpt lat="47.75346" lon="7.30238">
        <ele>242.4</ele>
        <time>2019-08-16T09:22:46Z</time>
      </trkpt>
      <trkpt lat="47.75342" lon="7.30242">
        <ele>242.4</ele>
        <time>2019-08-16T09:22:47Z</time>
      </trkpt>
      <trkpt lat="47.75338" lon="7.30246">
        <ele>242.4</ele>
        <time>2019-08-16T09:22:48Z</time>
      </trkpt>
      <trkpt lat="47.75334" lon="7.3025">
        <ele>242.5</ele>
        <time>2019-08-16T09:22:49Z</time>
      </trkpt>
      <trkpt lat="47.75331" lon="7.30254">
        <ele>242.5</ele>
        <time>2019-08-16T09:22:50Z</time>
      </trkpt>
      <trkpt lat="47.75327" lon="7.30257">
        <ele>242.5</ele>
        <time>2019-08-16T09:22:51Z</time>
      </trkpt>
      <trkpt lat="47.75322" lon="7.3026">
        <ele>242.5</ele>
        <time>2019-08-16T09:22:52Z</time>
      </trkpt>
      <trkpt lat="47.75318" lon="7.30263">
        <ele>242.5</ele>
        <time>2019-08-16T09:22:53Z</time>
      </trkpt>
      <trkpt lat="47.75315" lon="7.30268">
        <ele>242.5</ele>
        <time>2019-08-16T09:22:54Z</time>
      </trkpt>
      <trkpt lat="47.75312" lon="7.30271">
        <ele>242.5</ele>
        <time>2019-08-16T09:22:55Z</time>
      </trkpt>
      <trkpt lat="47.75307" lon="7.30276">
        <ele>242.5</ele>
        <time>2019-08-16T09:22:56Z</time>
      </trkpt>
      <trkpt lat="47.75303" lon="7.30279">
        <ele>242.5</ele>
        <time>2019-08-16T09:22:57Z</time>
      </trkpt>
      <trkpt lat="47.75298" lon="7.30283">
        <ele>242.5</ele>
        <time>2019-08-16T09:22:58Z</time>
      </trkpt>
      <trkpt lat="47.75295" lon="7.30286">
        <ele>242.5</ele>
        <time>2019-08-16T09:22:59Z</time>
      </trkpt>
      <trkpt lat="47.75291" lon="7.30289">
        <ele>242.5</ele>
        <time>2019-08-16T09:23:00Z</time>
      </trkpt>
      <trkpt lat="47.75286" lon="7.30292">
        <ele>242.5</ele>
        <time>2019-08-16T09:23:01Z</time>
      </trkpt>
      <trkpt lat="47.75281" lon="7.30294">
        <ele>242.5</ele>
        <time>2019-08-16T09:23:02Z</time>
      </trkpt>
      <trkpt lat="47.75276" lon="7.30297">
        <ele>242.4</ele>
        <time>2019-08-16T09:23:03Z</time>
      </trkpt>
      <trkpt lat="47.75271" lon="7.30299">
        <ele>242.4</ele>
        <time>2019-08-16T09:23:04Z</time>
      </trkpt>
      <trkpt lat="47.75265" lon="7.30302">
        <ele>242.4</ele>
        <time>2019-08-16T09:23:05Z</time>
      </trkpt>
      <trkpt lat="47.7526" lon="7.30304">
        <ele>242.5</ele>
        <time>2019-08-16T09:23:06Z</time>
      </trkpt>
      <trkpt lat="47.75254" lon="7.30307">
        <ele>242.5</ele>
        <time>2019-08-16T09:23:07Z</time>
      </trkpt>
      <trkpt lat="47.75249" lon="7.30312">
        <ele>242.6</ele>
        <time>2019-08-16T09:23:08Z</time>
      </trkpt>
      <trkpt lat="47.75244" lon="7.30316">
        <ele>242.7</ele>
        <time>2019-08-16T09:23:09Z</time>
      </trkpt>
      <trkpt lat="47.7524" lon="7.30319">
        <ele>242.7</ele>
        <time>2019-08-16T09:23:10Z</time>
      </trkpt>
      <trkpt lat="47.75237" lon="7.30322">
        <ele>242.8</ele>
        <time>2019-08-16T09:23:11Z</time>
      </trkpt>
      <trkpt lat="47.75234" lon="7.30325">
        <ele>242.8</ele>
        <time>2019-08-16T09:23:13Z</time>
      </trkpt>
      <trkpt lat="47.75231" lon="7.30323">
        <ele>242.8</ele>
        <time>2019-08-16T09:23:15Z</time>
      </trkpt>
      <trkpt lat="47.75226" lon="7.30318">
        <ele>242.9</ele>
        <time>2019-08-16T09:23:17Z</time>
      </trkpt>
      <trkpt lat="47.75221" lon="7.30319">
        <ele>242.9</ele>
        <time>2019-08-16T09:23:18Z</time>
      </trkpt>
      <trkpt lat="47.75217" lon="7.3032">
        <ele>243</ele>
        <time>2019-08-16T09:23:19Z</time>
      </trkpt>
      <trkpt lat="47.75214" lon="7.30322">
        <ele>243</ele>
        <time>2019-08-16T09:23:20Z</time>
      </trkpt>
      <trkpt lat="47.75211" lon="7.30323">
        <ele>243</ele>
        <time>2019-08-16T09:23:21Z</time>
      </trkpt>
      <trkpt lat="47.75206" lon="7.30325">
        <ele>243.1</ele>
        <time>2019-08-16T09:23:23Z</time>
      </trkpt>
      <trkpt lat="47.75204" lon="7.30322">
        <ele>243</ele>
        <time>2019-08-16T09:23:26Z</time>
      </trkpt>
      <trkpt lat="47.75204" lon="7.30326">
        <ele>243</ele>
        <time>2019-08-16T09:23:31Z</time>
      </trkpt>
      <trkpt lat="47.75206" lon="7.30331">
        <ele>243</ele>
        <time>2019-08-16T09:23:33Z</time>
      </trkpt>
      <trkpt lat="47.75201" lon="7.30335">
        <ele>243</ele>
        <time>2019-08-16T09:24:21Z</time>
      </trkpt>
      <trkpt lat="47.75198" lon="7.3034">
        <ele>243</ele>
        <time>2019-08-16T09:24:23Z</time>
      </trkpt>
      <trkpt lat="47.75196" lon="7.30344">
        <ele>243</ele>
        <time>2019-08-16T09:24:24Z</time>
      </trkpt>
      <trkpt lat="47.75194" lon="7.30348">
        <ele>243</ele>
        <time>2019-08-16T09:24:25Z</time>
      </trkpt>
      <trkpt lat="47.75193" lon="7.30351">
        <ele>243</ele>
        <time>2019-08-16T09:24:26Z</time>
      </trkpt>
      <trkpt lat="47.75191" lon="7.30355">
        <ele>242.9</ele>
        <time>2019-08-16T09:24:27Z</time>
      </trkpt>
      <trkpt lat="47.75188" lon="7.30358">
        <ele>242.9</ele>
        <time>2019-08-16T09:24:28Z</time>
      </trkpt>
      <trkpt lat="47.75185" lon="7.30362">
        <ele>242.8</ele>
        <time>2019-08-16T09:24:29Z</time>
      </trkpt>
      <trkpt lat="47.75182" lon="7.30366">
        <ele>242.8</ele>
        <time>2019-08-16T09:24:30Z</time>
      </trkpt>
      <trkpt lat="47.75178" lon="7.30372">
        <ele>242.8</ele>
        <time>2019-08-16T09:24:31Z</time>
      </trkpt>
      <trkpt lat="47.75175" lon="7.30378">
        <ele>242.8</ele>
        <time>2019-08-16T09:24:32Z</time>
      </trkpt>
      <trkpt lat="47.75171" lon="7.30385">
        <ele>242.8</ele>
        <time>2019-08-16T09:24:33Z</time>
      </trkpt>
      <trkpt lat="47.75169" lon="7.30391">
        <ele>242.8</ele>
        <time>2019-08-16T09:24:34Z</time>
      </trkpt>
      <trkpt lat="47.75167" lon="7.30396">
        <ele>242.9</ele>
        <time>2019-08-16T09:24:35Z</time>
      </trkpt>
      <trkpt lat="47.75165" lon="7.304">
        <ele>242.9</ele>
        <time>2019-08-16T09:24:36Z</time>
      </trkpt>
      <trkpt lat="47.75162" lon="7.30406">
        <ele>243</ele>
        <time>2019-08-16T09:24:37Z</time>
      </trkpt>
      <trkpt lat="47.75159" lon="7.30411">
        <ele>243</ele>
        <time>2019-08-16T09:24:38Z</time>
      </trkpt>
      <trkpt lat="47.75155" lon="7.30417">
        <ele>243.1</ele>
        <time>2019-08-16T09:24:39Z</time>
      </trkpt>
      <trkpt lat="47.75152" lon="7.30421">
        <ele>243.2</ele>
        <time>2019-08-16T09:24:40Z</time>
      </trkpt>
      <trkpt lat="47.75147" lon="7.30424">
        <ele>243.3</ele>
        <time>2019-08-16T09:24:41Z</time>
      </trkpt>
      <trkpt lat="47.75143" lon="7.30428">
        <ele>243.3</ele>
        <time>2019-08-16T09:24:42Z</time>
      </trkpt>
      <trkpt lat="47.75139" lon="7.30429">
        <ele>243.4</ele>
        <time>2019-08-16T09:24:43Z</time>
      </trkpt>
      <trkpt lat="47.75133" lon="7.30429">
        <ele>243.5</ele>
        <time>2019-08-16T09:24:44Z</time>
      </trkpt>
      <trkpt lat="47.75128" lon="7.30431">
        <ele>243.6</ele>
        <time>2019-08-16T09:24:45Z</time>
      </trkpt>
      <trkpt lat="47.75124" lon="7.30435">
        <ele>243.6</ele>
        <time>2019-08-16T09:24:46Z</time>
      </trkpt>
      <trkpt lat="47.75119" lon="7.30438">
        <ele>243.7</ele>
        <time>2019-08-16T09:24:47Z</time>
      </trkpt>
      <trkpt lat="47.75114" lon="7.30441">
        <ele>243.8</ele>
        <time>2019-08-16T09:24:48Z</time>
      </trkpt>
      <trkpt lat="47.75111" lon="7.30442">
        <ele>243.9</ele>
        <time>2019-08-16T09:24:49Z</time>
      </trkpt>
      <trkpt lat="47.75107" lon="7.30444">
        <ele>244</ele>
        <time>2019-08-16T09:24:50Z</time>
      </trkpt>
      <trkpt lat="47.75103" lon="7.30446">
        <ele>244.1</ele>
        <time>2019-08-16T09:24:51Z</time>
      </trkpt>
      <trkpt lat="47.75098" lon="7.30449">
        <ele>244.2</ele>
        <time>2019-08-16T09:24:52Z</time>
      </trkpt>
      <trkpt lat="47.75094" lon="7.30453">
        <ele>244.2</ele>
        <time>2019-08-16T09:24:53Z</time>
      </trkpt>
      <trkpt lat="47.7509" lon="7.30457">
        <ele>244.3</ele>
        <time>2019-08-16T09:24:54Z</time>
      </trkpt>
      <trkpt lat="47.75087" lon="7.30461">
        <ele>244.4</ele>
        <time>2019-08-16T09:24:55Z</time>
      </trkpt>
      <trkpt lat="47.75083" lon="7.30462">
        <ele>244.4</ele>
        <time>2019-08-16T09:24:57Z</time>
      </trkpt>
      <trkpt lat="47.75077" lon="7.30463">
        <ele>244.4</ele>
        <time>2019-08-16T09:24:59Z</time>
      </trkpt>
      <trkpt lat="47.75073" lon="7.30466">
        <ele>244.4</ele>
        <time>2019-08-16T09:25:00Z</time>
      </trkpt>
      <trkpt lat="47.7507" lon="7.30469">
        <ele>244.4</ele>
        <time>2019-08-16T09:25:01Z</time>
      </trkpt>
      <trkpt lat="47.75067" lon="7.30473">
        <ele>244.4</ele>
        <time>2019-08-16T09:25:02Z</time>
      </trkpt>
      <trkpt lat="47.75064" lon="7.30476">
        <ele>244.4</ele>
        <time>2019-08-16T09:25:03Z</time>
      </trkpt>
      <trkpt lat="47.75061" lon="7.3048">
        <ele>244.4</ele>
        <time>2019-08-16T09:25:04Z</time>
      </trkpt>
      <trkpt lat="47.75058" lon="7.30484">
        <ele>244.4</ele>
        <time>2019-08-16T09:25:05Z</time>
      </trkpt>
      <trkpt lat="47.75054" lon="7.30486">
        <ele>244.4</ele>
        <time>2019-08-16T09:25:06Z</time>
      </trkpt>
      <trkpt lat="47.75051" lon="7.3049">
        <ele>244.3</ele>
        <time>2019-08-16T09:25:07Z</time>
      </trkpt>
      <trkpt lat="47.75048" lon="7.30494">
        <ele>244.3</ele>
        <time>2019-08-16T09:25:08Z</time>
      </trkpt>
      <trkpt lat="47.75045" lon="7.30498">
        <ele>244.3</ele>
        <time>2019-08-16T09:25:09Z</time>
      </trkpt>
      <trkpt lat="47.75041" lon="7.30503">
        <ele>244.2</ele>
        <time>2019-08-16T09:25:10Z</time>
      </trkpt>
      <trkpt lat="47.75038" lon="7.30506">
        <ele>244.2</ele>
        <time>2019-08-16T09:25:11Z</time>
      </trkpt>
      <trkpt lat="47.75036" lon="7.30511">
        <ele>244.2</ele>
        <time>2019-08-16T09:25:12Z</time>
      </trkpt>
      <trkpt lat="47.75033" lon="7.30514">
        <ele>244.2</ele>
        <time>2019-08-16T09:25:13Z</time>
      </trkpt>
      <trkpt lat="47.7503" lon="7.30517">
        <ele>244.1</ele>
        <time>2019-08-16T09:25:14Z</time>
      </trkpt>
      <trkpt lat="47.75027" lon="7.3052">
        <ele>244.1</ele>
        <time>2019-08-16T09:25:15Z</time>
      </trkpt>
      <trkpt lat="47.75023" lon="7.30523">
        <ele>244.1</ele>
        <time>2019-08-16T09:25:16Z</time>
      </trkpt>
      <trkpt lat="47.7502" lon="7.30525">
        <ele>244.1</ele>
        <time>2019-08-16T09:25:17Z</time>
      </trkpt>
      <trkpt lat="47.75016" lon="7.30527">
        <ele>244</ele>
        <time>2019-08-16T09:25:18Z</time>
      </trkpt>
      <trkpt lat="47.75013" lon="7.30527">
        <ele>244</ele>
        <time>2019-08-16T09:25:19Z</time>
      </trkpt>
      <trkpt lat="47.75009" lon="7.30529">
        <ele>244</ele>
        <time>2019-08-16T09:25:21Z</time>
      </trkpt>
      <trkpt lat="47.75006" lon="7.30534">
        <ele>243.9</ele>
        <time>2019-08-16T09:25:27Z</time>
      </trkpt>
      <trkpt lat="47.75004" lon="7.3054">
        <ele>243.9</ele>
        <time>2019-08-16T09:25:29Z</time>
      </trkpt>
      <trkpt lat="47.75002" lon="7.30544">
        <ele>243.9</ele>
        <time>2019-08-16T09:25:30Z</time>
      </trkpt>
      <trkpt lat="47.75" lon="7.30547">
        <ele>243.8</ele>
        <time>2019-08-16T09:25:31Z</time>
      </trkpt>
      <trkpt lat="47.74998" lon="7.30551">
        <ele>243.8</ele>
        <time>2019-08-16T09:25:32Z</time>
      </trkpt>
      <trkpt lat="47.74995" lon="7.30554">
        <ele>243.7</ele>
        <time>2019-08-16T09:25:33Z</time>
      </trkpt>
      <trkpt lat="47.74992" lon="7.30556">
        <ele>243.6</ele>
        <time>2019-08-16T09:25:34Z</time>
      </trkpt>
      <trkpt lat="47.7499" lon="7.30559">
        <ele>243.6</ele>
        <time>2019-08-16T09:25:35Z</time>
      </trkpt>
      <trkpt lat="47.74989" lon="7.30567">
        <ele>243.5</ele>
        <time>2019-08-16T09:25:37Z</time>
      </trkpt>
      <trkpt lat="47.74986" lon="7.30573">
        <ele>243.4</ele>
        <time>2019-08-16T09:25:39Z</time>
      </trkpt>
      <trkpt lat="47.74984" lon="7.30578">
        <ele>243.3</ele>
        <time>2019-08-16T09:25:40Z</time>
      </trkpt>
      <trkpt lat="47.7498" lon="7.30582">
        <ele>243.2</ele>
        <time>2019-08-16T09:25:41Z</time>
      </trkpt>
      <trkpt lat="47.74976" lon="7.30586">
        <ele>243.2</ele>
        <time>2019-08-16T09:25:42Z</time>
      </trkpt>
      <trkpt lat="47.74973" lon="7.3059">
        <ele>243.2</ele>
        <time>2019-08-16T09:25:43Z</time>
      </trkpt>
      <trkpt lat="47.74969" lon="7.30593">
        <ele>243.2</ele>
        <time>2019-08-16T09:25:44Z</time>
      </trkpt>
      <trkpt lat="47.74966" lon="7.30597">
        <ele>243.2</ele>
        <time>2019-08-16T09:25:45Z</time>
      </trkpt>
      <trkpt lat="47.74963" lon="7.30601">
        <ele>243.2</ele>
        <time>2019-08-16T09:25:46Z</time>
      </trkpt>
      <trkpt lat="47.74959" lon="7.30605">
        <ele>243.2</ele>
        <time>2019-08-16T09:25:47Z</time>
      </trkpt>
      <trkpt lat="47.74956" lon="7.30608">
        <ele>243.2</ele>
        <time>2019-08-16T09:25:48Z</time>
      </trkpt>
      <trkpt lat="47.74953" lon="7.30612">
        <ele>243.2</ele>
        <time>2019-08-16T09:25:49Z</time>
      </trkpt>
      <trkpt lat="47.7495" lon="7.30617">
        <ele>243.2</ele>
        <time>2019-08-16T09:25:50Z</time>
      </trkpt>
      <trkpt lat="47.74947" lon="7.3062">
        <ele>243.1</ele>
        <time>2019-08-16T09:25:51Z</time>
      </trkpt>
      <trkpt lat="47.74945" lon="7.30624">
        <ele>243</ele>
        <time>2019-08-16T09:25:52Z</time>
      </trkpt>
      <trkpt lat="47.74942" lon="7.30627">
        <ele>243</ele>
        <time>2019-08-16T09:25:53Z</time>
      </trkpt>
      <trkpt lat="47.7494" lon="7.30629">
        <ele>242.9</ele>
        <time>2019-08-16T09:25:54Z</time>
      </trkpt>
      <trkpt lat="47.74936" lon="7.30633">
        <ele>242.8</ele>
        <time>2019-08-16T09:25:56Z</time>
      </trkpt>
      <trkpt lat="47.74933" lon="7.30636">
        <ele>242.7</ele>
        <time>2019-08-16T09:25:58Z</time>
      </trkpt>
      <trkpt lat="47.74932" lon="7.30642">
        <ele>242.6</ele>
        <time>2019-08-16T09:26:00Z</time>
      </trkpt>
      <trkpt lat="47.74932" lon="7.30647">
        <ele>242.5</ele>
        <time>2019-08-16T09:26:02Z</time>
      </trkpt>
      <trkpt lat="47.74931" lon="7.30651">
        <ele>242.5</ele>
        <time>2019-08-16T09:26:03Z</time>
      </trkpt>
      <trkpt lat="47.74929" lon="7.30655">
        <ele>242.4</ele>
        <time>2019-08-16T09:26:04Z</time>
      </trkpt>
      <trkpt lat="47.74927" lon="7.30659">
        <ele>242.4</ele>
        <time>2019-08-16T09:26:05Z</time>
      </trkpt>
      <trkpt lat="47.74926" lon="7.30663">
        <ele>242.3</ele>
        <time>2019-08-16T09:26:06Z</time>
      </trkpt>
      <trkpt lat="47.74924" lon="7.30669">
        <ele>242.3</ele>
        <time>2019-08-16T09:26:08Z</time>
      </trkpt>
      <trkpt lat="47.74927" lon="7.30674">
        <ele>242.3</ele>
        <time>2019-08-16T09:26:15Z</time>
      </trkpt>
      <trkpt lat="47.74921" lon="7.30657">
        <ele>242.4</ele>
        <time>2019-08-16T09:27:13Z</time>
      </trkpt>
      <trkpt lat="47.74924" lon="7.30657">
        <ele>242.5</ele>
        <time>2019-08-16T09:27:17Z</time>
      </trkpt>
      <trkpt lat="47.7492" lon="7.30674">
        <ele>242.6</ele>
        <time>2019-08-16T09:27:55Z</time>
      </trkpt>
      <trkpt lat="47.74917" lon="7.30677">
        <ele>242.7</ele>
        <time>2019-08-16T09:27:57Z</time>
      </trkpt>
      <trkpt lat="47.74914" lon="7.30683">
        <ele>242.8</ele>
        <time>2019-08-16T09:27:59Z</time>
      </trkpt>
      <trkpt lat="47.74911" lon="7.30689">
        <ele>242.8</ele>
        <time>2019-08-16T09:28:01Z</time>
      </trkpt>
      <trkpt lat="47.74907" lon="7.30693">
        <ele>242.9</ele>
        <time>2019-08-16T09:28:02Z</time>
      </trkpt>
      <trkpt lat="47.74904" lon="7.30697">
        <ele>242.9</ele>
        <time>2019-08-16T09:28:03Z</time>
      </trkpt>
      <trkpt lat="47.74901" lon="7.30702">
        <ele>242.9</ele>
        <time>2019-08-16T09:28:04Z</time>
      </trkpt>
      <trkpt lat="47.74898" lon="7.30707">
        <ele>243</ele>
        <time>2019-08-16T09:28:05Z</time>
      </trkpt>
      <trkpt lat="47.74895" lon="7.30712">
        <ele>243</ele>
        <time>2019-08-16T09:28:06Z</time>
      </trkpt>
      <trkpt lat="47.74892" lon="7.30716">
        <ele>243</ele>
        <time>2019-08-16T09:28:07Z</time>
      </trkpt>
      <trkpt lat="47.74888" lon="7.3072">
        <ele>243</ele>
        <time>2019-08-16T09:28:08Z</time>
      </trkpt>
      <trkpt lat="47.74886" lon="7.30724">
        <ele>243.1</ele>
        <time>2019-08-16T09:28:09Z</time>
      </trkpt>
      <trkpt lat="47.74883" lon="7.30728">
        <ele>243.1</ele>
        <time>2019-08-16T09:28:10Z</time>
      </trkpt>
      <trkpt lat="47.7488" lon="7.30731">
        <ele>243.2</ele>
        <time>2019-08-16T09:28:11Z</time>
      </trkpt>
      <trkpt lat="47.74877" lon="7.30735">
        <ele>243.2</ele>
        <time>2019-08-16T09:28:12Z</time>
      </trkpt>
      <trkpt lat="47.74873" lon="7.30738">
        <ele>243.3</ele>
        <time>2019-08-16T09:28:13Z</time>
      </trkpt>
      <trkpt lat="47.7487" lon="7.30742">
        <ele>243.3</ele>
        <time>2019-08-16T09:28:14Z</time>
      </trkpt>
      <trkpt lat="47.74867" lon="7.30745">
        <ele>243.4</ele>
        <time>2019-08-16T09:28:15Z</time>
      </trkpt>
      <trkpt lat="47.74864" lon="7.30749">
        <ele>243.4</ele>
        <time>2019-08-16T09:28:16Z</time>
      </trkpt>
      <trkpt lat="47.7486" lon="7.30753">
        <ele>243.4</ele>
        <time>2019-08-16T09:28:17Z</time>
      </trkpt>
      <trkpt lat="47.74857" lon="7.30758">
        <ele>243.3</ele>
        <time>2019-08-16T09:28:18Z</time>
      </trkpt>
      <trkpt lat="47.74853" lon="7.30762">
        <ele>243.3</ele>
        <time>2019-08-16T09:28:19Z</time>
      </trkpt>
      <trkpt lat="47.7485" lon="7.30768">
        <ele>243.3</ele>
        <time>2019-08-16T09:28:20Z</time>
      </trkpt>
      <trkpt lat="47.74848" lon="7.30773">
        <ele>243.2</ele>
        <time>2019-08-16T09:28:21Z</time>
      </trkpt>
      <trkpt lat="47.74845" lon="7.30777">
        <ele>243.2</ele>
        <time>2019-08-16T09:28:22Z</time>
      </trkpt>
      <trkpt lat="47.74842" lon="7.30782">
        <ele>243.2</ele>
        <time>2019-08-16T09:28:23Z</time>
      </trkpt>
      <trkpt lat="47.74839" lon="7.30785">
        <ele>243.2</ele>
        <time>2019-08-16T09:28:24Z</time>
      </trkpt>
      <trkpt lat="47.74837" lon="7.30789">
        <ele>243.2</ele>
        <time>2019-08-16T09:28:25Z</time>
      </trkpt>
      <trkpt lat="47.74834" lon="7.30792">
        <ele>243.2</ele>
        <time>2019-08-16T09:28:26Z</time>
      </trkpt>
      <trkpt lat="47.74831" lon="7.30796">
        <ele>243.3</ele>
        <time>2019-08-16T09:28:27Z</time>
      </trkpt>
      <trkpt lat="47.74828" lon="7.30801">
        <ele>243.3</ele>
        <time>2019-08-16T09:28:28Z</time>
      </trkpt>
      <trkpt lat="47.74826" lon="7.30806">
        <ele>243.3</ele>
        <time>2019-08-16T09:28:29Z</time>
      </trkpt>
      <trkpt lat="47.74823" lon="7.3081">
        <ele>243.3</ele>
        <time>2019-08-16T09:28:30Z</time>
      </trkpt>
      <trkpt lat="47.74822" lon="7.30814">
        <ele>243.4</ele>
        <time>2019-08-16T09:28:31Z</time>
      </trkpt>
      <trkpt lat="47.74819" lon="7.30818">
        <ele>243.5</ele>
        <time>2019-08-16T09:28:32Z</time>
      </trkpt>
      <trkpt lat="47.74817" lon="7.30821">
        <ele>243.5</ele>
        <time>2019-08-16T09:28:33Z</time>
      </trkpt>
      <trkpt lat="47.74815" lon="7.30825">
        <ele>243.6</ele>
        <time>2019-08-16T09:28:34Z</time>
      </trkpt>
      <trkpt lat="47.74811" lon="7.30828">
        <ele>243.7</ele>
        <time>2019-08-16T09:28:35Z</time>
      </trkpt>
      <trkpt lat="47.74808" lon="7.30832">
        <ele>243.7</ele>
        <time>2019-08-16T09:28:36Z</time>
      </trkpt>
      <trkpt lat="47.74806" lon="7.30838">
        <ele>243.8</ele>
        <time>2019-08-16T09:28:37Z</time>
      </trkpt>
      <trkpt lat="47.74803" lon="7.30842">
        <ele>243.8</ele>
        <time>2019-08-16T09:28:38Z</time>
      </trkpt>
      <trkpt lat="47.748" lon="7.30846">
        <ele>243.9</ele>
        <time>2019-08-16T09:28:39Z</time>
      </trkpt>
      <trkpt lat="47.74799" lon="7.3085">
        <ele>243.9</ele>
        <time>2019-08-16T09:28:40Z</time>
      </trkpt>
      <trkpt lat="47.74798" lon="7.30855">
        <ele>244</ele>
        <time>2019-08-16T09:28:41Z</time>
      </trkpt>
      <trkpt lat="47.74796" lon="7.30861">
        <ele>244.1</ele>
        <time>2019-08-16T09:28:42Z</time>
      </trkpt>
      <trkpt lat="47.74794" lon="7.30869">
        <ele>244.1</ele>
        <time>2019-08-16T09:28:43Z</time>
      </trkpt>
      <trkpt lat="47.74793" lon="7.30876">
        <ele>244.2</ele>
        <time>2019-08-16T09:28:44Z</time>
      </trkpt>
      <trkpt lat="47.74792" lon="7.30882">
        <ele>244.2</ele>
        <time>2019-08-16T09:28:45Z</time>
      </trkpt>
      <trkpt lat="47.74792" lon="7.30887">
        <ele>244.4</ele>
        <time>2019-08-16T09:28:46Z</time>
      </trkpt>
      <trkpt lat="47.7479" lon="7.30892">
        <ele>244.3</ele>
        <time>2019-08-16T09:28:47Z</time>
      </trkpt>
      <trkpt lat="47.74788" lon="7.30897">
        <ele>244.2</ele>
        <time>2019-08-16T09:28:48Z</time>
      </trkpt>
      <trkpt lat="47.74786" lon="7.30902">
        <ele>244.1</ele>
        <time>2019-08-16T09:28:49Z</time>
      </trkpt>
      <trkpt lat="47.74783" lon="7.30907">
        <ele>244</ele>
        <time>2019-08-16T09:28:50Z</time>
      </trkpt>
      <trkpt lat="47.74781" lon="7.30912">
        <ele>243.9</ele>
        <time>2019-08-16T09:28:51Z</time>
      </trkpt>
      <trkpt lat="47.7478" lon="7.30917">
        <ele>243.8</ele>
        <time>2019-08-16T09:28:52Z</time>
      </trkpt>
      <trkpt lat="47.74778" lon="7.30921">
        <ele>243.8</ele>
        <time>2019-08-16T09:28:53Z</time>
      </trkpt>
      <trkpt lat="47.74775" lon="7.30926">
        <ele>243.7</ele>
        <time>2019-08-16T09:28:54Z</time>
      </trkpt>
      <trkpt lat="47.74772" lon="7.30931">
        <ele>243.7</ele>
        <time>2019-08-16T09:28:55Z</time>
      </trkpt>
      <trkpt lat="47.74769" lon="7.30936">
        <ele>243.7</ele>
        <time>2019-08-16T09:28:56Z</time>
      </trkpt>
      <trkpt lat="47.74766" lon="7.30942">
        <ele>243.6</ele>
        <time>2019-08-16T09:28:57Z</time>
      </trkpt>
      <trkpt lat="47.74764" lon="7.30946">
        <ele>243.6</ele>
        <time>2019-08-16T09:28:58Z</time>
      </trkpt>
      <trkpt lat="47.74762" lon="7.30951">
        <ele>243.6</ele>
        <time>2019-08-16T09:28:59Z</time>
      </trkpt>
      <trkpt lat="47.74758" lon="7.30956">
        <ele>243.4</ele>
        <time>2019-08-16T09:29:00Z</time>
      </trkpt>
      <trkpt lat="47.74756" lon="7.3096">
        <ele>243.4</ele>
        <time>2019-08-16T09:29:01Z</time>
      </trkpt>
      <trkpt lat="47.74753" lon="7.30965">
        <ele>243.3</ele>
        <time>2019-08-16T09:29:02Z</time>
      </trkpt>
      <trkpt lat="47.74751" lon="7.30971">
        <ele>243.2</ele>
        <time>2019-08-16T09:29:03Z</time>
      </trkpt>
      <trkpt lat="47.74749" lon="7.30976">
        <ele>243.1</ele>
        <time>2019-08-16T09:29:04Z</time>
      </trkpt>
      <trkpt lat="47.74746" lon="7.30982">
        <ele>243</ele>
        <time>2019-08-16T09:29:05Z</time>
      </trkpt>
      <trkpt lat="47.74742" lon="7.30986">
        <ele>242.9</ele>
        <time>2019-08-16T09:29:06Z</time>
      </trkpt>
      <trkpt lat="47.74739" lon="7.30991">
        <ele>242.9</ele>
        <time>2019-08-16T09:29:07Z</time>
      </trkpt>
      <trkpt lat="47.74735" lon="7.30996">
        <ele>242.8</ele>
        <time>2019-08-16T09:29:08Z</time>
      </trkpt>
      <trkpt lat="47.7473" lon="7.31001">
        <ele>242.7</ele>
        <time>2019-08-16T09:29:09Z</time>
      </trkpt>
      <trkpt lat="47.74726" lon="7.31005">
        <ele>242.6</ele>
        <time>2019-08-16T09:29:10Z</time>
      </trkpt>
      <trkpt lat="47.74722" lon="7.31008">
        <ele>242.6</ele>
        <time>2019-08-16T09:29:11Z</time>
      </trkpt>
      <trkpt lat="47.74719" lon="7.31012">
        <ele>242.6</ele>
        <time>2019-08-16T09:29:12Z</time>
      </trkpt>
      <trkpt lat="47.74715" lon="7.31016">
        <ele>242.6</ele>
        <time>2019-08-16T09:29:13Z</time>
      </trkpt>
      <trkpt lat="47.74712" lon="7.3102">
        <ele>242.6</ele>
        <time>2019-08-16T09:29:14Z</time>
      </trkpt>
      <trkpt lat="47.74709" lon="7.31023">
        <ele>242.6</ele>
        <time>2019-08-16T09:29:15Z</time>
      </trkpt>
      <trkpt lat="47.74706" lon="7.31026">
        <ele>242.7</ele>
        <time>2019-08-16T09:29:16Z</time>
      </trkpt>
      <trkpt lat="47.74702" lon="7.31029">
        <ele>242.7</ele>
        <time>2019-08-16T09:29:17Z</time>
      </trkpt>
      <trkpt lat="47.74697" lon="7.31032">
        <ele>242.7</ele>
        <time>2019-08-16T09:29:18Z</time>
      </trkpt>
      <trkpt lat="47.74693" lon="7.31035">
        <ele>242.8</ele>
        <time>2019-08-16T09:29:19Z</time>
      </trkpt>
      <trkpt lat="47.7469" lon="7.31038">
        <ele>242.8</ele>
        <time>2019-08-16T09:29:20Z</time>
      </trkpt>
      <trkpt lat="47.74687" lon="7.3104">
        <ele>242.8</ele>
        <time>2019-08-16T09:29:21Z</time>
      </trkpt>
      <trkpt lat="47.74684" lon="7.31043">
        <ele>242.8</ele>
        <time>2019-08-16T09:29:22Z</time>
      </trkpt>
      <trkpt lat="47.74681" lon="7.31048">
        <ele>242.9</ele>
        <time>2019-08-16T09:29:23Z</time>
      </trkpt>
      <trkpt lat="47.74678" lon="7.31053">
        <ele>242.9</ele>
        <time>2019-08-16T09:29:24Z</time>
      </trkpt>
      <trkpt lat="47.74675" lon="7.31057">
        <ele>242.9</ele>
        <time>2019-08-16T09:29:25Z</time>
      </trkpt>
      <trkpt lat="47.74673" lon="7.31061">
        <ele>243</ele>
        <time>2019-08-16T09:29:26Z</time>
      </trkpt>
      <trkpt lat="47.7467" lon="7.31066">
        <ele>243</ele>
        <time>2019-08-16T09:29:28Z</time>
      </trkpt>
      <trkpt lat="47.74668" lon="7.31068">
        <ele>243.1</ele>
        <time>2019-08-16T09:29:29Z</time>
      </trkpt>
      <trkpt lat="47.74666" lon="7.31074">
        <ele>243.1</ele>
        <time>2019-08-16T09:29:31Z</time>
      </trkpt>
      <trkpt lat="47.74667" lon="7.31077">
        <ele>243.1</ele>
        <time>2019-08-16T09:29:35Z</time>
      </trkpt>
      <trkpt lat="47.74671" lon="7.31076">
        <ele>243.1</ele>
        <time>2019-08-16T09:29:40Z</time>
      </trkpt>
      <trkpt lat="47.74665" lon="7.3108">
        <ele>243.1</ele>
        <time>2019-08-16T09:29:49Z</time>
      </trkpt>
      <trkpt lat="47.74661" lon="7.31083">
        <ele>243.1</ele>
        <time>2019-08-16T09:29:50Z</time>
      </trkpt>
      <trkpt lat="47.74658" lon="7.31086">
        <ele>243.1</ele>
        <time>2019-08-16T09:29:51Z</time>
      </trkpt>
      <trkpt lat="47.74655" lon="7.31089">
        <ele>243.1</ele>
        <time>2019-08-16T09:29:52Z</time>
      </trkpt>
      <trkpt lat="47.74651" lon="7.31085">
        <ele>243.2</ele>
        <time>2019-08-16T09:29:54Z</time>
      </trkpt>
      <trkpt lat="47.74649" lon="7.31081">
        <ele>243.2</ele>
        <time>2019-08-16T09:29:55Z</time>
      </trkpt>
      <trkpt lat="47.74646" lon="7.31078">
        <ele>243.2</ele>
        <time>2019-08-16T09:29:56Z</time>
      </trkpt>
      <trkpt lat="47.74643" lon="7.31073">
        <ele>243.3</ele>
        <time>2019-08-16T09:29:57Z</time>
      </trkpt>
      <trkpt lat="47.7464" lon="7.31064">
        <ele>243.3</ele>
        <time>2019-08-16T09:29:58Z</time>
      </trkpt>
      <trkpt lat="47.74637" lon="7.31058">
        <ele>243.3</ele>
        <time>2019-08-16T09:29:59Z</time>
      </trkpt>
      <trkpt lat="47.74633" lon="7.31052">
        <ele>243.4</ele>
        <time>2019-08-16T09:30:00Z</time>
      </trkpt>
      <trkpt lat="47.74629" lon="7.31047">
        <ele>243.4</ele>
        <time>2019-08-16T09:30:01Z</time>
      </trkpt>
      <trkpt lat="47.74625" lon="7.31042">
        <ele>243.4</ele>
        <time>2019-08-16T09:30:02Z</time>
      </trkpt>
      <trkpt lat="47.74622" lon="7.31036">
        <ele>243.4</ele>
        <time>2019-08-16T09:30:03Z</time>
      </trkpt>
      <trkpt lat="47.74618" lon="7.31031">
        <ele>243.4</ele>
        <time>2019-08-16T09:30:04Z</time>
      </trkpt>
      <trkpt lat="47.74614" lon="7.31026">
        <ele>243.4</ele>
        <time>2019-08-16T09:30:05Z</time>
      </trkpt>
      <trkpt lat="47.7461" lon="7.31021">
        <ele>243.4</ele>
        <time>2019-08-16T09:30:06Z</time>
      </trkpt>
      <trkpt lat="47.74598" lon="7.31007">
        <ele>243.5</ele>
        <time>2019-08-16T09:30:09Z</time>
      </trkpt>
      <trkpt lat="47.74594" lon="7.31002">
        <ele>243.5</ele>
        <time>2019-08-16T09:30:10Z</time>
      </trkpt>
      <trkpt lat="47.7459" lon="7.30998">
        <ele>243.6</ele>
        <time>2019-08-16T09:30:11Z</time>
      </trkpt>
      <trkpt lat="47.74584" lon="7.30995">
        <ele>243.7</ele>
        <time>2019-08-16T09:30:12Z</time>
      </trkpt>
      <trkpt lat="47.74577" lon="7.30992">
        <ele>243.9</ele>
        <time>2019-08-16T09:30:13Z</time>
      </trkpt>
      <trkpt lat="47.74573" lon="7.3099">
        <ele>243.9</ele>
        <time>2019-08-16T09:30:14Z</time>
      </trkpt>
      <trkpt lat="47.74568" lon="7.30988">
        <ele>244</ele>
        <time>2019-08-16T09:30:15Z</time>
      </trkpt>
      <trkpt lat="47.74564" lon="7.30987">
        <ele>244</ele>
        <time>2019-08-16T09:30:16Z</time>
      </trkpt>
      <trkpt lat="47.7456" lon="7.30986">
        <ele>244.1</ele>
        <time>2019-08-16T09:30:17Z</time>
      </trkpt>
      <trkpt lat="47.74556" lon="7.30986">
        <ele>244.1</ele>
        <time>2019-08-16T09:30:18Z</time>
      </trkpt>
      <trkpt lat="47.74552" lon="7.30985">
        <ele>244.1</ele>
        <time>2019-08-16T09:30:19Z</time>
      </trkpt>
      <trkpt lat="47.74549" lon="7.30984">
        <ele>244.1</ele>
        <time>2019-08-16T09:30:20Z</time>
      </trkpt>
      <trkpt lat="47.74543" lon="7.30983">
        <ele>244.1</ele>
        <time>2019-08-16T09:30:22Z</time>
      </trkpt>
      <trkpt lat="47.7454" lon="7.30983">
        <ele>244</ele>
        <time>2019-08-16T09:30:23Z</time>
      </trkpt>
      <trkpt lat="47.74537" lon="7.30983">
        <ele>244</ele>
        <time>2019-08-16T09:30:24Z</time>
      </trkpt>
      <trkpt lat="47.74533" lon="7.30984">
        <ele>244.1</ele>
        <time>2019-08-16T09:30:25Z</time>
      </trkpt>
      <trkpt lat="47.74529" lon="7.30985">
        <ele>244.3</ele>
        <time>2019-08-16T09:30:26Z</time>
      </trkpt>
      <trkpt lat="47.74526" lon="7.30986">
        <ele>244.3</ele>
        <time>2019-08-16T09:30:27Z</time>
      </trkpt>
      <trkpt lat="47.74522" lon="7.30987">
        <ele>244.4</ele>
        <time>2019-08-16T09:30:28Z</time>
      </trkpt>
      <trkpt lat="47.74519" lon="7.30989">
        <ele>244.4</ele>
        <time>2019-08-16T09:30:29Z</time>
      </trkpt>
      <trkpt lat="47.74515" lon="7.30991">
        <ele>244.4</ele>
        <time>2019-08-16T09:30:30Z</time>
      </trkpt>
      <trkpt lat="47.74511" lon="7.30994">
        <ele>244.4</ele>
        <time>2019-08-16T09:30:31Z</time>
      </trkpt>
      <trkpt lat="47.74505" lon="7.30995">
        <ele>244.3</ele>
        <time>2019-08-16T09:30:32Z</time>
      </trkpt>
      <trkpt lat="47.74501" lon="7.30998">
        <ele>244.3</ele>
        <time>2019-08-16T09:30:33Z</time>
      </trkpt>
      <trkpt lat="47.74496" lon="7.31001">
        <ele>244.2</ele>
        <time>2019-08-16T09:30:34Z</time>
      </trkpt>
      <trkpt lat="47.74492" lon="7.31005">
        <ele>244.2</ele>
        <time>2019-08-16T09:30:35Z</time>
      </trkpt>
      <trkpt lat="47.74488" lon="7.31008">
        <ele>244.3</ele>
        <time>2019-08-16T09:30:36Z</time>
      </trkpt>
      <trkpt lat="47.74484" lon="7.3101">
        <ele>244.3</ele>
        <time>2019-08-16T09:30:37Z</time>
      </trkpt>
      <trkpt lat="47.7448" lon="7.31012">
        <ele>244.4</ele>
        <time>2019-08-16T09:30:38Z</time>
      </trkpt>
      <trkpt lat="47.74476" lon="7.31014">
        <ele>244.5</ele>
        <time>2019-08-16T09:30:39Z</time>
      </trkpt>
      <trkpt lat="47.74472" lon="7.31016">
        <ele>244.6</ele>
        <time>2019-08-16T09:30:40Z</time>
      </trkpt>
      <trkpt lat="47.74468" lon="7.31019">
        <ele>244.6</ele>
        <time>2019-08-16T09:30:41Z</time>
      </trkpt>
      <trkpt lat="47.74464" lon="7.3102">
        <ele>244.7</ele>
        <time>2019-08-16T09:30:42Z</time>
      </trkpt>
      <trkpt lat="47.7446" lon="7.31022">
        <ele>244.7</ele>
        <time>2019-08-16T09:30:43Z</time>
      </trkpt>
      <trkpt lat="47.74457" lon="7.31024">
        <ele>244.7</ele>
        <time>2019-08-16T09:30:44Z</time>
      </trkpt>
      <trkpt lat="47.74454" lon="7.31027">
        <ele>244.7</ele>
        <time>2019-08-16T09:30:46Z</time>
      </trkpt>
      <trkpt lat="47.74451" lon="7.31035">
        <ele>244.7</ele>
        <time>2019-08-16T09:30:49Z</time>
      </trkpt>
      <trkpt lat="47.74453" lon="7.3104">
        <ele>244.7</ele>
        <time>2019-08-16T09:30:52Z</time>
      </trkpt>
      <trkpt lat="47.74454" lon="7.31044">
        <ele>244.7</ele>
        <time>2019-08-16T09:30:58Z</time>
      </trkpt>
      <trkpt lat="47.74455" lon="7.31049">
        <ele>244.7</ele>
        <time>2019-08-16T09:32:03Z</time>
      </trkpt>
      <trkpt lat="47.74456" lon="7.31053">
        <ele>244.8</ele>
        <time>2019-08-16T09:32:04Z</time>
      </trkpt>
      <trkpt lat="47.74457" lon="7.3106">
        <ele>244.8</ele>
        <time>2019-08-16T09:32:05Z</time>
      </trkpt>
      <trkpt lat="47.74455" lon="7.31065">
        <ele>244.8</ele>
        <time>2019-08-16T09:32:06Z</time>
      </trkpt>
      <trkpt lat="47.7445" lon="7.3107">
        <ele>244.8</ele>
        <time>2019-08-16T09:32:07Z</time>
      </trkpt>
      <trkpt lat="47.74446" lon="7.31075">
        <ele>244.8</ele>
        <time>2019-08-16T09:32:08Z</time>
      </trkpt>
      <trkpt lat="47.74444" lon="7.3108">
        <ele>244.7</ele>
        <time>2019-08-16T09:32:09Z</time>
      </trkpt>
      <trkpt lat="47.74442" lon="7.31086">
        <ele>244.7</ele>
        <time>2019-08-16T09:32:10Z</time>
      </trkpt>
      <trkpt lat="47.74439" lon="7.31092">
        <ele>244.6</ele>
        <time>2019-08-16T09:32:11Z</time>
      </trkpt>
      <trkpt lat="47.74436" lon="7.31098">
        <ele>244.5</ele>
        <time>2019-08-16T09:32:12Z</time>
      </trkpt>
      <trkpt lat="47.74433" lon="7.31104">
        <ele>244.3</ele>
        <time>2019-08-16T09:32:13Z</time>
      </trkpt>
      <trkpt lat="47.74431" lon="7.3111">
        <ele>244</ele>
        <time>2019-08-16T09:32:14Z</time>
      </trkpt>
      <trkpt lat="47.74427" lon="7.31116">
        <ele>243.8</ele>
        <time>2019-08-16T09:32:15Z</time>
      </trkpt>
      <trkpt lat="47.74423" lon="7.31122">
        <ele>243.5</ele>
        <time>2019-08-16T09:32:16Z</time>
      </trkpt>
      <trkpt lat="47.74418" lon="7.31127">
        <ele>243.2</ele>
        <time>2019-08-16T09:32:17Z</time>
      </trkpt>
      <trkpt lat="47.74414" lon="7.31133">
        <ele>242.9</ele>
        <time>2019-08-16T09:32:18Z</time>
      </trkpt>
      <trkpt lat="47.7441" lon="7.31138">
        <ele>242.6</ele>
        <time>2019-08-16T09:32:19Z</time>
      </trkpt>
      <trkpt lat="47.74406" lon="7.31143">
        <ele>242.4</ele>
        <time>2019-08-16T09:32:20Z</time>
      </trkpt>
      <trkpt lat="47.74401" lon="7.31147">
        <ele>242</ele>
        <time>2019-08-16T09:32:21Z</time>
      </trkpt>
      <trkpt lat="47.74398" lon="7.31151">
        <ele>242</ele>
        <time>2019-08-16T09:32:22Z</time>
      </trkpt>
      <trkpt lat="47.74395" lon="7.31153">
        <ele>241.9</ele>
        <time>2019-08-16T09:32:23Z</time>
      </trkpt>
      <trkpt lat="47.74392" lon="7.31152">
        <ele>241.8</ele>
        <time>2019-08-16T09:32:25Z</time>
      </trkpt>
      <trkpt lat="47.74388" lon="7.31156">
        <ele>241.8</ele>
        <time>2019-08-16T09:33:14Z</time>
      </trkpt>
      <trkpt lat="47.74386" lon="7.3116">
        <ele>241.8</ele>
        <time>2019-08-16T09:33:15Z</time>
      </trkpt>
      <trkpt lat="47.74384" lon="7.31163">
        <ele>241.7</ele>
        <time>2019-08-16T09:33:16Z</time>
      </trkpt>
      <trkpt lat="47.74381" lon="7.31168">
        <ele>241.7</ele>
        <time>2019-08-16T09:33:17Z</time>
      </trkpt>
      <trkpt lat="47.74379" lon="7.31172">
        <ele>241.6</ele>
        <time>2019-08-16T09:33:18Z</time>
      </trkpt>
      <trkpt lat="47.74377" lon="7.31177">
        <ele>241.6</ele>
        <time>2019-08-16T09:33:19Z</time>
      </trkpt>
      <trkpt lat="47.74374" lon="7.31182">
        <ele>241.6</ele>
        <time>2019-08-16T09:33:20Z</time>
      </trkpt>
      <trkpt lat="47.74371" lon="7.31186">
        <ele>241.6</ele>
        <time>2019-08-16T09:33:21Z</time>
      </trkpt>
      <trkpt lat="47.74368" lon="7.3119">
        <ele>241.6</ele>
        <time>2019-08-16T09:33:22Z</time>
      </trkpt>
      <trkpt lat="47.74364" lon="7.31193">
        <ele>241.6</ele>
        <time>2019-08-16T09:33:23Z</time>
      </trkpt>
      <trkpt lat="47.74361" lon="7.31198">
        <ele>241.6</ele>
        <time>2019-08-16T09:33:24Z</time>
      </trkpt>
      <trkpt lat="47.74358" lon="7.31202">
        <ele>241.6</ele>
        <time>2019-08-16T09:33:25Z</time>
      </trkpt>
      <trkpt lat="47.74355" lon="7.31206">
        <ele>241.6</ele>
        <time>2019-08-16T09:33:26Z</time>
      </trkpt>
      <trkpt lat="47.74352" lon="7.3121">
        <ele>241.7</ele>
        <time>2019-08-16T09:33:27Z</time>
      </trkpt>
      <trkpt lat="47.74348" lon="7.31214">
        <ele>241.7</ele>
        <time>2019-08-16T09:33:28Z</time>
      </trkpt>
      <trkpt lat="47.74345" lon="7.31217">
        <ele>241.7</ele>
        <time>2019-08-16T09:33:29Z</time>
      </trkpt>
      <trkpt lat="47.74342" lon="7.3122">
        <ele>241.8</ele>
        <time>2019-08-16T09:33:30Z</time>
      </trkpt>
      <trkpt lat="47.74339" lon="7.31223">
        <ele>241.8</ele>
        <time>2019-08-16T09:33:31Z</time>
      </trkpt>
      <trkpt lat="47.74336" lon="7.31226">
        <ele>241.9</ele>
        <time>2019-08-16T09:33:32Z</time>
      </trkpt>
      <trkpt lat="47.74332" lon="7.31229">
        <ele>241.9</ele>
        <time>2019-08-16T09:33:33Z</time>
      </trkpt>
      <trkpt lat="47.74329" lon="7.31232">
        <ele>241.9</ele>
        <time>2019-08-16T09:33:34Z</time>
      </trkpt>
      <trkpt lat="47.74326" lon="7.31234">
        <ele>242</ele>
        <time>2019-08-16T09:33:35Z</time>
      </trkpt>
      <trkpt lat="47.74322" lon="7.31237">
        <ele>242</ele>
        <time>2019-08-16T09:33:36Z</time>
      </trkpt>
      <trkpt lat="47.74318" lon="7.3124">
        <ele>242</ele>
        <time>2019-08-16T09:33:37Z</time>
      </trkpt>
      <trkpt lat="47.74314" lon="7.31244">
        <ele>242</ele>
        <time>2019-08-16T09:33:38Z</time>
      </trkpt>
      <trkpt lat="47.74311" lon="7.31249">
        <ele>242</ele>
        <time>2019-08-16T09:33:39Z</time>
      </trkpt>
      <trkpt lat="47.74307" lon="7.31254">
        <ele>242.1</ele>
        <time>2019-08-16T09:33:40Z</time>
      </trkpt>
      <trkpt lat="47.74303" lon="7.31258">
        <ele>242.1</ele>
        <time>2019-08-16T09:33:41Z</time>
      </trkpt>
      <trkpt lat="47.743" lon="7.31264">
        <ele>242.1</ele>
        <time>2019-08-16T09:33:42Z</time>
      </trkpt>
      <trkpt lat="47.74297" lon="7.31269">
        <ele>242.1</ele>
        <time>2019-08-16T09:33:43Z</time>
      </trkpt>
      <trkpt lat="47.74295" lon="7.31274">
        <ele>242.1</ele>
        <time>2019-08-16T09:33:44Z</time>
      </trkpt>
      <trkpt lat="47.74292" lon="7.31277">
        <ele>242.1</ele>
        <time>2019-08-16T09:33:45Z</time>
      </trkpt>
      <trkpt lat="47.74289" lon="7.31281">
        <ele>242</ele>
        <time>2019-08-16T09:33:46Z</time>
      </trkpt>
      <trkpt lat="47.74286" lon="7.31286">
        <ele>242</ele>
        <time>2019-08-16T09:33:47Z</time>
      </trkpt>
      <trkpt lat="47.74283" lon="7.31291">
        <ele>242</ele>
        <time>2019-08-16T09:33:48Z</time>
      </trkpt>
      <trkpt lat="47.74282" lon="7.31296">
        <ele>241.9</ele>
        <time>2019-08-16T09:33:49Z</time>
      </trkpt>
      <trkpt lat="47.74279" lon="7.31301">
        <ele>241.9</ele>
        <time>2019-08-16T09:33:50Z</time>
      </trkpt>
      <trkpt lat="47.74277" lon="7.31305">
        <ele>241.9</ele>
        <time>2019-08-16T09:33:51Z</time>
      </trkpt>
      <trkpt lat="47.74274" lon="7.3131">
        <ele>241.8</ele>
        <time>2019-08-16T09:33:52Z</time>
      </trkpt>
      <trkpt lat="47.7427" lon="7.31314">
        <ele>241.8</ele>
        <time>2019-08-16T09:33:53Z</time>
      </trkpt>
      <trkpt lat="47.74267" lon="7.31319">
        <ele>241.8</ele>
        <time>2019-08-16T09:33:54Z</time>
      </trkpt>
      <trkpt lat="47.74266" lon="7.31323">
        <ele>241.7</ele>
        <time>2019-08-16T09:33:55Z</time>
      </trkpt>
      <trkpt lat="47.74264" lon="7.31328">
        <ele>241.7</ele>
        <time>2019-08-16T09:33:56Z</time>
      </trkpt>
      <trkpt lat="47.74262" lon="7.31333">
        <ele>241.7</ele>
        <time>2019-08-16T09:33:57Z</time>
      </trkpt>
      <trkpt lat="47.74259" lon="7.31338">
        <ele>241.6</ele>
        <time>2019-08-16T09:33:58Z</time>
      </trkpt>
      <trkpt lat="47.74257" lon="7.31343">
        <ele>241.8</ele>
        <time>2019-08-16T09:33:59Z</time>
      </trkpt>
      <trkpt lat="47.74255" lon="7.31348">
        <ele>241.8</ele>
        <time>2019-08-16T09:34:00Z</time>
      </trkpt>
      <trkpt lat="47.74252" lon="7.31353">
        <ele>241.9</ele>
        <time>2019-08-16T09:34:01Z</time>
      </trkpt>
      <trkpt lat="47.7425" lon="7.31359">
        <ele>241.9</ele>
        <time>2019-08-16T09:34:02Z</time>
      </trkpt>
      <trkpt lat="47.74247" lon="7.31364">
        <ele>242</ele>
        <time>2019-08-16T09:34:03Z</time>
      </trkpt>
      <trkpt lat="47.74244" lon="7.31367">
        <ele>242.1</ele>
        <time>2019-08-16T09:34:04Z</time>
      </trkpt>
      <trkpt lat="47.74242" lon="7.31371">
        <ele>242.1</ele>
        <time>2019-08-16T09:34:05Z</time>
      </trkpt>
      <trkpt lat="47.74239" lon="7.31376">
        <ele>242.2</ele>
        <time>2019-08-16T09:34:06Z</time>
      </trkpt>
      <trkpt lat="47.74237" lon="7.31381">
        <ele>242.2</ele>
        <time>2019-08-16T09:34:07Z</time>
      </trkpt>
      <trkpt lat="47.74235" lon="7.31386">
        <ele>242.3</ele>
        <time>2019-08-16T09:34:08Z</time>
      </trkpt>
      <trkpt lat="47.74233" lon="7.31391">
        <ele>242.4</ele>
        <time>2019-08-16T09:34:09Z</time>
      </trkpt>
      <trkpt lat="47.74231" lon="7.31397">
        <ele>242.5</ele>
        <time>2019-08-16T09:34:10Z</time>
      </trkpt>
      <trkpt lat="47.7423" lon="7.31402">
        <ele>242.5</ele>
        <time>2019-08-16T09:34:11Z</time>
      </trkpt>
      <trkpt lat="47.74228" lon="7.31407">
        <ele>242.6</ele>
        <time>2019-08-16T09:34:12Z</time>
      </trkpt>
      <trkpt lat="47.74226" lon="7.31411">
        <ele>242.7</ele>
        <time>2019-08-16T09:34:13Z</time>
      </trkpt>
      <trkpt lat="47.74223" lon="7.31415">
        <ele>242.8</ele>
        <time>2019-08-16T09:34:14Z</time>
      </trkpt>
      <trkpt lat="47.7422" lon="7.3142">
        <ele>242.9</ele>
        <time>2019-08-16T09:34:15Z</time>
      </trkpt>
      <trkpt lat="47.74217" lon="7.31425">
        <ele>243</ele>
        <time>2019-08-16T09:34:16Z</time>
      </trkpt>
      <trkpt lat="47.74214" lon="7.31429">
        <ele>243.1</ele>
        <time>2019-08-16T09:34:17Z</time>
      </trkpt>
      <trkpt lat="47.74212" lon="7.31433">
        <ele>243.2</ele>
        <time>2019-08-16T09:34:18Z</time>
      </trkpt>
      <trkpt lat="47.74209" lon="7.31439">
        <ele>243.3</ele>
        <time>2019-08-16T09:34:19Z</time>
      </trkpt>
      <trkpt lat="47.74207" lon="7.31444">
        <ele>243.4</ele>
        <time>2019-08-16T09:34:20Z</time>
      </trkpt>
      <trkpt lat="47.74205" lon="7.3145">
        <ele>243.5</ele>
        <time>2019-08-16T09:34:21Z</time>
      </trkpt>
      <trkpt lat="47.74202" lon="7.31456">
        <ele>243.5</ele>
        <time>2019-08-16T09:34:22Z</time>
      </trkpt>
      <trkpt lat="47.74199" lon="7.31461">
        <ele>243.5</ele>
        <time>2019-08-16T09:34:23Z</time>
      </trkpt>
      <trkpt lat="47.74196" lon="7.31466">
        <ele>243.4</ele>
        <time>2019-08-16T09:34:24Z</time>
      </trkpt>
      <trkpt lat="47.74193" lon="7.31472">
        <ele>243.3</ele>
        <time>2019-08-16T09:34:25Z</time>
      </trkpt>
      <trkpt lat="47.7419" lon="7.31476">
        <ele>243.2</ele>
        <time>2019-08-16T09:34:26Z</time>
      </trkpt>
      <trkpt lat="47.74186" lon="7.31479">
        <ele>243.2</ele>
        <time>2019-08-16T09:34:27Z</time>
      </trkpt>
      <trkpt lat="47.74182" lon="7.31482">
        <ele>243.2</ele>
        <time>2019-08-16T09:34:28Z</time>
      </trkpt>
      <trkpt lat="47.74178" lon="7.31485">
        <ele>243.1</ele>
        <time>2019-08-16T09:34:29Z</time>
      </trkpt>
      <trkpt lat="47.74174" lon="7.31488">
        <ele>243.2</ele>
        <time>2019-08-16T09:34:30Z</time>
      </trkpt>
      <trkpt lat="47.74171" lon="7.31491">
        <ele>243.2</ele>
        <time>2019-08-16T09:34:31Z</time>
      </trkpt>
      <trkpt lat="47.74167" lon="7.31494">
        <ele>243.3</ele>
        <time>2019-08-16T09:34:32Z</time>
      </trkpt>
      <trkpt lat="47.74164" lon="7.31496">
        <ele>243.4</ele>
        <time>2019-08-16T09:34:33Z</time>
      </trkpt>
      <trkpt lat="47.7416" lon="7.315">
        <ele>243.5</ele>
        <time>2019-08-16T09:34:34Z</time>
      </trkpt>
      <trkpt lat="47.74156" lon="7.31503">
        <ele>243.7</ele>
        <time>2019-08-16T09:34:35Z</time>
      </trkpt>
      <trkpt lat="47.74153" lon="7.31504">
        <ele>243.8</ele>
        <time>2019-08-16T09:34:36Z</time>
      </trkpt>
      <trkpt lat="47.74149" lon="7.31505">
        <ele>243.9</ele>
        <time>2019-08-16T09:34:37Z</time>
      </trkpt>
      <trkpt lat="47.74145" lon="7.31506">
        <ele>244</ele>
        <time>2019-08-16T09:34:38Z</time>
      </trkpt>
      <trkpt lat="47.74141" lon="7.31508">
        <ele>244</ele>
        <time>2019-08-16T09:34:39Z</time>
      </trkpt>
      <trkpt lat="47.74136" lon="7.31509">
        <ele>244.1</ele>
        <time>2019-08-16T09:34:40Z</time>
      </trkpt>
      <trkpt lat="47.74132" lon="7.31511">
        <ele>244.1</ele>
        <time>2019-08-16T09:34:41Z</time>
      </trkpt>
      <trkpt lat="47.74127" lon="7.31513">
        <ele>244.1</ele>
        <time>2019-08-16T09:34:42Z</time>
      </trkpt>
      <trkpt lat="47.74123" lon="7.31515">
        <ele>244.1</ele>
        <time>2019-08-16T09:34:43Z</time>
      </trkpt>
      <trkpt lat="47.74119" lon="7.31516">
        <ele>244.1</ele>
        <time>2019-08-16T09:34:44Z</time>
      </trkpt>
      <trkpt lat="47.74115" lon="7.31516">
        <ele>244.2</ele>
        <time>2019-08-16T09:34:45Z</time>
      </trkpt>
      <trkpt lat="47.74111" lon="7.31517">
        <ele>244.3</ele>
        <time>2019-08-16T09:34:46Z</time>
      </trkpt>
      <trkpt lat="47.74107" lon="7.31519">
        <ele>244.5</ele>
        <time>2019-08-16T09:34:47Z</time>
      </trkpt>
      <trkpt lat="47.74104" lon="7.3152">
        <ele>244.5</ele>
        <time>2019-08-16T09:34:48Z</time>
      </trkpt>
      <trkpt lat="47.74099" lon="7.31522">
        <ele>244.5</ele>
        <time>2019-08-16T09:34:49Z</time>
      </trkpt>
      <trkpt lat="47.74095" lon="7.31523">
        <ele>244.5</ele>
        <time>2019-08-16T09:34:50Z</time>
      </trkpt>
      <trkpt lat="47.74091" lon="7.31525">
        <ele>244.5</ele>
        <time>2019-08-16T09:34:51Z</time>
      </trkpt>
      <trkpt lat="47.74087" lon="7.31527">
        <ele>244.6</ele>
        <time>2019-08-16T09:34:52Z</time>
      </trkpt>
      <trkpt lat="47.74082" lon="7.31529">
        <ele>244.6</ele>
        <time>2019-08-16T09:34:53Z</time>
      </trkpt>
      <trkpt lat="47.74077" lon="7.31531">
        <ele>244.7</ele>
        <time>2019-08-16T09:34:54Z</time>
      </trkpt>
      <trkpt lat="47.74073" lon="7.31533">
        <ele>244.9</ele>
        <time>2019-08-16T09:34:55Z</time>
      </trkpt>
      <trkpt lat="47.74069" lon="7.31535">
        <ele>245</ele>
        <time>2019-08-16T09:34:56Z</time>
      </trkpt>
      <trkpt lat="47.74065" lon="7.31538">
        <ele>245.2</ele>
        <time>2019-08-16T09:34:57Z</time>
      </trkpt>
      <trkpt lat="47.74061" lon="7.3154">
        <ele>245.4</ele>
        <time>2019-08-16T09:34:58Z</time>
      </trkpt>
      <trkpt lat="47.74057" lon="7.31542">
        <ele>245.6</ele>
        <time>2019-08-16T09:34:59Z</time>
      </trkpt>
      <trkpt lat="47.74053" lon="7.31544">
        <ele>245.8</ele>
        <time>2019-08-16T09:35:00Z</time>
      </trkpt>
      <trkpt lat="47.7405" lon="7.31546">
        <ele>246</ele>
        <time>2019-08-16T09:35:01Z</time>
      </trkpt>
      <trkpt lat="47.74047" lon="7.31549">
        <ele>246.1</ele>
        <time>2019-08-16T09:35:02Z</time>
      </trkpt>
      <trkpt lat="47.74043" lon="7.31552">
        <ele>246.3</ele>
        <time>2019-08-16T09:35:03Z</time>
      </trkpt>
      <trkpt lat="47.7404" lon="7.31553">
        <ele>246.5</ele>
        <time>2019-08-16T09:35:04Z</time>
      </trkpt>
      <trkpt lat="47.74036" lon="7.31554">
        <ele>246.7</ele>
        <time>2019-08-16T09:35:05Z</time>
      </trkpt>
      <trkpt lat="47.7403" lon="7.31554">
        <ele>247</ele>
        <time>2019-08-16T09:35:07Z</time>
      </trkpt>
      <trkpt lat="47.74026" lon="7.31555">
        <ele>247.3</ele>
        <time>2019-08-16T09:35:08Z</time>
      </trkpt>
      <trkpt lat="47.74022" lon="7.31554">
        <ele>247.5</ele>
        <time>2019-08-16T09:35:09Z</time>
      </trkpt>
      <trkpt lat="47.74017" lon="7.31556">
        <ele>247.7</ele>
        <time>2019-08-16T09:35:10Z</time>
      </trkpt>
      <trkpt lat="47.74014" lon="7.31557">
        <ele>247.9</ele>
        <time>2019-08-16T09:35:11Z</time>
      </trkpt>
      <trkpt lat="47.74009" lon="7.31558">
        <ele>248</ele>
        <time>2019-08-16T09:35:12Z</time>
      </trkpt>
      <trkpt lat="47.74004" lon="7.3156">
        <ele>248.1</ele>
        <time>2019-08-16T09:35:13Z</time>
      </trkpt>
      <trkpt lat="47.74" lon="7.31561">
        <ele>248.1</ele>
        <time>2019-08-16T09:35:14Z</time>
      </trkpt>
      <trkpt lat="47.73995" lon="7.31565">
        <ele>248.2</ele>
        <time>2019-08-16T09:35:15Z</time>
      </trkpt>
      <trkpt lat="47.73991" lon="7.31566">
        <ele>248.2</ele>
        <time>2019-08-16T09:35:16Z</time>
      </trkpt>
      <trkpt lat="47.73988" lon="7.31568">
        <ele>248.3</ele>
        <time>2019-08-16T09:35:17Z</time>
      </trkpt>
      <trkpt lat="47.73986" lon="7.31571">
        <ele>248.3</ele>
        <time>2019-08-16T09:35:18Z</time>
      </trkpt>
      <trkpt lat="47.73983" lon="7.31574">
        <ele>248.3</ele>
        <time>2019-08-16T09:35:19Z</time>
      </trkpt>
      <trkpt lat="47.7398" lon="7.31577">
        <ele>248.3</ele>
        <time>2019-08-16T09:35:20Z</time>
      </trkpt>
      <trkpt lat="47.73976" lon="7.3158">
        <ele>248.4</ele>
        <time>2019-08-16T09:35:21Z</time>
      </trkpt>
      <trkpt lat="47.73973" lon="7.31582">
        <ele>248.3</ele>
        <time>2019-08-16T09:35:22Z</time>
      </trkpt>
      <trkpt lat="47.7397" lon="7.31585">
        <ele>248.3</ele>
        <time>2019-08-16T09:35:23Z</time>
      </trkpt>
      <trkpt lat="47.73967" lon="7.31588">
        <ele>248.3</ele>
        <time>2019-08-16T09:35:24Z</time>
      </trkpt>
      <trkpt lat="47.73964" lon="7.31591">
        <ele>248.3</ele>
        <time>2019-08-16T09:35:25Z</time>
      </trkpt>
      <trkpt lat="47.73961" lon="7.31594">
        <ele>248.3</ele>
        <time>2019-08-16T09:35:26Z</time>
      </trkpt>
      <trkpt lat="47.73958" lon="7.31596">
        <ele>248.2</ele>
        <time>2019-08-16T09:35:27Z</time>
      </trkpt>
      <trkpt lat="47.73954" lon="7.31598">
        <ele>248.2</ele>
        <time>2019-08-16T09:35:28Z</time>
      </trkpt>
      <trkpt lat="47.73951" lon="7.316">
        <ele>248.1</ele>
        <time>2019-08-16T09:35:29Z</time>
      </trkpt>
      <trkpt lat="47.73946" lon="7.31602">
        <ele>248</ele>
        <time>2019-08-16T09:35:30Z</time>
      </trkpt>
      <trkpt lat="47.73944" lon="7.31604">
        <ele>248</ele>
        <time>2019-08-16T09:35:31Z</time>
      </trkpt>
      <trkpt lat="47.7394" lon="7.31607">
        <ele>247.8</ele>
        <time>2019-08-16T09:35:32Z</time>
      </trkpt>
      <trkpt lat="47.73934" lon="7.31609">
        <ele>247.7</ele>
        <time>2019-08-16T09:35:33Z</time>
      </trkpt>
      <trkpt lat="47.7393" lon="7.31612">
        <ele>247.6</ele>
        <time>2019-08-16T09:35:34Z</time>
      </trkpt>
      <trkpt lat="47.73926" lon="7.31614">
        <ele>247.4</ele>
        <time>2019-08-16T09:35:35Z</time>
      </trkpt>
      <trkpt lat="47.73922" lon="7.31617">
        <ele>247.2</ele>
        <time>2019-08-16T09:35:36Z</time>
      </trkpt>
      <trkpt lat="47.73918" lon="7.3162">
        <ele>247</ele>
        <time>2019-08-16T09:35:37Z</time>
      </trkpt>
      <trkpt lat="47.73915" lon="7.31622">
        <ele>246.9</ele>
        <time>2019-08-16T09:35:38Z</time>
      </trkpt>
      <trkpt lat="47.7391" lon="7.31625">
        <ele>246.6</ele>
        <time>2019-08-16T09:35:40Z</time>
      </trkpt>
      <trkpt lat="47.73906" lon="7.31627">
        <ele>246.4</ele>
        <time>2019-08-16T09:35:41Z</time>
      </trkpt>
      <trkpt lat="47.73902" lon="7.3163">
        <ele>246.2</ele>
        <time>2019-08-16T09:35:42Z</time>
      </trkpt>
      <trkpt lat="47.73898" lon="7.31633">
        <ele>246.2</ele>
        <time>2019-08-16T09:35:43Z</time>
      </trkpt>
      <trkpt lat="47.73894" lon="7.31636">
        <ele>246.2</ele>
        <time>2019-08-16T09:35:44Z</time>
      </trkpt>
      <trkpt lat="47.7389" lon="7.31638">
        <ele>246.2</ele>
        <time>2019-08-16T09:35:45Z</time>
      </trkpt>
      <trkpt lat="47.73887" lon="7.31641">
        <ele>246.2</ele>
        <time>2019-08-16T09:35:46Z</time>
      </trkpt>
      <trkpt lat="47.73884" lon="7.31644">
        <ele>246.2</ele>
        <time>2019-08-16T09:35:47Z</time>
      </trkpt>
      <trkpt lat="47.73881" lon="7.31647">
        <ele>246.1</ele>
        <time>2019-08-16T09:35:48Z</time>
      </trkpt>
      <trkpt lat="47.73877" lon="7.3165">
        <ele>246.1</ele>
        <time>2019-08-16T09:35:49Z</time>
      </trkpt>
      <trkpt lat="47.73873" lon="7.31652">
        <ele>246</ele>
        <time>2019-08-16T09:35:50Z</time>
      </trkpt>
      <trkpt lat="47.73869" lon="7.31654">
        <ele>245.8</ele>
        <time>2019-08-16T09:35:51Z</time>
      </trkpt>
      <trkpt lat="47.73866" lon="7.31656">
        <ele>245.7</ele>
        <time>2019-08-16T09:35:52Z</time>
      </trkpt>
      <trkpt lat="47.73862" lon="7.31657">
        <ele>245.5</ele>
        <time>2019-08-16T09:35:53Z</time>
      </trkpt>
      <trkpt lat="47.73859" lon="7.31659">
        <ele>245.3</ele>
        <time>2019-08-16T09:35:54Z</time>
      </trkpt>
      <trkpt lat="47.73856" lon="7.3166">
        <ele>245.3</ele>
        <time>2019-08-16T09:35:55Z</time>
      </trkpt>
      <trkpt lat="47.73853" lon="7.31661">
        <ele>245.3</ele>
        <time>2019-08-16T09:35:56Z</time>
      </trkpt>
      <trkpt lat="47.73851" lon="7.31662">
        <ele>245.3</ele>
        <time>2019-08-16T09:35:57Z</time>
      </trkpt>
      <trkpt lat="47.73847" lon="7.31664">
        <ele>245.2</ele>
        <time>2019-08-16T09:35:58Z</time>
      </trkpt>
      <trkpt lat="47.73843" lon="7.31669">
        <ele>245.1</ele>
        <time>2019-08-16T09:35:59Z</time>
      </trkpt>
      <trkpt lat="47.73842" lon="7.31674">
        <ele>245.1</ele>
        <time>2019-08-16T09:36:00Z</time>
      </trkpt>
      <trkpt lat="47.7384" lon="7.31681">
        <ele>245</ele>
        <time>2019-08-16T09:36:01Z</time>
      </trkpt>
      <trkpt lat="47.73838" lon="7.31688">
        <ele>244.9</ele>
        <time>2019-08-16T09:36:02Z</time>
      </trkpt>
      <trkpt lat="47.73835" lon="7.31693">
        <ele>244.9</ele>
        <time>2019-08-16T09:36:03Z</time>
      </trkpt>
      <trkpt lat="47.73832" lon="7.317">
        <ele>244.8</ele>
        <time>2019-08-16T09:36:04Z</time>
      </trkpt>
      <trkpt lat="47.73828" lon="7.31707">
        <ele>244.7</ele>
        <time>2019-08-16T09:36:05Z</time>
      </trkpt>
      <trkpt lat="47.73825" lon="7.31713">
        <ele>244.6</ele>
        <time>2019-08-16T09:36:06Z</time>
      </trkpt>
      <trkpt lat="47.73821" lon="7.3172">
        <ele>244.5</ele>
        <time>2019-08-16T09:36:07Z</time>
      </trkpt>
      <trkpt lat="47.73817" lon="7.31727">
        <ele>244.4</ele>
        <time>2019-08-16T09:36:08Z</time>
      </trkpt>
      <trkpt lat="47.73814" lon="7.31734">
        <ele>244.4</ele>
        <time>2019-08-16T09:36:09Z</time>
      </trkpt>
      <trkpt lat="47.7381" lon="7.3174">
        <ele>244.5</ele>
        <time>2019-08-16T09:36:10Z</time>
      </trkpt>
      <trkpt lat="47.73806" lon="7.31746">
        <ele>244.5</ele>
        <time>2019-08-16T09:36:11Z</time>
      </trkpt>
      <trkpt lat="47.73801" lon="7.31752">
        <ele>244.4</ele>
        <time>2019-08-16T09:36:12Z</time>
      </trkpt>
      <trkpt lat="47.73796" lon="7.31757">
        <ele>244.3</ele>
        <time>2019-08-16T09:36:13Z</time>
      </trkpt>
      <trkpt lat="47.73792" lon="7.31763">
        <ele>244.2</ele>
        <time>2019-08-16T09:36:14Z</time>
      </trkpt>
      <trkpt lat="47.73788" lon="7.31768">
        <ele>244.1</ele>
        <time>2019-08-16T09:36:15Z</time>
      </trkpt>
      <trkpt lat="47.73783" lon="7.31772">
        <ele>243.9</ele>
        <time>2019-08-16T09:36:16Z</time>
      </trkpt>
      <trkpt lat="47.73779" lon="7.31776">
        <ele>243.7</ele>
        <time>2019-08-16T09:36:17Z</time>
      </trkpt>
      <trkpt lat="47.73775" lon="7.31781">
        <ele>243.5</ele>
        <time>2019-08-16T09:36:18Z</time>
      </trkpt>
      <trkpt lat="47.73771" lon="7.31786">
        <ele>243.4</ele>
        <time>2019-08-16T09:36:19Z</time>
      </trkpt>
      <trkpt lat="47.73767" lon="7.31792">
        <ele>243.2</ele>
        <time>2019-08-16T09:36:20Z</time>
      </trkpt>
      <trkpt lat="47.73764" lon="7.31799">
        <ele>243.1</ele>
        <time>2019-08-16T09:36:21Z</time>
      </trkpt>
      <trkpt lat="47.7376" lon="7.31804">
        <ele>243</ele>
        <time>2019-08-16T09:36:22Z</time>
      </trkpt>
      <trkpt lat="47.73756" lon="7.3181">
        <ele>242.9</ele>
        <time>2019-08-16T09:36:23Z</time>
      </trkpt>
      <trkpt lat="47.73752" lon="7.31815">
        <ele>242.8</ele>
        <time>2019-08-16T09:36:24Z</time>
      </trkpt>
      <trkpt lat="47.7375" lon="7.31821">
        <ele>242.7</ele>
        <time>2019-08-16T09:36:25Z</time>
      </trkpt>
      <trkpt lat="47.73747" lon="7.31827">
        <ele>242.7</ele>
        <time>2019-08-16T09:36:26Z</time>
      </trkpt>
      <trkpt lat="47.73744" lon="7.31832">
        <ele>242.6</ele>
        <time>2019-08-16T09:36:27Z</time>
      </trkpt>
      <trkpt lat="47.73743" lon="7.31835">
        <ele>242.6</ele>
        <time>2019-08-16T09:36:28Z</time>
      </trkpt>
      <trkpt lat="47.73741" lon="7.31839">
        <ele>242.6</ele>
        <time>2019-08-16T09:36:29Z</time>
      </trkpt>
      <trkpt lat="47.73738" lon="7.31837">
        <ele>242.5</ele>
        <time>2019-08-16T09:36:33Z</time>
      </trkpt>
      <trkpt lat="47.73736" lon="7.31833">
        <ele>242.5</ele>
        <time>2019-08-16T09:36:38Z</time>
      </trkpt>
      <trkpt lat="47.73732" lon="7.31832">
        <ele>242.5</ele>
        <time>2019-08-16T09:37:05Z</time>
      </trkpt>
      <trkpt lat="47.73729" lon="7.31836">
        <ele>242.4</ele>
        <time>2019-08-16T09:37:07Z</time>
      </trkpt>
      <trkpt lat="47.73724" lon="7.31841">
        <ele>242.4</ele>
        <time>2019-08-16T09:37:09Z</time>
      </trkpt>
      <trkpt lat="47.73721" lon="7.31843">
        <ele>242.4</ele>
        <time>2019-08-16T09:37:10Z</time>
      </trkpt>
      <trkpt lat="47.73719" lon="7.31846">
        <ele>242.3</ele>
        <time>2019-08-16T09:37:11Z</time>
      </trkpt>
      <trkpt lat="47.73716" lon="7.31849">
        <ele>242.3</ele>
        <time>2019-08-16T09:37:12Z</time>
      </trkpt>
      <trkpt lat="47.73713" lon="7.31853">
        <ele>242.3</ele>
        <time>2019-08-16T09:37:13Z</time>
      </trkpt>
      <trkpt lat="47.73709" lon="7.31857">
        <ele>242.2</ele>
        <time>2019-08-16T09:37:14Z</time>
      </trkpt>
      <trkpt lat="47.73706" lon="7.3186">
        <ele>242.2</ele>
        <time>2019-08-16T09:37:15Z</time>
      </trkpt>
      <trkpt lat="47.73702" lon="7.31863">
        <ele>242.3</ele>
        <time>2019-08-16T09:37:16Z</time>
      </trkpt>
      <trkpt lat="47.73698" lon="7.31865">
        <ele>242.3</ele>
        <time>2019-08-16T09:37:17Z</time>
      </trkpt>
      <trkpt lat="47.73695" lon="7.31866">
        <ele>242.4</ele>
        <time>2019-08-16T09:37:18Z</time>
      </trkpt>
      <trkpt lat="47.73691" lon="7.31867">
        <ele>242.4</ele>
        <time>2019-08-16T09:37:19Z</time>
      </trkpt>
      <trkpt lat="47.73689" lon="7.31867">
        <ele>242.4</ele>
        <time>2019-08-16T09:37:20Z</time>
      </trkpt>
      <trkpt lat="47.73683" lon="7.31866">
        <ele>242.5</ele>
        <time>2019-08-16T09:37:22Z</time>
      </trkpt>
      <trkpt lat="47.73681" lon="7.31864">
        <ele>242.5</ele>
        <time>2019-08-16T09:37:23Z</time>
      </trkpt>
      <trkpt lat="47.73676" lon="7.31863">
        <ele>242.6</ele>
        <time>2019-08-16T09:37:25Z</time>
      </trkpt>
      <trkpt lat="47.73672" lon="7.31863">
        <ele>242.6</ele>
        <time>2019-08-16T09:37:27Z</time>
      </trkpt>
      <trkpt lat="47.73667" lon="7.31861">
        <ele>242.7</ele>
        <time>2019-08-16T09:37:29Z</time>
      </trkpt>
      <trkpt lat="47.73663" lon="7.31861">
        <ele>242.7</ele>
        <time>2019-08-16T09:37:30Z</time>
      </trkpt>
      <trkpt lat="47.7366" lon="7.31859">
        <ele>242.7</ele>
        <time>2019-08-16T09:37:31Z</time>
      </trkpt>
      <trkpt lat="47.73658" lon="7.31858">
        <ele>242.8</ele>
        <time>2019-08-16T09:37:32Z</time>
      </trkpt>
      <trkpt lat="47.73655" lon="7.31857">
        <ele>242.8</ele>
        <time>2019-08-16T09:37:33Z</time>
      </trkpt>
      <trkpt lat="47.73651" lon="7.31856">
        <ele>242.8</ele>
        <time>2019-08-16T09:37:34Z</time>
      </trkpt>
      <trkpt lat="47.73647" lon="7.31854">
        <ele>242.9</ele>
        <time>2019-08-16T09:37:35Z</time>
      </trkpt>
      <trkpt lat="47.73644" lon="7.31853">
        <ele>242.9</ele>
        <time>2019-08-16T09:37:36Z</time>
      </trkpt>
      <trkpt lat="47.7364" lon="7.31852">
        <ele>242.9</ele>
        <time>2019-08-16T09:37:37Z</time>
      </trkpt>
      <trkpt lat="47.73637" lon="7.31851">
        <ele>242.9</ele>
        <time>2019-08-16T09:37:38Z</time>
      </trkpt>
      <trkpt lat="47.73633" lon="7.31851">
        <ele>243</ele>
        <time>2019-08-16T09:37:39Z</time>
      </trkpt>
      <trkpt lat="47.73629" lon="7.3185">
        <ele>243</ele>
        <time>2019-08-16T09:37:40Z</time>
      </trkpt>
      <trkpt lat="47.73626" lon="7.3185">
        <ele>243</ele>
        <time>2019-08-16T09:37:41Z</time>
      </trkpt>
      <trkpt lat="47.73623" lon="7.3185">
        <ele>243</ele>
        <time>2019-08-16T09:37:42Z</time>
      </trkpt>
      <trkpt lat="47.7362" lon="7.3185">
        <ele>243</ele>
        <time>2019-08-16T09:37:43Z</time>
      </trkpt>
      <trkpt lat="47.73617" lon="7.31849">
        <ele>243</ele>
        <time>2019-08-16T09:37:44Z</time>
      </trkpt>
      <trkpt lat="47.73614" lon="7.31848">
        <ele>243</ele>
        <time>2019-08-16T09:37:45Z</time>
      </trkpt>
      <trkpt lat="47.73611" lon="7.31848">
        <ele>243</ele>
        <time>2019-08-16T09:37:46Z</time>
      </trkpt>
      <trkpt lat="47.73608" lon="7.31846">
        <ele>243</ele>
        <time>2019-08-16T09:37:47Z</time>
      </trkpt>
      <trkpt lat="47.73604" lon="7.31843">
        <ele>243</ele>
        <time>2019-08-16T09:37:48Z</time>
      </trkpt>
      <trkpt lat="47.736" lon="7.3184">
        <ele>243</ele>
        <time>2019-08-16T09:37:49Z</time>
      </trkpt>
      <trkpt lat="47.73596" lon="7.31839">
        <ele>243</ele>
        <time>2019-08-16T09:37:50Z</time>
      </trkpt>
      <trkpt lat="47.73592" lon="7.31837">
        <ele>243</ele>
        <time>2019-08-16T09:37:51Z</time>
      </trkpt>
      <trkpt lat="47.73588" lon="7.31836">
        <ele>243</ele>
        <time>2019-08-16T09:37:52Z</time>
      </trkpt>
      <trkpt lat="47.73584" lon="7.31835">
        <ele>243</ele>
        <time>2019-08-16T09:37:53Z</time>
      </trkpt>
      <trkpt lat="47.7358" lon="7.31833">
        <ele>243</ele>
        <time>2019-08-16T09:37:54Z</time>
      </trkpt>
      <trkpt lat="47.73577" lon="7.3183">
        <ele>243</ele>
        <time>2019-08-16T09:37:55Z</time>
      </trkpt>
      <trkpt lat="47.73573" lon="7.31829">
        <ele>243</ele>
        <time>2019-08-16T09:37:56Z</time>
      </trkpt>
      <trkpt lat="47.73569" lon="7.31827">
        <ele>242.9</ele>
        <time>2019-08-16T09:37:57Z</time>
      </trkpt>
      <trkpt lat="47.73566" lon="7.31825">
        <ele>242.9</ele>
        <time>2019-08-16T09:37:58Z</time>
      </trkpt>
      <trkpt lat="47.73563" lon="7.31823">
        <ele>242.8</ele>
        <time>2019-08-16T09:37:59Z</time>
      </trkpt>
      <trkpt lat="47.7356" lon="7.31821">
        <ele>242.8</ele>
        <time>2019-08-16T09:38:00Z</time>
      </trkpt>
      <trkpt lat="47.73556" lon="7.31818">
        <ele>242.7</ele>
        <time>2019-08-16T09:38:01Z</time>
      </trkpt>
      <trkpt lat="47.73552" lon="7.31816">
        <ele>242.7</ele>
        <time>2019-08-16T09:38:02Z</time>
      </trkpt>
      <trkpt lat="47.73547" lon="7.31813">
        <ele>242.6</ele>
        <time>2019-08-16T09:38:03Z</time>
      </trkpt>
      <trkpt lat="47.73542" lon="7.31811">
        <ele>242.5</ele>
        <time>2019-08-16T09:38:04Z</time>
      </trkpt>
      <trkpt lat="47.73538" lon="7.31809">
        <ele>242.5</ele>
        <time>2019-08-16T09:38:05Z</time>
      </trkpt>
      <trkpt lat="47.73534" lon="7.31806">
        <ele>242.4</ele>
        <time>2019-08-16T09:38:06Z</time>
      </trkpt>
      <trkpt lat="47.7353" lon="7.31803">
        <ele>242.3</ele>
        <time>2019-08-16T09:38:07Z</time>
      </trkpt>
      <trkpt lat="47.73526" lon="7.31799">
        <ele>242.3</ele>
        <time>2019-08-16T09:38:08Z</time>
      </trkpt>
      <trkpt lat="47.73521" lon="7.31794">
        <ele>242.2</ele>
        <time>2019-08-16T09:38:09Z</time>
      </trkpt>
      <trkpt lat="47.73518" lon="7.3179">
        <ele>242.2</ele>
        <time>2019-08-16T09:38:10Z</time>
      </trkpt>
      <trkpt lat="47.73514" lon="7.31787">
        <ele>242.2</ele>
        <time>2019-08-16T09:38:11Z</time>
      </trkpt>
      <trkpt lat="47.7351" lon="7.31784">
        <ele>242.1</ele>
        <time>2019-08-16T09:38:12Z</time>
      </trkpt>
      <trkpt lat="47.73506" lon="7.31781">
        <ele>242.1</ele>
        <time>2019-08-16T09:38:13Z</time>
      </trkpt>
      <trkpt lat="47.73502" lon="7.31777">
        <ele>242.1</ele>
        <time>2019-08-16T09:38:14Z</time>
      </trkpt>
      <trkpt lat="47.73499" lon="7.31773">
        <ele>242.1</ele>
        <time>2019-08-16T09:38:15Z</time>
      </trkpt>
      <trkpt lat="47.73496" lon="7.31769">
        <ele>242.2</ele>
        <time>2019-08-16T09:38:16Z</time>
      </trkpt>
      <trkpt lat="47.73492" lon="7.31765">
        <ele>242.2</ele>
        <time>2019-08-16T09:38:17Z</time>
      </trkpt>
      <trkpt lat="47.73488" lon="7.31761">
        <ele>242.2</ele>
        <time>2019-08-16T09:38:18Z</time>
      </trkpt>
      <trkpt lat="47.73484" lon="7.31757">
        <ele>242.2</ele>
        <time>2019-08-16T09:38:19Z</time>
      </trkpt>
      <trkpt lat="47.7348" lon="7.31754">
        <ele>242.2</ele>
        <time>2019-08-16T09:38:20Z</time>
      </trkpt>
      <trkpt lat="47.73477" lon="7.31749">
        <ele>242.3</ele>
        <time>2019-08-16T09:38:21Z</time>
      </trkpt>
      <trkpt lat="47.73474" lon="7.31745">
        <ele>242.4</ele>
        <time>2019-08-16T09:38:22Z</time>
      </trkpt>
      <trkpt lat="47.73471" lon="7.31741">
        <ele>242.5</ele>
        <time>2019-08-16T09:38:23Z</time>
      </trkpt>
      <trkpt lat="47.73467" lon="7.31736">
        <ele>242.6</ele>
        <time>2019-08-16T09:38:24Z</time>
      </trkpt>
      <trkpt lat="47.73464" lon="7.31732">
        <ele>242.7</ele>
        <time>2019-08-16T09:38:25Z</time>
      </trkpt>
      <trkpt lat="47.7346" lon="7.31728">
        <ele>242.8</ele>
        <time>2019-08-16T09:38:26Z</time>
      </trkpt>
      <trkpt lat="47.73457" lon="7.31724">
        <ele>242.8</ele>
        <time>2019-08-16T09:38:27Z</time>
      </trkpt>
      <trkpt lat="47.73454" lon="7.31721">
        <ele>242.9</ele>
        <time>2019-08-16T09:38:28Z</time>
      </trkpt>
      <trkpt lat="47.73452" lon="7.31718">
        <ele>242.9</ele>
        <time>2019-08-16T09:38:29Z</time>
      </trkpt>
      <trkpt lat="47.73449" lon="7.31714">
        <ele>243</ele>
        <time>2019-08-16T09:38:30Z</time>
      </trkpt>
      <trkpt lat="47.73447" lon="7.31711">
        <ele>243</ele>
        <time>2019-08-16T09:38:31Z</time>
      </trkpt>
      <trkpt lat="47.73445" lon="7.31707">
        <ele>243</ele>
        <time>2019-08-16T09:38:32Z</time>
      </trkpt>
      <trkpt lat="47.73443" lon="7.31704">
        <ele>243</ele>
        <time>2019-08-16T09:38:33Z</time>
      </trkpt>
      <trkpt lat="47.73441" lon="7.317">
        <ele>243</ele>
        <time>2019-08-16T09:38:34Z</time>
      </trkpt>
      <trkpt lat="47.7344" lon="7.31696">
        <ele>243</ele>
        <time>2019-08-16T09:38:35Z</time>
      </trkpt>
      <trkpt lat="47.73437" lon="7.3169">
        <ele>243</ele>
        <time>2019-08-16T09:38:37Z</time>
      </trkpt>
      <trkpt lat="47.73435" lon="7.31687">
        <ele>243</ele>
        <time>2019-08-16T09:38:39Z</time>
      </trkpt>
      <trkpt lat="47.73432" lon="7.31687">
        <ele>243</ele>
        <time>2019-08-16T09:38:40Z</time>
      </trkpt>
      <trkpt lat="47.73429" lon="7.3169">
        <ele>243</ele>
        <time>2019-08-16T09:38:41Z</time>
      </trkpt>
      <trkpt lat="47.73427" lon="7.31692">
        <ele>243</ele>
        <time>2019-08-16T09:38:42Z</time>
      </trkpt>
      <trkpt lat="47.73422" lon="7.31698">
        <ele>243</ele>
        <time>2019-08-16T09:38:44Z</time>
      </trkpt>
      <trkpt lat="47.7342" lon="7.31701">
        <ele>243</ele>
        <time>2019-08-16T09:38:45Z</time>
      </trkpt>
      <trkpt lat="47.73418" lon="7.31705">
        <ele>243.1</ele>
        <time>2019-08-16T09:38:46Z</time>
      </trkpt>
      <trkpt lat="47.73415" lon="7.31708">
        <ele>243.1</ele>
        <time>2019-08-16T09:38:47Z</time>
      </trkpt>
      <trkpt lat="47.73412" lon="7.31711">
        <ele>243.1</ele>
        <time>2019-08-16T09:38:48Z</time>
      </trkpt>
      <trkpt lat="47.73408" lon="7.31715">
        <ele>243.1</ele>
        <time>2019-08-16T09:38:49Z</time>
      </trkpt>
      <trkpt lat="47.73405" lon="7.31719">
        <ele>243.1</ele>
        <time>2019-08-16T09:38:50Z</time>
      </trkpt>
      <trkpt lat="47.73403" lon="7.31721">
        <ele>243.1</ele>
        <time>2019-08-16T09:38:51Z</time>
      </trkpt>
      <trkpt lat="47.73398" lon="7.31719">
        <ele>243.1</ele>
        <time>2019-08-16T09:38:53Z</time>
      </trkpt>
      <trkpt lat="47.73393" lon="7.31717">
        <ele>243.1</ele>
        <time>2019-08-16T09:38:55Z</time>
      </trkpt>
      <trkpt lat="47.7339" lon="7.31715">
        <ele>243</ele>
        <time>2019-08-16T09:38:57Z</time>
      </trkpt>
      <trkpt lat="47.73386" lon="7.31713">
        <ele>242.9</ele>
        <time>2019-08-16T09:39:00Z</time>
      </trkpt>
      <trkpt lat="47.73383" lon="7.31711">
        <ele>242.9</ele>
        <time>2019-08-16T09:39:02Z</time>
      </trkpt>
      <trkpt lat="47.73379" lon="7.31707">
        <ele>242.8</ele>
        <time>2019-08-16T09:39:04Z</time>
      </trkpt>
      <trkpt lat="47.73377" lon="7.317">
        <ele>242.6</ele>
        <time>2019-08-16T09:39:06Z</time>
      </trkpt>
      <trkpt lat="47.73376" lon="7.31696">
        <ele>242.6</ele>
        <time>2019-08-16T09:39:07Z</time>
      </trkpt>
      <trkpt lat="47.73374" lon="7.31693">
        <ele>242.6</ele>
        <time>2019-08-16T09:39:08Z</time>
      </trkpt>
      <trkpt lat="47.7337" lon="7.31692">
        <ele>242.4</ele>
        <time>2019-08-16T09:39:09Z</time>
      </trkpt>
      <trkpt lat="47.73366" lon="7.31692">
        <ele>242.4</ele>
        <time>2019-08-16T09:39:10Z</time>
      </trkpt>
      <trkpt lat="47.73362" lon="7.31694">
        <ele>242.4</ele>
        <time>2019-08-16T09:39:11Z</time>
      </trkpt>
      <trkpt lat="47.73358" lon="7.31696">
        <ele>242.3</ele>
        <time>2019-08-16T09:39:12Z</time>
      </trkpt>
      <trkpt lat="47.73355" lon="7.31699">
        <ele>242.3</ele>
        <time>2019-08-16T09:39:13Z</time>
      </trkpt>
      <trkpt lat="47.7335" lon="7.31701">
        <ele>242.4</ele>
        <time>2019-08-16T09:39:14Z</time>
      </trkpt>
      <trkpt lat="47.73347" lon="7.31703">
        <ele>242.4</ele>
        <time>2019-08-16T09:39:15Z</time>
      </trkpt>
      <trkpt lat="47.73343" lon="7.31705">
        <ele>242.4</ele>
        <time>2019-08-16T09:39:16Z</time>
      </trkpt>
      <trkpt lat="47.73339" lon="7.31707">
        <ele>242.5</ele>
        <time>2019-08-16T09:39:17Z</time>
      </trkpt>
      <trkpt lat="47.73334" lon="7.31709">
        <ele>242.5</ele>
        <time>2019-08-16T09:39:18Z</time>
      </trkpt>
      <trkpt lat="47.7333" lon="7.31712">
        <ele>242.5</ele>
        <time>2019-08-16T09:39:19Z</time>
      </trkpt>
      <trkpt lat="47.73326" lon="7.31715">
        <ele>242.5</ele>
        <time>2019-08-16T09:39:20Z</time>
      </trkpt>
      <trkpt lat="47.73322" lon="7.31718">
        <ele>242.5</ele>
        <time>2019-08-16T09:39:21Z</time>
      </trkpt>
      <trkpt lat="47.73319" lon="7.31721">
        <ele>242.6</ele>
        <time>2019-08-16T09:39:22Z</time>
      </trkpt>
      <trkpt lat="47.73315" lon="7.31725">
        <ele>242.6</ele>
        <time>2019-08-16T09:39:23Z</time>
      </trkpt>
      <trkpt lat="47.73311" lon="7.31727">
        <ele>242.6</ele>
        <time>2019-08-16T09:39:24Z</time>
      </trkpt>
      <trkpt lat="47.73308" lon="7.3173">
        <ele>242.5</ele>
        <time>2019-08-16T09:39:25Z</time>
      </trkpt>
      <trkpt lat="47.73304" lon="7.31733">
        <ele>242.5</ele>
        <time>2019-08-16T09:39:26Z</time>
      </trkpt>
      <trkpt lat="47.73301" lon="7.31736">
        <ele>242.5</ele>
        <time>2019-08-16T09:39:27Z</time>
      </trkpt>
      <trkpt lat="47.73297" lon="7.31738">
        <ele>242.5</ele>
        <time>2019-08-16T09:39:28Z</time>
      </trkpt>
      <trkpt lat="47.73293" lon="7.31741">
        <ele>242.5</ele>
        <time>2019-08-16T09:39:29Z</time>
      </trkpt>
      <trkpt lat="47.73289" lon="7.31745">
        <ele>242.5</ele>
        <time>2019-08-16T09:39:30Z</time>
      </trkpt>
      <trkpt lat="47.73286" lon="7.3175">
        <ele>242.5</ele>
        <time>2019-08-16T09:39:31Z</time>
      </trkpt>
      <trkpt lat="47.73282" lon="7.31754">
        <ele>242.4</ele>
        <time>2019-08-16T09:39:32Z</time>
      </trkpt>
      <trkpt lat="47.73279" lon="7.31758">
        <ele>242.4</ele>
        <time>2019-08-16T09:39:33Z</time>
      </trkpt>
      <trkpt lat="47.73276" lon="7.31762">
        <ele>242.4</ele>
        <time>2019-08-16T09:39:34Z</time>
      </trkpt>
      <trkpt lat="47.73272" lon="7.31767">
        <ele>242.3</ele>
        <time>2019-08-16T09:39:35Z</time>
      </trkpt>
      <trkpt lat="47.73269" lon="7.31771">
        <ele>242.3</ele>
        <time>2019-08-16T09:39:36Z</time>
      </trkpt>
      <trkpt lat="47.73265" lon="7.31775">
        <ele>242.2</ele>
        <time>2019-08-16T09:39:37Z</time>
      </trkpt>
      <trkpt lat="47.73262" lon="7.31779">
        <ele>242.2</ele>
        <time>2019-08-16T09:39:38Z</time>
      </trkpt>
      <trkpt lat="47.73259" lon="7.31782">
        <ele>242.1</ele>
        <time>2019-08-16T09:39:39Z</time>
      </trkpt>
      <trkpt lat="47.73256" lon="7.31785">
        <ele>242.1</ele>
        <time>2019-08-16T09:39:40Z</time>
      </trkpt>
      <trkpt lat="47.73253" lon="7.3179">
        <ele>242.1</ele>
        <time>2019-08-16T09:39:41Z</time>
      </trkpt>
      <trkpt lat="47.73249" lon="7.31793">
        <ele>242.1</ele>
        <time>2019-08-16T09:39:42Z</time>
      </trkpt>
      <trkpt lat="47.73244" lon="7.31797">
        <ele>242</ele>
        <time>2019-08-16T09:39:43Z</time>
      </trkpt>
      <trkpt lat="47.7324" lon="7.31802">
        <ele>242</ele>
        <time>2019-08-16T09:39:44Z</time>
      </trkpt>
      <trkpt lat="47.73236" lon="7.31805">
        <ele>242</ele>
        <time>2019-08-16T09:39:45Z</time>
      </trkpt>
      <trkpt lat="47.73233" lon="7.31809">
        <ele>242</ele>
        <time>2019-08-16T09:39:46Z</time>
      </trkpt>
      <trkpt lat="47.73229" lon="7.31812">
        <ele>242</ele>
        <time>2019-08-16T09:39:47Z</time>
      </trkpt>
      <trkpt lat="47.73226" lon="7.31815">
        <ele>242</ele>
        <time>2019-08-16T09:39:48Z</time>
      </trkpt>
      <trkpt lat="47.73223" lon="7.31818">
        <ele>242</ele>
        <time>2019-08-16T09:39:49Z</time>
      </trkpt>
      <trkpt lat="47.7322" lon="7.31822">
        <ele>242</ele>
        <time>2019-08-16T09:39:50Z</time>
      </trkpt>
      <trkpt lat="47.73216" lon="7.31824">
        <ele>242</ele>
        <time>2019-08-16T09:39:51Z</time>
      </trkpt>
      <trkpt lat="47.73213" lon="7.31827">
        <ele>242</ele>
        <time>2019-08-16T09:39:52Z</time>
      </trkpt>
      <trkpt lat="47.73211" lon="7.3183">
        <ele>242</ele>
        <time>2019-08-16T09:39:53Z</time>
      </trkpt>
      <trkpt lat="47.73208" lon="7.31832">
        <ele>242</ele>
        <time>2019-08-16T09:39:54Z</time>
      </trkpt>
      <trkpt lat="47.73205" lon="7.31834">
        <ele>242</ele>
        <time>2019-08-16T09:39:55Z</time>
      </trkpt>
      <trkpt lat="47.73201" lon="7.31837">
        <ele>242</ele>
        <time>2019-08-16T09:39:56Z</time>
      </trkpt>
      <trkpt lat="47.73199" lon="7.3184">
        <ele>242</ele>
        <time>2019-08-16T09:39:57Z</time>
      </trkpt>
      <trkpt lat="47.73197" lon="7.31843">
        <ele>242</ele>
        <time>2019-08-16T09:39:58Z</time>
      </trkpt>
      <trkpt lat="47.73194" lon="7.31845">
        <ele>242</ele>
        <time>2019-08-16T09:39:59Z</time>
      </trkpt>
      <trkpt lat="47.73191" lon="7.31848">
        <ele>241.9</ele>
        <time>2019-08-16T09:40:00Z</time>
      </trkpt>
      <trkpt lat="47.73188" lon="7.31851">
        <ele>241.9</ele>
        <time>2019-08-16T09:40:01Z</time>
      </trkpt>
      <trkpt lat="47.73185" lon="7.31855">
        <ele>241.9</ele>
        <time>2019-08-16T09:40:02Z</time>
      </trkpt>
      <trkpt lat="47.73182" lon="7.31858">
        <ele>241.9</ele>
        <time>2019-08-16T09:40:03Z</time>
      </trkpt>
      <trkpt lat="47.73178" lon="7.3186">
        <ele>241.9</ele>
        <time>2019-08-16T09:40:04Z</time>
      </trkpt>
      <trkpt lat="47.73175" lon="7.31863">
        <ele>241.9</ele>
        <time>2019-08-16T09:40:05Z</time>
      </trkpt>
      <trkpt lat="47.73172" lon="7.31866">
        <ele>241.9</ele>
        <time>2019-08-16T09:40:06Z</time>
      </trkpt>
      <trkpt lat="47.73169" lon="7.31869">
        <ele>241.9</ele>
        <time>2019-08-16T09:40:07Z</time>
      </trkpt>
      <trkpt lat="47.73164" lon="7.31872">
        <ele>241.9</ele>
        <time>2019-08-16T09:40:08Z</time>
      </trkpt>
      <trkpt lat="47.73161" lon="7.31875">
        <ele>241.9</ele>
        <time>2019-08-16T09:40:09Z</time>
      </trkpt>
      <trkpt lat="47.73159" lon="7.3188">
        <ele>241.9</ele>
        <time>2019-08-16T09:40:11Z</time>
      </trkpt>
      <trkpt lat="47.73157" lon="7.31883">
        <ele>241.9</ele>
        <time>2019-08-16T09:40:13Z</time>
      </trkpt>
      <trkpt lat="47.73154" lon="7.31885">
        <ele>241.8</ele>
        <time>2019-08-16T09:40:16Z</time>
      </trkpt>
      <trkpt lat="47.73152" lon="7.31889">
        <ele>241.8</ele>
        <time>2019-08-16T09:40:25Z</time>
      </trkpt>
      <trkpt lat="47.73155" lon="7.31891">
        <ele>241.8</ele>
        <time>2019-08-16T09:40:30Z</time>
      </trkpt>
      <trkpt lat="47.73157" lon="7.3189">
        <ele>241.8</ele>
        <time>2019-08-16T09:41:16Z</time>
      </trkpt>
      <trkpt lat="47.73154" lon="7.31886">
        <ele>241.8</ele>
        <time>2019-08-16T09:41:18Z</time>
      </trkpt>
      <trkpt lat="47.73151" lon="7.3188">
        <ele>241.7</ele>
        <time>2019-08-16T09:41:20Z</time>
      </trkpt>
      <trkpt lat="47.7315" lon="7.31876">
        <ele>240.8</ele>
        <time>2019-08-16T09:41:21Z</time>
      </trkpt>
      <trkpt lat="47.73148" lon="7.31872">
        <ele>240.6</ele>
        <time>2019-08-16T09:41:22Z</time>
      </trkpt>
      <trkpt lat="47.73146" lon="7.31867">
        <ele>240.4</ele>
        <time>2019-08-16T09:41:24Z</time>
      </trkpt>
      <trkpt lat="47.73144" lon="7.31862">
        <ele>240.3</ele>
        <time>2019-08-16T09:41:26Z</time>
      </trkpt>
      <trkpt lat="47.73141" lon="7.31857">
        <ele>240.2</ele>
        <time>2019-08-16T09:41:28Z</time>
      </trkpt>
      <trkpt lat="47.73138" lon="7.31854">
        <ele>240.2</ele>
        <time>2019-08-16T09:41:29Z</time>
      </trkpt>
      <trkpt lat="47.73136" lon="7.31851">
        <ele>240.1</ele>
        <time>2019-08-16T09:41:30Z</time>
      </trkpt>
      <trkpt lat="47.73134" lon="7.31847">
        <ele>240.1</ele>
        <time>2019-08-16T09:41:31Z</time>
      </trkpt>
      <trkpt lat="47.73131" lon="7.31843">
        <ele>240.1</ele>
        <time>2019-08-16T09:41:32Z</time>
      </trkpt>
      <trkpt lat="47.73129" lon="7.3184">
        <ele>240.1</ele>
        <time>2019-08-16T09:41:33Z</time>
      </trkpt>
      <trkpt lat="47.73127" lon="7.31836">
        <ele>240.1</ele>
        <time>2019-08-16T09:41:34Z</time>
      </trkpt>
      <trkpt lat="47.73124" lon="7.31832">
        <ele>240.1</ele>
        <time>2019-08-16T09:41:35Z</time>
      </trkpt>
      <trkpt lat="47.73122" lon="7.31828">
        <ele>240.1</ele>
        <time>2019-08-16T09:41:36Z</time>
      </trkpt>
      <trkpt lat="47.73119" lon="7.31824">
        <ele>240.1</ele>
        <time>2019-08-16T09:41:37Z</time>
      </trkpt>
      <trkpt lat="47.73117" lon="7.3182">
        <ele>240.1</ele>
        <time>2019-08-16T09:41:38Z</time>
      </trkpt>
      <trkpt lat="47.73113" lon="7.31815">
        <ele>240</ele>
        <time>2019-08-16T09:41:40Z</time>
      </trkpt>
      <trkpt lat="47.7311" lon="7.3181">
        <ele>240</ele>
        <time>2019-08-16T09:41:42Z</time>
      </trkpt>
      <trkpt lat="47.73107" lon="7.31805">
        <ele>240</ele>
        <time>2019-08-16T09:41:44Z</time>
      </trkpt>
      <trkpt lat="47.73105" lon="7.31799">
        <ele>240</ele>
        <time>2019-08-16T09:41:45Z</time>
      </trkpt>
      <trkpt lat="47.73102" lon="7.31795">
        <ele>240</ele>
        <time>2019-08-16T09:41:46Z</time>
      </trkpt>
      <trkpt lat="47.73099" lon="7.31789">
        <ele>240</ele>
        <time>2019-08-16T09:41:47Z</time>
      </trkpt>
      <trkpt lat="47.73096" lon="7.31784">
        <ele>240</ele>
        <time>2019-08-16T09:41:48Z</time>
      </trkpt>
      <trkpt lat="47.73092" lon="7.31779">
        <ele>240</ele>
        <time>2019-08-16T09:41:49Z</time>
      </trkpt>
      <trkpt lat="47.7309" lon="7.31773">
        <ele>240</ele>
        <time>2019-08-16T09:41:50Z</time>
      </trkpt>
      <trkpt lat="47.73086" lon="7.31767">
        <ele>240.1</ele>
        <time>2019-08-16T09:41:51Z</time>
      </trkpt>
      <trkpt lat="47.73083" lon="7.31761">
        <ele>240.1</ele>
        <time>2019-08-16T09:41:52Z</time>
      </trkpt>
      <trkpt lat="47.73079" lon="7.31755">
        <ele>240.1</ele>
        <time>2019-08-16T09:41:53Z</time>
      </trkpt>
      <trkpt lat="47.73075" lon="7.3175">
        <ele>240.4</ele>
        <time>2019-08-16T09:41:54Z</time>
      </trkpt>
      <trkpt lat="47.73071" lon="7.31745">
        <ele>240.7</ele>
        <time>2019-08-16T09:41:55Z</time>
      </trkpt>
      <trkpt lat="47.73067" lon="7.3174">
        <ele>241</ele>
        <time>2019-08-16T09:41:56Z</time>
      </trkpt>
      <trkpt lat="47.73063" lon="7.31734">
        <ele>241.3</ele>
        <time>2019-08-16T09:41:57Z</time>
      </trkpt>
      <trkpt lat="47.7306" lon="7.31729">
        <ele>241.5</ele>
        <time>2019-08-16T09:41:58Z</time>
      </trkpt>
      <trkpt lat="47.73057" lon="7.31725">
        <ele>241.8</ele>
        <time>2019-08-16T09:41:59Z</time>
      </trkpt>
      <trkpt lat="47.73053" lon="7.3172">
        <ele>242</ele>
        <time>2019-08-16T09:42:00Z</time>
      </trkpt>
      <trkpt lat="47.7305" lon="7.31715">
        <ele>242.3</ele>
        <time>2019-08-16T09:42:01Z</time>
      </trkpt>
      <trkpt lat="47.73046" lon="7.3171">
        <ele>242.5</ele>
        <time>2019-08-16T09:42:02Z</time>
      </trkpt>
      <trkpt lat="47.73043" lon="7.31705">
        <ele>242.8</ele>
        <time>2019-08-16T09:42:03Z</time>
      </trkpt>
      <trkpt lat="47.7304" lon="7.317">
        <ele>243.1</ele>
        <time>2019-08-16T09:42:04Z</time>
      </trkpt>
      <trkpt lat="47.73037" lon="7.31695">
        <ele>243.3</ele>
        <time>2019-08-16T09:42:05Z</time>
      </trkpt>
      <trkpt lat="47.73035" lon="7.3169">
        <ele>243.5</ele>
        <time>2019-08-16T09:42:06Z</time>
      </trkpt>
      <trkpt lat="47.73033" lon="7.31686">
        <ele>243.7</ele>
        <time>2019-08-16T09:42:07Z</time>
      </trkpt>
      <trkpt lat="47.7303" lon="7.31682">
        <ele>244</ele>
        <time>2019-08-16T09:42:08Z</time>
      </trkpt>
      <trkpt lat="47.73028" lon="7.31677">
        <ele>244.2</ele>
        <time>2019-08-16T09:42:09Z</time>
      </trkpt>
      <trkpt lat="47.73026" lon="7.31673">
        <ele>244.4</ele>
        <time>2019-08-16T09:42:10Z</time>
      </trkpt>
      <trkpt lat="47.73023" lon="7.31669">
        <ele>244.6</ele>
        <time>2019-08-16T09:42:11Z</time>
      </trkpt>
      <trkpt lat="47.73021" lon="7.31665">
        <ele>244.7</ele>
        <time>2019-08-16T09:42:12Z</time>
      </trkpt>
      <trkpt lat="47.73019" lon="7.31662">
        <ele>244.9</ele>
        <time>2019-08-16T09:42:13Z</time>
      </trkpt>
      <trkpt lat="47.73016" lon="7.31656">
        <ele>245.2</ele>
        <time>2019-08-16T09:42:15Z</time>
      </trkpt>
      <trkpt lat="47.73014" lon="7.31653">
        <ele>245.3</ele>
        <time>2019-08-16T09:42:16Z</time>
      </trkpt>
      <trkpt lat="47.73012" lon="7.3165">
        <ele>245.5</ele>
        <time>2019-08-16T09:42:17Z</time>
      </trkpt>
      <trkpt lat="47.73009" lon="7.31646">
        <ele>245.6</ele>
        <time>2019-08-16T09:42:18Z</time>
      </trkpt>
      <trkpt lat="47.73008" lon="7.31642">
        <ele>245.8</ele>
        <time>2019-08-16T09:42:19Z</time>
      </trkpt>
      <trkpt lat="47.73005" lon="7.31637">
        <ele>246</ele>
        <time>2019-08-16T09:42:20Z</time>
      </trkpt>
      <trkpt lat="47.73003" lon="7.31633">
        <ele>246.1</ele>
        <time>2019-08-16T09:42:21Z</time>
      </trkpt>
      <trkpt lat="47.73001" lon="7.3163">
        <ele>246.3</ele>
        <time>2019-08-16T09:42:22Z</time>
      </trkpt>
      <trkpt lat="47.72999" lon="7.31626">
        <ele>246.5</ele>
        <time>2019-08-16T09:42:23Z</time>
      </trkpt>
      <trkpt lat="47.72997" lon="7.31622">
        <ele>246.6</ele>
        <time>2019-08-16T09:42:24Z</time>
      </trkpt>
      <trkpt lat="47.72995" lon="7.31618">
        <ele>246.8</ele>
        <time>2019-08-16T09:42:25Z</time>
      </trkpt>
      <trkpt lat="47.72993" lon="7.31615">
        <ele>246.9</ele>
        <time>2019-08-16T09:42:26Z</time>
      </trkpt>
      <trkpt lat="47.72991" lon="7.31612">
        <ele>247.1</ele>
        <time>2019-08-16T09:42:27Z</time>
      </trkpt>
      <trkpt lat="47.72988" lon="7.31608">
        <ele>247.3</ele>
        <time>2019-08-16T09:42:28Z</time>
      </trkpt>
      <trkpt lat="47.72986" lon="7.31603">
        <ele>247.5</ele>
        <time>2019-08-16T09:42:29Z</time>
      </trkpt>
      <trkpt lat="47.72984" lon="7.31599">
        <ele>247.7</ele>
        <time>2019-08-16T09:42:30Z</time>
      </trkpt>
      <trkpt lat="47.72981" lon="7.31593">
        <ele>248</ele>
        <time>2019-08-16T09:42:31Z</time>
      </trkpt>
      <trkpt lat="47.72978" lon="7.31589">
        <ele>248.2</ele>
        <time>2019-08-16T09:42:32Z</time>
      </trkpt>
      <trkpt lat="47.72976" lon="7.31584">
        <ele>248.5</ele>
        <time>2019-08-16T09:42:33Z</time>
      </trkpt>
      <trkpt lat="47.72973" lon="7.31581">
        <ele>248.7</ele>
        <time>2019-08-16T09:42:34Z</time>
      </trkpt>
      <trkpt lat="47.72971" lon="7.31579">
        <ele>248.8</ele>
        <time>2019-08-16T09:42:35Z</time>
      </trkpt>
      <trkpt lat="47.72969" lon="7.31573">
        <ele>249.1</ele>
        <time>2019-08-16T09:42:36Z</time>
      </trkpt>
      <trkpt lat="47.72965" lon="7.31566">
        <ele>249.4</ele>
        <time>2019-08-16T09:42:37Z</time>
      </trkpt>
      <trkpt lat="47.72962" lon="7.31559">
        <ele>249.7</ele>
        <time>2019-08-16T09:42:38Z</time>
      </trkpt>
      <trkpt lat="47.72959" lon="7.31551">
        <ele>249.9</ele>
        <time>2019-08-16T09:42:39Z</time>
      </trkpt>
      <trkpt lat="47.72956" lon="7.31545">
        <ele>250.1</ele>
        <time>2019-08-16T09:42:40Z</time>
      </trkpt>
      <trkpt lat="47.72953" lon="7.31538">
        <ele>250.2</ele>
        <time>2019-08-16T09:42:41Z</time>
      </trkpt>
      <trkpt lat="47.7295" lon="7.31533">
        <ele>250.3</ele>
        <time>2019-08-16T09:42:42Z</time>
      </trkpt>
      <trkpt lat="47.72947" lon="7.31528">
        <ele>250.3</ele>
        <time>2019-08-16T09:42:43Z</time>
      </trkpt>
      <trkpt lat="47.72945" lon="7.31523">
        <ele>250.4</ele>
        <time>2019-08-16T09:42:44Z</time>
      </trkpt>
      <trkpt lat="47.72942" lon="7.31519">
        <ele>250.4</ele>
        <time>2019-08-16T09:42:45Z</time>
      </trkpt>
      <trkpt lat="47.7294" lon="7.31515">
        <ele>250.4</ele>
        <time>2019-08-16T09:42:46Z</time>
      </trkpt>
      <trkpt lat="47.72937" lon="7.31511">
        <ele>250.4</ele>
        <time>2019-08-16T09:42:47Z</time>
      </trkpt>
      <trkpt lat="47.72934" lon="7.31506">
        <ele>250.4</ele>
        <time>2019-08-16T09:42:48Z</time>
      </trkpt>
      <trkpt lat="47.72931" lon="7.315">
        <ele>250.4</ele>
        <time>2019-08-16T09:42:49Z</time>
      </trkpt>
      <trkpt lat="47.7293" lon="7.31496">
        <ele>250.4</ele>
        <time>2019-08-16T09:42:50Z</time>
      </trkpt>
      <trkpt lat="47.72929" lon="7.31492">
        <ele>250.4</ele>
        <time>2019-08-16T09:42:51Z</time>
      </trkpt>
      <trkpt lat="47.72927" lon="7.31486">
        <ele>250.3</ele>
        <time>2019-08-16T09:42:53Z</time>
      </trkpt>
      <trkpt lat="47.72923" lon="7.31483">
        <ele>250.3</ele>
        <time>2019-08-16T09:42:55Z</time>
      </trkpt>
      <trkpt lat="47.72917" lon="7.31485">
        <ele>250.2</ele>
        <time>2019-08-16T09:42:56Z</time>
      </trkpt>
      <trkpt lat="47.72914" lon="7.31487">
        <ele>250.2</ele>
        <time>2019-08-16T09:42:57Z</time>
      </trkpt>
      <trkpt lat="47.72909" lon="7.31488">
        <ele>250.2</ele>
        <time>2019-08-16T09:42:58Z</time>
      </trkpt>
      <trkpt lat="47.72906" lon="7.31489">
        <ele>250.1</ele>
        <time>2019-08-16T09:42:59Z</time>
      </trkpt>
      <trkpt lat="47.72902" lon="7.31491">
        <ele>250.1</ele>
        <time>2019-08-16T09:43:00Z</time>
      </trkpt>
      <trkpt lat="47.72897" lon="7.31492">
        <ele>247.1</ele>
        <time>2019-08-16T09:43:01Z</time>
      </trkpt>
      <trkpt lat="47.72893" lon="7.31492">
        <ele>246.4</ele>
        <time>2019-08-16T09:43:02Z</time>
      </trkpt>
      <trkpt lat="47.72888" lon="7.31494">
        <ele>245.9</ele>
        <time>2019-08-16T09:43:03Z</time>
      </trkpt>
      <trkpt lat="47.72884" lon="7.31496">
        <ele>245.4</ele>
        <time>2019-08-16T09:43:04Z</time>
      </trkpt>
      <trkpt lat="47.7288" lon="7.31498">
        <ele>244.9</ele>
        <time>2019-08-16T09:43:05Z</time>
      </trkpt>
      <trkpt lat="47.72876" lon="7.315">
        <ele>244.3</ele>
        <time>2019-08-16T09:43:06Z</time>
      </trkpt>
      <trkpt lat="47.72873" lon="7.31502">
        <ele>243.6</ele>
        <time>2019-08-16T09:43:07Z</time>
      </trkpt>
      <trkpt lat="47.72869" lon="7.31505">
        <ele>243.1</ele>
        <time>2019-08-16T09:43:08Z</time>
      </trkpt>
      <trkpt lat="47.72866" lon="7.31507">
        <ele>242.6</ele>
        <time>2019-08-16T09:43:09Z</time>
      </trkpt>
      <trkpt lat="47.72862" lon="7.31511">
        <ele>242.1</ele>
        <time>2019-08-16T09:43:10Z</time>
      </trkpt>
      <trkpt lat="47.72859" lon="7.31515">
        <ele>241.6</ele>
        <time>2019-08-16T09:43:11Z</time>
      </trkpt>
      <trkpt lat="47.72856" lon="7.31519">
        <ele>241.2</ele>
        <time>2019-08-16T09:43:12Z</time>
      </trkpt>
      <trkpt lat="47.72853" lon="7.31524">
        <ele>240.6</ele>
        <time>2019-08-16T09:43:13Z</time>
      </trkpt>
      <trkpt lat="47.7285" lon="7.31529">
        <ele>240.1</ele>
        <time>2019-08-16T09:43:14Z</time>
      </trkpt>
      <trkpt lat="47.72846" lon="7.31533">
        <ele>239.9</ele>
        <time>2019-08-16T09:43:15Z</time>
      </trkpt>
      <trkpt lat="47.72842" lon="7.31538">
        <ele>239.9</ele>
        <time>2019-08-16T09:43:16Z</time>
      </trkpt>
      <trkpt lat="47.72838" lon="7.31541">
        <ele>239.9</ele>
        <time>2019-08-16T09:43:17Z</time>
      </trkpt>
      <trkpt lat="47.72835" lon="7.31543">
        <ele>239.9</ele>
        <time>2019-08-16T09:43:18Z</time>
      </trkpt>
      <trkpt lat="47.72831" lon="7.31545">
        <ele>239.9</ele>
        <time>2019-08-16T09:43:19Z</time>
      </trkpt>
      <trkpt lat="47.72827" lon="7.31548">
        <ele>239.9</ele>
        <time>2019-08-16T09:43:20Z</time>
      </trkpt>
      <trkpt lat="47.72824" lon="7.31551">
        <ele>239.9</ele>
        <time>2019-08-16T09:43:21Z</time>
      </trkpt>
      <trkpt lat="47.7282" lon="7.31555">
        <ele>239.9</ele>
        <time>2019-08-16T09:43:22Z</time>
      </trkpt>
      <trkpt lat="47.72816" lon="7.31558">
        <ele>239.8</ele>
        <time>2019-08-16T09:43:23Z</time>
      </trkpt>
      <trkpt lat="47.72813" lon="7.31561">
        <ele>239.8</ele>
        <time>2019-08-16T09:43:24Z</time>
      </trkpt>
      <trkpt lat="47.72809" lon="7.31564">
        <ele>239.7</ele>
        <time>2019-08-16T09:43:25Z</time>
      </trkpt>
      <trkpt lat="47.72805" lon="7.31568">
        <ele>239.7</ele>
        <time>2019-08-16T09:43:26Z</time>
      </trkpt>
      <trkpt lat="47.72801" lon="7.31571">
        <ele>239.6</ele>
        <time>2019-08-16T09:43:27Z</time>
      </trkpt>
      <trkpt lat="47.72797" lon="7.31574">
        <ele>239.6</ele>
        <time>2019-08-16T09:43:28Z</time>
      </trkpt>
      <trkpt lat="47.72793" lon="7.31578">
        <ele>239.5</ele>
        <time>2019-08-16T09:43:29Z</time>
      </trkpt>
      <trkpt lat="47.72789" lon="7.31581">
        <ele>239.5</ele>
        <time>2019-08-16T09:43:30Z</time>
      </trkpt>
      <trkpt lat="47.72785" lon="7.31584">
        <ele>239.4</ele>
        <time>2019-08-16T09:43:31Z</time>
      </trkpt>
      <trkpt lat="47.72782" lon="7.31587">
        <ele>239.4</ele>
        <time>2019-08-16T09:43:32Z</time>
      </trkpt>
      <trkpt lat="47.72778" lon="7.3159">
        <ele>239.3</ele>
        <time>2019-08-16T09:43:33Z</time>
      </trkpt>
      <trkpt lat="47.72774" lon="7.31594">
        <ele>239.3</ele>
        <time>2019-08-16T09:43:34Z</time>
      </trkpt>
      <trkpt lat="47.7277" lon="7.31597">
        <ele>239.3</ele>
        <time>2019-08-16T09:43:35Z</time>
      </trkpt>
      <trkpt lat="47.72767" lon="7.316">
        <ele>239.3</ele>
        <time>2019-08-16T09:43:36Z</time>
      </trkpt>
      <trkpt lat="47.72763" lon="7.31604">
        <ele>239.3</ele>
        <time>2019-08-16T09:43:37Z</time>
      </trkpt>
      <trkpt lat="47.72759" lon="7.31608">
        <ele>239.3</ele>
        <time>2019-08-16T09:43:38Z</time>
      </trkpt>
      <trkpt lat="47.72755" lon="7.31612">
        <ele>239.4</ele>
        <time>2019-08-16T09:43:39Z</time>
      </trkpt>
      <trkpt lat="47.72751" lon="7.31616">
        <ele>239.4</ele>
        <time>2019-08-16T09:43:40Z</time>
      </trkpt>
      <trkpt lat="47.72748" lon="7.3162">
        <ele>239.4</ele>
        <time>2019-08-16T09:43:41Z</time>
      </trkpt>
      <trkpt lat="47.72744" lon="7.31624">
        <ele>239.5</ele>
        <time>2019-08-16T09:43:42Z</time>
      </trkpt>
      <trkpt lat="47.7274" lon="7.31628">
        <ele>239.5</ele>
        <time>2019-08-16T09:43:43Z</time>
      </trkpt>
      <trkpt lat="47.72736" lon="7.31631">
        <ele>239.5</ele>
        <time>2019-08-16T09:43:44Z</time>
      </trkpt>
      <trkpt lat="47.72732" lon="7.31634">
        <ele>239.6</ele>
        <time>2019-08-16T09:43:45Z</time>
      </trkpt>
      <trkpt lat="47.72728" lon="7.31638">
        <ele>239.6</ele>
        <time>2019-08-16T09:43:46Z</time>
      </trkpt>
      <trkpt lat="47.72724" lon="7.31642">
        <ele>239.7</ele>
        <time>2019-08-16T09:43:47Z</time>
      </trkpt>
      <trkpt lat="47.72719" lon="7.31647">
        <ele>239.8</ele>
        <time>2019-08-16T09:43:48Z</time>
      </trkpt>
      <trkpt lat="47.72715" lon="7.31651">
        <ele>239.9</ele>
        <time>2019-08-16T09:43:49Z</time>
      </trkpt>
      <trkpt lat="47.72711" lon="7.31655">
        <ele>239.9</ele>
        <time>2019-08-16T09:43:50Z</time>
      </trkpt>
      <trkpt lat="47.72708" lon="7.31658">
        <ele>240</ele>
        <time>2019-08-16T09:43:51Z</time>
      </trkpt>
      <trkpt lat="47.72705" lon="7.31661">
        <ele>240</ele>
        <time>2019-08-16T09:43:52Z</time>
      </trkpt>
      <trkpt lat="47.72701" lon="7.31665">
        <ele>240.1</ele>
        <time>2019-08-16T09:43:53Z</time>
      </trkpt>
      <trkpt lat="47.72698" lon="7.31669">
        <ele>240.1</ele>
        <time>2019-08-16T09:43:54Z</time>
      </trkpt>
      <trkpt lat="47.72696" lon="7.31673">
        <ele>240.2</ele>
        <time>2019-08-16T09:43:55Z</time>
      </trkpt>
      <trkpt lat="47.72692" lon="7.31678">
        <ele>240.2</ele>
        <time>2019-08-16T09:43:56Z</time>
      </trkpt>
      <trkpt lat="47.72689" lon="7.31682">
        <ele>240.3</ele>
        <time>2019-08-16T09:43:57Z</time>
      </trkpt>
      <trkpt lat="47.72686" lon="7.31686">
        <ele>240.4</ele>
        <time>2019-08-16T09:43:58Z</time>
      </trkpt>
      <trkpt lat="47.72683" lon="7.3169">
        <ele>240.4</ele>
        <time>2019-08-16T09:43:59Z</time>
      </trkpt>
      <trkpt lat="47.7268" lon="7.31694">
        <ele>240.5</ele>
        <time>2019-08-16T09:44:00Z</time>
      </trkpt>
      <trkpt lat="47.72677" lon="7.31698">
        <ele>240.5</ele>
        <time>2019-08-16T09:44:01Z</time>
      </trkpt>
      <trkpt lat="47.72674" lon="7.31702">
        <ele>240.6</ele>
        <time>2019-08-16T09:44:02Z</time>
      </trkpt>
      <trkpt lat="47.72671" lon="7.31706">
        <ele>240.6</ele>
        <time>2019-08-16T09:44:03Z</time>
      </trkpt>
      <trkpt lat="47.72668" lon="7.3171">
        <ele>240.7</ele>
        <time>2019-08-16T09:44:04Z</time>
      </trkpt>
      <trkpt lat="47.72665" lon="7.31713">
        <ele>240.8</ele>
        <time>2019-08-16T09:44:05Z</time>
      </trkpt>
      <trkpt lat="47.72662" lon="7.31717">
        <ele>240.8</ele>
        <time>2019-08-16T09:44:06Z</time>
      </trkpt>
      <trkpt lat="47.72659" lon="7.31721">
        <ele>240.9</ele>
        <time>2019-08-16T09:44:07Z</time>
      </trkpt>
      <trkpt lat="47.72657" lon="7.31724">
        <ele>240.9</ele>
        <time>2019-08-16T09:44:08Z</time>
      </trkpt>
      <trkpt lat="47.72653" lon="7.31727">
        <ele>241</ele>
        <time>2019-08-16T09:44:09Z</time>
      </trkpt>
      <trkpt lat="47.72649" lon="7.31729">
        <ele>241</ele>
        <time>2019-08-16T09:44:11Z</time>
      </trkpt>
      <trkpt lat="47.72647" lon="7.31722">
        <ele>241</ele>
        <time>2019-08-16T09:44:13Z</time>
      </trkpt>
      <trkpt lat="47.72645" lon="7.31718">
        <ele>241</ele>
        <time>2019-08-16T09:44:14Z</time>
      </trkpt>
      <trkpt lat="47.72643" lon="7.31714">
        <ele>241</ele>
        <time>2019-08-16T09:44:15Z</time>
      </trkpt>
      <trkpt lat="47.72641" lon="7.3171">
        <ele>241</ele>
        <time>2019-08-16T09:44:16Z</time>
      </trkpt>
      <trkpt lat="47.72638" lon="7.31707">
        <ele>241</ele>
        <time>2019-08-16T09:44:17Z</time>
      </trkpt>
      <trkpt lat="47.72635" lon="7.31703">
        <ele>241</ele>
        <time>2019-08-16T09:44:18Z</time>
      </trkpt>
      <trkpt lat="47.72631" lon="7.31698">
        <ele>241</ele>
        <time>2019-08-16T09:44:19Z</time>
      </trkpt>
      <trkpt lat="47.72628" lon="7.31694">
        <ele>241</ele>
        <time>2019-08-16T09:44:20Z</time>
      </trkpt>
      <trkpt lat="47.72624" lon="7.31689">
        <ele>241.1</ele>
        <time>2019-08-16T09:44:21Z</time>
      </trkpt>
      <trkpt lat="47.72621" lon="7.31684">
        <ele>241.1</ele>
        <time>2019-08-16T09:44:22Z</time>
      </trkpt>
      <trkpt lat="47.72618" lon="7.3168">
        <ele>241.1</ele>
        <time>2019-08-16T09:44:23Z</time>
      </trkpt>
      <trkpt lat="47.72614" lon="7.31675">
        <ele>241.1</ele>
        <time>2019-08-16T09:44:24Z</time>
      </trkpt>
      <trkpt lat="47.72612" lon="7.31671">
        <ele>241.1</ele>
        <time>2019-08-16T09:44:25Z</time>
      </trkpt>
      <trkpt lat="47.7261" lon="7.31667">
        <ele>241.1</ele>
        <time>2019-08-16T09:44:26Z</time>
      </trkpt>
      <trkpt lat="47.72607" lon="7.31663">
        <ele>241.1</ele>
        <time>2019-08-16T09:44:27Z</time>
      </trkpt>
      <trkpt lat="47.72604" lon="7.31659">
        <ele>241.1</ele>
        <time>2019-08-16T09:44:28Z</time>
      </trkpt>
      <trkpt lat="47.72601" lon="7.31656">
        <ele>241.1</ele>
        <time>2019-08-16T09:44:29Z</time>
      </trkpt>
      <trkpt lat="47.72598" lon="7.31652">
        <ele>241.1</ele>
        <time>2019-08-16T09:44:30Z</time>
      </trkpt>
      <trkpt lat="47.72595" lon="7.31648">
        <ele>241.1</ele>
        <time>2019-08-16T09:44:31Z</time>
      </trkpt>
      <trkpt lat="47.72592" lon="7.31645">
        <ele>241.1</ele>
        <time>2019-08-16T09:44:32Z</time>
      </trkpt>
      <trkpt lat="47.7259" lon="7.31641">
        <ele>241.1</ele>
        <time>2019-08-16T09:44:33Z</time>
      </trkpt>
      <trkpt lat="47.72587" lon="7.31638">
        <ele>241</ele>
        <time>2019-08-16T09:44:34Z</time>
      </trkpt>
      <trkpt lat="47.72586" lon="7.31633">
        <ele>241</ele>
        <time>2019-08-16T09:44:35Z</time>
      </trkpt>
      <trkpt lat="47.72583" lon="7.31629">
        <ele>240.9</ele>
        <time>2019-08-16T09:44:36Z</time>
      </trkpt>
      <trkpt lat="47.72581" lon="7.31623">
        <ele>240.9</ele>
        <time>2019-08-16T09:44:37Z</time>
      </trkpt>
      <trkpt lat="47.72581" lon="7.31619">
        <ele>240.8</ele>
        <time>2019-08-16T09:44:38Z</time>
      </trkpt>
      <trkpt lat="47.7258" lon="7.31614">
        <ele>240.7</ele>
        <time>2019-08-16T09:44:39Z</time>
      </trkpt>
      <trkpt lat="47.7258" lon="7.31606">
        <ele>240.6</ele>
        <time>2019-08-16T09:44:41Z</time>
      </trkpt>
      <trkpt lat="47.72579" lon="7.316">
        <ele>240.4</ele>
        <time>2019-08-16T09:44:43Z</time>
      </trkpt>
      <trkpt lat="47.72578" lon="7.31593">
        <ele>240.2</ele>
        <time>2019-08-16T09:44:45Z</time>
      </trkpt>
      <trkpt lat="47.72577" lon="7.31588">
        <ele>240.2</ele>
        <time>2019-08-16T09:44:46Z</time>
      </trkpt>
      <trkpt lat="47.72574" lon="7.31585">
        <ele>240.2</ele>
        <time>2019-08-16T09:44:47Z</time>
      </trkpt>
      <trkpt lat="47.72571" lon="7.31584">
        <ele>240.2</ele>
        <time>2019-08-16T09:44:48Z</time>
      </trkpt>
      <trkpt lat="47.72568" lon="7.31584">
        <ele>240.3</ele>
        <time>2019-08-16T09:44:49Z</time>
      </trkpt>
      <trkpt lat="47.72565" lon="7.31584">
        <ele>240.3</ele>
        <time>2019-08-16T09:44:50Z</time>
      </trkpt>
      <trkpt lat="47.72559" lon="7.31585">
        <ele>240.4</ele>
        <time>2019-08-16T09:44:52Z</time>
      </trkpt>
      <trkpt lat="47.72557" lon="7.31583">
        <ele>240.4</ele>
        <time>2019-08-16T09:44:53Z</time>
      </trkpt>
      <trkpt lat="47.72554" lon="7.31582">
        <ele>240.4</ele>
        <time>2019-08-16T09:44:54Z</time>
      </trkpt>
      <trkpt lat="47.72551" lon="7.3158">
        <ele>240.4</ele>
        <time>2019-08-16T09:44:55Z</time>
      </trkpt>
      <trkpt lat="47.72548" lon="7.31577">
        <ele>240.5</ele>
        <time>2019-08-16T09:44:56Z</time>
      </trkpt>
      <trkpt lat="47.72545" lon="7.31572">
        <ele>240.5</ele>
        <time>2019-08-16T09:44:57Z</time>
      </trkpt>
      <trkpt lat="47.72542" lon="7.31565">
        <ele>240.6</ele>
        <time>2019-08-16T09:44:58Z</time>
      </trkpt>
      <trkpt lat="47.72539" lon="7.3156">
        <ele>240.6</ele>
        <time>2019-08-16T09:44:59Z</time>
      </trkpt>
      <trkpt lat="47.72535" lon="7.31555">
        <ele>240.7</ele>
        <time>2019-08-16T09:45:00Z</time>
      </trkpt>
      <trkpt lat="47.72533" lon="7.31551">
        <ele>240.7</ele>
        <time>2019-08-16T09:45:01Z</time>
      </trkpt>
      <trkpt lat="47.72531" lon="7.31546">
        <ele>240.7</ele>
        <time>2019-08-16T09:45:02Z</time>
      </trkpt>
      <trkpt lat="47.72528" lon="7.31541">
        <ele>240.8</ele>
        <time>2019-08-16T09:45:03Z</time>
      </trkpt>
      <trkpt lat="47.72525" lon="7.31537">
        <ele>240.8</ele>
        <time>2019-08-16T09:45:04Z</time>
      </trkpt>
      <trkpt lat="47.72523" lon="7.31531">
        <ele>240.8</ele>
        <time>2019-08-16T09:45:05Z</time>
      </trkpt>
      <trkpt lat="47.7252" lon="7.31527">
        <ele>240.9</ele>
        <time>2019-08-16T09:45:06Z</time>
      </trkpt>
      <trkpt lat="47.72517" lon="7.31522">
        <ele>240.9</ele>
        <time>2019-08-16T09:45:07Z</time>
      </trkpt>
      <trkpt lat="47.72515" lon="7.31516">
        <ele>241</ele>
        <time>2019-08-16T09:45:08Z</time>
      </trkpt>
      <trkpt lat="47.72512" lon="7.31511">
        <ele>241</ele>
        <time>2019-08-16T09:45:09Z</time>
      </trkpt>
      <trkpt lat="47.72508" lon="7.31506">
        <ele>241.1</ele>
        <time>2019-08-16T09:45:10Z</time>
      </trkpt>
      <trkpt lat="47.72505" lon="7.315">
        <ele>241.1</ele>
        <time>2019-08-16T09:45:11Z</time>
      </trkpt>
      <trkpt lat="47.725" lon="7.31497">
        <ele>241.2</ele>
        <time>2019-08-16T09:45:12Z</time>
      </trkpt>
      <trkpt lat="47.72495" lon="7.31492">
        <ele>241.2</ele>
        <time>2019-08-16T09:45:13Z</time>
      </trkpt>
      <trkpt lat="47.72491" lon="7.31487">
        <ele>241.3</ele>
        <time>2019-08-16T09:45:14Z</time>
      </trkpt>
      <trkpt lat="47.72486" lon="7.31481">
        <ele>241.3</ele>
        <time>2019-08-16T09:45:15Z</time>
      </trkpt>
      <trkpt lat="47.72482" lon="7.31476">
        <ele>241.4</ele>
        <time>2019-08-16T09:45:16Z</time>
      </trkpt>
      <trkpt lat="47.72479" lon="7.31471">
        <ele>241.4</ele>
        <time>2019-08-16T09:45:17Z</time>
      </trkpt>
      <trkpt lat="47.72476" lon="7.31466">
        <ele>241.5</ele>
        <time>2019-08-16T09:45:18Z</time>
      </trkpt>
      <trkpt lat="47.72472" lon="7.31461">
        <ele>241.5</ele>
        <time>2019-08-16T09:45:19Z</time>
      </trkpt>
      <trkpt lat="47.72468" lon="7.31455">
        <ele>241.6</ele>
        <time>2019-08-16T09:45:20Z</time>
      </trkpt>
      <trkpt lat="47.72465" lon="7.3145">
        <ele>241.6</ele>
        <time>2019-08-16T09:45:21Z</time>
      </trkpt>
      <trkpt lat="47.72461" lon="7.31445">
        <ele>241.7</ele>
        <time>2019-08-16T09:45:22Z</time>
      </trkpt>
      <trkpt lat="47.72458" lon="7.31441">
        <ele>241.7</ele>
        <time>2019-08-16T09:45:23Z</time>
      </trkpt>
      <trkpt lat="47.72455" lon="7.31436">
        <ele>241.8</ele>
        <time>2019-08-16T09:45:24Z</time>
      </trkpt>
      <trkpt lat="47.72452" lon="7.31432">
        <ele>241.8</ele>
        <time>2019-08-16T09:45:25Z</time>
      </trkpt>
      <trkpt lat="47.72448" lon="7.31428">
        <ele>241.9</ele>
        <time>2019-08-16T09:45:26Z</time>
      </trkpt>
      <trkpt lat="47.72445" lon="7.31424">
        <ele>241.9</ele>
        <time>2019-08-16T09:45:27Z</time>
      </trkpt>
      <trkpt lat="47.72441" lon="7.31419">
        <ele>241.9</ele>
        <time>2019-08-16T09:45:28Z</time>
      </trkpt>
      <trkpt lat="47.72438" lon="7.31415">
        <ele>242</ele>
        <time>2019-08-16T09:45:29Z</time>
      </trkpt>
      <trkpt lat="47.72434" lon="7.31411">
        <ele>242</ele>
        <time>2019-08-16T09:45:30Z</time>
      </trkpt>
      <trkpt lat="47.7243" lon="7.31406">
        <ele>242.1</ele>
        <time>2019-08-16T09:45:31Z</time>
      </trkpt>
      <trkpt lat="47.72426" lon="7.31401">
        <ele>242.1</ele>
        <time>2019-08-16T09:45:32Z</time>
      </trkpt>
      <trkpt lat="47.72422" lon="7.31395">
        <ele>242.2</ele>
        <time>2019-08-16T09:45:33Z</time>
      </trkpt>
      <trkpt lat="47.72418" lon="7.31391">
        <ele>242.2</ele>
        <time>2019-08-16T09:45:34Z</time>
      </trkpt>
      <trkpt lat="47.72415" lon="7.31387">
        <ele>242.3</ele>
        <time>2019-08-16T09:45:35Z</time>
      </trkpt>
      <trkpt lat="47.72413" lon="7.3138">
        <ele>242.3</ele>
        <time>2019-08-16T09:45:36Z</time>
      </trkpt>
      <trkpt lat="47.72411" lon="7.31374">
        <ele>242.4</ele>
        <time>2019-08-16T09:45:37Z</time>
      </trkpt>
      <trkpt lat="47.72409" lon="7.31369">
        <ele>242.4</ele>
        <time>2019-08-16T09:45:38Z</time>
      </trkpt>
      <trkpt lat="47.72408" lon="7.31364">
        <ele>242.4</ele>
        <time>2019-08-16T09:45:39Z</time>
      </trkpt>
      <trkpt lat="47.72407" lon="7.31359">
        <ele>242.5</ele>
        <time>2019-08-16T09:45:40Z</time>
      </trkpt>
      <trkpt lat="47.72405" lon="7.31355">
        <ele>242.5</ele>
        <time>2019-08-16T09:45:41Z</time>
      </trkpt>
      <trkpt lat="47.72403" lon="7.31351">
        <ele>242.5</ele>
        <time>2019-08-16T09:45:42Z</time>
      </trkpt>
      <trkpt lat="47.72401" lon="7.31349">
        <ele>242.6</ele>
        <time>2019-08-16T09:45:43Z</time>
      </trkpt>
      <trkpt lat="47.72398" lon="7.31347">
        <ele>242.5</ele>
        <time>2019-08-16T09:45:44Z</time>
      </trkpt>
      <trkpt lat="47.72395" lon="7.31345">
        <ele>242.4</ele>
        <time>2019-08-16T09:45:45Z</time>
      </trkpt>
      <trkpt lat="47.72391" lon="7.31344">
        <ele>242.3</ele>
        <time>2019-08-16T09:45:46Z</time>
      </trkpt>
      <trkpt lat="47.72385" lon="7.31344">
        <ele>242.3</ele>
        <time>2019-08-16T09:45:47Z</time>
      </trkpt>
      <trkpt lat="47.7238" lon="7.31343">
        <ele>242.3</ele>
        <time>2019-08-16T09:45:48Z</time>
      </trkpt>
      <trkpt lat="47.72376" lon="7.31342">
        <ele>242.3</ele>
        <time>2019-08-16T09:45:49Z</time>
      </trkpt>
      <trkpt lat="47.72372" lon="7.31339">
        <ele>242.3</ele>
        <time>2019-08-16T09:45:50Z</time>
      </trkpt>
      <trkpt lat="47.72368" lon="7.31335">
        <ele>242.3</ele>
        <time>2019-08-16T09:45:51Z</time>
      </trkpt>
      <trkpt lat="47.72365" lon="7.3133">
        <ele>242.2</ele>
        <time>2019-08-16T09:45:52Z</time>
      </trkpt>
      <trkpt lat="47.72362" lon="7.31326">
        <ele>242.2</ele>
        <time>2019-08-16T09:45:53Z</time>
      </trkpt>
      <trkpt lat="47.72358" lon="7.31323">
        <ele>242.2</ele>
        <time>2019-08-16T09:45:54Z</time>
      </trkpt>
      <trkpt lat="47.72354" lon="7.31318">
        <ele>242.2</ele>
        <time>2019-08-16T09:45:55Z</time>
      </trkpt>
      <trkpt lat="47.7235" lon="7.31314">
        <ele>242.2</ele>
        <time>2019-08-16T09:45:56Z</time>
      </trkpt>
      <trkpt lat="47.72346" lon="7.31311">
        <ele>242.3</ele>
        <time>2019-08-16T09:45:57Z</time>
      </trkpt>
      <trkpt lat="47.72342" lon="7.31307">
        <ele>242.3</ele>
        <time>2019-08-16T09:45:58Z</time>
      </trkpt>
      <trkpt lat="47.72338" lon="7.31304">
        <ele>242.3</ele>
        <time>2019-08-16T09:45:59Z</time>
      </trkpt>
      <trkpt lat="47.72334" lon="7.31301">
        <ele>242.3</ele>
        <time>2019-08-16T09:46:00Z</time>
      </trkpt>
      <trkpt lat="47.72331" lon="7.31298">
        <ele>242.3</ele>
        <time>2019-08-16T09:46:01Z</time>
      </trkpt>
      <trkpt lat="47.72327" lon="7.31295">
        <ele>242.4</ele>
        <time>2019-08-16T09:46:02Z</time>
      </trkpt>
      <trkpt lat="47.72323" lon="7.31291">
        <ele>242.4</ele>
        <time>2019-08-16T09:46:03Z</time>
      </trkpt>
      <trkpt lat="47.7232" lon="7.31287">
        <ele>242.4</ele>
        <time>2019-08-16T09:46:04Z</time>
      </trkpt>
      <trkpt lat="47.72316" lon="7.31283">
        <ele>242.5</ele>
        <time>2019-08-16T09:46:05Z</time>
      </trkpt>
      <trkpt lat="47.72312" lon="7.31278">
        <ele>242.6</ele>
        <time>2019-08-16T09:46:06Z</time>
      </trkpt>
      <trkpt lat="47.72308" lon="7.31274">
        <ele>242.6</ele>
        <time>2019-08-16T09:46:07Z</time>
      </trkpt>
      <trkpt lat="47.72304" lon="7.3127">
        <ele>242.7</ele>
        <time>2019-08-16T09:46:08Z</time>
      </trkpt>
      <trkpt lat="47.723" lon="7.31268">
        <ele>242.7</ele>
        <time>2019-08-16T09:46:09Z</time>
      </trkpt>
      <trkpt lat="47.72296" lon="7.31265">
        <ele>242.8</ele>
        <time>2019-08-16T09:46:10Z</time>
      </trkpt>
      <trkpt lat="47.72292" lon="7.31262">
        <ele>242.8</ele>
        <time>2019-08-16T09:46:11Z</time>
      </trkpt>
      <trkpt lat="47.72289" lon="7.31259">
        <ele>242.7</ele>
        <time>2019-08-16T09:46:12Z</time>
      </trkpt>
      <trkpt lat="47.72286" lon="7.31256">
        <ele>242.6</ele>
        <time>2019-08-16T09:46:13Z</time>
      </trkpt>
      <trkpt lat="47.72284" lon="7.31253">
        <ele>242.4</ele>
        <time>2019-08-16T09:46:14Z</time>
      </trkpt>
      <trkpt lat="47.7228" lon="7.31248">
        <ele>242.2</ele>
        <time>2019-08-16T09:46:16Z</time>
      </trkpt>
      <trkpt lat="47.72277" lon="7.31246">
        <ele>242.2</ele>
        <time>2019-08-16T09:46:18Z</time>
      </trkpt>
      <trkpt lat="47.72272" lon="7.31243">
        <ele>242</ele>
        <time>2019-08-16T09:46:20Z</time>
      </trkpt>
      <trkpt lat="47.72267" lon="7.31239">
        <ele>242</ele>
        <time>2019-08-16T09:46:21Z</time>
      </trkpt>
      <trkpt lat="47.72263" lon="7.31235">
        <ele>242</ele>
        <time>2019-08-16T09:46:22Z</time>
      </trkpt>
      <trkpt lat="47.72257" lon="7.3123">
        <ele>242.1</ele>
        <time>2019-08-16T09:46:23Z</time>
      </trkpt>
      <trkpt lat="47.72252" lon="7.31226">
        <ele>242.1</ele>
        <time>2019-08-16T09:46:24Z</time>
      </trkpt>
      <trkpt lat="47.72246" lon="7.31221">
        <ele>242.2</ele>
        <time>2019-08-16T09:46:25Z</time>
      </trkpt>
      <trkpt lat="47.72241" lon="7.31217">
        <ele>242.2</ele>
        <time>2019-08-16T09:46:26Z</time>
      </trkpt>
      <trkpt lat="47.72236" lon="7.31212">
        <ele>242.3</ele>
        <time>2019-08-16T09:46:27Z</time>
      </trkpt>
      <trkpt lat="47.72231" lon="7.31208">
        <ele>242.3</ele>
        <time>2019-08-16T09:46:28Z</time>
      </trkpt>
      <trkpt lat="47.72226" lon="7.31204">
        <ele>242.3</ele>
        <time>2019-08-16T09:46:29Z</time>
      </trkpt>
      <trkpt lat="47.72222" lon="7.312">
        <ele>242.3</ele>
        <time>2019-08-16T09:46:30Z</time>
      </trkpt>
      <trkpt lat="47.72218" lon="7.31196">
        <ele>242.3</ele>
        <time>2019-08-16T09:46:31Z</time>
      </trkpt>
      <trkpt lat="47.72213" lon="7.31193">
        <ele>242.3</ele>
        <time>2019-08-16T09:46:32Z</time>
      </trkpt>
      <trkpt lat="47.72209" lon="7.3119">
        <ele>242.2</ele>
        <time>2019-08-16T09:46:33Z</time>
      </trkpt>
      <trkpt lat="47.72205" lon="7.31187">
        <ele>242.2</ele>
        <time>2019-08-16T09:46:34Z</time>
      </trkpt>
      <trkpt lat="47.72201" lon="7.31184">
        <ele>242.2</ele>
        <time>2019-08-16T09:46:35Z</time>
      </trkpt>
      <trkpt lat="47.72195" lon="7.31182">
        <ele>242.1</ele>
        <time>2019-08-16T09:46:36Z</time>
      </trkpt>
      <trkpt lat="47.72191" lon="7.31179">
        <ele>242.1</ele>
        <time>2019-08-16T09:46:37Z</time>
      </trkpt>
      <trkpt lat="47.72186" lon="7.31176">
        <ele>242.1</ele>
        <time>2019-08-16T09:46:38Z</time>
      </trkpt>
      <trkpt lat="47.72181" lon="7.31174">
        <ele>242.1</ele>
        <time>2019-08-16T09:46:39Z</time>
      </trkpt>
      <trkpt lat="47.72177" lon="7.31171">
        <ele>242</ele>
        <time>2019-08-16T09:46:40Z</time>
      </trkpt>
      <trkpt lat="47.72172" lon="7.31168">
        <ele>242</ele>
        <time>2019-08-16T09:46:41Z</time>
      </trkpt>
      <trkpt lat="47.72167" lon="7.31166">
        <ele>242</ele>
        <time>2019-08-16T09:46:42Z</time>
      </trkpt>
      <trkpt lat="47.72163" lon="7.31164">
        <ele>242</ele>
        <time>2019-08-16T09:46:43Z</time>
      </trkpt>
      <trkpt lat="47.72158" lon="7.31162">
        <ele>242.1</ele>
        <time>2019-08-16T09:46:44Z</time>
      </trkpt>
      <trkpt lat="47.72154" lon="7.31159">
        <ele>242.1</ele>
        <time>2019-08-16T09:46:45Z</time>
      </trkpt>
      <trkpt lat="47.7215" lon="7.31156">
        <ele>242.2</ele>
        <time>2019-08-16T09:46:46Z</time>
      </trkpt>
      <trkpt lat="47.72146" lon="7.31154">
        <ele>242.2</ele>
        <time>2019-08-16T09:46:47Z</time>
      </trkpt>
      <trkpt lat="47.72142" lon="7.31152">
        <ele>242.3</ele>
        <time>2019-08-16T09:46:48Z</time>
      </trkpt>
      <trkpt lat="47.72138" lon="7.31149">
        <ele>242.3</ele>
        <time>2019-08-16T09:46:49Z</time>
      </trkpt>
      <trkpt lat="47.72133" lon="7.31147">
        <ele>242.4</ele>
        <time>2019-08-16T09:46:50Z</time>
      </trkpt>
      <trkpt lat="47.72129" lon="7.31145">
        <ele>242.5</ele>
        <time>2019-08-16T09:46:51Z</time>
      </trkpt>
      <trkpt lat="47.72124" lon="7.31143">
        <ele>242.5</ele>
        <time>2019-08-16T09:46:52Z</time>
      </trkpt>
      <trkpt lat="47.72119" lon="7.31141">
        <ele>242.5</ele>
        <time>2019-08-16T09:46:53Z</time>
      </trkpt>
      <trkpt lat="47.72115" lon="7.31139">
        <ele>242.5</ele>
        <time>2019-08-16T09:46:54Z</time>
      </trkpt>
      <trkpt lat="47.7211" lon="7.31138">
        <ele>242.6</ele>
        <time>2019-08-16T09:46:55Z</time>
      </trkpt>
      <trkpt lat="47.72106" lon="7.31136">
        <ele>242.6</ele>
        <time>2019-08-16T09:46:56Z</time>
      </trkpt>
      <trkpt lat="47.72101" lon="7.31134">
        <ele>242.6</ele>
        <time>2019-08-16T09:46:57Z</time>
      </trkpt>
      <trkpt lat="47.72096" lon="7.31132">
        <ele>242.5</ele>
        <time>2019-08-16T09:46:58Z</time>
      </trkpt>
      <trkpt lat="47.72093" lon="7.3113">
        <ele>242.5</ele>
        <time>2019-08-16T09:46:59Z</time>
      </trkpt>
      <trkpt lat="47.72089" lon="7.31128">
        <ele>242.5</ele>
        <time>2019-08-16T09:47:00Z</time>
      </trkpt>
      <trkpt lat="47.72085" lon="7.31125">
        <ele>242.4</ele>
        <time>2019-08-16T09:47:01Z</time>
      </trkpt>
      <trkpt lat="47.72081" lon="7.31124">
        <ele>242.4</ele>
        <time>2019-08-16T09:47:02Z</time>
      </trkpt>
      <trkpt lat="47.72077" lon="7.31122">
        <ele>242.5</ele>
        <time>2019-08-16T09:47:03Z</time>
      </trkpt>
      <trkpt lat="47.72074" lon="7.31121">
        <ele>242.6</ele>
        <time>2019-08-16T09:47:04Z</time>
      </trkpt>
      <trkpt lat="47.72071" lon="7.31119">
        <ele>242.6</ele>
        <time>2019-08-16T09:47:05Z</time>
      </trkpt>
      <trkpt lat="47.72067" lon="7.31118">
        <ele>242.6</ele>
        <time>2019-08-16T09:47:06Z</time>
      </trkpt>
      <trkpt lat="47.72064" lon="7.31117">
        <ele>242.6</ele>
        <time>2019-08-16T09:47:07Z</time>
      </trkpt>
      <trkpt lat="47.72061" lon="7.31115">
        <ele>242.7</ele>
        <time>2019-08-16T09:47:08Z</time>
      </trkpt>
      <trkpt lat="47.72058" lon="7.31113">
        <ele>242.7</ele>
        <time>2019-08-16T09:47:09Z</time>
      </trkpt>
      <trkpt lat="47.72055" lon="7.31112">
        <ele>242.7</ele>
        <time>2019-08-16T09:47:10Z</time>
      </trkpt>
      <trkpt lat="47.72051" lon="7.3111">
        <ele>242.8</ele>
        <time>2019-08-16T09:47:11Z</time>
      </trkpt>
      <trkpt lat="47.72047" lon="7.31108">
        <ele>242.9</ele>
        <time>2019-08-16T09:47:12Z</time>
      </trkpt>
      <trkpt lat="47.72043" lon="7.31106">
        <ele>242.9</ele>
        <time>2019-08-16T09:47:13Z</time>
      </trkpt>
      <trkpt lat="47.72038" lon="7.31105">
        <ele>243</ele>
        <time>2019-08-16T09:47:14Z</time>
      </trkpt>
      <trkpt lat="47.72032" lon="7.31104">
        <ele>243.1</ele>
        <time>2019-08-16T09:47:15Z</time>
      </trkpt>
      <trkpt lat="47.72028" lon="7.31104">
        <ele>243.1</ele>
        <time>2019-08-16T09:47:16Z</time>
      </trkpt>
      <trkpt lat="47.72022" lon="7.31103">
        <ele>243.2</ele>
        <time>2019-08-16T09:47:17Z</time>
      </trkpt>
      <trkpt lat="47.72017" lon="7.31103">
        <ele>243.2</ele>
        <time>2019-08-16T09:47:18Z</time>
      </trkpt>
      <trkpt lat="47.72013" lon="7.31103">
        <ele>243.2</ele>
        <time>2019-08-16T09:47:19Z</time>
      </trkpt>
      <trkpt lat="47.72009" lon="7.31103">
        <ele>243.2</ele>
        <time>2019-08-16T09:47:20Z</time>
      </trkpt>
      <trkpt lat="47.72005" lon="7.31102">
        <ele>243.2</ele>
        <time>2019-08-16T09:47:21Z</time>
      </trkpt>
      <trkpt lat="47.71999" lon="7.31101">
        <ele>243.2</ele>
        <time>2019-08-16T09:47:22Z</time>
      </trkpt>
      <trkpt lat="47.71995" lon="7.311">
        <ele>243.2</ele>
        <time>2019-08-16T09:47:23Z</time>
      </trkpt>
      <trkpt lat="47.71991" lon="7.31099">
        <ele>243.2</ele>
        <time>2019-08-16T09:47:24Z</time>
      </trkpt>
      <trkpt lat="47.71987" lon="7.31098">
        <ele>243.2</ele>
        <time>2019-08-16T09:47:25Z</time>
      </trkpt>
      <trkpt lat="47.71982" lon="7.31096">
        <ele>243.1</ele>
        <time>2019-08-16T09:47:26Z</time>
      </trkpt>
      <trkpt lat="47.71978" lon="7.31095">
        <ele>243.1</ele>
        <time>2019-08-16T09:47:27Z</time>
      </trkpt>
      <trkpt lat="47.71974" lon="7.31093">
        <ele>243.1</ele>
        <time>2019-08-16T09:47:28Z</time>
      </trkpt>
      <trkpt lat="47.71969" lon="7.31091">
        <ele>243.1</ele>
        <time>2019-08-16T09:47:29Z</time>
      </trkpt>
      <trkpt lat="47.71965" lon="7.3109">
        <ele>243</ele>
        <time>2019-08-16T09:47:30Z</time>
      </trkpt>
      <trkpt lat="47.71961" lon="7.31088">
        <ele>243</ele>
        <time>2019-08-16T09:47:31Z</time>
      </trkpt>
      <trkpt lat="47.71956" lon="7.31087">
        <ele>243</ele>
        <time>2019-08-16T09:47:32Z</time>
      </trkpt>
      <trkpt lat="47.71951" lon="7.31084">
        <ele>243</ele>
        <time>2019-08-16T09:47:33Z</time>
      </trkpt>
      <trkpt lat="47.71947" lon="7.31082">
        <ele>243</ele>
        <time>2019-08-16T09:47:34Z</time>
      </trkpt>
      <trkpt lat="47.71942" lon="7.3108">
        <ele>243.1</ele>
        <time>2019-08-16T09:47:35Z</time>
      </trkpt>
      <trkpt lat="47.71938" lon="7.31078">
        <ele>243.1</ele>
        <time>2019-08-16T09:47:36Z</time>
      </trkpt>
      <trkpt lat="47.71935" lon="7.31074">
        <ele>243.1</ele>
        <time>2019-08-16T09:47:37Z</time>
      </trkpt>
      <trkpt lat="47.71931" lon="7.31071">
        <ele>243.1</ele>
        <time>2019-08-16T09:47:38Z</time>
      </trkpt>
      <trkpt lat="47.71928" lon="7.31065">
        <ele>243.2</ele>
        <time>2019-08-16T09:47:39Z</time>
      </trkpt>
      <trkpt lat="47.71925" lon="7.3106">
        <ele>243.3</ele>
        <time>2019-08-16T09:47:40Z</time>
      </trkpt>
      <trkpt lat="47.71922" lon="7.31055">
        <ele>243.4</ele>
        <time>2019-08-16T09:47:41Z</time>
      </trkpt>
      <trkpt lat="47.71919" lon="7.31051">
        <ele>243.4</ele>
        <time>2019-08-16T09:47:42Z</time>
      </trkpt>
      <trkpt lat="47.71916" lon="7.31046">
        <ele>243.4</ele>
        <time>2019-08-16T09:47:43Z</time>
      </trkpt>
      <trkpt lat="47.71914" lon="7.31043">
        <ele>243.5</ele>
        <time>2019-08-16T09:47:44Z</time>
      </trkpt>
      <trkpt lat="47.71912" lon="7.31037">
        <ele>243.5</ele>
        <time>2019-08-16T09:47:45Z</time>
      </trkpt>
      <trkpt lat="47.71911" lon="7.31033">
        <ele>243.5</ele>
        <time>2019-08-16T09:47:46Z</time>
      </trkpt>
      <trkpt lat="47.71909" lon="7.31028">
        <ele>243.6</ele>
        <time>2019-08-16T09:47:47Z</time>
      </trkpt>
      <trkpt lat="47.71908" lon="7.31023">
        <ele>243.6</ele>
        <time>2019-08-16T09:47:48Z</time>
      </trkpt>
      <trkpt lat="47.71907" lon="7.31018">
        <ele>243.6</ele>
        <time>2019-08-16T09:47:49Z</time>
      </trkpt>
      <trkpt lat="47.71906" lon="7.31014">
        <ele>243.7</ele>
        <time>2019-08-16T09:47:50Z</time>
      </trkpt>
      <trkpt lat="47.71904" lon="7.31009">
        <ele>243.7</ele>
        <time>2019-08-16T09:47:51Z</time>
      </trkpt>
      <trkpt lat="47.71903" lon="7.31005">
        <ele>243.7</ele>
        <time>2019-08-16T09:47:52Z</time>
      </trkpt>
      <trkpt lat="47.71898" lon="7.31001">
        <ele>243.7</ele>
        <time>2019-08-16T09:47:54Z</time>
      </trkpt>
      <trkpt lat="47.71892" lon="7.31004">
        <ele>243.7</ele>
        <time>2019-08-16T09:47:56Z</time>
      </trkpt>
      <trkpt lat="47.71888" lon="7.31003">
        <ele>243.6</ele>
        <time>2019-08-16T09:47:59Z</time>
      </trkpt>
      <trkpt lat="47.71884" lon="7.31001">
        <ele>243.5</ele>
        <time>2019-08-16T09:48:01Z</time>
      </trkpt>
      <trkpt lat="47.7188" lon="7.31">
        <ele>243.4</ele>
        <time>2019-08-16T09:48:02Z</time>
      </trkpt>
      <trkpt lat="47.71876" lon="7.31">
        <ele>243.4</ele>
        <time>2019-08-16T09:48:03Z</time>
      </trkpt>
      <trkpt lat="47.71873" lon="7.30999">
        <ele>243.1</ele>
        <time>2019-08-16T09:48:04Z</time>
      </trkpt>
      <trkpt lat="47.71869" lon="7.31">
        <ele>243.1</ele>
        <time>2019-08-16T09:48:05Z</time>
      </trkpt>
      <trkpt lat="47.71866" lon="7.31001">
        <ele>243.1</ele>
        <time>2019-08-16T09:48:07Z</time>
      </trkpt>
      <trkpt lat="47.7187" lon="7.31002">
        <ele>243</ele>
        <time>2019-08-16T09:48:11Z</time>
      </trkpt>
      <trkpt lat="47.71874" lon="7.31017">
        <ele>242.9</ele>
        <time>2019-08-16T09:48:57Z</time>
      </trkpt>
      <trkpt lat="47.71874" lon="7.31024">
        <ele>242.9</ele>
        <time>2019-08-16T09:48:59Z</time>
      </trkpt>
      <trkpt lat="47.71874" lon="7.31028">
        <ele>242.9</ele>
        <time>2019-08-16T09:49:00Z</time>
      </trkpt>
      <trkpt lat="47.71874" lon="7.31032">
        <ele>242.9</ele>
        <time>2019-08-16T09:49:01Z</time>
      </trkpt>
      <trkpt lat="47.71875" lon="7.31036">
        <ele>242.9</ele>
        <time>2019-08-16T09:49:02Z</time>
      </trkpt>
      <trkpt lat="47.71875" lon="7.31044">
        <ele>242.8</ele>
        <time>2019-08-16T09:49:04Z</time>
      </trkpt>
      <trkpt lat="47.71876" lon="7.31048">
        <ele>242.8</ele>
        <time>2019-08-16T09:49:05Z</time>
      </trkpt>
      <trkpt lat="47.71876" lon="7.31053">
        <ele>242.8</ele>
        <time>2019-08-16T09:49:06Z</time>
      </trkpt>
      <trkpt lat="47.71876" lon="7.31057">
        <ele>242.8</ele>
        <time>2019-08-16T09:49:07Z</time>
      </trkpt>
      <trkpt lat="47.71875" lon="7.31061">
        <ele>242.8</ele>
        <time>2019-08-16T09:49:08Z</time>
      </trkpt>
      <trkpt lat="47.71876" lon="7.31068">
        <ele>242.7</ele>
        <time>2019-08-16T09:49:10Z</time>
      </trkpt>
      <trkpt lat="47.71877" lon="7.31076">
        <ele>242.7</ele>
        <time>2019-08-16T09:49:12Z</time>
      </trkpt>
      <trkpt lat="47.71878" lon="7.31081">
        <ele>242.6</ele>
        <time>2019-08-16T09:49:13Z</time>
      </trkpt>
      <trkpt lat="47.71877" lon="7.31085">
        <ele>242.5</ele>
        <time>2019-08-16T09:49:14Z</time>
      </trkpt>
      <trkpt lat="47.71876" lon="7.31089">
        <ele>242.4</ele>
        <time>2019-08-16T09:49:15Z</time>
      </trkpt>
      <trkpt lat="47.71874" lon="7.31092">
        <ele>242.4</ele>
        <time>2019-08-16T09:49:16Z</time>
      </trkpt>
      <trkpt lat="47.71871" lon="7.31097">
        <ele>242.3</ele>
        <time>2019-08-16T09:49:17Z</time>
      </trkpt>
      <trkpt lat="47.71869" lon="7.311">
        <ele>242.2</ele>
        <time>2019-08-16T09:49:18Z</time>
      </trkpt>
      <trkpt lat="47.71867" lon="7.31103">
        <ele>242.2</ele>
        <time>2019-08-16T09:49:19Z</time>
      </trkpt>
      <trkpt lat="47.71863" lon="7.31109">
        <ele>242.1</ele>
        <time>2019-08-16T09:49:21Z</time>
      </trkpt>
      <trkpt lat="47.7186" lon="7.31112">
        <ele>242</ele>
        <time>2019-08-16T09:49:22Z</time>
      </trkpt>
      <trkpt lat="47.71857" lon="7.31118">
        <ele>241.9</ele>
        <time>2019-08-16T09:49:24Z</time>
      </trkpt>
      <trkpt lat="47.71854" lon="7.31121">
        <ele>241.9</ele>
        <time>2019-08-16T09:49:25Z</time>
      </trkpt>
      <trkpt lat="47.71851" lon="7.31127">
        <ele>241.8</ele>
        <time>2019-08-16T09:49:27Z</time>
      </trkpt>
      <trkpt lat="47.71849" lon="7.3113">
        <ele>241.8</ele>
        <time>2019-08-16T09:49:29Z</time>
      </trkpt>
      <trkpt lat="47.71846" lon="7.31132">
        <ele>241.8</ele>
        <time>2019-08-16T09:49:31Z</time>
      </trkpt>
      <trkpt lat="47.71843" lon="7.31134">
        <ele>241.7</ele>
        <time>2019-08-16T09:49:33Z</time>
      </trkpt>
      <trkpt lat="47.71841" lon="7.31137">
        <ele>241.7</ele>
        <time>2019-08-16T09:49:35Z</time>
      </trkpt>
      <trkpt lat="47.71838" lon="7.31139">
        <ele>241.6</ele>
        <time>2019-08-16T09:49:36Z</time>
      </trkpt>
      <trkpt lat="47.71835" lon="7.31142">
        <ele>241.6</ele>
        <time>2019-08-16T09:49:37Z</time>
      </trkpt>
      <trkpt lat="47.71832" lon="7.31144">
        <ele>241.5</ele>
        <time>2019-08-16T09:49:38Z</time>
      </trkpt>
      <trkpt lat="47.7183" lon="7.31147">
        <ele>241.5</ele>
        <time>2019-08-16T09:49:39Z</time>
      </trkpt>
      <trkpt lat="47.71828" lon="7.31151">
        <ele>241.5</ele>
        <time>2019-08-16T09:49:40Z</time>
      </trkpt>
      <trkpt lat="47.71826" lon="7.31154">
        <ele>241.5</ele>
        <time>2019-08-16T09:49:41Z</time>
      </trkpt>
      <trkpt lat="47.71824" lon="7.31158">
        <ele>241.4</ele>
        <time>2019-08-16T09:49:42Z</time>
      </trkpt>
      <trkpt lat="47.71822" lon="7.31162">
        <ele>241.4</ele>
        <time>2019-08-16T09:49:43Z</time>
      </trkpt>
      <trkpt lat="47.7182" lon="7.31166">
        <ele>241.3</ele>
        <time>2019-08-16T09:49:44Z</time>
      </trkpt>
      <trkpt lat="47.71818" lon="7.3117">
        <ele>241.3</ele>
        <time>2019-08-16T09:49:45Z</time>
      </trkpt>
      <trkpt lat="47.71816" lon="7.31173">
        <ele>241.3</ele>
        <time>2019-08-16T09:49:46Z</time>
      </trkpt>
      <trkpt lat="47.71813" lon="7.31177">
        <ele>241.2</ele>
        <time>2019-08-16T09:49:47Z</time>
      </trkpt>
      <trkpt lat="47.71811" lon="7.3118">
        <ele>241.2</ele>
        <time>2019-08-16T09:49:48Z</time>
      </trkpt>
      <trkpt lat="47.71809" lon="7.31184">
        <ele>241.2</ele>
        <time>2019-08-16T09:49:49Z</time>
      </trkpt>
      <trkpt lat="47.71808" lon="7.31187">
        <ele>241.1</ele>
        <time>2019-08-16T09:49:50Z</time>
      </trkpt>
      <trkpt lat="47.71805" lon="7.31195">
        <ele>240.9</ele>
        <time>2019-08-16T09:49:52Z</time>
      </trkpt>
      <trkpt lat="47.71804" lon="7.312">
        <ele>240.9</ele>
        <time>2019-08-16T09:49:53Z</time>
      </trkpt>
      <trkpt lat="47.71803" lon="7.31206">
        <ele>241</ele>
        <time>2019-08-16T09:49:54Z</time>
      </trkpt>
      <trkpt lat="47.71803" lon="7.31211">
        <ele>241.1</ele>
        <time>2019-08-16T09:49:55Z</time>
      </trkpt>
      <trkpt lat="47.71802" lon="7.31216">
        <ele>241.2</ele>
        <time>2019-08-16T09:49:56Z</time>
      </trkpt>
      <trkpt lat="47.718" lon="7.31222">
        <ele>241.3</ele>
        <time>2019-08-16T09:49:57Z</time>
      </trkpt>
      <trkpt lat="47.718" lon="7.31228">
        <ele>241.4</ele>
        <time>2019-08-16T09:49:58Z</time>
      </trkpt>
      <trkpt lat="47.71799" lon="7.31233">
        <ele>241.4</ele>
        <time>2019-08-16T09:49:59Z</time>
      </trkpt>
      <trkpt lat="47.71797" lon="7.31237">
        <ele>241.5</ele>
        <time>2019-08-16T09:50:00Z</time>
      </trkpt>
      <trkpt lat="47.71796" lon="7.31243">
        <ele>241.6</ele>
        <time>2019-08-16T09:50:01Z</time>
      </trkpt>
      <trkpt lat="47.71795" lon="7.31248">
        <ele>241.6</ele>
        <time>2019-08-16T09:50:02Z</time>
      </trkpt>
      <trkpt lat="47.71794" lon="7.31254">
        <ele>241.7</ele>
        <time>2019-08-16T09:50:03Z</time>
      </trkpt>
      <trkpt lat="47.71793" lon="7.3126">
        <ele>241.8</ele>
        <time>2019-08-16T09:50:04Z</time>
      </trkpt>
      <trkpt lat="47.71792" lon="7.31266">
        <ele>241.8</ele>
        <time>2019-08-16T09:50:05Z</time>
      </trkpt>
      <trkpt lat="47.71792" lon="7.31273">
        <ele>241.9</ele>
        <time>2019-08-16T09:50:06Z</time>
      </trkpt>
      <trkpt lat="47.71791" lon="7.31279">
        <ele>241.9</ele>
        <time>2019-08-16T09:50:07Z</time>
      </trkpt>
      <trkpt lat="47.71791" lon="7.31284">
        <ele>242</ele>
        <time>2019-08-16T09:50:08Z</time>
      </trkpt>
      <trkpt lat="47.7179" lon="7.3129">
        <ele>242</ele>
        <time>2019-08-16T09:50:09Z</time>
      </trkpt>
      <trkpt lat="47.71789" lon="7.31296">
        <ele>242.1</ele>
        <time>2019-08-16T09:50:10Z</time>
      </trkpt>
      <trkpt lat="47.71789" lon="7.31301">
        <ele>242.1</ele>
        <time>2019-08-16T09:50:11Z</time>
      </trkpt>
      <trkpt lat="47.71788" lon="7.31306">
        <ele>242.1</ele>
        <time>2019-08-16T09:50:12Z</time>
      </trkpt>
      <trkpt lat="47.71787" lon="7.31311">
        <ele>242.2</ele>
        <time>2019-08-16T09:50:13Z</time>
      </trkpt>
      <trkpt lat="47.71786" lon="7.31315">
        <ele>242.2</ele>
        <time>2019-08-16T09:50:14Z</time>
      </trkpt>
      <trkpt lat="47.71785" lon="7.31319">
        <ele>242.2</ele>
        <time>2019-08-16T09:50:15Z</time>
      </trkpt>
      <trkpt lat="47.71782" lon="7.31323">
        <ele>242.3</ele>
        <time>2019-08-16T09:50:17Z</time>
      </trkpt>
      <trkpt lat="47.71779" lon="7.31322">
        <ele>242.3</ele>
        <time>2019-08-16T09:50:19Z</time>
      </trkpt>
      <trkpt lat="47.71777" lon="7.3132">
        <ele>242.4</ele>
        <time>2019-08-16T09:50:22Z</time>
      </trkpt>
      <trkpt lat="47.71773" lon="7.3132">
        <ele>242.4</ele>
        <time>2019-08-16T09:50:25Z</time>
      </trkpt>
      <trkpt lat="47.71769" lon="7.31318">
        <ele>242.4</ele>
        <time>2019-08-16T09:50:27Z</time>
      </trkpt>
      <trkpt lat="47.71765" lon="7.31316">
        <ele>242.5</ele>
        <time>2019-08-16T09:50:29Z</time>
      </trkpt>
      <trkpt lat="47.71758" lon="7.31314">
        <ele>242.5</ele>
        <time>2019-08-16T09:50:31Z</time>
      </trkpt>
      <trkpt lat="47.71754" lon="7.31312">
        <ele>242.5</ele>
        <time>2019-08-16T09:50:32Z</time>
      </trkpt>
      <trkpt lat="47.71749" lon="7.3131">
        <ele>242.5</ele>
        <time>2019-08-16T09:50:33Z</time>
      </trkpt>
      <trkpt lat="47.71744" lon="7.31307">
        <ele>242.5</ele>
        <time>2019-08-16T09:50:34Z</time>
      </trkpt>
      <trkpt lat="47.71738" lon="7.31305">
        <ele>242.6</ele>
        <time>2019-08-16T09:50:35Z</time>
      </trkpt>
      <trkpt lat="47.71734" lon="7.31304">
        <ele>242.6</ele>
        <time>2019-08-16T09:50:36Z</time>
      </trkpt>
      <trkpt lat="47.71729" lon="7.31303">
        <ele>242.6</ele>
        <time>2019-08-16T09:50:37Z</time>
      </trkpt>
      <trkpt lat="47.71725" lon="7.31302">
        <ele>242.7</ele>
        <time>2019-08-16T09:50:38Z</time>
      </trkpt>
      <trkpt lat="47.71721" lon="7.31301">
        <ele>242.7</ele>
        <time>2019-08-16T09:50:39Z</time>
      </trkpt>
      <trkpt lat="47.71718" lon="7.313">
        <ele>242.8</ele>
        <time>2019-08-16T09:50:40Z</time>
      </trkpt>
      <trkpt lat="47.71714" lon="7.31298">
        <ele>242.9</ele>
        <time>2019-08-16T09:50:41Z</time>
      </trkpt>
      <trkpt lat="47.71709" lon="7.31296">
        <ele>243</ele>
        <time>2019-08-16T09:50:42Z</time>
      </trkpt>
      <trkpt lat="47.71704" lon="7.31294">
        <ele>243.1</ele>
        <time>2019-08-16T09:50:43Z</time>
      </trkpt>
      <trkpt lat="47.71699" lon="7.31293">
        <ele>243.2</ele>
        <time>2019-08-16T09:50:44Z</time>
      </trkpt>
      <trkpt lat="47.71695" lon="7.31292">
        <ele>243.3</ele>
        <time>2019-08-16T09:50:45Z</time>
      </trkpt>
      <trkpt lat="47.71691" lon="7.31291">
        <ele>243.4</ele>
        <time>2019-08-16T09:50:46Z</time>
      </trkpt>
      <trkpt lat="47.71687" lon="7.31291">
        <ele>243.4</ele>
        <time>2019-08-16T09:50:47Z</time>
      </trkpt>
      <trkpt lat="47.71684" lon="7.3129">
        <ele>243.4</ele>
        <time>2019-08-16T09:50:48Z</time>
      </trkpt>
      <trkpt lat="47.7168" lon="7.3129">
        <ele>243.5</ele>
        <time>2019-08-16T09:50:49Z</time>
      </trkpt>
      <trkpt lat="47.71676" lon="7.31289">
        <ele>243.5</ele>
        <time>2019-08-16T09:50:50Z</time>
      </trkpt>
      <trkpt lat="47.71671" lon="7.31289">
        <ele>243.5</ele>
        <time>2019-08-16T09:50:51Z</time>
      </trkpt>
      <trkpt lat="47.71667" lon="7.31288">
        <ele>243.5</ele>
        <time>2019-08-16T09:50:52Z</time>
      </trkpt>
      <trkpt lat="47.71662" lon="7.31287">
        <ele>243.5</ele>
        <time>2019-08-16T09:50:53Z</time>
      </trkpt>
      <trkpt lat="47.71658" lon="7.31287">
        <ele>243.4</ele>
        <time>2019-08-16T09:50:54Z</time>
      </trkpt>
      <trkpt lat="47.71654" lon="7.31286">
        <ele>243.4</ele>
        <time>2019-08-16T09:50:55Z</time>
      </trkpt>
      <trkpt lat="47.7165" lon="7.31285">
        <ele>243.4</ele>
        <time>2019-08-16T09:50:56Z</time>
      </trkpt>
      <trkpt lat="47.71645" lon="7.31284">
        <ele>243.3</ele>
        <time>2019-08-16T09:50:57Z</time>
      </trkpt>
      <trkpt lat="47.71641" lon="7.31282">
        <ele>243.2</ele>
        <time>2019-08-16T09:50:58Z</time>
      </trkpt>
      <trkpt lat="47.71638" lon="7.3128">
        <ele>243.1</ele>
        <time>2019-08-16T09:50:59Z</time>
      </trkpt>
      <trkpt lat="47.71634" lon="7.31279">
        <ele>243.1</ele>
        <time>2019-08-16T09:51:00Z</time>
      </trkpt>
      <trkpt lat="47.71631" lon="7.31279">
        <ele>243</ele>
        <time>2019-08-16T09:51:01Z</time>
      </trkpt>
      <trkpt lat="47.71627" lon="7.31278">
        <ele>242.9</ele>
        <time>2019-08-16T09:51:02Z</time>
      </trkpt>
      <trkpt lat="47.71623" lon="7.31278">
        <ele>242.8</ele>
        <time>2019-08-16T09:51:03Z</time>
      </trkpt>
      <trkpt lat="47.71619" lon="7.31278">
        <ele>242.7</ele>
        <time>2019-08-16T09:51:04Z</time>
      </trkpt>
      <trkpt lat="47.71615" lon="7.31278">
        <ele>242.7</ele>
        <time>2019-08-16T09:51:05Z</time>
      </trkpt>
      <trkpt lat="47.71611" lon="7.31277">
        <ele>242.7</ele>
        <time>2019-08-16T09:51:06Z</time>
      </trkpt>
      <trkpt lat="47.71608" lon="7.31277">
        <ele>242.7</ele>
        <time>2019-08-16T09:51:07Z</time>
      </trkpt>
      <trkpt lat="47.71604" lon="7.31276">
        <ele>242.7</ele>
        <time>2019-08-16T09:51:08Z</time>
      </trkpt>
      <trkpt lat="47.716" lon="7.31275">
        <ele>242.7</ele>
        <time>2019-08-16T09:51:09Z</time>
      </trkpt>
      <trkpt lat="47.71596" lon="7.31274">
        <ele>242.8</ele>
        <time>2019-08-16T09:51:10Z</time>
      </trkpt>
      <trkpt lat="47.71591" lon="7.31274">
        <ele>242.9</ele>
        <time>2019-08-16T09:51:11Z</time>
      </trkpt>
      <trkpt lat="47.71586" lon="7.31273">
        <ele>243</ele>
        <time>2019-08-16T09:51:12Z</time>
      </trkpt>
      <trkpt lat="47.71581" lon="7.31272">
        <ele>243.1</ele>
        <time>2019-08-16T09:51:13Z</time>
      </trkpt>
      <trkpt lat="47.71576" lon="7.31271">
        <ele>243.2</ele>
        <time>2019-08-16T09:51:14Z</time>
      </trkpt>
      <trkpt lat="47.71571" lon="7.3127">
        <ele>243.3</ele>
        <time>2019-08-16T09:51:15Z</time>
      </trkpt>
      <trkpt lat="47.71567" lon="7.31269">
        <ele>243.4</ele>
        <time>2019-08-16T09:51:16Z</time>
      </trkpt>
      <trkpt lat="47.71563" lon="7.31268">
        <ele>243.4</ele>
        <time>2019-08-16T09:51:17Z</time>
      </trkpt>
      <trkpt lat="47.71558" lon="7.31268">
        <ele>243.4</ele>
        <time>2019-08-16T09:51:18Z</time>
      </trkpt>
      <trkpt lat="47.71553" lon="7.31267">
        <ele>243.4</ele>
        <time>2019-08-16T09:51:19Z</time>
      </trkpt>
      <trkpt lat="47.71549" lon="7.31265">
        <ele>243.4</ele>
        <time>2019-08-16T09:51:20Z</time>
      </trkpt>
      <trkpt lat="47.71544" lon="7.31264">
        <ele>243.4</ele>
        <time>2019-08-16T09:51:21Z</time>
      </trkpt>
      <trkpt lat="47.7154" lon="7.31263">
        <ele>243.3</ele>
        <time>2019-08-16T09:51:22Z</time>
      </trkpt>
      <trkpt lat="47.71536" lon="7.31261">
        <ele>243.2</ele>
        <time>2019-08-16T09:51:23Z</time>
      </trkpt>
      <trkpt lat="47.71532" lon="7.31259">
        <ele>243.1</ele>
        <time>2019-08-16T09:51:24Z</time>
      </trkpt>
      <trkpt lat="47.71529" lon="7.31258">
        <ele>243.1</ele>
        <time>2019-08-16T09:51:25Z</time>
      </trkpt>
      <trkpt lat="47.71524" lon="7.31257">
        <ele>243</ele>
        <time>2019-08-16T09:51:26Z</time>
      </trkpt>
      <trkpt lat="47.7152" lon="7.31256">
        <ele>242.8</ele>
        <time>2019-08-16T09:51:27Z</time>
      </trkpt>
      <trkpt lat="47.71515" lon="7.31254">
        <ele>242.7</ele>
        <time>2019-08-16T09:51:28Z</time>
      </trkpt>
      <trkpt lat="47.7151" lon="7.31252">
        <ele>242.6</ele>
        <time>2019-08-16T09:51:29Z</time>
      </trkpt>
      <trkpt lat="47.71506" lon="7.3125">
        <ele>242.6</ele>
        <time>2019-08-16T09:51:30Z</time>
      </trkpt>
      <trkpt lat="47.71501" lon="7.31248">
        <ele>242.5</ele>
        <time>2019-08-16T09:51:31Z</time>
      </trkpt>
      <trkpt lat="47.71496" lon="7.31246">
        <ele>242.5</ele>
        <time>2019-08-16T09:51:32Z</time>
      </trkpt>
      <trkpt lat="47.71492" lon="7.31244">
        <ele>242.5</ele>
        <time>2019-08-16T09:51:33Z</time>
      </trkpt>
      <trkpt lat="47.71488" lon="7.31243">
        <ele>242.5</ele>
        <time>2019-08-16T09:51:34Z</time>
      </trkpt>
      <trkpt lat="47.71483" lon="7.31242">
        <ele>242.5</ele>
        <time>2019-08-16T09:51:35Z</time>
      </trkpt>
      <trkpt lat="47.71479" lon="7.3124">
        <ele>242.5</ele>
        <time>2019-08-16T09:51:36Z</time>
      </trkpt>
      <trkpt lat="47.71474" lon="7.3124">
        <ele>242.5</ele>
        <time>2019-08-16T09:51:37Z</time>
      </trkpt>
      <trkpt lat="47.71469" lon="7.31238">
        <ele>242.5</ele>
        <time>2019-08-16T09:51:38Z</time>
      </trkpt>
      <trkpt lat="47.71464" lon="7.31237">
        <ele>242.5</ele>
        <time>2019-08-16T09:51:39Z</time>
      </trkpt>
      <trkpt lat="47.71459" lon="7.31236">
        <ele>242.5</ele>
        <time>2019-08-16T09:51:40Z</time>
      </trkpt>
      <trkpt lat="47.71455" lon="7.31235">
        <ele>242.5</ele>
        <time>2019-08-16T09:51:41Z</time>
      </trkpt>
      <trkpt lat="47.7145" lon="7.31235">
        <ele>242.5</ele>
        <time>2019-08-16T09:51:42Z</time>
      </trkpt>
      <trkpt lat="47.71445" lon="7.31233">
        <ele>242.5</ele>
        <time>2019-08-16T09:51:43Z</time>
      </trkpt>
      <trkpt lat="47.71441" lon="7.31232">
        <ele>242.5</ele>
        <time>2019-08-16T09:51:44Z</time>
      </trkpt>
      <trkpt lat="47.71437" lon="7.31231">
        <ele>242.5</ele>
        <time>2019-08-16T09:51:45Z</time>
      </trkpt>
      <trkpt lat="47.71433" lon="7.3123">
        <ele>242.5</ele>
        <time>2019-08-16T09:51:46Z</time>
      </trkpt>
      <trkpt lat="47.71428" lon="7.31229">
        <ele>242.5</ele>
        <time>2019-08-16T09:51:47Z</time>
      </trkpt>
      <trkpt lat="47.71424" lon="7.31227">
        <ele>242.5</ele>
        <time>2019-08-16T09:51:48Z</time>
      </trkpt>
      <trkpt lat="47.71419" lon="7.31227">
        <ele>242.5</ele>
        <time>2019-08-16T09:51:49Z</time>
      </trkpt>
      <trkpt lat="47.71414" lon="7.31226">
        <ele>242.5</ele>
        <time>2019-08-16T09:51:50Z</time>
      </trkpt>
      <trkpt lat="47.7141" lon="7.31225">
        <ele>242.5</ele>
        <time>2019-08-16T09:51:51Z</time>
      </trkpt>
      <trkpt lat="47.71405" lon="7.31223">
        <ele>242.5</ele>
        <time>2019-08-16T09:51:52Z</time>
      </trkpt>
      <trkpt lat="47.71401" lon="7.31222">
        <ele>242.5</ele>
        <time>2019-08-16T09:51:53Z</time>
      </trkpt>
      <trkpt lat="47.71397" lon="7.31221">
        <ele>242.5</ele>
        <time>2019-08-16T09:51:54Z</time>
      </trkpt>
      <trkpt lat="47.71393" lon="7.3122">
        <ele>242.5</ele>
        <time>2019-08-16T09:51:55Z</time>
      </trkpt>
      <trkpt lat="47.71388" lon="7.31218">
        <ele>242.5</ele>
        <time>2019-08-16T09:51:56Z</time>
      </trkpt>
      <trkpt lat="47.71383" lon="7.31216">
        <ele>242.5</ele>
        <time>2019-08-16T09:51:57Z</time>
      </trkpt>
      <trkpt lat="47.71379" lon="7.31214">
        <ele>242.5</ele>
        <time>2019-08-16T09:51:58Z</time>
      </trkpt>
      <trkpt lat="47.71375" lon="7.31213">
        <ele>242.5</ele>
        <time>2019-08-16T09:51:59Z</time>
      </trkpt>
      <trkpt lat="47.71371" lon="7.31211">
        <ele>242.5</ele>
        <time>2019-08-16T09:52:00Z</time>
      </trkpt>
      <trkpt lat="47.71366" lon="7.31209">
        <ele>242.5</ele>
        <time>2019-08-16T09:52:01Z</time>
      </trkpt>
      <trkpt lat="47.71362" lon="7.31208">
        <ele>242.5</ele>
        <time>2019-08-16T09:52:02Z</time>
      </trkpt>
      <trkpt lat="47.71358" lon="7.31206">
        <ele>242.5</ele>
        <time>2019-08-16T09:52:03Z</time>
      </trkpt>
      <trkpt lat="47.71354" lon="7.31205">
        <ele>242.5</ele>
        <time>2019-08-16T09:52:04Z</time>
      </trkpt>
      <trkpt lat="47.71349" lon="7.31204">
        <ele>242.5</ele>
        <time>2019-08-16T09:52:05Z</time>
      </trkpt>
      <trkpt lat="47.71345" lon="7.31203">
        <ele>242.5</ele>
        <time>2019-08-16T09:52:06Z</time>
      </trkpt>
      <trkpt lat="47.71341" lon="7.31202">
        <ele>242.5</ele>
        <time>2019-08-16T09:52:07Z</time>
      </trkpt>
      <trkpt lat="47.71337" lon="7.31201">
        <ele>242.5</ele>
        <time>2019-08-16T09:52:08Z</time>
      </trkpt>
      <trkpt lat="47.71333" lon="7.31199">
        <ele>242.5</ele>
        <time>2019-08-16T09:52:09Z</time>
      </trkpt>
      <trkpt lat="47.71329" lon="7.31197">
        <ele>242.5</ele>
        <time>2019-08-16T09:52:10Z</time>
      </trkpt>
      <trkpt lat="47.71325" lon="7.31196">
        <ele>242.5</ele>
        <time>2019-08-16T09:52:11Z</time>
      </trkpt>
      <trkpt lat="47.71321" lon="7.31194">
        <ele>242.5</ele>
        <time>2019-08-16T09:52:12Z</time>
      </trkpt>
      <trkpt lat="47.71317" lon="7.31192">
        <ele>242.5</ele>
        <time>2019-08-16T09:52:13Z</time>
      </trkpt>
      <trkpt lat="47.71313" lon="7.3119">
        <ele>242.5</ele>
        <time>2019-08-16T09:52:14Z</time>
      </trkpt>
      <trkpt lat="47.71308" lon="7.31188">
        <ele>242.5</ele>
        <time>2019-08-16T09:52:15Z</time>
      </trkpt>
      <trkpt lat="47.71304" lon="7.31187">
        <ele>242.5</ele>
        <time>2019-08-16T09:52:16Z</time>
      </trkpt>
      <trkpt lat="47.713" lon="7.31186">
        <ele>242.5</ele>
        <time>2019-08-16T09:52:17Z</time>
      </trkpt>
      <trkpt lat="47.71296" lon="7.31185">
        <ele>242.5</ele>
        <time>2019-08-16T09:52:18Z</time>
      </trkpt>
      <trkpt lat="47.71291" lon="7.31185">
        <ele>242.5</ele>
        <time>2019-08-16T09:52:19Z</time>
      </trkpt>
      <trkpt lat="47.71287" lon="7.31184">
        <ele>242.5</ele>
        <time>2019-08-16T09:52:20Z</time>
      </trkpt>
      <trkpt lat="47.71283" lon="7.31183">
        <ele>242.5</ele>
        <time>2019-08-16T09:52:21Z</time>
      </trkpt>
      <trkpt lat="47.71279" lon="7.31181">
        <ele>242.5</ele>
        <time>2019-08-16T09:52:22Z</time>
      </trkpt>
      <trkpt lat="47.71274" lon="7.31179">
        <ele>242.5</ele>
        <time>2019-08-16T09:52:23Z</time>
      </trkpt>
      <trkpt lat="47.71269" lon="7.31178">
        <ele>242.6</ele>
        <time>2019-08-16T09:52:24Z</time>
      </trkpt>
      <trkpt lat="47.71264" lon="7.31176">
        <ele>242.7</ele>
        <time>2019-08-16T09:52:25Z</time>
      </trkpt>
      <trkpt lat="47.71259" lon="7.31174">
        <ele>242.8</ele>
        <time>2019-08-16T09:52:26Z</time>
      </trkpt>
      <trkpt lat="47.71254" lon="7.31172">
        <ele>242.9</ele>
        <time>2019-08-16T09:52:27Z</time>
      </trkpt>
      <trkpt lat="47.71249" lon="7.31171">
        <ele>243</ele>
        <time>2019-08-16T09:52:28Z</time>
      </trkpt>
      <trkpt lat="47.71244" lon="7.3117">
        <ele>243.1</ele>
        <time>2019-08-16T09:52:29Z</time>
      </trkpt>
      <trkpt lat="47.71239" lon="7.31169">
        <ele>243.2</ele>
        <time>2019-08-16T09:52:30Z</time>
      </trkpt>
      <trkpt lat="47.71234" lon="7.31168">
        <ele>243.3</ele>
        <time>2019-08-16T09:52:31Z</time>
      </trkpt>
      <trkpt lat="47.7123" lon="7.31168">
        <ele>243.4</ele>
        <time>2019-08-16T09:52:32Z</time>
      </trkpt>
      <trkpt lat="47.71225" lon="7.31167">
        <ele>243.4</ele>
        <time>2019-08-16T09:52:33Z</time>
      </trkpt>
      <trkpt lat="47.7122" lon="7.31167">
        <ele>243.4</ele>
        <time>2019-08-16T09:52:34Z</time>
      </trkpt>
      <trkpt lat="47.71216" lon="7.31166">
        <ele>243.4</ele>
        <time>2019-08-16T09:52:35Z</time>
      </trkpt>
      <trkpt lat="47.71211" lon="7.31165">
        <ele>243.5</ele>
        <time>2019-08-16T09:52:36Z</time>
      </trkpt>
      <trkpt lat="47.71206" lon="7.31164">
        <ele>243.5</ele>
        <time>2019-08-16T09:52:37Z</time>
      </trkpt>
      <trkpt lat="47.71202" lon="7.31163">
        <ele>243.5</ele>
        <time>2019-08-16T09:52:38Z</time>
      </trkpt>
      <trkpt lat="47.71198" lon="7.31162">
        <ele>243.5</ele>
        <time>2019-08-16T09:52:39Z</time>
      </trkpt>
      <trkpt lat="47.71194" lon="7.31161">
        <ele>243.5</ele>
        <time>2019-08-16T09:52:40Z</time>
      </trkpt>
      <trkpt lat="47.7119" lon="7.3116">
        <ele>243.5</ele>
        <time>2019-08-16T09:52:41Z</time>
      </trkpt>
      <trkpt lat="47.71186" lon="7.31159">
        <ele>243.5</ele>
        <time>2019-08-16T09:52:42Z</time>
      </trkpt>
      <trkpt lat="47.71182" lon="7.31157">
        <ele>243.5</ele>
        <time>2019-08-16T09:52:43Z</time>
      </trkpt>
      <trkpt lat="47.71179" lon="7.31157">
        <ele>243.5</ele>
        <time>2019-08-16T09:52:44Z</time>
      </trkpt>
      <trkpt lat="47.71175" lon="7.31156">
        <ele>243.5</ele>
        <time>2019-08-16T09:52:45Z</time>
      </trkpt>
      <trkpt lat="47.7117" lon="7.31155">
        <ele>243.5</ele>
        <time>2019-08-16T09:52:46Z</time>
      </trkpt>
      <trkpt lat="47.71166" lon="7.31153">
        <ele>243.5</ele>
        <time>2019-08-16T09:52:47Z</time>
      </trkpt>
      <trkpt lat="47.71162" lon="7.31152">
        <ele>243.5</ele>
        <time>2019-08-16T09:52:48Z</time>
      </trkpt>
      <trkpt lat="47.71157" lon="7.31151">
        <ele>243.5</ele>
        <time>2019-08-16T09:52:49Z</time>
      </trkpt>
      <trkpt lat="47.71153" lon="7.3115">
        <ele>243.5</ele>
        <time>2019-08-16T09:52:50Z</time>
      </trkpt>
      <trkpt lat="47.71148" lon="7.31147">
        <ele>243.5</ele>
        <time>2019-08-16T09:52:51Z</time>
      </trkpt>
      <trkpt lat="47.71144" lon="7.31144">
        <ele>243.5</ele>
        <time>2019-08-16T09:52:52Z</time>
      </trkpt>
      <trkpt lat="47.7114" lon="7.31142">
        <ele>243.5</ele>
        <time>2019-08-16T09:52:53Z</time>
      </trkpt>
      <trkpt lat="47.71136" lon="7.3114">
        <ele>243.5</ele>
        <time>2019-08-16T09:52:54Z</time>
      </trkpt>
      <trkpt lat="47.71132" lon="7.31139">
        <ele>243.5</ele>
        <time>2019-08-16T09:52:55Z</time>
      </trkpt>
      <trkpt lat="47.71128" lon="7.31138">
        <ele>243.5</ele>
        <time>2019-08-16T09:52:56Z</time>
      </trkpt>
      <trkpt lat="47.71124" lon="7.31137">
        <ele>243.5</ele>
        <time>2019-08-16T09:52:57Z</time>
      </trkpt>
      <trkpt lat="47.71119" lon="7.31137">
        <ele>243.5</ele>
        <time>2019-08-16T09:52:58Z</time>
      </trkpt>
      <trkpt lat="47.71115" lon="7.31136">
        <ele>243.5</ele>
        <time>2019-08-16T09:52:59Z</time>
      </trkpt>
      <trkpt lat="47.71112" lon="7.31136">
        <ele>243.6</ele>
        <time>2019-08-16T09:53:00Z</time>
      </trkpt>
      <trkpt lat="47.71107" lon="7.31135">
        <ele>243.6</ele>
        <time>2019-08-16T09:53:01Z</time>
      </trkpt>
      <trkpt lat="47.71103" lon="7.31134">
        <ele>243.7</ele>
        <time>2019-08-16T09:53:02Z</time>
      </trkpt>
      <trkpt lat="47.71099" lon="7.31133">
        <ele>243.9</ele>
        <time>2019-08-16T09:53:03Z</time>
      </trkpt>
      <trkpt lat="47.71095" lon="7.31132">
        <ele>244</ele>
        <time>2019-08-16T09:53:04Z</time>
      </trkpt>
      <trkpt lat="47.71092" lon="7.31131">
        <ele>244.2</ele>
        <time>2019-08-16T09:53:05Z</time>
      </trkpt>
      <trkpt lat="47.71089" lon="7.3113">
        <ele>244.4</ele>
        <time>2019-08-16T09:53:06Z</time>
      </trkpt>
      <trkpt lat="47.71085" lon="7.3113">
        <ele>244.5</ele>
        <time>2019-08-16T09:53:07Z</time>
      </trkpt>
      <trkpt lat="47.7108" lon="7.31129">
        <ele>244.8</ele>
        <time>2019-08-16T09:53:09Z</time>
      </trkpt>
      <trkpt lat="47.71077" lon="7.31128">
        <ele>244.9</ele>
        <time>2019-08-16T09:53:10Z</time>
      </trkpt>
      <trkpt lat="47.71072" lon="7.31125">
        <ele>245.1</ele>
        <time>2019-08-16T09:53:12Z</time>
      </trkpt>
      <trkpt lat="47.71068" lon="7.31124">
        <ele>245.3</ele>
        <time>2019-08-16T09:53:14Z</time>
      </trkpt>
      <trkpt lat="47.71067" lon="7.31128">
        <ele>245.5</ele>
        <time>2019-08-16T09:53:16Z</time>
      </trkpt>
      <trkpt lat="47.71065" lon="7.31133">
        <ele>245.6</ele>
        <time>2019-08-16T09:53:18Z</time>
      </trkpt>
      <trkpt lat="47.71063" lon="7.31141">
        <ele>245.7</ele>
        <time>2019-08-16T09:53:20Z</time>
      </trkpt>
      <trkpt lat="47.71062" lon="7.31145">
        <ele>245.7</ele>
        <time>2019-08-16T09:53:21Z</time>
      </trkpt>
      <trkpt lat="47.71059" lon="7.31151">
        <ele>245.9</ele>
        <time>2019-08-16T09:53:23Z</time>
      </trkpt>
      <trkpt lat="47.71058" lon="7.31155">
        <ele>245.9</ele>
        <time>2019-08-16T09:53:24Z</time>
      </trkpt>
      <trkpt lat="47.71057" lon="7.31158">
        <ele>245.9</ele>
        <time>2019-08-16T09:53:25Z</time>
      </trkpt>
      <trkpt lat="47.71053" lon="7.3116">
        <ele>246</ele>
        <time>2019-08-16T09:53:27Z</time>
      </trkpt>
      <trkpt lat="47.71049" lon="7.31156">
        <ele>246</ele>
        <time>2019-08-16T09:53:29Z</time>
      </trkpt>
      <trkpt lat="47.71046" lon="7.31154">
        <ele>246</ele>
        <time>2019-08-16T09:53:30Z</time>
      </trkpt>
      <trkpt lat="47.71042" lon="7.31152">
        <ele>246.1</ele>
        <time>2019-08-16T09:53:31Z</time>
      </trkpt>
      <trkpt lat="47.71038" lon="7.31151">
        <ele>246.1</ele>
        <time>2019-08-16T09:53:32Z</time>
      </trkpt>
      <trkpt lat="47.71034" lon="7.31149">
        <ele>246.1</ele>
        <time>2019-08-16T09:53:33Z</time>
      </trkpt>
      <trkpt lat="47.71031" lon="7.31147">
        <ele>246.1</ele>
        <time>2019-08-16T09:53:34Z</time>
      </trkpt>
      <trkpt lat="47.71027" lon="7.31146">
        <ele>246.1</ele>
        <time>2019-08-16T09:53:35Z</time>
      </trkpt>
      <trkpt lat="47.71024" lon="7.31146">
        <ele>246.1</ele>
        <time>2019-08-16T09:53:36Z</time>
      </trkpt>
      <trkpt lat="47.7102" lon="7.31144">
        <ele>246.1</ele>
        <time>2019-08-16T09:53:37Z</time>
      </trkpt>
      <trkpt lat="47.71017" lon="7.31143">
        <ele>246.1</ele>
        <time>2019-08-16T09:53:38Z</time>
      </trkpt>
      <trkpt lat="47.71013" lon="7.31143">
        <ele>246.1</ele>
        <time>2019-08-16T09:53:39Z</time>
      </trkpt>
      <trkpt lat="47.71009" lon="7.31142">
        <ele>246.2</ele>
        <time>2019-08-16T09:53:40Z</time>
      </trkpt>
      <trkpt lat="47.71005" lon="7.31141">
        <ele>246.2</ele>
        <time>2019-08-16T09:53:41Z</time>
      </trkpt>
      <trkpt lat="47.71001" lon="7.31141">
        <ele>246.2</ele>
        <time>2019-08-16T09:53:42Z</time>
      </trkpt>
      <trkpt lat="47.70997" lon="7.3114">
        <ele>246.2</ele>
        <time>2019-08-16T09:53:43Z</time>
      </trkpt>
      <trkpt lat="47.70994" lon="7.31138">
        <ele>246.2</ele>
        <time>2019-08-16T09:53:44Z</time>
      </trkpt>
      <trkpt lat="47.70991" lon="7.31136">
        <ele>246.2</ele>
        <time>2019-08-16T09:53:45Z</time>
      </trkpt>
      <trkpt lat="47.70987" lon="7.31134">
        <ele>246.2</ele>
        <time>2019-08-16T09:53:46Z</time>
      </trkpt>
      <trkpt lat="47.70984" lon="7.31133">
        <ele>246.2</ele>
        <time>2019-08-16T09:53:47Z</time>
      </trkpt>
      <trkpt lat="47.70981" lon="7.31132">
        <ele>246.2</ele>
        <time>2019-08-16T09:53:48Z</time>
      </trkpt>
      <trkpt lat="47.70977" lon="7.31131">
        <ele>246.2</ele>
        <time>2019-08-16T09:53:49Z</time>
      </trkpt>
      <trkpt lat="47.70974" lon="7.3113">
        <ele>246.2</ele>
        <time>2019-08-16T09:53:50Z</time>
      </trkpt>
      <trkpt lat="47.7097" lon="7.31129">
        <ele>246.2</ele>
        <time>2019-08-16T09:53:51Z</time>
      </trkpt>
      <trkpt lat="47.70966" lon="7.31128">
        <ele>246.2</ele>
        <time>2019-08-16T09:53:52Z</time>
      </trkpt>
      <trkpt lat="47.70962" lon="7.31126">
        <ele>246.2</ele>
        <time>2019-08-16T09:53:53Z</time>
      </trkpt>
      <trkpt lat="47.70959" lon="7.31124">
        <ele>246.2</ele>
        <time>2019-08-16T09:53:54Z</time>
      </trkpt>
      <trkpt lat="47.70956" lon="7.31123">
        <ele>246.2</ele>
        <time>2019-08-16T09:53:55Z</time>
      </trkpt>
      <trkpt lat="47.70952" lon="7.31121">
        <ele>246.2</ele>
        <time>2019-08-16T09:53:56Z</time>
      </trkpt>
      <trkpt lat="47.70949" lon="7.3112">
        <ele>246.2</ele>
        <time>2019-08-16T09:53:57Z</time>
      </trkpt>
      <trkpt lat="47.70945" lon="7.3112">
        <ele>246.2</ele>
        <time>2019-08-16T09:53:58Z</time>
      </trkpt>
      <trkpt lat="47.70941" lon="7.31119">
        <ele>246.2</ele>
        <time>2019-08-16T09:53:59Z</time>
      </trkpt>
      <trkpt lat="47.70937" lon="7.31119">
        <ele>246.2</ele>
        <time>2019-08-16T09:54:00Z</time>
      </trkpt>
      <trkpt lat="47.70933" lon="7.31118">
        <ele>246.2</ele>
        <time>2019-08-16T09:54:01Z</time>
      </trkpt>
      <trkpt lat="47.70929" lon="7.31117">
        <ele>246.2</ele>
        <time>2019-08-16T09:54:02Z</time>
      </trkpt>
      <trkpt lat="47.70924" lon="7.31116">
        <ele>246.2</ele>
        <time>2019-08-16T09:54:03Z</time>
      </trkpt>
      <trkpt lat="47.7092" lon="7.31116">
        <ele>246.2</ele>
        <time>2019-08-16T09:54:04Z</time>
      </trkpt>
      <trkpt lat="47.70916" lon="7.31115">
        <ele>246.2</ele>
        <time>2019-08-16T09:54:05Z</time>
      </trkpt>
      <trkpt lat="47.70912" lon="7.31115">
        <ele>246.2</ele>
        <time>2019-08-16T09:54:06Z</time>
      </trkpt>
      <trkpt lat="47.70908" lon="7.31114">
        <ele>246.2</ele>
        <time>2019-08-16T09:54:07Z</time>
      </trkpt>
      <trkpt lat="47.70903" lon="7.31112">
        <ele>246.2</ele>
        <time>2019-08-16T09:54:08Z</time>
      </trkpt>
      <trkpt lat="47.70899" lon="7.31111">
        <ele>246.3</ele>
        <time>2019-08-16T09:54:09Z</time>
      </trkpt>
      <trkpt lat="47.70895" lon="7.31111">
        <ele>246.3</ele>
        <time>2019-08-16T09:54:10Z</time>
      </trkpt>
      <trkpt lat="47.70891" lon="7.3111">
        <ele>246.3</ele>
        <time>2019-08-16T09:54:11Z</time>
      </trkpt>
      <trkpt lat="47.70887" lon="7.31109">
        <ele>246.3</ele>
        <time>2019-08-16T09:54:12Z</time>
      </trkpt>
      <trkpt lat="47.70883" lon="7.31108">
        <ele>246.3</ele>
        <time>2019-08-16T09:54:13Z</time>
      </trkpt>
      <trkpt lat="47.70878" lon="7.31107">
        <ele>246.3</ele>
        <time>2019-08-16T09:54:14Z</time>
      </trkpt>
      <trkpt lat="47.70874" lon="7.31106">
        <ele>246.3</ele>
        <time>2019-08-16T09:54:15Z</time>
      </trkpt>
      <trkpt lat="47.70869" lon="7.31104">
        <ele>246.3</ele>
        <time>2019-08-16T09:54:16Z</time>
      </trkpt>
      <trkpt lat="47.70865" lon="7.31102">
        <ele>246.3</ele>
        <time>2019-08-16T09:54:17Z</time>
      </trkpt>
      <trkpt lat="47.70861" lon="7.31101">
        <ele>246.3</ele>
        <time>2019-08-16T09:54:18Z</time>
      </trkpt>
      <trkpt lat="47.70857" lon="7.311">
        <ele>246.3</ele>
        <time>2019-08-16T09:54:19Z</time>
      </trkpt>
      <trkpt lat="47.70851" lon="7.31098">
        <ele>246.3</ele>
        <time>2019-08-16T09:54:20Z</time>
      </trkpt>
      <trkpt lat="47.70847" lon="7.31096">
        <ele>246.3</ele>
        <time>2019-08-16T09:54:21Z</time>
      </trkpt>
      <trkpt lat="47.70843" lon="7.31095">
        <ele>246.3</ele>
        <time>2019-08-16T09:54:22Z</time>
      </trkpt>
      <trkpt lat="47.70838" lon="7.31094">
        <ele>246.3</ele>
        <time>2019-08-16T09:54:23Z</time>
      </trkpt>
      <trkpt lat="47.70833" lon="7.31093">
        <ele>246.3</ele>
        <time>2019-08-16T09:54:24Z</time>
      </trkpt>
      <trkpt lat="47.70829" lon="7.31092">
        <ele>246.3</ele>
        <time>2019-08-16T09:54:25Z</time>
      </trkpt>
      <trkpt lat="47.70825" lon="7.31091">
        <ele>246.3</ele>
        <time>2019-08-16T09:54:26Z</time>
      </trkpt>
      <trkpt lat="47.7082" lon="7.3109">
        <ele>246.3</ele>
        <time>2019-08-16T09:54:27Z</time>
      </trkpt>
      <trkpt lat="47.70816" lon="7.3109">
        <ele>246.3</ele>
        <time>2019-08-16T09:54:28Z</time>
      </trkpt>
      <trkpt lat="47.70811" lon="7.3109">
        <ele>246.3</ele>
        <time>2019-08-16T09:54:29Z</time>
      </trkpt>
      <trkpt lat="47.70806" lon="7.3109">
        <ele>246.3</ele>
        <time>2019-08-16T09:54:30Z</time>
      </trkpt>
      <trkpt lat="47.70802" lon="7.31089">
        <ele>246.3</ele>
        <time>2019-08-16T09:54:31Z</time>
      </trkpt>
      <trkpt lat="47.70797" lon="7.31088">
        <ele>246.3</ele>
        <time>2019-08-16T09:54:32Z</time>
      </trkpt>
      <trkpt lat="47.70793" lon="7.31087">
        <ele>246.3</ele>
        <time>2019-08-16T09:54:33Z</time>
      </trkpt>
      <trkpt lat="47.70789" lon="7.31085">
        <ele>246.3</ele>
        <time>2019-08-16T09:54:34Z</time>
      </trkpt>
      <trkpt lat="47.70784" lon="7.31083">
        <ele>246.3</ele>
        <time>2019-08-16T09:54:35Z</time>
      </trkpt>
      <trkpt lat="47.7078" lon="7.31082">
        <ele>246.3</ele>
        <time>2019-08-16T09:54:36Z</time>
      </trkpt>
      <trkpt lat="47.70775" lon="7.3108">
        <ele>246.3</ele>
        <time>2019-08-16T09:54:37Z</time>
      </trkpt>
      <trkpt lat="47.70771" lon="7.31078">
        <ele>246.3</ele>
        <time>2019-08-16T09:54:38Z</time>
      </trkpt>
      <trkpt lat="47.70767" lon="7.31076">
        <ele>246.3</ele>
        <time>2019-08-16T09:54:39Z</time>
      </trkpt>
      <trkpt lat="47.70763" lon="7.31075">
        <ele>246.3</ele>
        <time>2019-08-16T09:54:40Z</time>
      </trkpt>
      <trkpt lat="47.70759" lon="7.31073">
        <ele>246.3</ele>
        <time>2019-08-16T09:54:41Z</time>
      </trkpt>
      <trkpt lat="47.70756" lon="7.31072">
        <ele>246.3</ele>
        <time>2019-08-16T09:54:42Z</time>
      </trkpt>
      <trkpt lat="47.70752" lon="7.3107">
        <ele>246.3</ele>
        <time>2019-08-16T09:54:43Z</time>
      </trkpt>
      <trkpt lat="47.70748" lon="7.31068">
        <ele>246.3</ele>
        <time>2019-08-16T09:54:44Z</time>
      </trkpt>
      <trkpt lat="47.70744" lon="7.31067">
        <ele>246.2</ele>
        <time>2019-08-16T09:54:45Z</time>
      </trkpt>
      <trkpt lat="47.70739" lon="7.31065">
        <ele>246.2</ele>
        <time>2019-08-16T09:54:46Z</time>
      </trkpt>
      <trkpt lat="47.70734" lon="7.31063">
        <ele>246.2</ele>
        <time>2019-08-16T09:54:47Z</time>
      </trkpt>
      <trkpt lat="47.70729" lon="7.31061">
        <ele>246.2</ele>
        <time>2019-08-16T09:54:48Z</time>
      </trkpt>
      <trkpt lat="47.70723" lon="7.31059">
        <ele>246.2</ele>
        <time>2019-08-16T09:54:49Z</time>
      </trkpt>
      <trkpt lat="47.70718" lon="7.31057">
        <ele>246.2</ele>
        <time>2019-08-16T09:54:50Z</time>
      </trkpt>
      <trkpt lat="47.70713" lon="7.31055">
        <ele>246.2</ele>
        <time>2019-08-16T09:54:51Z</time>
      </trkpt>
      <trkpt lat="47.70708" lon="7.31054">
        <ele>246.2</ele>
        <time>2019-08-16T09:54:52Z</time>
      </trkpt>
      <trkpt lat="47.70702" lon="7.31053">
        <ele>246.2</ele>
        <time>2019-08-16T09:54:53Z</time>
      </trkpt>
      <trkpt lat="47.70697" lon="7.31051">
        <ele>246.2</ele>
        <time>2019-08-16T09:54:54Z</time>
      </trkpt>
      <trkpt lat="47.70692" lon="7.3105">
        <ele>246.2</ele>
        <time>2019-08-16T09:54:55Z</time>
      </trkpt>
      <trkpt lat="47.70686" lon="7.31047">
        <ele>246.2</ele>
        <time>2019-08-16T09:54:56Z</time>
      </trkpt>
      <trkpt lat="47.70681" lon="7.31046">
        <ele>246.2</ele>
        <time>2019-08-16T09:54:57Z</time>
      </trkpt>
      <trkpt lat="47.70675" lon="7.31044">
        <ele>246.2</ele>
        <time>2019-08-16T09:54:58Z</time>
      </trkpt>
      <trkpt lat="47.7067" lon="7.31043">
        <ele>246.2</ele>
        <time>2019-08-16T09:54:59Z</time>
      </trkpt>
      <trkpt lat="47.70665" lon="7.31041">
        <ele>246.2</ele>
        <time>2019-08-16T09:55:00Z</time>
      </trkpt>
      <trkpt lat="47.7066" lon="7.3104">
        <ele>246.2</ele>
        <time>2019-08-16T09:55:01Z</time>
      </trkpt>
      <trkpt lat="47.70656" lon="7.31039">
        <ele>246.2</ele>
        <time>2019-08-16T09:55:02Z</time>
      </trkpt>
      <trkpt lat="47.70651" lon="7.31038">
        <ele>246.2</ele>
        <time>2019-08-16T09:55:03Z</time>
      </trkpt>
      <trkpt lat="47.70646" lon="7.31037">
        <ele>246.3</ele>
        <time>2019-08-16T09:55:04Z</time>
      </trkpt>
      <trkpt lat="47.70641" lon="7.31036">
        <ele>246.3</ele>
        <time>2019-08-16T09:55:05Z</time>
      </trkpt>
      <trkpt lat="47.70636" lon="7.31034">
        <ele>246.3</ele>
        <time>2019-08-16T09:55:06Z</time>
      </trkpt>
      <trkpt lat="47.70632" lon="7.31033">
        <ele>246.3</ele>
        <time>2019-08-16T09:55:07Z</time>
      </trkpt>
      <trkpt lat="47.70627" lon="7.3103">
        <ele>246.3</ele>
        <time>2019-08-16T09:55:08Z</time>
      </trkpt>
      <trkpt lat="47.70622" lon="7.31029">
        <ele>246.3</ele>
        <time>2019-08-16T09:55:09Z</time>
      </trkpt>
      <trkpt lat="47.70618" lon="7.31028">
        <ele>246.3</ele>
        <time>2019-08-16T09:55:10Z</time>
      </trkpt>
      <trkpt lat="47.70613" lon="7.31027">
        <ele>246.3</ele>
        <time>2019-08-16T09:55:11Z</time>
      </trkpt>
      <trkpt lat="47.70608" lon="7.31026">
        <ele>246.3</ele>
        <time>2019-08-16T09:55:12Z</time>
      </trkpt>
      <trkpt lat="47.70603" lon="7.31025">
        <ele>246.3</ele>
        <time>2019-08-16T09:55:13Z</time>
      </trkpt>
      <trkpt lat="47.70598" lon="7.31024">
        <ele>246.2</ele>
        <time>2019-08-16T09:55:14Z</time>
      </trkpt>
      <trkpt lat="47.70594" lon="7.31023">
        <ele>246.2</ele>
        <time>2019-08-16T09:55:15Z</time>
      </trkpt>
      <trkpt lat="47.70589" lon="7.31022">
        <ele>246.2</ele>
        <time>2019-08-16T09:55:16Z</time>
      </trkpt>
      <trkpt lat="47.70584" lon="7.3102">
        <ele>246.2</ele>
        <time>2019-08-16T09:55:17Z</time>
      </trkpt>
      <trkpt lat="47.70579" lon="7.31017">
        <ele>246.2</ele>
        <time>2019-08-16T09:55:18Z</time>
      </trkpt>
      <trkpt lat="47.70574" lon="7.31014">
        <ele>246.2</ele>
        <time>2019-08-16T09:55:19Z</time>
      </trkpt>
      <trkpt lat="47.7057" lon="7.31011">
        <ele>246.2</ele>
        <time>2019-08-16T09:55:20Z</time>
      </trkpt>
      <trkpt lat="47.70567" lon="7.31006">
        <ele>246.2</ele>
        <time>2019-08-16T09:55:21Z</time>
      </trkpt>
      <trkpt lat="47.70565" lon="7.31">
        <ele>246.2</ele>
        <time>2019-08-16T09:55:22Z</time>
      </trkpt>
      <trkpt lat="47.70562" lon="7.30995">
        <ele>246.2</ele>
        <time>2019-08-16T09:55:23Z</time>
      </trkpt>
      <trkpt lat="47.70559" lon="7.3099">
        <ele>246.2</ele>
        <time>2019-08-16T09:55:24Z</time>
      </trkpt>
      <trkpt lat="47.70555" lon="7.30984">
        <ele>246.2</ele>
        <time>2019-08-16T09:55:25Z</time>
      </trkpt>
      <trkpt lat="47.70551" lon="7.30978">
        <ele>246.2</ele>
        <time>2019-08-16T09:55:26Z</time>
      </trkpt>
      <trkpt lat="47.70548" lon="7.30972">
        <ele>246.2</ele>
        <time>2019-08-16T09:55:27Z</time>
      </trkpt>
      <trkpt lat="47.70544" lon="7.30967">
        <ele>246.3</ele>
        <time>2019-08-16T09:55:28Z</time>
      </trkpt>
      <trkpt lat="47.70542" lon="7.30963">
        <ele>246.3</ele>
        <time>2019-08-16T09:55:29Z</time>
      </trkpt>
      <trkpt lat="47.70539" lon="7.30958">
        <ele>246.3</ele>
        <time>2019-08-16T09:55:30Z</time>
      </trkpt>
      <trkpt lat="47.70537" lon="7.30954">
        <ele>246.3</ele>
        <time>2019-08-16T09:55:31Z</time>
      </trkpt>
      <trkpt lat="47.70534" lon="7.3095">
        <ele>246.3</ele>
        <time>2019-08-16T09:55:32Z</time>
      </trkpt>
      <trkpt lat="47.70532" lon="7.30945">
        <ele>246.3</ele>
        <time>2019-08-16T09:55:33Z</time>
      </trkpt>
      <trkpt lat="47.70529" lon="7.3094">
        <ele>246.3</ele>
        <time>2019-08-16T09:55:34Z</time>
      </trkpt>
      <trkpt lat="47.70526" lon="7.30934">
        <ele>246.3</ele>
        <time>2019-08-16T09:55:35Z</time>
      </trkpt>
      <trkpt lat="47.70524" lon="7.30929">
        <ele>246.3</ele>
        <time>2019-08-16T09:55:36Z</time>
      </trkpt>
      <trkpt lat="47.70521" lon="7.30924">
        <ele>246.3</ele>
        <time>2019-08-16T09:55:37Z</time>
      </trkpt>
      <trkpt lat="47.70518" lon="7.30919">
        <ele>246.3</ele>
        <time>2019-08-16T09:55:38Z</time>
      </trkpt>
      <trkpt lat="47.70514" lon="7.30914">
        <ele>246.3</ele>
        <time>2019-08-16T09:55:39Z</time>
      </trkpt>
      <trkpt lat="47.70512" lon="7.30909">
        <ele>246.3</ele>
        <time>2019-08-16T09:55:40Z</time>
      </trkpt>
      <trkpt lat="47.70509" lon="7.30905">
        <ele>246.3</ele>
        <time>2019-08-16T09:55:41Z</time>
      </trkpt>
      <trkpt lat="47.70506" lon="7.309">
        <ele>246.3</ele>
        <time>2019-08-16T09:55:42Z</time>
      </trkpt>
      <trkpt lat="47.70503" lon="7.30894">
        <ele>246.4</ele>
        <time>2019-08-16T09:55:43Z</time>
      </trkpt>
      <trkpt lat="47.70499" lon="7.30889">
        <ele>246.4</ele>
        <time>2019-08-16T09:55:44Z</time>
      </trkpt>
      <trkpt lat="47.70496" lon="7.30884">
        <ele>246.5</ele>
        <time>2019-08-16T09:55:45Z</time>
      </trkpt>
      <trkpt lat="47.70493" lon="7.30879">
        <ele>246.5</ele>
        <time>2019-08-16T09:55:46Z</time>
      </trkpt>
      <trkpt lat="47.70491" lon="7.30875">
        <ele>246.6</ele>
        <time>2019-08-16T09:55:47Z</time>
      </trkpt>
      <trkpt lat="47.70489" lon="7.30869">
        <ele>246.6</ele>
        <time>2019-08-16T09:55:48Z</time>
      </trkpt>
      <trkpt lat="47.70486" lon="7.30864">
        <ele>246.6</ele>
        <time>2019-08-16T09:55:49Z</time>
      </trkpt>
      <trkpt lat="47.70483" lon="7.3086">
        <ele>246.6</ele>
        <time>2019-08-16T09:55:50Z</time>
      </trkpt>
      <trkpt lat="47.7048" lon="7.30855">
        <ele>246.6</ele>
        <time>2019-08-16T09:55:51Z</time>
      </trkpt>
      <trkpt lat="47.70477" lon="7.3085">
        <ele>246.7</ele>
        <time>2019-08-16T09:55:52Z</time>
      </trkpt>
      <trkpt lat="47.70474" lon="7.30845">
        <ele>246.7</ele>
        <time>2019-08-16T09:55:53Z</time>
      </trkpt>
      <trkpt lat="47.70471" lon="7.3084">
        <ele>246.7</ele>
        <time>2019-08-16T09:55:54Z</time>
      </trkpt>
      <trkpt lat="47.70469" lon="7.30835">
        <ele>246.7</ele>
        <time>2019-08-16T09:55:55Z</time>
      </trkpt>
      <trkpt lat="47.70466" lon="7.3083">
        <ele>246.7</ele>
        <time>2019-08-16T09:55:56Z</time>
      </trkpt>
      <trkpt lat="47.70463" lon="7.30825">
        <ele>246.7</ele>
        <time>2019-08-16T09:55:57Z</time>
      </trkpt>
      <trkpt lat="47.7046" lon="7.3082">
        <ele>246.7</ele>
        <time>2019-08-16T09:55:58Z</time>
      </trkpt>
      <trkpt lat="47.70457" lon="7.30815">
        <ele>246.7</ele>
        <time>2019-08-16T09:55:59Z</time>
      </trkpt>
      <trkpt lat="47.70454" lon="7.3081">
        <ele>246.7</ele>
        <time>2019-08-16T09:56:00Z</time>
      </trkpt>
      <trkpt lat="47.7045" lon="7.30804">
        <ele>246.7</ele>
        <time>2019-08-16T09:56:01Z</time>
      </trkpt>
      <trkpt lat="47.70448" lon="7.30799">
        <ele>246.7</ele>
        <time>2019-08-16T09:56:02Z</time>
      </trkpt>
      <trkpt lat="47.70446" lon="7.30793">
        <ele>246.7</ele>
        <time>2019-08-16T09:56:03Z</time>
      </trkpt>
      <trkpt lat="47.70443" lon="7.30789">
        <ele>246.7</ele>
        <time>2019-08-16T09:56:04Z</time>
      </trkpt>
      <trkpt lat="47.7044" lon="7.30784">
        <ele>246.7</ele>
        <time>2019-08-16T09:56:05Z</time>
      </trkpt>
      <trkpt lat="47.70438" lon="7.30779">
        <ele>246.7</ele>
        <time>2019-08-16T09:56:06Z</time>
      </trkpt>
      <trkpt lat="47.70436" lon="7.30775">
        <ele>246.8</ele>
        <time>2019-08-16T09:56:07Z</time>
      </trkpt>
      <trkpt lat="47.70433" lon="7.30771">
        <ele>246.8</ele>
        <time>2019-08-16T09:56:08Z</time>
      </trkpt>
      <trkpt lat="47.70431" lon="7.30766">
        <ele>246.8</ele>
        <time>2019-08-16T09:56:09Z</time>
      </trkpt>
      <trkpt lat="47.70428" lon="7.30761">
        <ele>246.8</ele>
        <time>2019-08-16T09:56:10Z</time>
      </trkpt>
      <trkpt lat="47.70424" lon="7.30756">
        <ele>246.8</ele>
        <time>2019-08-16T09:56:11Z</time>
      </trkpt>
      <trkpt lat="47.70421" lon="7.30751">
        <ele>246.8</ele>
        <time>2019-08-16T09:56:12Z</time>
      </trkpt>
      <trkpt lat="47.70418" lon="7.30747">
        <ele>246.8</ele>
        <time>2019-08-16T09:56:13Z</time>
      </trkpt>
      <trkpt lat="47.70416" lon="7.30742">
        <ele>246.8</ele>
        <time>2019-08-16T09:56:14Z</time>
      </trkpt>
      <trkpt lat="47.70412" lon="7.30738">
        <ele>246.8</ele>
        <time>2019-08-16T09:56:15Z</time>
      </trkpt>
      <trkpt lat="47.7041" lon="7.30733">
        <ele>246.8</ele>
        <time>2019-08-16T09:56:16Z</time>
      </trkpt>
      <trkpt lat="47.70407" lon="7.30728">
        <ele>246.8</ele>
        <time>2019-08-16T09:56:17Z</time>
      </trkpt>
      <trkpt lat="47.70403" lon="7.30723">
        <ele>246.8</ele>
        <time>2019-08-16T09:56:18Z</time>
      </trkpt>
      <trkpt lat="47.70401" lon="7.30718">
        <ele>246.8</ele>
        <time>2019-08-16T09:56:19Z</time>
      </trkpt>
      <trkpt lat="47.70398" lon="7.30713">
        <ele>246.9</ele>
        <time>2019-08-16T09:56:20Z</time>
      </trkpt>
      <trkpt lat="47.70395" lon="7.30706">
        <ele>246.9</ele>
        <time>2019-08-16T09:56:21Z</time>
      </trkpt>
      <trkpt lat="47.70392" lon="7.307">
        <ele>247</ele>
        <time>2019-08-16T09:56:22Z</time>
      </trkpt>
      <trkpt lat="47.70388" lon="7.30694">
        <ele>247.1</ele>
        <time>2019-08-16T09:56:23Z</time>
      </trkpt>
      <trkpt lat="47.70384" lon="7.30687">
        <ele>247.2</ele>
        <time>2019-08-16T09:56:24Z</time>
      </trkpt>
      <trkpt lat="47.7038" lon="7.30681">
        <ele>247.3</ele>
        <time>2019-08-16T09:56:25Z</time>
      </trkpt>
      <trkpt lat="47.70376" lon="7.30675">
        <ele>247.3</ele>
        <time>2019-08-16T09:56:26Z</time>
      </trkpt>
      <trkpt lat="47.70372" lon="7.30669">
        <ele>247.4</ele>
        <time>2019-08-16T09:56:27Z</time>
      </trkpt>
      <trkpt lat="47.70368" lon="7.30663">
        <ele>247.4</ele>
        <time>2019-08-16T09:56:28Z</time>
      </trkpt>
      <trkpt lat="47.70364" lon="7.30657">
        <ele>247.4</ele>
        <time>2019-08-16T09:56:29Z</time>
      </trkpt>
      <trkpt lat="47.7036" lon="7.30651">
        <ele>247.4</ele>
        <time>2019-08-16T09:56:30Z</time>
      </trkpt>
      <trkpt lat="47.70357" lon="7.30645">
        <ele>247.4</ele>
        <time>2019-08-16T09:56:31Z</time>
      </trkpt>
      <trkpt lat="47.70353" lon="7.3064">
        <ele>247.4</ele>
        <time>2019-08-16T09:56:32Z</time>
      </trkpt>
      <trkpt lat="47.7035" lon="7.30635">
        <ele>247.4</ele>
        <time>2019-08-16T09:56:33Z</time>
      </trkpt>
      <trkpt lat="47.70347" lon="7.30629">
        <ele>247.4</ele>
        <time>2019-08-16T09:56:34Z</time>
      </trkpt>
      <trkpt lat="47.70343" lon="7.30624">
        <ele>247.4</ele>
        <time>2019-08-16T09:56:35Z</time>
      </trkpt>
      <trkpt lat="47.70339" lon="7.30619">
        <ele>247.4</ele>
        <time>2019-08-16T09:56:36Z</time>
      </trkpt>
      <trkpt lat="47.70335" lon="7.30613">
        <ele>247.4</ele>
        <time>2019-08-16T09:56:37Z</time>
      </trkpt>
      <trkpt lat="47.70331" lon="7.30608">
        <ele>247.4</ele>
        <time>2019-08-16T09:56:38Z</time>
      </trkpt>
      <trkpt lat="47.70328" lon="7.30603">
        <ele>247.4</ele>
        <time>2019-08-16T09:56:39Z</time>
      </trkpt>
      <trkpt lat="47.70324" lon="7.30598">
        <ele>247.4</ele>
        <time>2019-08-16T09:56:40Z</time>
      </trkpt>
      <trkpt lat="47.70321" lon="7.30593">
        <ele>247.4</ele>
        <time>2019-08-16T09:56:41Z</time>
      </trkpt>
      <trkpt lat="47.70317" lon="7.30589">
        <ele>247.4</ele>
        <time>2019-08-16T09:56:42Z</time>
      </trkpt>
      <trkpt lat="47.70314" lon="7.30585">
        <ele>247.4</ele>
        <time>2019-08-16T09:56:43Z</time>
      </trkpt>
      <trkpt lat="47.70311" lon="7.3058">
        <ele>247.4</ele>
        <time>2019-08-16T09:56:44Z</time>
      </trkpt>
      <trkpt lat="47.70307" lon="7.30575">
        <ele>247.3</ele>
        <time>2019-08-16T09:56:45Z</time>
      </trkpt>
      <trkpt lat="47.70304" lon="7.30572">
        <ele>247.3</ele>
        <time>2019-08-16T09:56:46Z</time>
      </trkpt>
      <trkpt lat="47.70301" lon="7.30568">
        <ele>247.3</ele>
        <time>2019-08-16T09:56:47Z</time>
      </trkpt>
      <trkpt lat="47.70298" lon="7.30564">
        <ele>247.3</ele>
        <time>2019-08-16T09:56:48Z</time>
      </trkpt>
      <trkpt lat="47.70296" lon="7.30561">
        <ele>247.3</ele>
        <time>2019-08-16T09:56:49Z</time>
      </trkpt>
      <trkpt lat="47.70293" lon="7.30557">
        <ele>247.3</ele>
        <time>2019-08-16T09:56:50Z</time>
      </trkpt>
      <trkpt lat="47.70291" lon="7.30552">
        <ele>247.3</ele>
        <time>2019-08-16T09:56:51Z</time>
      </trkpt>
      <trkpt lat="47.70288" lon="7.30548">
        <ele>247.3</ele>
        <time>2019-08-16T09:56:52Z</time>
      </trkpt>
      <trkpt lat="47.70286" lon="7.30544">
        <ele>247.3</ele>
        <time>2019-08-16T09:56:53Z</time>
      </trkpt>
      <trkpt lat="47.70284" lon="7.30541">
        <ele>247.3</ele>
        <time>2019-08-16T09:56:54Z</time>
      </trkpt>
      <trkpt lat="47.70282" lon="7.30537">
        <ele>247.3</ele>
        <time>2019-08-16T09:56:55Z</time>
      </trkpt>
      <trkpt lat="47.70279" lon="7.30534">
        <ele>247.3</ele>
        <time>2019-08-16T09:56:56Z</time>
      </trkpt>
      <trkpt lat="47.70277" lon="7.30531">
        <ele>247.3</ele>
        <time>2019-08-16T09:56:57Z</time>
      </trkpt>
      <trkpt lat="47.70274" lon="7.30526">
        <ele>247.3</ele>
        <time>2019-08-16T09:56:58Z</time>
      </trkpt>
      <trkpt lat="47.70273" lon="7.30522">
        <ele>247.3</ele>
        <time>2019-08-16T09:56:59Z</time>
      </trkpt>
      <trkpt lat="47.70271" lon="7.30518">
        <ele>247.3</ele>
        <time>2019-08-16T09:57:00Z</time>
      </trkpt>
      <trkpt lat="47.70269" lon="7.30513">
        <ele>247.4</ele>
        <time>2019-08-16T09:57:01Z</time>
      </trkpt>
      <trkpt lat="47.70267" lon="7.30508">
        <ele>247.4</ele>
        <time>2019-08-16T09:57:02Z</time>
      </trkpt>
      <trkpt lat="47.70264" lon="7.30503">
        <ele>247.5</ele>
        <time>2019-08-16T09:57:03Z</time>
      </trkpt>
      <trkpt lat="47.70261" lon="7.30498">
        <ele>247.5</ele>
        <time>2019-08-16T09:57:04Z</time>
      </trkpt>
      <trkpt lat="47.70258" lon="7.30493">
        <ele>247.6</ele>
        <time>2019-08-16T09:57:05Z</time>
      </trkpt>
      <trkpt lat="47.70256" lon="7.30488">
        <ele>247.6</ele>
        <time>2019-08-16T09:57:06Z</time>
      </trkpt>
      <trkpt lat="47.70253" lon="7.30483">
        <ele>247.6</ele>
        <time>2019-08-16T09:57:07Z</time>
      </trkpt>
      <trkpt lat="47.70251" lon="7.30478">
        <ele>247.6</ele>
        <time>2019-08-16T09:57:08Z</time>
      </trkpt>
      <trkpt lat="47.70249" lon="7.30473">
        <ele>247.6</ele>
        <time>2019-08-16T09:57:09Z</time>
      </trkpt>
      <trkpt lat="47.70246" lon="7.30468">
        <ele>247.6</ele>
        <time>2019-08-16T09:57:10Z</time>
      </trkpt>
      <trkpt lat="47.70243" lon="7.30462">
        <ele>247.6</ele>
        <time>2019-08-16T09:57:11Z</time>
      </trkpt>
      <trkpt lat="47.70241" lon="7.30457">
        <ele>247.6</ele>
        <time>2019-08-16T09:57:12Z</time>
      </trkpt>
      <trkpt lat="47.70238" lon="7.30452">
        <ele>247.6</ele>
        <time>2019-08-16T09:57:13Z</time>
      </trkpt>
      <trkpt lat="47.70236" lon="7.30446">
        <ele>247.6</ele>
        <time>2019-08-16T09:57:14Z</time>
      </trkpt>
      <trkpt lat="47.70233" lon="7.30441">
        <ele>247.6</ele>
        <time>2019-08-16T09:57:15Z</time>
      </trkpt>
      <trkpt lat="47.70231" lon="7.30437">
        <ele>247.5</ele>
        <time>2019-08-16T09:57:16Z</time>
      </trkpt>
      <trkpt lat="47.70228" lon="7.30432">
        <ele>247.5</ele>
        <time>2019-08-16T09:57:17Z</time>
      </trkpt>
      <trkpt lat="47.70225" lon="7.30427">
        <ele>247.5</ele>
        <time>2019-08-16T09:57:18Z</time>
      </trkpt>
      <trkpt lat="47.70222" lon="7.30423">
        <ele>247.5</ele>
        <time>2019-08-16T09:57:19Z</time>
      </trkpt>
      <trkpt lat="47.7022" lon="7.30417">
        <ele>247.5</ele>
        <time>2019-08-16T09:57:20Z</time>
      </trkpt>
      <trkpt lat="47.70217" lon="7.30413">
        <ele>247.6</ele>
        <time>2019-08-16T09:57:21Z</time>
      </trkpt>
      <trkpt lat="47.70212" lon="7.30408">
        <ele>247.6</ele>
        <time>2019-08-16T09:57:22Z</time>
      </trkpt>
      <trkpt lat="47.70209" lon="7.30403">
        <ele>247.6</ele>
        <time>2019-08-16T09:57:23Z</time>
      </trkpt>
      <trkpt lat="47.70206" lon="7.30398">
        <ele>247.7</ele>
        <time>2019-08-16T09:57:24Z</time>
      </trkpt>
      <trkpt lat="47.70203" lon="7.30392">
        <ele>247.7</ele>
        <time>2019-08-16T09:57:25Z</time>
      </trkpt>
      <trkpt lat="47.702" lon="7.30386">
        <ele>247.7</ele>
        <time>2019-08-16T09:57:26Z</time>
      </trkpt>
      <trkpt lat="47.70197" lon="7.30382">
        <ele>247.8</ele>
        <time>2019-08-16T09:57:27Z</time>
      </trkpt>
      <trkpt lat="47.70193" lon="7.30377">
        <ele>247.8</ele>
        <time>2019-08-16T09:57:28Z</time>
      </trkpt>
      <trkpt lat="47.7019" lon="7.30372">
        <ele>247.8</ele>
        <time>2019-08-16T09:57:29Z</time>
      </trkpt>
      <trkpt lat="47.70187" lon="7.30367">
        <ele>247.8</ele>
        <time>2019-08-16T09:57:30Z</time>
      </trkpt>
      <trkpt lat="47.70184" lon="7.30362">
        <ele>247.9</ele>
        <time>2019-08-16T09:57:31Z</time>
      </trkpt>
      <trkpt lat="47.70181" lon="7.30357">
        <ele>247.9</ele>
        <time>2019-08-16T09:57:32Z</time>
      </trkpt>
      <trkpt lat="47.70178" lon="7.30353">
        <ele>247.9</ele>
        <time>2019-08-16T09:57:33Z</time>
      </trkpt>
      <trkpt lat="47.70174" lon="7.30347">
        <ele>247.9</ele>
        <time>2019-08-16T09:57:34Z</time>
      </trkpt>
      <trkpt lat="47.70171" lon="7.30341">
        <ele>247.9</ele>
        <time>2019-08-16T09:57:35Z</time>
      </trkpt>
      <trkpt lat="47.70167" lon="7.30336">
        <ele>247.8</ele>
        <time>2019-08-16T09:57:36Z</time>
      </trkpt>
      <trkpt lat="47.70164" lon="7.30331">
        <ele>247.8</ele>
        <time>2019-08-16T09:57:37Z</time>
      </trkpt>
      <trkpt lat="47.70161" lon="7.30327">
        <ele>247.8</ele>
        <time>2019-08-16T09:57:38Z</time>
      </trkpt>
      <trkpt lat="47.70158" lon="7.30322">
        <ele>247.8</ele>
        <time>2019-08-16T09:57:39Z</time>
      </trkpt>
      <trkpt lat="47.70155" lon="7.30317">
        <ele>247.8</ele>
        <time>2019-08-16T09:57:40Z</time>
      </trkpt>
      <trkpt lat="47.70152" lon="7.30312">
        <ele>247.8</ele>
        <time>2019-08-16T09:57:41Z</time>
      </trkpt>
      <trkpt lat="47.70149" lon="7.30306">
        <ele>247.8</ele>
        <time>2019-08-16T09:57:42Z</time>
      </trkpt>
      <trkpt lat="47.70146" lon="7.30302">
        <ele>247.8</ele>
        <time>2019-08-16T09:57:43Z</time>
      </trkpt>
      <trkpt lat="47.70143" lon="7.30297">
        <ele>247.8</ele>
        <time>2019-08-16T09:57:44Z</time>
      </trkpt>
      <trkpt lat="47.7014" lon="7.30291">
        <ele>247.8</ele>
        <time>2019-08-16T09:57:45Z</time>
      </trkpt>
      <trkpt lat="47.70137" lon="7.30287">
        <ele>247.8</ele>
        <time>2019-08-16T09:57:46Z</time>
      </trkpt>
      <trkpt lat="47.70133" lon="7.30282">
        <ele>247.8</ele>
        <time>2019-08-16T09:57:47Z</time>
      </trkpt>
      <trkpt lat="47.7013" lon="7.30277">
        <ele>247.8</ele>
        <time>2019-08-16T09:57:48Z</time>
      </trkpt>
      <trkpt lat="47.70127" lon="7.30272">
        <ele>247.8</ele>
        <time>2019-08-16T09:57:49Z</time>
      </trkpt>
      <trkpt lat="47.70125" lon="7.30267">
        <ele>247.8</ele>
        <time>2019-08-16T09:57:50Z</time>
      </trkpt>
      <trkpt lat="47.70122" lon="7.30263">
        <ele>247.8</ele>
        <time>2019-08-16T09:57:51Z</time>
      </trkpt>
      <trkpt lat="47.70119" lon="7.30259">
        <ele>247.8</ele>
        <time>2019-08-16T09:57:52Z</time>
      </trkpt>
      <trkpt lat="47.70115" lon="7.30254">
        <ele>247.8</ele>
        <time>2019-08-16T09:57:53Z</time>
      </trkpt>
      <trkpt lat="47.70112" lon="7.30249">
        <ele>247.8</ele>
        <time>2019-08-16T09:57:54Z</time>
      </trkpt>
      <trkpt lat="47.70107" lon="7.30243">
        <ele>247.8</ele>
        <time>2019-08-16T09:57:55Z</time>
      </trkpt>
      <trkpt lat="47.70103" lon="7.30238">
        <ele>247.8</ele>
        <time>2019-08-16T09:57:56Z</time>
      </trkpt>
      <trkpt lat="47.701" lon="7.30233">
        <ele>247.8</ele>
        <time>2019-08-16T09:57:57Z</time>
      </trkpt>
      <trkpt lat="47.70096" lon="7.30228">
        <ele>247.8</ele>
        <time>2019-08-16T09:57:58Z</time>
      </trkpt>
      <trkpt lat="47.70093" lon="7.30223">
        <ele>247.9</ele>
        <time>2019-08-16T09:57:59Z</time>
      </trkpt>
      <trkpt lat="47.70089" lon="7.30219">
        <ele>247.9</ele>
        <time>2019-08-16T09:58:00Z</time>
      </trkpt>
      <trkpt lat="47.70086" lon="7.30214">
        <ele>247.9</ele>
        <time>2019-08-16T09:58:01Z</time>
      </trkpt>
      <trkpt lat="47.70083" lon="7.3021">
        <ele>247.9</ele>
        <time>2019-08-16T09:58:02Z</time>
      </trkpt>
      <trkpt lat="47.7008" lon="7.30205">
        <ele>247.9</ele>
        <time>2019-08-16T09:58:03Z</time>
      </trkpt>
      <trkpt lat="47.70076" lon="7.30201">
        <ele>247.9</ele>
        <time>2019-08-16T09:58:04Z</time>
      </trkpt>
      <trkpt lat="47.70073" lon="7.30196">
        <ele>247.9</ele>
        <time>2019-08-16T09:58:05Z</time>
      </trkpt>
      <trkpt lat="47.70069" lon="7.30191">
        <ele>247.9</ele>
        <time>2019-08-16T09:58:06Z</time>
      </trkpt>
      <trkpt lat="47.70066" lon="7.30186">
        <ele>247.9</ele>
        <time>2019-08-16T09:58:07Z</time>
      </trkpt>
      <trkpt lat="47.70063" lon="7.30181">
        <ele>247.9</ele>
        <time>2019-08-16T09:58:08Z</time>
      </trkpt>
      <trkpt lat="47.70061" lon="7.30176">
        <ele>247.9</ele>
        <time>2019-08-16T09:58:09Z</time>
      </trkpt>
      <trkpt lat="47.70058" lon="7.3017">
        <ele>247.9</ele>
        <time>2019-08-16T09:58:10Z</time>
      </trkpt>
      <trkpt lat="47.70054" lon="7.30166">
        <ele>247.9</ele>
        <time>2019-08-16T09:58:11Z</time>
      </trkpt>
      <trkpt lat="47.70051" lon="7.30161">
        <ele>247.9</ele>
        <time>2019-08-16T09:58:12Z</time>
      </trkpt>
      <trkpt lat="47.70049" lon="7.30156">
        <ele>247.9</ele>
        <time>2019-08-16T09:58:13Z</time>
      </trkpt>
      <trkpt lat="47.70046" lon="7.30152">
        <ele>247.9</ele>
        <time>2019-08-16T09:58:14Z</time>
      </trkpt>
      <trkpt lat="47.70043" lon="7.30146">
        <ele>247.9</ele>
        <time>2019-08-16T09:58:15Z</time>
      </trkpt>
      <trkpt lat="47.7004" lon="7.30141">
        <ele>247.9</ele>
        <time>2019-08-16T09:58:16Z</time>
      </trkpt>
      <trkpt lat="47.70037" lon="7.30136">
        <ele>247.9</ele>
        <time>2019-08-16T09:58:17Z</time>
      </trkpt>
      <trkpt lat="47.70035" lon="7.30132">
        <ele>247.9</ele>
        <time>2019-08-16T09:58:18Z</time>
      </trkpt>
      <trkpt lat="47.70033" lon="7.30127">
        <ele>247.9</ele>
        <time>2019-08-16T09:58:19Z</time>
      </trkpt>
      <trkpt lat="47.7003" lon="7.30123">
        <ele>247.9</ele>
        <time>2019-08-16T09:58:20Z</time>
      </trkpt>
      <trkpt lat="47.70027" lon="7.30118">
        <ele>247.9</ele>
        <time>2019-08-16T09:58:21Z</time>
      </trkpt>
      <trkpt lat="47.70024" lon="7.30114">
        <ele>247.9</ele>
        <time>2019-08-16T09:58:22Z</time>
      </trkpt>
      <trkpt lat="47.70021" lon="7.30111">
        <ele>247.9</ele>
        <time>2019-08-16T09:58:23Z</time>
      </trkpt>
      <trkpt lat="47.70018" lon="7.30107">
        <ele>248</ele>
        <time>2019-08-16T09:58:24Z</time>
      </trkpt>
      <trkpt lat="47.70015" lon="7.30102">
        <ele>248</ele>
        <time>2019-08-16T09:58:25Z</time>
      </trkpt>
      <trkpt lat="47.70012" lon="7.30097">
        <ele>248</ele>
        <time>2019-08-16T09:58:26Z</time>
      </trkpt>
      <trkpt lat="47.70009" lon="7.30092">
        <ele>248</ele>
        <time>2019-08-16T09:58:27Z</time>
      </trkpt>
      <trkpt lat="47.70006" lon="7.30087">
        <ele>248.1</ele>
        <time>2019-08-16T09:58:28Z</time>
      </trkpt>
      <trkpt lat="47.70003" lon="7.30082">
        <ele>248.1</ele>
        <time>2019-08-16T09:58:29Z</time>
      </trkpt>
      <trkpt lat="47.69999" lon="7.30076">
        <ele>248.2</ele>
        <time>2019-08-16T09:58:30Z</time>
      </trkpt>
      <trkpt lat="47.69996" lon="7.3007">
        <ele>248.2</ele>
        <time>2019-08-16T09:58:31Z</time>
      </trkpt>
      <trkpt lat="47.69992" lon="7.30065">
        <ele>248.3</ele>
        <time>2019-08-16T09:58:32Z</time>
      </trkpt>
      <trkpt lat="47.69989" lon="7.30059">
        <ele>248.3</ele>
        <time>2019-08-16T09:58:33Z</time>
      </trkpt>
      <trkpt lat="47.69987" lon="7.30054">
        <ele>248.4</ele>
        <time>2019-08-16T09:58:34Z</time>
      </trkpt>
      <trkpt lat="47.69984" lon="7.30049">
        <ele>248.4</ele>
        <time>2019-08-16T09:58:35Z</time>
      </trkpt>
      <trkpt lat="47.69981" lon="7.30044">
        <ele>248.5</ele>
        <time>2019-08-16T09:58:36Z</time>
      </trkpt>
      <trkpt lat="47.69979" lon="7.30039">
        <ele>248.6</ele>
        <time>2019-08-16T09:58:37Z</time>
      </trkpt>
      <trkpt lat="47.69976" lon="7.30035">
        <ele>248.6</ele>
        <time>2019-08-16T09:58:38Z</time>
      </trkpt>
      <trkpt lat="47.69974" lon="7.3003">
        <ele>248.7</ele>
        <time>2019-08-16T09:58:39Z</time>
      </trkpt>
      <trkpt lat="47.69971" lon="7.30026">
        <ele>248.8</ele>
        <time>2019-08-16T09:58:40Z</time>
      </trkpt>
      <trkpt lat="47.69968" lon="7.30022">
        <ele>248.9</ele>
        <time>2019-08-16T09:58:41Z</time>
      </trkpt>
      <trkpt lat="47.69966" lon="7.30018">
        <ele>249</ele>
        <time>2019-08-16T09:58:42Z</time>
      </trkpt>
      <trkpt lat="47.69963" lon="7.30014">
        <ele>249.1</ele>
        <time>2019-08-16T09:58:43Z</time>
      </trkpt>
      <trkpt lat="47.6996" lon="7.30009">
        <ele>249.3</ele>
        <time>2019-08-16T09:58:44Z</time>
      </trkpt>
      <trkpt lat="47.69957" lon="7.30004">
        <ele>249.5</ele>
        <time>2019-08-16T09:58:45Z</time>
      </trkpt>
      <trkpt lat="47.69954" lon="7.29998">
        <ele>249.7</ele>
        <time>2019-08-16T09:58:46Z</time>
      </trkpt>
      <trkpt lat="47.69952" lon="7.29993">
        <ele>249.8</ele>
        <time>2019-08-16T09:58:47Z</time>
      </trkpt>
      <trkpt lat="47.69948" lon="7.29989">
        <ele>250</ele>
        <time>2019-08-16T09:58:48Z</time>
      </trkpt>
      <trkpt lat="47.69945" lon="7.29984">
        <ele>250.2</ele>
        <time>2019-08-16T09:58:49Z</time>
      </trkpt>
      <trkpt lat="47.69942" lon="7.2998">
        <ele>250.3</ele>
        <time>2019-08-16T09:58:50Z</time>
      </trkpt>
      <trkpt lat="47.69939" lon="7.29975">
        <ele>250.5</ele>
        <time>2019-08-16T09:58:51Z</time>
      </trkpt>
      <trkpt lat="47.69937" lon="7.2997">
        <ele>250.6</ele>
        <time>2019-08-16T09:58:52Z</time>
      </trkpt>
      <trkpt lat="47.69934" lon="7.29965">
        <ele>250.8</ele>
        <time>2019-08-16T09:58:53Z</time>
      </trkpt>
      <trkpt lat="47.69932" lon="7.2996">
        <ele>250.9</ele>
        <time>2019-08-16T09:58:54Z</time>
      </trkpt>
      <trkpt lat="47.6993" lon="7.29956">
        <ele>251.1</ele>
        <time>2019-08-16T09:58:55Z</time>
      </trkpt>
      <trkpt lat="47.69927" lon="7.2995">
        <ele>251.3</ele>
        <time>2019-08-16T09:58:56Z</time>
      </trkpt>
      <trkpt lat="47.69925" lon="7.29945">
        <ele>251.5</ele>
        <time>2019-08-16T09:58:57Z</time>
      </trkpt>
      <trkpt lat="47.69923" lon="7.29939">
        <ele>251.6</ele>
        <time>2019-08-16T09:58:58Z</time>
      </trkpt>
      <trkpt lat="47.6992" lon="7.29933">
        <ele>251.7</ele>
        <time>2019-08-16T09:58:59Z</time>
      </trkpt>
      <trkpt lat="47.69917" lon="7.29929">
        <ele>251.8</ele>
        <time>2019-08-16T09:59:00Z</time>
      </trkpt>
      <trkpt lat="47.69914" lon="7.29924">
        <ele>251.9</ele>
        <time>2019-08-16T09:59:01Z</time>
      </trkpt>
      <trkpt lat="47.69911" lon="7.2992">
        <ele>252</ele>
        <time>2019-08-16T09:59:02Z</time>
      </trkpt>
      <trkpt lat="47.69909" lon="7.29915">
        <ele>252.1</ele>
        <time>2019-08-16T09:59:03Z</time>
      </trkpt>
      <trkpt lat="47.69906" lon="7.29911">
        <ele>252.2</ele>
        <time>2019-08-16T09:59:04Z</time>
      </trkpt>
      <trkpt lat="47.69904" lon="7.29908">
        <ele>252.3</ele>
        <time>2019-08-16T09:59:05Z</time>
      </trkpt>
      <trkpt lat="47.69902" lon="7.29905">
        <ele>252.3</ele>
        <time>2019-08-16T09:59:06Z</time>
      </trkpt>
      <trkpt lat="47.69901" lon="7.299">
        <ele>252.3</ele>
        <time>2019-08-16T09:59:12Z</time>
      </trkpt>
      <trkpt lat="47.699" lon="7.29895">
        <ele>252.2</ele>
        <time>2019-08-16T09:59:14Z</time>
      </trkpt>
      <trkpt lat="47.69899" lon="7.2989">
        <ele>252.2</ele>
        <time>2019-08-16T09:59:16Z</time>
      </trkpt>
      <trkpt lat="47.69896" lon="7.29886">
        <ele>252.2</ele>
        <time>2019-08-16T09:59:18Z</time>
      </trkpt>
      <trkpt lat="47.69892" lon="7.29881">
        <ele>252.1</ele>
        <time>2019-08-16T09:59:20Z</time>
      </trkpt>
      <trkpt lat="47.6989" lon="7.29878">
        <ele>252.1</ele>
        <time>2019-08-16T09:59:21Z</time>
      </trkpt>
      <trkpt lat="47.69889" lon="7.29873">
        <ele>252.1</ele>
        <time>2019-08-16T09:59:22Z</time>
      </trkpt>
      <trkpt lat="47.69887" lon="7.29869">
        <ele>252</ele>
        <time>2019-08-16T09:59:23Z</time>
      </trkpt>
      <trkpt lat="47.69885" lon="7.29865">
        <ele>252</ele>
        <time>2019-08-16T09:59:24Z</time>
      </trkpt>
      <trkpt lat="47.69883" lon="7.29862">
        <ele>252</ele>
        <time>2019-08-16T09:59:25Z</time>
      </trkpt>
      <trkpt lat="47.6988" lon="7.29858">
        <ele>252</ele>
        <time>2019-08-16T09:59:26Z</time>
      </trkpt>
      <trkpt lat="47.69878" lon="7.29854">
        <ele>252</ele>
        <time>2019-08-16T09:59:27Z</time>
      </trkpt>
      <trkpt lat="47.69875" lon="7.29849">
        <ele>251.9</ele>
        <time>2019-08-16T09:59:28Z</time>
      </trkpt>
      <trkpt lat="47.69872" lon="7.29844">
        <ele>251.9</ele>
        <time>2019-08-16T09:59:29Z</time>
      </trkpt>
      <trkpt lat="47.69868" lon="7.29839">
        <ele>251.9</ele>
        <time>2019-08-16T09:59:30Z</time>
      </trkpt>
      <trkpt lat="47.69865" lon="7.29834">
        <ele>251.9</ele>
        <time>2019-08-16T09:59:31Z</time>
      </trkpt>
      <trkpt lat="47.69862" lon="7.29829">
        <ele>251.8</ele>
        <time>2019-08-16T09:59:32Z</time>
      </trkpt>
      <trkpt lat="47.69859" lon="7.29825">
        <ele>251.8</ele>
        <time>2019-08-16T09:59:33Z</time>
      </trkpt>
      <trkpt lat="47.69857" lon="7.29821">
        <ele>251.8</ele>
        <time>2019-08-16T09:59:34Z</time>
      </trkpt>
      <trkpt lat="47.69855" lon="7.29817">
        <ele>251.7</ele>
        <time>2019-08-16T09:59:35Z</time>
      </trkpt>
      <trkpt lat="47.69853" lon="7.29813">
        <ele>251.7</ele>
        <time>2019-08-16T09:59:36Z</time>
      </trkpt>
      <trkpt lat="47.69851" lon="7.2981">
        <ele>251.7</ele>
        <time>2019-08-16T09:59:37Z</time>
      </trkpt>
      <trkpt lat="47.69849" lon="7.29806">
        <ele>251.6</ele>
        <time>2019-08-16T09:59:38Z</time>
      </trkpt>
      <trkpt lat="47.69847" lon="7.29802">
        <ele>251.6</ele>
        <time>2019-08-16T09:59:39Z</time>
      </trkpt>
      <trkpt lat="47.69844" lon="7.29798">
        <ele>251.5</ele>
        <time>2019-08-16T09:59:40Z</time>
      </trkpt>
      <trkpt lat="47.69841" lon="7.29794">
        <ele>251.4</ele>
        <time>2019-08-16T09:59:41Z</time>
      </trkpt>
      <trkpt lat="47.69837" lon="7.29789">
        <ele>251.4</ele>
        <time>2019-08-16T09:59:42Z</time>
      </trkpt>
      <trkpt lat="47.69834" lon="7.29784">
        <ele>251.3</ele>
        <time>2019-08-16T09:59:43Z</time>
      </trkpt>
      <trkpt lat="47.69831" lon="7.29779">
        <ele>251.3</ele>
        <time>2019-08-16T09:59:44Z</time>
      </trkpt>
      <trkpt lat="47.69829" lon="7.29774">
        <ele>251.2</ele>
        <time>2019-08-16T09:59:45Z</time>
      </trkpt>
      <trkpt lat="47.69827" lon="7.2977">
        <ele>251.2</ele>
        <time>2019-08-16T09:59:46Z</time>
      </trkpt>
      <trkpt lat="47.69825" lon="7.29765">
        <ele>251.2</ele>
        <time>2019-08-16T09:59:47Z</time>
      </trkpt>
      <trkpt lat="47.69822" lon="7.2976">
        <ele>251.1</ele>
        <time>2019-08-16T09:59:48Z</time>
      </trkpt>
      <trkpt lat="47.69819" lon="7.29756">
        <ele>251.1</ele>
        <time>2019-08-16T09:59:49Z</time>
      </trkpt>
      <trkpt lat="47.69816" lon="7.2975">
        <ele>251.1</ele>
        <time>2019-08-16T09:59:50Z</time>
      </trkpt>
      <trkpt lat="47.69814" lon="7.29745">
        <ele>251</ele>
        <time>2019-08-16T09:59:51Z</time>
      </trkpt>
      <trkpt lat="47.69812" lon="7.29741">
        <ele>251</ele>
        <time>2019-08-16T09:59:52Z</time>
      </trkpt>
      <trkpt lat="47.69809" lon="7.29737">
        <ele>251</ele>
        <time>2019-08-16T09:59:53Z</time>
      </trkpt>
      <trkpt lat="47.69807" lon="7.29732">
        <ele>251</ele>
        <time>2019-08-16T09:59:54Z</time>
      </trkpt>
      <trkpt lat="47.69804" lon="7.29728">
        <ele>250.9</ele>
        <time>2019-08-16T09:59:55Z</time>
      </trkpt>
      <trkpt lat="47.69801" lon="7.29724">
        <ele>250.9</ele>
        <time>2019-08-16T09:59:56Z</time>
      </trkpt>
      <trkpt lat="47.69799" lon="7.2972">
        <ele>250.9</ele>
        <time>2019-08-16T09:59:57Z</time>
      </trkpt>
      <trkpt lat="47.69796" lon="7.29715">
        <ele>250.9</ele>
        <time>2019-08-16T09:59:58Z</time>
      </trkpt>
      <trkpt lat="47.69793" lon="7.29711">
        <ele>250.8</ele>
        <time>2019-08-16T09:59:59Z</time>
      </trkpt>
      <trkpt lat="47.69789" lon="7.29706">
        <ele>250.8</ele>
        <time>2019-08-16T10:00:00Z</time>
      </trkpt>
      <trkpt lat="47.69786" lon="7.29701">
        <ele>250.8</ele>
        <time>2019-08-16T10:00:01Z</time>
      </trkpt>
      <trkpt lat="47.69783" lon="7.29696">
        <ele>250.7</ele>
        <time>2019-08-16T10:00:02Z</time>
      </trkpt>
      <trkpt lat="47.69781" lon="7.29691">
        <ele>250.7</ele>
        <time>2019-08-16T10:00:03Z</time>
      </trkpt>
      <trkpt lat="47.69778" lon="7.29686">
        <ele>250.7</ele>
        <time>2019-08-16T10:00:04Z</time>
      </trkpt>
      <trkpt lat="47.69776" lon="7.29682">
        <ele>250.6</ele>
        <time>2019-08-16T10:00:05Z</time>
      </trkpt>
      <trkpt lat="47.69773" lon="7.29677">
        <ele>250.6</ele>
        <time>2019-08-16T10:00:06Z</time>
      </trkpt>
      <trkpt lat="47.6977" lon="7.29671">
        <ele>250.6</ele>
        <time>2019-08-16T10:00:07Z</time>
      </trkpt>
      <trkpt lat="47.69767" lon="7.29665">
        <ele>250.6</ele>
        <time>2019-08-16T10:00:08Z</time>
      </trkpt>
      <trkpt lat="47.69765" lon="7.29659">
        <ele>250.5</ele>
        <time>2019-08-16T10:00:09Z</time>
      </trkpt>
      <trkpt lat="47.69763" lon="7.29654">
        <ele>250.5</ele>
        <time>2019-08-16T10:00:10Z</time>
      </trkpt>
      <trkpt lat="47.69761" lon="7.29648">
        <ele>250.5</ele>
        <time>2019-08-16T10:00:11Z</time>
      </trkpt>
      <trkpt lat="47.69759" lon="7.29643">
        <ele>250.5</ele>
        <time>2019-08-16T10:00:12Z</time>
      </trkpt>
      <trkpt lat="47.69757" lon="7.29637">
        <ele>250.4</ele>
        <time>2019-08-16T10:00:13Z</time>
      </trkpt>
      <trkpt lat="47.69755" lon="7.29631">
        <ele>250.4</ele>
        <time>2019-08-16T10:00:14Z</time>
      </trkpt>
      <trkpt lat="47.69753" lon="7.29624">
        <ele>250.4</ele>
        <time>2019-08-16T10:00:15Z</time>
      </trkpt>
      <trkpt lat="47.69751" lon="7.29617">
        <ele>250.4</ele>
        <time>2019-08-16T10:00:16Z</time>
      </trkpt>
      <trkpt lat="47.6975" lon="7.29611">
        <ele>250.3</ele>
        <time>2019-08-16T10:00:17Z</time>
      </trkpt>
      <trkpt lat="47.69747" lon="7.29604">
        <ele>250.3</ele>
        <time>2019-08-16T10:00:18Z</time>
      </trkpt>
      <trkpt lat="47.69746" lon="7.29598">
        <ele>250.3</ele>
        <time>2019-08-16T10:00:19Z</time>
      </trkpt>
      <trkpt lat="47.69744" lon="7.29593">
        <ele>250.3</ele>
        <time>2019-08-16T10:00:20Z</time>
      </trkpt>
      <trkpt lat="47.69742" lon="7.29588">
        <ele>250.3</ele>
        <time>2019-08-16T10:00:21Z</time>
      </trkpt>
      <trkpt lat="47.6974" lon="7.29582">
        <ele>250.2</ele>
        <time>2019-08-16T10:00:22Z</time>
      </trkpt>
      <trkpt lat="47.69739" lon="7.29576">
        <ele>250.2</ele>
        <time>2019-08-16T10:00:23Z</time>
      </trkpt>
      <trkpt lat="47.69738" lon="7.29571">
        <ele>250.2</ele>
        <time>2019-08-16T10:00:24Z</time>
      </trkpt>
      <trkpt lat="47.69737" lon="7.29564">
        <ele>250.2</ele>
        <time>2019-08-16T10:00:25Z</time>
      </trkpt>
      <trkpt lat="47.69735" lon="7.29557">
        <ele>250.1</ele>
        <time>2019-08-16T10:00:26Z</time>
      </trkpt>
      <trkpt lat="47.69734" lon="7.2955">
        <ele>250.1</ele>
        <time>2019-08-16T10:00:27Z</time>
      </trkpt>
      <trkpt lat="47.69733" lon="7.29544">
        <ele>250.1</ele>
        <time>2019-08-16T10:00:28Z</time>
      </trkpt>
      <trkpt lat="47.69732" lon="7.29537">
        <ele>250.1</ele>
        <time>2019-08-16T10:00:29Z</time>
      </trkpt>
      <trkpt lat="47.6973" lon="7.2953">
        <ele>250</ele>
        <time>2019-08-16T10:00:30Z</time>
      </trkpt>
      <trkpt lat="47.69729" lon="7.29523">
        <ele>250</ele>
        <time>2019-08-16T10:00:31Z</time>
      </trkpt>
      <trkpt lat="47.69728" lon="7.29516">
        <ele>250</ele>
        <time>2019-08-16T10:00:32Z</time>
      </trkpt>
      <trkpt lat="47.69727" lon="7.29509">
        <ele>250</ele>
        <time>2019-08-16T10:00:33Z</time>
      </trkpt>
      <trkpt lat="47.69728" lon="7.29502">
        <ele>249.9</ele>
        <time>2019-08-16T10:00:34Z</time>
      </trkpt>
      <trkpt lat="47.69728" lon="7.29495">
        <ele>249.9</ele>
        <time>2019-08-16T10:00:35Z</time>
      </trkpt>
      <trkpt lat="47.69728" lon="7.29488">
        <ele>249.9</ele>
        <time>2019-08-16T10:00:36Z</time>
      </trkpt>
      <trkpt lat="47.69728" lon="7.29482">
        <ele>249.9</ele>
        <time>2019-08-16T10:00:37Z</time>
      </trkpt>
      <trkpt lat="47.69727" lon="7.29474">
        <ele>249.9</ele>
        <time>2019-08-16T10:00:38Z</time>
      </trkpt>
      <trkpt lat="47.69727" lon="7.29467">
        <ele>249.8</ele>
        <time>2019-08-16T10:00:39Z</time>
      </trkpt>
      <trkpt lat="47.69726" lon="7.2946">
        <ele>249.8</ele>
        <time>2019-08-16T10:00:40Z</time>
      </trkpt>
      <trkpt lat="47.69727" lon="7.29453">
        <ele>249.8</ele>
        <time>2019-08-16T10:00:41Z</time>
      </trkpt>
      <trkpt lat="47.69726" lon="7.29446">
        <ele>249.8</ele>
        <time>2019-08-16T10:00:42Z</time>
      </trkpt>
      <trkpt lat="47.69725" lon="7.29439">
        <ele>249.8</ele>
        <time>2019-08-16T10:00:43Z</time>
      </trkpt>
      <trkpt lat="47.69724" lon="7.29433">
        <ele>249.7</ele>
        <time>2019-08-16T10:00:44Z</time>
      </trkpt>
      <trkpt lat="47.69723" lon="7.29426">
        <ele>249.7</ele>
        <time>2019-08-16T10:00:45Z</time>
      </trkpt>
      <trkpt lat="47.69723" lon="7.2942">
        <ele>249.7</ele>
        <time>2019-08-16T10:00:46Z</time>
      </trkpt>
      <trkpt lat="47.69723" lon="7.29415">
        <ele>249.7</ele>
        <time>2019-08-16T10:00:47Z</time>
      </trkpt>
      <trkpt lat="47.69723" lon="7.29409">
        <ele>249.7</ele>
        <time>2019-08-16T10:00:48Z</time>
      </trkpt>
      <trkpt lat="47.69723" lon="7.29403">
        <ele>249.7</ele>
        <time>2019-08-16T10:00:49Z</time>
      </trkpt>
      <trkpt lat="47.69723" lon="7.29397">
        <ele>249.7</ele>
        <time>2019-08-16T10:00:50Z</time>
      </trkpt>
      <trkpt lat="47.69722" lon="7.29391">
        <ele>249.7</ele>
        <time>2019-08-16T10:00:51Z</time>
      </trkpt>
      <trkpt lat="47.69721" lon="7.29386">
        <ele>249.6</ele>
        <time>2019-08-16T10:00:52Z</time>
      </trkpt>
      <trkpt lat="47.6972" lon="7.2938">
        <ele>249.6</ele>
        <time>2019-08-16T10:00:53Z</time>
      </trkpt>
      <trkpt lat="47.69719" lon="7.29374">
        <ele>249.6</ele>
        <time>2019-08-16T10:00:54Z</time>
      </trkpt>
      <trkpt lat="47.69719" lon="7.29368">
        <ele>249.6</ele>
        <time>2019-08-16T10:00:55Z</time>
      </trkpt>
      <trkpt lat="47.69719" lon="7.29363">
        <ele>249.6</ele>
        <time>2019-08-16T10:00:56Z</time>
      </trkpt>
      <trkpt lat="47.69718" lon="7.29356">
        <ele>249.6</ele>
        <time>2019-08-16T10:00:57Z</time>
      </trkpt>
      <trkpt lat="47.69717" lon="7.29351">
        <ele>249.6</ele>
        <time>2019-08-16T10:00:58Z</time>
      </trkpt>
      <trkpt lat="47.69716" lon="7.29345">
        <ele>249.6</ele>
        <time>2019-08-16T10:00:59Z</time>
      </trkpt>
      <trkpt lat="47.69715" lon="7.29339">
        <ele>249.6</ele>
        <time>2019-08-16T10:01:00Z</time>
      </trkpt>
      <trkpt lat="47.69714" lon="7.29334">
        <ele>249.6</ele>
        <time>2019-08-16T10:01:01Z</time>
      </trkpt>
      <trkpt lat="47.69713" lon="7.29329">
        <ele>249.6</ele>
        <time>2019-08-16T10:01:02Z</time>
      </trkpt>
      <trkpt lat="47.69713" lon="7.29323">
        <ele>249.6</ele>
        <time>2019-08-16T10:01:03Z</time>
      </trkpt>
      <trkpt lat="47.69712" lon="7.29317">
        <ele>249.6</ele>
        <time>2019-08-16T10:01:04Z</time>
      </trkpt>
      <trkpt lat="47.69711" lon="7.29311">
        <ele>249.6</ele>
        <time>2019-08-16T10:01:05Z</time>
      </trkpt>
      <trkpt lat="47.6971" lon="7.29305">
        <ele>249.6</ele>
        <time>2019-08-16T10:01:06Z</time>
      </trkpt>
      <trkpt lat="47.69708" lon="7.29298">
        <ele>249.6</ele>
        <time>2019-08-16T10:01:07Z</time>
      </trkpt>
      <trkpt lat="47.69707" lon="7.29292">
        <ele>249.5</ele>
        <time>2019-08-16T10:01:08Z</time>
      </trkpt>
      <trkpt lat="47.69706" lon="7.29285">
        <ele>249.5</ele>
        <time>2019-08-16T10:01:09Z</time>
      </trkpt>
      <trkpt lat="47.69705" lon="7.29279">
        <ele>249.5</ele>
        <time>2019-08-16T10:01:10Z</time>
      </trkpt>
      <trkpt lat="47.69704" lon="7.29273">
        <ele>249.4</ele>
        <time>2019-08-16T10:01:11Z</time>
      </trkpt>
      <trkpt lat="47.69703" lon="7.29267">
        <ele>249.4</ele>
        <time>2019-08-16T10:01:12Z</time>
      </trkpt>
      <trkpt lat="47.69702" lon="7.2926">
        <ele>249.3</ele>
        <time>2019-08-16T10:01:13Z</time>
      </trkpt>
      <trkpt lat="47.69701" lon="7.29254">
        <ele>249.3</ele>
        <time>2019-08-16T10:01:14Z</time>
      </trkpt>
      <trkpt lat="47.69699" lon="7.29247">
        <ele>249.2</ele>
        <time>2019-08-16T10:01:15Z</time>
      </trkpt>
      <trkpt lat="47.69698" lon="7.29241">
        <ele>249.2</ele>
        <time>2019-08-16T10:01:16Z</time>
      </trkpt>
      <trkpt lat="47.69696" lon="7.29235">
        <ele>249.1</ele>
        <time>2019-08-16T10:01:17Z</time>
      </trkpt>
      <trkpt lat="47.69695" lon="7.29229">
        <ele>249.1</ele>
        <time>2019-08-16T10:01:18Z</time>
      </trkpt>
      <trkpt lat="47.69693" lon="7.29222">
        <ele>249.1</ele>
        <time>2019-08-16T10:01:19Z</time>
      </trkpt>
      <trkpt lat="47.69692" lon="7.29216">
        <ele>249.1</ele>
        <time>2019-08-16T10:01:20Z</time>
      </trkpt>
      <trkpt lat="47.69691" lon="7.2921">
        <ele>249</ele>
        <time>2019-08-16T10:01:21Z</time>
      </trkpt>
      <trkpt lat="47.69689" lon="7.29204">
        <ele>249</ele>
        <time>2019-08-16T10:01:22Z</time>
      </trkpt>
      <trkpt lat="47.69688" lon="7.29199">
        <ele>249</ele>
        <time>2019-08-16T10:01:23Z</time>
      </trkpt>
      <trkpt lat="47.69687" lon="7.29194">
        <ele>249</ele>
        <time>2019-08-16T10:01:24Z</time>
      </trkpt>
      <trkpt lat="47.69687" lon="7.29188">
        <ele>249</ele>
        <time>2019-08-16T10:01:26Z</time>
      </trkpt>
      <trkpt lat="47.69684" lon="7.29184">
        <ele>249</ele>
        <time>2019-08-16T10:01:40Z</time>
      </trkpt>
      <trkpt lat="47.69683" lon="7.29179">
        <ele>249</ele>
        <time>2019-08-16T10:01:42Z</time>
      </trkpt>
      <trkpt lat="47.69682" lon="7.29173">
        <ele>249</ele>
        <time>2019-08-16T10:01:44Z</time>
      </trkpt>
      <trkpt lat="47.69682" lon="7.29168">
        <ele>249</ele>
        <time>2019-08-16T10:01:45Z</time>
      </trkpt>
      <trkpt lat="47.69681" lon="7.29164">
        <ele>249</ele>
        <time>2019-08-16T10:01:46Z</time>
      </trkpt>
      <trkpt lat="47.69681" lon="7.29158">
        <ele>249</ele>
        <time>2019-08-16T10:01:47Z</time>
      </trkpt>
      <trkpt lat="47.6968" lon="7.29153">
        <ele>249</ele>
        <time>2019-08-16T10:01:48Z</time>
      </trkpt>
      <trkpt lat="47.69679" lon="7.29148">
        <ele>249</ele>
        <time>2019-08-16T10:01:49Z</time>
      </trkpt>
      <trkpt lat="47.69678" lon="7.29142">
        <ele>249</ele>
        <time>2019-08-16T10:01:50Z</time>
      </trkpt>
      <trkpt lat="47.69676" lon="7.29136">
        <ele>249</ele>
        <time>2019-08-16T10:01:51Z</time>
      </trkpt>
      <trkpt lat="47.69674" lon="7.2913">
        <ele>249</ele>
        <time>2019-08-16T10:01:52Z</time>
      </trkpt>
      <trkpt lat="47.69672" lon="7.29124">
        <ele>249</ele>
        <time>2019-08-16T10:01:53Z</time>
      </trkpt>
      <trkpt lat="47.6967" lon="7.29119">
        <ele>249</ele>
        <time>2019-08-16T10:01:54Z</time>
      </trkpt>
      <trkpt lat="47.69667" lon="7.29113">
        <ele>249</ele>
        <time>2019-08-16T10:01:55Z</time>
      </trkpt>
      <trkpt lat="47.69665" lon="7.29107">
        <ele>249</ele>
        <time>2019-08-16T10:01:56Z</time>
      </trkpt>
      <trkpt lat="47.69662" lon="7.29102">
        <ele>249</ele>
        <time>2019-08-16T10:01:57Z</time>
      </trkpt>
      <trkpt lat="47.6966" lon="7.29097">
        <ele>249</ele>
        <time>2019-08-16T10:01:58Z</time>
      </trkpt>
      <trkpt lat="47.69657" lon="7.29092">
        <ele>249</ele>
        <time>2019-08-16T10:01:59Z</time>
      </trkpt>
      <trkpt lat="47.69653" lon="7.29088">
        <ele>249</ele>
        <time>2019-08-16T10:02:00Z</time>
      </trkpt>
      <trkpt lat="47.69649" lon="7.29083">
        <ele>249</ele>
        <time>2019-08-16T10:02:01Z</time>
      </trkpt>
      <trkpt lat="47.69645" lon="7.29078">
        <ele>249</ele>
        <time>2019-08-16T10:02:02Z</time>
      </trkpt>
      <trkpt lat="47.69642" lon="7.29073">
        <ele>249</ele>
        <time>2019-08-16T10:02:03Z</time>
      </trkpt>
      <trkpt lat="47.69639" lon="7.29069">
        <ele>249</ele>
        <time>2019-08-16T10:02:04Z</time>
      </trkpt>
      <trkpt lat="47.69636" lon="7.29065">
        <ele>249.1</ele>
        <time>2019-08-16T10:02:05Z</time>
      </trkpt>
      <trkpt lat="47.69634" lon="7.2906">
        <ele>249.1</ele>
        <time>2019-08-16T10:02:06Z</time>
      </trkpt>
      <trkpt lat="47.69632" lon="7.29057">
        <ele>249.2</ele>
        <time>2019-08-16T10:02:07Z</time>
      </trkpt>
      <trkpt lat="47.6963" lon="7.29053">
        <ele>249.2</ele>
        <time>2019-08-16T10:02:08Z</time>
      </trkpt>
      <trkpt lat="47.69627" lon="7.29049">
        <ele>249.3</ele>
        <time>2019-08-16T10:02:09Z</time>
      </trkpt>
      <trkpt lat="47.69624" lon="7.29045">
        <ele>249.4</ele>
        <time>2019-08-16T10:02:10Z</time>
      </trkpt>
      <trkpt lat="47.69622" lon="7.29041">
        <ele>249.5</ele>
        <time>2019-08-16T10:02:11Z</time>
      </trkpt>
      <trkpt lat="47.69619" lon="7.29037">
        <ele>249.6</ele>
        <time>2019-08-16T10:02:12Z</time>
      </trkpt>
      <trkpt lat="47.69617" lon="7.29032">
        <ele>249.7</ele>
        <time>2019-08-16T10:02:13Z</time>
      </trkpt>
      <trkpt lat="47.69614" lon="7.29027">
        <ele>249.8</ele>
        <time>2019-08-16T10:02:14Z</time>
      </trkpt>
      <trkpt lat="47.69611" lon="7.29022">
        <ele>249.9</ele>
        <time>2019-08-16T10:02:15Z</time>
      </trkpt>
      <trkpt lat="47.69609" lon="7.29017">
        <ele>250</ele>
        <time>2019-08-16T10:02:16Z</time>
      </trkpt>
      <trkpt lat="47.69606" lon="7.29013">
        <ele>250</ele>
        <time>2019-08-16T10:02:17Z</time>
      </trkpt>
      <trkpt lat="47.69603" lon="7.29008">
        <ele>250.1</ele>
        <time>2019-08-16T10:02:18Z</time>
      </trkpt>
      <trkpt lat="47.696" lon="7.29004">
        <ele>250.1</ele>
        <time>2019-08-16T10:02:19Z</time>
      </trkpt>
      <trkpt lat="47.69597" lon="7.28999">
        <ele>250.2</ele>
        <time>2019-08-16T10:02:20Z</time>
      </trkpt>
      <trkpt lat="47.69594" lon="7.28995">
        <ele>250.3</ele>
        <time>2019-08-16T10:02:21Z</time>
      </trkpt>
      <trkpt lat="47.69592" lon="7.2899">
        <ele>250.3</ele>
        <time>2019-08-16T10:02:22Z</time>
      </trkpt>
      <trkpt lat="47.69589" lon="7.28985">
        <ele>250.3</ele>
        <time>2019-08-16T10:02:23Z</time>
      </trkpt>
      <trkpt lat="47.69587" lon="7.28981">
        <ele>250.3</ele>
        <time>2019-08-16T10:02:24Z</time>
      </trkpt>
      <trkpt lat="47.69585" lon="7.28976">
        <ele>250.3</ele>
        <time>2019-08-16T10:02:25Z</time>
      </trkpt>
      <trkpt lat="47.69583" lon="7.28971">
        <ele>250.2</ele>
        <time>2019-08-16T10:02:26Z</time>
      </trkpt>
      <trkpt lat="47.6958" lon="7.28966">
        <ele>250.2</ele>
        <time>2019-08-16T10:02:27Z</time>
      </trkpt>
      <trkpt lat="47.69578" lon="7.28961">
        <ele>250.1</ele>
        <time>2019-08-16T10:02:28Z</time>
      </trkpt>
      <trkpt lat="47.69576" lon="7.28956">
        <ele>250.1</ele>
        <time>2019-08-16T10:02:29Z</time>
      </trkpt>
      <trkpt lat="47.69574" lon="7.28951">
        <ele>250</ele>
        <time>2019-08-16T10:02:30Z</time>
      </trkpt>
      <trkpt lat="47.69571" lon="7.28947">
        <ele>250</ele>
        <time>2019-08-16T10:02:31Z</time>
      </trkpt>
      <trkpt lat="47.69568" lon="7.28943">
        <ele>249.9</ele>
        <time>2019-08-16T10:02:32Z</time>
      </trkpt>
      <trkpt lat="47.69565" lon="7.28939">
        <ele>249.9</ele>
        <time>2019-08-16T10:02:33Z</time>
      </trkpt>
      <trkpt lat="47.69563" lon="7.28934">
        <ele>249.8</ele>
        <time>2019-08-16T10:02:34Z</time>
      </trkpt>
      <trkpt lat="47.6956" lon="7.2893">
        <ele>249.7</ele>
        <time>2019-08-16T10:02:35Z</time>
      </trkpt>
      <trkpt lat="47.69557" lon="7.28926">
        <ele>249.7</ele>
        <time>2019-08-16T10:02:36Z</time>
      </trkpt>
      <trkpt lat="47.69554" lon="7.28922">
        <ele>249.7</ele>
        <time>2019-08-16T10:02:37Z</time>
      </trkpt>
      <trkpt lat="47.69551" lon="7.28917">
        <ele>249.7</ele>
        <time>2019-08-16T10:02:38Z</time>
      </trkpt>
      <trkpt lat="47.69549" lon="7.28913">
        <ele>249.7</ele>
        <time>2019-08-16T10:02:39Z</time>
      </trkpt>
      <trkpt lat="47.69546" lon="7.28908">
        <ele>249.7</ele>
        <time>2019-08-16T10:02:40Z</time>
      </trkpt>
      <trkpt lat="47.69543" lon="7.28904">
        <ele>249.8</ele>
        <time>2019-08-16T10:02:41Z</time>
      </trkpt>
      <trkpt lat="47.6954" lon="7.28899">
        <ele>249.8</ele>
        <time>2019-08-16T10:02:42Z</time>
      </trkpt>
      <trkpt lat="47.69537" lon="7.28895">
        <ele>249.9</ele>
        <time>2019-08-16T10:02:43Z</time>
      </trkpt>
      <trkpt lat="47.69533" lon="7.2889">
        <ele>250</ele>
        <time>2019-08-16T10:02:44Z</time>
      </trkpt>
      <trkpt lat="47.6953" lon="7.28886">
        <ele>250</ele>
        <time>2019-08-16T10:02:45Z</time>
      </trkpt>
      <trkpt lat="47.69526" lon="7.28881">
        <ele>250</ele>
        <time>2019-08-16T10:02:46Z</time>
      </trkpt>
      <trkpt lat="47.69522" lon="7.28876">
        <ele>250</ele>
        <time>2019-08-16T10:02:47Z</time>
      </trkpt>
      <trkpt lat="47.69518" lon="7.28871">
        <ele>250</ele>
        <time>2019-08-16T10:02:48Z</time>
      </trkpt>
      <trkpt lat="47.69515" lon="7.28866">
        <ele>250</ele>
        <time>2019-08-16T10:02:49Z</time>
      </trkpt>
      <trkpt lat="47.69511" lon="7.2886">
        <ele>250</ele>
        <time>2019-08-16T10:02:50Z</time>
      </trkpt>
      <trkpt lat="47.69508" lon="7.28854">
        <ele>250</ele>
        <time>2019-08-16T10:02:51Z</time>
      </trkpt>
      <trkpt lat="47.69505" lon="7.28849">
        <ele>250</ele>
        <time>2019-08-16T10:02:52Z</time>
      </trkpt>
      <trkpt lat="47.69502" lon="7.28844">
        <ele>250</ele>
        <time>2019-08-16T10:02:53Z</time>
      </trkpt>
      <trkpt lat="47.69498" lon="7.2884">
        <ele>250</ele>
        <time>2019-08-16T10:02:54Z</time>
      </trkpt>
      <trkpt lat="47.69495" lon="7.28836">
        <ele>250</ele>
        <time>2019-08-16T10:02:55Z</time>
      </trkpt>
      <trkpt lat="47.69492" lon="7.28831">
        <ele>250</ele>
        <time>2019-08-16T10:02:56Z</time>
      </trkpt>
      <trkpt lat="47.69488" lon="7.28827">
        <ele>250</ele>
        <time>2019-08-16T10:02:57Z</time>
      </trkpt>
      <trkpt lat="47.69485" lon="7.28822">
        <ele>250</ele>
        <time>2019-08-16T10:02:58Z</time>
      </trkpt>
      <trkpt lat="47.69482" lon="7.28818">
        <ele>250</ele>
        <time>2019-08-16T10:02:59Z</time>
      </trkpt>
      <trkpt lat="47.69479" lon="7.28813">
        <ele>250</ele>
        <time>2019-08-16T10:03:00Z</time>
      </trkpt>
      <trkpt lat="47.69476" lon="7.28808">
        <ele>250</ele>
        <time>2019-08-16T10:03:01Z</time>
      </trkpt>
      <trkpt lat="47.69472" lon="7.28803">
        <ele>250</ele>
        <time>2019-08-16T10:03:02Z</time>
      </trkpt>
      <trkpt lat="47.69469" lon="7.28798">
        <ele>250</ele>
        <time>2019-08-16T10:03:03Z</time>
      </trkpt>
      <trkpt lat="47.69466" lon="7.28793">
        <ele>250</ele>
        <time>2019-08-16T10:03:04Z</time>
      </trkpt>
      <trkpt lat="47.69463" lon="7.28788">
        <ele>250</ele>
        <time>2019-08-16T10:03:05Z</time>
      </trkpt>
      <trkpt lat="47.69461" lon="7.28783">
        <ele>250</ele>
        <time>2019-08-16T10:03:06Z</time>
      </trkpt>
      <trkpt lat="47.69458" lon="7.28779">
        <ele>250</ele>
        <time>2019-08-16T10:03:07Z</time>
      </trkpt>
      <trkpt lat="47.69455" lon="7.28774">
        <ele>250</ele>
        <time>2019-08-16T10:03:08Z</time>
      </trkpt>
      <trkpt lat="47.69453" lon="7.28769">
        <ele>250</ele>
        <time>2019-08-16T10:03:09Z</time>
      </trkpt>
      <trkpt lat="47.6945" lon="7.28764">
        <ele>250</ele>
        <time>2019-08-16T10:03:10Z</time>
      </trkpt>
      <trkpt lat="47.69447" lon="7.28759">
        <ele>250</ele>
        <time>2019-08-16T10:03:11Z</time>
      </trkpt>
      <trkpt lat="47.69444" lon="7.28754">
        <ele>250</ele>
        <time>2019-08-16T10:03:12Z</time>
      </trkpt>
      <trkpt lat="47.6944" lon="7.28749">
        <ele>250.1</ele>
        <time>2019-08-16T10:03:13Z</time>
      </trkpt>
      <trkpt lat="47.69437" lon="7.28743">
        <ele>250.1</ele>
        <time>2019-08-16T10:03:14Z</time>
      </trkpt>
      <trkpt lat="47.69433" lon="7.28737">
        <ele>250.1</ele>
        <time>2019-08-16T10:03:15Z</time>
      </trkpt>
      <trkpt lat="47.69431" lon="7.28732">
        <ele>250.2</ele>
        <time>2019-08-16T10:03:16Z</time>
      </trkpt>
      <trkpt lat="47.69427" lon="7.28728">
        <ele>250.3</ele>
        <time>2019-08-16T10:03:17Z</time>
      </trkpt>
      <trkpt lat="47.69423" lon="7.28724">
        <ele>250.4</ele>
        <time>2019-08-16T10:03:18Z</time>
      </trkpt>
      <trkpt lat="47.6942" lon="7.2872">
        <ele>250.6</ele>
        <time>2019-08-16T10:03:19Z</time>
      </trkpt>
      <trkpt lat="47.69416" lon="7.28717">
        <ele>250.7</ele>
        <time>2019-08-16T10:03:20Z</time>
      </trkpt>
      <trkpt lat="47.69412" lon="7.28714">
        <ele>250.8</ele>
        <time>2019-08-16T10:03:21Z</time>
      </trkpt>
      <trkpt lat="47.69408" lon="7.2871">
        <ele>250.9</ele>
        <time>2019-08-16T10:03:22Z</time>
      </trkpt>
      <trkpt lat="47.69404" lon="7.28707">
        <ele>250.9</ele>
        <time>2019-08-16T10:03:23Z</time>
      </trkpt>
      <trkpt lat="47.69399" lon="7.28704">
        <ele>251</ele>
        <time>2019-08-16T10:03:24Z</time>
      </trkpt>
      <trkpt lat="47.69395" lon="7.28701">
        <ele>251</ele>
        <time>2019-08-16T10:03:25Z</time>
      </trkpt>
      <trkpt lat="47.69391" lon="7.28697">
        <ele>251</ele>
        <time>2019-08-16T10:03:26Z</time>
      </trkpt>
      <trkpt lat="47.69387" lon="7.28693">
        <ele>251</ele>
        <time>2019-08-16T10:03:27Z</time>
      </trkpt>
      <trkpt lat="47.69383" lon="7.2869">
        <ele>251</ele>
        <time>2019-08-16T10:03:28Z</time>
      </trkpt>
      <trkpt lat="47.69378" lon="7.28686">
        <ele>251</ele>
        <time>2019-08-16T10:03:29Z</time>
      </trkpt>
      <trkpt lat="47.69374" lon="7.28682">
        <ele>251</ele>
        <time>2019-08-16T10:03:30Z</time>
      </trkpt>
      <trkpt lat="47.6937" lon="7.28678">
        <ele>251</ele>
        <time>2019-08-16T10:03:31Z</time>
      </trkpt>
      <trkpt lat="47.69367" lon="7.28674">
        <ele>251</ele>
        <time>2019-08-16T10:03:32Z</time>
      </trkpt>
      <trkpt lat="47.69363" lon="7.2867">
        <ele>251</ele>
        <time>2019-08-16T10:03:33Z</time>
      </trkpt>
      <trkpt lat="47.6936" lon="7.28665">
        <ele>251</ele>
        <time>2019-08-16T10:03:34Z</time>
      </trkpt>
      <trkpt lat="47.69357" lon="7.28661">
        <ele>251</ele>
        <time>2019-08-16T10:03:35Z</time>
      </trkpt>
      <trkpt lat="47.69353" lon="7.28657">
        <ele>251</ele>
        <time>2019-08-16T10:03:36Z</time>
      </trkpt>
      <trkpt lat="47.6935" lon="7.28652">
        <ele>251</ele>
        <time>2019-08-16T10:03:37Z</time>
      </trkpt>
      <trkpt lat="47.69347" lon="7.28647">
        <ele>251</ele>
        <time>2019-08-16T10:03:38Z</time>
      </trkpt>
      <trkpt lat="47.69344" lon="7.28644">
        <ele>251</ele>
        <time>2019-08-16T10:03:39Z</time>
      </trkpt>
      <trkpt lat="47.69341" lon="7.28641">
        <ele>251</ele>
        <time>2019-08-16T10:03:40Z</time>
      </trkpt>
      <trkpt lat="47.69337" lon="7.28637">
        <ele>251</ele>
        <time>2019-08-16T10:03:41Z</time>
      </trkpt>
      <trkpt lat="47.69334" lon="7.28635">
        <ele>251</ele>
        <time>2019-08-16T10:03:42Z</time>
      </trkpt>
      <trkpt lat="47.6933" lon="7.28632">
        <ele>251</ele>
        <time>2019-08-16T10:03:43Z</time>
      </trkpt>
      <trkpt lat="47.69327" lon="7.28629">
        <ele>251</ele>
        <time>2019-08-16T10:03:44Z</time>
      </trkpt>
      <trkpt lat="47.69323" lon="7.28625">
        <ele>251</ele>
        <time>2019-08-16T10:03:45Z</time>
      </trkpt>
      <trkpt lat="47.6932" lon="7.28622">
        <ele>251</ele>
        <time>2019-08-16T10:03:46Z</time>
      </trkpt>
      <trkpt lat="47.69317" lon="7.2862">
        <ele>251</ele>
        <time>2019-08-16T10:03:47Z</time>
      </trkpt>
      <trkpt lat="47.69314" lon="7.28616">
        <ele>251</ele>
        <time>2019-08-16T10:03:48Z</time>
      </trkpt>
      <trkpt lat="47.69311" lon="7.28613">
        <ele>251</ele>
        <time>2019-08-16T10:03:49Z</time>
      </trkpt>
      <trkpt lat="47.69308" lon="7.28611">
        <ele>251</ele>
        <time>2019-08-16T10:03:50Z</time>
      </trkpt>
      <trkpt lat="47.69306" lon="7.28609">
        <ele>251</ele>
        <time>2019-08-16T10:03:51Z</time>
      </trkpt>
      <trkpt lat="47.69303" lon="7.28606">
        <ele>251</ele>
        <time>2019-08-16T10:03:52Z</time>
      </trkpt>
      <trkpt lat="47.693" lon="7.28602">
        <ele>251.1</ele>
        <time>2019-08-16T10:03:53Z</time>
      </trkpt>
      <trkpt lat="47.69297" lon="7.28597">
        <ele>251.1</ele>
        <time>2019-08-16T10:03:54Z</time>
      </trkpt>
      <trkpt lat="47.69294" lon="7.28593">
        <ele>251.1</ele>
        <time>2019-08-16T10:03:55Z</time>
      </trkpt>
      <trkpt lat="47.69292" lon="7.28589">
        <ele>251.2</ele>
        <time>2019-08-16T10:03:56Z</time>
      </trkpt>
      <trkpt lat="47.69289" lon="7.28584">
        <ele>251.2</ele>
        <time>2019-08-16T10:03:57Z</time>
      </trkpt>
      <trkpt lat="47.69287" lon="7.28578">
        <ele>251.2</ele>
        <time>2019-08-16T10:03:58Z</time>
      </trkpt>
      <trkpt lat="47.69284" lon="7.28572">
        <ele>251.1</ele>
        <time>2019-08-16T10:03:59Z</time>
      </trkpt>
      <trkpt lat="47.69282" lon="7.28567">
        <ele>251.1</ele>
        <time>2019-08-16T10:04:00Z</time>
      </trkpt>
      <trkpt lat="47.6928" lon="7.2856">
        <ele>251.1</ele>
        <time>2019-08-16T10:04:01Z</time>
      </trkpt>
      <trkpt lat="47.69278" lon="7.28554">
        <ele>251.1</ele>
        <time>2019-08-16T10:04:02Z</time>
      </trkpt>
      <trkpt lat="47.69276" lon="7.28547">
        <ele>251</ele>
        <time>2019-08-16T10:04:03Z</time>
      </trkpt>
      <trkpt lat="47.69274" lon="7.28541">
        <ele>251</ele>
        <time>2019-08-16T10:04:04Z</time>
      </trkpt>
      <trkpt lat="47.69273" lon="7.28535">
        <ele>251</ele>
        <time>2019-08-16T10:04:05Z</time>
      </trkpt>
      <trkpt lat="47.69273" lon="7.28529">
        <ele>251</ele>
        <time>2019-08-16T10:04:06Z</time>
      </trkpt>
      <trkpt lat="47.69273" lon="7.28524">
        <ele>251.1</ele>
        <time>2019-08-16T10:04:07Z</time>
      </trkpt>
      <trkpt lat="47.69272" lon="7.28518">
        <ele>251.1</ele>
        <time>2019-08-16T10:04:08Z</time>
      </trkpt>
      <trkpt lat="47.69271" lon="7.28512">
        <ele>251.2</ele>
        <time>2019-08-16T10:04:09Z</time>
      </trkpt>
      <trkpt lat="47.69271" lon="7.28506">
        <ele>251.2</ele>
        <time>2019-08-16T10:04:10Z</time>
      </trkpt>
      <trkpt lat="47.6927" lon="7.28501">
        <ele>251.3</ele>
        <time>2019-08-16T10:04:11Z</time>
      </trkpt>
      <trkpt lat="47.6927" lon="7.28496">
        <ele>251.4</ele>
        <time>2019-08-16T10:04:12Z</time>
      </trkpt>
      <trkpt lat="47.69269" lon="7.28491">
        <ele>251.5</ele>
        <time>2019-08-16T10:04:13Z</time>
      </trkpt>
      <trkpt lat="47.69268" lon="7.28486">
        <ele>251.6</ele>
        <time>2019-08-16T10:04:14Z</time>
      </trkpt>
      <trkpt lat="47.69267" lon="7.28481">
        <ele>251.7</ele>
        <time>2019-08-16T10:04:15Z</time>
      </trkpt>
      <trkpt lat="47.69266" lon="7.28475">
        <ele>251.8</ele>
        <time>2019-08-16T10:04:16Z</time>
      </trkpt>
      <trkpt lat="47.69265" lon="7.2847">
        <ele>251.9</ele>
        <time>2019-08-16T10:04:17Z</time>
      </trkpt>
      <trkpt lat="47.69264" lon="7.28465">
        <ele>252</ele>
        <time>2019-08-16T10:04:18Z</time>
      </trkpt>
      <trkpt lat="47.69262" lon="7.28459">
        <ele>252</ele>
        <time>2019-08-16T10:04:19Z</time>
      </trkpt>
      <trkpt lat="47.69261" lon="7.28455">
        <ele>252</ele>
        <time>2019-08-16T10:04:20Z</time>
      </trkpt>
      <trkpt lat="47.69259" lon="7.2845">
        <ele>252.1</ele>
        <time>2019-08-16T10:04:21Z</time>
      </trkpt>
      <trkpt lat="47.69257" lon="7.28445">
        <ele>252.2</ele>
        <time>2019-08-16T10:04:22Z</time>
      </trkpt>
      <trkpt lat="47.69255" lon="7.28441">
        <ele>252.3</ele>
        <time>2019-08-16T10:04:23Z</time>
      </trkpt>
      <trkpt lat="47.69252" lon="7.28438">
        <ele>252.4</ele>
        <time>2019-08-16T10:04:24Z</time>
      </trkpt>
      <trkpt lat="47.69251" lon="7.28434">
        <ele>252.5</ele>
        <time>2019-08-16T10:04:25Z</time>
      </trkpt>
      <trkpt lat="47.69248" lon="7.28429">
        <ele>252.6</ele>
        <time>2019-08-16T10:04:27Z</time>
      </trkpt>
      <trkpt lat="47.69245" lon="7.28426">
        <ele>252.8</ele>
        <time>2019-08-16T10:04:29Z</time>
      </trkpt>
      <trkpt lat="47.69244" lon="7.2842">
        <ele>253</ele>
        <time>2019-08-16T10:04:31Z</time>
      </trkpt>
      <trkpt lat="47.69242" lon="7.28414">
        <ele>253.2</ele>
        <time>2019-08-16T10:04:33Z</time>
      </trkpt>
      <trkpt lat="47.6924" lon="7.2841">
        <ele>253.3</ele>
        <time>2019-08-16T10:04:34Z</time>
      </trkpt>
      <trkpt lat="47.69239" lon="7.28406">
        <ele>253.3</ele>
        <time>2019-08-16T10:04:35Z</time>
      </trkpt>
      <trkpt lat="47.69236" lon="7.28403">
        <ele>253.4</ele>
        <time>2019-08-16T10:04:36Z</time>
      </trkpt>
      <trkpt lat="47.69232" lon="7.28399">
        <ele>253.5</ele>
        <time>2019-08-16T10:04:37Z</time>
      </trkpt>
      <trkpt lat="47.6923" lon="7.28395">
        <ele>253.6</ele>
        <time>2019-08-16T10:04:38Z</time>
      </trkpt>
      <trkpt lat="47.69227" lon="7.28391">
        <ele>253.7</ele>
        <time>2019-08-16T10:04:39Z</time>
      </trkpt>
      <trkpt lat="47.69224" lon="7.28388">
        <ele>253.8</ele>
        <time>2019-08-16T10:04:40Z</time>
      </trkpt>
      <trkpt lat="47.69221" lon="7.28384">
        <ele>253.8</ele>
        <time>2019-08-16T10:04:41Z</time>
      </trkpt>
      <trkpt lat="47.69218" lon="7.2838">
        <ele>253.9</ele>
        <time>2019-08-16T10:04:42Z</time>
      </trkpt>
      <trkpt lat="47.69214" lon="7.28376">
        <ele>253.9</ele>
        <time>2019-08-16T10:04:43Z</time>
      </trkpt>
      <trkpt lat="47.69212" lon="7.28372">
        <ele>253.9</ele>
        <time>2019-08-16T10:04:44Z</time>
      </trkpt>
      <trkpt lat="47.69209" lon="7.28368">
        <ele>253.9</ele>
        <time>2019-08-16T10:04:45Z</time>
      </trkpt>
      <trkpt lat="47.69206" lon="7.28366">
        <ele>253.9</ele>
        <time>2019-08-16T10:04:46Z</time>
      </trkpt>
      <trkpt lat="47.69203" lon="7.28363">
        <ele>253.9</ele>
        <time>2019-08-16T10:04:47Z</time>
      </trkpt>
      <trkpt lat="47.692" lon="7.28359">
        <ele>253.9</ele>
        <time>2019-08-16T10:04:48Z</time>
      </trkpt>
      <trkpt lat="47.69196" lon="7.28356">
        <ele>253.9</ele>
        <time>2019-08-16T10:04:49Z</time>
      </trkpt>
      <trkpt lat="47.69193" lon="7.28353">
        <ele>253.9</ele>
        <time>2019-08-16T10:04:50Z</time>
      </trkpt>
      <trkpt lat="47.69189" lon="7.2835">
        <ele>253.8</ele>
        <time>2019-08-16T10:04:51Z</time>
      </trkpt>
      <trkpt lat="47.69185" lon="7.28346">
        <ele>253.8</ele>
        <time>2019-08-16T10:04:52Z</time>
      </trkpt>
      <trkpt lat="47.69181" lon="7.28343">
        <ele>253.8</ele>
        <time>2019-08-16T10:04:53Z</time>
      </trkpt>
      <trkpt lat="47.69177" lon="7.28339">
        <ele>253.8</ele>
        <time>2019-08-16T10:04:54Z</time>
      </trkpt>
      <trkpt lat="47.69174" lon="7.28335">
        <ele>253.8</ele>
        <time>2019-08-16T10:04:55Z</time>
      </trkpt>
      <trkpt lat="47.6917" lon="7.28331">
        <ele>253.8</ele>
        <time>2019-08-16T10:04:56Z</time>
      </trkpt>
      <trkpt lat="47.69167" lon="7.28327">
        <ele>253.8</ele>
        <time>2019-08-16T10:04:57Z</time>
      </trkpt>
      <trkpt lat="47.69164" lon="7.28323">
        <ele>253.8</ele>
        <time>2019-08-16T10:04:58Z</time>
      </trkpt>
      <trkpt lat="47.69161" lon="7.2832">
        <ele>253.8</ele>
        <time>2019-08-16T10:04:59Z</time>
      </trkpt>
      <trkpt lat="47.69157" lon="7.28316">
        <ele>253.7</ele>
        <time>2019-08-16T10:05:00Z</time>
      </trkpt>
      <trkpt lat="47.69153" lon="7.28313">
        <ele>253.7</ele>
        <time>2019-08-16T10:05:01Z</time>
      </trkpt>
      <trkpt lat="47.69149" lon="7.28309">
        <ele>253.7</ele>
        <time>2019-08-16T10:05:02Z</time>
      </trkpt>
      <trkpt lat="47.69145" lon="7.28305">
        <ele>253.7</ele>
        <time>2019-08-16T10:05:03Z</time>
      </trkpt>
      <trkpt lat="47.69141" lon="7.28301">
        <ele>253.7</ele>
        <time>2019-08-16T10:05:04Z</time>
      </trkpt>
      <trkpt lat="47.69138" lon="7.28298">
        <ele>253.7</ele>
        <time>2019-08-16T10:05:05Z</time>
      </trkpt>
      <trkpt lat="47.69134" lon="7.28295">
        <ele>253.7</ele>
        <time>2019-08-16T10:05:06Z</time>
      </trkpt>
      <trkpt lat="47.6913" lon="7.28292">
        <ele>253.7</ele>
        <time>2019-08-16T10:05:07Z</time>
      </trkpt>
      <trkpt lat="47.69127" lon="7.2829">
        <ele>253.6</ele>
        <time>2019-08-16T10:05:08Z</time>
      </trkpt>
      <trkpt lat="47.69124" lon="7.28287">
        <ele>253.6</ele>
        <time>2019-08-16T10:05:09Z</time>
      </trkpt>
      <trkpt lat="47.6912" lon="7.28283">
        <ele>253.6</ele>
        <time>2019-08-16T10:05:10Z</time>
      </trkpt>
      <trkpt lat="47.69116" lon="7.2828">
        <ele>253.6</ele>
        <time>2019-08-16T10:05:11Z</time>
      </trkpt>
      <trkpt lat="47.69112" lon="7.28277">
        <ele>253.6</ele>
        <time>2019-08-16T10:05:12Z</time>
      </trkpt>
      <trkpt lat="47.69108" lon="7.28274">
        <ele>253.6</ele>
        <time>2019-08-16T10:05:13Z</time>
      </trkpt>
      <trkpt lat="47.69104" lon="7.28271">
        <ele>253.6</ele>
        <time>2019-08-16T10:05:14Z</time>
      </trkpt>
      <trkpt lat="47.69099" lon="7.28268">
        <ele>253.6</ele>
        <time>2019-08-16T10:05:15Z</time>
      </trkpt>
      <trkpt lat="47.69095" lon="7.28266">
        <ele>253.6</ele>
        <time>2019-08-16T10:05:16Z</time>
      </trkpt>
      <trkpt lat="47.69091" lon="7.28263">
        <ele>253.5</ele>
        <time>2019-08-16T10:05:17Z</time>
      </trkpt>
      <trkpt lat="47.69087" lon="7.2826">
        <ele>253.5</ele>
        <time>2019-08-16T10:05:18Z</time>
      </trkpt>
      <trkpt lat="47.69083" lon="7.28257">
        <ele>253.5</ele>
        <time>2019-08-16T10:05:19Z</time>
      </trkpt>
      <trkpt lat="47.69079" lon="7.28254">
        <ele>253.5</ele>
        <time>2019-08-16T10:05:20Z</time>
      </trkpt>
      <trkpt lat="47.69076" lon="7.2825">
        <ele>253.5</ele>
        <time>2019-08-16T10:05:21Z</time>
      </trkpt>
      <trkpt lat="47.69072" lon="7.28248">
        <ele>253.5</ele>
        <time>2019-08-16T10:05:22Z</time>
      </trkpt>
      <trkpt lat="47.69068" lon="7.28245">
        <ele>253.5</ele>
        <time>2019-08-16T10:05:23Z</time>
      </trkpt>
      <trkpt lat="47.69063" lon="7.28242">
        <ele>253.5</ele>
        <time>2019-08-16T10:05:24Z</time>
      </trkpt>
      <trkpt lat="47.69059" lon="7.28239">
        <ele>253.4</ele>
        <time>2019-08-16T10:05:25Z</time>
      </trkpt>
      <trkpt lat="47.69054" lon="7.28235">
        <ele>253.4</ele>
        <time>2019-08-16T10:05:26Z</time>
      </trkpt>
      <trkpt lat="47.69049" lon="7.28232">
        <ele>253.4</ele>
        <time>2019-08-16T10:05:27Z</time>
      </trkpt>
      <trkpt lat="47.69045" lon="7.28229">
        <ele>253.4</ele>
        <time>2019-08-16T10:05:28Z</time>
      </trkpt>
      <trkpt lat="47.6904" lon="7.28226">
        <ele>253.4</ele>
        <time>2019-08-16T10:05:29Z</time>
      </trkpt>
      <trkpt lat="47.69036" lon="7.28223">
        <ele>253.4</ele>
        <time>2019-08-16T10:05:30Z</time>
      </trkpt>
      <trkpt lat="47.69032" lon="7.2822">
        <ele>253.4</ele>
        <time>2019-08-16T10:05:31Z</time>
      </trkpt>
      <trkpt lat="47.69027" lon="7.28217">
        <ele>253.4</ele>
        <time>2019-08-16T10:05:32Z</time>
      </trkpt>
      <trkpt lat="47.69022" lon="7.28214">
        <ele>253.3</ele>
        <time>2019-08-16T10:05:33Z</time>
      </trkpt>
      <trkpt lat="47.69016" lon="7.28211">
        <ele>253.3</ele>
        <time>2019-08-16T10:05:34Z</time>
      </trkpt>
      <trkpt lat="47.69012" lon="7.28208">
        <ele>253.3</ele>
        <time>2019-08-16T10:05:35Z</time>
      </trkpt>
      <trkpt lat="47.69007" lon="7.28205">
        <ele>253.3</ele>
        <time>2019-08-16T10:05:36Z</time>
      </trkpt>
      <trkpt lat="47.69002" lon="7.28202">
        <ele>253.3</ele>
        <time>2019-08-16T10:05:37Z</time>
      </trkpt>
      <trkpt lat="47.68998" lon="7.28199">
        <ele>253.3</ele>
        <time>2019-08-16T10:05:38Z</time>
      </trkpt>
      <trkpt lat="47.68994" lon="7.28197">
        <ele>253.3</ele>
        <time>2019-08-16T10:05:39Z</time>
      </trkpt>
      <trkpt lat="47.68989" lon="7.28194">
        <ele>253.3</ele>
        <time>2019-08-16T10:05:40Z</time>
      </trkpt>
      <trkpt lat="47.68985" lon="7.28192">
        <ele>253.2</ele>
        <time>2019-08-16T10:05:41Z</time>
      </trkpt>
      <trkpt lat="47.68981" lon="7.2819">
        <ele>253.2</ele>
        <time>2019-08-16T10:05:42Z</time>
      </trkpt>
      <trkpt lat="47.68977" lon="7.28189">
        <ele>253.2</ele>
        <time>2019-08-16T10:05:43Z</time>
      </trkpt>
      <trkpt lat="47.68973" lon="7.28187">
        <ele>253.2</ele>
        <time>2019-08-16T10:05:44Z</time>
      </trkpt>
      <trkpt lat="47.68969" lon="7.28185">
        <ele>253.2</ele>
        <time>2019-08-16T10:05:45Z</time>
      </trkpt>
      <trkpt lat="47.68965" lon="7.28183">
        <ele>253.2</ele>
        <time>2019-08-16T10:05:46Z</time>
      </trkpt>
      <trkpt lat="47.68961" lon="7.28181">
        <ele>253.2</ele>
        <time>2019-08-16T10:05:47Z</time>
      </trkpt>
      <trkpt lat="47.68956" lon="7.28179">
        <ele>253.2</ele>
        <time>2019-08-16T10:05:48Z</time>
      </trkpt>
      <trkpt lat="47.68952" lon="7.28177">
        <ele>253.2</ele>
        <time>2019-08-16T10:05:49Z</time>
      </trkpt>
      <trkpt lat="47.68948" lon="7.28174">
        <ele>253.1</ele>
        <time>2019-08-16T10:05:50Z</time>
      </trkpt>
      <trkpt lat="47.68944" lon="7.28172">
        <ele>253.1</ele>
        <time>2019-08-16T10:05:51Z</time>
      </trkpt>
      <trkpt lat="47.6894" lon="7.28169">
        <ele>253.1</ele>
        <time>2019-08-16T10:05:52Z</time>
      </trkpt>
      <trkpt lat="47.68936" lon="7.28167">
        <ele>253.1</ele>
        <time>2019-08-16T10:05:53Z</time>
      </trkpt>
      <trkpt lat="47.6893" lon="7.28164">
        <ele>253.1</ele>
        <time>2019-08-16T10:05:54Z</time>
      </trkpt>
      <trkpt lat="47.68926" lon="7.28162">
        <ele>253.1</ele>
        <time>2019-08-16T10:05:55Z</time>
      </trkpt>
      <trkpt lat="47.68921" lon="7.28161">
        <ele>253.1</ele>
        <time>2019-08-16T10:05:56Z</time>
      </trkpt>
      <trkpt lat="47.68916" lon="7.28159">
        <ele>253.1</ele>
        <time>2019-08-16T10:05:57Z</time>
      </trkpt>
      <trkpt lat="47.68912" lon="7.28155">
        <ele>253</ele>
        <time>2019-08-16T10:05:58Z</time>
      </trkpt>
      <trkpt lat="47.68909" lon="7.28152">
        <ele>253</ele>
        <time>2019-08-16T10:05:59Z</time>
      </trkpt>
      <trkpt lat="47.68905" lon="7.28148">
        <ele>253</ele>
        <time>2019-08-16T10:06:00Z</time>
      </trkpt>
      <trkpt lat="47.689" lon="7.28146">
        <ele>253</ele>
        <time>2019-08-16T10:06:01Z</time>
      </trkpt>
      <trkpt lat="47.68894" lon="7.28144">
        <ele>253</ele>
        <time>2019-08-16T10:06:02Z</time>
      </trkpt>
      <trkpt lat="47.6889" lon="7.28141">
        <ele>253</ele>
        <time>2019-08-16T10:06:03Z</time>
      </trkpt>
      <trkpt lat="47.68885" lon="7.28139">
        <ele>253</ele>
        <time>2019-08-16T10:06:04Z</time>
      </trkpt>
      <trkpt lat="47.6888" lon="7.28138">
        <ele>252.9</ele>
        <time>2019-08-16T10:06:05Z</time>
      </trkpt>
      <trkpt lat="47.68876" lon="7.28135">
        <ele>252.9</ele>
        <time>2019-08-16T10:06:06Z</time>
      </trkpt>
      <trkpt lat="47.68871" lon="7.28133">
        <ele>252.9</ele>
        <time>2019-08-16T10:06:07Z</time>
      </trkpt>
      <trkpt lat="47.68866" lon="7.28131">
        <ele>252.9</ele>
        <time>2019-08-16T10:06:08Z</time>
      </trkpt>
      <trkpt lat="47.68862" lon="7.28127">
        <ele>252.9</ele>
        <time>2019-08-16T10:06:09Z</time>
      </trkpt>
      <trkpt lat="47.68858" lon="7.28125">
        <ele>252.9</ele>
        <time>2019-08-16T10:06:10Z</time>
      </trkpt>
      <trkpt lat="47.68854" lon="7.28121">
        <ele>252.9</ele>
        <time>2019-08-16T10:06:11Z</time>
      </trkpt>
      <trkpt lat="47.6885" lon="7.28118">
        <ele>252.9</ele>
        <time>2019-08-16T10:06:12Z</time>
      </trkpt>
      <trkpt lat="47.68846" lon="7.28115">
        <ele>252.8</ele>
        <time>2019-08-16T10:06:13Z</time>
      </trkpt>
      <trkpt lat="47.68842" lon="7.28113">
        <ele>252.8</ele>
        <time>2019-08-16T10:06:14Z</time>
      </trkpt>
      <trkpt lat="47.68838" lon="7.2811">
        <ele>252.8</ele>
        <time>2019-08-16T10:06:15Z</time>
      </trkpt>
      <trkpt lat="47.68834" lon="7.28107">
        <ele>252.8</ele>
        <time>2019-08-16T10:06:16Z</time>
      </trkpt>
      <trkpt lat="47.6883" lon="7.28104">
        <ele>252.8</ele>
        <time>2019-08-16T10:06:17Z</time>
      </trkpt>
      <trkpt lat="47.68826" lon="7.28101">
        <ele>252.8</ele>
        <time>2019-08-16T10:06:18Z</time>
      </trkpt>
      <trkpt lat="47.68822" lon="7.28097">
        <ele>252.8</ele>
        <time>2019-08-16T10:06:19Z</time>
      </trkpt>
      <trkpt lat="47.68818" lon="7.28094">
        <ele>252.8</ele>
        <time>2019-08-16T10:06:20Z</time>
      </trkpt>
      <trkpt lat="47.68814" lon="7.2809">
        <ele>252.7</ele>
        <time>2019-08-16T10:06:21Z</time>
      </trkpt>
      <trkpt lat="47.6881" lon="7.28087">
        <ele>252.7</ele>
        <time>2019-08-16T10:06:22Z</time>
      </trkpt>
      <trkpt lat="47.68806" lon="7.28084">
        <ele>252.7</ele>
        <time>2019-08-16T10:06:23Z</time>
      </trkpt>
      <trkpt lat="47.68801" lon="7.28081">
        <ele>252.7</ele>
        <time>2019-08-16T10:06:24Z</time>
      </trkpt>
      <trkpt lat="47.68796" lon="7.28078">
        <ele>252.7</ele>
        <time>2019-08-16T10:06:25Z</time>
      </trkpt>
      <trkpt lat="47.68792" lon="7.28074">
        <ele>252.7</ele>
        <time>2019-08-16T10:06:26Z</time>
      </trkpt>
      <trkpt lat="47.68788" lon="7.28071">
        <ele>252.7</ele>
        <time>2019-08-16T10:06:27Z</time>
      </trkpt>
      <trkpt lat="47.68784" lon="7.28068">
        <ele>252.6</ele>
        <time>2019-08-16T10:06:28Z</time>
      </trkpt>
      <trkpt lat="47.6878" lon="7.28065">
        <ele>252.6</ele>
        <time>2019-08-16T10:06:29Z</time>
      </trkpt>
      <trkpt lat="47.68776" lon="7.28062">
        <ele>252.6</ele>
        <time>2019-08-16T10:06:30Z</time>
      </trkpt>
      <trkpt lat="47.68772" lon="7.28059">
        <ele>252.6</ele>
        <time>2019-08-16T10:06:31Z</time>
      </trkpt>
      <trkpt lat="47.68768" lon="7.28056">
        <ele>252.6</ele>
        <time>2019-08-16T10:06:32Z</time>
      </trkpt>
      <trkpt lat="47.68764" lon="7.28052">
        <ele>252.6</ele>
        <time>2019-08-16T10:06:33Z</time>
      </trkpt>
      <trkpt lat="47.68759" lon="7.28049">
        <ele>252.6</ele>
        <time>2019-08-16T10:06:34Z</time>
      </trkpt>
      <trkpt lat="47.68755" lon="7.28047">
        <ele>252.6</ele>
        <time>2019-08-16T10:06:35Z</time>
      </trkpt>
      <trkpt lat="47.68751" lon="7.28044">
        <ele>252.6</ele>
        <time>2019-08-16T10:06:36Z</time>
      </trkpt>
      <trkpt lat="47.68747" lon="7.2804">
        <ele>252.5</ele>
        <time>2019-08-16T10:06:37Z</time>
      </trkpt>
      <trkpt lat="47.68743" lon="7.28036">
        <ele>252.5</ele>
        <time>2019-08-16T10:06:38Z</time>
      </trkpt>
      <trkpt lat="47.68738" lon="7.28031">
        <ele>252.5</ele>
        <time>2019-08-16T10:06:39Z</time>
      </trkpt>
      <trkpt lat="47.68734" lon="7.28026">
        <ele>252.5</ele>
        <time>2019-08-16T10:06:40Z</time>
      </trkpt>
      <trkpt lat="47.68731" lon="7.28021">
        <ele>252.5</ele>
        <time>2019-08-16T10:06:41Z</time>
      </trkpt>
      <trkpt lat="47.68726" lon="7.28016">
        <ele>252.5</ele>
        <time>2019-08-16T10:06:42Z</time>
      </trkpt>
      <trkpt lat="47.68722" lon="7.28011">
        <ele>252.5</ele>
        <time>2019-08-16T10:06:43Z</time>
      </trkpt>
      <trkpt lat="47.68718" lon="7.28006">
        <ele>252.4</ele>
        <time>2019-08-16T10:06:44Z</time>
      </trkpt>
      <trkpt lat="47.68713" lon="7.28001">
        <ele>252.4</ele>
        <time>2019-08-16T10:06:45Z</time>
      </trkpt>
      <trkpt lat="47.6871" lon="7.27996">
        <ele>252.4</ele>
        <time>2019-08-16T10:06:46Z</time>
      </trkpt>
      <trkpt lat="47.68706" lon="7.27992">
        <ele>252.4</ele>
        <time>2019-08-16T10:06:47Z</time>
      </trkpt>
      <trkpt lat="47.68702" lon="7.27988">
        <ele>252.4</ele>
        <time>2019-08-16T10:06:48Z</time>
      </trkpt>
      <trkpt lat="47.68698" lon="7.27984">
        <ele>252.4</ele>
        <time>2019-08-16T10:06:49Z</time>
      </trkpt>
      <trkpt lat="47.68695" lon="7.2798">
        <ele>252.4</ele>
        <time>2019-08-16T10:06:50Z</time>
      </trkpt>
      <trkpt lat="47.68691" lon="7.27976">
        <ele>252.4</ele>
        <time>2019-08-16T10:06:51Z</time>
      </trkpt>
      <trkpt lat="47.68687" lon="7.27972">
        <ele>252.4</ele>
        <time>2019-08-16T10:06:52Z</time>
      </trkpt>
      <trkpt lat="47.68683" lon="7.27968">
        <ele>252.4</ele>
        <time>2019-08-16T10:06:53Z</time>
      </trkpt>
      <trkpt lat="47.6868" lon="7.27965">
        <ele>252.3</ele>
        <time>2019-08-16T10:06:54Z</time>
      </trkpt>
      <trkpt lat="47.68677" lon="7.27961">
        <ele>252.3</ele>
        <time>2019-08-16T10:06:55Z</time>
      </trkpt>
      <trkpt lat="47.68675" lon="7.27957">
        <ele>252.3</ele>
        <time>2019-08-16T10:06:56Z</time>
      </trkpt>
      <trkpt lat="47.68672" lon="7.27953">
        <ele>252.3</ele>
        <time>2019-08-16T10:06:57Z</time>
      </trkpt>
      <trkpt lat="47.68669" lon="7.27949">
        <ele>252.3</ele>
        <time>2019-08-16T10:06:58Z</time>
      </trkpt>
      <trkpt lat="47.68665" lon="7.27946">
        <ele>252.3</ele>
        <time>2019-08-16T10:06:59Z</time>
      </trkpt>
      <trkpt lat="47.68661" lon="7.27941">
        <ele>252.3</ele>
        <time>2019-08-16T10:07:00Z</time>
      </trkpt>
      <trkpt lat="47.68657" lon="7.27937">
        <ele>252.3</ele>
        <time>2019-08-16T10:07:01Z</time>
      </trkpt>
      <trkpt lat="47.68654" lon="7.27932">
        <ele>252.3</ele>
        <time>2019-08-16T10:07:02Z</time>
      </trkpt>
      <trkpt lat="47.68651" lon="7.27928">
        <ele>252.3</ele>
        <time>2019-08-16T10:07:03Z</time>
      </trkpt>
      <trkpt lat="47.68648" lon="7.27924">
        <ele>252.2</ele>
        <time>2019-08-16T10:07:04Z</time>
      </trkpt>
      <trkpt lat="47.68646" lon="7.27919">
        <ele>252.2</ele>
        <time>2019-08-16T10:07:05Z</time>
      </trkpt>
      <trkpt lat="47.68643" lon="7.27914">
        <ele>252.2</ele>
        <time>2019-08-16T10:07:06Z</time>
      </trkpt>
      <trkpt lat="47.6864" lon="7.2791">
        <ele>252.2</ele>
        <time>2019-08-16T10:07:07Z</time>
      </trkpt>
      <trkpt lat="47.68637" lon="7.27906">
        <ele>252.2</ele>
        <time>2019-08-16T10:07:08Z</time>
      </trkpt>
      <trkpt lat="47.68633" lon="7.27901">
        <ele>252.2</ele>
        <time>2019-08-16T10:07:09Z</time>
      </trkpt>
      <trkpt lat="47.6863" lon="7.27897">
        <ele>252.2</ele>
        <time>2019-08-16T10:07:10Z</time>
      </trkpt>
      <trkpt lat="47.68628" lon="7.27893">
        <ele>252.2</ele>
        <time>2019-08-16T10:07:11Z</time>
      </trkpt>
      <trkpt lat="47.68625" lon="7.27889">
        <ele>252.2</ele>
        <time>2019-08-16T10:07:12Z</time>
      </trkpt>
      <trkpt lat="47.68622" lon="7.27885">
        <ele>252.1</ele>
        <time>2019-08-16T10:07:13Z</time>
      </trkpt>
      <trkpt lat="47.6862" lon="7.2788">
        <ele>252.1</ele>
        <time>2019-08-16T10:07:14Z</time>
      </trkpt>
      <trkpt lat="47.68615" lon="7.27875">
        <ele>252.1</ele>
        <time>2019-08-16T10:07:15Z</time>
      </trkpt>
      <trkpt lat="47.68612" lon="7.27869">
        <ele>252.1</ele>
        <time>2019-08-16T10:07:16Z</time>
      </trkpt>
      <trkpt lat="47.68609" lon="7.27865">
        <ele>252.1</ele>
        <time>2019-08-16T10:07:17Z</time>
      </trkpt>
      <trkpt lat="47.68606" lon="7.2786">
        <ele>252.1</ele>
        <time>2019-08-16T10:07:18Z</time>
      </trkpt>
      <trkpt lat="47.68602" lon="7.27856">
        <ele>252.1</ele>
        <time>2019-08-16T10:07:19Z</time>
      </trkpt>
      <trkpt lat="47.68599" lon="7.27851">
        <ele>252.1</ele>
        <time>2019-08-16T10:07:20Z</time>
      </trkpt>
      <trkpt lat="47.68597" lon="7.27847">
        <ele>252.1</ele>
        <time>2019-08-16T10:07:21Z</time>
      </trkpt>
      <trkpt lat="47.68594" lon="7.27843">
        <ele>252</ele>
        <time>2019-08-16T10:07:22Z</time>
      </trkpt>
      <trkpt lat="47.68592" lon="7.2784">
        <ele>252</ele>
        <time>2019-08-16T10:07:23Z</time>
      </trkpt>
      <trkpt lat="47.6859" lon="7.27835">
        <ele>252</ele>
        <time>2019-08-16T10:07:24Z</time>
      </trkpt>
      <trkpt lat="47.68587" lon="7.27831">
        <ele>252</ele>
        <time>2019-08-16T10:07:25Z</time>
      </trkpt>
      <trkpt lat="47.68585" lon="7.27827">
        <ele>252</ele>
        <time>2019-08-16T10:07:26Z</time>
      </trkpt>
      <trkpt lat="47.68582" lon="7.27823">
        <ele>252</ele>
        <time>2019-08-16T10:07:27Z</time>
      </trkpt>
      <trkpt lat="47.68579" lon="7.27819">
        <ele>252</ele>
        <time>2019-08-16T10:07:28Z</time>
      </trkpt>
      <trkpt lat="47.68576" lon="7.27814">
        <ele>252</ele>
        <time>2019-08-16T10:07:29Z</time>
      </trkpt>
      <trkpt lat="47.68572" lon="7.27809">
        <ele>252</ele>
        <time>2019-08-16T10:07:30Z</time>
      </trkpt>
      <trkpt lat="47.68569" lon="7.27805">
        <ele>252</ele>
        <time>2019-08-16T10:07:31Z</time>
      </trkpt>
      <trkpt lat="47.68566" lon="7.278">
        <ele>251.9</ele>
        <time>2019-08-16T10:07:32Z</time>
      </trkpt>
      <trkpt lat="47.68563" lon="7.27796">
        <ele>251.9</ele>
        <time>2019-08-16T10:07:33Z</time>
      </trkpt>
      <trkpt lat="47.6856" lon="7.27792">
        <ele>251.9</ele>
        <time>2019-08-16T10:07:34Z</time>
      </trkpt>
      <trkpt lat="47.68557" lon="7.27787">
        <ele>251.9</ele>
        <time>2019-08-16T10:07:35Z</time>
      </trkpt>
      <trkpt lat="47.68555" lon="7.27783">
        <ele>251.9</ele>
        <time>2019-08-16T10:07:36Z</time>
      </trkpt>
      <trkpt lat="47.68552" lon="7.27778">
        <ele>251.9</ele>
        <time>2019-08-16T10:07:37Z</time>
      </trkpt>
      <trkpt lat="47.6855" lon="7.27774">
        <ele>251.9</ele>
        <time>2019-08-16T10:07:38Z</time>
      </trkpt>
      <trkpt lat="47.68547" lon="7.2777">
        <ele>251.9</ele>
        <time>2019-08-16T10:07:39Z</time>
      </trkpt>
      <trkpt lat="47.68544" lon="7.27765">
        <ele>251.9</ele>
        <time>2019-08-16T10:07:40Z</time>
      </trkpt>
      <trkpt lat="47.68541" lon="7.27761">
        <ele>251.9</ele>
        <time>2019-08-16T10:07:41Z</time>
      </trkpt>
      <trkpt lat="47.68538" lon="7.27756">
        <ele>251.9</ele>
        <time>2019-08-16T10:07:42Z</time>
      </trkpt>
      <trkpt lat="47.68534" lon="7.27753">
        <ele>251.8</ele>
        <time>2019-08-16T10:07:43Z</time>
      </trkpt>
      <trkpt lat="47.68531" lon="7.27749">
        <ele>251.8</ele>
        <time>2019-08-16T10:07:44Z</time>
      </trkpt>
      <trkpt lat="47.68528" lon="7.27744">
        <ele>251.8</ele>
        <time>2019-08-16T10:07:45Z</time>
      </trkpt>
      <trkpt lat="47.68526" lon="7.2774">
        <ele>251.8</ele>
        <time>2019-08-16T10:07:46Z</time>
      </trkpt>
      <trkpt lat="47.68523" lon="7.27736">
        <ele>251.8</ele>
        <time>2019-08-16T10:07:47Z</time>
      </trkpt>
      <trkpt lat="47.68519" lon="7.27732">
        <ele>251.8</ele>
        <time>2019-08-16T10:07:48Z</time>
      </trkpt>
      <trkpt lat="47.68516" lon="7.27727">
        <ele>251.8</ele>
        <time>2019-08-16T10:07:49Z</time>
      </trkpt>
      <trkpt lat="47.68513" lon="7.27722">
        <ele>251.8</ele>
        <time>2019-08-16T10:07:50Z</time>
      </trkpt>
      <trkpt lat="47.6851" lon="7.27717">
        <ele>251.8</ele>
        <time>2019-08-16T10:07:51Z</time>
      </trkpt>
      <trkpt lat="47.68507" lon="7.27712">
        <ele>251.8</ele>
        <time>2019-08-16T10:07:52Z</time>
      </trkpt>
      <trkpt lat="47.68503" lon="7.27707">
        <ele>251.8</ele>
        <time>2019-08-16T10:07:53Z</time>
      </trkpt>
      <trkpt lat="47.685" lon="7.27701">
        <ele>251.8</ele>
        <time>2019-08-16T10:07:54Z</time>
      </trkpt>
      <trkpt lat="47.68497" lon="7.27696">
        <ele>251.8</ele>
        <time>2019-08-16T10:07:55Z</time>
      </trkpt>
      <trkpt lat="47.68493" lon="7.27692">
        <ele>251.8</ele>
        <time>2019-08-16T10:07:56Z</time>
      </trkpt>
      <trkpt lat="47.6849" lon="7.27687">
        <ele>251.9</ele>
        <time>2019-08-16T10:07:57Z</time>
      </trkpt>
      <trkpt lat="47.68487" lon="7.27683">
        <ele>251.9</ele>
        <time>2019-08-16T10:07:58Z</time>
      </trkpt>
      <trkpt lat="47.68485" lon="7.27679">
        <ele>251.9</ele>
        <time>2019-08-16T10:07:59Z</time>
      </trkpt>
      <trkpt lat="47.68482" lon="7.27675">
        <ele>252</ele>
        <time>2019-08-16T10:08:00Z</time>
      </trkpt>
      <trkpt lat="47.6848" lon="7.27671">
        <ele>252</ele>
        <time>2019-08-16T10:08:01Z</time>
      </trkpt>
      <trkpt lat="47.68477" lon="7.27666">
        <ele>252.1</ele>
        <time>2019-08-16T10:08:02Z</time>
      </trkpt>
      <trkpt lat="47.68475" lon="7.27662">
        <ele>252.2</ele>
        <time>2019-08-16T10:08:03Z</time>
      </trkpt>
      <trkpt lat="47.68472" lon="7.27657">
        <ele>252.3</ele>
        <time>2019-08-16T10:08:04Z</time>
      </trkpt>
      <trkpt lat="47.68469" lon="7.27652">
        <ele>252.3</ele>
        <time>2019-08-16T10:08:05Z</time>
      </trkpt>
      <trkpt lat="47.68466" lon="7.27647">
        <ele>252.4</ele>
        <time>2019-08-16T10:08:06Z</time>
      </trkpt>
      <trkpt lat="47.68463" lon="7.27643">
        <ele>252.5</ele>
        <time>2019-08-16T10:08:07Z</time>
      </trkpt>
      <trkpt lat="47.6846" lon="7.27638">
        <ele>252.7</ele>
        <time>2019-08-16T10:08:08Z</time>
      </trkpt>
      <trkpt lat="47.68457" lon="7.27633">
        <ele>252.8</ele>
        <time>2019-08-16T10:08:09Z</time>
      </trkpt>
      <trkpt lat="47.68455" lon="7.27628">
        <ele>252.8</ele>
        <time>2019-08-16T10:08:10Z</time>
      </trkpt>
      <trkpt lat="47.68452" lon="7.27624">
        <ele>252.9</ele>
        <time>2019-08-16T10:08:11Z</time>
      </trkpt>
      <trkpt lat="47.68448" lon="7.27618">
        <ele>253.1</ele>
        <time>2019-08-16T10:08:12Z</time>
      </trkpt>
      <trkpt lat="47.68445" lon="7.27613">
        <ele>253.2</ele>
        <time>2019-08-16T10:08:13Z</time>
      </trkpt>
      <trkpt lat="47.68442" lon="7.27607">
        <ele>253.2</ele>
        <time>2019-08-16T10:08:14Z</time>
      </trkpt>
      <trkpt lat="47.68439" lon="7.27602">
        <ele>253.3</ele>
        <time>2019-08-16T10:08:15Z</time>
      </trkpt>
      <trkpt lat="47.68436" lon="7.27597">
        <ele>253.4</ele>
        <time>2019-08-16T10:08:16Z</time>
      </trkpt>
      <trkpt lat="47.68432" lon="7.27592">
        <ele>253.4</ele>
        <time>2019-08-16T10:08:17Z</time>
      </trkpt>
      <trkpt lat="47.68429" lon="7.27587">
        <ele>253.5</ele>
        <time>2019-08-16T10:08:18Z</time>
      </trkpt>
      <trkpt lat="47.68426" lon="7.27582">
        <ele>253.5</ele>
        <time>2019-08-16T10:08:19Z</time>
      </trkpt>
      <trkpt lat="47.68423" lon="7.27577">
        <ele>253.5</ele>
        <time>2019-08-16T10:08:20Z</time>
      </trkpt>
      <trkpt lat="47.68421" lon="7.27572">
        <ele>253.5</ele>
        <time>2019-08-16T10:08:21Z</time>
      </trkpt>
      <trkpt lat="47.68418" lon="7.27568">
        <ele>253.5</ele>
        <time>2019-08-16T10:08:22Z</time>
      </trkpt>
      <trkpt lat="47.68415" lon="7.27564">
        <ele>253.6</ele>
        <time>2019-08-16T10:08:23Z</time>
      </trkpt>
      <trkpt lat="47.68412" lon="7.2756">
        <ele>253.6</ele>
        <time>2019-08-16T10:08:24Z</time>
      </trkpt>
      <trkpt lat="47.6841" lon="7.27555">
        <ele>253.6</ele>
        <time>2019-08-16T10:08:25Z</time>
      </trkpt>
      <trkpt lat="47.68407" lon="7.2755">
        <ele>253.6</ele>
        <time>2019-08-16T10:08:26Z</time>
      </trkpt>
      <trkpt lat="47.68404" lon="7.27545">
        <ele>253.5</ele>
        <time>2019-08-16T10:08:27Z</time>
      </trkpt>
      <trkpt lat="47.68401" lon="7.2754">
        <ele>253.5</ele>
        <time>2019-08-16T10:08:28Z</time>
      </trkpt>
      <trkpt lat="47.68398" lon="7.27536">
        <ele>253.5</ele>
        <time>2019-08-16T10:08:29Z</time>
      </trkpt>
      <trkpt lat="47.68395" lon="7.27531">
        <ele>253.5</ele>
        <time>2019-08-16T10:08:30Z</time>
      </trkpt>
      <trkpt lat="47.68392" lon="7.27527">
        <ele>253.5</ele>
        <time>2019-08-16T10:08:31Z</time>
      </trkpt>
      <trkpt lat="47.6839" lon="7.27522">
        <ele>253.5</ele>
        <time>2019-08-16T10:08:32Z</time>
      </trkpt>
      <trkpt lat="47.68388" lon="7.27518">
        <ele>253.5</ele>
        <time>2019-08-16T10:08:33Z</time>
      </trkpt>
      <trkpt lat="47.68385" lon="7.27513">
        <ele>253.5</ele>
        <time>2019-08-16T10:08:34Z</time>
      </trkpt>
      <trkpt lat="47.68382" lon="7.27509">
        <ele>253.5</ele>
        <time>2019-08-16T10:08:35Z</time>
      </trkpt>
      <trkpt lat="47.68379" lon="7.27504">
        <ele>253.5</ele>
        <time>2019-08-16T10:08:36Z</time>
      </trkpt>
      <trkpt lat="47.68376" lon="7.27499">
        <ele>253.4</ele>
        <time>2019-08-16T10:08:37Z</time>
      </trkpt>
      <trkpt lat="47.68373" lon="7.27494">
        <ele>253.4</ele>
        <time>2019-08-16T10:08:38Z</time>
      </trkpt>
      <trkpt lat="47.68371" lon="7.27488">
        <ele>253.4</ele>
        <time>2019-08-16T10:08:39Z</time>
      </trkpt>
      <trkpt lat="47.68369" lon="7.27484">
        <ele>253.4</ele>
        <time>2019-08-16T10:08:40Z</time>
      </trkpt>
      <trkpt lat="47.68366" lon="7.2748">
        <ele>253.4</ele>
        <time>2019-08-16T10:08:41Z</time>
      </trkpt>
      <trkpt lat="47.68364" lon="7.27475">
        <ele>253.4</ele>
        <time>2019-08-16T10:08:42Z</time>
      </trkpt>
      <trkpt lat="47.68362" lon="7.27472">
        <ele>253.4</ele>
        <time>2019-08-16T10:08:43Z</time>
      </trkpt>
      <trkpt lat="47.6836" lon="7.27468">
        <ele>253.4</ele>
        <time>2019-08-16T10:08:44Z</time>
      </trkpt>
      <trkpt lat="47.68358" lon="7.27462">
        <ele>253.4</ele>
        <time>2019-08-16T10:08:45Z</time>
      </trkpt>
      <trkpt lat="47.68355" lon="7.27457">
        <ele>253.3</ele>
        <time>2019-08-16T10:08:46Z</time>
      </trkpt>
      <trkpt lat="47.68353" lon="7.27451">
        <ele>253.3</ele>
        <time>2019-08-16T10:08:47Z</time>
      </trkpt>
      <trkpt lat="47.6835" lon="7.27446">
        <ele>253.3</ele>
        <time>2019-08-16T10:08:48Z</time>
      </trkpt>
      <trkpt lat="47.68347" lon="7.27442">
        <ele>253.3</ele>
        <time>2019-08-16T10:08:49Z</time>
      </trkpt>
      <trkpt lat="47.68344" lon="7.27438">
        <ele>253.3</ele>
        <time>2019-08-16T10:08:50Z</time>
      </trkpt>
      <trkpt lat="47.68341" lon="7.27434">
        <ele>253.3</ele>
        <time>2019-08-16T10:08:51Z</time>
      </trkpt>
      <trkpt lat="47.68338" lon="7.2743">
        <ele>253.3</ele>
        <time>2019-08-16T10:08:52Z</time>
      </trkpt>
      <trkpt lat="47.68335" lon="7.27427">
        <ele>253.3</ele>
        <time>2019-08-16T10:08:53Z</time>
      </trkpt>
      <trkpt lat="47.68332" lon="7.27423">
        <ele>253.3</ele>
        <time>2019-08-16T10:08:54Z</time>
      </trkpt>
      <trkpt lat="47.68329" lon="7.2742">
        <ele>253.3</ele>
        <time>2019-08-16T10:08:55Z</time>
      </trkpt>
      <trkpt lat="47.68326" lon="7.27416">
        <ele>253.2</ele>
        <time>2019-08-16T10:08:56Z</time>
      </trkpt>
      <trkpt lat="47.68323" lon="7.27412">
        <ele>253.2</ele>
        <time>2019-08-16T10:08:57Z</time>
      </trkpt>
      <trkpt lat="47.68319" lon="7.27407">
        <ele>253.2</ele>
        <time>2019-08-16T10:08:58Z</time>
      </trkpt>
      <trkpt lat="47.68317" lon="7.27403">
        <ele>253.2</ele>
        <time>2019-08-16T10:08:59Z</time>
      </trkpt>
      <trkpt lat="47.68313" lon="7.27398">
        <ele>253.2</ele>
        <time>2019-08-16T10:09:00Z</time>
      </trkpt>
      <trkpt lat="47.6831" lon="7.27394">
        <ele>253.2</ele>
        <time>2019-08-16T10:09:01Z</time>
      </trkpt>
      <trkpt lat="47.68307" lon="7.27389">
        <ele>253.2</ele>
        <time>2019-08-16T10:09:02Z</time>
      </trkpt>
      <trkpt lat="47.68303" lon="7.27385">
        <ele>253.2</ele>
        <time>2019-08-16T10:09:03Z</time>
      </trkpt>
      <trkpt lat="47.683" lon="7.27381">
        <ele>253.2</ele>
        <time>2019-08-16T10:09:04Z</time>
      </trkpt>
      <trkpt lat="47.68296" lon="7.27376">
        <ele>253.2</ele>
        <time>2019-08-16T10:09:05Z</time>
      </trkpt>
      <trkpt lat="47.68292" lon="7.27371">
        <ele>253.2</ele>
        <time>2019-08-16T10:09:06Z</time>
      </trkpt>
      <trkpt lat="47.68289" lon="7.27366">
        <ele>253.2</ele>
        <time>2019-08-16T10:09:07Z</time>
      </trkpt>
      <trkpt lat="47.68286" lon="7.27363">
        <ele>253.2</ele>
        <time>2019-08-16T10:09:08Z</time>
      </trkpt>
      <trkpt lat="47.68282" lon="7.27358">
        <ele>253.3</ele>
        <time>2019-08-16T10:09:09Z</time>
      </trkpt>
      <trkpt lat="47.68279" lon="7.27355">
        <ele>253.3</ele>
        <time>2019-08-16T10:09:10Z</time>
      </trkpt>
      <trkpt lat="47.68276" lon="7.27351">
        <ele>253.4</ele>
        <time>2019-08-16T10:09:11Z</time>
      </trkpt>
      <trkpt lat="47.68272" lon="7.27346">
        <ele>253.4</ele>
        <time>2019-08-16T10:09:12Z</time>
      </trkpt>
      <trkpt lat="47.68269" lon="7.27341">
        <ele>253.5</ele>
        <time>2019-08-16T10:09:13Z</time>
      </trkpt>
      <trkpt lat="47.68266" lon="7.27336">
        <ele>253.6</ele>
        <time>2019-08-16T10:09:14Z</time>
      </trkpt>
      <trkpt lat="47.68262" lon="7.27331">
        <ele>253.7</ele>
        <time>2019-08-16T10:09:15Z</time>
      </trkpt>
      <trkpt lat="47.68259" lon="7.27327">
        <ele>253.8</ele>
        <time>2019-08-16T10:09:16Z</time>
      </trkpt>
      <trkpt lat="47.68256" lon="7.27323">
        <ele>253.9</ele>
        <time>2019-08-16T10:09:17Z</time>
      </trkpt>
      <trkpt lat="47.68253" lon="7.27318">
        <ele>254.1</ele>
        <time>2019-08-16T10:09:18Z</time>
      </trkpt>
      <trkpt lat="47.6825" lon="7.27313">
        <ele>254.2</ele>
        <time>2019-08-16T10:09:19Z</time>
      </trkpt>
      <trkpt lat="47.68247" lon="7.27308">
        <ele>254.3</ele>
        <time>2019-08-16T10:09:20Z</time>
      </trkpt>
      <trkpt lat="47.68244" lon="7.27302">
        <ele>254.6</ele>
        <time>2019-08-16T10:09:21Z</time>
      </trkpt>
      <trkpt lat="47.68241" lon="7.27297">
        <ele>254.6</ele>
        <time>2019-08-16T10:09:22Z</time>
      </trkpt>
      <trkpt lat="47.68238" lon="7.27292">
        <ele>254.6</ele>
        <time>2019-08-16T10:09:23Z</time>
      </trkpt>
      <trkpt lat="47.68235" lon="7.27286">
        <ele>254.5</ele>
        <time>2019-08-16T10:09:24Z</time>
      </trkpt>
      <trkpt lat="47.68232" lon="7.27281">
        <ele>254.5</ele>
        <time>2019-08-16T10:09:25Z</time>
      </trkpt>
      <trkpt lat="47.68229" lon="7.27276">
        <ele>254.5</ele>
        <time>2019-08-16T10:09:26Z</time>
      </trkpt>
      <trkpt lat="47.68226" lon="7.27271">
        <ele>254.5</ele>
        <time>2019-08-16T10:09:27Z</time>
      </trkpt>
      <trkpt lat="47.68223" lon="7.27266">
        <ele>254.5</ele>
        <time>2019-08-16T10:09:28Z</time>
      </trkpt>
      <trkpt lat="47.6822" lon="7.27262">
        <ele>254.5</ele>
        <time>2019-08-16T10:09:29Z</time>
      </trkpt>
      <trkpt lat="47.68216" lon="7.27257">
        <ele>254.5</ele>
        <time>2019-08-16T10:09:30Z</time>
      </trkpt>
      <trkpt lat="47.68213" lon="7.27253">
        <ele>254.5</ele>
        <time>2019-08-16T10:09:31Z</time>
      </trkpt>
      <trkpt lat="47.6821" lon="7.27248">
        <ele>254.5</ele>
        <time>2019-08-16T10:09:32Z</time>
      </trkpt>
      <trkpt lat="47.68207" lon="7.27243">
        <ele>254.5</ele>
        <time>2019-08-16T10:09:33Z</time>
      </trkpt>
      <trkpt lat="47.68204" lon="7.27239">
        <ele>254.5</ele>
        <time>2019-08-16T10:09:34Z</time>
      </trkpt>
      <trkpt lat="47.68201" lon="7.27234">
        <ele>254.3</ele>
        <time>2019-08-16T10:09:35Z</time>
      </trkpt>
      <trkpt lat="47.68199" lon="7.27229">
        <ele>254.3</ele>
        <time>2019-08-16T10:09:36Z</time>
      </trkpt>
      <trkpt lat="47.68195" lon="7.27224">
        <ele>254.3</ele>
        <time>2019-08-16T10:09:37Z</time>
      </trkpt>
      <trkpt lat="47.68192" lon="7.27219">
        <ele>254.3</ele>
        <time>2019-08-16T10:09:38Z</time>
      </trkpt>
      <trkpt lat="47.68188" lon="7.27213">
        <ele>254.3</ele>
        <time>2019-08-16T10:09:39Z</time>
      </trkpt>
      <trkpt lat="47.68185" lon="7.27208">
        <ele>254.3</ele>
        <time>2019-08-16T10:09:40Z</time>
      </trkpt>
      <trkpt lat="47.68182" lon="7.27203">
        <ele>254.3</ele>
        <time>2019-08-16T10:09:41Z</time>
      </trkpt>
      <trkpt lat="47.68178" lon="7.27198">
        <ele>254.3</ele>
        <time>2019-08-16T10:09:42Z</time>
      </trkpt>
      <trkpt lat="47.68175" lon="7.27193">
        <ele>254.3</ele>
        <time>2019-08-16T10:09:43Z</time>
      </trkpt>
      <trkpt lat="47.68172" lon="7.27188">
        <ele>254.3</ele>
        <time>2019-08-16T10:09:44Z</time>
      </trkpt>
      <trkpt lat="47.68169" lon="7.27183">
        <ele>254.3</ele>
        <time>2019-08-16T10:09:45Z</time>
      </trkpt>
      <trkpt lat="47.68166" lon="7.27178">
        <ele>254.3</ele>
        <time>2019-08-16T10:09:46Z</time>
      </trkpt>
      <trkpt lat="47.68163" lon="7.27174">
        <ele>254.3</ele>
        <time>2019-08-16T10:09:47Z</time>
      </trkpt>
      <trkpt lat="47.68161" lon="7.27169">
        <ele>254.3</ele>
        <time>2019-08-16T10:09:48Z</time>
      </trkpt>
      <trkpt lat="47.68158" lon="7.27164">
        <ele>254.3</ele>
        <time>2019-08-16T10:09:49Z</time>
      </trkpt>
      <trkpt lat="47.68155" lon="7.27159">
        <ele>254.3</ele>
        <time>2019-08-16T10:09:50Z</time>
      </trkpt>
      <trkpt lat="47.68152" lon="7.27155">
        <ele>254.3</ele>
        <time>2019-08-16T10:09:51Z</time>
      </trkpt>
      <trkpt lat="47.68149" lon="7.27151">
        <ele>254.3</ele>
        <time>2019-08-16T10:09:52Z</time>
      </trkpt>
      <trkpt lat="47.68145" lon="7.27147">
        <ele>254.3</ele>
        <time>2019-08-16T10:09:53Z</time>
      </trkpt>
      <trkpt lat="47.68142" lon="7.27142">
        <ele>254.3</ele>
        <time>2019-08-16T10:09:54Z</time>
      </trkpt>
      <trkpt lat="47.68139" lon="7.27138">
        <ele>254.3</ele>
        <time>2019-08-16T10:09:55Z</time>
      </trkpt>
      <trkpt lat="47.68136" lon="7.27134">
        <ele>254.3</ele>
        <time>2019-08-16T10:09:56Z</time>
      </trkpt>
      <trkpt lat="47.68132" lon="7.2713">
        <ele>254.3</ele>
        <time>2019-08-16T10:09:57Z</time>
      </trkpt>
      <trkpt lat="47.68129" lon="7.27126">
        <ele>254.3</ele>
        <time>2019-08-16T10:09:58Z</time>
      </trkpt>
      <trkpt lat="47.68126" lon="7.27122">
        <ele>254.3</ele>
        <time>2019-08-16T10:09:59Z</time>
      </trkpt>
      <trkpt lat="47.68123" lon="7.27118">
        <ele>254.3</ele>
        <time>2019-08-16T10:10:00Z</time>
      </trkpt>
      <trkpt lat="47.6812" lon="7.27113">
        <ele>254.3</ele>
        <time>2019-08-16T10:10:01Z</time>
      </trkpt>
      <trkpt lat="47.68117" lon="7.27108">
        <ele>254.3</ele>
        <time>2019-08-16T10:10:02Z</time>
      </trkpt>
      <trkpt lat="47.68114" lon="7.27103">
        <ele>254.3</ele>
        <time>2019-08-16T10:10:03Z</time>
      </trkpt>
      <trkpt lat="47.68112" lon="7.27099">
        <ele>254.3</ele>
        <time>2019-08-16T10:10:04Z</time>
      </trkpt>
      <trkpt lat="47.68108" lon="7.27094">
        <ele>254.3</ele>
        <time>2019-08-16T10:10:05Z</time>
      </trkpt>
      <trkpt lat="47.68106" lon="7.2709">
        <ele>254.3</ele>
        <time>2019-08-16T10:10:06Z</time>
      </trkpt>
      <trkpt lat="47.68103" lon="7.27084">
        <ele>254.3</ele>
        <time>2019-08-16T10:10:07Z</time>
      </trkpt>
      <trkpt lat="47.68101" lon="7.27079">
        <ele>254.3</ele>
        <time>2019-08-16T10:10:08Z</time>
      </trkpt>
      <trkpt lat="47.68098" lon="7.27074">
        <ele>254.3</ele>
        <time>2019-08-16T10:10:09Z</time>
      </trkpt>
      <trkpt lat="47.68095" lon="7.27069">
        <ele>254.3</ele>
        <time>2019-08-16T10:10:10Z</time>
      </trkpt>
      <trkpt lat="47.68092" lon="7.27064">
        <ele>254.3</ele>
        <time>2019-08-16T10:10:11Z</time>
      </trkpt>
      <trkpt lat="47.6809" lon="7.27059">
        <ele>254.3</ele>
        <time>2019-08-16T10:10:12Z</time>
      </trkpt>
      <trkpt lat="47.68087" lon="7.27055">
        <ele>254.3</ele>
        <time>2019-08-16T10:10:13Z</time>
      </trkpt>
      <trkpt lat="47.68084" lon="7.27051">
        <ele>254.3</ele>
        <time>2019-08-16T10:10:14Z</time>
      </trkpt>
      <trkpt lat="47.68082" lon="7.27047">
        <ele>254.3</ele>
        <time>2019-08-16T10:10:15Z</time>
      </trkpt>
      <trkpt lat="47.68079" lon="7.27042">
        <ele>254.3</ele>
        <time>2019-08-16T10:10:16Z</time>
      </trkpt>
      <trkpt lat="47.68076" lon="7.27037">
        <ele>254.3</ele>
        <time>2019-08-16T10:10:17Z</time>
      </trkpt>
      <trkpt lat="47.68073" lon="7.27032">
        <ele>254.3</ele>
        <time>2019-08-16T10:10:18Z</time>
      </trkpt>
      <trkpt lat="47.6807" lon="7.27026">
        <ele>254.3</ele>
        <time>2019-08-16T10:10:19Z</time>
      </trkpt>
      <trkpt lat="47.68066" lon="7.27021">
        <ele>254.4</ele>
        <time>2019-08-16T10:10:20Z</time>
      </trkpt>
      <trkpt lat="47.68063" lon="7.27015">
        <ele>254.4</ele>
        <time>2019-08-16T10:10:21Z</time>
      </trkpt>
      <trkpt lat="47.6806" lon="7.27009">
        <ele>254.4</ele>
        <time>2019-08-16T10:10:22Z</time>
      </trkpt>
      <trkpt lat="47.68057" lon="7.27004">
        <ele>254.4</ele>
        <time>2019-08-16T10:10:23Z</time>
      </trkpt>
      <trkpt lat="47.68054" lon="7.27">
        <ele>254.4</ele>
        <time>2019-08-16T10:10:24Z</time>
      </trkpt>
      <trkpt lat="47.6805" lon="7.26995">
        <ele>254.4</ele>
        <time>2019-08-16T10:10:25Z</time>
      </trkpt>
      <trkpt lat="47.68046" lon="7.26991">
        <ele>254.4</ele>
        <time>2019-08-16T10:10:26Z</time>
      </trkpt>
      <trkpt lat="47.68042" lon="7.26986">
        <ele>254.4</ele>
        <time>2019-08-16T10:10:27Z</time>
      </trkpt>
      <trkpt lat="47.68038" lon="7.26981">
        <ele>254.4</ele>
        <time>2019-08-16T10:10:28Z</time>
      </trkpt>
      <trkpt lat="47.68034" lon="7.26977">
        <ele>254.4</ele>
        <time>2019-08-16T10:10:29Z</time>
      </trkpt>
      <trkpt lat="47.68031" lon="7.26972">
        <ele>254.4</ele>
        <time>2019-08-16T10:10:30Z</time>
      </trkpt>
      <trkpt lat="47.68028" lon="7.26968">
        <ele>254.4</ele>
        <time>2019-08-16T10:10:31Z</time>
      </trkpt>
      <trkpt lat="47.68025" lon="7.26964">
        <ele>254.4</ele>
        <time>2019-08-16T10:10:32Z</time>
      </trkpt>
      <trkpt lat="47.68021" lon="7.2696">
        <ele>254.4</ele>
        <time>2019-08-16T10:10:33Z</time>
      </trkpt>
      <trkpt lat="47.68018" lon="7.26956">
        <ele>254.4</ele>
        <time>2019-08-16T10:10:34Z</time>
      </trkpt>
      <trkpt lat="47.68015" lon="7.26951">
        <ele>254.4</ele>
        <time>2019-08-16T10:10:35Z</time>
      </trkpt>
      <trkpt lat="47.68012" lon="7.26946">
        <ele>254.4</ele>
        <time>2019-08-16T10:10:36Z</time>
      </trkpt>
      <trkpt lat="47.68009" lon="7.26941">
        <ele>254.4</ele>
        <time>2019-08-16T10:10:37Z</time>
      </trkpt>
      <trkpt lat="47.68006" lon="7.26936">
        <ele>254.4</ele>
        <time>2019-08-16T10:10:38Z</time>
      </trkpt>
      <trkpt lat="47.68003" lon="7.26931">
        <ele>254.4</ele>
        <time>2019-08-16T10:10:39Z</time>
      </trkpt>
      <trkpt lat="47.68" lon="7.26927">
        <ele>254.4</ele>
        <time>2019-08-16T10:10:40Z</time>
      </trkpt>
      <trkpt lat="47.67997" lon="7.26923">
        <ele>254.4</ele>
        <time>2019-08-16T10:10:41Z</time>
      </trkpt>
      <trkpt lat="47.67993" lon="7.26918">
        <ele>254.4</ele>
        <time>2019-08-16T10:10:42Z</time>
      </trkpt>
      <trkpt lat="47.67989" lon="7.26914">
        <ele>254.4</ele>
        <time>2019-08-16T10:10:43Z</time>
      </trkpt>
      <trkpt lat="47.67985" lon="7.26909">
        <ele>254.5</ele>
        <time>2019-08-16T10:10:44Z</time>
      </trkpt>
      <trkpt lat="47.67982" lon="7.26905">
        <ele>254.5</ele>
        <time>2019-08-16T10:10:45Z</time>
      </trkpt>
      <trkpt lat="47.67978" lon="7.269">
        <ele>254.5</ele>
        <time>2019-08-16T10:10:46Z</time>
      </trkpt>
      <trkpt lat="47.67975" lon="7.26895">
        <ele>254.5</ele>
        <time>2019-08-16T10:10:47Z</time>
      </trkpt>
      <trkpt lat="47.67972" lon="7.26889">
        <ele>254.5</ele>
        <time>2019-08-16T10:10:48Z</time>
      </trkpt>
      <trkpt lat="47.6797" lon="7.26885">
        <ele>254.5</ele>
        <time>2019-08-16T10:10:49Z</time>
      </trkpt>
      <trkpt lat="47.67966" lon="7.26881">
        <ele>254.5</ele>
        <time>2019-08-16T10:10:50Z</time>
      </trkpt>
      <trkpt lat="47.67963" lon="7.26876">
        <ele>254.5</ele>
        <time>2019-08-16T10:10:51Z</time>
      </trkpt>
      <trkpt lat="47.67959" lon="7.2687">
        <ele>254.5</ele>
        <time>2019-08-16T10:10:52Z</time>
      </trkpt>
      <trkpt lat="47.67955" lon="7.26864">
        <ele>254.5</ele>
        <time>2019-08-16T10:10:53Z</time>
      </trkpt>
      <trkpt lat="47.67952" lon="7.26859">
        <ele>254.5</ele>
        <time>2019-08-16T10:10:54Z</time>
      </trkpt>
      <trkpt lat="47.67948" lon="7.26853">
        <ele>254.5</ele>
        <time>2019-08-16T10:10:55Z</time>
      </trkpt>
      <trkpt lat="47.67945" lon="7.26848">
        <ele>254.5</ele>
        <time>2019-08-16T10:10:56Z</time>
      </trkpt>
      <trkpt lat="47.67941" lon="7.26843">
        <ele>254.5</ele>
        <time>2019-08-16T10:10:57Z</time>
      </trkpt>
      <trkpt lat="47.67938" lon="7.26838">
        <ele>254.5</ele>
        <time>2019-08-16T10:10:58Z</time>
      </trkpt>
      <trkpt lat="47.67934" lon="7.26834">
        <ele>254.5</ele>
        <time>2019-08-16T10:10:59Z</time>
      </trkpt>
      <trkpt lat="47.67931" lon="7.2683">
        <ele>254.5</ele>
        <time>2019-08-16T10:11:00Z</time>
      </trkpt>
      <trkpt lat="47.67928" lon="7.26825">
        <ele>254.5</ele>
        <time>2019-08-16T10:11:01Z</time>
      </trkpt>
      <trkpt lat="47.67925" lon="7.26821">
        <ele>254.5</ele>
        <time>2019-08-16T10:11:02Z</time>
      </trkpt>
      <trkpt lat="47.67922" lon="7.26816">
        <ele>254.5</ele>
        <time>2019-08-16T10:11:03Z</time>
      </trkpt>
      <trkpt lat="47.67919" lon="7.26811">
        <ele>254.5</ele>
        <time>2019-08-16T10:11:04Z</time>
      </trkpt>
      <trkpt lat="47.67916" lon="7.26806">
        <ele>254.5</ele>
        <time>2019-08-16T10:11:05Z</time>
      </trkpt>
      <trkpt lat="47.67913" lon="7.26802">
        <ele>254.5</ele>
        <time>2019-08-16T10:11:06Z</time>
      </trkpt>
      <trkpt lat="47.6791" lon="7.26798">
        <ele>254.5</ele>
        <time>2019-08-16T10:11:07Z</time>
      </trkpt>
      <trkpt lat="47.67907" lon="7.26794">
        <ele>254.5</ele>
        <time>2019-08-16T10:11:08Z</time>
      </trkpt>
      <trkpt lat="47.67904" lon="7.2679">
        <ele>254.5</ele>
        <time>2019-08-16T10:11:09Z</time>
      </trkpt>
      <trkpt lat="47.67901" lon="7.26786">
        <ele>254.5</ele>
        <time>2019-08-16T10:11:10Z</time>
      </trkpt>
      <trkpt lat="47.67898" lon="7.26782">
        <ele>254.5</ele>
        <time>2019-08-16T10:11:11Z</time>
      </trkpt>
      <trkpt lat="47.67895" lon="7.26777">
        <ele>254.5</ele>
        <time>2019-08-16T10:11:12Z</time>
      </trkpt>
      <trkpt lat="47.67892" lon="7.26772">
        <ele>254.5</ele>
        <time>2019-08-16T10:11:13Z</time>
      </trkpt>
      <trkpt lat="47.67889" lon="7.26767">
        <ele>254.5</ele>
        <time>2019-08-16T10:11:14Z</time>
      </trkpt>
      <trkpt lat="47.67886" lon="7.26761">
        <ele>254.4</ele>
        <time>2019-08-16T10:11:15Z</time>
      </trkpt>
      <trkpt lat="47.67883" lon="7.26756">
        <ele>254.4</ele>
        <time>2019-08-16T10:11:16Z</time>
      </trkpt>
      <trkpt lat="47.67879" lon="7.2675">
        <ele>254.4</ele>
        <time>2019-08-16T10:11:17Z</time>
      </trkpt>
      <trkpt lat="47.67877" lon="7.26747">
        <ele>254.4</ele>
        <time>2019-08-16T10:11:18Z</time>
      </trkpt>
      <trkpt lat="47.67873" lon="7.26743">
        <ele>254.4</ele>
        <time>2019-08-16T10:11:19Z</time>
      </trkpt>
      <trkpt lat="47.6787" lon="7.26738">
        <ele>254.4</ele>
        <time>2019-08-16T10:11:20Z</time>
      </trkpt>
      <trkpt lat="47.67868" lon="7.26733">
        <ele>254.4</ele>
        <time>2019-08-16T10:11:21Z</time>
      </trkpt>
      <trkpt lat="47.67865" lon="7.26728">
        <ele>254.4</ele>
        <time>2019-08-16T10:11:22Z</time>
      </trkpt>
      <trkpt lat="47.67862" lon="7.26723">
        <ele>254.5</ele>
        <time>2019-08-16T10:11:23Z</time>
      </trkpt>
      <trkpt lat="47.67859" lon="7.26717">
        <ele>254.5</ele>
        <time>2019-08-16T10:11:24Z</time>
      </trkpt>
      <trkpt lat="47.67855" lon="7.26711">
        <ele>254.5</ele>
        <time>2019-08-16T10:11:25Z</time>
      </trkpt>
      <trkpt lat="47.67853" lon="7.26706">
        <ele>254.5</ele>
        <time>2019-08-16T10:11:26Z</time>
      </trkpt>
      <trkpt lat="47.67849" lon="7.26701">
        <ele>254.5</ele>
        <time>2019-08-16T10:11:27Z</time>
      </trkpt>
      <trkpt lat="47.67846" lon="7.26696">
        <ele>254.5</ele>
        <time>2019-08-16T10:11:28Z</time>
      </trkpt>
      <trkpt lat="47.67842" lon="7.2669">
        <ele>254.5</ele>
        <time>2019-08-16T10:11:29Z</time>
      </trkpt>
      <trkpt lat="47.6784" lon="7.26686">
        <ele>254.5</ele>
        <time>2019-08-16T10:11:30Z</time>
      </trkpt>
      <trkpt lat="47.67838" lon="7.26681">
        <ele>254.5</ele>
        <time>2019-08-16T10:11:31Z</time>
      </trkpt>
      <trkpt lat="47.67835" lon="7.26677">
        <ele>254.5</ele>
        <time>2019-08-16T10:11:32Z</time>
      </trkpt>
      <trkpt lat="47.67832" lon="7.26672">
        <ele>254.5</ele>
        <time>2019-08-16T10:11:33Z</time>
      </trkpt>
      <trkpt lat="47.6783" lon="7.26667">
        <ele>254.5</ele>
        <time>2019-08-16T10:11:34Z</time>
      </trkpt>
      <trkpt lat="47.67828" lon="7.26664">
        <ele>254.5</ele>
        <time>2019-08-16T10:11:35Z</time>
      </trkpt>
      <trkpt lat="47.67826" lon="7.26661">
        <ele>254.5</ele>
        <time>2019-08-16T10:11:36Z</time>
      </trkpt>
      <trkpt lat="47.67828" lon="7.26669">
        <ele>254.6</ele>
        <time>2019-08-16T10:11:42Z</time>
      </trkpt>
      <trkpt lat="47.67829" lon="7.26673">
        <ele>254.6</ele>
        <time>2019-08-16T10:11:45Z</time>
      </trkpt>
      <trkpt lat="47.67827" lon="7.2667">
        <ele>254.6</ele>
        <time>2019-08-16T10:11:57Z</time>
      </trkpt>
      <trkpt lat="47.67824" lon="7.26664">
        <ele>254.6</ele>
        <time>2019-08-16T10:11:59Z</time>
      </trkpt>
      <trkpt lat="47.67821" lon="7.26659">
        <ele>254.6</ele>
        <time>2019-08-16T10:12:00Z</time>
      </trkpt>
      <trkpt lat="47.67818" lon="7.26654">
        <ele>254.6</ele>
        <time>2019-08-16T10:12:01Z</time>
      </trkpt>
      <trkpt lat="47.67815" lon="7.26649">
        <ele>254.6</ele>
        <time>2019-08-16T10:12:02Z</time>
      </trkpt>
      <trkpt lat="47.67813" lon="7.26645">
        <ele>254.6</ele>
        <time>2019-08-16T10:12:03Z</time>
      </trkpt>
      <trkpt lat="47.6781" lon="7.26639">
        <ele>254.6</ele>
        <time>2019-08-16T10:12:04Z</time>
      </trkpt>
      <trkpt lat="47.67807" lon="7.26633">
        <ele>254.7</ele>
        <time>2019-08-16T10:12:05Z</time>
      </trkpt>
      <trkpt lat="47.67804" lon="7.26628">
        <ele>254.7</ele>
        <time>2019-08-16T10:12:06Z</time>
      </trkpt>
      <trkpt lat="47.67801" lon="7.26624">
        <ele>254.7</ele>
        <time>2019-08-16T10:12:07Z</time>
      </trkpt>
      <trkpt lat="47.67798" lon="7.2662">
        <ele>254.7</ele>
        <time>2019-08-16T10:12:08Z</time>
      </trkpt>
      <trkpt lat="47.67795" lon="7.26615">
        <ele>254.7</ele>
        <time>2019-08-16T10:12:09Z</time>
      </trkpt>
      <trkpt lat="47.67792" lon="7.26611">
        <ele>254.7</ele>
        <time>2019-08-16T10:12:10Z</time>
      </trkpt>
      <trkpt lat="47.67788" lon="7.26605">
        <ele>254.7</ele>
        <time>2019-08-16T10:12:11Z</time>
      </trkpt>
      <trkpt lat="47.67784" lon="7.26598">
        <ele>254.8</ele>
        <time>2019-08-16T10:12:12Z</time>
      </trkpt>
      <trkpt lat="47.67781" lon="7.26593">
        <ele>254.8</ele>
        <time>2019-08-16T10:12:13Z</time>
      </trkpt>
      <trkpt lat="47.67778" lon="7.26588">
        <ele>254.9</ele>
        <time>2019-08-16T10:12:14Z</time>
      </trkpt>
      <trkpt lat="47.67774" lon="7.26583">
        <ele>255</ele>
        <time>2019-08-16T10:12:15Z</time>
      </trkpt>
      <trkpt lat="47.67771" lon="7.26577">
        <ele>255.1</ele>
        <time>2019-08-16T10:12:16Z</time>
      </trkpt>
      <trkpt lat="47.67768" lon="7.26572">
        <ele>255.2</ele>
        <time>2019-08-16T10:12:17Z</time>
      </trkpt>
      <trkpt lat="47.67764" lon="7.26567">
        <ele>255.3</ele>
        <time>2019-08-16T10:12:18Z</time>
      </trkpt>
      <trkpt lat="47.6776" lon="7.26562">
        <ele>255.3</ele>
        <time>2019-08-16T10:12:19Z</time>
      </trkpt>
      <trkpt lat="47.67756" lon="7.26557">
        <ele>255.4</ele>
        <time>2019-08-16T10:12:20Z</time>
      </trkpt>
      <trkpt lat="47.67752" lon="7.26552">
        <ele>255.5</ele>
        <time>2019-08-16T10:12:21Z</time>
      </trkpt>
      <trkpt lat="47.67749" lon="7.26548">
        <ele>255.5</ele>
        <time>2019-08-16T10:12:22Z</time>
      </trkpt>
      <trkpt lat="47.67746" lon="7.26543">
        <ele>255.6</ele>
        <time>2019-08-16T10:12:23Z</time>
      </trkpt>
      <trkpt lat="47.67743" lon="7.26538">
        <ele>255.6</ele>
        <time>2019-08-16T10:12:24Z</time>
      </trkpt>
      <trkpt lat="47.67739" lon="7.26533">
        <ele>255.6</ele>
        <time>2019-08-16T10:12:25Z</time>
      </trkpt>
      <trkpt lat="47.67735" lon="7.26527">
        <ele>255.6</ele>
        <time>2019-08-16T10:12:26Z</time>
      </trkpt>
      <trkpt lat="47.67731" lon="7.26521">
        <ele>255.7</ele>
        <time>2019-08-16T10:12:27Z</time>
      </trkpt>
      <trkpt lat="47.67727" lon="7.26515">
        <ele>255.7</ele>
        <time>2019-08-16T10:12:28Z</time>
      </trkpt>
      <trkpt lat="47.67723" lon="7.26509">
        <ele>255.7</ele>
        <time>2019-08-16T10:12:29Z</time>
      </trkpt>
      <trkpt lat="47.67719" lon="7.26503">
        <ele>255.7</ele>
        <time>2019-08-16T10:12:30Z</time>
      </trkpt>
      <trkpt lat="47.67715" lon="7.26499">
        <ele>255.7</ele>
        <time>2019-08-16T10:12:31Z</time>
      </trkpt>
      <trkpt lat="47.67711" lon="7.26494">
        <ele>255.7</ele>
        <time>2019-08-16T10:12:32Z</time>
      </trkpt>
      <trkpt lat="47.67707" lon="7.26489">
        <ele>255.7</ele>
        <time>2019-08-16T10:12:33Z</time>
      </trkpt>
      <trkpt lat="47.67703" lon="7.26485">
        <ele>255.6</ele>
        <time>2019-08-16T10:12:34Z</time>
      </trkpt>
      <trkpt lat="47.677" lon="7.2648">
        <ele>255.6</ele>
        <time>2019-08-16T10:12:35Z</time>
      </trkpt>
      <trkpt lat="47.67696" lon="7.26475">
        <ele>255.6</ele>
        <time>2019-08-16T10:12:36Z</time>
      </trkpt>
      <trkpt lat="47.67692" lon="7.26469">
        <ele>255.6</ele>
        <time>2019-08-16T10:12:37Z</time>
      </trkpt>
      <trkpt lat="47.67688" lon="7.26463">
        <ele>255.6</ele>
        <time>2019-08-16T10:12:38Z</time>
      </trkpt>
      <trkpt lat="47.67684" lon="7.26458">
        <ele>255.6</ele>
        <time>2019-08-16T10:12:39Z</time>
      </trkpt>
      <trkpt lat="47.67681" lon="7.26451">
        <ele>255.6</ele>
        <time>2019-08-16T10:12:40Z</time>
      </trkpt>
      <trkpt lat="47.67676" lon="7.26445">
        <ele>255.6</ele>
        <time>2019-08-16T10:12:41Z</time>
      </trkpt>
      <trkpt lat="47.67672" lon="7.26439">
        <ele>255.6</ele>
        <time>2019-08-16T10:12:42Z</time>
      </trkpt>
      <trkpt lat="47.67668" lon="7.26433">
        <ele>255.6</ele>
        <time>2019-08-16T10:12:43Z</time>
      </trkpt>
      <trkpt lat="47.67664" lon="7.26427">
        <ele>255.6</ele>
        <time>2019-08-16T10:12:44Z</time>
      </trkpt>
      <trkpt lat="47.6766" lon="7.2642">
        <ele>255.4</ele>
        <time>2019-08-16T10:12:45Z</time>
      </trkpt>
      <trkpt lat="47.67656" lon="7.26414">
        <ele>255.3</ele>
        <time>2019-08-16T10:12:46Z</time>
      </trkpt>
      <trkpt lat="47.67652" lon="7.26407">
        <ele>255.1</ele>
        <time>2019-08-16T10:12:47Z</time>
      </trkpt>
      <trkpt lat="47.67647" lon="7.264">
        <ele>254.9</ele>
        <time>2019-08-16T10:12:48Z</time>
      </trkpt>
      <trkpt lat="47.67643" lon="7.26394">
        <ele>254.8</ele>
        <time>2019-08-16T10:12:49Z</time>
      </trkpt>
      <trkpt lat="47.67639" lon="7.26388">
        <ele>254.7</ele>
        <time>2019-08-16T10:12:50Z</time>
      </trkpt>
      <trkpt lat="47.67635" lon="7.26381">
        <ele>254.6</ele>
        <time>2019-08-16T10:12:51Z</time>
      </trkpt>
      <trkpt lat="47.67631" lon="7.26375">
        <ele>254.5</ele>
        <time>2019-08-16T10:12:52Z</time>
      </trkpt>
      <trkpt lat="47.67627" lon="7.26368">
        <ele>254.5</ele>
        <time>2019-08-16T10:12:53Z</time>
      </trkpt>
      <trkpt lat="47.67623" lon="7.26362">
        <ele>254.5</ele>
        <time>2019-08-16T10:12:54Z</time>
      </trkpt>
      <trkpt lat="47.67619" lon="7.26356">
        <ele>254.5</ele>
        <time>2019-08-16T10:12:55Z</time>
      </trkpt>
      <trkpt lat="47.67614" lon="7.2635">
        <ele>254.5</ele>
        <time>2019-08-16T10:12:56Z</time>
      </trkpt>
      <trkpt lat="47.6761" lon="7.26344">
        <ele>254.5</ele>
        <time>2019-08-16T10:12:57Z</time>
      </trkpt>
      <trkpt lat="47.67606" lon="7.26338">
        <ele>254.5</ele>
        <time>2019-08-16T10:12:58Z</time>
      </trkpt>
      <trkpt lat="47.67602" lon="7.26332">
        <ele>254.4</ele>
        <time>2019-08-16T10:12:59Z</time>
      </trkpt>
      <trkpt lat="47.67597" lon="7.26326">
        <ele>254.4</ele>
        <time>2019-08-16T10:13:00Z</time>
      </trkpt>
      <trkpt lat="47.67592" lon="7.2632">
        <ele>254.4</ele>
        <time>2019-08-16T10:13:01Z</time>
      </trkpt>
      <trkpt lat="47.67588" lon="7.26313">
        <ele>254.4</ele>
        <time>2019-08-16T10:13:02Z</time>
      </trkpt>
      <trkpt lat="47.67584" lon="7.26307">
        <ele>254.4</ele>
        <time>2019-08-16T10:13:03Z</time>
      </trkpt>
      <trkpt lat="47.6758" lon="7.26303">
        <ele>254.4</ele>
        <time>2019-08-16T10:13:04Z</time>
      </trkpt>
      <trkpt lat="47.67577" lon="7.26298">
        <ele>254.5</ele>
        <time>2019-08-16T10:13:05Z</time>
      </trkpt>
      <trkpt lat="47.67573" lon="7.26293">
        <ele>254.5</ele>
        <time>2019-08-16T10:13:06Z</time>
      </trkpt>
      <trkpt lat="47.67569" lon="7.26288">
        <ele>254.5</ele>
        <time>2019-08-16T10:13:07Z</time>
      </trkpt>
      <trkpt lat="47.67566" lon="7.26282">
        <ele>254.5</ele>
        <time>2019-08-16T10:13:08Z</time>
      </trkpt>
      <trkpt lat="47.67563" lon="7.26277">
        <ele>254.5</ele>
        <time>2019-08-16T10:13:09Z</time>
      </trkpt>
      <trkpt lat="47.67559" lon="7.26271">
        <ele>254.6</ele>
        <time>2019-08-16T10:13:10Z</time>
      </trkpt>
      <trkpt lat="47.67556" lon="7.26266">
        <ele>254.6</ele>
        <time>2019-08-16T10:13:11Z</time>
      </trkpt>
      <trkpt lat="47.67553" lon="7.2626">
        <ele>254.7</ele>
        <time>2019-08-16T10:13:12Z</time>
      </trkpt>
      <trkpt lat="47.6755" lon="7.26254">
        <ele>254.7</ele>
        <time>2019-08-16T10:13:13Z</time>
      </trkpt>
      <trkpt lat="47.67547" lon="7.26249">
        <ele>254.8</ele>
        <time>2019-08-16T10:13:14Z</time>
      </trkpt>
      <trkpt lat="47.67544" lon="7.26244">
        <ele>254.9</ele>
        <time>2019-08-16T10:13:15Z</time>
      </trkpt>
      <trkpt lat="47.67542" lon="7.26238">
        <ele>255</ele>
        <time>2019-08-16T10:13:16Z</time>
      </trkpt>
      <trkpt lat="47.67539" lon="7.26232">
        <ele>255.2</ele>
        <time>2019-08-16T10:13:17Z</time>
      </trkpt>
      <trkpt lat="47.67536" lon="7.26227">
        <ele>255.2</ele>
        <time>2019-08-16T10:13:18Z</time>
      </trkpt>
      <trkpt lat="47.67533" lon="7.26221">
        <ele>255.3</ele>
        <time>2019-08-16T10:13:19Z</time>
      </trkpt>
      <trkpt lat="47.6753" lon="7.26216">
        <ele>255.4</ele>
        <time>2019-08-16T10:13:20Z</time>
      </trkpt>
      <trkpt lat="47.67528" lon="7.26212">
        <ele>255.4</ele>
        <time>2019-08-16T10:13:21Z</time>
      </trkpt>
      <trkpt lat="47.67526" lon="7.26207">
        <ele>255.4</ele>
        <time>2019-08-16T10:13:22Z</time>
      </trkpt>
      <trkpt lat="47.67523" lon="7.26202">
        <ele>255.5</ele>
        <time>2019-08-16T10:13:23Z</time>
      </trkpt>
      <trkpt lat="47.67521" lon="7.26197">
        <ele>255.5</ele>
        <time>2019-08-16T10:13:24Z</time>
      </trkpt>
      <trkpt lat="47.67518" lon="7.26191">
        <ele>255.5</ele>
        <time>2019-08-16T10:13:25Z</time>
      </trkpt>
      <trkpt lat="47.67516" lon="7.26186">
        <ele>255.5</ele>
        <time>2019-08-16T10:13:26Z</time>
      </trkpt>
      <trkpt lat="47.67513" lon="7.26181">
        <ele>255.6</ele>
        <time>2019-08-16T10:13:27Z</time>
      </trkpt>
      <trkpt lat="47.67511" lon="7.26177">
        <ele>255.6</ele>
        <time>2019-08-16T10:13:28Z</time>
      </trkpt>
      <trkpt lat="47.6751" lon="7.26173">
        <ele>255.6</ele>
        <time>2019-08-16T10:13:29Z</time>
      </trkpt>
      <trkpt lat="47.67509" lon="7.26168">
        <ele>255.6</ele>
        <time>2019-08-16T10:13:30Z</time>
      </trkpt>
      <trkpt lat="47.67508" lon="7.26163">
        <ele>255.7</ele>
        <time>2019-08-16T10:13:31Z</time>
      </trkpt>
      <trkpt lat="47.67507" lon="7.26159">
        <ele>255.7</ele>
        <time>2019-08-16T10:13:32Z</time>
      </trkpt>
      <trkpt lat="47.67505" lon="7.26156">
        <ele>255.7</ele>
        <time>2019-08-16T10:13:33Z</time>
      </trkpt>
      <trkpt lat="47.67503" lon="7.26153">
        <ele>255.8</ele>
        <time>2019-08-16T10:13:34Z</time>
      </trkpt>
      <trkpt lat="47.67499" lon="7.26147">
        <ele>255.8</ele>
        <time>2019-08-16T10:13:36Z</time>
      </trkpt>
      <trkpt lat="47.67496" lon="7.26142">
        <ele>255.8</ele>
        <time>2019-08-16T10:13:38Z</time>
      </trkpt>
      <trkpt lat="47.67494" lon="7.26138">
        <ele>255.9</ele>
        <time>2019-08-16T10:13:39Z</time>
      </trkpt>
      <trkpt lat="47.67491" lon="7.26134">
        <ele>255.9</ele>
        <time>2019-08-16T10:13:40Z</time>
      </trkpt>
      <trkpt lat="47.67489" lon="7.26131">
        <ele>255.9</ele>
        <time>2019-08-16T10:13:41Z</time>
      </trkpt>
      <trkpt lat="47.67486" lon="7.26128">
        <ele>256</ele>
        <time>2019-08-16T10:13:42Z</time>
      </trkpt>
      <trkpt lat="47.67484" lon="7.26125">
        <ele>256</ele>
        <time>2019-08-16T10:13:43Z</time>
      </trkpt>
      <trkpt lat="47.67482" lon="7.26121">
        <ele>256</ele>
        <time>2019-08-16T10:13:44Z</time>
      </trkpt>
      <trkpt lat="47.67479" lon="7.26118">
        <ele>256.1</ele>
        <time>2019-08-16T10:13:45Z</time>
      </trkpt>
      <trkpt lat="47.67475" lon="7.26116">
        <ele>256.1</ele>
        <time>2019-08-16T10:13:46Z</time>
      </trkpt>
      <trkpt lat="47.67473" lon="7.26113">
        <ele>256.1</ele>
        <time>2019-08-16T10:13:47Z</time>
      </trkpt>
      <trkpt lat="47.6747" lon="7.26111">
        <ele>256.1</ele>
        <time>2019-08-16T10:13:48Z</time>
      </trkpt>
      <trkpt lat="47.67467" lon="7.26109">
        <ele>256.1</ele>
        <time>2019-08-16T10:13:49Z</time>
      </trkpt>
      <trkpt lat="47.67464" lon="7.26107">
        <ele>256.1</ele>
        <time>2019-08-16T10:13:50Z</time>
      </trkpt>
      <trkpt lat="47.67461" lon="7.26105">
        <ele>256.1</ele>
        <time>2019-08-16T10:13:51Z</time>
      </trkpt>
      <trkpt lat="47.67459" lon="7.26103">
        <ele>256.1</ele>
        <time>2019-08-16T10:13:52Z</time>
      </trkpt>
      <trkpt lat="47.67456" lon="7.26101">
        <ele>256.1</ele>
        <time>2019-08-16T10:13:53Z</time>
      </trkpt>
      <trkpt lat="47.67453" lon="7.26098">
        <ele>256.1</ele>
        <time>2019-08-16T10:13:54Z</time>
      </trkpt>
      <trkpt lat="47.6745" lon="7.26095">
        <ele>256.1</ele>
        <time>2019-08-16T10:13:55Z</time>
      </trkpt>
      <trkpt lat="47.67446" lon="7.26092">
        <ele>256.1</ele>
        <time>2019-08-16T10:13:56Z</time>
      </trkpt>
      <trkpt lat="47.67443" lon="7.26089">
        <ele>256.1</ele>
        <time>2019-08-16T10:13:57Z</time>
      </trkpt>
      <trkpt lat="47.6744" lon="7.26086">
        <ele>256.1</ele>
        <time>2019-08-16T10:13:58Z</time>
      </trkpt>
      <trkpt lat="47.67437" lon="7.26083">
        <ele>256.1</ele>
        <time>2019-08-16T10:13:59Z</time>
      </trkpt>
      <trkpt lat="47.67435" lon="7.2608">
        <ele>256.1</ele>
        <time>2019-08-16T10:14:00Z</time>
      </trkpt>
      <trkpt lat="47.67432" lon="7.26077">
        <ele>256.1</ele>
        <time>2019-08-16T10:14:01Z</time>
      </trkpt>
      <trkpt lat="47.67429" lon="7.26074">
        <ele>256.1</ele>
        <time>2019-08-16T10:14:02Z</time>
      </trkpt>
      <trkpt lat="47.67426" lon="7.2607">
        <ele>256.1</ele>
        <time>2019-08-16T10:14:03Z</time>
      </trkpt>
      <trkpt lat="47.67423" lon="7.26067">
        <ele>256.1</ele>
        <time>2019-08-16T10:14:04Z</time>
      </trkpt>
      <trkpt lat="47.67419" lon="7.26064">
        <ele>256.1</ele>
        <time>2019-08-16T10:14:05Z</time>
      </trkpt>
      <trkpt lat="47.67415" lon="7.26061">
        <ele>256.1</ele>
        <time>2019-08-16T10:14:06Z</time>
      </trkpt>
      <trkpt lat="47.67411" lon="7.26058">
        <ele>256.1</ele>
        <time>2019-08-16T10:14:07Z</time>
      </trkpt>
      <trkpt lat="47.67408" lon="7.26054">
        <ele>256.1</ele>
        <time>2019-08-16T10:14:08Z</time>
      </trkpt>
      <trkpt lat="47.67404" lon="7.26051">
        <ele>256.2</ele>
        <time>2019-08-16T10:14:09Z</time>
      </trkpt>
      <trkpt lat="47.674" lon="7.26048">
        <ele>256.2</ele>
        <time>2019-08-16T10:14:10Z</time>
      </trkpt>
      <trkpt lat="47.67396" lon="7.26045">
        <ele>256.2</ele>
        <time>2019-08-16T10:14:11Z</time>
      </trkpt>
      <trkpt lat="47.67393" lon="7.26042">
        <ele>256.2</ele>
        <time>2019-08-16T10:14:12Z</time>
      </trkpt>
      <trkpt lat="47.6739" lon="7.26039">
        <ele>256.2</ele>
        <time>2019-08-16T10:14:13Z</time>
      </trkpt>
      <trkpt lat="47.67386" lon="7.26035">
        <ele>256.2</ele>
        <time>2019-08-16T10:14:14Z</time>
      </trkpt>
      <trkpt lat="47.67383" lon="7.2603">
        <ele>256.2</ele>
        <time>2019-08-16T10:14:15Z</time>
      </trkpt>
      <trkpt lat="47.67381" lon="7.26024">
        <ele>256.2</ele>
        <time>2019-08-16T10:14:16Z</time>
      </trkpt>
      <trkpt lat="47.67379" lon="7.26018">
        <ele>256.2</ele>
        <time>2019-08-16T10:14:17Z</time>
      </trkpt>
      <trkpt lat="47.67377" lon="7.26012">
        <ele>256.2</ele>
        <time>2019-08-16T10:14:18Z</time>
      </trkpt>
      <trkpt lat="47.67375" lon="7.26006">
        <ele>256.2</ele>
        <time>2019-08-16T10:14:19Z</time>
      </trkpt>
      <trkpt lat="47.67373" lon="7.26">
        <ele>256.2</ele>
        <time>2019-08-16T10:14:20Z</time>
      </trkpt>
      <trkpt lat="47.67371" lon="7.25994">
        <ele>256.2</ele>
        <time>2019-08-16T10:14:21Z</time>
      </trkpt>
      <trkpt lat="47.67369" lon="7.25987">
        <ele>256.2</ele>
        <time>2019-08-16T10:14:22Z</time>
      </trkpt>
      <trkpt lat="47.67367" lon="7.25982">
        <ele>256.2</ele>
        <time>2019-08-16T10:14:23Z</time>
      </trkpt>
      <trkpt lat="47.67364" lon="7.25976">
        <ele>256.2</ele>
        <time>2019-08-16T10:14:24Z</time>
      </trkpt>
      <trkpt lat="47.67361" lon="7.25971">
        <ele>256.3</ele>
        <time>2019-08-16T10:14:25Z</time>
      </trkpt>
      <trkpt lat="47.67358" lon="7.25967">
        <ele>256.3</ele>
        <time>2019-08-16T10:14:26Z</time>
      </trkpt>
      <trkpt lat="47.67355" lon="7.25962">
        <ele>256.3</ele>
        <time>2019-08-16T10:14:27Z</time>
      </trkpt>
      <trkpt lat="47.67351" lon="7.25959">
        <ele>256.3</ele>
        <time>2019-08-16T10:14:28Z</time>
      </trkpt>
      <trkpt lat="47.67347" lon="7.25956">
        <ele>256.4</ele>
        <time>2019-08-16T10:14:29Z</time>
      </trkpt>
      <trkpt lat="47.67343" lon="7.25954">
        <ele>256.4</ele>
        <time>2019-08-16T10:14:30Z</time>
      </trkpt>
      <trkpt lat="47.67339" lon="7.25951">
        <ele>256.4</ele>
        <time>2019-08-16T10:14:31Z</time>
      </trkpt>
      <trkpt lat="47.67335" lon="7.25949">
        <ele>256.5</ele>
        <time>2019-08-16T10:14:32Z</time>
      </trkpt>
      <trkpt lat="47.67331" lon="7.25947">
        <ele>256.5</ele>
        <time>2019-08-16T10:14:33Z</time>
      </trkpt>
      <trkpt lat="47.67327" lon="7.25943">
        <ele>256.5</ele>
        <time>2019-08-16T10:14:34Z</time>
      </trkpt>
      <trkpt lat="47.67323" lon="7.2594">
        <ele>256.5</ele>
        <time>2019-08-16T10:14:35Z</time>
      </trkpt>
      <trkpt lat="47.6732" lon="7.25936">
        <ele>256.6</ele>
        <time>2019-08-16T10:14:36Z</time>
      </trkpt>
      <trkpt lat="47.67315" lon="7.25932">
        <ele>256.6</ele>
        <time>2019-08-16T10:14:37Z</time>
      </trkpt>
      <trkpt lat="47.67312" lon="7.25927">
        <ele>256.6</ele>
        <time>2019-08-16T10:14:38Z</time>
      </trkpt>
      <trkpt lat="47.67309" lon="7.25922">
        <ele>256.7</ele>
        <time>2019-08-16T10:14:39Z</time>
      </trkpt>
      <trkpt lat="47.67305" lon="7.25917">
        <ele>256.7</ele>
        <time>2019-08-16T10:14:40Z</time>
      </trkpt>
      <trkpt lat="47.67301" lon="7.25913">
        <ele>256.8</ele>
        <time>2019-08-16T10:14:41Z</time>
      </trkpt>
      <trkpt lat="47.67298" lon="7.25909">
        <ele>256.8</ele>
        <time>2019-08-16T10:14:42Z</time>
      </trkpt>
      <trkpt lat="47.67295" lon="7.25905">
        <ele>256.8</ele>
        <time>2019-08-16T10:14:43Z</time>
      </trkpt>
      <trkpt lat="47.67292" lon="7.259">
        <ele>256.9</ele>
        <time>2019-08-16T10:14:44Z</time>
      </trkpt>
      <trkpt lat="47.67289" lon="7.25895">
        <ele>256.9</ele>
        <time>2019-08-16T10:14:45Z</time>
      </trkpt>
      <trkpt lat="47.67285" lon="7.2589">
        <ele>257</ele>
        <time>2019-08-16T10:14:46Z</time>
      </trkpt>
      <trkpt lat="47.67282" lon="7.25884">
        <ele>257</ele>
        <time>2019-08-16T10:14:47Z</time>
      </trkpt>
      <trkpt lat="47.67279" lon="7.25878">
        <ele>257.1</ele>
        <time>2019-08-16T10:14:48Z</time>
      </trkpt>
      <trkpt lat="47.67276" lon="7.25873">
        <ele>257.1</ele>
        <time>2019-08-16T10:14:49Z</time>
      </trkpt>
      <trkpt lat="47.67273" lon="7.25867">
        <ele>257.1</ele>
        <time>2019-08-16T10:14:50Z</time>
      </trkpt>
      <trkpt lat="47.67271" lon="7.25863">
        <ele>257.1</ele>
        <time>2019-08-16T10:14:51Z</time>
      </trkpt>
      <trkpt lat="47.67268" lon="7.25857">
        <ele>257.1</ele>
        <time>2019-08-16T10:14:52Z</time>
      </trkpt>
      <trkpt lat="47.67265" lon="7.25853">
        <ele>257.1</ele>
        <time>2019-08-16T10:14:53Z</time>
      </trkpt>
      <trkpt lat="47.67262" lon="7.25847">
        <ele>257.1</ele>
        <time>2019-08-16T10:14:54Z</time>
      </trkpt>
      <trkpt lat="47.67259" lon="7.25841">
        <ele>257.1</ele>
        <time>2019-08-16T10:14:55Z</time>
      </trkpt>
      <trkpt lat="47.67255" lon="7.25835">
        <ele>257.1</ele>
        <time>2019-08-16T10:14:56Z</time>
      </trkpt>
      <trkpt lat="47.67252" lon="7.2583">
        <ele>257.1</ele>
        <time>2019-08-16T10:14:57Z</time>
      </trkpt>
      <trkpt lat="47.6725" lon="7.25825">
        <ele>257.1</ele>
        <time>2019-08-16T10:14:58Z</time>
      </trkpt>
      <trkpt lat="47.67247" lon="7.2582">
        <ele>257.1</ele>
        <time>2019-08-16T10:14:59Z</time>
      </trkpt>
      <trkpt lat="47.67244" lon="7.25815">
        <ele>257.1</ele>
        <time>2019-08-16T10:15:00Z</time>
      </trkpt>
      <trkpt lat="47.67241" lon="7.2581">
        <ele>257.1</ele>
        <time>2019-08-16T10:15:01Z</time>
      </trkpt>
      <trkpt lat="47.67237" lon="7.25805">
        <ele>257.1</ele>
        <time>2019-08-16T10:15:02Z</time>
      </trkpt>
      <trkpt lat="47.67234" lon="7.258">
        <ele>257.2</ele>
        <time>2019-08-16T10:15:03Z</time>
      </trkpt>
      <trkpt lat="47.67231" lon="7.25795">
        <ele>257.2</ele>
        <time>2019-08-16T10:15:04Z</time>
      </trkpt>
      <trkpt lat="47.67228" lon="7.25789">
        <ele>257.2</ele>
        <time>2019-08-16T10:15:05Z</time>
      </trkpt>
      <trkpt lat="47.67225" lon="7.25784">
        <ele>257.2</ele>
        <time>2019-08-16T10:15:06Z</time>
      </trkpt>
      <trkpt lat="47.67223" lon="7.25779">
        <ele>257.2</ele>
        <time>2019-08-16T10:15:07Z</time>
      </trkpt>
      <trkpt lat="47.6722" lon="7.25775">
        <ele>257.2</ele>
        <time>2019-08-16T10:15:08Z</time>
      </trkpt>
      <trkpt lat="47.67217" lon="7.25769">
        <ele>257.2</ele>
        <time>2019-08-16T10:15:09Z</time>
      </trkpt>
      <trkpt lat="47.67214" lon="7.25765">
        <ele>257.2</ele>
        <time>2019-08-16T10:15:10Z</time>
      </trkpt>
      <trkpt lat="47.67211" lon="7.2576">
        <ele>257.2</ele>
        <time>2019-08-16T10:15:11Z</time>
      </trkpt>
      <trkpt lat="47.67208" lon="7.25756">
        <ele>257.2</ele>
        <time>2019-08-16T10:15:12Z</time>
      </trkpt>
      <trkpt lat="47.67205" lon="7.25751">
        <ele>257.2</ele>
        <time>2019-08-16T10:15:13Z</time>
      </trkpt>
      <trkpt lat="47.67203" lon="7.25746">
        <ele>257.2</ele>
        <time>2019-08-16T10:15:14Z</time>
      </trkpt>
      <trkpt lat="47.672" lon="7.25741">
        <ele>257.2</ele>
        <time>2019-08-16T10:15:15Z</time>
      </trkpt>
      <trkpt lat="47.67198" lon="7.25734">
        <ele>257.2</ele>
        <time>2019-08-16T10:15:16Z</time>
      </trkpt>
      <trkpt lat="47.67195" lon="7.25727">
        <ele>257.1</ele>
        <time>2019-08-16T10:15:17Z</time>
      </trkpt>
      <trkpt lat="47.67194" lon="7.25719">
        <ele>257</ele>
        <time>2019-08-16T10:15:18Z</time>
      </trkpt>
      <trkpt lat="47.67192" lon="7.25712">
        <ele>256.9</ele>
        <time>2019-08-16T10:15:19Z</time>
      </trkpt>
      <trkpt lat="47.6719" lon="7.25707">
        <ele>256.9</ele>
        <time>2019-08-16T10:15:20Z</time>
      </trkpt>
      <trkpt lat="47.67188" lon="7.25702">
        <ele>256.8</ele>
        <time>2019-08-16T10:15:21Z</time>
      </trkpt>
      <trkpt lat="47.67184" lon="7.25697">
        <ele>256.8</ele>
        <time>2019-08-16T10:15:22Z</time>
      </trkpt>
      <trkpt lat="47.67181" lon="7.25691">
        <ele>256.8</ele>
        <time>2019-08-16T10:15:23Z</time>
      </trkpt>
      <trkpt lat="47.67178" lon="7.25686">
        <ele>256.8</ele>
        <time>2019-08-16T10:15:24Z</time>
      </trkpt>
      <trkpt lat="47.67175" lon="7.25681">
        <ele>256.8</ele>
        <time>2019-08-16T10:15:25Z</time>
      </trkpt>
      <trkpt lat="47.67172" lon="7.25676">
        <ele>256.8</ele>
        <time>2019-08-16T10:15:26Z</time>
      </trkpt>
      <trkpt lat="47.67168" lon="7.25672">
        <ele>256.7</ele>
        <time>2019-08-16T10:15:27Z</time>
      </trkpt>
      <trkpt lat="47.67165" lon="7.25667">
        <ele>256.7</ele>
        <time>2019-08-16T10:15:28Z</time>
      </trkpt>
      <trkpt lat="47.67162" lon="7.25663">
        <ele>256.7</ele>
        <time>2019-08-16T10:15:29Z</time>
      </trkpt>
      <trkpt lat="47.67159" lon="7.25659">
        <ele>256.7</ele>
        <time>2019-08-16T10:15:30Z</time>
      </trkpt>
      <trkpt lat="47.67156" lon="7.25654">
        <ele>256.6</ele>
        <time>2019-08-16T10:15:31Z</time>
      </trkpt>
      <trkpt lat="47.67153" lon="7.2565">
        <ele>256.6</ele>
        <time>2019-08-16T10:15:32Z</time>
      </trkpt>
      <trkpt lat="47.67151" lon="7.25645">
        <ele>256.6</ele>
        <time>2019-08-16T10:15:33Z</time>
      </trkpt>
      <trkpt lat="47.67148" lon="7.2564">
        <ele>256.6</ele>
        <time>2019-08-16T10:15:34Z</time>
      </trkpt>
      <trkpt lat="47.67145" lon="7.25636">
        <ele>256.6</ele>
        <time>2019-08-16T10:15:35Z</time>
      </trkpt>
      <trkpt lat="47.67143" lon="7.25631">
        <ele>256.6</ele>
        <time>2019-08-16T10:15:36Z</time>
      </trkpt>
      <trkpt lat="47.67141" lon="7.25627">
        <ele>256.6</ele>
        <time>2019-08-16T10:15:37Z</time>
      </trkpt>
      <trkpt lat="47.67138" lon="7.25623">
        <ele>256.6</ele>
        <time>2019-08-16T10:15:38Z</time>
      </trkpt>
      <trkpt lat="47.67136" lon="7.25619">
        <ele>256.6</ele>
        <time>2019-08-16T10:15:39Z</time>
      </trkpt>
      <trkpt lat="47.67133" lon="7.25615">
        <ele>256.6</ele>
        <time>2019-08-16T10:15:40Z</time>
      </trkpt>
      <trkpt lat="47.6713" lon="7.2561">
        <ele>256.6</ele>
        <time>2019-08-16T10:15:41Z</time>
      </trkpt>
      <trkpt lat="47.67127" lon="7.25606">
        <ele>256.6</ele>
        <time>2019-08-16T10:15:42Z</time>
      </trkpt>
      <trkpt lat="47.67125" lon="7.25602">
        <ele>256.7</ele>
        <time>2019-08-16T10:15:43Z</time>
      </trkpt>
      <trkpt lat="47.67121" lon="7.25598">
        <ele>256.8</ele>
        <time>2019-08-16T10:15:44Z</time>
      </trkpt>
      <trkpt lat="47.67118" lon="7.25593">
        <ele>256.8</ele>
        <time>2019-08-16T10:15:45Z</time>
      </trkpt>
      <trkpt lat="47.67114" lon="7.25589">
        <ele>256.7</ele>
        <time>2019-08-16T10:15:46Z</time>
      </trkpt>
      <trkpt lat="47.6711" lon="7.25584">
        <ele>256.7</ele>
        <time>2019-08-16T10:15:47Z</time>
      </trkpt>
      <trkpt lat="47.67106" lon="7.2558">
        <ele>256.7</ele>
        <time>2019-08-16T10:15:48Z</time>
      </trkpt>
      <trkpt lat="47.67102" lon="7.25575">
        <ele>256.7</ele>
        <time>2019-08-16T10:15:49Z</time>
      </trkpt>
      <trkpt lat="47.671" lon="7.25571">
        <ele>256.7</ele>
        <time>2019-08-16T10:15:50Z</time>
      </trkpt>
      <trkpt lat="47.67097" lon="7.25566">
        <ele>256.7</ele>
        <time>2019-08-16T10:15:51Z</time>
      </trkpt>
      <trkpt lat="47.67095" lon="7.2556">
        <ele>256.7</ele>
        <time>2019-08-16T10:15:52Z</time>
      </trkpt>
      <trkpt lat="47.67093" lon="7.25554">
        <ele>256.7</ele>
        <time>2019-08-16T10:15:53Z</time>
      </trkpt>
      <trkpt lat="47.67091" lon="7.25549">
        <ele>256.7</ele>
        <time>2019-08-16T10:15:54Z</time>
      </trkpt>
      <trkpt lat="47.67089" lon="7.25544">
        <ele>256.7</ele>
        <time>2019-08-16T10:15:55Z</time>
      </trkpt>
      <trkpt lat="47.67087" lon="7.25539">
        <ele>256.7</ele>
        <time>2019-08-16T10:15:56Z</time>
      </trkpt>
      <trkpt lat="47.67085" lon="7.25533">
        <ele>256.6</ele>
        <time>2019-08-16T10:15:57Z</time>
      </trkpt>
      <trkpt lat="47.67083" lon="7.25528">
        <ele>256.6</ele>
        <time>2019-08-16T10:15:58Z</time>
      </trkpt>
      <trkpt lat="47.67081" lon="7.25523">
        <ele>256.6</ele>
        <time>2019-08-16T10:15:59Z</time>
      </trkpt>
      <trkpt lat="47.67078" lon="7.25517">
        <ele>256.6</ele>
        <time>2019-08-16T10:16:00Z</time>
      </trkpt>
      <trkpt lat="47.67075" lon="7.25513">
        <ele>256.7</ele>
        <time>2019-08-16T10:16:01Z</time>
      </trkpt>
      <trkpt lat="47.67071" lon="7.25508">
        <ele>256.7</ele>
        <time>2019-08-16T10:16:02Z</time>
      </trkpt>
      <trkpt lat="47.67068" lon="7.25504">
        <ele>256.7</ele>
        <time>2019-08-16T10:16:03Z</time>
      </trkpt>
      <trkpt lat="47.67064" lon="7.25499">
        <ele>256.7</ele>
        <time>2019-08-16T10:16:04Z</time>
      </trkpt>
      <trkpt lat="47.67061" lon="7.25495">
        <ele>256.7</ele>
        <time>2019-08-16T10:16:05Z</time>
      </trkpt>
      <trkpt lat="47.67059" lon="7.25491">
        <ele>256.7</ele>
        <time>2019-08-16T10:16:06Z</time>
      </trkpt>
      <trkpt lat="47.67056" lon="7.25486">
        <ele>256.7</ele>
        <time>2019-08-16T10:16:07Z</time>
      </trkpt>
      <trkpt lat="47.67053" lon="7.25482">
        <ele>256.8</ele>
        <time>2019-08-16T10:16:08Z</time>
      </trkpt>
      <trkpt lat="47.67049" lon="7.25478">
        <ele>256.8</ele>
        <time>2019-08-16T10:16:09Z</time>
      </trkpt>
      <trkpt lat="47.67046" lon="7.25473">
        <ele>256.8</ele>
        <time>2019-08-16T10:16:10Z</time>
      </trkpt>
      <trkpt lat="47.67042" lon="7.25469">
        <ele>256.8</ele>
        <time>2019-08-16T10:16:11Z</time>
      </trkpt>
      <trkpt lat="47.67039" lon="7.25465">
        <ele>256.9</ele>
        <time>2019-08-16T10:16:12Z</time>
      </trkpt>
      <trkpt lat="47.67036" lon="7.25461">
        <ele>256.9</ele>
        <time>2019-08-16T10:16:13Z</time>
      </trkpt>
      <trkpt lat="47.67033" lon="7.25456">
        <ele>256.9</ele>
        <time>2019-08-16T10:16:14Z</time>
      </trkpt>
      <trkpt lat="47.6703" lon="7.25452">
        <ele>257</ele>
        <time>2019-08-16T10:16:15Z</time>
      </trkpt>
      <trkpt lat="47.67026" lon="7.25447">
        <ele>257</ele>
        <time>2019-08-16T10:16:16Z</time>
      </trkpt>
      <trkpt lat="47.67023" lon="7.25442">
        <ele>257.1</ele>
        <time>2019-08-16T10:16:17Z</time>
      </trkpt>
      <trkpt lat="47.6702" lon="7.25437">
        <ele>257.1</ele>
        <time>2019-08-16T10:16:18Z</time>
      </trkpt>
      <trkpt lat="47.67017" lon="7.25432">
        <ele>257.2</ele>
        <time>2019-08-16T10:16:19Z</time>
      </trkpt>
      <trkpt lat="47.67014" lon="7.25427">
        <ele>257.2</ele>
        <time>2019-08-16T10:16:20Z</time>
      </trkpt>
      <trkpt lat="47.67011" lon="7.25421">
        <ele>257.3</ele>
        <time>2019-08-16T10:16:21Z</time>
      </trkpt>
      <trkpt lat="47.67008" lon="7.25416">
        <ele>257.3</ele>
        <time>2019-08-16T10:16:22Z</time>
      </trkpt>
      <trkpt lat="47.67004" lon="7.25411">
        <ele>257.3</ele>
        <time>2019-08-16T10:16:23Z</time>
      </trkpt>
      <trkpt lat="47.67001" lon="7.25406">
        <ele>257.4</ele>
        <time>2019-08-16T10:16:24Z</time>
      </trkpt>
      <trkpt lat="47.66998" lon="7.25401">
        <ele>257.4</ele>
        <time>2019-08-16T10:16:25Z</time>
      </trkpt>
      <trkpt lat="47.66995" lon="7.25396">
        <ele>257.4</ele>
        <time>2019-08-16T10:16:26Z</time>
      </trkpt>
      <trkpt lat="47.66991" lon="7.25391">
        <ele>257.4</ele>
        <time>2019-08-16T10:16:27Z</time>
      </trkpt>
      <trkpt lat="47.66988" lon="7.25386">
        <ele>257.3</ele>
        <time>2019-08-16T10:16:28Z</time>
      </trkpt>
      <trkpt lat="47.66986" lon="7.25381">
        <ele>257.3</ele>
        <time>2019-08-16T10:16:29Z</time>
      </trkpt>
      <trkpt lat="47.66982" lon="7.25376">
        <ele>257.3</ele>
        <time>2019-08-16T10:16:30Z</time>
      </trkpt>
      <trkpt lat="47.66979" lon="7.25372">
        <ele>257.3</ele>
        <time>2019-08-16T10:16:31Z</time>
      </trkpt>
      <trkpt lat="47.66976" lon="7.25368">
        <ele>257.2</ele>
        <time>2019-08-16T10:16:32Z</time>
      </trkpt>
      <trkpt lat="47.66973" lon="7.25364">
        <ele>257.2</ele>
        <time>2019-08-16T10:16:33Z</time>
      </trkpt>
      <trkpt lat="47.6697" lon="7.25359">
        <ele>257.1</ele>
        <time>2019-08-16T10:16:34Z</time>
      </trkpt>
      <trkpt lat="47.66967" lon="7.25354">
        <ele>257.1</ele>
        <time>2019-08-16T10:16:35Z</time>
      </trkpt>
      <trkpt lat="47.66964" lon="7.2535">
        <ele>257</ele>
        <time>2019-08-16T10:16:36Z</time>
      </trkpt>
      <trkpt lat="47.6696" lon="7.25345">
        <ele>257</ele>
        <time>2019-08-16T10:16:37Z</time>
      </trkpt>
      <trkpt lat="47.66957" lon="7.2534">
        <ele>256.9</ele>
        <time>2019-08-16T10:16:38Z</time>
      </trkpt>
      <trkpt lat="47.66953" lon="7.25335">
        <ele>256.9</ele>
        <time>2019-08-16T10:16:39Z</time>
      </trkpt>
      <trkpt lat="47.6695" lon="7.2533">
        <ele>256.8</ele>
        <time>2019-08-16T10:16:40Z</time>
      </trkpt>
      <trkpt lat="47.66947" lon="7.25326">
        <ele>256.8</ele>
        <time>2019-08-16T10:16:41Z</time>
      </trkpt>
      <trkpt lat="47.66944" lon="7.25321">
        <ele>256.8</ele>
        <time>2019-08-16T10:16:42Z</time>
      </trkpt>
      <trkpt lat="47.6694" lon="7.25316">
        <ele>256.8</ele>
        <time>2019-08-16T10:16:43Z</time>
      </trkpt>
      <trkpt lat="47.66937" lon="7.25311">
        <ele>256.7</ele>
        <time>2019-08-16T10:16:44Z</time>
      </trkpt>
      <trkpt lat="47.66934" lon="7.25306">
        <ele>256.7</ele>
        <time>2019-08-16T10:16:45Z</time>
      </trkpt>
      <trkpt lat="47.66931" lon="7.253">
        <ele>256.7</ele>
        <time>2019-08-16T10:16:46Z</time>
      </trkpt>
      <trkpt lat="47.66928" lon="7.25294">
        <ele>256.7</ele>
        <time>2019-08-16T10:16:47Z</time>
      </trkpt>
      <trkpt lat="47.66925" lon="7.25289">
        <ele>256.7</ele>
        <time>2019-08-16T10:16:48Z</time>
      </trkpt>
      <trkpt lat="47.66922" lon="7.25284">
        <ele>256.7</ele>
        <time>2019-08-16T10:16:49Z</time>
      </trkpt>
      <trkpt lat="47.66919" lon="7.25279">
        <ele>256.7</ele>
        <time>2019-08-16T10:16:50Z</time>
      </trkpt>
      <trkpt lat="47.66916" lon="7.25275">
        <ele>256.7</ele>
        <time>2019-08-16T10:16:51Z</time>
      </trkpt>
      <trkpt lat="47.66913" lon="7.25271">
        <ele>256.7</ele>
        <time>2019-08-16T10:16:52Z</time>
      </trkpt>
      <trkpt lat="47.6691" lon="7.25266">
        <ele>256.7</ele>
        <time>2019-08-16T10:16:53Z</time>
      </trkpt>
      <trkpt lat="47.66906" lon="7.2526">
        <ele>256.7</ele>
        <time>2019-08-16T10:16:54Z</time>
      </trkpt>
      <trkpt lat="47.66902" lon="7.25255">
        <ele>256.7</ele>
        <time>2019-08-16T10:16:55Z</time>
      </trkpt>
      <trkpt lat="47.66898" lon="7.2525">
        <ele>256.6</ele>
        <time>2019-08-16T10:16:56Z</time>
      </trkpt>
      <trkpt lat="47.66895" lon="7.25246">
        <ele>256.6</ele>
        <time>2019-08-16T10:16:57Z</time>
      </trkpt>
      <trkpt lat="47.66891" lon="7.2524">
        <ele>256.6</ele>
        <time>2019-08-16T10:16:58Z</time>
      </trkpt>
      <trkpt lat="47.66887" lon="7.25235">
        <ele>256.6</ele>
        <time>2019-08-16T10:16:59Z</time>
      </trkpt>
      <trkpt lat="47.66884" lon="7.2523">
        <ele>256.6</ele>
        <time>2019-08-16T10:17:00Z</time>
      </trkpt>
      <trkpt lat="47.66881" lon="7.25224">
        <ele>256.6</ele>
        <time>2019-08-16T10:17:01Z</time>
      </trkpt>
      <trkpt lat="47.66878" lon="7.25218">
        <ele>256.6</ele>
        <time>2019-08-16T10:17:02Z</time>
      </trkpt>
      <trkpt lat="47.66874" lon="7.25214">
        <ele>256.6</ele>
        <time>2019-08-16T10:17:03Z</time>
      </trkpt>
      <trkpt lat="47.66871" lon="7.25208">
        <ele>256.6</ele>
        <time>2019-08-16T10:17:04Z</time>
      </trkpt>
      <trkpt lat="47.66867" lon="7.25202">
        <ele>256.6</ele>
        <time>2019-08-16T10:17:05Z</time>
      </trkpt>
      <trkpt lat="47.66865" lon="7.25197">
        <ele>256.6</ele>
        <time>2019-08-16T10:17:06Z</time>
      </trkpt>
      <trkpt lat="47.66861" lon="7.25192">
        <ele>256.6</ele>
        <time>2019-08-16T10:17:07Z</time>
      </trkpt>
      <trkpt lat="47.66858" lon="7.25186">
        <ele>256.6</ele>
        <time>2019-08-16T10:17:08Z</time>
      </trkpt>
      <trkpt lat="47.66855" lon="7.25181">
        <ele>256.6</ele>
        <time>2019-08-16T10:17:09Z</time>
      </trkpt>
      <trkpt lat="47.66852" lon="7.25176">
        <ele>256.6</ele>
        <time>2019-08-16T10:17:10Z</time>
      </trkpt>
      <trkpt lat="47.66849" lon="7.2517">
        <ele>256.6</ele>
        <time>2019-08-16T10:17:11Z</time>
      </trkpt>
      <trkpt lat="47.66847" lon="7.25164">
        <ele>256.6</ele>
        <time>2019-08-16T10:17:12Z</time>
      </trkpt>
      <trkpt lat="47.66844" lon="7.25159">
        <ele>256.6</ele>
        <time>2019-08-16T10:17:13Z</time>
      </trkpt>
      <trkpt lat="47.6684" lon="7.25154">
        <ele>256.7</ele>
        <time>2019-08-16T10:17:14Z</time>
      </trkpt>
      <trkpt lat="47.66837" lon="7.25148">
        <ele>256.7</ele>
        <time>2019-08-16T10:17:15Z</time>
      </trkpt>
      <trkpt lat="47.66834" lon="7.25142">
        <ele>256.7</ele>
        <time>2019-08-16T10:17:16Z</time>
      </trkpt>
      <trkpt lat="47.6683" lon="7.25137">
        <ele>256.6</ele>
        <time>2019-08-16T10:17:17Z</time>
      </trkpt>
      <trkpt lat="47.66827" lon="7.25132">
        <ele>256.6</ele>
        <time>2019-08-16T10:17:18Z</time>
      </trkpt>
      <trkpt lat="47.66823" lon="7.25128">
        <ele>256.6</ele>
        <time>2019-08-16T10:17:19Z</time>
      </trkpt>
      <trkpt lat="47.66819" lon="7.25124">
        <ele>256.6</ele>
        <time>2019-08-16T10:17:20Z</time>
      </trkpt>
      <trkpt lat="47.66816" lon="7.25119">
        <ele>256.6</ele>
        <time>2019-08-16T10:17:21Z</time>
      </trkpt>
      <trkpt lat="47.66812" lon="7.25114">
        <ele>256.6</ele>
        <time>2019-08-16T10:17:22Z</time>
      </trkpt>
      <trkpt lat="47.66808" lon="7.25109">
        <ele>256.6</ele>
        <time>2019-08-16T10:17:23Z</time>
      </trkpt>
      <trkpt lat="47.66804" lon="7.25104">
        <ele>256.6</ele>
        <time>2019-08-16T10:17:24Z</time>
      </trkpt>
      <trkpt lat="47.668" lon="7.25098">
        <ele>256.6</ele>
        <time>2019-08-16T10:17:25Z</time>
      </trkpt>
      <trkpt lat="47.66796" lon="7.25093">
        <ele>256.7</ele>
        <time>2019-08-16T10:17:26Z</time>
      </trkpt>
      <trkpt lat="47.66792" lon="7.25088">
        <ele>256.7</ele>
        <time>2019-08-16T10:17:27Z</time>
      </trkpt>
      <trkpt lat="47.66788" lon="7.25083">
        <ele>256.7</ele>
        <time>2019-08-16T10:17:28Z</time>
      </trkpt>
      <trkpt lat="47.66784" lon="7.25077">
        <ele>256.7</ele>
        <time>2019-08-16T10:17:29Z</time>
      </trkpt>
      <trkpt lat="47.66781" lon="7.25072">
        <ele>256.7</ele>
        <time>2019-08-16T10:17:30Z</time>
      </trkpt>
      <trkpt lat="47.66776" lon="7.25068">
        <ele>256.7</ele>
        <time>2019-08-16T10:17:31Z</time>
      </trkpt>
      <trkpt lat="47.66772" lon="7.25062">
        <ele>256.7</ele>
        <time>2019-08-16T10:17:32Z</time>
      </trkpt>
      <trkpt lat="47.66768" lon="7.25057">
        <ele>256.8</ele>
        <time>2019-08-16T10:17:33Z</time>
      </trkpt>
      <trkpt lat="47.66764" lon="7.25051">
        <ele>256.8</ele>
        <time>2019-08-16T10:17:34Z</time>
      </trkpt>
      <trkpt lat="47.6676" lon="7.25046">
        <ele>256.8</ele>
        <time>2019-08-16T10:17:35Z</time>
      </trkpt>
      <trkpt lat="47.66757" lon="7.25042">
        <ele>256.8</ele>
        <time>2019-08-16T10:17:36Z</time>
      </trkpt>
      <trkpt lat="47.66753" lon="7.25037">
        <ele>256.8</ele>
        <time>2019-08-16T10:17:37Z</time>
      </trkpt>
      <trkpt lat="47.66749" lon="7.25033">
        <ele>256.8</ele>
        <time>2019-08-16T10:17:38Z</time>
      </trkpt>
      <trkpt lat="47.66746" lon="7.25028">
        <ele>256.8</ele>
        <time>2019-08-16T10:17:39Z</time>
      </trkpt>
      <trkpt lat="47.66742" lon="7.25024">
        <ele>256.8</ele>
        <time>2019-08-16T10:17:40Z</time>
      </trkpt>
      <trkpt lat="47.66739" lon="7.25018">
        <ele>256.8</ele>
        <time>2019-08-16T10:17:41Z</time>
      </trkpt>
      <trkpt lat="47.66735" lon="7.25014">
        <ele>256.8</ele>
        <time>2019-08-16T10:17:42Z</time>
      </trkpt>
      <trkpt lat="47.66732" lon="7.25008">
        <ele>256.8</ele>
        <time>2019-08-16T10:17:43Z</time>
      </trkpt>
      <trkpt lat="47.66729" lon="7.25003">
        <ele>256.8</ele>
        <time>2019-08-16T10:17:44Z</time>
      </trkpt>
      <trkpt lat="47.66726" lon="7.24997">
        <ele>256.7</ele>
        <time>2019-08-16T10:17:45Z</time>
      </trkpt>
      <trkpt lat="47.66723" lon="7.24992">
        <ele>256.7</ele>
        <time>2019-08-16T10:17:46Z</time>
      </trkpt>
      <trkpt lat="47.66719" lon="7.24986">
        <ele>256.7</ele>
        <time>2019-08-16T10:17:47Z</time>
      </trkpt>
      <trkpt lat="47.66715" lon="7.24981">
        <ele>256.6</ele>
        <time>2019-08-16T10:17:48Z</time>
      </trkpt>
      <trkpt lat="47.66712" lon="7.24975">
        <ele>256.6</ele>
        <time>2019-08-16T10:17:49Z</time>
      </trkpt>
      <trkpt lat="47.66708" lon="7.2497">
        <ele>256.6</ele>
        <time>2019-08-16T10:17:50Z</time>
      </trkpt>
      <trkpt lat="47.66705" lon="7.24964">
        <ele>256.5</ele>
        <time>2019-08-16T10:17:51Z</time>
      </trkpt>
      <trkpt lat="47.66702" lon="7.2496">
        <ele>256.5</ele>
        <time>2019-08-16T10:17:52Z</time>
      </trkpt>
      <trkpt lat="47.66698" lon="7.24956">
        <ele>256.5</ele>
        <time>2019-08-16T10:17:53Z</time>
      </trkpt>
      <trkpt lat="47.66695" lon="7.24952">
        <ele>256.5</ele>
        <time>2019-08-16T10:17:54Z</time>
      </trkpt>
      <trkpt lat="47.66692" lon="7.24947">
        <ele>256.5</ele>
        <time>2019-08-16T10:17:55Z</time>
      </trkpt>
      <trkpt lat="47.66689" lon="7.24942">
        <ele>256.5</ele>
        <time>2019-08-16T10:17:56Z</time>
      </trkpt>
      <trkpt lat="47.66685" lon="7.24937">
        <ele>256.5</ele>
        <time>2019-08-16T10:17:57Z</time>
      </trkpt>
      <trkpt lat="47.66682" lon="7.24932">
        <ele>256.5</ele>
        <time>2019-08-16T10:17:58Z</time>
      </trkpt>
      <trkpt lat="47.66678" lon="7.24928">
        <ele>256.6</ele>
        <time>2019-08-16T10:17:59Z</time>
      </trkpt>
      <trkpt lat="47.66675" lon="7.24923">
        <ele>256.6</ele>
        <time>2019-08-16T10:18:00Z</time>
      </trkpt>
      <trkpt lat="47.66671" lon="7.24917">
        <ele>256.6</ele>
        <time>2019-08-16T10:18:01Z</time>
      </trkpt>
      <trkpt lat="47.66667" lon="7.24912">
        <ele>256.6</ele>
        <time>2019-08-16T10:18:02Z</time>
      </trkpt>
      <trkpt lat="47.66665" lon="7.24907">
        <ele>256.7</ele>
        <time>2019-08-16T10:18:03Z</time>
      </trkpt>
      <trkpt lat="47.66662" lon="7.24903">
        <ele>256.7</ele>
        <time>2019-08-16T10:18:04Z</time>
      </trkpt>
      <trkpt lat="47.66659" lon="7.24898">
        <ele>256.7</ele>
        <time>2019-08-16T10:18:05Z</time>
      </trkpt>
      <trkpt lat="47.66656" lon="7.24892">
        <ele>256.7</ele>
        <time>2019-08-16T10:18:06Z</time>
      </trkpt>
      <trkpt lat="47.66652" lon="7.24886">
        <ele>256.8</ele>
        <time>2019-08-16T10:18:07Z</time>
      </trkpt>
      <trkpt lat="47.66649" lon="7.24879">
        <ele>256.8</ele>
        <time>2019-08-16T10:18:08Z</time>
      </trkpt>
      <trkpt lat="47.66646" lon="7.24873">
        <ele>256.8</ele>
        <time>2019-08-16T10:18:09Z</time>
      </trkpt>
      <trkpt lat="47.66642" lon="7.24868">
        <ele>256.8</ele>
        <time>2019-08-16T10:18:10Z</time>
      </trkpt>
      <trkpt lat="47.66638" lon="7.24862">
        <ele>256.9</ele>
        <time>2019-08-16T10:18:11Z</time>
      </trkpt>
      <trkpt lat="47.66635" lon="7.24857">
        <ele>256.9</ele>
        <time>2019-08-16T10:18:12Z</time>
      </trkpt>
      <trkpt lat="47.66631" lon="7.24852">
        <ele>256.9</ele>
        <time>2019-08-16T10:18:13Z</time>
      </trkpt>
      <trkpt lat="47.66628" lon="7.24847">
        <ele>256.9</ele>
        <time>2019-08-16T10:18:14Z</time>
      </trkpt>
      <trkpt lat="47.66626" lon="7.24842">
        <ele>256.9</ele>
        <time>2019-08-16T10:18:15Z</time>
      </trkpt>
      <trkpt lat="47.66623" lon="7.24837">
        <ele>256.9</ele>
        <time>2019-08-16T10:18:16Z</time>
      </trkpt>
      <trkpt lat="47.66619" lon="7.24833">
        <ele>257</ele>
        <time>2019-08-16T10:18:17Z</time>
      </trkpt>
      <trkpt lat="47.66617" lon="7.24829">
        <ele>257</ele>
        <time>2019-08-16T10:18:18Z</time>
      </trkpt>
      <trkpt lat="47.66614" lon="7.24824">
        <ele>257</ele>
        <time>2019-08-16T10:18:19Z</time>
      </trkpt>
      <trkpt lat="47.6661" lon="7.24819">
        <ele>257</ele>
        <time>2019-08-16T10:18:20Z</time>
      </trkpt>
      <trkpt lat="47.66608" lon="7.24814">
        <ele>257</ele>
        <time>2019-08-16T10:18:21Z</time>
      </trkpt>
      <trkpt lat="47.66604" lon="7.24809">
        <ele>257</ele>
        <time>2019-08-16T10:18:22Z</time>
      </trkpt>
      <trkpt lat="47.66601" lon="7.24805">
        <ele>257</ele>
        <time>2019-08-16T10:18:23Z</time>
      </trkpt>
      <trkpt lat="47.66597" lon="7.248">
        <ele>257</ele>
        <time>2019-08-16T10:18:24Z</time>
      </trkpt>
      <trkpt lat="47.66594" lon="7.24795">
        <ele>257</ele>
        <time>2019-08-16T10:18:25Z</time>
      </trkpt>
      <trkpt lat="47.6659" lon="7.2479">
        <ele>257</ele>
        <time>2019-08-16T10:18:26Z</time>
      </trkpt>
      <trkpt lat="47.66587" lon="7.24785">
        <ele>257</ele>
        <time>2019-08-16T10:18:27Z</time>
      </trkpt>
      <trkpt lat="47.66584" lon="7.2478">
        <ele>257</ele>
        <time>2019-08-16T10:18:28Z</time>
      </trkpt>
      <trkpt lat="47.6658" lon="7.24775">
        <ele>257</ele>
        <time>2019-08-16T10:18:29Z</time>
      </trkpt>
      <trkpt lat="47.66577" lon="7.24769">
        <ele>257</ele>
        <time>2019-08-16T10:18:30Z</time>
      </trkpt>
      <trkpt lat="47.66574" lon="7.24764">
        <ele>257.1</ele>
        <time>2019-08-16T10:18:31Z</time>
      </trkpt>
      <trkpt lat="47.66571" lon="7.24759">
        <ele>257.1</ele>
        <time>2019-08-16T10:18:32Z</time>
      </trkpt>
      <trkpt lat="47.66568" lon="7.24754">
        <ele>257.1</ele>
        <time>2019-08-16T10:18:33Z</time>
      </trkpt>
      <trkpt lat="47.66564" lon="7.24749">
        <ele>257.1</ele>
        <time>2019-08-16T10:18:34Z</time>
      </trkpt>
      <trkpt lat="47.66561" lon="7.24744">
        <ele>257.1</ele>
        <time>2019-08-16T10:18:35Z</time>
      </trkpt>
      <trkpt lat="47.66558" lon="7.24741">
        <ele>257.1</ele>
        <time>2019-08-16T10:18:36Z</time>
      </trkpt>
      <trkpt lat="47.66555" lon="7.24736">
        <ele>257.1</ele>
        <time>2019-08-16T10:18:37Z</time>
      </trkpt>
      <trkpt lat="47.66553" lon="7.24732">
        <ele>257</ele>
        <time>2019-08-16T10:18:38Z</time>
      </trkpt>
      <trkpt lat="47.66551" lon="7.24726">
        <ele>257</ele>
        <time>2019-08-16T10:18:39Z</time>
      </trkpt>
      <trkpt lat="47.66548" lon="7.24722">
        <ele>257</ele>
        <time>2019-08-16T10:18:40Z</time>
      </trkpt>
      <trkpt lat="47.66545" lon="7.24717">
        <ele>257</ele>
        <time>2019-08-16T10:18:41Z</time>
      </trkpt>
      <trkpt lat="47.66542" lon="7.24712">
        <ele>257</ele>
        <time>2019-08-16T10:18:42Z</time>
      </trkpt>
      <trkpt lat="47.6654" lon="7.24707">
        <ele>257</ele>
        <time>2019-08-16T10:18:43Z</time>
      </trkpt>
      <trkpt lat="47.66537" lon="7.24702">
        <ele>256.9</ele>
        <time>2019-08-16T10:18:44Z</time>
      </trkpt>
      <trkpt lat="47.66533" lon="7.24698">
        <ele>256.9</ele>
        <time>2019-08-16T10:18:45Z</time>
      </trkpt>
      <trkpt lat="47.6653" lon="7.24692">
        <ele>256.9</ele>
        <time>2019-08-16T10:18:46Z</time>
      </trkpt>
      <trkpt lat="47.66527" lon="7.24686">
        <ele>256.9</ele>
        <time>2019-08-16T10:18:47Z</time>
      </trkpt>
      <trkpt lat="47.66523" lon="7.2468">
        <ele>256.9</ele>
        <time>2019-08-16T10:18:48Z</time>
      </trkpt>
      <trkpt lat="47.6652" lon="7.24675">
        <ele>256.9</ele>
        <time>2019-08-16T10:18:49Z</time>
      </trkpt>
      <trkpt lat="47.66517" lon="7.2467">
        <ele>256.9</ele>
        <time>2019-08-16T10:18:50Z</time>
      </trkpt>
      <trkpt lat="47.66514" lon="7.24665">
        <ele>256.9</ele>
        <time>2019-08-16T10:18:51Z</time>
      </trkpt>
      <trkpt lat="47.66511" lon="7.2466">
        <ele>257</ele>
        <time>2019-08-16T10:18:52Z</time>
      </trkpt>
      <trkpt lat="47.66508" lon="7.24654">
        <ele>257</ele>
        <time>2019-08-16T10:18:53Z</time>
      </trkpt>
      <trkpt lat="47.66504" lon="7.24648">
        <ele>257</ele>
        <time>2019-08-16T10:18:54Z</time>
      </trkpt>
      <trkpt lat="47.66501" lon="7.24642">
        <ele>257</ele>
        <time>2019-08-16T10:18:55Z</time>
      </trkpt>
      <trkpt lat="47.66498" lon="7.24636">
        <ele>257.1</ele>
        <time>2019-08-16T10:18:56Z</time>
      </trkpt>
      <trkpt lat="47.66495" lon="7.24631">
        <ele>257.1</ele>
        <time>2019-08-16T10:18:57Z</time>
      </trkpt>
      <trkpt lat="47.66492" lon="7.24626">
        <ele>257.1</ele>
        <time>2019-08-16T10:18:58Z</time>
      </trkpt>
      <trkpt lat="47.66489" lon="7.2462">
        <ele>257.1</ele>
        <time>2019-08-16T10:18:59Z</time>
      </trkpt>
      <trkpt lat="47.66486" lon="7.24615">
        <ele>257.1</ele>
        <time>2019-08-16T10:19:00Z</time>
      </trkpt>
      <trkpt lat="47.66482" lon="7.24609">
        <ele>257.2</ele>
        <time>2019-08-16T10:19:01Z</time>
      </trkpt>
      <trkpt lat="47.6648" lon="7.24604">
        <ele>257.2</ele>
        <time>2019-08-16T10:19:02Z</time>
      </trkpt>
      <trkpt lat="47.66476" lon="7.24599">
        <ele>257.3</ele>
        <time>2019-08-16T10:19:03Z</time>
      </trkpt>
      <trkpt lat="47.66474" lon="7.24594">
        <ele>257.3</ele>
        <time>2019-08-16T10:19:04Z</time>
      </trkpt>
      <trkpt lat="47.66472" lon="7.24589">
        <ele>257.3</ele>
        <time>2019-08-16T10:19:05Z</time>
      </trkpt>
      <trkpt lat="47.66469" lon="7.24584">
        <ele>257.4</ele>
        <time>2019-08-16T10:19:06Z</time>
      </trkpt>
      <trkpt lat="47.66467" lon="7.24579">
        <ele>257.4</ele>
        <time>2019-08-16T10:19:07Z</time>
      </trkpt>
      <trkpt lat="47.66464" lon="7.24575">
        <ele>257.4</ele>
        <time>2019-08-16T10:19:08Z</time>
      </trkpt>
      <trkpt lat="47.66462" lon="7.2457">
        <ele>257.4</ele>
        <time>2019-08-16T10:19:09Z</time>
      </trkpt>
      <trkpt lat="47.66459" lon="7.24565">
        <ele>257.4</ele>
        <time>2019-08-16T10:19:10Z</time>
      </trkpt>
      <trkpt lat="47.66457" lon="7.2456">
        <ele>257.5</ele>
        <time>2019-08-16T10:19:11Z</time>
      </trkpt>
      <trkpt lat="47.66455" lon="7.24555">
        <ele>257.5</ele>
        <time>2019-08-16T10:19:12Z</time>
      </trkpt>
      <trkpt lat="47.66452" lon="7.2455">
        <ele>257.5</ele>
        <time>2019-08-16T10:19:13Z</time>
      </trkpt>
      <trkpt lat="47.66449" lon="7.24544">
        <ele>257.5</ele>
        <time>2019-08-16T10:19:14Z</time>
      </trkpt>
      <trkpt lat="47.66446" lon="7.2454">
        <ele>257.5</ele>
        <time>2019-08-16T10:19:15Z</time>
      </trkpt>
      <trkpt lat="47.66444" lon="7.24535">
        <ele>257.5</ele>
        <time>2019-08-16T10:19:16Z</time>
      </trkpt>
      <trkpt lat="47.66441" lon="7.24531">
        <ele>257.5</ele>
        <time>2019-08-16T10:19:17Z</time>
      </trkpt>
      <trkpt lat="47.66439" lon="7.24527">
        <ele>257.5</ele>
        <time>2019-08-16T10:19:18Z</time>
      </trkpt>
      <trkpt lat="47.66436" lon="7.24523">
        <ele>257.5</ele>
        <time>2019-08-16T10:19:19Z</time>
      </trkpt>
      <trkpt lat="47.66434" lon="7.24518">
        <ele>257.5</ele>
        <time>2019-08-16T10:19:20Z</time>
      </trkpt>
      <trkpt lat="47.66431" lon="7.24514">
        <ele>257.5</ele>
        <time>2019-08-16T10:19:21Z</time>
      </trkpt>
      <trkpt lat="47.66429" lon="7.24509">
        <ele>257.5</ele>
        <time>2019-08-16T10:19:22Z</time>
      </trkpt>
      <trkpt lat="47.66426" lon="7.24504">
        <ele>257.5</ele>
        <time>2019-08-16T10:19:23Z</time>
      </trkpt>
      <trkpt lat="47.66423" lon="7.245">
        <ele>257.5</ele>
        <time>2019-08-16T10:19:24Z</time>
      </trkpt>
      <trkpt lat="47.66421" lon="7.24495">
        <ele>257.5</ele>
        <time>2019-08-16T10:19:25Z</time>
      </trkpt>
      <trkpt lat="47.66418" lon="7.24489">
        <ele>257.4</ele>
        <time>2019-08-16T10:19:26Z</time>
      </trkpt>
      <trkpt lat="47.66414" lon="7.24484">
        <ele>257.4</ele>
        <time>2019-08-16T10:19:27Z</time>
      </trkpt>
      <trkpt lat="47.66412" lon="7.24478">
        <ele>257.4</ele>
        <time>2019-08-16T10:19:28Z</time>
      </trkpt>
      <trkpt lat="47.6641" lon="7.24473">
        <ele>257.4</ele>
        <time>2019-08-16T10:19:29Z</time>
      </trkpt>
      <trkpt lat="47.66407" lon="7.24467">
        <ele>257.4</ele>
        <time>2019-08-16T10:19:30Z</time>
      </trkpt>
      <trkpt lat="47.66405" lon="7.24462">
        <ele>257.4</ele>
        <time>2019-08-16T10:19:31Z</time>
      </trkpt>
      <trkpt lat="47.66403" lon="7.24457">
        <ele>257.4</ele>
        <time>2019-08-16T10:19:32Z</time>
      </trkpt>
      <trkpt lat="47.66401" lon="7.24452">
        <ele>257.4</ele>
        <time>2019-08-16T10:19:33Z</time>
      </trkpt>
      <trkpt lat="47.66398" lon="7.24447">
        <ele>257.4</ele>
        <time>2019-08-16T10:19:34Z</time>
      </trkpt>
      <trkpt lat="47.66396" lon="7.24442">
        <ele>257.4</ele>
        <time>2019-08-16T10:19:35Z</time>
      </trkpt>
      <trkpt lat="47.66393" lon="7.24437">
        <ele>257.5</ele>
        <time>2019-08-16T10:19:36Z</time>
      </trkpt>
      <trkpt lat="47.6639" lon="7.24432">
        <ele>257.5</ele>
        <time>2019-08-16T10:19:37Z</time>
      </trkpt>
      <trkpt lat="47.66386" lon="7.24427">
        <ele>257.6</ele>
        <time>2019-08-16T10:19:38Z</time>
      </trkpt>
      <trkpt lat="47.66383" lon="7.24422">
        <ele>257.7</ele>
        <time>2019-08-16T10:19:39Z</time>
      </trkpt>
      <trkpt lat="47.6638" lon="7.24417">
        <ele>257.9</ele>
        <time>2019-08-16T10:19:40Z</time>
      </trkpt>
      <trkpt lat="47.66377" lon="7.24412">
        <ele>258</ele>
        <time>2019-08-16T10:19:41Z</time>
      </trkpt>
      <trkpt lat="47.66374" lon="7.24407">
        <ele>258.2</ele>
        <time>2019-08-16T10:19:42Z</time>
      </trkpt>
      <trkpt lat="47.66371" lon="7.24402">
        <ele>258.4</ele>
        <time>2019-08-16T10:19:43Z</time>
      </trkpt>
      <trkpt lat="47.66369" lon="7.24398">
        <ele>258.6</ele>
        <time>2019-08-16T10:19:44Z</time>
      </trkpt>
      <trkpt lat="47.66367" lon="7.24393">
        <ele>258.7</ele>
        <time>2019-08-16T10:19:45Z</time>
      </trkpt>
      <trkpt lat="47.66365" lon="7.2439">
        <ele>258.8</ele>
        <time>2019-08-16T10:19:46Z</time>
      </trkpt>
      <trkpt lat="47.66362" lon="7.24384">
        <ele>259.1</ele>
        <time>2019-08-16T10:19:48Z</time>
      </trkpt>
      <trkpt lat="47.66359" lon="7.2438">
        <ele>259.2</ele>
        <time>2019-08-16T10:19:49Z</time>
      </trkpt>
      <trkpt lat="47.66357" lon="7.24376">
        <ele>259.4</ele>
        <time>2019-08-16T10:19:50Z</time>
      </trkpt>
      <trkpt lat="47.66355" lon="7.24373">
        <ele>259.5</ele>
        <time>2019-08-16T10:19:51Z</time>
      </trkpt>
      <trkpt lat="47.66352" lon="7.2437">
        <ele>259.7</ele>
        <time>2019-08-16T10:19:52Z</time>
      </trkpt>
      <trkpt lat="47.6635" lon="7.24367">
        <ele>259.8</ele>
        <time>2019-08-16T10:19:53Z</time>
      </trkpt>
      <trkpt lat="47.66348" lon="7.24363">
        <ele>259.9</ele>
        <time>2019-08-16T10:19:54Z</time>
      </trkpt>
      <trkpt lat="47.66347" lon="7.24359">
        <ele>260.1</ele>
        <time>2019-08-16T10:19:55Z</time>
      </trkpt>
      <trkpt lat="47.66345" lon="7.24356">
        <ele>260</ele>
        <time>2019-08-16T10:19:56Z</time>
      </trkpt>
      <trkpt lat="47.66344" lon="7.2435">
        <ele>260</ele>
        <time>2019-08-16T10:19:57Z</time>
      </trkpt>
      <trkpt lat="47.66343" lon="7.24345">
        <ele>260</ele>
        <time>2019-08-16T10:19:58Z</time>
      </trkpt>
      <trkpt lat="47.66341" lon="7.24339">
        <ele>259.9</ele>
        <time>2019-08-16T10:19:59Z</time>
      </trkpt>
      <trkpt lat="47.6634" lon="7.24334">
        <ele>259.9</ele>
        <time>2019-08-16T10:20:00Z</time>
      </trkpt>
      <trkpt lat="47.66339" lon="7.24329">
        <ele>259.9</ele>
        <time>2019-08-16T10:20:01Z</time>
      </trkpt>
      <trkpt lat="47.66337" lon="7.24323">
        <ele>259.9</ele>
        <time>2019-08-16T10:20:02Z</time>
      </trkpt>
      <trkpt lat="47.66335" lon="7.24319">
        <ele>259.9</ele>
        <time>2019-08-16T10:20:03Z</time>
      </trkpt>
      <trkpt lat="47.66334" lon="7.24314">
        <ele>259.9</ele>
        <time>2019-08-16T10:20:04Z</time>
      </trkpt>
      <trkpt lat="47.66332" lon="7.24309">
        <ele>259.9</ele>
        <time>2019-08-16T10:20:05Z</time>
      </trkpt>
      <trkpt lat="47.6633" lon="7.24305">
        <ele>259.9</ele>
        <time>2019-08-16T10:20:06Z</time>
      </trkpt>
      <trkpt lat="47.66327" lon="7.243">
        <ele>259.9</ele>
        <time>2019-08-16T10:20:07Z</time>
      </trkpt>
      <trkpt lat="47.66325" lon="7.24296">
        <ele>259.9</ele>
        <time>2019-08-16T10:20:08Z</time>
      </trkpt>
      <trkpt lat="47.66322" lon="7.24293">
        <ele>259.9</ele>
        <time>2019-08-16T10:20:09Z</time>
      </trkpt>
      <trkpt lat="47.66319" lon="7.24289">
        <ele>259.9</ele>
        <time>2019-08-16T10:20:10Z</time>
      </trkpt>
      <trkpt lat="47.66317" lon="7.24286">
        <ele>259.9</ele>
        <time>2019-08-16T10:20:11Z</time>
      </trkpt>
      <trkpt lat="47.66314" lon="7.24282">
        <ele>259.9</ele>
        <time>2019-08-16T10:20:12Z</time>
      </trkpt>
      <trkpt lat="47.66311" lon="7.24279">
        <ele>259.9</ele>
        <time>2019-08-16T10:20:13Z</time>
      </trkpt>
      <trkpt lat="47.66309" lon="7.24275">
        <ele>259.9</ele>
        <time>2019-08-16T10:20:14Z</time>
      </trkpt>
      <trkpt lat="47.66306" lon="7.24271">
        <ele>259.9</ele>
        <time>2019-08-16T10:20:15Z</time>
      </trkpt>
      <trkpt lat="47.66304" lon="7.24267">
        <ele>259.9</ele>
        <time>2019-08-16T10:20:16Z</time>
      </trkpt>
      <trkpt lat="47.66301" lon="7.24262">
        <ele>259.9</ele>
        <time>2019-08-16T10:20:17Z</time>
      </trkpt>
      <trkpt lat="47.66299" lon="7.24258">
        <ele>259.9</ele>
        <time>2019-08-16T10:20:18Z</time>
      </trkpt>
      <trkpt lat="47.66297" lon="7.24253">
        <ele>259.9</ele>
        <time>2019-08-16T10:20:19Z</time>
      </trkpt>
      <trkpt lat="47.66295" lon="7.24249">
        <ele>259.9</ele>
        <time>2019-08-16T10:20:20Z</time>
      </trkpt>
      <trkpt lat="47.66293" lon="7.24245">
        <ele>259.9</ele>
        <time>2019-08-16T10:20:21Z</time>
      </trkpt>
      <trkpt lat="47.6629" lon="7.2424">
        <ele>259.9</ele>
        <time>2019-08-16T10:20:22Z</time>
      </trkpt>
      <trkpt lat="47.66287" lon="7.24235">
        <ele>259.9</ele>
        <time>2019-08-16T10:20:23Z</time>
      </trkpt>
      <trkpt lat="47.66285" lon="7.2423">
        <ele>259.8</ele>
        <time>2019-08-16T10:20:24Z</time>
      </trkpt>
      <trkpt lat="47.66282" lon="7.24224">
        <ele>259.8</ele>
        <time>2019-08-16T10:20:25Z</time>
      </trkpt>
      <trkpt lat="47.6628" lon="7.24218">
        <ele>259.8</ele>
        <time>2019-08-16T10:20:26Z</time>
      </trkpt>
      <trkpt lat="47.66277" lon="7.24212">
        <ele>259.8</ele>
        <time>2019-08-16T10:20:27Z</time>
      </trkpt>
      <trkpt lat="47.66276" lon="7.24207">
        <ele>259.8</ele>
        <time>2019-08-16T10:20:28Z</time>
      </trkpt>
      <trkpt lat="47.66274" lon="7.24201">
        <ele>259.8</ele>
        <time>2019-08-16T10:20:29Z</time>
      </trkpt>
      <trkpt lat="47.66271" lon="7.24195">
        <ele>259.8</ele>
        <time>2019-08-16T10:20:30Z</time>
      </trkpt>
      <trkpt lat="47.66269" lon="7.2419">
        <ele>259.7</ele>
        <time>2019-08-16T10:20:31Z</time>
      </trkpt>
      <trkpt lat="47.66267" lon="7.24184">
        <ele>259.7</ele>
        <time>2019-08-16T10:20:32Z</time>
      </trkpt>
      <trkpt lat="47.66265" lon="7.24178">
        <ele>259.7</ele>
        <time>2019-08-16T10:20:33Z</time>
      </trkpt>
      <trkpt lat="47.66262" lon="7.24173">
        <ele>259.7</ele>
        <time>2019-08-16T10:20:34Z</time>
      </trkpt>
      <trkpt lat="47.6626" lon="7.24167">
        <ele>259.7</ele>
        <time>2019-08-16T10:20:35Z</time>
      </trkpt>
      <trkpt lat="47.66257" lon="7.24162">
        <ele>259.7</ele>
        <time>2019-08-16T10:20:36Z</time>
      </trkpt>
      <trkpt lat="47.66254" lon="7.24156">
        <ele>259.7</ele>
        <time>2019-08-16T10:20:37Z</time>
      </trkpt>
      <trkpt lat="47.66251" lon="7.24151">
        <ele>259.7</ele>
        <time>2019-08-16T10:20:38Z</time>
      </trkpt>
      <trkpt lat="47.66249" lon="7.24146">
        <ele>259.7</ele>
        <time>2019-08-16T10:20:39Z</time>
      </trkpt>
      <trkpt lat="47.66246" lon="7.24141">
        <ele>259.7</ele>
        <time>2019-08-16T10:20:40Z</time>
      </trkpt>
      <trkpt lat="47.66243" lon="7.24135">
        <ele>259.7</ele>
        <time>2019-08-16T10:20:41Z</time>
      </trkpt>
      <trkpt lat="47.6624" lon="7.2413">
        <ele>259.7</ele>
        <time>2019-08-16T10:20:42Z</time>
      </trkpt>
      <trkpt lat="47.66238" lon="7.24125">
        <ele>259.7</ele>
        <time>2019-08-16T10:20:43Z</time>
      </trkpt>
      <trkpt lat="47.66235" lon="7.24121">
        <ele>259.7</ele>
        <time>2019-08-16T10:20:44Z</time>
      </trkpt>
      <trkpt lat="47.66232" lon="7.24115">
        <ele>259.7</ele>
        <time>2019-08-16T10:20:45Z</time>
      </trkpt>
      <trkpt lat="47.6623" lon="7.24109">
        <ele>259.7</ele>
        <time>2019-08-16T10:20:46Z</time>
      </trkpt>
      <trkpt lat="47.66227" lon="7.24104">
        <ele>259.7</ele>
        <time>2019-08-16T10:20:47Z</time>
      </trkpt>
      <trkpt lat="47.66225" lon="7.24098">
        <ele>259.7</ele>
        <time>2019-08-16T10:20:48Z</time>
      </trkpt>
      <trkpt lat="47.66222" lon="7.24092">
        <ele>259.7</ele>
        <time>2019-08-16T10:20:49Z</time>
      </trkpt>
      <trkpt lat="47.6622" lon="7.24087">
        <ele>259.7</ele>
        <time>2019-08-16T10:20:50Z</time>
      </trkpt>
      <trkpt lat="47.66218" lon="7.2408">
        <ele>259.7</ele>
        <time>2019-08-16T10:20:51Z</time>
      </trkpt>
      <trkpt lat="47.66215" lon="7.24074">
        <ele>259.7</ele>
        <time>2019-08-16T10:20:52Z</time>
      </trkpt>
      <trkpt lat="47.66213" lon="7.24068">
        <ele>259.7</ele>
        <time>2019-08-16T10:20:53Z</time>
      </trkpt>
      <trkpt lat="47.6621" lon="7.24061">
        <ele>259.7</ele>
        <time>2019-08-16T10:20:54Z</time>
      </trkpt>
      <trkpt lat="47.66208" lon="7.24055">
        <ele>259.7</ele>
        <time>2019-08-16T10:20:55Z</time>
      </trkpt>
      <trkpt lat="47.66205" lon="7.24049">
        <ele>259.7</ele>
        <time>2019-08-16T10:20:56Z</time>
      </trkpt>
      <trkpt lat="47.66203" lon="7.24043">
        <ele>259.7</ele>
        <time>2019-08-16T10:20:57Z</time>
      </trkpt>
      <trkpt lat="47.66201" lon="7.24036">
        <ele>259.6</ele>
        <time>2019-08-16T10:20:58Z</time>
      </trkpt>
      <trkpt lat="47.66199" lon="7.2403">
        <ele>259.6</ele>
        <time>2019-08-16T10:20:59Z</time>
      </trkpt>
      <trkpt lat="47.66196" lon="7.24024">
        <ele>259.6</ele>
        <time>2019-08-16T10:21:00Z</time>
      </trkpt>
      <trkpt lat="47.66194" lon="7.24018">
        <ele>259.6</ele>
        <time>2019-08-16T10:21:01Z</time>
      </trkpt>
      <trkpt lat="47.66192" lon="7.24012">
        <ele>259.6</ele>
        <time>2019-08-16T10:21:02Z</time>
      </trkpt>
      <trkpt lat="47.66189" lon="7.24006">
        <ele>259.6</ele>
        <time>2019-08-16T10:21:03Z</time>
      </trkpt>
      <trkpt lat="47.66187" lon="7.24">
        <ele>259.6</ele>
        <time>2019-08-16T10:21:04Z</time>
      </trkpt>
      <trkpt lat="47.66184" lon="7.23994">
        <ele>259.6</ele>
        <time>2019-08-16T10:21:05Z</time>
      </trkpt>
      <trkpt lat="47.66181" lon="7.23988">
        <ele>259.6</ele>
        <time>2019-08-16T10:21:06Z</time>
      </trkpt>
      <trkpt lat="47.66179" lon="7.23982">
        <ele>259.6</ele>
        <time>2019-08-16T10:21:07Z</time>
      </trkpt>
      <trkpt lat="47.66176" lon="7.23977">
        <ele>259.6</ele>
        <time>2019-08-16T10:21:08Z</time>
      </trkpt>
      <trkpt lat="47.66173" lon="7.23971">
        <ele>259.6</ele>
        <time>2019-08-16T10:21:09Z</time>
      </trkpt>
      <trkpt lat="47.66171" lon="7.23965">
        <ele>259.6</ele>
        <time>2019-08-16T10:21:10Z</time>
      </trkpt>
      <trkpt lat="47.66168" lon="7.23959">
        <ele>259.6</ele>
        <time>2019-08-16T10:21:11Z</time>
      </trkpt>
      <trkpt lat="47.66165" lon="7.23954">
        <ele>259.6</ele>
        <time>2019-08-16T10:21:12Z</time>
      </trkpt>
      <trkpt lat="47.66162" lon="7.23948">
        <ele>259.6</ele>
        <time>2019-08-16T10:21:13Z</time>
      </trkpt>
      <trkpt lat="47.6616" lon="7.23943">
        <ele>259.6</ele>
        <time>2019-08-16T10:21:14Z</time>
      </trkpt>
      <trkpt lat="47.66157" lon="7.23937">
        <ele>259.6</ele>
        <time>2019-08-16T10:21:15Z</time>
      </trkpt>
      <trkpt lat="47.66154" lon="7.23931">
        <ele>259.6</ele>
        <time>2019-08-16T10:21:16Z</time>
      </trkpt>
      <trkpt lat="47.66152" lon="7.23925">
        <ele>259.6</ele>
        <time>2019-08-16T10:21:17Z</time>
      </trkpt>
      <trkpt lat="47.6615" lon="7.23919">
        <ele>259.6</ele>
        <time>2019-08-16T10:21:18Z</time>
      </trkpt>
      <trkpt lat="47.66147" lon="7.23913">
        <ele>259.6</ele>
        <time>2019-08-16T10:21:19Z</time>
      </trkpt>
      <trkpt lat="47.66144" lon="7.23907">
        <ele>259.6</ele>
        <time>2019-08-16T10:21:20Z</time>
      </trkpt>
      <trkpt lat="47.66142" lon="7.23901">
        <ele>259.6</ele>
        <time>2019-08-16T10:21:21Z</time>
      </trkpt>
      <trkpt lat="47.66139" lon="7.23894">
        <ele>259.5</ele>
        <time>2019-08-16T10:21:22Z</time>
      </trkpt>
      <trkpt lat="47.66137" lon="7.23887">
        <ele>259.5</ele>
        <time>2019-08-16T10:21:23Z</time>
      </trkpt>
      <trkpt lat="47.66134" lon="7.23881">
        <ele>259.5</ele>
        <time>2019-08-16T10:21:24Z</time>
      </trkpt>
      <trkpt lat="47.66132" lon="7.23875">
        <ele>259.5</ele>
        <time>2019-08-16T10:21:25Z</time>
      </trkpt>
      <trkpt lat="47.66129" lon="7.23869">
        <ele>259.5</ele>
        <time>2019-08-16T10:21:26Z</time>
      </trkpt>
      <trkpt lat="47.66126" lon="7.23863">
        <ele>259.5</ele>
        <time>2019-08-16T10:21:27Z</time>
      </trkpt>
      <trkpt lat="47.66123" lon="7.23857">
        <ele>259.5</ele>
        <time>2019-08-16T10:21:28Z</time>
      </trkpt>
      <trkpt lat="47.6612" lon="7.23851">
        <ele>259.5</ele>
        <time>2019-08-16T10:21:29Z</time>
      </trkpt>
      <trkpt lat="47.66117" lon="7.23845">
        <ele>259.5</ele>
        <time>2019-08-16T10:21:30Z</time>
      </trkpt>
      <trkpt lat="47.66114" lon="7.2384">
        <ele>259.5</ele>
        <time>2019-08-16T10:21:31Z</time>
      </trkpt>
      <trkpt lat="47.66111" lon="7.23834">
        <ele>259.5</ele>
        <time>2019-08-16T10:21:32Z</time>
      </trkpt>
      <trkpt lat="47.66108" lon="7.23829">
        <ele>259.5</ele>
        <time>2019-08-16T10:21:33Z</time>
      </trkpt>
      <trkpt lat="47.66106" lon="7.23824">
        <ele>259.5</ele>
        <time>2019-08-16T10:21:34Z</time>
      </trkpt>
      <trkpt lat="47.66103" lon="7.2382">
        <ele>259.4</ele>
        <time>2019-08-16T10:21:35Z</time>
      </trkpt>
      <trkpt lat="47.66101" lon="7.23816">
        <ele>259.4</ele>
        <time>2019-08-16T10:21:36Z</time>
      </trkpt>
      <trkpt lat="47.66099" lon="7.23812">
        <ele>259.4</ele>
        <time>2019-08-16T10:21:37Z</time>
      </trkpt>
      <trkpt lat="47.66097" lon="7.23807">
        <ele>259.4</ele>
        <time>2019-08-16T10:21:38Z</time>
      </trkpt>
      <trkpt lat="47.66095" lon="7.23801">
        <ele>259.4</ele>
        <time>2019-08-16T10:21:39Z</time>
      </trkpt>
      <trkpt lat="47.66093" lon="7.23795">
        <ele>259.4</ele>
        <time>2019-08-16T10:21:40Z</time>
      </trkpt>
      <trkpt lat="47.6609" lon="7.2379">
        <ele>259.4</ele>
        <time>2019-08-16T10:21:41Z</time>
      </trkpt>
      <trkpt lat="47.66088" lon="7.23785">
        <ele>259.4</ele>
        <time>2019-08-16T10:21:42Z</time>
      </trkpt>
      <trkpt lat="47.66086" lon="7.23779">
        <ele>259.4</ele>
        <time>2019-08-16T10:21:43Z</time>
      </trkpt>
      <trkpt lat="47.66083" lon="7.23773">
        <ele>259.4</ele>
        <time>2019-08-16T10:21:44Z</time>
      </trkpt>
      <trkpt lat="47.6608" lon="7.23767">
        <ele>259.3</ele>
        <time>2019-08-16T10:21:45Z</time>
      </trkpt>
      <trkpt lat="47.66078" lon="7.23761">
        <ele>259.3</ele>
        <time>2019-08-16T10:21:46Z</time>
      </trkpt>
      <trkpt lat="47.66075" lon="7.23755">
        <ele>259.3</ele>
        <time>2019-08-16T10:21:47Z</time>
      </trkpt>
      <trkpt lat="47.66073" lon="7.2375">
        <ele>259.3</ele>
        <time>2019-08-16T10:21:48Z</time>
      </trkpt>
      <trkpt lat="47.6607" lon="7.23745">
        <ele>259.2</ele>
        <time>2019-08-16T10:21:49Z</time>
      </trkpt>
      <trkpt lat="47.66068" lon="7.23739">
        <ele>259.2</ele>
        <time>2019-08-16T10:21:50Z</time>
      </trkpt>
      <trkpt lat="47.66066" lon="7.23733">
        <ele>259.2</ele>
        <time>2019-08-16T10:21:51Z</time>
      </trkpt>
      <trkpt lat="47.66063" lon="7.23727">
        <ele>259.1</ele>
        <time>2019-08-16T10:21:52Z</time>
      </trkpt>
      <trkpt lat="47.66061" lon="7.23722">
        <ele>259.1</ele>
        <time>2019-08-16T10:21:53Z</time>
      </trkpt>
      <trkpt lat="47.66058" lon="7.23716">
        <ele>259.1</ele>
        <time>2019-08-16T10:21:54Z</time>
      </trkpt>
      <trkpt lat="47.66055" lon="7.23711">
        <ele>259</ele>
        <time>2019-08-16T10:21:55Z</time>
      </trkpt>
      <trkpt lat="47.66052" lon="7.23704">
        <ele>259</ele>
        <time>2019-08-16T10:21:56Z</time>
      </trkpt>
      <trkpt lat="47.66049" lon="7.23698">
        <ele>259.1</ele>
        <time>2019-08-16T10:21:57Z</time>
      </trkpt>
      <trkpt lat="47.66047" lon="7.23693">
        <ele>259.1</ele>
        <time>2019-08-16T10:21:58Z</time>
      </trkpt>
      <trkpt lat="47.66044" lon="7.23687">
        <ele>259.1</ele>
        <time>2019-08-16T10:21:59Z</time>
      </trkpt>
      <trkpt lat="47.66041" lon="7.23681">
        <ele>259.1</ele>
        <time>2019-08-16T10:22:00Z</time>
      </trkpt>
      <trkpt lat="47.66039" lon="7.23676">
        <ele>259.2</ele>
        <time>2019-08-16T10:22:01Z</time>
      </trkpt>
      <trkpt lat="47.66036" lon="7.2367">
        <ele>259.2</ele>
        <time>2019-08-16T10:22:02Z</time>
      </trkpt>
      <trkpt lat="47.66033" lon="7.23665">
        <ele>259.2</ele>
        <time>2019-08-16T10:22:03Z</time>
      </trkpt>
      <trkpt lat="47.6603" lon="7.23658">
        <ele>259.2</ele>
        <time>2019-08-16T10:22:04Z</time>
      </trkpt>
      <trkpt lat="47.66027" lon="7.23652">
        <ele>259.3</ele>
        <time>2019-08-16T10:22:05Z</time>
      </trkpt>
      <trkpt lat="47.66024" lon="7.23646">
        <ele>259.3</ele>
        <time>2019-08-16T10:22:06Z</time>
      </trkpt>
      <trkpt lat="47.66022" lon="7.23641">
        <ele>259.3</ele>
        <time>2019-08-16T10:22:07Z</time>
      </trkpt>
      <trkpt lat="47.66019" lon="7.23635">
        <ele>259.3</ele>
        <time>2019-08-16T10:22:08Z</time>
      </trkpt>
      <trkpt lat="47.66016" lon="7.2363">
        <ele>259.3</ele>
        <time>2019-08-16T10:22:09Z</time>
      </trkpt>
      <trkpt lat="47.66013" lon="7.23624">
        <ele>259.3</ele>
        <time>2019-08-16T10:22:10Z</time>
      </trkpt>
      <trkpt lat="47.6601" lon="7.23618">
        <ele>259.3</ele>
        <time>2019-08-16T10:22:11Z</time>
      </trkpt>
      <trkpt lat="47.66008" lon="7.23612">
        <ele>259.3</ele>
        <time>2019-08-16T10:22:12Z</time>
      </trkpt>
      <trkpt lat="47.66005" lon="7.23607">
        <ele>259.3</ele>
        <time>2019-08-16T10:22:13Z</time>
      </trkpt>
      <trkpt lat="47.66003" lon="7.23601">
        <ele>259.3</ele>
        <time>2019-08-16T10:22:14Z</time>
      </trkpt>
      <trkpt lat="47.66" lon="7.23595">
        <ele>259.3</ele>
        <time>2019-08-16T10:22:15Z</time>
      </trkpt>
      <trkpt lat="47.65998" lon="7.23589">
        <ele>259.3</ele>
        <time>2019-08-16T10:22:16Z</time>
      </trkpt>
      <trkpt lat="47.65996" lon="7.23583">
        <ele>259.3</ele>
        <time>2019-08-16T10:22:17Z</time>
      </trkpt>
      <trkpt lat="47.65994" lon="7.23577">
        <ele>259.3</ele>
        <time>2019-08-16T10:22:18Z</time>
      </trkpt>
      <trkpt lat="47.65992" lon="7.23571">
        <ele>259.3</ele>
        <time>2019-08-16T10:22:19Z</time>
      </trkpt>
      <trkpt lat="47.6599" lon="7.23564">
        <ele>259.3</ele>
        <time>2019-08-16T10:22:20Z</time>
      </trkpt>
      <trkpt lat="47.65987" lon="7.23558">
        <ele>259.3</ele>
        <time>2019-08-16T10:22:21Z</time>
      </trkpt>
      <trkpt lat="47.65984" lon="7.23552">
        <ele>259.2</ele>
        <time>2019-08-16T10:22:22Z</time>
      </trkpt>
      <trkpt lat="47.65982" lon="7.23546">
        <ele>259.2</ele>
        <time>2019-08-16T10:22:23Z</time>
      </trkpt>
      <trkpt lat="47.6598" lon="7.23539">
        <ele>259.3</ele>
        <time>2019-08-16T10:22:24Z</time>
      </trkpt>
      <trkpt lat="47.65977" lon="7.23533">
        <ele>259.3</ele>
        <time>2019-08-16T10:22:25Z</time>
      </trkpt>
      <trkpt lat="47.65975" lon="7.23527">
        <ele>259.3</ele>
        <time>2019-08-16T10:22:26Z</time>
      </trkpt>
      <trkpt lat="47.65972" lon="7.23522">
        <ele>259.3</ele>
        <time>2019-08-16T10:22:27Z</time>
      </trkpt>
      <trkpt lat="47.6597" lon="7.23516">
        <ele>259.4</ele>
        <time>2019-08-16T10:22:28Z</time>
      </trkpt>
      <trkpt lat="47.65968" lon="7.2351">
        <ele>259.4</ele>
        <time>2019-08-16T10:22:29Z</time>
      </trkpt>
      <trkpt lat="47.65965" lon="7.23505">
        <ele>259.5</ele>
        <time>2019-08-16T10:22:30Z</time>
      </trkpt>
      <trkpt lat="47.65962" lon="7.23499">
        <ele>259.6</ele>
        <time>2019-08-16T10:22:31Z</time>
      </trkpt>
      <trkpt lat="47.65959" lon="7.23493">
        <ele>259.8</ele>
        <time>2019-08-16T10:22:32Z</time>
      </trkpt>
      <trkpt lat="47.65957" lon="7.23486">
        <ele>259.9</ele>
        <time>2019-08-16T10:22:33Z</time>
      </trkpt>
      <trkpt lat="47.65954" lon="7.2348">
        <ele>260.1</ele>
        <time>2019-08-16T10:22:34Z</time>
      </trkpt>
      <trkpt lat="47.65951" lon="7.23474">
        <ele>260.2</ele>
        <time>2019-08-16T10:22:35Z</time>
      </trkpt>
      <trkpt lat="47.65948" lon="7.23468">
        <ele>260.5</ele>
        <time>2019-08-16T10:22:36Z</time>
      </trkpt>
      <trkpt lat="47.65945" lon="7.23463">
        <ele>260.6</ele>
        <time>2019-08-16T10:22:37Z</time>
      </trkpt>
      <trkpt lat="47.65942" lon="7.23459">
        <ele>260.7</ele>
        <time>2019-08-16T10:22:38Z</time>
      </trkpt>
      <trkpt lat="47.65939" lon="7.23454">
        <ele>260.8</ele>
        <time>2019-08-16T10:22:39Z</time>
      </trkpt>
      <trkpt lat="47.65937" lon="7.2345">
        <ele>260.9</ele>
        <time>2019-08-16T10:22:40Z</time>
      </trkpt>
      <trkpt lat="47.65935" lon="7.23447">
        <ele>261</ele>
        <time>2019-08-16T10:22:41Z</time>
      </trkpt>
      <trkpt lat="47.65933" lon="7.23444">
        <ele>261.1</ele>
        <time>2019-08-16T10:22:42Z</time>
      </trkpt>
      <trkpt lat="47.6593" lon="7.23438">
        <ele>261.2</ele>
        <time>2019-08-16T10:22:44Z</time>
      </trkpt>
      <trkpt lat="47.65927" lon="7.23432">
        <ele>261.3</ele>
        <time>2019-08-16T10:22:46Z</time>
      </trkpt>
      <trkpt lat="47.65925" lon="7.23426">
        <ele>261.5</ele>
        <time>2019-08-16T10:22:48Z</time>
      </trkpt>
      <trkpt lat="47.65923" lon="7.23421">
        <ele>261.6</ele>
        <time>2019-08-16T10:22:49Z</time>
      </trkpt>
      <trkpt lat="47.65922" lon="7.23415">
        <ele>261.7</ele>
        <time>2019-08-16T10:22:50Z</time>
      </trkpt>
      <trkpt lat="47.6592" lon="7.23408">
        <ele>261.9</ele>
        <time>2019-08-16T10:22:51Z</time>
      </trkpt>
      <trkpt lat="47.65919" lon="7.23402">
        <ele>262</ele>
        <time>2019-08-16T10:22:52Z</time>
      </trkpt>
      <trkpt lat="47.65917" lon="7.23395">
        <ele>262.2</ele>
        <time>2019-08-16T10:22:53Z</time>
      </trkpt>
      <trkpt lat="47.65916" lon="7.23389">
        <ele>262.3</ele>
        <time>2019-08-16T10:22:54Z</time>
      </trkpt>
      <trkpt lat="47.65914" lon="7.23384">
        <ele>262.4</ele>
        <time>2019-08-16T10:22:55Z</time>
      </trkpt>
      <trkpt lat="47.65912" lon="7.23379">
        <ele>262.5</ele>
        <time>2019-08-16T10:22:56Z</time>
      </trkpt>
      <trkpt lat="47.6591" lon="7.23375">
        <ele>262.6</ele>
        <time>2019-08-16T10:22:57Z</time>
      </trkpt>
      <trkpt lat="47.65908" lon="7.23371">
        <ele>262.7</ele>
        <time>2019-08-16T10:22:58Z</time>
      </trkpt>
      <trkpt lat="47.65905" lon="7.23367">
        <ele>262.8</ele>
        <time>2019-08-16T10:22:59Z</time>
      </trkpt>
      <trkpt lat="47.65902" lon="7.23364">
        <ele>262.8</ele>
        <time>2019-08-16T10:23:00Z</time>
      </trkpt>
      <trkpt lat="47.659" lon="7.23358">
        <ele>262.9</ele>
        <time>2019-08-16T10:23:01Z</time>
      </trkpt>
      <trkpt lat="47.65898" lon="7.23353">
        <ele>262.9</ele>
        <time>2019-08-16T10:23:02Z</time>
      </trkpt>
      <trkpt lat="47.65895" lon="7.23349">
        <ele>262.9</ele>
        <time>2019-08-16T10:23:03Z</time>
      </trkpt>
      <trkpt lat="47.65892" lon="7.23344">
        <ele>262.9</ele>
        <time>2019-08-16T10:23:04Z</time>
      </trkpt>
      <trkpt lat="47.65889" lon="7.23338">
        <ele>262.9</ele>
        <time>2019-08-16T10:23:05Z</time>
      </trkpt>
      <trkpt lat="47.65887" lon="7.23334">
        <ele>262.9</ele>
        <time>2019-08-16T10:23:06Z</time>
      </trkpt>
      <trkpt lat="47.65884" lon="7.23329">
        <ele>262.9</ele>
        <time>2019-08-16T10:23:07Z</time>
      </trkpt>
      <trkpt lat="47.65882" lon="7.23325">
        <ele>262.9</ele>
        <time>2019-08-16T10:23:08Z</time>
      </trkpt>
      <trkpt lat="47.65879" lon="7.2332">
        <ele>262.9</ele>
        <time>2019-08-16T10:23:09Z</time>
      </trkpt>
      <trkpt lat="47.65877" lon="7.23315">
        <ele>262.9</ele>
        <time>2019-08-16T10:23:10Z</time>
      </trkpt>
      <trkpt lat="47.65874" lon="7.2331">
        <ele>262.9</ele>
        <time>2019-08-16T10:23:11Z</time>
      </trkpt>
      <trkpt lat="47.65871" lon="7.23305">
        <ele>262.9</ele>
        <time>2019-08-16T10:23:12Z</time>
      </trkpt>
      <trkpt lat="47.65869" lon="7.23299">
        <ele>262.9</ele>
        <time>2019-08-16T10:23:13Z</time>
      </trkpt>
      <trkpt lat="47.65866" lon="7.23294">
        <ele>262.9</ele>
        <time>2019-08-16T10:23:14Z</time>
      </trkpt>
      <trkpt lat="47.65864" lon="7.23288">
        <ele>262.9</ele>
        <time>2019-08-16T10:23:15Z</time>
      </trkpt>
      <trkpt lat="47.65861" lon="7.23282">
        <ele>262.9</ele>
        <time>2019-08-16T10:23:16Z</time>
      </trkpt>
      <trkpt lat="47.65858" lon="7.23277">
        <ele>262.9</ele>
        <time>2019-08-16T10:23:17Z</time>
      </trkpt>
      <trkpt lat="47.65855" lon="7.23272">
        <ele>262.9</ele>
        <time>2019-08-16T10:23:18Z</time>
      </trkpt>
      <trkpt lat="47.65853" lon="7.23266">
        <ele>262.9</ele>
        <time>2019-08-16T10:23:19Z</time>
      </trkpt>
      <trkpt lat="47.6585" lon="7.23261">
        <ele>262.9</ele>
        <time>2019-08-16T10:23:20Z</time>
      </trkpt>
      <trkpt lat="47.65848" lon="7.23255">
        <ele>262.9</ele>
        <time>2019-08-16T10:23:21Z</time>
      </trkpt>
      <trkpt lat="47.65845" lon="7.23249">
        <ele>262.9</ele>
        <time>2019-08-16T10:23:22Z</time>
      </trkpt>
      <trkpt lat="47.65842" lon="7.23243">
        <ele>262.9</ele>
        <time>2019-08-16T10:23:23Z</time>
      </trkpt>
      <trkpt lat="47.6584" lon="7.23238">
        <ele>262.9</ele>
        <time>2019-08-16T10:23:24Z</time>
      </trkpt>
      <trkpt lat="47.65837" lon="7.23233">
        <ele>262.9</ele>
        <time>2019-08-16T10:23:25Z</time>
      </trkpt>
      <trkpt lat="47.65834" lon="7.23227">
        <ele>262.9</ele>
        <time>2019-08-16T10:23:26Z</time>
      </trkpt>
      <trkpt lat="47.65832" lon="7.23221">
        <ele>262.9</ele>
        <time>2019-08-16T10:23:27Z</time>
      </trkpt>
      <trkpt lat="47.65829" lon="7.23216">
        <ele>262.9</ele>
        <time>2019-08-16T10:23:28Z</time>
      </trkpt>
      <trkpt lat="47.65826" lon="7.2321">
        <ele>262.9</ele>
        <time>2019-08-16T10:23:29Z</time>
      </trkpt>
      <trkpt lat="47.65822" lon="7.23204">
        <ele>262.9</ele>
        <time>2019-08-16T10:23:30Z</time>
      </trkpt>
      <trkpt lat="47.6582" lon="7.23198">
        <ele>262.9</ele>
        <time>2019-08-16T10:23:31Z</time>
      </trkpt>
      <trkpt lat="47.65817" lon="7.23192">
        <ele>262.9</ele>
        <time>2019-08-16T10:23:32Z</time>
      </trkpt>
      <trkpt lat="47.65815" lon="7.23186">
        <ele>262.9</ele>
        <time>2019-08-16T10:23:33Z</time>
      </trkpt>
      <trkpt lat="47.65812" lon="7.23181">
        <ele>262.9</ele>
        <time>2019-08-16T10:23:34Z</time>
      </trkpt>
      <trkpt lat="47.65809" lon="7.23176">
        <ele>262.9</ele>
        <time>2019-08-16T10:23:35Z</time>
      </trkpt>
      <trkpt lat="47.65807" lon="7.2317">
        <ele>262.9</ele>
        <time>2019-08-16T10:23:36Z</time>
      </trkpt>
      <trkpt lat="47.65805" lon="7.23165">
        <ele>262.9</ele>
        <time>2019-08-16T10:23:37Z</time>
      </trkpt>
      <trkpt lat="47.65803" lon="7.23159">
        <ele>262.9</ele>
        <time>2019-08-16T10:23:38Z</time>
      </trkpt>
      <trkpt lat="47.65801" lon="7.23153">
        <ele>262.9</ele>
        <time>2019-08-16T10:23:39Z</time>
      </trkpt>
      <trkpt lat="47.65799" lon="7.23146">
        <ele>262.9</ele>
        <time>2019-08-16T10:23:40Z</time>
      </trkpt>
      <trkpt lat="47.65796" lon="7.2314">
        <ele>262.9</ele>
        <time>2019-08-16T10:23:41Z</time>
      </trkpt>
      <trkpt lat="47.65794" lon="7.23133">
        <ele>262.9</ele>
        <time>2019-08-16T10:23:42Z</time>
      </trkpt>
      <trkpt lat="47.65792" lon="7.23127">
        <ele>262.9</ele>
        <time>2019-08-16T10:23:43Z</time>
      </trkpt>
      <trkpt lat="47.6579" lon="7.2312">
        <ele>262.9</ele>
        <time>2019-08-16T10:23:44Z</time>
      </trkpt>
      <trkpt lat="47.65788" lon="7.23113">
        <ele>262.9</ele>
        <time>2019-08-16T10:23:45Z</time>
      </trkpt>
      <trkpt lat="47.65786" lon="7.23107">
        <ele>262.9</ele>
        <time>2019-08-16T10:23:46Z</time>
      </trkpt>
      <trkpt lat="47.65783" lon="7.23101">
        <ele>262.9</ele>
        <time>2019-08-16T10:23:47Z</time>
      </trkpt>
      <trkpt lat="47.65781" lon="7.23095">
        <ele>262.9</ele>
        <time>2019-08-16T10:23:48Z</time>
      </trkpt>
      <trkpt lat="47.65779" lon="7.23089">
        <ele>262.9</ele>
        <time>2019-08-16T10:23:49Z</time>
      </trkpt>
      <trkpt lat="47.65778" lon="7.23083">
        <ele>262.9</ele>
        <time>2019-08-16T10:23:50Z</time>
      </trkpt>
      <trkpt lat="47.65776" lon="7.23076">
        <ele>262.9</ele>
        <time>2019-08-16T10:23:51Z</time>
      </trkpt>
      <trkpt lat="47.65775" lon="7.23068">
        <ele>262.9</ele>
        <time>2019-08-16T10:23:52Z</time>
      </trkpt>
      <trkpt lat="47.65774" lon="7.23061">
        <ele>262.9</ele>
        <time>2019-08-16T10:23:53Z</time>
      </trkpt>
      <trkpt lat="47.65773" lon="7.23054">
        <ele>262.9</ele>
        <time>2019-08-16T10:23:54Z</time>
      </trkpt>
      <trkpt lat="47.65772" lon="7.23046">
        <ele>262.9</ele>
        <time>2019-08-16T10:23:55Z</time>
      </trkpt>
      <trkpt lat="47.6577" lon="7.23038">
        <ele>262.9</ele>
        <time>2019-08-16T10:23:56Z</time>
      </trkpt>
      <trkpt lat="47.65769" lon="7.23031">
        <ele>262.9</ele>
        <time>2019-08-16T10:23:57Z</time>
      </trkpt>
      <trkpt lat="47.65767" lon="7.23024">
        <ele>262.9</ele>
        <time>2019-08-16T10:23:58Z</time>
      </trkpt>
      <trkpt lat="47.65766" lon="7.23017">
        <ele>263</ele>
        <time>2019-08-16T10:23:59Z</time>
      </trkpt>
      <trkpt lat="47.65766" lon="7.23009">
        <ele>263</ele>
        <time>2019-08-16T10:24:00Z</time>
      </trkpt>
      <trkpt lat="47.65766" lon="7.23002">
        <ele>263</ele>
        <time>2019-08-16T10:24:01Z</time>
      </trkpt>
      <trkpt lat="47.65765" lon="7.22994">
        <ele>263</ele>
        <time>2019-08-16T10:24:02Z</time>
      </trkpt>
      <trkpt lat="47.65765" lon="7.22986">
        <ele>263</ele>
        <time>2019-08-16T10:24:03Z</time>
      </trkpt>
      <trkpt lat="47.65764" lon="7.22979">
        <ele>263</ele>
        <time>2019-08-16T10:24:04Z</time>
      </trkpt>
      <trkpt lat="47.65763" lon="7.22972">
        <ele>263.1</ele>
        <time>2019-08-16T10:24:05Z</time>
      </trkpt>
      <trkpt lat="47.65762" lon="7.22964">
        <ele>263.1</ele>
        <time>2019-08-16T10:24:06Z</time>
      </trkpt>
      <trkpt lat="47.65762" lon="7.22956">
        <ele>263.3</ele>
        <time>2019-08-16T10:24:07Z</time>
      </trkpt>
      <trkpt lat="47.65761" lon="7.22948">
        <ele>263.4</ele>
        <time>2019-08-16T10:24:08Z</time>
      </trkpt>
      <trkpt lat="47.65761" lon="7.22941">
        <ele>263.6</ele>
        <time>2019-08-16T10:24:09Z</time>
      </trkpt>
      <trkpt lat="47.65761" lon="7.22934">
        <ele>263.8</ele>
        <time>2019-08-16T10:24:10Z</time>
      </trkpt>
      <trkpt lat="47.6576" lon="7.22927">
        <ele>264</ele>
        <time>2019-08-16T10:24:11Z</time>
      </trkpt>
      <trkpt lat="47.65759" lon="7.2292">
        <ele>264.1</ele>
        <time>2019-08-16T10:24:12Z</time>
      </trkpt>
      <trkpt lat="47.65759" lon="7.22913">
        <ele>264.3</ele>
        <time>2019-08-16T10:24:13Z</time>
      </trkpt>
      <trkpt lat="47.65758" lon="7.22907">
        <ele>264.4</ele>
        <time>2019-08-16T10:24:14Z</time>
      </trkpt>
      <trkpt lat="47.65758" lon="7.229">
        <ele>264.4</ele>
        <time>2019-08-16T10:24:15Z</time>
      </trkpt>
      <trkpt lat="47.65757" lon="7.22893">
        <ele>264.5</ele>
        <time>2019-08-16T10:24:16Z</time>
      </trkpt>
      <trkpt lat="47.65756" lon="7.22886">
        <ele>264.5</ele>
        <time>2019-08-16T10:24:17Z</time>
      </trkpt>
      <trkpt lat="47.65756" lon="7.22878">
        <ele>264.5</ele>
        <time>2019-08-16T10:24:18Z</time>
      </trkpt>
      <trkpt lat="47.65756" lon="7.22871">
        <ele>264.5</ele>
        <time>2019-08-16T10:24:19Z</time>
      </trkpt>
      <trkpt lat="47.65755" lon="7.22864">
        <ele>264.5</ele>
        <time>2019-08-16T10:24:20Z</time>
      </trkpt>
      <trkpt lat="47.65755" lon="7.22856">
        <ele>264.5</ele>
        <time>2019-08-16T10:24:21Z</time>
      </trkpt>
      <trkpt lat="47.65755" lon="7.22849">
        <ele>264.5</ele>
        <time>2019-08-16T10:24:22Z</time>
      </trkpt>
      <trkpt lat="47.65755" lon="7.22841">
        <ele>264.4</ele>
        <time>2019-08-16T10:24:23Z</time>
      </trkpt>
      <trkpt lat="47.65754" lon="7.22833">
        <ele>264.4</ele>
        <time>2019-08-16T10:24:24Z</time>
      </trkpt>
      <trkpt lat="47.65754" lon="7.22825">
        <ele>264.3</ele>
        <time>2019-08-16T10:24:25Z</time>
      </trkpt>
      <trkpt lat="47.65754" lon="7.22818">
        <ele>264.3</ele>
        <time>2019-08-16T10:24:26Z</time>
      </trkpt>
      <trkpt lat="47.65754" lon="7.22811">
        <ele>264.3</ele>
        <time>2019-08-16T10:24:27Z</time>
      </trkpt>
      <trkpt lat="47.65754" lon="7.22804">
        <ele>264.3</ele>
        <time>2019-08-16T10:24:28Z</time>
      </trkpt>
      <trkpt lat="47.65754" lon="7.22797">
        <ele>264.2</ele>
        <time>2019-08-16T10:24:29Z</time>
      </trkpt>
      <trkpt lat="47.65754" lon="7.22791">
        <ele>264.2</ele>
        <time>2019-08-16T10:24:30Z</time>
      </trkpt>
      <trkpt lat="47.65754" lon="7.22784">
        <ele>264.2</ele>
        <time>2019-08-16T10:24:31Z</time>
      </trkpt>
      <trkpt lat="47.65753" lon="7.22778">
        <ele>264.1</ele>
        <time>2019-08-16T10:24:32Z</time>
      </trkpt>
      <trkpt lat="47.65753" lon="7.22771">
        <ele>264.1</ele>
        <time>2019-08-16T10:24:33Z</time>
      </trkpt>
      <trkpt lat="47.65753" lon="7.22764">
        <ele>264.1</ele>
        <time>2019-08-16T10:24:34Z</time>
      </trkpt>
      <trkpt lat="47.65753" lon="7.22757">
        <ele>264</ele>
        <time>2019-08-16T10:24:35Z</time>
      </trkpt>
      <trkpt lat="47.65752" lon="7.2275">
        <ele>264</ele>
        <time>2019-08-16T10:24:36Z</time>
      </trkpt>
      <trkpt lat="47.65752" lon="7.22743">
        <ele>263.9</ele>
        <time>2019-08-16T10:24:37Z</time>
      </trkpt>
      <trkpt lat="47.65752" lon="7.22735">
        <ele>263.9</ele>
        <time>2019-08-16T10:24:38Z</time>
      </trkpt>
      <trkpt lat="47.65752" lon="7.22728">
        <ele>263.8</ele>
        <time>2019-08-16T10:24:39Z</time>
      </trkpt>
      <trkpt lat="47.65752" lon="7.22722">
        <ele>263.8</ele>
        <time>2019-08-16T10:24:40Z</time>
      </trkpt>
      <trkpt lat="47.65752" lon="7.22715">
        <ele>263.7</ele>
        <time>2019-08-16T10:24:41Z</time>
      </trkpt>
      <trkpt lat="47.65751" lon="7.22708">
        <ele>263.7</ele>
        <time>2019-08-16T10:24:42Z</time>
      </trkpt>
      <trkpt lat="47.65751" lon="7.22702">
        <ele>263.6</ele>
        <time>2019-08-16T10:24:43Z</time>
      </trkpt>
      <trkpt lat="47.6575" lon="7.22695">
        <ele>263.5</ele>
        <time>2019-08-16T10:24:44Z</time>
      </trkpt>
      <trkpt lat="47.6575" lon="7.22688">
        <ele>263.5</ele>
        <time>2019-08-16T10:24:45Z</time>
      </trkpt>
      <trkpt lat="47.6575" lon="7.22681">
        <ele>263.3</ele>
        <time>2019-08-16T10:24:46Z</time>
      </trkpt>
      <trkpt lat="47.65749" lon="7.22674">
        <ele>263.2</ele>
        <time>2019-08-16T10:24:47Z</time>
      </trkpt>
      <trkpt lat="47.65749" lon="7.22667">
        <ele>263.2</ele>
        <time>2019-08-16T10:24:48Z</time>
      </trkpt>
      <trkpt lat="47.65749" lon="7.2266">
        <ele>263.1</ele>
        <time>2019-08-16T10:24:49Z</time>
      </trkpt>
      <trkpt lat="47.65749" lon="7.22653">
        <ele>263</ele>
        <time>2019-08-16T10:24:50Z</time>
      </trkpt>
      <trkpt lat="47.65749" lon="7.22645">
        <ele>262.9</ele>
        <time>2019-08-16T10:24:51Z</time>
      </trkpt>
      <trkpt lat="47.6575" lon="7.22639">
        <ele>262.8</ele>
        <time>2019-08-16T10:24:52Z</time>
      </trkpt>
      <trkpt lat="47.6575" lon="7.22633">
        <ele>262.8</ele>
        <time>2019-08-16T10:24:53Z</time>
      </trkpt>
      <trkpt lat="47.6575" lon="7.22626">
        <ele>262.7</ele>
        <time>2019-08-16T10:24:54Z</time>
      </trkpt>
      <trkpt lat="47.6575" lon="7.22619">
        <ele>262.7</ele>
        <time>2019-08-16T10:24:55Z</time>
      </trkpt>
      <trkpt lat="47.6575" lon="7.22612">
        <ele>262.7</ele>
        <time>2019-08-16T10:24:56Z</time>
      </trkpt>
      <trkpt lat="47.65749" lon="7.22604">
        <ele>262.6</ele>
        <time>2019-08-16T10:24:57Z</time>
      </trkpt>
      <trkpt lat="47.65748" lon="7.22597">
        <ele>262.6</ele>
        <time>2019-08-16T10:24:58Z</time>
      </trkpt>
      <trkpt lat="47.65747" lon="7.2259">
        <ele>262.6</ele>
        <time>2019-08-16T10:24:59Z</time>
      </trkpt>
      <trkpt lat="47.65746" lon="7.22583">
        <ele>262.6</ele>
        <time>2019-08-16T10:25:00Z</time>
      </trkpt>
      <trkpt lat="47.65746" lon="7.22577">
        <ele>262.6</ele>
        <time>2019-08-16T10:25:01Z</time>
      </trkpt>
      <trkpt lat="47.65745" lon="7.2257">
        <ele>262.5</ele>
        <time>2019-08-16T10:25:02Z</time>
      </trkpt>
      <trkpt lat="47.65744" lon="7.22564">
        <ele>262.6</ele>
        <time>2019-08-16T10:25:03Z</time>
      </trkpt>
      <trkpt lat="47.65744" lon="7.22558">
        <ele>262.6</ele>
        <time>2019-08-16T10:25:04Z</time>
      </trkpt>
      <trkpt lat="47.65743" lon="7.22553">
        <ele>262.6</ele>
        <time>2019-08-16T10:25:05Z</time>
      </trkpt>
      <trkpt lat="47.65743" lon="7.22547">
        <ele>262.6</ele>
        <time>2019-08-16T10:25:06Z</time>
      </trkpt>
      <trkpt lat="47.65744" lon="7.22542">
        <ele>262.7</ele>
        <time>2019-08-16T10:25:07Z</time>
      </trkpt>
      <trkpt lat="47.65743" lon="7.22538">
        <ele>262.7</ele>
        <time>2019-08-16T10:25:08Z</time>
      </trkpt>
      <trkpt lat="47.65743" lon="7.22533">
        <ele>262.8</ele>
        <time>2019-08-16T10:25:09Z</time>
      </trkpt>
      <trkpt lat="47.65743" lon="7.22529">
        <ele>262.8</ele>
        <time>2019-08-16T10:25:10Z</time>
      </trkpt>
      <trkpt lat="47.65743" lon="7.22525">
        <ele>262.8</ele>
        <time>2019-08-16T10:25:11Z</time>
      </trkpt>
      <trkpt lat="47.65743" lon="7.22521">
        <ele>262.9</ele>
        <time>2019-08-16T10:25:12Z</time>
      </trkpt>
      <trkpt lat="47.65744" lon="7.22513">
        <ele>262.9</ele>
        <time>2019-08-16T10:25:14Z</time>
      </trkpt>
      <trkpt lat="47.65745" lon="7.22508">
        <ele>263</ele>
        <time>2019-08-16T10:25:15Z</time>
      </trkpt>
      <trkpt lat="47.65746" lon="7.22503">
        <ele>263</ele>
        <time>2019-08-16T10:25:16Z</time>
      </trkpt>
      <trkpt lat="47.65745" lon="7.22499">
        <ele>263.1</ele>
        <time>2019-08-16T10:25:17Z</time>
      </trkpt>
      <trkpt lat="47.65746" lon="7.22494">
        <ele>263.1</ele>
        <time>2019-08-16T10:25:18Z</time>
      </trkpt>
      <trkpt lat="47.65746" lon="7.2249">
        <ele>263.2</ele>
        <time>2019-08-16T10:25:19Z</time>
      </trkpt>
      <trkpt lat="47.65746" lon="7.22484">
        <ele>263.3</ele>
        <time>2019-08-16T10:25:20Z</time>
      </trkpt>
      <trkpt lat="47.65746" lon="7.22479">
        <ele>263.4</ele>
        <time>2019-08-16T10:25:21Z</time>
      </trkpt>
      <trkpt lat="47.65745" lon="7.22473">
        <ele>263.5</ele>
        <time>2019-08-16T10:25:22Z</time>
      </trkpt>
      <trkpt lat="47.65744" lon="7.22468">
        <ele>263.6</ele>
        <time>2019-08-16T10:25:23Z</time>
      </trkpt>
      <trkpt lat="47.65743" lon="7.22463">
        <ele>263.7</ele>
        <time>2019-08-16T10:25:24Z</time>
      </trkpt>
      <trkpt lat="47.65742" lon="7.22458">
        <ele>263.8</ele>
        <time>2019-08-16T10:25:25Z</time>
      </trkpt>
      <trkpt lat="47.65741" lon="7.22452">
        <ele>263.8</ele>
        <time>2019-08-16T10:25:26Z</time>
      </trkpt>
      <trkpt lat="47.65741" lon="7.22447">
        <ele>263.9</ele>
        <time>2019-08-16T10:25:27Z</time>
      </trkpt>
      <trkpt lat="47.6574" lon="7.22441">
        <ele>264</ele>
        <time>2019-08-16T10:25:28Z</time>
      </trkpt>
      <trkpt lat="47.6574" lon="7.22434">
        <ele>264</ele>
        <time>2019-08-16T10:25:29Z</time>
      </trkpt>
      <trkpt lat="47.6574" lon="7.22428">
        <ele>264.1</ele>
        <time>2019-08-16T10:25:30Z</time>
      </trkpt>
      <trkpt lat="47.65739" lon="7.22421">
        <ele>264.2</ele>
        <time>2019-08-16T10:25:31Z</time>
      </trkpt>
      <trkpt lat="47.65739" lon="7.22415">
        <ele>264.2</ele>
        <time>2019-08-16T10:25:32Z</time>
      </trkpt>
      <trkpt lat="47.65739" lon="7.22408">
        <ele>264.3</ele>
        <time>2019-08-16T10:25:33Z</time>
      </trkpt>
      <trkpt lat="47.65738" lon="7.22402">
        <ele>264.4</ele>
        <time>2019-08-16T10:25:34Z</time>
      </trkpt>
      <trkpt lat="47.65738" lon="7.22395">
        <ele>264.4</ele>
        <time>2019-08-16T10:25:35Z</time>
      </trkpt>
      <trkpt lat="47.65738" lon="7.22389">
        <ele>264.5</ele>
        <time>2019-08-16T10:25:36Z</time>
      </trkpt>
      <trkpt lat="47.65737" lon="7.22383">
        <ele>264.6</ele>
        <time>2019-08-16T10:25:37Z</time>
      </trkpt>
      <trkpt lat="47.65737" lon="7.22377">
        <ele>264.6</ele>
        <time>2019-08-16T10:25:38Z</time>
      </trkpt>
      <trkpt lat="47.65736" lon="7.22371">
        <ele>264.7</ele>
        <time>2019-08-16T10:25:39Z</time>
      </trkpt>
      <trkpt lat="47.65735" lon="7.22365">
        <ele>264.8</ele>
        <time>2019-08-16T10:25:40Z</time>
      </trkpt>
      <trkpt lat="47.65735" lon="7.22359">
        <ele>264.9</ele>
        <time>2019-08-16T10:25:41Z</time>
      </trkpt>
      <trkpt lat="47.65735" lon="7.22353">
        <ele>264.9</ele>
        <time>2019-08-16T10:25:42Z</time>
      </trkpt>
      <trkpt lat="47.65735" lon="7.22347">
        <ele>265</ele>
        <time>2019-08-16T10:25:43Z</time>
      </trkpt>
      <trkpt lat="47.65735" lon="7.2234">
        <ele>265</ele>
        <time>2019-08-16T10:25:44Z</time>
      </trkpt>
      <trkpt lat="47.65735" lon="7.22334">
        <ele>265.1</ele>
        <time>2019-08-16T10:25:45Z</time>
      </trkpt>
      <trkpt lat="47.65735" lon="7.22327">
        <ele>265.2</ele>
        <time>2019-08-16T10:25:46Z</time>
      </trkpt>
      <trkpt lat="47.65735" lon="7.22321">
        <ele>265.3</ele>
        <time>2019-08-16T10:25:47Z</time>
      </trkpt>
      <trkpt lat="47.65735" lon="7.22315">
        <ele>265.3</ele>
        <time>2019-08-16T10:25:48Z</time>
      </trkpt>
      <trkpt lat="47.65735" lon="7.22308">
        <ele>265.4</ele>
        <time>2019-08-16T10:25:49Z</time>
      </trkpt>
      <trkpt lat="47.65735" lon="7.22301">
        <ele>265.5</ele>
        <time>2019-08-16T10:25:50Z</time>
      </trkpt>
      <trkpt lat="47.65734" lon="7.22294">
        <ele>265.7</ele>
        <time>2019-08-16T10:25:51Z</time>
      </trkpt>
      <trkpt lat="47.65734" lon="7.22288">
        <ele>265.8</ele>
        <time>2019-08-16T10:25:52Z</time>
      </trkpt>
      <trkpt lat="47.65734" lon="7.22281">
        <ele>265.9</ele>
        <time>2019-08-16T10:25:53Z</time>
      </trkpt>
      <trkpt lat="47.65733" lon="7.22275">
        <ele>266</ele>
        <time>2019-08-16T10:25:54Z</time>
      </trkpt>
      <trkpt lat="47.65732" lon="7.22268">
        <ele>266.2</ele>
        <time>2019-08-16T10:25:55Z</time>
      </trkpt>
      <trkpt lat="47.65731" lon="7.22261">
        <ele>266.3</ele>
        <time>2019-08-16T10:25:56Z</time>
      </trkpt>
      <trkpt lat="47.65731" lon="7.22255">
        <ele>266.4</ele>
        <time>2019-08-16T10:25:57Z</time>
      </trkpt>
      <trkpt lat="47.65731" lon="7.22248">
        <ele>266.6</ele>
        <time>2019-08-16T10:25:58Z</time>
      </trkpt>
      <trkpt lat="47.65732" lon="7.22242">
        <ele>266.7</ele>
        <time>2019-08-16T10:25:59Z</time>
      </trkpt>
      <trkpt lat="47.65733" lon="7.22236">
        <ele>266.8</ele>
        <time>2019-08-16T10:26:00Z</time>
      </trkpt>
      <trkpt lat="47.65734" lon="7.22231">
        <ele>266.8</ele>
        <time>2019-08-16T10:26:01Z</time>
      </trkpt>
      <trkpt lat="47.65735" lon="7.22224">
        <ele>266.8</ele>
        <time>2019-08-16T10:26:02Z</time>
      </trkpt>
      <trkpt lat="47.65735" lon="7.22217">
        <ele>266.8</ele>
        <time>2019-08-16T10:26:03Z</time>
      </trkpt>
      <trkpt lat="47.65737" lon="7.22209">
        <ele>266.9</ele>
        <time>2019-08-16T10:26:04Z</time>
      </trkpt>
      <trkpt lat="47.65738" lon="7.22203">
        <ele>266.9</ele>
        <time>2019-08-16T10:26:05Z</time>
      </trkpt>
      <trkpt lat="47.65739" lon="7.22194">
        <ele>266.9</ele>
        <time>2019-08-16T10:26:06Z</time>
      </trkpt>
      <trkpt lat="47.65741" lon="7.22187">
        <ele>267</ele>
        <time>2019-08-16T10:26:07Z</time>
      </trkpt>
      <trkpt lat="47.65742" lon="7.22178">
        <ele>267.1</ele>
        <time>2019-08-16T10:26:08Z</time>
      </trkpt>
      <trkpt lat="47.65742" lon="7.22171">
        <ele>267.1</ele>
        <time>2019-08-16T10:26:09Z</time>
      </trkpt>
      <trkpt lat="47.65742" lon="7.22163">
        <ele>267.2</ele>
        <time>2019-08-16T10:26:10Z</time>
      </trkpt>
      <trkpt lat="47.65743" lon="7.22156">
        <ele>267.2</ele>
        <time>2019-08-16T10:26:11Z</time>
      </trkpt>
      <trkpt lat="47.65743" lon="7.2215">
        <ele>267.2</ele>
        <time>2019-08-16T10:26:12Z</time>
      </trkpt>
      <trkpt lat="47.65742" lon="7.22143">
        <ele>267.3</ele>
        <time>2019-08-16T10:26:13Z</time>
      </trkpt>
      <trkpt lat="47.65742" lon="7.22137">
        <ele>267.3</ele>
        <time>2019-08-16T10:26:14Z</time>
      </trkpt>
      <trkpt lat="47.65742" lon="7.2213">
        <ele>267.4</ele>
        <time>2019-08-16T10:26:15Z</time>
      </trkpt>
      <trkpt lat="47.65742" lon="7.22123">
        <ele>267.4</ele>
        <time>2019-08-16T10:26:16Z</time>
      </trkpt>
      <trkpt lat="47.65743" lon="7.22116">
        <ele>267.4</ele>
        <time>2019-08-16T10:26:17Z</time>
      </trkpt>
      <trkpt lat="47.65743" lon="7.22109">
        <ele>267.5</ele>
        <time>2019-08-16T10:26:18Z</time>
      </trkpt>
      <trkpt lat="47.65744" lon="7.22101">
        <ele>267.5</ele>
        <time>2019-08-16T10:26:19Z</time>
      </trkpt>
      <trkpt lat="47.65745" lon="7.22093">
        <ele>267.5</ele>
        <time>2019-08-16T10:26:20Z</time>
      </trkpt>
      <trkpt lat="47.65745" lon="7.22086">
        <ele>267.5</ele>
        <time>2019-08-16T10:26:21Z</time>
      </trkpt>
      <trkpt lat="47.65746" lon="7.22079">
        <ele>267.5</ele>
        <time>2019-08-16T10:26:22Z</time>
      </trkpt>
      <trkpt lat="47.65747" lon="7.22072">
        <ele>267.5</ele>
        <time>2019-08-16T10:26:23Z</time>
      </trkpt>
      <trkpt lat="47.65748" lon="7.22065">
        <ele>267.5</ele>
        <time>2019-08-16T10:26:24Z</time>
      </trkpt>
      <trkpt lat="47.65749" lon="7.22057">
        <ele>267.5</ele>
        <time>2019-08-16T10:26:25Z</time>
      </trkpt>
      <trkpt lat="47.6575" lon="7.2205">
        <ele>267.4</ele>
        <time>2019-08-16T10:26:26Z</time>
      </trkpt>
      <trkpt lat="47.65751" lon="7.22043">
        <ele>267.4</ele>
        <time>2019-08-16T10:26:27Z</time>
      </trkpt>
      <trkpt lat="47.65755" lon="7.22033">
        <ele>267.4</ele>
        <time>2019-08-16T10:26:28Z</time>
      </trkpt>
      <trkpt lat="47.65757" lon="7.22024">
        <ele>267.4</ele>
        <time>2019-08-16T10:26:29Z</time>
      </trkpt>
      <trkpt lat="47.65759" lon="7.22017">
        <ele>267.4</ele>
        <time>2019-08-16T10:26:30Z</time>
      </trkpt>
      <trkpt lat="47.65759" lon="7.22009">
        <ele>267.4</ele>
        <time>2019-08-16T10:26:31Z</time>
      </trkpt>
      <trkpt lat="47.6576" lon="7.22001">
        <ele>267.4</ele>
        <time>2019-08-16T10:26:32Z</time>
      </trkpt>
      <trkpt lat="47.6576" lon="7.21994">
        <ele>267.4</ele>
        <time>2019-08-16T10:26:33Z</time>
      </trkpt>
      <trkpt lat="47.65761" lon="7.21987">
        <ele>267.4</ele>
        <time>2019-08-16T10:26:34Z</time>
      </trkpt>
      <trkpt lat="47.65761" lon="7.2198">
        <ele>267.4</ele>
        <time>2019-08-16T10:26:35Z</time>
      </trkpt>
      <trkpt lat="47.65761" lon="7.21972">
        <ele>267.4</ele>
        <time>2019-08-16T10:26:36Z</time>
      </trkpt>
      <trkpt lat="47.65762" lon="7.21965">
        <ele>267.4</ele>
        <time>2019-08-16T10:26:37Z</time>
      </trkpt>
      <trkpt lat="47.65764" lon="7.21959">
        <ele>267.4</ele>
        <time>2019-08-16T10:26:38Z</time>
      </trkpt>
      <trkpt lat="47.65765" lon="7.21952">
        <ele>267.4</ele>
        <time>2019-08-16T10:26:39Z</time>
      </trkpt>
      <trkpt lat="47.65766" lon="7.21946">
        <ele>267.4</ele>
        <time>2019-08-16T10:26:40Z</time>
      </trkpt>
      <trkpt lat="47.65767" lon="7.2194">
        <ele>267.3</ele>
        <time>2019-08-16T10:26:41Z</time>
      </trkpt>
      <trkpt lat="47.65767" lon="7.21933">
        <ele>267.3</ele>
        <time>2019-08-16T10:26:42Z</time>
      </trkpt>
      <trkpt lat="47.65768" lon="7.21926">
        <ele>267.3</ele>
        <time>2019-08-16T10:26:43Z</time>
      </trkpt>
      <trkpt lat="47.65768" lon="7.2192">
        <ele>267.3</ele>
        <time>2019-08-16T10:26:44Z</time>
      </trkpt>
      <trkpt lat="47.65768" lon="7.21913">
        <ele>267.3</ele>
        <time>2019-08-16T10:26:45Z</time>
      </trkpt>
      <trkpt lat="47.65768" lon="7.21907">
        <ele>267.3</ele>
        <time>2019-08-16T10:26:46Z</time>
      </trkpt>
      <trkpt lat="47.65769" lon="7.21901">
        <ele>267.3</ele>
        <time>2019-08-16T10:26:47Z</time>
      </trkpt>
      <trkpt lat="47.65769" lon="7.21895">
        <ele>267.3</ele>
        <time>2019-08-16T10:26:48Z</time>
      </trkpt>
      <trkpt lat="47.6577" lon="7.21889">
        <ele>267.3</ele>
        <time>2019-08-16T10:26:49Z</time>
      </trkpt>
      <trkpt lat="47.6577" lon="7.21884">
        <ele>267.3</ele>
        <time>2019-08-16T10:26:50Z</time>
      </trkpt>
      <trkpt lat="47.65771" lon="7.21878">
        <ele>267.3</ele>
        <time>2019-08-16T10:26:51Z</time>
      </trkpt>
      <trkpt lat="47.65771" lon="7.21872">
        <ele>267.3</ele>
        <time>2019-08-16T10:26:52Z</time>
      </trkpt>
      <trkpt lat="47.65771" lon="7.21865">
        <ele>267.3</ele>
        <time>2019-08-16T10:26:53Z</time>
      </trkpt>
      <trkpt lat="47.65771" lon="7.21858">
        <ele>267.4</ele>
        <time>2019-08-16T10:26:54Z</time>
      </trkpt>
      <trkpt lat="47.65772" lon="7.21852">
        <ele>267.4</ele>
        <time>2019-08-16T10:26:55Z</time>
      </trkpt>
      <trkpt lat="47.65771" lon="7.21845">
        <ele>267.4</ele>
        <time>2019-08-16T10:26:56Z</time>
      </trkpt>
      <trkpt lat="47.65772" lon="7.21838">
        <ele>267.4</ele>
        <time>2019-08-16T10:26:57Z</time>
      </trkpt>
      <trkpt lat="47.65773" lon="7.21832">
        <ele>267.4</ele>
        <time>2019-08-16T10:26:58Z</time>
      </trkpt>
      <trkpt lat="47.65774" lon="7.21826">
        <ele>267.3</ele>
        <time>2019-08-16T10:26:59Z</time>
      </trkpt>
      <trkpt lat="47.65775" lon="7.2182">
        <ele>267.3</ele>
        <time>2019-08-16T10:27:00Z</time>
      </trkpt>
      <trkpt lat="47.65775" lon="7.21813">
        <ele>267.3</ele>
        <time>2019-08-16T10:27:01Z</time>
      </trkpt>
      <trkpt lat="47.65775" lon="7.21806">
        <ele>267.3</ele>
        <time>2019-08-16T10:27:02Z</time>
      </trkpt>
      <trkpt lat="47.65776" lon="7.21798">
        <ele>267.3</ele>
        <time>2019-08-16T10:27:03Z</time>
      </trkpt>
      <trkpt lat="47.65777" lon="7.21791">
        <ele>267.2</ele>
        <time>2019-08-16T10:27:04Z</time>
      </trkpt>
      <trkpt lat="47.65779" lon="7.21784">
        <ele>267.2</ele>
        <time>2019-08-16T10:27:05Z</time>
      </trkpt>
      <trkpt lat="47.6578" lon="7.21777">
        <ele>267.2</ele>
        <time>2019-08-16T10:27:06Z</time>
      </trkpt>
      <trkpt lat="47.65782" lon="7.21771">
        <ele>267.2</ele>
        <time>2019-08-16T10:27:07Z</time>
      </trkpt>
      <trkpt lat="47.65783" lon="7.21764">
        <ele>267.2</ele>
        <time>2019-08-16T10:27:08Z</time>
      </trkpt>
      <trkpt lat="47.65784" lon="7.21758">
        <ele>267.2</ele>
        <time>2019-08-16T10:27:09Z</time>
      </trkpt>
      <trkpt lat="47.65785" lon="7.21751">
        <ele>267.2</ele>
        <time>2019-08-16T10:27:10Z</time>
      </trkpt>
      <trkpt lat="47.65786" lon="7.21745">
        <ele>267.2</ele>
        <time>2019-08-16T10:27:11Z</time>
      </trkpt>
      <trkpt lat="47.65787" lon="7.21738">
        <ele>267.2</ele>
        <time>2019-08-16T10:27:12Z</time>
      </trkpt>
      <trkpt lat="47.65788" lon="7.21732">
        <ele>267.2</ele>
        <time>2019-08-16T10:27:13Z</time>
      </trkpt>
      <trkpt lat="47.6579" lon="7.21726">
        <ele>267.2</ele>
        <time>2019-08-16T10:27:14Z</time>
      </trkpt>
      <trkpt lat="47.6579" lon="7.2172">
        <ele>267.2</ele>
        <time>2019-08-16T10:27:15Z</time>
      </trkpt>
      <trkpt lat="47.65792" lon="7.21713">
        <ele>267.2</ele>
        <time>2019-08-16T10:27:16Z</time>
      </trkpt>
      <trkpt lat="47.65793" lon="7.21707">
        <ele>267.2</ele>
        <time>2019-08-16T10:27:17Z</time>
      </trkpt>
      <trkpt lat="47.65795" lon="7.21703">
        <ele>267.2</ele>
        <time>2019-08-16T10:27:18Z</time>
      </trkpt>
      <trkpt lat="47.65797" lon="7.21697">
        <ele>267.2</ele>
        <time>2019-08-16T10:27:19Z</time>
      </trkpt>
      <trkpt lat="47.65799" lon="7.21692">
        <ele>267.2</ele>
        <time>2019-08-16T10:27:20Z</time>
      </trkpt>
      <trkpt lat="47.65802" lon="7.21686">
        <ele>267.2</ele>
        <time>2019-08-16T10:27:21Z</time>
      </trkpt>
      <trkpt lat="47.65803" lon="7.21681">
        <ele>267.2</ele>
        <time>2019-08-16T10:27:22Z</time>
      </trkpt>
      <trkpt lat="47.65806" lon="7.21676">
        <ele>267.2</ele>
        <time>2019-08-16T10:27:23Z</time>
      </trkpt>
      <trkpt lat="47.65809" lon="7.21669">
        <ele>267.2</ele>
        <time>2019-08-16T10:27:24Z</time>
      </trkpt>
      <trkpt lat="47.65811" lon="7.21662">
        <ele>267.2</ele>
        <time>2019-08-16T10:27:25Z</time>
      </trkpt>
      <trkpt lat="47.65813" lon="7.21656">
        <ele>267.2</ele>
        <time>2019-08-16T10:27:26Z</time>
      </trkpt>
      <trkpt lat="47.65815" lon="7.2165">
        <ele>267.2</ele>
        <time>2019-08-16T10:27:27Z</time>
      </trkpt>
      <trkpt lat="47.65817" lon="7.21643">
        <ele>267.2</ele>
        <time>2019-08-16T10:27:28Z</time>
      </trkpt>
      <trkpt lat="47.65819" lon="7.21638">
        <ele>267.2</ele>
        <time>2019-08-16T10:27:29Z</time>
      </trkpt>
      <trkpt lat="47.65821" lon="7.21633">
        <ele>267.2</ele>
        <time>2019-08-16T10:27:30Z</time>
      </trkpt>
      <trkpt lat="47.65822" lon="7.21627">
        <ele>267.2</ele>
        <time>2019-08-16T10:27:31Z</time>
      </trkpt>
      <trkpt lat="47.65825" lon="7.2162">
        <ele>267.1</ele>
        <time>2019-08-16T10:27:32Z</time>
      </trkpt>
      <trkpt lat="47.65827" lon="7.21614">
        <ele>267.1</ele>
        <time>2019-08-16T10:27:33Z</time>
      </trkpt>
      <trkpt lat="47.65829" lon="7.21608">
        <ele>267.1</ele>
        <time>2019-08-16T10:27:34Z</time>
      </trkpt>
      <trkpt lat="47.65832" lon="7.21601">
        <ele>267</ele>
        <time>2019-08-16T10:27:35Z</time>
      </trkpt>
      <trkpt lat="47.65835" lon="7.21595">
        <ele>267</ele>
        <time>2019-08-16T10:27:36Z</time>
      </trkpt>
      <trkpt lat="47.65837" lon="7.21589">
        <ele>267</ele>
        <time>2019-08-16T10:27:37Z</time>
      </trkpt>
      <trkpt lat="47.65839" lon="7.21582">
        <ele>266.9</ele>
        <time>2019-08-16T10:27:38Z</time>
      </trkpt>
      <trkpt lat="47.65842" lon="7.21575">
        <ele>266.9</ele>
        <time>2019-08-16T10:27:39Z</time>
      </trkpt>
      <trkpt lat="47.65844" lon="7.21568">
        <ele>266.9</ele>
        <time>2019-08-16T10:27:40Z</time>
      </trkpt>
      <trkpt lat="47.65848" lon="7.21561">
        <ele>266.9</ele>
        <time>2019-08-16T10:27:41Z</time>
      </trkpt>
      <trkpt lat="47.6585" lon="7.21554">
        <ele>266.9</ele>
        <time>2019-08-16T10:27:42Z</time>
      </trkpt>
      <trkpt lat="47.65852" lon="7.21547">
        <ele>266.9</ele>
        <time>2019-08-16T10:27:43Z</time>
      </trkpt>
      <trkpt lat="47.65855" lon="7.21542">
        <ele>266.9</ele>
        <time>2019-08-16T10:27:44Z</time>
      </trkpt>
      <trkpt lat="47.65857" lon="7.21536">
        <ele>266.9</ele>
        <time>2019-08-16T10:27:45Z</time>
      </trkpt>
      <trkpt lat="47.6586" lon="7.21529">
        <ele>266.9</ele>
        <time>2019-08-16T10:27:46Z</time>
      </trkpt>
      <trkpt lat="47.65862" lon="7.21523">
        <ele>266.9</ele>
        <time>2019-08-16T10:27:47Z</time>
      </trkpt>
      <trkpt lat="47.65865" lon="7.21516">
        <ele>267</ele>
        <time>2019-08-16T10:27:48Z</time>
      </trkpt>
      <trkpt lat="47.65867" lon="7.21509">
        <ele>267</ele>
        <time>2019-08-16T10:27:49Z</time>
      </trkpt>
      <trkpt lat="47.65869" lon="7.21503">
        <ele>267</ele>
        <time>2019-08-16T10:27:50Z</time>
      </trkpt>
      <trkpt lat="47.65871" lon="7.21497">
        <ele>267</ele>
        <time>2019-08-16T10:27:51Z</time>
      </trkpt>
      <trkpt lat="47.65872" lon="7.21489">
        <ele>267</ele>
        <time>2019-08-16T10:27:52Z</time>
      </trkpt>
      <trkpt lat="47.65874" lon="7.21483">
        <ele>267</ele>
        <time>2019-08-16T10:27:53Z</time>
      </trkpt>
      <trkpt lat="47.65877" lon="7.21477">
        <ele>267</ele>
        <time>2019-08-16T10:27:54Z</time>
      </trkpt>
      <trkpt lat="47.65879" lon="7.21472">
        <ele>267</ele>
        <time>2019-08-16T10:27:55Z</time>
      </trkpt>
      <trkpt lat="47.65881" lon="7.21466">
        <ele>267</ele>
        <time>2019-08-16T10:27:56Z</time>
      </trkpt>
      <trkpt lat="47.65883" lon="7.21459">
        <ele>267</ele>
        <time>2019-08-16T10:27:57Z</time>
      </trkpt>
      <trkpt lat="47.65886" lon="7.21453">
        <ele>267</ele>
        <time>2019-08-16T10:27:58Z</time>
      </trkpt>
      <trkpt lat="47.65889" lon="7.21446">
        <ele>267</ele>
        <time>2019-08-16T10:27:59Z</time>
      </trkpt>
      <trkpt lat="47.65891" lon="7.2144">
        <ele>267</ele>
        <time>2019-08-16T10:28:00Z</time>
      </trkpt>
      <trkpt lat="47.65894" lon="7.21436">
        <ele>267</ele>
        <time>2019-08-16T10:28:01Z</time>
      </trkpt>
      <trkpt lat="47.65896" lon="7.2143">
        <ele>267</ele>
        <time>2019-08-16T10:28:02Z</time>
      </trkpt>
      <trkpt lat="47.65898" lon="7.21423">
        <ele>267</ele>
        <time>2019-08-16T10:28:03Z</time>
      </trkpt>
      <trkpt lat="47.659" lon="7.21416">
        <ele>267</ele>
        <time>2019-08-16T10:28:04Z</time>
      </trkpt>
      <trkpt lat="47.65902" lon="7.2141">
        <ele>266.9</ele>
        <time>2019-08-16T10:28:05Z</time>
      </trkpt>
      <trkpt lat="47.65904" lon="7.21404">
        <ele>266.9</ele>
        <time>2019-08-16T10:28:06Z</time>
      </trkpt>
      <trkpt lat="47.65906" lon="7.21399">
        <ele>266.9</ele>
        <time>2019-08-16T10:28:07Z</time>
      </trkpt>
      <trkpt lat="47.65907" lon="7.21393">
        <ele>266.9</ele>
        <time>2019-08-16T10:28:08Z</time>
      </trkpt>
      <trkpt lat="47.65909" lon="7.21387">
        <ele>266.9</ele>
        <time>2019-08-16T10:28:09Z</time>
      </trkpt>
      <trkpt lat="47.65911" lon="7.2138">
        <ele>266.8</ele>
        <time>2019-08-16T10:28:10Z</time>
      </trkpt>
      <trkpt lat="47.65912" lon="7.21374">
        <ele>266.8</ele>
        <time>2019-08-16T10:28:11Z</time>
      </trkpt>
      <trkpt lat="47.65914" lon="7.21367">
        <ele>266.8</ele>
        <time>2019-08-16T10:28:12Z</time>
      </trkpt>
      <trkpt lat="47.65916" lon="7.21361">
        <ele>266.8</ele>
        <time>2019-08-16T10:28:13Z</time>
      </trkpt>
      <trkpt lat="47.65918" lon="7.21354">
        <ele>266.8</ele>
        <time>2019-08-16T10:28:14Z</time>
      </trkpt>
      <trkpt lat="47.6592" lon="7.21348">
        <ele>266.8</ele>
        <time>2019-08-16T10:28:15Z</time>
      </trkpt>
      <trkpt lat="47.65922" lon="7.21343">
        <ele>266.8</ele>
        <time>2019-08-16T10:28:16Z</time>
      </trkpt>
      <trkpt lat="47.65925" lon="7.21338">
        <ele>266.8</ele>
        <time>2019-08-16T10:28:17Z</time>
      </trkpt>
      <trkpt lat="47.65927" lon="7.21333">
        <ele>266.8</ele>
        <time>2019-08-16T10:28:18Z</time>
      </trkpt>
      <trkpt lat="47.65929" lon="7.21328">
        <ele>266.9</ele>
        <time>2019-08-16T10:28:19Z</time>
      </trkpt>
      <trkpt lat="47.65931" lon="7.21323">
        <ele>266.9</ele>
        <time>2019-08-16T10:28:20Z</time>
      </trkpt>
      <trkpt lat="47.65933" lon="7.21316">
        <ele>266.9</ele>
        <time>2019-08-16T10:28:21Z</time>
      </trkpt>
      <trkpt lat="47.65936" lon="7.2131">
        <ele>266.9</ele>
        <time>2019-08-16T10:28:22Z</time>
      </trkpt>
      <trkpt lat="47.65938" lon="7.21304">
        <ele>266.9</ele>
        <time>2019-08-16T10:28:23Z</time>
      </trkpt>
      <trkpt lat="47.6594" lon="7.21298">
        <ele>266.9</ele>
        <time>2019-08-16T10:28:24Z</time>
      </trkpt>
      <trkpt lat="47.65942" lon="7.21292">
        <ele>266.9</ele>
        <time>2019-08-16T10:28:25Z</time>
      </trkpt>
      <trkpt lat="47.65944" lon="7.21286">
        <ele>266.9</ele>
        <time>2019-08-16T10:28:26Z</time>
      </trkpt>
      <trkpt lat="47.65946" lon="7.21281">
        <ele>266.9</ele>
        <time>2019-08-16T10:28:27Z</time>
      </trkpt>
      <trkpt lat="47.65949" lon="7.21274">
        <ele>266.9</ele>
        <time>2019-08-16T10:28:28Z</time>
      </trkpt>
      <trkpt lat="47.65951" lon="7.21268">
        <ele>266.9</ele>
        <time>2019-08-16T10:28:29Z</time>
      </trkpt>
      <trkpt lat="47.65953" lon="7.21261">
        <ele>266.9</ele>
        <time>2019-08-16T10:28:30Z</time>
      </trkpt>
      <trkpt lat="47.65955" lon="7.21254">
        <ele>266.9</ele>
        <time>2019-08-16T10:28:31Z</time>
      </trkpt>
      <trkpt lat="47.65957" lon="7.21247">
        <ele>266.9</ele>
        <time>2019-08-16T10:28:32Z</time>
      </trkpt>
      <trkpt lat="47.65959" lon="7.21242">
        <ele>267</ele>
        <time>2019-08-16T10:28:33Z</time>
      </trkpt>
      <trkpt lat="47.65961" lon="7.21236">
        <ele>267</ele>
        <time>2019-08-16T10:28:34Z</time>
      </trkpt>
      <trkpt lat="47.65964" lon="7.21231">
        <ele>267</ele>
        <time>2019-08-16T10:28:35Z</time>
      </trkpt>
      <trkpt lat="47.65966" lon="7.21225">
        <ele>267</ele>
        <time>2019-08-16T10:28:36Z</time>
      </trkpt>
      <trkpt lat="47.65968" lon="7.21219">
        <ele>267.1</ele>
        <time>2019-08-16T10:28:37Z</time>
      </trkpt>
      <trkpt lat="47.65971" lon="7.21213">
        <ele>267.1</ele>
        <time>2019-08-16T10:28:38Z</time>
      </trkpt>
      <trkpt lat="47.65973" lon="7.21207">
        <ele>267.1</ele>
        <time>2019-08-16T10:28:39Z</time>
      </trkpt>
      <trkpt lat="47.65976" lon="7.212">
        <ele>267.2</ele>
        <time>2019-08-16T10:28:40Z</time>
      </trkpt>
      <trkpt lat="47.65979" lon="7.21194">
        <ele>267.2</ele>
        <time>2019-08-16T10:28:41Z</time>
      </trkpt>
      <trkpt lat="47.65982" lon="7.21188">
        <ele>267.2</ele>
        <time>2019-08-16T10:28:42Z</time>
      </trkpt>
      <trkpt lat="47.65984" lon="7.21182">
        <ele>267.2</ele>
        <time>2019-08-16T10:28:43Z</time>
      </trkpt>
      <trkpt lat="47.65986" lon="7.21177">
        <ele>267.2</ele>
        <time>2019-08-16T10:28:44Z</time>
      </trkpt>
      <trkpt lat="47.65988" lon="7.21171">
        <ele>267.2</ele>
        <time>2019-08-16T10:28:45Z</time>
      </trkpt>
      <trkpt lat="47.65991" lon="7.21166">
        <ele>267.2</ele>
        <time>2019-08-16T10:28:46Z</time>
      </trkpt>
      <trkpt lat="47.65992" lon="7.21159">
        <ele>267.2</ele>
        <time>2019-08-16T10:28:47Z</time>
      </trkpt>
      <trkpt lat="47.65994" lon="7.21151">
        <ele>267.2</ele>
        <time>2019-08-16T10:28:48Z</time>
      </trkpt>
      <trkpt lat="47.65997" lon="7.21145">
        <ele>267.2</ele>
        <time>2019-08-16T10:28:49Z</time>
      </trkpt>
      <trkpt lat="47.65999" lon="7.21139">
        <ele>267.2</ele>
        <time>2019-08-16T10:28:50Z</time>
      </trkpt>
      <trkpt lat="47.66001" lon="7.21133">
        <ele>267.2</ele>
        <time>2019-08-16T10:28:51Z</time>
      </trkpt>
      <trkpt lat="47.66003" lon="7.21127">
        <ele>267.2</ele>
        <time>2019-08-16T10:28:52Z</time>
      </trkpt>
      <trkpt lat="47.66005" lon="7.21121">
        <ele>267.3</ele>
        <time>2019-08-16T10:28:53Z</time>
      </trkpt>
      <trkpt lat="47.66007" lon="7.21115">
        <ele>267.3</ele>
        <time>2019-08-16T10:28:54Z</time>
      </trkpt>
      <trkpt lat="47.66009" lon="7.21109">
        <ele>267.3</ele>
        <time>2019-08-16T10:28:55Z</time>
      </trkpt>
      <trkpt lat="47.66011" lon="7.21104">
        <ele>267.3</ele>
        <time>2019-08-16T10:28:56Z</time>
      </trkpt>
      <trkpt lat="47.66014" lon="7.21097">
        <ele>267.3</ele>
        <time>2019-08-16T10:28:57Z</time>
      </trkpt>
      <trkpt lat="47.66016" lon="7.21091">
        <ele>267.3</ele>
        <time>2019-08-16T10:28:58Z</time>
      </trkpt>
      <trkpt lat="47.66019" lon="7.21085">
        <ele>267.3</ele>
        <time>2019-08-16T10:28:59Z</time>
      </trkpt>
      <trkpt lat="47.66021" lon="7.2108">
        <ele>267.3</ele>
        <time>2019-08-16T10:29:00Z</time>
      </trkpt>
      <trkpt lat="47.66023" lon="7.21074">
        <ele>267.3</ele>
        <time>2019-08-16T10:29:01Z</time>
      </trkpt>
      <trkpt lat="47.66025" lon="7.21067">
        <ele>267.3</ele>
        <time>2019-08-16T10:29:02Z</time>
      </trkpt>
      <trkpt lat="47.66027" lon="7.21061">
        <ele>267.3</ele>
        <time>2019-08-16T10:29:03Z</time>
      </trkpt>
      <trkpt lat="47.66028" lon="7.21054">
        <ele>267.3</ele>
        <time>2019-08-16T10:29:04Z</time>
      </trkpt>
      <trkpt lat="47.6603" lon="7.21049">
        <ele>267.3</ele>
        <time>2019-08-16T10:29:05Z</time>
      </trkpt>
      <trkpt lat="47.66032" lon="7.21043">
        <ele>267.3</ele>
        <time>2019-08-16T10:29:06Z</time>
      </trkpt>
      <trkpt lat="47.66033" lon="7.21038">
        <ele>267.3</ele>
        <time>2019-08-16T10:29:07Z</time>
      </trkpt>
      <trkpt lat="47.66035" lon="7.21034">
        <ele>267.3</ele>
        <time>2019-08-16T10:29:08Z</time>
      </trkpt>
      <trkpt lat="47.66037" lon="7.21028">
        <ele>267.3</ele>
        <time>2019-08-16T10:29:09Z</time>
      </trkpt>
      <trkpt lat="47.66039" lon="7.21023">
        <ele>267.2</ele>
        <time>2019-08-16T10:29:10Z</time>
      </trkpt>
      <trkpt lat="47.66041" lon="7.21017">
        <ele>267.2</ele>
        <time>2019-08-16T10:29:11Z</time>
      </trkpt>
      <trkpt lat="47.66043" lon="7.21011">
        <ele>267.2</ele>
        <time>2019-08-16T10:29:12Z</time>
      </trkpt>
      <trkpt lat="47.66045" lon="7.21006">
        <ele>267.2</ele>
        <time>2019-08-16T10:29:13Z</time>
      </trkpt>
      <trkpt lat="47.66046" lon="7.21">
        <ele>267.2</ele>
        <time>2019-08-16T10:29:14Z</time>
      </trkpt>
      <trkpt lat="47.66048" lon="7.20993">
        <ele>267.2</ele>
        <time>2019-08-16T10:29:15Z</time>
      </trkpt>
      <trkpt lat="47.6605" lon="7.20986">
        <ele>267.2</ele>
        <time>2019-08-16T10:29:16Z</time>
      </trkpt>
      <trkpt lat="47.66053" lon="7.2098">
        <ele>267.1</ele>
        <time>2019-08-16T10:29:17Z</time>
      </trkpt>
      <trkpt lat="47.66056" lon="7.20974">
        <ele>267.1</ele>
        <time>2019-08-16T10:29:18Z</time>
      </trkpt>
      <trkpt lat="47.66059" lon="7.20968">
        <ele>267.1</ele>
        <time>2019-08-16T10:29:19Z</time>
      </trkpt>
      <trkpt lat="47.66061" lon="7.20962">
        <ele>267.1</ele>
        <time>2019-08-16T10:29:20Z</time>
      </trkpt>
      <trkpt lat="47.66064" lon="7.20956">
        <ele>267.1</ele>
        <time>2019-08-16T10:29:21Z</time>
      </trkpt>
      <trkpt lat="47.66067" lon="7.2095">
        <ele>267.1</ele>
        <time>2019-08-16T10:29:22Z</time>
      </trkpt>
      <trkpt lat="47.66069" lon="7.20944">
        <ele>267.1</ele>
        <time>2019-08-16T10:29:23Z</time>
      </trkpt>
      <trkpt lat="47.66071" lon="7.20939">
        <ele>267.1</ele>
        <time>2019-08-16T10:29:24Z</time>
      </trkpt>
      <trkpt lat="47.66074" lon="7.20932">
        <ele>267.1</ele>
        <time>2019-08-16T10:29:25Z</time>
      </trkpt>
      <trkpt lat="47.66076" lon="7.20926">
        <ele>267</ele>
        <time>2019-08-16T10:29:26Z</time>
      </trkpt>
      <trkpt lat="47.66079" lon="7.20921">
        <ele>267</ele>
        <time>2019-08-16T10:29:27Z</time>
      </trkpt>
      <trkpt lat="47.66081" lon="7.20914">
        <ele>267</ele>
        <time>2019-08-16T10:29:28Z</time>
      </trkpt>
      <trkpt lat="47.66083" lon="7.20908">
        <ele>267</ele>
        <time>2019-08-16T10:29:29Z</time>
      </trkpt>
      <trkpt lat="47.66086" lon="7.20901">
        <ele>267</ele>
        <time>2019-08-16T10:29:30Z</time>
      </trkpt>
      <trkpt lat="47.66087" lon="7.20894">
        <ele>267</ele>
        <time>2019-08-16T10:29:31Z</time>
      </trkpt>
      <trkpt lat="47.6609" lon="7.20888">
        <ele>267</ele>
        <time>2019-08-16T10:29:32Z</time>
      </trkpt>
      <trkpt lat="47.66092" lon="7.20882">
        <ele>266.9</ele>
        <time>2019-08-16T10:29:33Z</time>
      </trkpt>
      <trkpt lat="47.66094" lon="7.20876">
        <ele>266.9</ele>
        <time>2019-08-16T10:29:34Z</time>
      </trkpt>
      <trkpt lat="47.66097" lon="7.2087">
        <ele>266.9</ele>
        <time>2019-08-16T10:29:35Z</time>
      </trkpt>
      <trkpt lat="47.66099" lon="7.20865">
        <ele>266.9</ele>
        <time>2019-08-16T10:29:36Z</time>
      </trkpt>
      <trkpt lat="47.66101" lon="7.20861">
        <ele>266.9</ele>
        <time>2019-08-16T10:29:37Z</time>
      </trkpt>
      <trkpt lat="47.66103" lon="7.20857">
        <ele>266.9</ele>
        <time>2019-08-16T10:29:38Z</time>
      </trkpt>
      <trkpt lat="47.66105" lon="7.20852">
        <ele>266.9</ele>
        <time>2019-08-16T10:29:39Z</time>
      </trkpt>
      <trkpt lat="47.66107" lon="7.20846">
        <ele>266.9</ele>
        <time>2019-08-16T10:29:40Z</time>
      </trkpt>
      <trkpt lat="47.6611" lon="7.20839">
        <ele>266.9</ele>
        <time>2019-08-16T10:29:41Z</time>
      </trkpt>
      <trkpt lat="47.66112" lon="7.20833">
        <ele>266.9</ele>
        <time>2019-08-16T10:29:42Z</time>
      </trkpt>
      <trkpt lat="47.66114" lon="7.20826">
        <ele>266.9</ele>
        <time>2019-08-16T10:29:43Z</time>
      </trkpt>
      <trkpt lat="47.66117" lon="7.2082">
        <ele>266.9</ele>
        <time>2019-08-16T10:29:44Z</time>
      </trkpt>
      <trkpt lat="47.66119" lon="7.20815">
        <ele>266.9</ele>
        <time>2019-08-16T10:29:45Z</time>
      </trkpt>
      <trkpt lat="47.66121" lon="7.20809">
        <ele>266.9</ele>
        <time>2019-08-16T10:29:46Z</time>
      </trkpt>
      <trkpt lat="47.66123" lon="7.20803">
        <ele>266.9</ele>
        <time>2019-08-16T10:29:47Z</time>
      </trkpt>
      <trkpt lat="47.66125" lon="7.20797">
        <ele>266.9</ele>
        <time>2019-08-16T10:29:48Z</time>
      </trkpt>
      <trkpt lat="47.66126" lon="7.20791">
        <ele>267</ele>
        <time>2019-08-16T10:29:49Z</time>
      </trkpt>
      <trkpt lat="47.66128" lon="7.20784">
        <ele>267</ele>
        <time>2019-08-16T10:29:50Z</time>
      </trkpt>
      <trkpt lat="47.66131" lon="7.20778">
        <ele>267.1</ele>
        <time>2019-08-16T10:29:51Z</time>
      </trkpt>
      <trkpt lat="47.66133" lon="7.20772">
        <ele>267.1</ele>
        <time>2019-08-16T10:29:52Z</time>
      </trkpt>
      <trkpt lat="47.66135" lon="7.20766">
        <ele>267.2</ele>
        <time>2019-08-16T10:29:53Z</time>
      </trkpt>
      <trkpt lat="47.66137" lon="7.20761">
        <ele>267.3</ele>
        <time>2019-08-16T10:29:54Z</time>
      </trkpt>
      <trkpt lat="47.66138" lon="7.20756">
        <ele>267.3</ele>
        <time>2019-08-16T10:29:55Z</time>
      </trkpt>
      <trkpt lat="47.6614" lon="7.20751">
        <ele>267.3</ele>
        <time>2019-08-16T10:29:56Z</time>
      </trkpt>
      <trkpt lat="47.66142" lon="7.20746">
        <ele>267.4</ele>
        <time>2019-08-16T10:29:57Z</time>
      </trkpt>
      <trkpt lat="47.66145" lon="7.20739">
        <ele>267.4</ele>
        <time>2019-08-16T10:29:59Z</time>
      </trkpt>
      <trkpt lat="47.66146" lon="7.20734">
        <ele>267.4</ele>
        <time>2019-08-16T10:30:00Z</time>
      </trkpt>
      <trkpt lat="47.66148" lon="7.20729">
        <ele>267.5</ele>
        <time>2019-08-16T10:30:01Z</time>
      </trkpt>
      <trkpt lat="47.66151" lon="7.20722">
        <ele>267.5</ele>
        <time>2019-08-16T10:30:02Z</time>
      </trkpt>
      <trkpt lat="47.66153" lon="7.20716">
        <ele>267.5</ele>
        <time>2019-08-16T10:30:03Z</time>
      </trkpt>
      <trkpt lat="47.66155" lon="7.20709">
        <ele>267.5</ele>
        <time>2019-08-16T10:30:04Z</time>
      </trkpt>
      <trkpt lat="47.66158" lon="7.20703">
        <ele>267.5</ele>
        <time>2019-08-16T10:30:05Z</time>
      </trkpt>
      <trkpt lat="47.6616" lon="7.20697">
        <ele>267.5</ele>
        <time>2019-08-16T10:30:06Z</time>
      </trkpt>
      <trkpt lat="47.66163" lon="7.20691">
        <ele>267.5</ele>
        <time>2019-08-16T10:30:07Z</time>
      </trkpt>
      <trkpt lat="47.66165" lon="7.20685">
        <ele>267.5</ele>
        <time>2019-08-16T10:30:08Z</time>
      </trkpt>
      <trkpt lat="47.66167" lon="7.20679">
        <ele>267.5</ele>
        <time>2019-08-16T10:30:09Z</time>
      </trkpt>
      <trkpt lat="47.66169" lon="7.20672">
        <ele>267.5</ele>
        <time>2019-08-16T10:30:10Z</time>
      </trkpt>
      <trkpt lat="47.66172" lon="7.20666">
        <ele>267.5</ele>
        <time>2019-08-16T10:30:11Z</time>
      </trkpt>
      <trkpt lat="47.66174" lon="7.2066">
        <ele>267.5</ele>
        <time>2019-08-16T10:30:12Z</time>
      </trkpt>
      <trkpt lat="47.66177" lon="7.20654">
        <ele>267.5</ele>
        <time>2019-08-16T10:30:13Z</time>
      </trkpt>
      <trkpt lat="47.66179" lon="7.20649">
        <ele>267.5</ele>
        <time>2019-08-16T10:30:14Z</time>
      </trkpt>
      <trkpt lat="47.66181" lon="7.20642">
        <ele>267.5</ele>
        <time>2019-08-16T10:30:15Z</time>
      </trkpt>
      <trkpt lat="47.66184" lon="7.20635">
        <ele>267.5</ele>
        <time>2019-08-16T10:30:16Z</time>
      </trkpt>
      <trkpt lat="47.66186" lon="7.20629">
        <ele>267.5</ele>
        <time>2019-08-16T10:30:17Z</time>
      </trkpt>
      <trkpt lat="47.66188" lon="7.20623">
        <ele>267.5</ele>
        <time>2019-08-16T10:30:18Z</time>
      </trkpt>
      <trkpt lat="47.6619" lon="7.20617">
        <ele>267.5</ele>
        <time>2019-08-16T10:30:19Z</time>
      </trkpt>
      <trkpt lat="47.66192" lon="7.20611">
        <ele>267.5</ele>
        <time>2019-08-16T10:30:20Z</time>
      </trkpt>
      <trkpt lat="47.66193" lon="7.20605">
        <ele>267.5</ele>
        <time>2019-08-16T10:30:21Z</time>
      </trkpt>
      <trkpt lat="47.66195" lon="7.206">
        <ele>267.5</ele>
        <time>2019-08-16T10:30:22Z</time>
      </trkpt>
      <trkpt lat="47.66196" lon="7.20595">
        <ele>267.5</ele>
        <time>2019-08-16T10:30:23Z</time>
      </trkpt>
      <trkpt lat="47.66197" lon="7.20591">
        <ele>267.5</ele>
        <time>2019-08-16T10:30:24Z</time>
      </trkpt>
      <trkpt lat="47.66198" lon="7.20587">
        <ele>267.5</ele>
        <time>2019-08-16T10:30:26Z</time>
      </trkpt>
      <trkpt lat="47.66199" lon="7.20581">
        <ele>267.5</ele>
        <time>2019-08-16T10:30:29Z</time>
      </trkpt>
      <trkpt lat="47.66201" lon="7.20578">
        <ele>267.5</ele>
        <time>2019-08-16T10:30:31Z</time>
      </trkpt>
      <trkpt lat="47.66204" lon="7.20575">
        <ele>267.5</ele>
        <time>2019-08-16T10:30:33Z</time>
      </trkpt>
      <trkpt lat="47.66208" lon="7.2057">
        <ele>267.5</ele>
        <time>2019-08-16T10:30:35Z</time>
      </trkpt>
      <trkpt lat="47.6621" lon="7.20567">
        <ele>267.4</ele>
        <time>2019-08-16T10:30:36Z</time>
      </trkpt>
      <trkpt lat="47.66212" lon="7.20563">
        <ele>267.4</ele>
        <time>2019-08-16T10:30:37Z</time>
      </trkpt>
      <trkpt lat="47.66216" lon="7.2056">
        <ele>267.3</ele>
        <time>2019-08-16T10:30:38Z</time>
      </trkpt>
      <trkpt lat="47.66219" lon="7.20555">
        <ele>267.2</ele>
        <time>2019-08-16T10:30:39Z</time>
      </trkpt>
      <trkpt lat="47.66222" lon="7.2055">
        <ele>267.1</ele>
        <time>2019-08-16T10:30:40Z</time>
      </trkpt>
      <trkpt lat="47.66224" lon="7.20545">
        <ele>267.1</ele>
        <time>2019-08-16T10:30:41Z</time>
      </trkpt>
      <trkpt lat="47.66227" lon="7.20539">
        <ele>267.1</ele>
        <time>2019-08-16T10:30:42Z</time>
      </trkpt>
      <trkpt lat="47.66227" lon="7.20531">
        <ele>267.1</ele>
        <time>2019-08-16T10:30:44Z</time>
      </trkpt>
      <trkpt lat="47.66228" lon="7.20525">
        <ele>267.1</ele>
        <time>2019-08-16T10:30:45Z</time>
      </trkpt>
      <trkpt lat="47.66229" lon="7.2052">
        <ele>267.2</ele>
        <time>2019-08-16T10:30:46Z</time>
      </trkpt>
      <trkpt lat="47.6623" lon="7.20514">
        <ele>267.2</ele>
        <time>2019-08-16T10:30:47Z</time>
      </trkpt>
      <trkpt lat="47.66231" lon="7.20509">
        <ele>267.2</ele>
        <time>2019-08-16T10:30:48Z</time>
      </trkpt>
      <trkpt lat="47.66233" lon="7.20504">
        <ele>267.2</ele>
        <time>2019-08-16T10:30:49Z</time>
      </trkpt>
      <trkpt lat="47.66234" lon="7.20498">
        <ele>267.2</ele>
        <time>2019-08-16T10:30:50Z</time>
      </trkpt>
      <trkpt lat="47.66236" lon="7.20493">
        <ele>267.2</ele>
        <time>2019-08-16T10:30:51Z</time>
      </trkpt>
      <trkpt lat="47.66238" lon="7.20488">
        <ele>267.2</ele>
        <time>2019-08-16T10:30:52Z</time>
      </trkpt>
      <trkpt lat="47.6624" lon="7.20483">
        <ele>267.2</ele>
        <time>2019-08-16T10:30:53Z</time>
      </trkpt>
      <trkpt lat="47.66242" lon="7.20478">
        <ele>267.2</ele>
        <time>2019-08-16T10:30:54Z</time>
      </trkpt>
      <trkpt lat="47.66243" lon="7.20472">
        <ele>267.2</ele>
        <time>2019-08-16T10:30:55Z</time>
      </trkpt>
      <trkpt lat="47.66245" lon="7.20467">
        <ele>267.2</ele>
        <time>2019-08-16T10:30:56Z</time>
      </trkpt>
      <trkpt lat="47.66246" lon="7.20462">
        <ele>267.2</ele>
        <time>2019-08-16T10:30:57Z</time>
      </trkpt>
      <trkpt lat="47.66248" lon="7.20457">
        <ele>267.2</ele>
        <time>2019-08-16T10:30:58Z</time>
      </trkpt>
      <trkpt lat="47.66249" lon="7.20452">
        <ele>267.2</ele>
        <time>2019-08-16T10:30:59Z</time>
      </trkpt>
      <trkpt lat="47.66251" lon="7.20447">
        <ele>267.2</ele>
        <time>2019-08-16T10:31:00Z</time>
      </trkpt>
      <trkpt lat="47.66253" lon="7.20442">
        <ele>267.2</ele>
        <time>2019-08-16T10:31:01Z</time>
      </trkpt>
      <trkpt lat="47.66255" lon="7.20437">
        <ele>267.2</ele>
        <time>2019-08-16T10:31:02Z</time>
      </trkpt>
      <trkpt lat="47.66257" lon="7.20432">
        <ele>267.1</ele>
        <time>2019-08-16T10:31:03Z</time>
      </trkpt>
      <trkpt lat="47.66258" lon="7.20427">
        <ele>267.1</ele>
        <time>2019-08-16T10:31:04Z</time>
      </trkpt>
      <trkpt lat="47.66258" lon="7.20422">
        <ele>267.1</ele>
        <time>2019-08-16T10:31:05Z</time>
      </trkpt>
      <trkpt lat="47.66259" lon="7.20416">
        <ele>267.1</ele>
        <time>2019-08-16T10:31:06Z</time>
      </trkpt>
      <trkpt lat="47.6626" lon="7.2041">
        <ele>267</ele>
        <time>2019-08-16T10:31:07Z</time>
      </trkpt>
      <trkpt lat="47.66261" lon="7.20404">
        <ele>267</ele>
        <time>2019-08-16T10:31:08Z</time>
      </trkpt>
      <trkpt lat="47.66263" lon="7.20399">
        <ele>267</ele>
        <time>2019-08-16T10:31:09Z</time>
      </trkpt>
      <trkpt lat="47.66265" lon="7.20394">
        <ele>267</ele>
        <time>2019-08-16T10:31:10Z</time>
      </trkpt>
      <trkpt lat="47.66267" lon="7.20388">
        <ele>266.9</ele>
        <time>2019-08-16T10:31:11Z</time>
      </trkpt>
      <trkpt lat="47.66269" lon="7.20382">
        <ele>266.9</ele>
        <time>2019-08-16T10:31:12Z</time>
      </trkpt>
      <trkpt lat="47.66271" lon="7.20377">
        <ele>266.9</ele>
        <time>2019-08-16T10:31:13Z</time>
      </trkpt>
      <trkpt lat="47.66272" lon="7.20371">
        <ele>266.9</ele>
        <time>2019-08-16T10:31:14Z</time>
      </trkpt>
      <trkpt lat="47.66275" lon="7.20367">
        <ele>266.9</ele>
        <time>2019-08-16T10:31:15Z</time>
      </trkpt>
      <trkpt lat="47.66277" lon="7.20362">
        <ele>266.9</ele>
        <time>2019-08-16T10:31:16Z</time>
      </trkpt>
      <trkpt lat="47.66279" lon="7.20356">
        <ele>266.9</ele>
        <time>2019-08-16T10:31:17Z</time>
      </trkpt>
      <trkpt lat="47.66282" lon="7.20352">
        <ele>266.9</ele>
        <time>2019-08-16T10:31:18Z</time>
      </trkpt>
      <trkpt lat="47.66284" lon="7.20347">
        <ele>266.9</ele>
        <time>2019-08-16T10:31:19Z</time>
      </trkpt>
      <trkpt lat="47.66286" lon="7.20342">
        <ele>266.9</ele>
        <time>2019-08-16T10:31:20Z</time>
      </trkpt>
      <trkpt lat="47.66288" lon="7.20335">
        <ele>266.9</ele>
        <time>2019-08-16T10:31:21Z</time>
      </trkpt>
      <trkpt lat="47.6629" lon="7.2033">
        <ele>266.9</ele>
        <time>2019-08-16T10:31:22Z</time>
      </trkpt>
      <trkpt lat="47.66292" lon="7.20324">
        <ele>266.9</ele>
        <time>2019-08-16T10:31:23Z</time>
      </trkpt>
      <trkpt lat="47.66294" lon="7.20318">
        <ele>266.9</ele>
        <time>2019-08-16T10:31:24Z</time>
      </trkpt>
      <trkpt lat="47.66297" lon="7.20312">
        <ele>266.9</ele>
        <time>2019-08-16T10:31:25Z</time>
      </trkpt>
      <trkpt lat="47.66298" lon="7.20306">
        <ele>266.9</ele>
        <time>2019-08-16T10:31:26Z</time>
      </trkpt>
      <trkpt lat="47.663" lon="7.203">
        <ele>266.9</ele>
        <time>2019-08-16T10:31:27Z</time>
      </trkpt>
      <trkpt lat="47.66302" lon="7.20295">
        <ele>266.9</ele>
        <time>2019-08-16T10:31:28Z</time>
      </trkpt>
      <trkpt lat="47.66305" lon="7.20289">
        <ele>266.9</ele>
        <time>2019-08-16T10:31:29Z</time>
      </trkpt>
      <trkpt lat="47.66307" lon="7.20283">
        <ele>266.9</ele>
        <time>2019-08-16T10:31:30Z</time>
      </trkpt>
      <trkpt lat="47.66309" lon="7.20277">
        <ele>266.9</ele>
        <time>2019-08-16T10:31:31Z</time>
      </trkpt>
      <trkpt lat="47.66311" lon="7.2027">
        <ele>266.9</ele>
        <time>2019-08-16T10:31:32Z</time>
      </trkpt>
      <trkpt lat="47.66313" lon="7.20265">
        <ele>266.9</ele>
        <time>2019-08-16T10:31:33Z</time>
      </trkpt>
      <trkpt lat="47.66314" lon="7.20259">
        <ele>267</ele>
        <time>2019-08-16T10:31:34Z</time>
      </trkpt>
      <trkpt lat="47.66316" lon="7.20253">
        <ele>267</ele>
        <time>2019-08-16T10:31:35Z</time>
      </trkpt>
      <trkpt lat="47.66318" lon="7.20247">
        <ele>267</ele>
        <time>2019-08-16T10:31:36Z</time>
      </trkpt>
      <trkpt lat="47.66321" lon="7.20241">
        <ele>267</ele>
        <time>2019-08-16T10:31:37Z</time>
      </trkpt>
      <trkpt lat="47.66323" lon="7.20235">
        <ele>267</ele>
        <time>2019-08-16T10:31:38Z</time>
      </trkpt>
      <trkpt lat="47.66325" lon="7.20229">
        <ele>267</ele>
        <time>2019-08-16T10:31:39Z</time>
      </trkpt>
      <trkpt lat="47.66327" lon="7.20224">
        <ele>267</ele>
        <time>2019-08-16T10:31:40Z</time>
      </trkpt>
      <trkpt lat="47.66329" lon="7.20218">
        <ele>267.1</ele>
        <time>2019-08-16T10:31:41Z</time>
      </trkpt>
      <trkpt lat="47.66331" lon="7.20213">
        <ele>267.1</ele>
        <time>2019-08-16T10:31:42Z</time>
      </trkpt>
      <trkpt lat="47.66333" lon="7.20207">
        <ele>267.1</ele>
        <time>2019-08-16T10:31:43Z</time>
      </trkpt>
      <trkpt lat="47.66336" lon="7.20201">
        <ele>267.1</ele>
        <time>2019-08-16T10:31:44Z</time>
      </trkpt>
      <trkpt lat="47.66338" lon="7.20196">
        <ele>267.1</ele>
        <time>2019-08-16T10:31:45Z</time>
      </trkpt>
      <trkpt lat="47.6634" lon="7.20189">
        <ele>267.1</ele>
        <time>2019-08-16T10:31:46Z</time>
      </trkpt>
      <trkpt lat="47.66342" lon="7.20182">
        <ele>267.1</ele>
        <time>2019-08-16T10:31:47Z</time>
      </trkpt>
      <trkpt lat="47.66344" lon="7.20176">
        <ele>267.1</ele>
        <time>2019-08-16T10:31:48Z</time>
      </trkpt>
      <trkpt lat="47.66346" lon="7.2017">
        <ele>267.1</ele>
        <time>2019-08-16T10:31:49Z</time>
      </trkpt>
      <trkpt lat="47.66348" lon="7.20165">
        <ele>267.1</ele>
        <time>2019-08-16T10:31:50Z</time>
      </trkpt>
      <trkpt lat="47.6635" lon="7.20159">
        <ele>267.1</ele>
        <time>2019-08-16T10:31:51Z</time>
      </trkpt>
      <trkpt lat="47.66351" lon="7.20153">
        <ele>267.1</ele>
        <time>2019-08-16T10:31:52Z</time>
      </trkpt>
      <trkpt lat="47.66353" lon="7.20148">
        <ele>267.1</ele>
        <time>2019-08-16T10:31:53Z</time>
      </trkpt>
      <trkpt lat="47.66355" lon="7.20142">
        <ele>267.1</ele>
        <time>2019-08-16T10:31:54Z</time>
      </trkpt>
      <trkpt lat="47.66357" lon="7.20136">
        <ele>267.1</ele>
        <time>2019-08-16T10:31:55Z</time>
      </trkpt>
      <trkpt lat="47.6636" lon="7.20131">
        <ele>267.1</ele>
        <time>2019-08-16T10:31:56Z</time>
      </trkpt>
      <trkpt lat="47.66362" lon="7.20125">
        <ele>267.1</ele>
        <time>2019-08-16T10:31:57Z</time>
      </trkpt>
      <trkpt lat="47.66364" lon="7.20119">
        <ele>267.2</ele>
        <time>2019-08-16T10:31:58Z</time>
      </trkpt>
      <trkpt lat="47.66367" lon="7.20113">
        <ele>267.1</ele>
        <time>2019-08-16T10:31:59Z</time>
      </trkpt>
      <trkpt lat="47.6637" lon="7.20107">
        <ele>267.1</ele>
        <time>2019-08-16T10:32:00Z</time>
      </trkpt>
      <trkpt lat="47.66371" lon="7.20101">
        <ele>267.1</ele>
        <time>2019-08-16T10:32:01Z</time>
      </trkpt>
      <trkpt lat="47.6637" lon="7.20095">
        <ele>267.1</ele>
        <time>2019-08-16T10:32:02Z</time>
      </trkpt>
      <trkpt lat="47.66369" lon="7.20088">
        <ele>267.1</ele>
        <time>2019-08-16T10:32:03Z</time>
      </trkpt>
      <trkpt lat="47.66369" lon="7.20082">
        <ele>267.1</ele>
        <time>2019-08-16T10:32:04Z</time>
      </trkpt>
      <trkpt lat="47.6637" lon="7.20074">
        <ele>267.1</ele>
        <time>2019-08-16T10:32:05Z</time>
      </trkpt>
      <trkpt lat="47.6637" lon="7.20068">
        <ele>267.1</ele>
        <time>2019-08-16T10:32:06Z</time>
      </trkpt>
      <trkpt lat="47.6637" lon="7.20062">
        <ele>267.2</ele>
        <time>2019-08-16T10:32:07Z</time>
      </trkpt>
      <trkpt lat="47.66371" lon="7.20057">
        <ele>267.2</ele>
        <time>2019-08-16T10:32:08Z</time>
      </trkpt>
      <trkpt lat="47.66373" lon="7.20052">
        <ele>267.2</ele>
        <time>2019-08-16T10:32:09Z</time>
      </trkpt>
      <trkpt lat="47.66374" lon="7.20046">
        <ele>267.2</ele>
        <time>2019-08-16T10:32:10Z</time>
      </trkpt>
      <trkpt lat="47.66375" lon="7.20041">
        <ele>267.2</ele>
        <time>2019-08-16T10:32:11Z</time>
      </trkpt>
      <trkpt lat="47.66378" lon="7.20035">
        <ele>267.2</ele>
        <time>2019-08-16T10:32:12Z</time>
      </trkpt>
      <trkpt lat="47.6638" lon="7.2003">
        <ele>267.2</ele>
        <time>2019-08-16T10:32:13Z</time>
      </trkpt>
      <trkpt lat="47.66382" lon="7.20024">
        <ele>267.2</ele>
        <time>2019-08-16T10:32:14Z</time>
      </trkpt>
      <trkpt lat="47.66384" lon="7.2002">
        <ele>267.2</ele>
        <time>2019-08-16T10:32:15Z</time>
      </trkpt>
      <trkpt lat="47.66386" lon="7.20015">
        <ele>267.1</ele>
        <time>2019-08-16T10:32:16Z</time>
      </trkpt>
      <trkpt lat="47.66388" lon="7.2001">
        <ele>267.1</ele>
        <time>2019-08-16T10:32:17Z</time>
      </trkpt>
      <trkpt lat="47.66389" lon="7.20004">
        <ele>267.1</ele>
        <time>2019-08-16T10:32:18Z</time>
      </trkpt>
      <trkpt lat="47.66392" lon="7.19997">
        <ele>267.1</ele>
        <time>2019-08-16T10:32:19Z</time>
      </trkpt>
      <trkpt lat="47.66394" lon="7.1999">
        <ele>267.1</ele>
        <time>2019-08-16T10:32:20Z</time>
      </trkpt>
      <trkpt lat="47.66396" lon="7.19984">
        <ele>267.1</ele>
        <time>2019-08-16T10:32:21Z</time>
      </trkpt>
      <trkpt lat="47.66398" lon="7.19979">
        <ele>267.1</ele>
        <time>2019-08-16T10:32:22Z</time>
      </trkpt>
      <trkpt lat="47.664" lon="7.19973">
        <ele>267.1</ele>
        <time>2019-08-16T10:32:23Z</time>
      </trkpt>
      <trkpt lat="47.66402" lon="7.19967">
        <ele>267.1</ele>
        <time>2019-08-16T10:32:24Z</time>
      </trkpt>
      <trkpt lat="47.66404" lon="7.19962">
        <ele>267.1</ele>
        <time>2019-08-16T10:32:25Z</time>
      </trkpt>
      <trkpt lat="47.66406" lon="7.19957">
        <ele>267.1</ele>
        <time>2019-08-16T10:32:26Z</time>
      </trkpt>
      <trkpt lat="47.66408" lon="7.19951">
        <ele>267.2</ele>
        <time>2019-08-16T10:32:27Z</time>
      </trkpt>
      <trkpt lat="47.6641" lon="7.19945">
        <ele>267.2</ele>
        <time>2019-08-16T10:32:28Z</time>
      </trkpt>
      <trkpt lat="47.66412" lon="7.19938">
        <ele>267.2</ele>
        <time>2019-08-16T10:32:29Z</time>
      </trkpt>
      <trkpt lat="47.66414" lon="7.19932">
        <ele>267.3</ele>
        <time>2019-08-16T10:32:30Z</time>
      </trkpt>
      <trkpt lat="47.66416" lon="7.19926">
        <ele>267.3</ele>
        <time>2019-08-16T10:32:31Z</time>
      </trkpt>
      <trkpt lat="47.66418" lon="7.1992">
        <ele>267.3</ele>
        <time>2019-08-16T10:32:32Z</time>
      </trkpt>
      <trkpt lat="47.6642" lon="7.19914">
        <ele>267.3</ele>
        <time>2019-08-16T10:32:33Z</time>
      </trkpt>
      <trkpt lat="47.66422" lon="7.19907">
        <ele>267.3</ele>
        <time>2019-08-16T10:32:34Z</time>
      </trkpt>
      <trkpt lat="47.66424" lon="7.19901">
        <ele>267.3</ele>
        <time>2019-08-16T10:32:35Z</time>
      </trkpt>
      <trkpt lat="47.66426" lon="7.19894">
        <ele>267.3</ele>
        <time>2019-08-16T10:32:36Z</time>
      </trkpt>
      <trkpt lat="47.66429" lon="7.19889">
        <ele>267.3</ele>
        <time>2019-08-16T10:32:37Z</time>
      </trkpt>
      <trkpt lat="47.66432" lon="7.19883">
        <ele>267.3</ele>
        <time>2019-08-16T10:32:38Z</time>
      </trkpt>
      <trkpt lat="47.66434" lon="7.19877">
        <ele>267.2</ele>
        <time>2019-08-16T10:32:39Z</time>
      </trkpt>
      <trkpt lat="47.66436" lon="7.19871">
        <ele>267.2</ele>
        <time>2019-08-16T10:32:40Z</time>
      </trkpt>
      <trkpt lat="47.66439" lon="7.19865">
        <ele>267.2</ele>
        <time>2019-08-16T10:32:41Z</time>
      </trkpt>
      <trkpt lat="47.6644" lon="7.19859">
        <ele>267.2</ele>
        <time>2019-08-16T10:32:42Z</time>
      </trkpt>
      <trkpt lat="47.66443" lon="7.19853">
        <ele>267.2</ele>
        <time>2019-08-16T10:32:43Z</time>
      </trkpt>
      <trkpt lat="47.66445" lon="7.19847">
        <ele>267.2</ele>
        <time>2019-08-16T10:32:44Z</time>
      </trkpt>
      <trkpt lat="47.66446" lon="7.19842">
        <ele>267.2</ele>
        <time>2019-08-16T10:32:45Z</time>
      </trkpt>
      <trkpt lat="47.66448" lon="7.19835">
        <ele>267.2</ele>
        <time>2019-08-16T10:32:46Z</time>
      </trkpt>
      <trkpt lat="47.6645" lon="7.19829">
        <ele>267.3</ele>
        <time>2019-08-16T10:32:47Z</time>
      </trkpt>
      <trkpt lat="47.66452" lon="7.19822">
        <ele>267.3</ele>
        <time>2019-08-16T10:32:48Z</time>
      </trkpt>
      <trkpt lat="47.66454" lon="7.19816">
        <ele>267.3</ele>
        <time>2019-08-16T10:32:49Z</time>
      </trkpt>
      <trkpt lat="47.66456" lon="7.1981">
        <ele>267.4</ele>
        <time>2019-08-16T10:32:50Z</time>
      </trkpt>
      <trkpt lat="47.66458" lon="7.19804">
        <ele>267.4</ele>
        <time>2019-08-16T10:32:51Z</time>
      </trkpt>
      <trkpt lat="47.66459" lon="7.19799">
        <ele>267.5</ele>
        <time>2019-08-16T10:32:52Z</time>
      </trkpt>
      <trkpt lat="47.66461" lon="7.19793">
        <ele>267.5</ele>
        <time>2019-08-16T10:32:53Z</time>
      </trkpt>
      <trkpt lat="47.66462" lon="7.19787">
        <ele>267.6</ele>
        <time>2019-08-16T10:32:54Z</time>
      </trkpt>
      <trkpt lat="47.66464" lon="7.19782">
        <ele>267.6</ele>
        <time>2019-08-16T10:32:55Z</time>
      </trkpt>
      <trkpt lat="47.66465" lon="7.19776">
        <ele>267.6</ele>
        <time>2019-08-16T10:32:56Z</time>
      </trkpt>
      <trkpt lat="47.66467" lon="7.1977">
        <ele>267.7</ele>
        <time>2019-08-16T10:32:57Z</time>
      </trkpt>
      <trkpt lat="47.66469" lon="7.19764">
        <ele>267.7</ele>
        <time>2019-08-16T10:32:58Z</time>
      </trkpt>
      <trkpt lat="47.66471" lon="7.19758">
        <ele>267.7</ele>
        <time>2019-08-16T10:32:59Z</time>
      </trkpt>
      <trkpt lat="47.66473" lon="7.19751">
        <ele>267.8</ele>
        <time>2019-08-16T10:33:00Z</time>
      </trkpt>
      <trkpt lat="47.66476" lon="7.19747">
        <ele>267.8</ele>
        <time>2019-08-16T10:33:01Z</time>
      </trkpt>
      <trkpt lat="47.66478" lon="7.19741">
        <ele>267.8</ele>
        <time>2019-08-16T10:33:02Z</time>
      </trkpt>
      <trkpt lat="47.6648" lon="7.19734">
        <ele>267.9</ele>
        <time>2019-08-16T10:33:03Z</time>
      </trkpt>
      <trkpt lat="47.66481" lon="7.19728">
        <ele>268</ele>
        <time>2019-08-16T10:33:04Z</time>
      </trkpt>
      <trkpt lat="47.66483" lon="7.19722">
        <ele>268.1</ele>
        <time>2019-08-16T10:33:05Z</time>
      </trkpt>
      <trkpt lat="47.66485" lon="7.19717">
        <ele>268.2</ele>
        <time>2019-08-16T10:33:06Z</time>
      </trkpt>
      <trkpt lat="47.66486" lon="7.19711">
        <ele>268.3</ele>
        <time>2019-08-16T10:33:07Z</time>
      </trkpt>
      <trkpt lat="47.66487" lon="7.19705">
        <ele>268.4</ele>
        <time>2019-08-16T10:33:08Z</time>
      </trkpt>
      <trkpt lat="47.66489" lon="7.19701">
        <ele>268.5</ele>
        <time>2019-08-16T10:33:09Z</time>
      </trkpt>
      <trkpt lat="47.6649" lon="7.19695">
        <ele>268.7</ele>
        <time>2019-08-16T10:33:10Z</time>
      </trkpt>
      <trkpt lat="47.66491" lon="7.19689">
        <ele>268.9</ele>
        <time>2019-08-16T10:33:11Z</time>
      </trkpt>
      <trkpt lat="47.66493" lon="7.19684">
        <ele>269.1</ele>
        <time>2019-08-16T10:33:12Z</time>
      </trkpt>
      <trkpt lat="47.66494" lon="7.19679">
        <ele>269.3</ele>
        <time>2019-08-16T10:33:13Z</time>
      </trkpt>
      <trkpt lat="47.66496" lon="7.19675">
        <ele>269.5</ele>
        <time>2019-08-16T10:33:14Z</time>
      </trkpt>
      <trkpt lat="47.66498" lon="7.19672">
        <ele>269.7</ele>
        <time>2019-08-16T10:33:15Z</time>
      </trkpt>
      <trkpt lat="47.66501" lon="7.19665">
        <ele>270</ele>
        <time>2019-08-16T10:33:17Z</time>
      </trkpt>
      <trkpt lat="47.66503" lon="7.19661">
        <ele>270.3</ele>
        <time>2019-08-16T10:33:19Z</time>
      </trkpt>
      <trkpt lat="47.66505" lon="7.19657">
        <ele>270.3</ele>
        <time>2019-08-16T10:33:21Z</time>
      </trkpt>
      <trkpt lat="47.66508" lon="7.1965">
        <ele>270.3</ele>
        <time>2019-08-16T10:33:23Z</time>
      </trkpt>
      <trkpt lat="47.66509" lon="7.19645">
        <ele>270.3</ele>
        <time>2019-08-16T10:33:24Z</time>
      </trkpt>
      <trkpt lat="47.6651" lon="7.19639">
        <ele>270.3</ele>
        <time>2019-08-16T10:33:25Z</time>
      </trkpt>
      <trkpt lat="47.66511" lon="7.19634">
        <ele>270.4</ele>
        <time>2019-08-16T10:33:26Z</time>
      </trkpt>
      <trkpt lat="47.66512" lon="7.19627">
        <ele>270.4</ele>
        <time>2019-08-16T10:33:27Z</time>
      </trkpt>
      <trkpt lat="47.66513" lon="7.1962">
        <ele>270.4</ele>
        <time>2019-08-16T10:33:28Z</time>
      </trkpt>
      <trkpt lat="47.66515" lon="7.19614">
        <ele>270.4</ele>
        <time>2019-08-16T10:33:29Z</time>
      </trkpt>
      <trkpt lat="47.66515" lon="7.19607">
        <ele>270.4</ele>
        <time>2019-08-16T10:33:30Z</time>
      </trkpt>
      <trkpt lat="47.66516" lon="7.19601">
        <ele>270.4</ele>
        <time>2019-08-16T10:33:31Z</time>
      </trkpt>
      <trkpt lat="47.66517" lon="7.19594">
        <ele>270.4</ele>
        <time>2019-08-16T10:33:32Z</time>
      </trkpt>
      <trkpt lat="47.66517" lon="7.19588">
        <ele>270.4</ele>
        <time>2019-08-16T10:33:33Z</time>
      </trkpt>
      <trkpt lat="47.66518" lon="7.19583">
        <ele>270.4</ele>
        <time>2019-08-16T10:33:34Z</time>
      </trkpt>
      <trkpt lat="47.66518" lon="7.19577">
        <ele>270.5</ele>
        <time>2019-08-16T10:33:35Z</time>
      </trkpt>
      <trkpt lat="47.66519" lon="7.19571">
        <ele>270.5</ele>
        <time>2019-08-16T10:33:36Z</time>
      </trkpt>
      <trkpt lat="47.66519" lon="7.19565">
        <ele>270.5</ele>
        <time>2019-08-16T10:33:37Z</time>
      </trkpt>
      <trkpt lat="47.6652" lon="7.1956">
        <ele>270.5</ele>
        <time>2019-08-16T10:33:38Z</time>
      </trkpt>
      <trkpt lat="47.66521" lon="7.19555">
        <ele>270.5</ele>
        <time>2019-08-16T10:33:39Z</time>
      </trkpt>
      <trkpt lat="47.66522" lon="7.19549">
        <ele>270.5</ele>
        <time>2019-08-16T10:33:40Z</time>
      </trkpt>
      <trkpt lat="47.66523" lon="7.19544">
        <ele>270.5</ele>
        <time>2019-08-16T10:33:41Z</time>
      </trkpt>
      <trkpt lat="47.66524" lon="7.19539">
        <ele>270.5</ele>
        <time>2019-08-16T10:33:42Z</time>
      </trkpt>
      <trkpt lat="47.66524" lon="7.19533">
        <ele>270.5</ele>
        <time>2019-08-16T10:33:43Z</time>
      </trkpt>
      <trkpt lat="47.66525" lon="7.19527">
        <ele>270.5</ele>
        <time>2019-08-16T10:33:44Z</time>
      </trkpt>
      <trkpt lat="47.66525" lon="7.19522">
        <ele>270.5</ele>
        <time>2019-08-16T10:33:45Z</time>
      </trkpt>
      <trkpt lat="47.66526" lon="7.19516">
        <ele>270.5</ele>
        <time>2019-08-16T10:33:46Z</time>
      </trkpt>
      <trkpt lat="47.66527" lon="7.1951">
        <ele>270.5</ele>
        <time>2019-08-16T10:33:47Z</time>
      </trkpt>
      <trkpt lat="47.66527" lon="7.19504">
        <ele>270.5</ele>
        <time>2019-08-16T10:33:48Z</time>
      </trkpt>
      <trkpt lat="47.66528" lon="7.19498">
        <ele>270.5</ele>
        <time>2019-08-16T10:33:49Z</time>
      </trkpt>
      <trkpt lat="47.66529" lon="7.19492">
        <ele>270.5</ele>
        <time>2019-08-16T10:33:50Z</time>
      </trkpt>
      <trkpt lat="47.6653" lon="7.19485">
        <ele>270.5</ele>
        <time>2019-08-16T10:33:51Z</time>
      </trkpt>
      <trkpt lat="47.66531" lon="7.19479">
        <ele>270.5</ele>
        <time>2019-08-16T10:33:52Z</time>
      </trkpt>
      <trkpt lat="47.66532" lon="7.19472">
        <ele>270.5</ele>
        <time>2019-08-16T10:33:53Z</time>
      </trkpt>
      <trkpt lat="47.66533" lon="7.19466">
        <ele>270.5</ele>
        <time>2019-08-16T10:33:54Z</time>
      </trkpt>
      <trkpt lat="47.66534" lon="7.19459">
        <ele>270.6</ele>
        <time>2019-08-16T10:33:55Z</time>
      </trkpt>
      <trkpt lat="47.66535" lon="7.19452">
        <ele>270.6</ele>
        <time>2019-08-16T10:33:56Z</time>
      </trkpt>
      <trkpt lat="47.66536" lon="7.19445">
        <ele>270.6</ele>
        <time>2019-08-16T10:33:57Z</time>
      </trkpt>
      <trkpt lat="47.66537" lon="7.19439">
        <ele>270.6</ele>
        <time>2019-08-16T10:33:58Z</time>
      </trkpt>
      <trkpt lat="47.66538" lon="7.19433">
        <ele>270.6</ele>
        <time>2019-08-16T10:33:59Z</time>
      </trkpt>
      <trkpt lat="47.66539" lon="7.19427">
        <ele>270.6</ele>
        <time>2019-08-16T10:34:00Z</time>
      </trkpt>
      <trkpt lat="47.6654" lon="7.19421">
        <ele>270.6</ele>
        <time>2019-08-16T10:34:01Z</time>
      </trkpt>
      <trkpt lat="47.66541" lon="7.19415">
        <ele>270.6</ele>
        <time>2019-08-16T10:34:02Z</time>
      </trkpt>
      <trkpt lat="47.66541" lon="7.1941">
        <ele>270.6</ele>
        <time>2019-08-16T10:34:03Z</time>
      </trkpt>
      <trkpt lat="47.66542" lon="7.19403">
        <ele>270.6</ele>
        <time>2019-08-16T10:34:04Z</time>
      </trkpt>
      <trkpt lat="47.66543" lon="7.19397">
        <ele>270.6</ele>
        <time>2019-08-16T10:34:05Z</time>
      </trkpt>
      <trkpt lat="47.66544" lon="7.1939">
        <ele>270.6</ele>
        <time>2019-08-16T10:34:06Z</time>
      </trkpt>
      <trkpt lat="47.66545" lon="7.19383">
        <ele>270.6</ele>
        <time>2019-08-16T10:34:07Z</time>
      </trkpt>
      <trkpt lat="47.66545" lon="7.19376">
        <ele>270.6</ele>
        <time>2019-08-16T10:34:08Z</time>
      </trkpt>
      <trkpt lat="47.66546" lon="7.19369">
        <ele>270.6</ele>
        <time>2019-08-16T10:34:09Z</time>
      </trkpt>
      <trkpt lat="47.66547" lon="7.19362">
        <ele>270.6</ele>
        <time>2019-08-16T10:34:10Z</time>
      </trkpt>
      <trkpt lat="47.66547" lon="7.19355">
        <ele>270.6</ele>
        <time>2019-08-16T10:34:11Z</time>
      </trkpt>
      <trkpt lat="47.66548" lon="7.19349">
        <ele>270.6</ele>
        <time>2019-08-16T10:34:12Z</time>
      </trkpt>
      <trkpt lat="47.66549" lon="7.19341">
        <ele>270.6</ele>
        <time>2019-08-16T10:34:13Z</time>
      </trkpt>
      <trkpt lat="47.6655" lon="7.19335">
        <ele>270.6</ele>
        <time>2019-08-16T10:34:14Z</time>
      </trkpt>
      <trkpt lat="47.66551" lon="7.19328">
        <ele>270.6</ele>
        <time>2019-08-16T10:34:15Z</time>
      </trkpt>
      <trkpt lat="47.66552" lon="7.19321">
        <ele>270.6</ele>
        <time>2019-08-16T10:34:16Z</time>
      </trkpt>
      <trkpt lat="47.66553" lon="7.19315">
        <ele>270.7</ele>
        <time>2019-08-16T10:34:17Z</time>
      </trkpt>
      <trkpt lat="47.66554" lon="7.19308">
        <ele>270.7</ele>
        <time>2019-08-16T10:34:18Z</time>
      </trkpt>
      <trkpt lat="47.66554" lon="7.19302">
        <ele>270.7</ele>
        <time>2019-08-16T10:34:19Z</time>
      </trkpt>
      <trkpt lat="47.66555" lon="7.19296">
        <ele>270.7</ele>
        <time>2019-08-16T10:34:20Z</time>
      </trkpt>
      <trkpt lat="47.66556" lon="7.1929">
        <ele>270.7</ele>
        <time>2019-08-16T10:34:21Z</time>
      </trkpt>
      <trkpt lat="47.66557" lon="7.19284">
        <ele>270.7</ele>
        <time>2019-08-16T10:34:22Z</time>
      </trkpt>
      <trkpt lat="47.66557" lon="7.19278">
        <ele>270.7</ele>
        <time>2019-08-16T10:34:23Z</time>
      </trkpt>
      <trkpt lat="47.66558" lon="7.19272">
        <ele>270.7</ele>
        <time>2019-08-16T10:34:24Z</time>
      </trkpt>
      <trkpt lat="47.66558" lon="7.19266">
        <ele>270.7</ele>
        <time>2019-08-16T10:34:25Z</time>
      </trkpt>
      <trkpt lat="47.66559" lon="7.1926">
        <ele>270.7</ele>
        <time>2019-08-16T10:34:26Z</time>
      </trkpt>
      <trkpt lat="47.6656" lon="7.19254">
        <ele>270.7</ele>
        <time>2019-08-16T10:34:27Z</time>
      </trkpt>
      <trkpt lat="47.6656" lon="7.19249">
        <ele>270.7</ele>
        <time>2019-08-16T10:34:28Z</time>
      </trkpt>
      <trkpt lat="47.66561" lon="7.19243">
        <ele>270.7</ele>
        <time>2019-08-16T10:34:29Z</time>
      </trkpt>
      <trkpt lat="47.66562" lon="7.19237">
        <ele>270.7</ele>
        <time>2019-08-16T10:34:30Z</time>
      </trkpt>
      <trkpt lat="47.66563" lon="7.19231">
        <ele>270.7</ele>
        <time>2019-08-16T10:34:31Z</time>
      </trkpt>
      <trkpt lat="47.66563" lon="7.19224">
        <ele>270.7</ele>
        <time>2019-08-16T10:34:32Z</time>
      </trkpt>
      <trkpt lat="47.66563" lon="7.19218">
        <ele>270.7</ele>
        <time>2019-08-16T10:34:33Z</time>
      </trkpt>
      <trkpt lat="47.66563" lon="7.19211">
        <ele>270.7</ele>
        <time>2019-08-16T10:34:34Z</time>
      </trkpt>
      <trkpt lat="47.66565" lon="7.19205">
        <ele>270.7</ele>
        <time>2019-08-16T10:34:35Z</time>
      </trkpt>
      <trkpt lat="47.66565" lon="7.19199">
        <ele>270.7</ele>
        <time>2019-08-16T10:34:36Z</time>
      </trkpt>
      <trkpt lat="47.66567" lon="7.19193">
        <ele>270.7</ele>
        <time>2019-08-16T10:34:37Z</time>
      </trkpt>
      <trkpt lat="47.66567" lon="7.19187">
        <ele>270.7</ele>
        <time>2019-08-16T10:34:38Z</time>
      </trkpt>
      <trkpt lat="47.66568" lon="7.19181">
        <ele>270.7</ele>
        <time>2019-08-16T10:34:39Z</time>
      </trkpt>
      <trkpt lat="47.66568" lon="7.19175">
        <ele>270.7</ele>
        <time>2019-08-16T10:34:40Z</time>
      </trkpt>
      <trkpt lat="47.66569" lon="7.19169">
        <ele>270.7</ele>
        <time>2019-08-16T10:34:41Z</time>
      </trkpt>
      <trkpt lat="47.66569" lon="7.19162">
        <ele>270.8</ele>
        <time>2019-08-16T10:34:42Z</time>
      </trkpt>
      <trkpt lat="47.6657" lon="7.19156">
        <ele>270.8</ele>
        <time>2019-08-16T10:34:43Z</time>
      </trkpt>
      <trkpt lat="47.66571" lon="7.19149">
        <ele>270.8</ele>
        <time>2019-08-16T10:34:44Z</time>
      </trkpt>
      <trkpt lat="47.66572" lon="7.19142">
        <ele>270.8</ele>
        <time>2019-08-16T10:34:45Z</time>
      </trkpt>
      <trkpt lat="47.66572" lon="7.19136">
        <ele>270.8</ele>
        <time>2019-08-16T10:34:46Z</time>
      </trkpt>
      <trkpt lat="47.66573" lon="7.19129">
        <ele>270.8</ele>
        <time>2019-08-16T10:34:47Z</time>
      </trkpt>
      <trkpt lat="47.66574" lon="7.19123">
        <ele>270.8</ele>
        <time>2019-08-16T10:34:48Z</time>
      </trkpt>
      <trkpt lat="47.66574" lon="7.19115">
        <ele>270.8</ele>
        <time>2019-08-16T10:34:49Z</time>
      </trkpt>
      <trkpt lat="47.66574" lon="7.19108">
        <ele>270.8</ele>
        <time>2019-08-16T10:34:50Z</time>
      </trkpt>
      <trkpt lat="47.66574" lon="7.191">
        <ele>270.8</ele>
        <time>2019-08-16T10:34:51Z</time>
      </trkpt>
      <trkpt lat="47.66573" lon="7.19093">
        <ele>270.8</ele>
        <time>2019-08-16T10:34:52Z</time>
      </trkpt>
      <trkpt lat="47.66573" lon="7.19085">
        <ele>270.8</ele>
        <time>2019-08-16T10:34:53Z</time>
      </trkpt>
      <trkpt lat="47.66572" lon="7.19078">
        <ele>270.8</ele>
        <time>2019-08-16T10:34:54Z</time>
      </trkpt>
      <trkpt lat="47.66572" lon="7.1907">
        <ele>270.8</ele>
        <time>2019-08-16T10:34:55Z</time>
      </trkpt>
      <trkpt lat="47.66571" lon="7.19062">
        <ele>270.8</ele>
        <time>2019-08-16T10:34:56Z</time>
      </trkpt>
      <trkpt lat="47.66571" lon="7.19055">
        <ele>270.8</ele>
        <time>2019-08-16T10:34:57Z</time>
      </trkpt>
      <trkpt lat="47.66571" lon="7.19048">
        <ele>270.8</ele>
        <time>2019-08-16T10:34:58Z</time>
      </trkpt>
      <trkpt lat="47.66571" lon="7.19041">
        <ele>270.8</ele>
        <time>2019-08-16T10:34:59Z</time>
      </trkpt>
      <trkpt lat="47.66571" lon="7.19034">
        <ele>270.8</ele>
        <time>2019-08-16T10:35:00Z</time>
      </trkpt>
      <trkpt lat="47.66571" lon="7.19027">
        <ele>270.8</ele>
        <time>2019-08-16T10:35:01Z</time>
      </trkpt>
      <trkpt lat="47.66572" lon="7.19021">
        <ele>270.8</ele>
        <time>2019-08-16T10:35:02Z</time>
      </trkpt>
      <trkpt lat="47.66572" lon="7.19014">
        <ele>270.9</ele>
        <time>2019-08-16T10:35:03Z</time>
      </trkpt>
      <trkpt lat="47.66573" lon="7.19007">
        <ele>270.9</ele>
        <time>2019-08-16T10:35:04Z</time>
      </trkpt>
      <trkpt lat="47.66573" lon="7.19">
        <ele>270.9</ele>
        <time>2019-08-16T10:35:05Z</time>
      </trkpt>
      <trkpt lat="47.66573" lon="7.18993">
        <ele>270.9</ele>
        <time>2019-08-16T10:35:06Z</time>
      </trkpt>
      <trkpt lat="47.66573" lon="7.18986">
        <ele>270.9</ele>
        <time>2019-08-16T10:35:07Z</time>
      </trkpt>
      <trkpt lat="47.66573" lon="7.18979">
        <ele>270.9</ele>
        <time>2019-08-16T10:35:08Z</time>
      </trkpt>
      <trkpt lat="47.66573" lon="7.18972">
        <ele>270.9</ele>
        <time>2019-08-16T10:35:09Z</time>
      </trkpt>
      <trkpt lat="47.66574" lon="7.18965">
        <ele>271.1</ele>
        <time>2019-08-16T10:35:10Z</time>
      </trkpt>
      <trkpt lat="47.66574" lon="7.18958">
        <ele>271.1</ele>
        <time>2019-08-16T10:35:11Z</time>
      </trkpt>
      <trkpt lat="47.66574" lon="7.18951">
        <ele>271</ele>
        <time>2019-08-16T10:35:12Z</time>
      </trkpt>
      <trkpt lat="47.66574" lon="7.18944">
        <ele>271</ele>
        <time>2019-08-16T10:35:13Z</time>
      </trkpt>
      <trkpt lat="47.66574" lon="7.18937">
        <ele>271</ele>
        <time>2019-08-16T10:35:14Z</time>
      </trkpt>
      <trkpt lat="47.66574" lon="7.1893">
        <ele>270.9</ele>
        <time>2019-08-16T10:35:15Z</time>
      </trkpt>
      <trkpt lat="47.66574" lon="7.18924">
        <ele>270.9</ele>
        <time>2019-08-16T10:35:16Z</time>
      </trkpt>
      <trkpt lat="47.66574" lon="7.18917">
        <ele>270.9</ele>
        <time>2019-08-16T10:35:17Z</time>
      </trkpt>
      <trkpt lat="47.66574" lon="7.1891">
        <ele>270.9</ele>
        <time>2019-08-16T10:35:18Z</time>
      </trkpt>
      <trkpt lat="47.66575" lon="7.18903">
        <ele>270.9</ele>
        <time>2019-08-16T10:35:19Z</time>
      </trkpt>
      <trkpt lat="47.66575" lon="7.18896">
        <ele>271</ele>
        <time>2019-08-16T10:35:20Z</time>
      </trkpt>
      <trkpt lat="47.66575" lon="7.1889">
        <ele>271</ele>
        <time>2019-08-16T10:35:21Z</time>
      </trkpt>
      <trkpt lat="47.66576" lon="7.18883">
        <ele>271</ele>
        <time>2019-08-16T10:35:22Z</time>
      </trkpt>
      <trkpt lat="47.66577" lon="7.18876">
        <ele>271.1</ele>
        <time>2019-08-16T10:35:23Z</time>
      </trkpt>
      <trkpt lat="47.66578" lon="7.18869">
        <ele>271.1</ele>
        <time>2019-08-16T10:35:24Z</time>
      </trkpt>
      <trkpt lat="47.66579" lon="7.18862">
        <ele>271.1</ele>
        <time>2019-08-16T10:35:25Z</time>
      </trkpt>
      <trkpt lat="47.6658" lon="7.18855">
        <ele>271.2</ele>
        <time>2019-08-16T10:35:26Z</time>
      </trkpt>
      <trkpt lat="47.6658" lon="7.18848">
        <ele>271.2</ele>
        <time>2019-08-16T10:35:27Z</time>
      </trkpt>
      <trkpt lat="47.6658" lon="7.18842">
        <ele>271.2</ele>
        <time>2019-08-16T10:35:28Z</time>
      </trkpt>
      <trkpt lat="47.66581" lon="7.18836">
        <ele>271.3</ele>
        <time>2019-08-16T10:35:29Z</time>
      </trkpt>
      <trkpt lat="47.66581" lon="7.18829">
        <ele>271.3</ele>
        <time>2019-08-16T10:35:30Z</time>
      </trkpt>
      <trkpt lat="47.66581" lon="7.18823">
        <ele>271.3</ele>
        <time>2019-08-16T10:35:31Z</time>
      </trkpt>
      <trkpt lat="47.66582" lon="7.18816">
        <ele>271.3</ele>
        <time>2019-08-16T10:35:32Z</time>
      </trkpt>
      <trkpt lat="47.66582" lon="7.18809">
        <ele>271.3</ele>
        <time>2019-08-16T10:35:33Z</time>
      </trkpt>
      <trkpt lat="47.66582" lon="7.18802">
        <ele>271.4</ele>
        <time>2019-08-16T10:35:34Z</time>
      </trkpt>
      <trkpt lat="47.66582" lon="7.18795">
        <ele>271.4</ele>
        <time>2019-08-16T10:35:35Z</time>
      </trkpt>
      <trkpt lat="47.66583" lon="7.18788">
        <ele>271.4</ele>
        <time>2019-08-16T10:35:36Z</time>
      </trkpt>
      <trkpt lat="47.66583" lon="7.18782">
        <ele>271.5</ele>
        <time>2019-08-16T10:35:37Z</time>
      </trkpt>
      <trkpt lat="47.66584" lon="7.18775">
        <ele>271.5</ele>
        <time>2019-08-16T10:35:38Z</time>
      </trkpt>
      <trkpt lat="47.66584" lon="7.18768">
        <ele>271.4</ele>
        <time>2019-08-16T10:35:39Z</time>
      </trkpt>
      <trkpt lat="47.66585" lon="7.18761">
        <ele>271.4</ele>
        <time>2019-08-16T10:35:40Z</time>
      </trkpt>
      <trkpt lat="47.66585" lon="7.18753">
        <ele>271.4</ele>
        <time>2019-08-16T10:35:41Z</time>
      </trkpt>
      <trkpt lat="47.66584" lon="7.18745">
        <ele>271.3</ele>
        <time>2019-08-16T10:35:42Z</time>
      </trkpt>
      <trkpt lat="47.66583" lon="7.18737">
        <ele>271.2</ele>
        <time>2019-08-16T10:35:43Z</time>
      </trkpt>
      <trkpt lat="47.66583" lon="7.1873">
        <ele>271.1</ele>
        <time>2019-08-16T10:35:44Z</time>
      </trkpt>
      <trkpt lat="47.66583" lon="7.18723">
        <ele>271</ele>
        <time>2019-08-16T10:35:45Z</time>
      </trkpt>
      <trkpt lat="47.66583" lon="7.18717">
        <ele>270.9</ele>
        <time>2019-08-16T10:35:46Z</time>
      </trkpt>
      <trkpt lat="47.66583" lon="7.1871">
        <ele>270.8</ele>
        <time>2019-08-16T10:35:47Z</time>
      </trkpt>
      <trkpt lat="47.66583" lon="7.18703">
        <ele>270.7</ele>
        <time>2019-08-16T10:35:48Z</time>
      </trkpt>
      <trkpt lat="47.66583" lon="7.18696">
        <ele>270.7</ele>
        <time>2019-08-16T10:35:49Z</time>
      </trkpt>
      <trkpt lat="47.66583" lon="7.18689">
        <ele>270.6</ele>
        <time>2019-08-16T10:35:50Z</time>
      </trkpt>
      <trkpt lat="47.66583" lon="7.18682">
        <ele>270.6</ele>
        <time>2019-08-16T10:35:51Z</time>
      </trkpt>
      <trkpt lat="47.66584" lon="7.18676">
        <ele>270.6</ele>
        <time>2019-08-16T10:35:52Z</time>
      </trkpt>
      <trkpt lat="47.66584" lon="7.18669">
        <ele>270.6</ele>
        <time>2019-08-16T10:35:53Z</time>
      </trkpt>
      <trkpt lat="47.66585" lon="7.18663">
        <ele>270.6</ele>
        <time>2019-08-16T10:35:54Z</time>
      </trkpt>
      <trkpt lat="47.66586" lon="7.18655">
        <ele>270.6</ele>
        <time>2019-08-16T10:35:55Z</time>
      </trkpt>
      <trkpt lat="47.66587" lon="7.18648">
        <ele>270.7</ele>
        <time>2019-08-16T10:35:56Z</time>
      </trkpt>
      <trkpt lat="47.66587" lon="7.18641">
        <ele>270.7</ele>
        <time>2019-08-16T10:35:57Z</time>
      </trkpt>
      <trkpt lat="47.66589" lon="7.18634">
        <ele>270.8</ele>
        <time>2019-08-16T10:35:58Z</time>
      </trkpt>
      <trkpt lat="47.6659" lon="7.18627">
        <ele>270.9</ele>
        <time>2019-08-16T10:35:59Z</time>
      </trkpt>
      <trkpt lat="47.6659" lon="7.18619">
        <ele>270.9</ele>
        <time>2019-08-16T10:36:00Z</time>
      </trkpt>
      <trkpt lat="47.6659" lon="7.18613">
        <ele>271</ele>
        <time>2019-08-16T10:36:01Z</time>
      </trkpt>
      <trkpt lat="47.66591" lon="7.18606">
        <ele>271.1</ele>
        <time>2019-08-16T10:36:02Z</time>
      </trkpt>
      <trkpt lat="47.66591" lon="7.18599">
        <ele>271.2</ele>
        <time>2019-08-16T10:36:03Z</time>
      </trkpt>
      <trkpt lat="47.66591" lon="7.18591">
        <ele>271.1</ele>
        <time>2019-08-16T10:36:04Z</time>
      </trkpt>
      <trkpt lat="47.66591" lon="7.18583">
        <ele>270.9</ele>
        <time>2019-08-16T10:36:05Z</time>
      </trkpt>
      <trkpt lat="47.66592" lon="7.18577">
        <ele>270.9</ele>
        <time>2019-08-16T10:36:06Z</time>
      </trkpt>
      <trkpt lat="47.66593" lon="7.1857">
        <ele>270.8</ele>
        <time>2019-08-16T10:36:07Z</time>
      </trkpt>
      <trkpt lat="47.66594" lon="7.18563">
        <ele>270.6</ele>
        <time>2019-08-16T10:36:08Z</time>
      </trkpt>
      <trkpt lat="47.66595" lon="7.18556">
        <ele>270.7</ele>
        <time>2019-08-16T10:36:09Z</time>
      </trkpt>
      <trkpt lat="47.66595" lon="7.1855">
        <ele>270.7</ele>
        <time>2019-08-16T10:36:10Z</time>
      </trkpt>
      <trkpt lat="47.66595" lon="7.18543">
        <ele>270.7</ele>
        <time>2019-08-16T10:36:11Z</time>
      </trkpt>
      <trkpt lat="47.66595" lon="7.18536">
        <ele>270.7</ele>
        <time>2019-08-16T10:36:12Z</time>
      </trkpt>
      <trkpt lat="47.66595" lon="7.18529">
        <ele>270.7</ele>
        <time>2019-08-16T10:36:13Z</time>
      </trkpt>
      <trkpt lat="47.66595" lon="7.18522">
        <ele>270.7</ele>
        <time>2019-08-16T10:36:14Z</time>
      </trkpt>
      <trkpt lat="47.66595" lon="7.18515">
        <ele>270.7</ele>
        <time>2019-08-16T10:36:15Z</time>
      </trkpt>
      <trkpt lat="47.66596" lon="7.18508">
        <ele>270.7</ele>
        <time>2019-08-16T10:36:16Z</time>
      </trkpt>
      <trkpt lat="47.66596" lon="7.18501">
        <ele>270.7</ele>
        <time>2019-08-16T10:36:17Z</time>
      </trkpt>
      <trkpt lat="47.66596" lon="7.18495">
        <ele>270.7</ele>
        <time>2019-08-16T10:36:18Z</time>
      </trkpt>
      <trkpt lat="47.66596" lon="7.18489">
        <ele>270.7</ele>
        <time>2019-08-16T10:36:19Z</time>
      </trkpt>
      <trkpt lat="47.66596" lon="7.18483">
        <ele>270.7</ele>
        <time>2019-08-16T10:36:20Z</time>
      </trkpt>
      <trkpt lat="47.66596" lon="7.18476">
        <ele>270.7</ele>
        <time>2019-08-16T10:36:21Z</time>
      </trkpt>
      <trkpt lat="47.66596" lon="7.18468">
        <ele>270.7</ele>
        <time>2019-08-16T10:36:22Z</time>
      </trkpt>
      <trkpt lat="47.66596" lon="7.18461">
        <ele>270.8</ele>
        <time>2019-08-16T10:36:23Z</time>
      </trkpt>
      <trkpt lat="47.66596" lon="7.18453">
        <ele>270.8</ele>
        <time>2019-08-16T10:36:24Z</time>
      </trkpt>
      <trkpt lat="47.66596" lon="7.18447">
        <ele>270.8</ele>
        <time>2019-08-16T10:36:25Z</time>
      </trkpt>
      <trkpt lat="47.66596" lon="7.1844">
        <ele>270.8</ele>
        <time>2019-08-16T10:36:26Z</time>
      </trkpt>
      <trkpt lat="47.66596" lon="7.18432">
        <ele>270.8</ele>
        <time>2019-08-16T10:36:27Z</time>
      </trkpt>
      <trkpt lat="47.66597" lon="7.18425">
        <ele>270.8</ele>
        <time>2019-08-16T10:36:28Z</time>
      </trkpt>
      <trkpt lat="47.66597" lon="7.18417">
        <ele>270.8</ele>
        <time>2019-08-16T10:36:29Z</time>
      </trkpt>
      <trkpt lat="47.66597" lon="7.1841">
        <ele>270.8</ele>
        <time>2019-08-16T10:36:30Z</time>
      </trkpt>
      <trkpt lat="47.66597" lon="7.18402">
        <ele>270.7</ele>
        <time>2019-08-16T10:36:31Z</time>
      </trkpt>
      <trkpt lat="47.66597" lon="7.18395">
        <ele>270.7</ele>
        <time>2019-08-16T10:36:32Z</time>
      </trkpt>
      <trkpt lat="47.66598" lon="7.18388">
        <ele>270.6</ele>
        <time>2019-08-16T10:36:33Z</time>
      </trkpt>
      <trkpt lat="47.66599" lon="7.18382">
        <ele>270.6</ele>
        <time>2019-08-16T10:36:34Z</time>
      </trkpt>
      <trkpt lat="47.66599" lon="7.18375">
        <ele>270.5</ele>
        <time>2019-08-16T10:36:35Z</time>
      </trkpt>
      <trkpt lat="47.66599" lon="7.18368">
        <ele>270.5</ele>
        <time>2019-08-16T10:36:36Z</time>
      </trkpt>
      <trkpt lat="47.666" lon="7.18361">
        <ele>270.5</ele>
        <time>2019-08-16T10:36:37Z</time>
      </trkpt>
      <trkpt lat="47.666" lon="7.18355">
        <ele>270.4</ele>
        <time>2019-08-16T10:36:38Z</time>
      </trkpt>
      <trkpt lat="47.666" lon="7.18349">
        <ele>270.4</ele>
        <time>2019-08-16T10:36:39Z</time>
      </trkpt>
      <trkpt lat="47.66601" lon="7.18341">
        <ele>270.3</ele>
        <time>2019-08-16T10:36:40Z</time>
      </trkpt>
      <trkpt lat="47.66601" lon="7.18333">
        <ele>270.3</ele>
        <time>2019-08-16T10:36:41Z</time>
      </trkpt>
      <trkpt lat="47.66601" lon="7.18326">
        <ele>270.3</ele>
        <time>2019-08-16T10:36:42Z</time>
      </trkpt>
      <trkpt lat="47.66601" lon="7.18319">
        <ele>270.3</ele>
        <time>2019-08-16T10:36:43Z</time>
      </trkpt>
      <trkpt lat="47.666" lon="7.18312">
        <ele>270.3</ele>
        <time>2019-08-16T10:36:44Z</time>
      </trkpt>
      <trkpt lat="47.666" lon="7.18304">
        <ele>270.4</ele>
        <time>2019-08-16T10:36:45Z</time>
      </trkpt>
      <trkpt lat="47.666" lon="7.18297">
        <ele>270.4</ele>
        <time>2019-08-16T10:36:46Z</time>
      </trkpt>
      <trkpt lat="47.666" lon="7.1829">
        <ele>270.4</ele>
        <time>2019-08-16T10:36:47Z</time>
      </trkpt>
      <trkpt lat="47.666" lon="7.18283">
        <ele>270.4</ele>
        <time>2019-08-16T10:36:48Z</time>
      </trkpt>
      <trkpt lat="47.66599" lon="7.18276">
        <ele>270.5</ele>
        <time>2019-08-16T10:36:49Z</time>
      </trkpt>
      <trkpt lat="47.66598" lon="7.18269">
        <ele>270.5</ele>
        <time>2019-08-16T10:36:50Z</time>
      </trkpt>
      <trkpt lat="47.66598" lon="7.18263">
        <ele>270.5</ele>
        <time>2019-08-16T10:36:51Z</time>
      </trkpt>
      <trkpt lat="47.66598" lon="7.18257">
        <ele>270.6</ele>
        <time>2019-08-16T10:36:52Z</time>
      </trkpt>
      <trkpt lat="47.66597" lon="7.1825">
        <ele>270.6</ele>
        <time>2019-08-16T10:36:53Z</time>
      </trkpt>
      <trkpt lat="47.66596" lon="7.18243">
        <ele>270.7</ele>
        <time>2019-08-16T10:36:54Z</time>
      </trkpt>
      <trkpt lat="47.66596" lon="7.18237">
        <ele>270.8</ele>
        <time>2019-08-16T10:36:55Z</time>
      </trkpt>
      <trkpt lat="47.66595" lon="7.18232">
        <ele>270.9</ele>
        <time>2019-08-16T10:36:56Z</time>
      </trkpt>
      <trkpt lat="47.66594" lon="7.18227">
        <ele>271</ele>
        <time>2019-08-16T10:36:57Z</time>
      </trkpt>
      <trkpt lat="47.66594" lon="7.18222">
        <ele>271.1</ele>
        <time>2019-08-16T10:36:58Z</time>
      </trkpt>
      <trkpt lat="47.66594" lon="7.18214">
        <ele>271.3</ele>
        <time>2019-08-16T10:37:00Z</time>
      </trkpt>
      <trkpt lat="47.66594" lon="7.1821">
        <ele>271.4</ele>
        <time>2019-08-16T10:37:01Z</time>
      </trkpt>
      <trkpt lat="47.66594" lon="7.18203">
        <ele>271.6</ele>
        <time>2019-08-16T10:37:03Z</time>
      </trkpt>
      <trkpt lat="47.66594" lon="7.18199">
        <ele>271.7</ele>
        <time>2019-08-16T10:37:04Z</time>
      </trkpt>
      <trkpt lat="47.66594" lon="7.18194">
        <ele>271.8</ele>
        <time>2019-08-16T10:37:05Z</time>
      </trkpt>
      <trkpt lat="47.66594" lon="7.18189">
        <ele>271.8</ele>
        <time>2019-08-16T10:37:06Z</time>
      </trkpt>
      <trkpt lat="47.66594" lon="7.18182">
        <ele>271.7</ele>
        <time>2019-08-16T10:37:07Z</time>
      </trkpt>
      <trkpt lat="47.66594" lon="7.18174">
        <ele>271.5</ele>
        <time>2019-08-16T10:37:08Z</time>
      </trkpt>
      <trkpt lat="47.66595" lon="7.18167">
        <ele>271.3</ele>
        <time>2019-08-16T10:37:09Z</time>
      </trkpt>
      <trkpt lat="47.66595" lon="7.1816">
        <ele>271.1</ele>
        <time>2019-08-16T10:37:10Z</time>
      </trkpt>
      <trkpt lat="47.66594" lon="7.18152">
        <ele>271</ele>
        <time>2019-08-16T10:37:11Z</time>
      </trkpt>
      <trkpt lat="47.66593" lon="7.18145">
        <ele>271</ele>
        <time>2019-08-16T10:37:12Z</time>
      </trkpt>
      <trkpt lat="47.66591" lon="7.18138">
        <ele>271</ele>
        <time>2019-08-16T10:37:13Z</time>
      </trkpt>
      <trkpt lat="47.66589" lon="7.18133">
        <ele>271.1</ele>
        <time>2019-08-16T10:37:14Z</time>
      </trkpt>
      <trkpt lat="47.66588" lon="7.18128">
        <ele>271.1</ele>
        <time>2019-08-16T10:37:15Z</time>
      </trkpt>
      <trkpt lat="47.66587" lon="7.18122">
        <ele>271.2</ele>
        <time>2019-08-16T10:37:16Z</time>
      </trkpt>
      <trkpt lat="47.66586" lon="7.18117">
        <ele>271.3</ele>
        <time>2019-08-16T10:37:17Z</time>
      </trkpt>
      <trkpt lat="47.66584" lon="7.18112">
        <ele>271.5</ele>
        <time>2019-08-16T10:37:18Z</time>
      </trkpt>
      <trkpt lat="47.66583" lon="7.18107">
        <ele>271.6</ele>
        <time>2019-08-16T10:37:19Z</time>
      </trkpt>
      <trkpt lat="47.66581" lon="7.18101">
        <ele>271.8</ele>
        <time>2019-08-16T10:37:20Z</time>
      </trkpt>
      <trkpt lat="47.6658" lon="7.18095">
        <ele>271.9</ele>
        <time>2019-08-16T10:37:21Z</time>
      </trkpt>
      <trkpt lat="47.66579" lon="7.18089">
        <ele>272.1</ele>
        <time>2019-08-16T10:37:22Z</time>
      </trkpt>
      <trkpt lat="47.66578" lon="7.18083">
        <ele>272.2</ele>
        <time>2019-08-16T10:37:23Z</time>
      </trkpt>
      <trkpt lat="47.66577" lon="7.18078">
        <ele>272.3</ele>
        <time>2019-08-16T10:37:24Z</time>
      </trkpt>
      <trkpt lat="47.66574" lon="7.18073">
        <ele>272.3</ele>
        <time>2019-08-16T10:37:25Z</time>
      </trkpt>
      <trkpt lat="47.66572" lon="7.18068">
        <ele>272.4</ele>
        <time>2019-08-16T10:37:26Z</time>
      </trkpt>
      <trkpt lat="47.6657" lon="7.18063">
        <ele>272.4</ele>
        <time>2019-08-16T10:37:27Z</time>
      </trkpt>
      <trkpt lat="47.66569" lon="7.18058">
        <ele>272.5</ele>
        <time>2019-08-16T10:37:28Z</time>
      </trkpt>
      <trkpt lat="47.66569" lon="7.18054">
        <ele>272.5</ele>
        <time>2019-08-16T10:37:29Z</time>
      </trkpt>
      <trkpt lat="47.66568" lon="7.18049">
        <ele>272.5</ele>
        <time>2019-08-16T10:37:30Z</time>
      </trkpt>
      <trkpt lat="47.66567" lon="7.18043">
        <ele>272.5</ele>
        <time>2019-08-16T10:37:31Z</time>
      </trkpt>
      <trkpt lat="47.66566" lon="7.18037">
        <ele>272.5</ele>
        <time>2019-08-16T10:37:32Z</time>
      </trkpt>
      <trkpt lat="47.66565" lon="7.18031">
        <ele>272.5</ele>
        <time>2019-08-16T10:37:33Z</time>
      </trkpt>
      <trkpt lat="47.66563" lon="7.18025">
        <ele>272.5</ele>
        <time>2019-08-16T10:37:34Z</time>
      </trkpt>
      <trkpt lat="47.66562" lon="7.18019">
        <ele>272.6</ele>
        <time>2019-08-16T10:37:35Z</time>
      </trkpt>
      <trkpt lat="47.66561" lon="7.18012">
        <ele>272.6</ele>
        <time>2019-08-16T10:37:36Z</time>
      </trkpt>
      <trkpt lat="47.66559" lon="7.18005">
        <ele>272.6</ele>
        <time>2019-08-16T10:37:37Z</time>
      </trkpt>
      <trkpt lat="47.66558" lon="7.17998">
        <ele>272.7</ele>
        <time>2019-08-16T10:37:38Z</time>
      </trkpt>
      <trkpt lat="47.66557" lon="7.17991">
        <ele>272.7</ele>
        <time>2019-08-16T10:37:39Z</time>
      </trkpt>
      <trkpt lat="47.66556" lon="7.17983">
        <ele>272.7</ele>
        <time>2019-08-16T10:37:40Z</time>
      </trkpt>
      <trkpt lat="47.66555" lon="7.17976">
        <ele>272.8</ele>
        <time>2019-08-16T10:37:41Z</time>
      </trkpt>
      <trkpt lat="47.66554" lon="7.17969">
        <ele>272.8</ele>
        <time>2019-08-16T10:37:42Z</time>
      </trkpt>
      <trkpt lat="47.66553" lon="7.17962">
        <ele>272.8</ele>
        <time>2019-08-16T10:37:43Z</time>
      </trkpt>
      <trkpt lat="47.66552" lon="7.17956">
        <ele>272.7</ele>
        <time>2019-08-16T10:37:44Z</time>
      </trkpt>
      <trkpt lat="47.66551" lon="7.1795">
        <ele>272.7</ele>
        <time>2019-08-16T10:37:45Z</time>
      </trkpt>
      <trkpt lat="47.6655" lon="7.17944">
        <ele>272.7</ele>
        <time>2019-08-16T10:37:46Z</time>
      </trkpt>
      <trkpt lat="47.66548" lon="7.17939">
        <ele>272.7</ele>
        <time>2019-08-16T10:37:47Z</time>
      </trkpt>
      <trkpt lat="47.66546" lon="7.17933">
        <ele>272.7</ele>
        <time>2019-08-16T10:37:48Z</time>
      </trkpt>
      <trkpt lat="47.66544" lon="7.17926">
        <ele>272.7</ele>
        <time>2019-08-16T10:37:49Z</time>
      </trkpt>
      <trkpt lat="47.66543" lon="7.1792">
        <ele>272.7</ele>
        <time>2019-08-16T10:37:50Z</time>
      </trkpt>
      <trkpt lat="47.66542" lon="7.17913">
        <ele>272.8</ele>
        <time>2019-08-16T10:37:51Z</time>
      </trkpt>
      <trkpt lat="47.6654" lon="7.17906">
        <ele>272.9</ele>
        <time>2019-08-16T10:37:52Z</time>
      </trkpt>
      <trkpt lat="47.66538" lon="7.17899">
        <ele>273</ele>
        <time>2019-08-16T10:37:53Z</time>
      </trkpt>
      <trkpt lat="47.66536" lon="7.17893">
        <ele>273.1</ele>
        <time>2019-08-16T10:37:54Z</time>
      </trkpt>
      <trkpt lat="47.66535" lon="7.17887">
        <ele>273.2</ele>
        <time>2019-08-16T10:37:55Z</time>
      </trkpt>
      <trkpt lat="47.66533" lon="7.17881">
        <ele>273.3</ele>
        <time>2019-08-16T10:37:56Z</time>
      </trkpt>
      <trkpt lat="47.66532" lon="7.17875">
        <ele>273.4</ele>
        <time>2019-08-16T10:37:57Z</time>
      </trkpt>
      <trkpt lat="47.6653" lon="7.17869">
        <ele>273.5</ele>
        <time>2019-08-16T10:37:58Z</time>
      </trkpt>
      <trkpt lat="47.66528" lon="7.17863">
        <ele>273.5</ele>
        <time>2019-08-16T10:37:59Z</time>
      </trkpt>
      <trkpt lat="47.66527" lon="7.17856">
        <ele>273.6</ele>
        <time>2019-08-16T10:38:00Z</time>
      </trkpt>
      <trkpt lat="47.66525" lon="7.17849">
        <ele>273.6</ele>
        <time>2019-08-16T10:38:01Z</time>
      </trkpt>
      <trkpt lat="47.66523" lon="7.17842">
        <ele>273.6</ele>
        <time>2019-08-16T10:38:02Z</time>
      </trkpt>
      <trkpt lat="47.66521" lon="7.17836">
        <ele>273.6</ele>
        <time>2019-08-16T10:38:03Z</time>
      </trkpt>
      <trkpt lat="47.66519" lon="7.1783">
        <ele>273.5</ele>
        <time>2019-08-16T10:38:04Z</time>
      </trkpt>
      <trkpt lat="47.66516" lon="7.17824">
        <ele>273.5</ele>
        <time>2019-08-16T10:38:05Z</time>
      </trkpt>
      <trkpt lat="47.66514" lon="7.17818">
        <ele>273.4</ele>
        <time>2019-08-16T10:38:06Z</time>
      </trkpt>
      <trkpt lat="47.66512" lon="7.17812">
        <ele>273.4</ele>
        <time>2019-08-16T10:38:07Z</time>
      </trkpt>
      <trkpt lat="47.66509" lon="7.17806">
        <ele>273.4</ele>
        <time>2019-08-16T10:38:08Z</time>
      </trkpt>
      <trkpt lat="47.66507" lon="7.178">
        <ele>273.4</ele>
        <time>2019-08-16T10:38:09Z</time>
      </trkpt>
      <trkpt lat="47.66505" lon="7.17794">
        <ele>273.4</ele>
        <time>2019-08-16T10:38:10Z</time>
      </trkpt>
      <trkpt lat="47.66503" lon="7.17787">
        <ele>273.4</ele>
        <time>2019-08-16T10:38:11Z</time>
      </trkpt>
      <trkpt lat="47.66501" lon="7.1778">
        <ele>273.5</ele>
        <time>2019-08-16T10:38:12Z</time>
      </trkpt>
      <trkpt lat="47.66499" lon="7.17773">
        <ele>273.5</ele>
        <time>2019-08-16T10:38:13Z</time>
      </trkpt>
      <trkpt lat="47.66497" lon="7.17767">
        <ele>273.6</ele>
        <time>2019-08-16T10:38:14Z</time>
      </trkpt>
      <trkpt lat="47.66495" lon="7.17761">
        <ele>273.6</ele>
        <time>2019-08-16T10:38:15Z</time>
      </trkpt>
      <trkpt lat="47.66492" lon="7.17756">
        <ele>273.7</ele>
        <time>2019-08-16T10:38:16Z</time>
      </trkpt>
      <trkpt lat="47.66491" lon="7.17751">
        <ele>273.7</ele>
        <time>2019-08-16T10:38:17Z</time>
      </trkpt>
      <trkpt lat="47.66488" lon="7.17745">
        <ele>273.8</ele>
        <time>2019-08-16T10:38:18Z</time>
      </trkpt>
      <trkpt lat="47.66486" lon="7.1774">
        <ele>273.8</ele>
        <time>2019-08-16T10:38:19Z</time>
      </trkpt>
      <trkpt lat="47.66484" lon="7.17735">
        <ele>273.8</ele>
        <time>2019-08-16T10:38:20Z</time>
      </trkpt>
      <trkpt lat="47.66482" lon="7.17729">
        <ele>273.8</ele>
        <time>2019-08-16T10:38:21Z</time>
      </trkpt>
      <trkpt lat="47.6648" lon="7.17723">
        <ele>273.9</ele>
        <time>2019-08-16T10:38:22Z</time>
      </trkpt>
      <trkpt lat="47.66477" lon="7.17717">
        <ele>273.9</ele>
        <time>2019-08-16T10:38:23Z</time>
      </trkpt>
      <trkpt lat="47.66475" lon="7.1771">
        <ele>273.9</ele>
        <time>2019-08-16T10:38:24Z</time>
      </trkpt>
      <trkpt lat="47.66472" lon="7.17704">
        <ele>273.9</ele>
        <time>2019-08-16T10:38:25Z</time>
      </trkpt>
      <trkpt lat="47.66469" lon="7.17698">
        <ele>273.9</ele>
        <time>2019-08-16T10:38:26Z</time>
      </trkpt>
      <trkpt lat="47.66467" lon="7.17693">
        <ele>273.9</ele>
        <time>2019-08-16T10:38:27Z</time>
      </trkpt>
      <trkpt lat="47.66465" lon="7.17687">
        <ele>274</ele>
        <time>2019-08-16T10:38:28Z</time>
      </trkpt>
      <trkpt lat="47.66462" lon="7.17681">
        <ele>274</ele>
        <time>2019-08-16T10:38:29Z</time>
      </trkpt>
      <trkpt lat="47.6646" lon="7.17675">
        <ele>274.1</ele>
        <time>2019-08-16T10:38:30Z</time>
      </trkpt>
      <trkpt lat="47.66457" lon="7.17669">
        <ele>274.2</ele>
        <time>2019-08-16T10:38:31Z</time>
      </trkpt>
      <trkpt lat="47.66455" lon="7.17664">
        <ele>274.2</ele>
        <time>2019-08-16T10:38:32Z</time>
      </trkpt>
      <trkpt lat="47.66452" lon="7.17659">
        <ele>274.3</ele>
        <time>2019-08-16T10:38:33Z</time>
      </trkpt>
      <trkpt lat="47.66451" lon="7.17653">
        <ele>274.4</ele>
        <time>2019-08-16T10:38:34Z</time>
      </trkpt>
      <trkpt lat="47.66449" lon="7.17647">
        <ele>274.5</ele>
        <time>2019-08-16T10:38:35Z</time>
      </trkpt>
      <trkpt lat="47.66446" lon="7.17641">
        <ele>274.7</ele>
        <time>2019-08-16T10:38:36Z</time>
      </trkpt>
      <trkpt lat="47.66444" lon="7.17636">
        <ele>274.8</ele>
        <time>2019-08-16T10:38:37Z</time>
      </trkpt>
      <trkpt lat="47.66441" lon="7.17631">
        <ele>274.8</ele>
        <time>2019-08-16T10:38:38Z</time>
      </trkpt>
      <trkpt lat="47.66438" lon="7.17625">
        <ele>274.9</ele>
        <time>2019-08-16T10:38:39Z</time>
      </trkpt>
      <trkpt lat="47.66436" lon="7.1762">
        <ele>275</ele>
        <time>2019-08-16T10:38:40Z</time>
      </trkpt>
      <trkpt lat="47.66433" lon="7.17614">
        <ele>275</ele>
        <time>2019-08-16T10:38:41Z</time>
      </trkpt>
      <trkpt lat="47.6643" lon="7.17608">
        <ele>275</ele>
        <time>2019-08-16T10:38:42Z</time>
      </trkpt>
      <trkpt lat="47.66427" lon="7.17603">
        <ele>275</ele>
        <time>2019-08-16T10:38:43Z</time>
      </trkpt>
      <trkpt lat="47.66425" lon="7.17598">
        <ele>275</ele>
        <time>2019-08-16T10:38:44Z</time>
      </trkpt>
      <trkpt lat="47.66422" lon="7.17592">
        <ele>274.9</ele>
        <time>2019-08-16T10:38:45Z</time>
      </trkpt>
      <trkpt lat="47.66419" lon="7.17587">
        <ele>274.9</ele>
        <time>2019-08-16T10:38:46Z</time>
      </trkpt>
      <trkpt lat="47.66416" lon="7.17582">
        <ele>274.8</ele>
        <time>2019-08-16T10:38:47Z</time>
      </trkpt>
      <trkpt lat="47.66413" lon="7.17577">
        <ele>274.8</ele>
        <time>2019-08-16T10:38:48Z</time>
      </trkpt>
      <trkpt lat="47.6641" lon="7.17572">
        <ele>274.7</ele>
        <time>2019-08-16T10:38:49Z</time>
      </trkpt>
      <trkpt lat="47.66406" lon="7.17566">
        <ele>274.6</ele>
        <time>2019-08-16T10:38:50Z</time>
      </trkpt>
      <trkpt lat="47.66403" lon="7.1756">
        <ele>274.6</ele>
        <time>2019-08-16T10:38:51Z</time>
      </trkpt>
      <trkpt lat="47.664" lon="7.17554">
        <ele>274.5</ele>
        <time>2019-08-16T10:38:52Z</time>
      </trkpt>
      <trkpt lat="47.66396" lon="7.17548">
        <ele>274.4</ele>
        <time>2019-08-16T10:38:53Z</time>
      </trkpt>
      <trkpt lat="47.66393" lon="7.17542">
        <ele>274.4</ele>
        <time>2019-08-16T10:38:54Z</time>
      </trkpt>
      <trkpt lat="47.6639" lon="7.17536">
        <ele>274.4</ele>
        <time>2019-08-16T10:38:55Z</time>
      </trkpt>
      <trkpt lat="47.66387" lon="7.17529">
        <ele>274.5</ele>
        <time>2019-08-16T10:38:56Z</time>
      </trkpt>
      <trkpt lat="47.66384" lon="7.17524">
        <ele>274.6</ele>
        <time>2019-08-16T10:38:57Z</time>
      </trkpt>
      <trkpt lat="47.66381" lon="7.17519">
        <ele>274.8</ele>
        <time>2019-08-16T10:38:58Z</time>
      </trkpt>
      <trkpt lat="47.66377" lon="7.17513">
        <ele>274.9</ele>
        <time>2019-08-16T10:38:59Z</time>
      </trkpt>
      <trkpt lat="47.66374" lon="7.17507">
        <ele>275.2</ele>
        <time>2019-08-16T10:39:00Z</time>
      </trkpt>
      <trkpt lat="47.66371" lon="7.17501">
        <ele>275.4</ele>
        <time>2019-08-16T10:39:01Z</time>
      </trkpt>
      <trkpt lat="47.66368" lon="7.17494">
        <ele>275.6</ele>
        <time>2019-08-16T10:39:02Z</time>
      </trkpt>
      <trkpt lat="47.66364" lon="7.17489">
        <ele>275.7</ele>
        <time>2019-08-16T10:39:03Z</time>
      </trkpt>
      <trkpt lat="47.66361" lon="7.17483">
        <ele>275.9</ele>
        <time>2019-08-16T10:39:04Z</time>
      </trkpt>
      <trkpt lat="47.66358" lon="7.17479">
        <ele>276</ele>
        <time>2019-08-16T10:39:05Z</time>
      </trkpt>
      <trkpt lat="47.66355" lon="7.17474">
        <ele>276.1</ele>
        <time>2019-08-16T10:39:06Z</time>
      </trkpt>
      <trkpt lat="47.66352" lon="7.1747">
        <ele>276.2</ele>
        <time>2019-08-16T10:39:07Z</time>
      </trkpt>
      <trkpt lat="47.6635" lon="7.17466">
        <ele>276.3</ele>
        <time>2019-08-16T10:39:08Z</time>
      </trkpt>
      <trkpt lat="47.66348" lon="7.17463">
        <ele>276.4</ele>
        <time>2019-08-16T10:39:09Z</time>
      </trkpt>
      <trkpt lat="47.66346" lon="7.1746">
        <ele>276.5</ele>
        <time>2019-08-16T10:39:10Z</time>
      </trkpt>
      <trkpt lat="47.66344" lon="7.17457">
        <ele>276.6</ele>
        <time>2019-08-16T10:39:11Z</time>
      </trkpt>
      <trkpt lat="47.66342" lon="7.17453">
        <ele>276.6</ele>
        <time>2019-08-16T10:39:12Z</time>
      </trkpt>
      <trkpt lat="47.66339" lon="7.1745">
        <ele>276.7</ele>
        <time>2019-08-16T10:39:13Z</time>
      </trkpt>
      <trkpt lat="47.66337" lon="7.17446">
        <ele>276.8</ele>
        <time>2019-08-16T10:39:14Z</time>
      </trkpt>
      <trkpt lat="47.66335" lon="7.17442">
        <ele>276.9</ele>
        <time>2019-08-16T10:39:15Z</time>
      </trkpt>
      <trkpt lat="47.66333" lon="7.17438">
        <ele>277</ele>
        <time>2019-08-16T10:39:16Z</time>
      </trkpt>
      <trkpt lat="47.66331" lon="7.17435">
        <ele>277.1</ele>
        <time>2019-08-16T10:39:17Z</time>
      </trkpt>
      <trkpt lat="47.66329" lon="7.17432">
        <ele>277.1</ele>
        <time>2019-08-16T10:39:18Z</time>
      </trkpt>
      <trkpt lat="47.66327" lon="7.17428">
        <ele>277.2</ele>
        <time>2019-08-16T10:39:19Z</time>
      </trkpt>
      <trkpt lat="47.66323" lon="7.17422">
        <ele>277.2</ele>
        <time>2019-08-16T10:39:21Z</time>
      </trkpt>
      <trkpt lat="47.66321" lon="7.17419">
        <ele>277.3</ele>
        <time>2019-08-16T10:39:22Z</time>
      </trkpt>
      <trkpt lat="47.66318" lon="7.17416">
        <ele>277.3</ele>
        <time>2019-08-16T10:39:23Z</time>
      </trkpt>
      <trkpt lat="47.66316" lon="7.17413">
        <ele>277.3</ele>
        <time>2019-08-16T10:39:24Z</time>
      </trkpt>
      <trkpt lat="47.66313" lon="7.17409">
        <ele>277.3</ele>
        <time>2019-08-16T10:39:25Z</time>
      </trkpt>
      <trkpt lat="47.66311" lon="7.17405">
        <ele>277.3</ele>
        <time>2019-08-16T10:39:26Z</time>
      </trkpt>
      <trkpt lat="47.66309" lon="7.17402">
        <ele>277.3</ele>
        <time>2019-08-16T10:39:27Z</time>
      </trkpt>
      <trkpt lat="47.66306" lon="7.17398">
        <ele>277.3</ele>
        <time>2019-08-16T10:39:28Z</time>
      </trkpt>
      <trkpt lat="47.66305" lon="7.17395">
        <ele>277.3</ele>
        <time>2019-08-16T10:39:29Z</time>
      </trkpt>
      <trkpt lat="47.66303" lon="7.17392">
        <ele>277.3</ele>
        <time>2019-08-16T10:39:30Z</time>
      </trkpt>
      <trkpt lat="47.663" lon="7.17389">
        <ele>277.3</ele>
        <time>2019-08-16T10:39:31Z</time>
      </trkpt>
      <trkpt lat="47.66297" lon="7.17385">
        <ele>277.3</ele>
        <time>2019-08-16T10:39:32Z</time>
      </trkpt>
      <trkpt lat="47.66294" lon="7.17382">
        <ele>277.3</ele>
        <time>2019-08-16T10:39:33Z</time>
      </trkpt>
      <trkpt lat="47.66291" lon="7.17379">
        <ele>277.4</ele>
        <time>2019-08-16T10:39:34Z</time>
      </trkpt>
      <trkpt lat="47.66289" lon="7.17376">
        <ele>277.4</ele>
        <time>2019-08-16T10:39:35Z</time>
      </trkpt>
      <trkpt lat="47.66286" lon="7.17372">
        <ele>277.4</ele>
        <time>2019-08-16T10:39:36Z</time>
      </trkpt>
      <trkpt lat="47.66283" lon="7.17367">
        <ele>277.4</ele>
        <time>2019-08-16T10:39:37Z</time>
      </trkpt>
      <trkpt lat="47.6628" lon="7.17364">
        <ele>277.4</ele>
        <time>2019-08-16T10:39:38Z</time>
      </trkpt>
      <trkpt lat="47.66277" lon="7.17361">
        <ele>277.4</ele>
        <time>2019-08-16T10:39:39Z</time>
      </trkpt>
      <trkpt lat="47.66274" lon="7.17356">
        <ele>277.4</ele>
        <time>2019-08-16T10:39:40Z</time>
      </trkpt>
      <trkpt lat="47.66271" lon="7.17352">
        <ele>277.4</ele>
        <time>2019-08-16T10:39:41Z</time>
      </trkpt>
      <trkpt lat="47.66268" lon="7.17348">
        <ele>277.4</ele>
        <time>2019-08-16T10:39:42Z</time>
      </trkpt>
      <trkpt lat="47.66265" lon="7.17344">
        <ele>277.4</ele>
        <time>2019-08-16T10:39:43Z</time>
      </trkpt>
      <trkpt lat="47.66261" lon="7.1734">
        <ele>277.4</ele>
        <time>2019-08-16T10:39:44Z</time>
      </trkpt>
      <trkpt lat="47.66258" lon="7.17336">
        <ele>277.4</ele>
        <time>2019-08-16T10:39:45Z</time>
      </trkpt>
      <trkpt lat="47.66254" lon="7.17331">
        <ele>277.5</ele>
        <time>2019-08-16T10:39:46Z</time>
      </trkpt>
      <trkpt lat="47.66251" lon="7.17327">
        <ele>277.5</ele>
        <time>2019-08-16T10:39:47Z</time>
      </trkpt>
      <trkpt lat="47.66248" lon="7.17323">
        <ele>277.5</ele>
        <time>2019-08-16T10:39:48Z</time>
      </trkpt>
      <trkpt lat="47.66245" lon="7.17318">
        <ele>277.6</ele>
        <time>2019-08-16T10:39:49Z</time>
      </trkpt>
      <trkpt lat="47.66242" lon="7.17314">
        <ele>277.6</ele>
        <time>2019-08-16T10:39:50Z</time>
      </trkpt>
      <trkpt lat="47.66239" lon="7.17309">
        <ele>277.7</ele>
        <time>2019-08-16T10:39:51Z</time>
      </trkpt>
      <trkpt lat="47.66235" lon="7.17305">
        <ele>277.7</ele>
        <time>2019-08-16T10:39:52Z</time>
      </trkpt>
      <trkpt lat="47.66232" lon="7.17302">
        <ele>277.8</ele>
        <time>2019-08-16T10:39:53Z</time>
      </trkpt>
      <trkpt lat="47.6623" lon="7.17299">
        <ele>277.9</ele>
        <time>2019-08-16T10:39:54Z</time>
      </trkpt>
      <trkpt lat="47.66227" lon="7.17295">
        <ele>278</ele>
        <time>2019-08-16T10:39:55Z</time>
      </trkpt>
      <trkpt lat="47.66225" lon="7.17291">
        <ele>278.1</ele>
        <time>2019-08-16T10:39:56Z</time>
      </trkpt>
      <trkpt lat="47.66222" lon="7.17286">
        <ele>278.2</ele>
        <time>2019-08-16T10:39:57Z</time>
      </trkpt>
      <trkpt lat="47.6622" lon="7.17282">
        <ele>278.3</ele>
        <time>2019-08-16T10:39:58Z</time>
      </trkpt>
      <trkpt lat="47.66217" lon="7.17278">
        <ele>278.4</ele>
        <time>2019-08-16T10:39:59Z</time>
      </trkpt>
      <trkpt lat="47.66214" lon="7.17274">
        <ele>278.4</ele>
        <time>2019-08-16T10:40:00Z</time>
      </trkpt>
      <trkpt lat="47.66211" lon="7.1727">
        <ele>278.5</ele>
        <time>2019-08-16T10:40:01Z</time>
      </trkpt>
      <trkpt lat="47.66208" lon="7.17266">
        <ele>278.5</ele>
        <time>2019-08-16T10:40:02Z</time>
      </trkpt>
      <trkpt lat="47.66204" lon="7.17261">
        <ele>278.6</ele>
        <time>2019-08-16T10:40:03Z</time>
      </trkpt>
      <trkpt lat="47.66201" lon="7.17256">
        <ele>278.6</ele>
        <time>2019-08-16T10:40:04Z</time>
      </trkpt>
      <trkpt lat="47.66197" lon="7.17251">
        <ele>278.7</ele>
        <time>2019-08-16T10:40:05Z</time>
      </trkpt>
      <trkpt lat="47.66194" lon="7.17246">
        <ele>278.7</ele>
        <time>2019-08-16T10:40:06Z</time>
      </trkpt>
      <trkpt lat="47.66191" lon="7.17241">
        <ele>278.8</ele>
        <time>2019-08-16T10:40:07Z</time>
      </trkpt>
      <trkpt lat="47.66187" lon="7.17237">
        <ele>278.8</ele>
        <time>2019-08-16T10:40:08Z</time>
      </trkpt>
      <trkpt lat="47.66184" lon="7.17232">
        <ele>278.8</ele>
        <time>2019-08-16T10:40:09Z</time>
      </trkpt>
      <trkpt lat="47.66181" lon="7.17227">
        <ele>278.8</ele>
        <time>2019-08-16T10:40:10Z</time>
      </trkpt>
      <trkpt lat="47.66178" lon="7.17223">
        <ele>278.7</ele>
        <time>2019-08-16T10:40:11Z</time>
      </trkpt>
      <trkpt lat="47.66174" lon="7.17218">
        <ele>278.7</ele>
        <time>2019-08-16T10:40:12Z</time>
      </trkpt>
      <trkpt lat="47.66171" lon="7.17214">
        <ele>278.7</ele>
        <time>2019-08-16T10:40:13Z</time>
      </trkpt>
      <trkpt lat="47.66168" lon="7.1721">
        <ele>278.7</ele>
        <time>2019-08-16T10:40:14Z</time>
      </trkpt>
      <trkpt lat="47.66165" lon="7.17205">
        <ele>278.7</ele>
        <time>2019-08-16T10:40:15Z</time>
      </trkpt>
      <trkpt lat="47.66161" lon="7.17201">
        <ele>278.7</ele>
        <time>2019-08-16T10:40:16Z</time>
      </trkpt>
      <trkpt lat="47.66158" lon="7.17195">
        <ele>278.7</ele>
        <time>2019-08-16T10:40:17Z</time>
      </trkpt>
      <trkpt lat="47.66154" lon="7.1719">
        <ele>278.7</ele>
        <time>2019-08-16T10:40:18Z</time>
      </trkpt>
      <trkpt lat="47.66151" lon="7.17186">
        <ele>278.7</ele>
        <time>2019-08-16T10:40:19Z</time>
      </trkpt>
      <trkpt lat="47.66148" lon="7.1718">
        <ele>278.7</ele>
        <time>2019-08-16T10:40:20Z</time>
      </trkpt>
      <trkpt lat="47.66145" lon="7.17176">
        <ele>278.8</ele>
        <time>2019-08-16T10:40:21Z</time>
      </trkpt>
      <trkpt lat="47.66143" lon="7.17172">
        <ele>278.9</ele>
        <time>2019-08-16T10:40:22Z</time>
      </trkpt>
      <trkpt lat="47.6614" lon="7.17167">
        <ele>279</ele>
        <time>2019-08-16T10:40:23Z</time>
      </trkpt>
      <trkpt lat="47.66137" lon="7.17162">
        <ele>279.1</ele>
        <time>2019-08-16T10:40:24Z</time>
      </trkpt>
      <trkpt lat="47.66134" lon="7.17157">
        <ele>279.2</ele>
        <time>2019-08-16T10:40:25Z</time>
      </trkpt>
      <trkpt lat="47.6613" lon="7.17152">
        <ele>279.3</ele>
        <time>2019-08-16T10:40:26Z</time>
      </trkpt>
      <trkpt lat="47.66127" lon="7.17147">
        <ele>279.4</ele>
        <time>2019-08-16T10:40:27Z</time>
      </trkpt>
      <trkpt lat="47.66124" lon="7.17142">
        <ele>279.5</ele>
        <time>2019-08-16T10:40:28Z</time>
      </trkpt>
      <trkpt lat="47.6612" lon="7.17136">
        <ele>279.6</ele>
        <time>2019-08-16T10:40:29Z</time>
      </trkpt>
      <trkpt lat="47.66116" lon="7.17131">
        <ele>279.7</ele>
        <time>2019-08-16T10:40:30Z</time>
      </trkpt>
      <trkpt lat="47.66113" lon="7.17125">
        <ele>279.7</ele>
        <time>2019-08-16T10:40:31Z</time>
      </trkpt>
      <trkpt lat="47.66109" lon="7.17121">
        <ele>279.7</ele>
        <time>2019-08-16T10:40:32Z</time>
      </trkpt>
      <trkpt lat="47.66106" lon="7.17115">
        <ele>279.8</ele>
        <time>2019-08-16T10:40:33Z</time>
      </trkpt>
      <trkpt lat="47.66102" lon="7.17109">
        <ele>279.8</ele>
        <time>2019-08-16T10:40:34Z</time>
      </trkpt>
      <trkpt lat="47.66099" lon="7.17104">
        <ele>279.8</ele>
        <time>2019-08-16T10:40:35Z</time>
      </trkpt>
      <trkpt lat="47.66095" lon="7.171">
        <ele>279.8</ele>
        <time>2019-08-16T10:40:36Z</time>
      </trkpt>
      <trkpt lat="47.66092" lon="7.17095">
        <ele>279.8</ele>
        <time>2019-08-16T10:40:37Z</time>
      </trkpt>
      <trkpt lat="47.6609" lon="7.1709">
        <ele>279.8</ele>
        <time>2019-08-16T10:40:38Z</time>
      </trkpt>
      <trkpt lat="47.66087" lon="7.17085">
        <ele>279.8</ele>
        <time>2019-08-16T10:40:39Z</time>
      </trkpt>
      <trkpt lat="47.66084" lon="7.17081">
        <ele>279.8</ele>
        <time>2019-08-16T10:40:40Z</time>
      </trkpt>
      <trkpt lat="47.66081" lon="7.17077">
        <ele>279.9</ele>
        <time>2019-08-16T10:40:41Z</time>
      </trkpt>
      <trkpt lat="47.66078" lon="7.17072">
        <ele>279.9</ele>
        <time>2019-08-16T10:40:42Z</time>
      </trkpt>
      <trkpt lat="47.66075" lon="7.17067">
        <ele>279.9</ele>
        <time>2019-08-16T10:40:43Z</time>
      </trkpt>
      <trkpt lat="47.66071" lon="7.17062">
        <ele>280</ele>
        <time>2019-08-16T10:40:44Z</time>
      </trkpt>
      <trkpt lat="47.66067" lon="7.17057">
        <ele>280.1</ele>
        <time>2019-08-16T10:40:45Z</time>
      </trkpt>
      <trkpt lat="47.66064" lon="7.17052">
        <ele>280.2</ele>
        <time>2019-08-16T10:40:46Z</time>
      </trkpt>
      <trkpt lat="47.66061" lon="7.17046">
        <ele>280.3</ele>
        <time>2019-08-16T10:40:47Z</time>
      </trkpt>
      <trkpt lat="47.66057" lon="7.17041">
        <ele>280.4</ele>
        <time>2019-08-16T10:40:48Z</time>
      </trkpt>
      <trkpt lat="47.66054" lon="7.17037">
        <ele>280.5</ele>
        <time>2019-08-16T10:40:49Z</time>
      </trkpt>
      <trkpt lat="47.6605" lon="7.17032">
        <ele>280.6</ele>
        <time>2019-08-16T10:40:50Z</time>
      </trkpt>
      <trkpt lat="47.66047" lon="7.17027">
        <ele>280.7</ele>
        <time>2019-08-16T10:40:51Z</time>
      </trkpt>
      <trkpt lat="47.66043" lon="7.17022">
        <ele>280.8</ele>
        <time>2019-08-16T10:40:52Z</time>
      </trkpt>
      <trkpt lat="47.66039" lon="7.17017">
        <ele>280.8</ele>
        <time>2019-08-16T10:40:53Z</time>
      </trkpt>
      <trkpt lat="47.66036" lon="7.17012">
        <ele>280.9</ele>
        <time>2019-08-16T10:40:54Z</time>
      </trkpt>
      <trkpt lat="47.66033" lon="7.17007">
        <ele>280.9</ele>
        <time>2019-08-16T10:40:55Z</time>
      </trkpt>
      <trkpt lat="47.66028" lon="7.17001">
        <ele>280.8</ele>
        <time>2019-08-16T10:40:56Z</time>
      </trkpt>
      <trkpt lat="47.66025" lon="7.16996">
        <ele>280.8</ele>
        <time>2019-08-16T10:40:57Z</time>
      </trkpt>
      <trkpt lat="47.66021" lon="7.16991">
        <ele>280.8</ele>
        <time>2019-08-16T10:40:58Z</time>
      </trkpt>
      <trkpt lat="47.66018" lon="7.16986">
        <ele>280.8</ele>
        <time>2019-08-16T10:40:59Z</time>
      </trkpt>
      <trkpt lat="47.66014" lon="7.16981">
        <ele>280.7</ele>
        <time>2019-08-16T10:41:00Z</time>
      </trkpt>
      <trkpt lat="47.66011" lon="7.16977">
        <ele>280.7</ele>
        <time>2019-08-16T10:41:01Z</time>
      </trkpt>
      <trkpt lat="47.66008" lon="7.16972">
        <ele>280.7</ele>
        <time>2019-08-16T10:41:02Z</time>
      </trkpt>
      <trkpt lat="47.66005" lon="7.16968">
        <ele>280.7</ele>
        <time>2019-08-16T10:41:03Z</time>
      </trkpt>
      <trkpt lat="47.66001" lon="7.16963">
        <ele>280.8</ele>
        <time>2019-08-16T10:41:04Z</time>
      </trkpt>
      <trkpt lat="47.65998" lon="7.16959">
        <ele>280.8</ele>
        <time>2019-08-16T10:41:05Z</time>
      </trkpt>
      <trkpt lat="47.65996" lon="7.16954">
        <ele>280.8</ele>
        <time>2019-08-16T10:41:06Z</time>
      </trkpt>
      <trkpt lat="47.65993" lon="7.16949">
        <ele>280.8</ele>
        <time>2019-08-16T10:41:07Z</time>
      </trkpt>
      <trkpt lat="47.6599" lon="7.16944">
        <ele>280.8</ele>
        <time>2019-08-16T10:41:08Z</time>
      </trkpt>
      <trkpt lat="47.65988" lon="7.16939">
        <ele>280.8</ele>
        <time>2019-08-16T10:41:09Z</time>
      </trkpt>
      <trkpt lat="47.65985" lon="7.16935">
        <ele>280.8</ele>
        <time>2019-08-16T10:41:10Z</time>
      </trkpt>
      <trkpt lat="47.65982" lon="7.1693">
        <ele>280.8</ele>
        <time>2019-08-16T10:41:11Z</time>
      </trkpt>
      <trkpt lat="47.65979" lon="7.16924">
        <ele>280.8</ele>
        <time>2019-08-16T10:41:12Z</time>
      </trkpt>
      <trkpt lat="47.65975" lon="7.16918">
        <ele>280.8</ele>
        <time>2019-08-16T10:41:13Z</time>
      </trkpt>
      <trkpt lat="47.65972" lon="7.16913">
        <ele>280.7</ele>
        <time>2019-08-16T10:41:14Z</time>
      </trkpt>
      <trkpt lat="47.65969" lon="7.16908">
        <ele>280.6</ele>
        <time>2019-08-16T10:41:15Z</time>
      </trkpt>
      <trkpt lat="47.65965" lon="7.16903">
        <ele>280.5</ele>
        <time>2019-08-16T10:41:16Z</time>
      </trkpt>
      <trkpt lat="47.65961" lon="7.16898">
        <ele>280.4</ele>
        <time>2019-08-16T10:41:17Z</time>
      </trkpt>
      <trkpt lat="47.65958" lon="7.16893">
        <ele>280.3</ele>
        <time>2019-08-16T10:41:18Z</time>
      </trkpt>
      <trkpt lat="47.65954" lon="7.16887">
        <ele>280.2</ele>
        <time>2019-08-16T10:41:19Z</time>
      </trkpt>
      <trkpt lat="47.65951" lon="7.16882">
        <ele>280.2</ele>
        <time>2019-08-16T10:41:20Z</time>
      </trkpt>
      <trkpt lat="47.65948" lon="7.16877">
        <ele>280.2</ele>
        <time>2019-08-16T10:41:21Z</time>
      </trkpt>
      <trkpt lat="47.65945" lon="7.16872">
        <ele>280.2</ele>
        <time>2019-08-16T10:41:22Z</time>
      </trkpt>
      <trkpt lat="47.65941" lon="7.16867">
        <ele>280.2</ele>
        <time>2019-08-16T10:41:23Z</time>
      </trkpt>
      <trkpt lat="47.65938" lon="7.16862">
        <ele>280.2</ele>
        <time>2019-08-16T10:41:24Z</time>
      </trkpt>
      <trkpt lat="47.65935" lon="7.16858">
        <ele>280.2</ele>
        <time>2019-08-16T10:41:25Z</time>
      </trkpt>
      <trkpt lat="47.65931" lon="7.16853">
        <ele>280.2</ele>
        <time>2019-08-16T10:41:26Z</time>
      </trkpt>
      <trkpt lat="47.65928" lon="7.16848">
        <ele>280.2</ele>
        <time>2019-08-16T10:41:27Z</time>
      </trkpt>
      <trkpt lat="47.65925" lon="7.16844">
        <ele>280.2</ele>
        <time>2019-08-16T10:41:28Z</time>
      </trkpt>
      <trkpt lat="47.65922" lon="7.16839">
        <ele>280.2</ele>
        <time>2019-08-16T10:41:29Z</time>
      </trkpt>
      <trkpt lat="47.65918" lon="7.16835">
        <ele>280.2</ele>
        <time>2019-08-16T10:41:30Z</time>
      </trkpt>
      <trkpt lat="47.65915" lon="7.1683">
        <ele>280.2</ele>
        <time>2019-08-16T10:41:31Z</time>
      </trkpt>
      <trkpt lat="47.65911" lon="7.16825">
        <ele>280.2</ele>
        <time>2019-08-16T10:41:32Z</time>
      </trkpt>
      <trkpt lat="47.65907" lon="7.16821">
        <ele>280.2</ele>
        <time>2019-08-16T10:41:33Z</time>
      </trkpt>
      <trkpt lat="47.65904" lon="7.16816">
        <ele>280.2</ele>
        <time>2019-08-16T10:41:34Z</time>
      </trkpt>
      <trkpt lat="47.65901" lon="7.16811">
        <ele>280.2</ele>
        <time>2019-08-16T10:41:35Z</time>
      </trkpt>
      <trkpt lat="47.65898" lon="7.16806">
        <ele>280.2</ele>
        <time>2019-08-16T10:41:36Z</time>
      </trkpt>
      <trkpt lat="47.65895" lon="7.16801">
        <ele>280.2</ele>
        <time>2019-08-16T10:41:37Z</time>
      </trkpt>
      <trkpt lat="47.65891" lon="7.16797">
        <ele>280.3</ele>
        <time>2019-08-16T10:41:38Z</time>
      </trkpt>
      <trkpt lat="47.65889" lon="7.16792">
        <ele>280.3</ele>
        <time>2019-08-16T10:41:39Z</time>
      </trkpt>
      <trkpt lat="47.65885" lon="7.16786">
        <ele>280.3</ele>
        <time>2019-08-16T10:41:40Z</time>
      </trkpt>
      <trkpt lat="47.65882" lon="7.16781">
        <ele>280.3</ele>
        <time>2019-08-16T10:41:41Z</time>
      </trkpt>
      <trkpt lat="47.6588" lon="7.16777">
        <ele>280.3</ele>
        <time>2019-08-16T10:41:42Z</time>
      </trkpt>
      <trkpt lat="47.65877" lon="7.16771">
        <ele>280.3</ele>
        <time>2019-08-16T10:41:43Z</time>
      </trkpt>
      <trkpt lat="47.65874" lon="7.16766">
        <ele>280.4</ele>
        <time>2019-08-16T10:41:44Z</time>
      </trkpt>
      <trkpt lat="47.65871" lon="7.16761">
        <ele>280.4</ele>
        <time>2019-08-16T10:41:45Z</time>
      </trkpt>
      <trkpt lat="47.65868" lon="7.16755">
        <ele>280.5</ele>
        <time>2019-08-16T10:41:46Z</time>
      </trkpt>
      <trkpt lat="47.65864" lon="7.1675">
        <ele>280.7</ele>
        <time>2019-08-16T10:41:47Z</time>
      </trkpt>
      <trkpt lat="47.65861" lon="7.16745">
        <ele>280.8</ele>
        <time>2019-08-16T10:41:48Z</time>
      </trkpt>
      <trkpt lat="47.65859" lon="7.1674">
        <ele>280.9</ele>
        <time>2019-08-16T10:41:49Z</time>
      </trkpt>
      <trkpt lat="47.65856" lon="7.16735">
        <ele>281.1</ele>
        <time>2019-08-16T10:41:50Z</time>
      </trkpt>
      <trkpt lat="47.65853" lon="7.16731">
        <ele>281.1</ele>
        <time>2019-08-16T10:41:51Z</time>
      </trkpt>
      <trkpt lat="47.6585" lon="7.16727">
        <ele>281.2</ele>
        <time>2019-08-16T10:41:52Z</time>
      </trkpt>
      <trkpt lat="47.65846" lon="7.16723">
        <ele>281.3</ele>
        <time>2019-08-16T10:41:53Z</time>
      </trkpt>
      <trkpt lat="47.65843" lon="7.16718">
        <ele>281.3</ele>
        <time>2019-08-16T10:41:54Z</time>
      </trkpt>
      <trkpt lat="47.6584" lon="7.16714">
        <ele>281.3</ele>
        <time>2019-08-16T10:41:55Z</time>
      </trkpt>
      <trkpt lat="47.65836" lon="7.1671">
        <ele>281.4</ele>
        <time>2019-08-16T10:41:56Z</time>
      </trkpt>
      <trkpt lat="47.65833" lon="7.16705">
        <ele>281.4</ele>
        <time>2019-08-16T10:41:57Z</time>
      </trkpt>
      <trkpt lat="47.6583" lon="7.167">
        <ele>281.4</ele>
        <time>2019-08-16T10:41:58Z</time>
      </trkpt>
      <trkpt lat="47.65826" lon="7.16695">
        <ele>281.4</ele>
        <time>2019-08-16T10:41:59Z</time>
      </trkpt>
      <trkpt lat="47.65823" lon="7.1669">
        <ele>281.4</ele>
        <time>2019-08-16T10:42:00Z</time>
      </trkpt>
      <trkpt lat="47.6582" lon="7.16685">
        <ele>281.4</ele>
        <time>2019-08-16T10:42:01Z</time>
      </trkpt>
      <trkpt lat="47.65817" lon="7.1668">
        <ele>281.4</ele>
        <time>2019-08-16T10:42:02Z</time>
      </trkpt>
      <trkpt lat="47.65814" lon="7.16675">
        <ele>281.4</ele>
        <time>2019-08-16T10:42:03Z</time>
      </trkpt>
      <trkpt lat="47.6581" lon="7.1667">
        <ele>281.4</ele>
        <time>2019-08-16T10:42:04Z</time>
      </trkpt>
      <trkpt lat="47.65806" lon="7.16665">
        <ele>281.4</ele>
        <time>2019-08-16T10:42:05Z</time>
      </trkpt>
      <trkpt lat="47.65803" lon="7.1666">
        <ele>281.5</ele>
        <time>2019-08-16T10:42:06Z</time>
      </trkpt>
      <trkpt lat="47.65798" lon="7.16655">
        <ele>281.5</ele>
        <time>2019-08-16T10:42:07Z</time>
      </trkpt>
      <trkpt lat="47.65794" lon="7.16649">
        <ele>281.5</ele>
        <time>2019-08-16T10:42:08Z</time>
      </trkpt>
      <trkpt lat="47.6579" lon="7.16645">
        <ele>281.5</ele>
        <time>2019-08-16T10:42:09Z</time>
      </trkpt>
      <trkpt lat="47.65787" lon="7.1664">
        <ele>281.5</ele>
        <time>2019-08-16T10:42:10Z</time>
      </trkpt>
      <trkpt lat="47.65783" lon="7.16634">
        <ele>281.5</ele>
        <time>2019-08-16T10:42:11Z</time>
      </trkpt>
      <trkpt lat="47.65778" lon="7.16629">
        <ele>281.5</ele>
        <time>2019-08-16T10:42:12Z</time>
      </trkpt>
      <trkpt lat="47.65775" lon="7.16624">
        <ele>281.5</ele>
        <time>2019-08-16T10:42:13Z</time>
      </trkpt>
      <trkpt lat="47.6577" lon="7.16619">
        <ele>281.5</ele>
        <time>2019-08-16T10:42:14Z</time>
      </trkpt>
      <trkpt lat="47.65767" lon="7.16614">
        <ele>281.5</ele>
        <time>2019-08-16T10:42:15Z</time>
      </trkpt>
      <trkpt lat="47.65764" lon="7.1661">
        <ele>281.5</ele>
        <time>2019-08-16T10:42:16Z</time>
      </trkpt>
      <trkpt lat="47.6576" lon="7.16605">
        <ele>281.5</ele>
        <time>2019-08-16T10:42:17Z</time>
      </trkpt>
      <trkpt lat="47.65757" lon="7.16601">
        <ele>281.5</ele>
        <time>2019-08-16T10:42:18Z</time>
      </trkpt>
      <trkpt lat="47.65754" lon="7.16596">
        <ele>281.6</ele>
        <time>2019-08-16T10:42:19Z</time>
      </trkpt>
      <trkpt lat="47.6575" lon="7.16591">
        <ele>281.6</ele>
        <time>2019-08-16T10:42:20Z</time>
      </trkpt>
      <trkpt lat="47.65747" lon="7.16587">
        <ele>281.6</ele>
        <time>2019-08-16T10:42:21Z</time>
      </trkpt>
      <trkpt lat="47.65745" lon="7.16581">
        <ele>281.6</ele>
        <time>2019-08-16T10:42:22Z</time>
      </trkpt>
      <trkpt lat="47.65742" lon="7.16576">
        <ele>281.6</ele>
        <time>2019-08-16T10:42:23Z</time>
      </trkpt>
      <trkpt lat="47.65739" lon="7.16571">
        <ele>281.6</ele>
        <time>2019-08-16T10:42:24Z</time>
      </trkpt>
      <trkpt lat="47.65736" lon="7.16566">
        <ele>281.6</ele>
        <time>2019-08-16T10:42:25Z</time>
      </trkpt>
      <trkpt lat="47.65733" lon="7.1656">
        <ele>281.6</ele>
        <time>2019-08-16T10:42:26Z</time>
      </trkpt>
      <trkpt lat="47.6573" lon="7.16555">
        <ele>281.6</ele>
        <time>2019-08-16T10:42:27Z</time>
      </trkpt>
      <trkpt lat="47.65726" lon="7.16549">
        <ele>281.5</ele>
        <time>2019-08-16T10:42:28Z</time>
      </trkpt>
      <trkpt lat="47.65723" lon="7.16543">
        <ele>281.5</ele>
        <time>2019-08-16T10:42:29Z</time>
      </trkpt>
      <trkpt lat="47.65719" lon="7.16537">
        <ele>281.5</ele>
        <time>2019-08-16T10:42:30Z</time>
      </trkpt>
      <trkpt lat="47.65716" lon="7.16531">
        <ele>281.5</ele>
        <time>2019-08-16T10:42:31Z</time>
      </trkpt>
      <trkpt lat="47.65714" lon="7.16525">
        <ele>281.5</ele>
        <time>2019-08-16T10:42:32Z</time>
      </trkpt>
      <trkpt lat="47.65712" lon="7.16519">
        <ele>281.5</ele>
        <time>2019-08-16T10:42:33Z</time>
      </trkpt>
      <trkpt lat="47.65709" lon="7.16513">
        <ele>281.5</ele>
        <time>2019-08-16T10:42:34Z</time>
      </trkpt>
      <trkpt lat="47.65706" lon="7.16507">
        <ele>281.6</ele>
        <time>2019-08-16T10:42:35Z</time>
      </trkpt>
      <trkpt lat="47.65702" lon="7.16502">
        <ele>281.6</ele>
        <time>2019-08-16T10:42:36Z</time>
      </trkpt>
      <trkpt lat="47.65699" lon="7.16496">
        <ele>281.6</ele>
        <time>2019-08-16T10:42:37Z</time>
      </trkpt>
      <trkpt lat="47.65696" lon="7.16491">
        <ele>281.7</ele>
        <time>2019-08-16T10:42:38Z</time>
      </trkpt>
      <trkpt lat="47.65693" lon="7.16486">
        <ele>281.7</ele>
        <time>2019-08-16T10:42:39Z</time>
      </trkpt>
      <trkpt lat="47.6569" lon="7.16481">
        <ele>281.7</ele>
        <time>2019-08-16T10:42:40Z</time>
      </trkpt>
      <trkpt lat="47.65687" lon="7.16477">
        <ele>281.7</ele>
        <time>2019-08-16T10:42:41Z</time>
      </trkpt>
      <trkpt lat="47.65683" lon="7.16473">
        <ele>281.7</ele>
        <time>2019-08-16T10:42:42Z</time>
      </trkpt>
      <trkpt lat="47.6568" lon="7.16468">
        <ele>281.7</ele>
        <time>2019-08-16T10:42:43Z</time>
      </trkpt>
      <trkpt lat="47.65677" lon="7.16463">
        <ele>281.7</ele>
        <time>2019-08-16T10:42:44Z</time>
      </trkpt>
      <trkpt lat="47.65674" lon="7.16458">
        <ele>281.8</ele>
        <time>2019-08-16T10:42:45Z</time>
      </trkpt>
      <trkpt lat="47.6567" lon="7.16453">
        <ele>281.8</ele>
        <time>2019-08-16T10:42:46Z</time>
      </trkpt>
      <trkpt lat="47.65667" lon="7.16449">
        <ele>281.8</ele>
        <time>2019-08-16T10:42:47Z</time>
      </trkpt>
      <trkpt lat="47.65663" lon="7.16445">
        <ele>281.8</ele>
        <time>2019-08-16T10:42:48Z</time>
      </trkpt>
      <trkpt lat="47.6566" lon="7.16441">
        <ele>281.9</ele>
        <time>2019-08-16T10:42:49Z</time>
      </trkpt>
      <trkpt lat="47.65656" lon="7.16437">
        <ele>281.9</ele>
        <time>2019-08-16T10:42:50Z</time>
      </trkpt>
      <trkpt lat="47.65652" lon="7.16433">
        <ele>281.9</ele>
        <time>2019-08-16T10:42:51Z</time>
      </trkpt>
      <trkpt lat="47.65648" lon="7.16429">
        <ele>282</ele>
        <time>2019-08-16T10:42:52Z</time>
      </trkpt>
      <trkpt lat="47.65644" lon="7.16424">
        <ele>282.1</ele>
        <time>2019-08-16T10:42:53Z</time>
      </trkpt>
      <trkpt lat="47.65641" lon="7.16419">
        <ele>282.2</ele>
        <time>2019-08-16T10:42:54Z</time>
      </trkpt>
      <trkpt lat="47.65637" lon="7.16414">
        <ele>282.3</ele>
        <time>2019-08-16T10:42:55Z</time>
      </trkpt>
      <trkpt lat="47.65634" lon="7.16409">
        <ele>282.3</ele>
        <time>2019-08-16T10:42:56Z</time>
      </trkpt>
      <trkpt lat="47.6563" lon="7.16405">
        <ele>282.4</ele>
        <time>2019-08-16T10:42:57Z</time>
      </trkpt>
      <trkpt lat="47.65626" lon="7.16401">
        <ele>282.4</ele>
        <time>2019-08-16T10:42:58Z</time>
      </trkpt>
      <trkpt lat="47.65622" lon="7.16398">
        <ele>282.3</ele>
        <time>2019-08-16T10:42:59Z</time>
      </trkpt>
      <trkpt lat="47.65618" lon="7.16393">
        <ele>282.3</ele>
        <time>2019-08-16T10:43:00Z</time>
      </trkpt>
      <trkpt lat="47.65614" lon="7.16389">
        <ele>282.2</ele>
        <time>2019-08-16T10:43:01Z</time>
      </trkpt>
      <trkpt lat="47.6561" lon="7.16385">
        <ele>282.1</ele>
        <time>2019-08-16T10:43:02Z</time>
      </trkpt>
      <trkpt lat="47.65606" lon="7.1638">
        <ele>282</ele>
        <time>2019-08-16T10:43:03Z</time>
      </trkpt>
      <trkpt lat="47.65602" lon="7.16375">
        <ele>282</ele>
        <time>2019-08-16T10:43:04Z</time>
      </trkpt>
      <trkpt lat="47.65598" lon="7.16371">
        <ele>282</ele>
        <time>2019-08-16T10:43:05Z</time>
      </trkpt>
      <trkpt lat="47.65594" lon="7.16366">
        <ele>282</ele>
        <time>2019-08-16T10:43:06Z</time>
      </trkpt>
      <trkpt lat="47.6559" lon="7.16361">
        <ele>282</ele>
        <time>2019-08-16T10:43:07Z</time>
      </trkpt>
      <trkpt lat="47.65587" lon="7.16356">
        <ele>282</ele>
        <time>2019-08-16T10:43:08Z</time>
      </trkpt>
      <trkpt lat="47.65584" lon="7.16351">
        <ele>282.1</ele>
        <time>2019-08-16T10:43:09Z</time>
      </trkpt>
      <trkpt lat="47.65581" lon="7.16346">
        <ele>282.2</ele>
        <time>2019-08-16T10:43:10Z</time>
      </trkpt>
      <trkpt lat="47.65577" lon="7.16341">
        <ele>282.3</ele>
        <time>2019-08-16T10:43:11Z</time>
      </trkpt>
      <trkpt lat="47.65573" lon="7.16335">
        <ele>282.4</ele>
        <time>2019-08-16T10:43:12Z</time>
      </trkpt>
      <trkpt lat="47.65569" lon="7.16329">
        <ele>282.5</ele>
        <time>2019-08-16T10:43:13Z</time>
      </trkpt>
      <trkpt lat="47.65565" lon="7.16324">
        <ele>282.6</ele>
        <time>2019-08-16T10:43:14Z</time>
      </trkpt>
      <trkpt lat="47.65561" lon="7.1632">
        <ele>282.7</ele>
        <time>2019-08-16T10:43:15Z</time>
      </trkpt>
      <trkpt lat="47.65557" lon="7.16316">
        <ele>282.8</ele>
        <time>2019-08-16T10:43:16Z</time>
      </trkpt>
      <trkpt lat="47.65553" lon="7.16312">
        <ele>282.9</ele>
        <time>2019-08-16T10:43:17Z</time>
      </trkpt>
      <trkpt lat="47.6555" lon="7.16308">
        <ele>282.9</ele>
        <time>2019-08-16T10:43:18Z</time>
      </trkpt>
      <trkpt lat="47.65545" lon="7.16304">
        <ele>283</ele>
        <time>2019-08-16T10:43:19Z</time>
      </trkpt>
      <trkpt lat="47.65541" lon="7.163">
        <ele>283</ele>
        <time>2019-08-16T10:43:20Z</time>
      </trkpt>
      <trkpt lat="47.65537" lon="7.16295">
        <ele>283</ele>
        <time>2019-08-16T10:43:21Z</time>
      </trkpt>
      <trkpt lat="47.65534" lon="7.16291">
        <ele>282.9</ele>
        <time>2019-08-16T10:43:22Z</time>
      </trkpt>
      <trkpt lat="47.65531" lon="7.16285">
        <ele>282.8</ele>
        <time>2019-08-16T10:43:23Z</time>
      </trkpt>
      <trkpt lat="47.65527" lon="7.1628">
        <ele>282.7</ele>
        <time>2019-08-16T10:43:24Z</time>
      </trkpt>
      <trkpt lat="47.65523" lon="7.16274">
        <ele>282.5</ele>
        <time>2019-08-16T10:43:25Z</time>
      </trkpt>
      <trkpt lat="47.65519" lon="7.16269">
        <ele>282.4</ele>
        <time>2019-08-16T10:43:26Z</time>
      </trkpt>
      <trkpt lat="47.65515" lon="7.16264">
        <ele>282.2</ele>
        <time>2019-08-16T10:43:27Z</time>
      </trkpt>
      <trkpt lat="47.65511" lon="7.16258">
        <ele>282</ele>
        <time>2019-08-16T10:43:28Z</time>
      </trkpt>
      <trkpt lat="47.65508" lon="7.16253">
        <ele>281.9</ele>
        <time>2019-08-16T10:43:29Z</time>
      </trkpt>
      <trkpt lat="47.65504" lon="7.16249">
        <ele>281.7</ele>
        <time>2019-08-16T10:43:30Z</time>
      </trkpt>
      <trkpt lat="47.65501" lon="7.16245">
        <ele>281.6</ele>
        <time>2019-08-16T10:43:31Z</time>
      </trkpt>
      <trkpt lat="47.65498" lon="7.1624">
        <ele>281.4</ele>
        <time>2019-08-16T10:43:32Z</time>
      </trkpt>
      <trkpt lat="47.65494" lon="7.16235">
        <ele>281.3</ele>
        <time>2019-08-16T10:43:33Z</time>
      </trkpt>
      <trkpt lat="47.65491" lon="7.16231">
        <ele>281.2</ele>
        <time>2019-08-16T10:43:34Z</time>
      </trkpt>
      <trkpt lat="47.65487" lon="7.16227">
        <ele>281.2</ele>
        <time>2019-08-16T10:43:35Z</time>
      </trkpt>
      <trkpt lat="47.65483" lon="7.16223">
        <ele>281.2</ele>
        <time>2019-08-16T10:43:36Z</time>
      </trkpt>
      <trkpt lat="47.65479" lon="7.16218">
        <ele>281.2</ele>
        <time>2019-08-16T10:43:37Z</time>
      </trkpt>
      <trkpt lat="47.65475" lon="7.16214">
        <ele>281.2</ele>
        <time>2019-08-16T10:43:38Z</time>
      </trkpt>
      <trkpt lat="47.65471" lon="7.1621">
        <ele>281.2</ele>
        <time>2019-08-16T10:43:39Z</time>
      </trkpt>
      <trkpt lat="47.65468" lon="7.16205">
        <ele>281.2</ele>
        <time>2019-08-16T10:43:40Z</time>
      </trkpt>
      <trkpt lat="47.65465" lon="7.162">
        <ele>281.2</ele>
        <time>2019-08-16T10:43:41Z</time>
      </trkpt>
      <trkpt lat="47.65462" lon="7.16195">
        <ele>281.3</ele>
        <time>2019-08-16T10:43:42Z</time>
      </trkpt>
      <trkpt lat="47.65458" lon="7.1619">
        <ele>281.3</ele>
        <time>2019-08-16T10:43:43Z</time>
      </trkpt>
      <trkpt lat="47.65455" lon="7.16185">
        <ele>281.4</ele>
        <time>2019-08-16T10:43:44Z</time>
      </trkpt>
      <trkpt lat="47.65452" lon="7.1618">
        <ele>281.5</ele>
        <time>2019-08-16T10:43:45Z</time>
      </trkpt>
      <trkpt lat="47.65449" lon="7.16176">
        <ele>281.7</ele>
        <time>2019-08-16T10:43:46Z</time>
      </trkpt>
      <trkpt lat="47.65445" lon="7.16171">
        <ele>281.8</ele>
        <time>2019-08-16T10:43:47Z</time>
      </trkpt>
      <trkpt lat="47.65442" lon="7.16167">
        <ele>281.9</ele>
        <time>2019-08-16T10:43:48Z</time>
      </trkpt>
      <trkpt lat="47.65439" lon="7.16163">
        <ele>282.1</ele>
        <time>2019-08-16T10:43:49Z</time>
      </trkpt>
      <trkpt lat="47.65436" lon="7.16158">
        <ele>282.1</ele>
        <time>2019-08-16T10:43:50Z</time>
      </trkpt>
      <trkpt lat="47.65434" lon="7.16154">
        <ele>282.2</ele>
        <time>2019-08-16T10:43:51Z</time>
      </trkpt>
      <trkpt lat="47.65431" lon="7.16149">
        <ele>282.3</ele>
        <time>2019-08-16T10:43:52Z</time>
      </trkpt>
      <trkpt lat="47.65428" lon="7.16144">
        <ele>282.3</ele>
        <time>2019-08-16T10:43:53Z</time>
      </trkpt>
      <trkpt lat="47.65425" lon="7.16138">
        <ele>282.3</ele>
        <time>2019-08-16T10:43:54Z</time>
      </trkpt>
      <trkpt lat="47.65422" lon="7.16133">
        <ele>282.3</ele>
        <time>2019-08-16T10:43:55Z</time>
      </trkpt>
      <trkpt lat="47.6542" lon="7.16127">
        <ele>282.3</ele>
        <time>2019-08-16T10:43:56Z</time>
      </trkpt>
      <trkpt lat="47.65417" lon="7.16122">
        <ele>282.3</ele>
        <time>2019-08-16T10:43:57Z</time>
      </trkpt>
      <trkpt lat="47.65414" lon="7.16117">
        <ele>282.3</ele>
        <time>2019-08-16T10:43:58Z</time>
      </trkpt>
      <trkpt lat="47.65411" lon="7.16112">
        <ele>282.3</ele>
        <time>2019-08-16T10:43:59Z</time>
      </trkpt>
      <trkpt lat="47.65407" lon="7.16107">
        <ele>282.3</ele>
        <time>2019-08-16T10:44:00Z</time>
      </trkpt>
      <trkpt lat="47.65404" lon="7.16103">
        <ele>282.3</ele>
        <time>2019-08-16T10:44:01Z</time>
      </trkpt>
      <trkpt lat="47.65401" lon="7.16099">
        <ele>282.3</ele>
        <time>2019-08-16T10:44:02Z</time>
      </trkpt>
      <trkpt lat="47.65398" lon="7.16095">
        <ele>282.3</ele>
        <time>2019-08-16T10:44:03Z</time>
      </trkpt>
      <trkpt lat="47.65395" lon="7.1609">
        <ele>282.3</ele>
        <time>2019-08-16T10:44:04Z</time>
      </trkpt>
      <trkpt lat="47.65392" lon="7.16085">
        <ele>282.4</ele>
        <time>2019-08-16T10:44:05Z</time>
      </trkpt>
      <trkpt lat="47.65389" lon="7.16079">
        <ele>282.4</ele>
        <time>2019-08-16T10:44:06Z</time>
      </trkpt>
      <trkpt lat="47.65386" lon="7.16074">
        <ele>282.4</ele>
        <time>2019-08-16T10:44:07Z</time>
      </trkpt>
      <trkpt lat="47.65384" lon="7.16068">
        <ele>282.2</ele>
        <time>2019-08-16T10:44:08Z</time>
      </trkpt>
      <trkpt lat="47.65381" lon="7.16062">
        <ele>282</ele>
        <time>2019-08-16T10:44:09Z</time>
      </trkpt>
      <trkpt lat="47.65379" lon="7.16056">
        <ele>281.8</ele>
        <time>2019-08-16T10:44:10Z</time>
      </trkpt>
      <trkpt lat="47.65376" lon="7.1605">
        <ele>281.7</ele>
        <time>2019-08-16T10:44:11Z</time>
      </trkpt>
      <trkpt lat="47.65374" lon="7.16044">
        <ele>281.5</ele>
        <time>2019-08-16T10:44:12Z</time>
      </trkpt>
      <trkpt lat="47.65372" lon="7.16038">
        <ele>281.4</ele>
        <time>2019-08-16T10:44:13Z</time>
      </trkpt>
      <trkpt lat="47.6537" lon="7.16032">
        <ele>281.2</ele>
        <time>2019-08-16T10:44:14Z</time>
      </trkpt>
      <trkpt lat="47.65368" lon="7.16027">
        <ele>281.1</ele>
        <time>2019-08-16T10:44:15Z</time>
      </trkpt>
      <trkpt lat="47.65366" lon="7.16021">
        <ele>281</ele>
        <time>2019-08-16T10:44:16Z</time>
      </trkpt>
      <trkpt lat="47.65363" lon="7.16015">
        <ele>280.8</ele>
        <time>2019-08-16T10:44:17Z</time>
      </trkpt>
      <trkpt lat="47.65361" lon="7.16009">
        <ele>280.6</ele>
        <time>2019-08-16T10:44:18Z</time>
      </trkpt>
      <trkpt lat="47.6536" lon="7.16003">
        <ele>280.5</ele>
        <time>2019-08-16T10:44:19Z</time>
      </trkpt>
      <trkpt lat="47.65358" lon="7.15998">
        <ele>280.4</ele>
        <time>2019-08-16T10:44:20Z</time>
      </trkpt>
      <trkpt lat="47.65357" lon="7.15993">
        <ele>280.3</ele>
        <time>2019-08-16T10:44:21Z</time>
      </trkpt>
      <trkpt lat="47.65356" lon="7.15988">
        <ele>280.2</ele>
        <time>2019-08-16T10:44:22Z</time>
      </trkpt>
      <trkpt lat="47.65355" lon="7.15984">
        <ele>280.1</ele>
        <time>2019-08-16T10:44:23Z</time>
      </trkpt>
      <trkpt lat="47.65354" lon="7.1598">
        <ele>280</ele>
        <time>2019-08-16T10:44:24Z</time>
      </trkpt>
      <trkpt lat="47.65353" lon="7.15976">
        <ele>280</ele>
        <time>2019-08-16T10:44:25Z</time>
      </trkpt>
      <trkpt lat="47.65352" lon="7.15971">
        <ele>280</ele>
        <time>2019-08-16T10:44:26Z</time>
      </trkpt>
      <trkpt lat="47.65351" lon="7.15966">
        <ele>280</ele>
        <time>2019-08-16T10:44:27Z</time>
      </trkpt>
      <trkpt lat="47.6535" lon="7.15961">
        <ele>280.1</ele>
        <time>2019-08-16T10:44:28Z</time>
      </trkpt>
      <trkpt lat="47.65349" lon="7.15955">
        <ele>280.1</ele>
        <time>2019-08-16T10:44:29Z</time>
      </trkpt>
      <trkpt lat="47.65348" lon="7.1595">
        <ele>280.1</ele>
        <time>2019-08-16T10:44:30Z</time>
      </trkpt>
      <trkpt lat="47.65347" lon="7.15945">
        <ele>280.1</ele>
        <time>2019-08-16T10:44:31Z</time>
      </trkpt>
      <trkpt lat="47.65346" lon="7.15939">
        <ele>280.2</ele>
        <time>2019-08-16T10:44:32Z</time>
      </trkpt>
      <trkpt lat="47.65345" lon="7.15934">
        <ele>280.2</ele>
        <time>2019-08-16T10:44:33Z</time>
      </trkpt>
      <trkpt lat="47.65344" lon="7.15928">
        <ele>280.2</ele>
        <time>2019-08-16T10:44:34Z</time>
      </trkpt>
      <trkpt lat="47.65344" lon="7.15922">
        <ele>280.3</ele>
        <time>2019-08-16T10:44:35Z</time>
      </trkpt>
      <trkpt lat="47.65343" lon="7.15917">
        <ele>280.3</ele>
        <time>2019-08-16T10:44:36Z</time>
      </trkpt>
      <trkpt lat="47.65343" lon="7.15911">
        <ele>280.3</ele>
        <time>2019-08-16T10:44:37Z</time>
      </trkpt>
      <trkpt lat="47.65342" lon="7.15905">
        <ele>280.4</ele>
        <time>2019-08-16T10:44:38Z</time>
      </trkpt>
      <trkpt lat="47.65341" lon="7.15899">
        <ele>280.4</ele>
        <time>2019-08-16T10:44:39Z</time>
      </trkpt>
      <trkpt lat="47.6534" lon="7.15893">
        <ele>280.5</ele>
        <time>2019-08-16T10:44:40Z</time>
      </trkpt>
      <trkpt lat="47.65338" lon="7.15887">
        <ele>280.5</ele>
        <time>2019-08-16T10:44:41Z</time>
      </trkpt>
      <trkpt lat="47.65337" lon="7.15882">
        <ele>280.5</ele>
        <time>2019-08-16T10:44:42Z</time>
      </trkpt>
      <trkpt lat="47.65336" lon="7.15876">
        <ele>280.5</ele>
        <time>2019-08-16T10:44:43Z</time>
      </trkpt>
      <trkpt lat="47.65334" lon="7.15871">
        <ele>280.6</ele>
        <time>2019-08-16T10:44:44Z</time>
      </trkpt>
      <trkpt lat="47.65332" lon="7.15865">
        <ele>280.6</ele>
        <time>2019-08-16T10:44:45Z</time>
      </trkpt>
      <trkpt lat="47.6533" lon="7.1586">
        <ele>280.6</ele>
        <time>2019-08-16T10:44:46Z</time>
      </trkpt>
      <trkpt lat="47.65328" lon="7.15854">
        <ele>280.5</ele>
        <time>2019-08-16T10:44:47Z</time>
      </trkpt>
      <trkpt lat="47.65327" lon="7.15849">
        <ele>280.5</ele>
        <time>2019-08-16T10:44:48Z</time>
      </trkpt>
      <trkpt lat="47.65325" lon="7.15843">
        <ele>280.5</ele>
        <time>2019-08-16T10:44:49Z</time>
      </trkpt>
      <trkpt lat="47.65324" lon="7.15837">
        <ele>280.5</ele>
        <time>2019-08-16T10:44:50Z</time>
      </trkpt>
      <trkpt lat="47.65323" lon="7.1583">
        <ele>280.5</ele>
        <time>2019-08-16T10:44:51Z</time>
      </trkpt>
      <trkpt lat="47.65321" lon="7.15824">
        <ele>280.5</ele>
        <time>2019-08-16T10:44:52Z</time>
      </trkpt>
      <trkpt lat="47.6532" lon="7.15817">
        <ele>280.5</ele>
        <time>2019-08-16T10:44:53Z</time>
      </trkpt>
      <trkpt lat="47.65319" lon="7.15812">
        <ele>280.5</ele>
        <time>2019-08-16T10:44:54Z</time>
      </trkpt>
      <trkpt lat="47.65317" lon="7.15806">
        <ele>280.5</ele>
        <time>2019-08-16T10:44:55Z</time>
      </trkpt>
      <trkpt lat="47.65316" lon="7.158">
        <ele>280.5</ele>
        <time>2019-08-16T10:44:56Z</time>
      </trkpt>
      <trkpt lat="47.65314" lon="7.15794">
        <ele>280.5</ele>
        <time>2019-08-16T10:44:57Z</time>
      </trkpt>
      <trkpt lat="47.65313" lon="7.15789">
        <ele>280.6</ele>
        <time>2019-08-16T10:44:58Z</time>
      </trkpt>
      <trkpt lat="47.65312" lon="7.15784">
        <ele>280.6</ele>
        <time>2019-08-16T10:44:59Z</time>
      </trkpt>
      <trkpt lat="47.65311" lon="7.15779">
        <ele>280.6</ele>
        <time>2019-08-16T10:45:00Z</time>
      </trkpt>
      <trkpt lat="47.65309" lon="7.15775">
        <ele>280.6</ele>
        <time>2019-08-16T10:45:01Z</time>
      </trkpt>
      <trkpt lat="47.65308" lon="7.15769">
        <ele>280.6</ele>
        <time>2019-08-16T10:45:02Z</time>
      </trkpt>
      <trkpt lat="47.65307" lon="7.15764">
        <ele>280.7</ele>
        <time>2019-08-16T10:45:03Z</time>
      </trkpt>
      <trkpt lat="47.65305" lon="7.15758">
        <ele>280.7</ele>
        <time>2019-08-16T10:45:04Z</time>
      </trkpt>
      <trkpt lat="47.65304" lon="7.15752">
        <ele>280.7</ele>
        <time>2019-08-16T10:45:05Z</time>
      </trkpt>
      <trkpt lat="47.65303" lon="7.15746">
        <ele>280.7</ele>
        <time>2019-08-16T10:45:06Z</time>
      </trkpt>
      <trkpt lat="47.65301" lon="7.1574">
        <ele>280.7</ele>
        <time>2019-08-16T10:45:07Z</time>
      </trkpt>
      <trkpt lat="47.653" lon="7.15735">
        <ele>280.7</ele>
        <time>2019-08-16T10:45:08Z</time>
      </trkpt>
      <trkpt lat="47.65298" lon="7.15729">
        <ele>280.7</ele>
        <time>2019-08-16T10:45:09Z</time>
      </trkpt>
      <trkpt lat="47.65297" lon="7.15723">
        <ele>280.7</ele>
        <time>2019-08-16T10:45:10Z</time>
      </trkpt>
      <trkpt lat="47.65295" lon="7.15717">
        <ele>280.7</ele>
        <time>2019-08-16T10:45:11Z</time>
      </trkpt>
      <trkpt lat="47.65294" lon="7.15711">
        <ele>280.7</ele>
        <time>2019-08-16T10:45:12Z</time>
      </trkpt>
      <trkpt lat="47.65293" lon="7.15705">
        <ele>280.7</ele>
        <time>2019-08-16T10:45:13Z</time>
      </trkpt>
      <trkpt lat="47.65292" lon="7.157">
        <ele>280.7</ele>
        <time>2019-08-16T10:45:14Z</time>
      </trkpt>
      <trkpt lat="47.65291" lon="7.15692">
        <ele>280.7</ele>
        <time>2019-08-16T10:45:15Z</time>
      </trkpt>
      <trkpt lat="47.65291" lon="7.15686">
        <ele>280.7</ele>
        <time>2019-08-16T10:45:16Z</time>
      </trkpt>
      <trkpt lat="47.6529" lon="7.15679">
        <ele>280.7</ele>
        <time>2019-08-16T10:45:17Z</time>
      </trkpt>
      <trkpt lat="47.65289" lon="7.15672">
        <ele>280.7</ele>
        <time>2019-08-16T10:45:18Z</time>
      </trkpt>
      <trkpt lat="47.65287" lon="7.15667">
        <ele>280.7</ele>
        <time>2019-08-16T10:45:19Z</time>
      </trkpt>
      <trkpt lat="47.65285" lon="7.15662">
        <ele>280.7</ele>
        <time>2019-08-16T10:45:20Z</time>
      </trkpt>
      <trkpt lat="47.65284" lon="7.15656">
        <ele>280.7</ele>
        <time>2019-08-16T10:45:21Z</time>
      </trkpt>
      <trkpt lat="47.65282" lon="7.1565">
        <ele>280.7</ele>
        <time>2019-08-16T10:45:22Z</time>
      </trkpt>
      <trkpt lat="47.65281" lon="7.15644">
        <ele>280.7</ele>
        <time>2019-08-16T10:45:23Z</time>
      </trkpt>
      <trkpt lat="47.65279" lon="7.15639">
        <ele>280.7</ele>
        <time>2019-08-16T10:45:24Z</time>
      </trkpt>
      <trkpt lat="47.65278" lon="7.15634">
        <ele>280.7</ele>
        <time>2019-08-16T10:45:25Z</time>
      </trkpt>
      <trkpt lat="47.65277" lon="7.15628">
        <ele>280.7</ele>
        <time>2019-08-16T10:45:26Z</time>
      </trkpt>
      <trkpt lat="47.65276" lon="7.15623">
        <ele>280.7</ele>
        <time>2019-08-16T10:45:27Z</time>
      </trkpt>
      <trkpt lat="47.65274" lon="7.15617">
        <ele>280.7</ele>
        <time>2019-08-16T10:45:28Z</time>
      </trkpt>
      <trkpt lat="47.65273" lon="7.1561">
        <ele>280.7</ele>
        <time>2019-08-16T10:45:29Z</time>
      </trkpt>
      <trkpt lat="47.65271" lon="7.15604">
        <ele>280.7</ele>
        <time>2019-08-16T10:45:30Z</time>
      </trkpt>
      <trkpt lat="47.65269" lon="7.15597">
        <ele>280.7</ele>
        <time>2019-08-16T10:45:31Z</time>
      </trkpt>
      <trkpt lat="47.65268" lon="7.15591">
        <ele>280.7</ele>
        <time>2019-08-16T10:45:32Z</time>
      </trkpt>
      <trkpt lat="47.65267" lon="7.15584">
        <ele>280.8</ele>
        <time>2019-08-16T10:45:33Z</time>
      </trkpt>
      <trkpt lat="47.65266" lon="7.15577">
        <ele>280.8</ele>
        <time>2019-08-16T10:45:34Z</time>
      </trkpt>
      <trkpt lat="47.65265" lon="7.15571">
        <ele>280.8</ele>
        <time>2019-08-16T10:45:35Z</time>
      </trkpt>
      <trkpt lat="47.65263" lon="7.15565">
        <ele>280.8</ele>
        <time>2019-08-16T10:45:36Z</time>
      </trkpt>
      <trkpt lat="47.65262" lon="7.15558">
        <ele>280.8</ele>
        <time>2019-08-16T10:45:37Z</time>
      </trkpt>
      <trkpt lat="47.6526" lon="7.15551">
        <ele>280.8</ele>
        <time>2019-08-16T10:45:38Z</time>
      </trkpt>
      <trkpt lat="47.65258" lon="7.15544">
        <ele>280.9</ele>
        <time>2019-08-16T10:45:39Z</time>
      </trkpt>
      <trkpt lat="47.65257" lon="7.15538">
        <ele>280.9</ele>
        <time>2019-08-16T10:45:40Z</time>
      </trkpt>
      <trkpt lat="47.65255" lon="7.15532">
        <ele>280.8</ele>
        <time>2019-08-16T10:45:41Z</time>
      </trkpt>
      <trkpt lat="47.65253" lon="7.15526">
        <ele>280.8</ele>
        <time>2019-08-16T10:45:42Z</time>
      </trkpt>
      <trkpt lat="47.65252" lon="7.1552">
        <ele>280.8</ele>
        <time>2019-08-16T10:45:43Z</time>
      </trkpt>
      <trkpt lat="47.6525" lon="7.15514">
        <ele>280.8</ele>
        <time>2019-08-16T10:45:44Z</time>
      </trkpt>
      <trkpt lat="47.65249" lon="7.15508">
        <ele>280.8</ele>
        <time>2019-08-16T10:45:45Z</time>
      </trkpt>
      <trkpt lat="47.65247" lon="7.15502">
        <ele>280.8</ele>
        <time>2019-08-16T10:45:46Z</time>
      </trkpt>
      <trkpt lat="47.65246" lon="7.15496">
        <ele>280.8</ele>
        <time>2019-08-16T10:45:47Z</time>
      </trkpt>
      <trkpt lat="47.65245" lon="7.1549">
        <ele>280.9</ele>
        <time>2019-08-16T10:45:48Z</time>
      </trkpt>
      <trkpt lat="47.65243" lon="7.15485">
        <ele>280.9</ele>
        <time>2019-08-16T10:45:49Z</time>
      </trkpt>
      <trkpt lat="47.65242" lon="7.15479">
        <ele>280.9</ele>
        <time>2019-08-16T10:45:50Z</time>
      </trkpt>
      <trkpt lat="47.6524" lon="7.15473">
        <ele>280.9</ele>
        <time>2019-08-16T10:45:51Z</time>
      </trkpt>
      <trkpt lat="47.65239" lon="7.15467">
        <ele>280.9</ele>
        <time>2019-08-16T10:45:52Z</time>
      </trkpt>
      <trkpt lat="47.65238" lon="7.1546">
        <ele>280.9</ele>
        <time>2019-08-16T10:45:53Z</time>
      </trkpt>
      <trkpt lat="47.65237" lon="7.15453">
        <ele>280.9</ele>
        <time>2019-08-16T10:45:54Z</time>
      </trkpt>
      <trkpt lat="47.65236" lon="7.15447">
        <ele>281</ele>
        <time>2019-08-16T10:45:55Z</time>
      </trkpt>
      <trkpt lat="47.65235" lon="7.15441">
        <ele>281</ele>
        <time>2019-08-16T10:45:56Z</time>
      </trkpt>
      <trkpt lat="47.65234" lon="7.15435">
        <ele>281</ele>
        <time>2019-08-16T10:45:57Z</time>
      </trkpt>
      <trkpt lat="47.65233" lon="7.15428">
        <ele>281</ele>
        <time>2019-08-16T10:45:58Z</time>
      </trkpt>
      <trkpt lat="47.65232" lon="7.15423">
        <ele>281</ele>
        <time>2019-08-16T10:45:59Z</time>
      </trkpt>
      <trkpt lat="47.65231" lon="7.15417">
        <ele>281</ele>
        <time>2019-08-16T10:46:00Z</time>
      </trkpt>
      <trkpt lat="47.6523" lon="7.15411">
        <ele>281</ele>
        <time>2019-08-16T10:46:01Z</time>
      </trkpt>
      <trkpt lat="47.65228" lon="7.15406">
        <ele>281</ele>
        <time>2019-08-16T10:46:02Z</time>
      </trkpt>
      <trkpt lat="47.65227" lon="7.154">
        <ele>281</ele>
        <time>2019-08-16T10:46:03Z</time>
      </trkpt>
      <trkpt lat="47.65226" lon="7.15395">
        <ele>281</ele>
        <time>2019-08-16T10:46:04Z</time>
      </trkpt>
      <trkpt lat="47.65225" lon="7.15389">
        <ele>281</ele>
        <time>2019-08-16T10:46:05Z</time>
      </trkpt>
      <trkpt lat="47.65224" lon="7.15383">
        <ele>281</ele>
        <time>2019-08-16T10:46:06Z</time>
      </trkpt>
      <trkpt lat="47.65222" lon="7.15377">
        <ele>281</ele>
        <time>2019-08-16T10:46:07Z</time>
      </trkpt>
      <trkpt lat="47.65221" lon="7.15371">
        <ele>281</ele>
        <time>2019-08-16T10:46:08Z</time>
      </trkpt>
      <trkpt lat="47.65219" lon="7.15365">
        <ele>281</ele>
        <time>2019-08-16T10:46:09Z</time>
      </trkpt>
      <trkpt lat="47.65218" lon="7.15358">
        <ele>281</ele>
        <time>2019-08-16T10:46:10Z</time>
      </trkpt>
      <trkpt lat="47.65216" lon="7.15352">
        <ele>281</ele>
        <time>2019-08-16T10:46:11Z</time>
      </trkpt>
      <trkpt lat="47.65215" lon="7.15347">
        <ele>281</ele>
        <time>2019-08-16T10:46:12Z</time>
      </trkpt>
      <trkpt lat="47.65214" lon="7.15341">
        <ele>281</ele>
        <time>2019-08-16T10:46:13Z</time>
      </trkpt>
      <trkpt lat="47.65213" lon="7.15335">
        <ele>280.9</ele>
        <time>2019-08-16T10:46:14Z</time>
      </trkpt>
      <trkpt lat="47.65212" lon="7.15329">
        <ele>280.9</ele>
        <time>2019-08-16T10:46:15Z</time>
      </trkpt>
      <trkpt lat="47.6521" lon="7.15323">
        <ele>280.9</ele>
        <time>2019-08-16T10:46:16Z</time>
      </trkpt>
      <trkpt lat="47.65209" lon="7.15317">
        <ele>280.9</ele>
        <time>2019-08-16T10:46:17Z</time>
      </trkpt>
      <trkpt lat="47.65208" lon="7.15311">
        <ele>280.9</ele>
        <time>2019-08-16T10:46:18Z</time>
      </trkpt>
      <trkpt lat="47.65207" lon="7.15304">
        <ele>280.9</ele>
        <time>2019-08-16T10:46:19Z</time>
      </trkpt>
      <trkpt lat="47.65206" lon="7.15297">
        <ele>280.9</ele>
        <time>2019-08-16T10:46:20Z</time>
      </trkpt>
      <trkpt lat="47.65205" lon="7.15291">
        <ele>280.9</ele>
        <time>2019-08-16T10:46:21Z</time>
      </trkpt>
      <trkpt lat="47.65204" lon="7.15285">
        <ele>281</ele>
        <time>2019-08-16T10:46:22Z</time>
      </trkpt>
      <trkpt lat="47.65204" lon="7.15278">
        <ele>281</ele>
        <time>2019-08-16T10:46:23Z</time>
      </trkpt>
      <trkpt lat="47.65203" lon="7.15273">
        <ele>281</ele>
        <time>2019-08-16T10:46:24Z</time>
      </trkpt>
      <trkpt lat="47.65201" lon="7.15268">
        <ele>281</ele>
        <time>2019-08-16T10:46:25Z</time>
      </trkpt>
      <trkpt lat="47.652" lon="7.15263">
        <ele>281</ele>
        <time>2019-08-16T10:46:26Z</time>
      </trkpt>
      <trkpt lat="47.65199" lon="7.15258">
        <ele>281</ele>
        <time>2019-08-16T10:46:27Z</time>
      </trkpt>
      <trkpt lat="47.65198" lon="7.15253">
        <ele>281</ele>
        <time>2019-08-16T10:46:28Z</time>
      </trkpt>
      <trkpt lat="47.65197" lon="7.15248">
        <ele>281</ele>
        <time>2019-08-16T10:46:29Z</time>
      </trkpt>
      <trkpt lat="47.65196" lon="7.15242">
        <ele>281</ele>
        <time>2019-08-16T10:46:30Z</time>
      </trkpt>
      <trkpt lat="47.65195" lon="7.15237">
        <ele>281</ele>
        <time>2019-08-16T10:46:31Z</time>
      </trkpt>
      <trkpt lat="47.65194" lon="7.15231">
        <ele>281</ele>
        <time>2019-08-16T10:46:32Z</time>
      </trkpt>
      <trkpt lat="47.65193" lon="7.15226">
        <ele>281</ele>
        <time>2019-08-16T10:46:33Z</time>
      </trkpt>
      <trkpt lat="47.65191" lon="7.15221">
        <ele>281</ele>
        <time>2019-08-16T10:46:34Z</time>
      </trkpt>
      <trkpt lat="47.6519" lon="7.15215">
        <ele>281</ele>
        <time>2019-08-16T10:46:35Z</time>
      </trkpt>
      <trkpt lat="47.65189" lon="7.15209">
        <ele>281</ele>
        <time>2019-08-16T10:46:36Z</time>
      </trkpt>
      <trkpt lat="47.65188" lon="7.15204">
        <ele>281</ele>
        <time>2019-08-16T10:46:37Z</time>
      </trkpt>
      <trkpt lat="47.65187" lon="7.15197">
        <ele>281</ele>
        <time>2019-08-16T10:46:38Z</time>
      </trkpt>
      <trkpt lat="47.65186" lon="7.15191">
        <ele>280.9</ele>
        <time>2019-08-16T10:46:39Z</time>
      </trkpt>
      <trkpt lat="47.65185" lon="7.15185">
        <ele>280.9</ele>
        <time>2019-08-16T10:46:40Z</time>
      </trkpt>
      <trkpt lat="47.65184" lon="7.15179">
        <ele>280.9</ele>
        <time>2019-08-16T10:46:41Z</time>
      </trkpt>
      <trkpt lat="47.65182" lon="7.15173">
        <ele>280.9</ele>
        <time>2019-08-16T10:46:42Z</time>
      </trkpt>
      <trkpt lat="47.65181" lon="7.15167">
        <ele>280.9</ele>
        <time>2019-08-16T10:46:43Z</time>
      </trkpt>
      <trkpt lat="47.6518" lon="7.15161">
        <ele>281</ele>
        <time>2019-08-16T10:46:44Z</time>
      </trkpt>
      <trkpt lat="47.65179" lon="7.15154">
        <ele>281</ele>
        <time>2019-08-16T10:46:45Z</time>
      </trkpt>
      <trkpt lat="47.65177" lon="7.15148">
        <ele>281</ele>
        <time>2019-08-16T10:46:46Z</time>
      </trkpt>
      <trkpt lat="47.65175" lon="7.15142">
        <ele>281</ele>
        <time>2019-08-16T10:46:47Z</time>
      </trkpt>
      <trkpt lat="47.65173" lon="7.15136">
        <ele>281.1</ele>
        <time>2019-08-16T10:46:48Z</time>
      </trkpt>
      <trkpt lat="47.65171" lon="7.15129">
        <ele>281.1</ele>
        <time>2019-08-16T10:46:49Z</time>
      </trkpt>
      <trkpt lat="47.6517" lon="7.15123">
        <ele>281.1</ele>
        <time>2019-08-16T10:46:50Z</time>
      </trkpt>
      <trkpt lat="47.65169" lon="7.15117">
        <ele>281.1</ele>
        <time>2019-08-16T10:46:51Z</time>
      </trkpt>
      <trkpt lat="47.65168" lon="7.15112">
        <ele>281.1</ele>
        <time>2019-08-16T10:46:52Z</time>
      </trkpt>
      <trkpt lat="47.65168" lon="7.15106">
        <ele>281.1</ele>
        <time>2019-08-16T10:46:53Z</time>
      </trkpt>
      <trkpt lat="47.65167" lon="7.15101">
        <ele>281.1</ele>
        <time>2019-08-16T10:46:54Z</time>
      </trkpt>
      <trkpt lat="47.65165" lon="7.15094">
        <ele>281.1</ele>
        <time>2019-08-16T10:46:55Z</time>
      </trkpt>
      <trkpt lat="47.65163" lon="7.15088">
        <ele>281.1</ele>
        <time>2019-08-16T10:46:56Z</time>
      </trkpt>
      <trkpt lat="47.65161" lon="7.15081">
        <ele>281.1</ele>
        <time>2019-08-16T10:46:57Z</time>
      </trkpt>
      <trkpt lat="47.6516" lon="7.15074">
        <ele>281.1</ele>
        <time>2019-08-16T10:46:58Z</time>
      </trkpt>
      <trkpt lat="47.65158" lon="7.15067">
        <ele>281.1</ele>
        <time>2019-08-16T10:46:59Z</time>
      </trkpt>
      <trkpt lat="47.65157" lon="7.1506">
        <ele>281.2</ele>
        <time>2019-08-16T10:47:00Z</time>
      </trkpt>
      <trkpt lat="47.65155" lon="7.15055">
        <ele>281.2</ele>
        <time>2019-08-16T10:47:01Z</time>
      </trkpt>
      <trkpt lat="47.65154" lon="7.15049">
        <ele>281.2</ele>
        <time>2019-08-16T10:47:02Z</time>
      </trkpt>
      <trkpt lat="47.65153" lon="7.15043">
        <ele>281.3</ele>
        <time>2019-08-16T10:47:03Z</time>
      </trkpt>
      <trkpt lat="47.65152" lon="7.15038">
        <ele>281.3</ele>
        <time>2019-08-16T10:47:04Z</time>
      </trkpt>
      <trkpt lat="47.65151" lon="7.15032">
        <ele>281.3</ele>
        <time>2019-08-16T10:47:05Z</time>
      </trkpt>
      <trkpt lat="47.6515" lon="7.15025">
        <ele>281.4</ele>
        <time>2019-08-16T10:47:06Z</time>
      </trkpt>
      <trkpt lat="47.65148" lon="7.15018">
        <ele>281.4</ele>
        <time>2019-08-16T10:47:07Z</time>
      </trkpt>
      <trkpt lat="47.65147" lon="7.15012">
        <ele>281.4</ele>
        <time>2019-08-16T10:47:08Z</time>
      </trkpt>
      <trkpt lat="47.65146" lon="7.15006">
        <ele>281.4</ele>
        <time>2019-08-16T10:47:09Z</time>
      </trkpt>
      <trkpt lat="47.65145" lon="7.15">
        <ele>281.5</ele>
        <time>2019-08-16T10:47:10Z</time>
      </trkpt>
      <trkpt lat="47.65144" lon="7.14993">
        <ele>281.5</ele>
        <time>2019-08-16T10:47:11Z</time>
      </trkpt>
      <trkpt lat="47.65143" lon="7.14986">
        <ele>281.6</ele>
        <time>2019-08-16T10:47:12Z</time>
      </trkpt>
      <trkpt lat="47.65143" lon="7.14979">
        <ele>281.7</ele>
        <time>2019-08-16T10:47:13Z</time>
      </trkpt>
      <trkpt lat="47.65142" lon="7.14973">
        <ele>281.7</ele>
        <time>2019-08-16T10:47:14Z</time>
      </trkpt>
      <trkpt lat="47.65141" lon="7.14967">
        <ele>281.8</ele>
        <time>2019-08-16T10:47:15Z</time>
      </trkpt>
      <trkpt lat="47.65141" lon="7.14961">
        <ele>281.8</ele>
        <time>2019-08-16T10:47:16Z</time>
      </trkpt>
      <trkpt lat="47.6514" lon="7.14955">
        <ele>281.9</ele>
        <time>2019-08-16T10:47:17Z</time>
      </trkpt>
      <trkpt lat="47.6514" lon="7.14949">
        <ele>281.9</ele>
        <time>2019-08-16T10:47:18Z</time>
      </trkpt>
      <trkpt lat="47.65139" lon="7.14942">
        <ele>281.9</ele>
        <time>2019-08-16T10:47:19Z</time>
      </trkpt>
      <trkpt lat="47.65138" lon="7.14936">
        <ele>281.8</ele>
        <time>2019-08-16T10:47:20Z</time>
      </trkpt>
      <trkpt lat="47.65137" lon="7.1493">
        <ele>281.8</ele>
        <time>2019-08-16T10:47:21Z</time>
      </trkpt>
      <trkpt lat="47.65136" lon="7.14923">
        <ele>281.7</ele>
        <time>2019-08-16T10:47:22Z</time>
      </trkpt>
      <trkpt lat="47.65135" lon="7.14917">
        <ele>281.7</ele>
        <time>2019-08-16T10:47:23Z</time>
      </trkpt>
      <trkpt lat="47.65134" lon="7.1491">
        <ele>281.7</ele>
        <time>2019-08-16T10:47:24Z</time>
      </trkpt>
      <trkpt lat="47.65133" lon="7.14904">
        <ele>281.6</ele>
        <time>2019-08-16T10:47:25Z</time>
      </trkpt>
      <trkpt lat="47.65132" lon="7.14898">
        <ele>281.6</ele>
        <time>2019-08-16T10:47:26Z</time>
      </trkpt>
      <trkpt lat="47.65131" lon="7.14892">
        <ele>281.6</ele>
        <time>2019-08-16T10:47:27Z</time>
      </trkpt>
      <trkpt lat="47.6513" lon="7.14886">
        <ele>281.6</ele>
        <time>2019-08-16T10:47:28Z</time>
      </trkpt>
      <trkpt lat="47.65129" lon="7.1488">
        <ele>281.6</ele>
        <time>2019-08-16T10:47:29Z</time>
      </trkpt>
      <trkpt lat="47.65128" lon="7.14873">
        <ele>281.6</ele>
        <time>2019-08-16T10:47:30Z</time>
      </trkpt>
      <trkpt lat="47.65126" lon="7.14867">
        <ele>281.5</ele>
        <time>2019-08-16T10:47:31Z</time>
      </trkpt>
      <trkpt lat="47.65125" lon="7.14861">
        <ele>281.5</ele>
        <time>2019-08-16T10:47:32Z</time>
      </trkpt>
      <trkpt lat="47.65124" lon="7.14855">
        <ele>281.5</ele>
        <time>2019-08-16T10:47:33Z</time>
      </trkpt>
      <trkpt lat="47.65123" lon="7.14849">
        <ele>281.5</ele>
        <time>2019-08-16T10:47:34Z</time>
      </trkpt>
      <trkpt lat="47.65122" lon="7.14843">
        <ele>281.5</ele>
        <time>2019-08-16T10:47:35Z</time>
      </trkpt>
      <trkpt lat="47.65121" lon="7.14838">
        <ele>281.5</ele>
        <time>2019-08-16T10:47:36Z</time>
      </trkpt>
      <trkpt lat="47.6512" lon="7.14832">
        <ele>281.4</ele>
        <time>2019-08-16T10:47:37Z</time>
      </trkpt>
      <trkpt lat="47.65119" lon="7.14826">
        <ele>281.4</ele>
        <time>2019-08-16T10:47:38Z</time>
      </trkpt>
      <trkpt lat="47.65118" lon="7.14819">
        <ele>281.4</ele>
        <time>2019-08-16T10:47:39Z</time>
      </trkpt>
      <trkpt lat="47.65116" lon="7.14812">
        <ele>281.4</ele>
        <time>2019-08-16T10:47:40Z</time>
      </trkpt>
      <trkpt lat="47.65114" lon="7.14805">
        <ele>281.4</ele>
        <time>2019-08-16T10:47:41Z</time>
      </trkpt>
      <trkpt lat="47.65113" lon="7.14798">
        <ele>281.4</ele>
        <time>2019-08-16T10:47:42Z</time>
      </trkpt>
      <trkpt lat="47.65112" lon="7.14792">
        <ele>281.4</ele>
        <time>2019-08-16T10:47:43Z</time>
      </trkpt>
      <trkpt lat="47.65111" lon="7.14785">
        <ele>281.4</ele>
        <time>2019-08-16T10:47:44Z</time>
      </trkpt>
      <trkpt lat="47.6511" lon="7.14779">
        <ele>281.4</ele>
        <time>2019-08-16T10:47:45Z</time>
      </trkpt>
      <trkpt lat="47.65109" lon="7.14772">
        <ele>281.4</ele>
        <time>2019-08-16T10:47:46Z</time>
      </trkpt>
      <trkpt lat="47.65108" lon="7.14767">
        <ele>281.4</ele>
        <time>2019-08-16T10:47:47Z</time>
      </trkpt>
      <trkpt lat="47.65107" lon="7.14761">
        <ele>281.4</ele>
        <time>2019-08-16T10:47:48Z</time>
      </trkpt>
      <trkpt lat="47.65106" lon="7.14755">
        <ele>281.4</ele>
        <time>2019-08-16T10:47:49Z</time>
      </trkpt>
      <trkpt lat="47.65105" lon="7.14749">
        <ele>281.4</ele>
        <time>2019-08-16T10:47:50Z</time>
      </trkpt>
      <trkpt lat="47.65104" lon="7.14744">
        <ele>281.4</ele>
        <time>2019-08-16T10:47:51Z</time>
      </trkpt>
      <trkpt lat="47.65102" lon="7.14738">
        <ele>281.4</ele>
        <time>2019-08-16T10:47:52Z</time>
      </trkpt>
      <trkpt lat="47.65101" lon="7.14733">
        <ele>281.5</ele>
        <time>2019-08-16T10:47:53Z</time>
      </trkpt>
      <trkpt lat="47.651" lon="7.14727">
        <ele>281.6</ele>
        <time>2019-08-16T10:47:54Z</time>
      </trkpt>
      <trkpt lat="47.65097" lon="7.14721">
        <ele>281.6</ele>
        <time>2019-08-16T10:47:55Z</time>
      </trkpt>
      <trkpt lat="47.65095" lon="7.14715">
        <ele>281.8</ele>
        <time>2019-08-16T10:47:56Z</time>
      </trkpt>
      <trkpt lat="47.65094" lon="7.14709">
        <ele>281.9</ele>
        <time>2019-08-16T10:47:57Z</time>
      </trkpt>
      <trkpt lat="47.65092" lon="7.14704">
        <ele>282</ele>
        <time>2019-08-16T10:47:58Z</time>
      </trkpt>
      <trkpt lat="47.65091" lon="7.14699">
        <ele>282.1</ele>
        <time>2019-08-16T10:47:59Z</time>
      </trkpt>
      <trkpt lat="47.6509" lon="7.14693">
        <ele>282.2</ele>
        <time>2019-08-16T10:48:00Z</time>
      </trkpt>
      <trkpt lat="47.65089" lon="7.14687">
        <ele>282.3</ele>
        <time>2019-08-16T10:48:01Z</time>
      </trkpt>
      <trkpt lat="47.65087" lon="7.14681">
        <ele>282.4</ele>
        <time>2019-08-16T10:48:02Z</time>
      </trkpt>
      <trkpt lat="47.65086" lon="7.14675">
        <ele>282.5</ele>
        <time>2019-08-16T10:48:03Z</time>
      </trkpt>
      <trkpt lat="47.65085" lon="7.14669">
        <ele>282.6</ele>
        <time>2019-08-16T10:48:04Z</time>
      </trkpt>
      <trkpt lat="47.65083" lon="7.14663">
        <ele>282.7</ele>
        <time>2019-08-16T10:48:05Z</time>
      </trkpt>
      <trkpt lat="47.65082" lon="7.14656">
        <ele>282.8</ele>
        <time>2019-08-16T10:48:06Z</time>
      </trkpt>
      <trkpt lat="47.65081" lon="7.1465">
        <ele>282.8</ele>
        <time>2019-08-16T10:48:07Z</time>
      </trkpt>
      <trkpt lat="47.65079" lon="7.14644">
        <ele>282.9</ele>
        <time>2019-08-16T10:48:08Z</time>
      </trkpt>
      <trkpt lat="47.65077" lon="7.14638">
        <ele>282.9</ele>
        <time>2019-08-16T10:48:09Z</time>
      </trkpt>
      <trkpt lat="47.65076" lon="7.14632">
        <ele>282.9</ele>
        <time>2019-08-16T10:48:10Z</time>
      </trkpt>
      <trkpt lat="47.65075" lon="7.14626">
        <ele>282.9</ele>
        <time>2019-08-16T10:48:11Z</time>
      </trkpt>
      <trkpt lat="47.65074" lon="7.1462">
        <ele>282.9</ele>
        <time>2019-08-16T10:48:12Z</time>
      </trkpt>
      <trkpt lat="47.65073" lon="7.14614">
        <ele>282.9</ele>
        <time>2019-08-16T10:48:13Z</time>
      </trkpt>
      <trkpt lat="47.65071" lon="7.14607">
        <ele>282.9</ele>
        <time>2019-08-16T10:48:14Z</time>
      </trkpt>
      <trkpt lat="47.6507" lon="7.14601">
        <ele>282.9</ele>
        <time>2019-08-16T10:48:15Z</time>
      </trkpt>
      <trkpt lat="47.65069" lon="7.14595">
        <ele>282.9</ele>
        <time>2019-08-16T10:48:16Z</time>
      </trkpt>
      <trkpt lat="47.65068" lon="7.14589">
        <ele>282.9</ele>
        <time>2019-08-16T10:48:17Z</time>
      </trkpt>
      <trkpt lat="47.65067" lon="7.14583">
        <ele>282.9</ele>
        <time>2019-08-16T10:48:18Z</time>
      </trkpt>
      <trkpt lat="47.65066" lon="7.14576">
        <ele>282.8</ele>
        <time>2019-08-16T10:48:19Z</time>
      </trkpt>
      <trkpt lat="47.65066" lon="7.1457">
        <ele>282.8</ele>
        <time>2019-08-16T10:48:20Z</time>
      </trkpt>
      <trkpt lat="47.65065" lon="7.14564">
        <ele>282.8</ele>
        <time>2019-08-16T10:48:21Z</time>
      </trkpt>
      <trkpt lat="47.65064" lon="7.14558">
        <ele>282.8</ele>
        <time>2019-08-16T10:48:22Z</time>
      </trkpt>
      <trkpt lat="47.65061" lon="7.14552">
        <ele>282.8</ele>
        <time>2019-08-16T10:48:23Z</time>
      </trkpt>
      <trkpt lat="47.65059" lon="7.14546">
        <ele>282.8</ele>
        <time>2019-08-16T10:48:24Z</time>
      </trkpt>
      <trkpt lat="47.65058" lon="7.1454">
        <ele>282.8</ele>
        <time>2019-08-16T10:48:25Z</time>
      </trkpt>
      <trkpt lat="47.65057" lon="7.14534">
        <ele>282.7</ele>
        <time>2019-08-16T10:48:26Z</time>
      </trkpt>
      <trkpt lat="47.65056" lon="7.14527">
        <ele>282.7</ele>
        <time>2019-08-16T10:48:27Z</time>
      </trkpt>
      <trkpt lat="47.65054" lon="7.14521">
        <ele>282.7</ele>
        <time>2019-08-16T10:48:28Z</time>
      </trkpt>
      <trkpt lat="47.65053" lon="7.14515">
        <ele>282.7</ele>
        <time>2019-08-16T10:48:29Z</time>
      </trkpt>
      <trkpt lat="47.65052" lon="7.1451">
        <ele>282.7</ele>
        <time>2019-08-16T10:48:30Z</time>
      </trkpt>
      <trkpt lat="47.65051" lon="7.14504">
        <ele>282.7</ele>
        <time>2019-08-16T10:48:31Z</time>
      </trkpt>
      <trkpt lat="47.65049" lon="7.14498">
        <ele>282.7</ele>
        <time>2019-08-16T10:48:32Z</time>
      </trkpt>
      <trkpt lat="47.65048" lon="7.14492">
        <ele>282.7</ele>
        <time>2019-08-16T10:48:33Z</time>
      </trkpt>
      <trkpt lat="47.65047" lon="7.14486">
        <ele>282.6</ele>
        <time>2019-08-16T10:48:34Z</time>
      </trkpt>
      <trkpt lat="47.65046" lon="7.1448">
        <ele>282.6</ele>
        <time>2019-08-16T10:48:35Z</time>
      </trkpt>
      <trkpt lat="47.65045" lon="7.14474">
        <ele>282.6</ele>
        <time>2019-08-16T10:48:36Z</time>
      </trkpt>
      <trkpt lat="47.65045" lon="7.14468">
        <ele>282.6</ele>
        <time>2019-08-16T10:48:37Z</time>
      </trkpt>
      <trkpt lat="47.65043" lon="7.14461">
        <ele>282.6</ele>
        <time>2019-08-16T10:48:38Z</time>
      </trkpt>
      <trkpt lat="47.65042" lon="7.14455">
        <ele>282.6</ele>
        <time>2019-08-16T10:48:39Z</time>
      </trkpt>
      <trkpt lat="47.65041" lon="7.14448">
        <ele>282.6</ele>
        <time>2019-08-16T10:48:40Z</time>
      </trkpt>
      <trkpt lat="47.65039" lon="7.14441">
        <ele>282.5</ele>
        <time>2019-08-16T10:48:41Z</time>
      </trkpt>
      <trkpt lat="47.65038" lon="7.14434">
        <ele>282.5</ele>
        <time>2019-08-16T10:48:42Z</time>
      </trkpt>
      <trkpt lat="47.65036" lon="7.14427">
        <ele>282.5</ele>
        <time>2019-08-16T10:48:43Z</time>
      </trkpt>
      <trkpt lat="47.65034" lon="7.1442">
        <ele>282.5</ele>
        <time>2019-08-16T10:48:44Z</time>
      </trkpt>
      <trkpt lat="47.65033" lon="7.14413">
        <ele>282.5</ele>
        <time>2019-08-16T10:48:45Z</time>
      </trkpt>
      <trkpt lat="47.65032" lon="7.14407">
        <ele>282.5</ele>
        <time>2019-08-16T10:48:46Z</time>
      </trkpt>
      <trkpt lat="47.65031" lon="7.144">
        <ele>282.5</ele>
        <time>2019-08-16T10:48:47Z</time>
      </trkpt>
      <trkpt lat="47.6503" lon="7.14393">
        <ele>282.5</ele>
        <time>2019-08-16T10:48:48Z</time>
      </trkpt>
      <trkpt lat="47.65029" lon="7.14386">
        <ele>282.4</ele>
        <time>2019-08-16T10:48:49Z</time>
      </trkpt>
      <trkpt lat="47.65028" lon="7.14379">
        <ele>282.4</ele>
        <time>2019-08-16T10:48:50Z</time>
      </trkpt>
      <trkpt lat="47.65027" lon="7.14372">
        <ele>282.4</ele>
        <time>2019-08-16T10:48:51Z</time>
      </trkpt>
      <trkpt lat="47.65026" lon="7.14366">
        <ele>282.4</ele>
        <time>2019-08-16T10:48:52Z</time>
      </trkpt>
      <trkpt lat="47.65024" lon="7.14359">
        <ele>282.4</ele>
        <time>2019-08-16T10:48:53Z</time>
      </trkpt>
      <trkpt lat="47.65023" lon="7.14352">
        <ele>282.4</ele>
        <time>2019-08-16T10:48:54Z</time>
      </trkpt>
      <trkpt lat="47.65022" lon="7.14346">
        <ele>282.4</ele>
        <time>2019-08-16T10:48:55Z</time>
      </trkpt>
      <trkpt lat="47.65021" lon="7.14339">
        <ele>282.3</ele>
        <time>2019-08-16T10:48:56Z</time>
      </trkpt>
      <trkpt lat="47.65019" lon="7.14333">
        <ele>282.3</ele>
        <time>2019-08-16T10:48:57Z</time>
      </trkpt>
      <trkpt lat="47.65018" lon="7.14326">
        <ele>282.3</ele>
        <time>2019-08-16T10:48:58Z</time>
      </trkpt>
      <trkpt lat="47.65017" lon="7.1432">
        <ele>282.3</ele>
        <time>2019-08-16T10:48:59Z</time>
      </trkpt>
      <trkpt lat="47.65016" lon="7.14313">
        <ele>282.3</ele>
        <time>2019-08-16T10:49:00Z</time>
      </trkpt>
      <trkpt lat="47.65015" lon="7.14307">
        <ele>282.3</ele>
        <time>2019-08-16T10:49:01Z</time>
      </trkpt>
      <trkpt lat="47.65013" lon="7.14301">
        <ele>282.3</ele>
        <time>2019-08-16T10:49:02Z</time>
      </trkpt>
      <trkpt lat="47.65012" lon="7.14295">
        <ele>282.2</ele>
        <time>2019-08-16T10:49:03Z</time>
      </trkpt>
      <trkpt lat="47.65011" lon="7.14289">
        <ele>282.2</ele>
        <time>2019-08-16T10:49:04Z</time>
      </trkpt>
      <trkpt lat="47.6501" lon="7.14282">
        <ele>282.2</ele>
        <time>2019-08-16T10:49:05Z</time>
      </trkpt>
      <trkpt lat="47.65008" lon="7.14276">
        <ele>282.2</ele>
        <time>2019-08-16T10:49:06Z</time>
      </trkpt>
      <trkpt lat="47.65008" lon="7.1427">
        <ele>282.2</ele>
        <time>2019-08-16T10:49:07Z</time>
      </trkpt>
      <trkpt lat="47.65007" lon="7.14263">
        <ele>282.2</ele>
        <time>2019-08-16T10:49:08Z</time>
      </trkpt>
      <trkpt lat="47.65006" lon="7.14256">
        <ele>282.2</ele>
        <time>2019-08-16T10:49:09Z</time>
      </trkpt>
      <trkpt lat="47.65005" lon="7.14249">
        <ele>282.1</ele>
        <time>2019-08-16T10:49:10Z</time>
      </trkpt>
      <trkpt lat="47.65005" lon="7.14242">
        <ele>282.1</ele>
        <time>2019-08-16T10:49:11Z</time>
      </trkpt>
      <trkpt lat="47.65004" lon="7.14235">
        <ele>282.1</ele>
        <time>2019-08-16T10:49:12Z</time>
      </trkpt>
      <trkpt lat="47.65002" lon="7.14229">
        <ele>282.1</ele>
        <time>2019-08-16T10:49:13Z</time>
      </trkpt>
      <trkpt lat="47.65001" lon="7.14221">
        <ele>282.1</ele>
        <time>2019-08-16T10:49:14Z</time>
      </trkpt>
      <trkpt lat="47.65" lon="7.14213">
        <ele>282.1</ele>
        <time>2019-08-16T10:49:15Z</time>
      </trkpt>
      <trkpt lat="47.64999" lon="7.14206">
        <ele>282.1</ele>
        <time>2019-08-16T10:49:16Z</time>
      </trkpt>
      <trkpt lat="47.64997" lon="7.14199">
        <ele>282</ele>
        <time>2019-08-16T10:49:17Z</time>
      </trkpt>
      <trkpt lat="47.64996" lon="7.14192">
        <ele>282</ele>
        <time>2019-08-16T10:49:18Z</time>
      </trkpt>
      <trkpt lat="47.64995" lon="7.14185">
        <ele>282</ele>
        <time>2019-08-16T10:49:19Z</time>
      </trkpt>
      <trkpt lat="47.64994" lon="7.14178">
        <ele>282</ele>
        <time>2019-08-16T10:49:20Z</time>
      </trkpt>
      <trkpt lat="47.64992" lon="7.14171">
        <ele>282</ele>
        <time>2019-08-16T10:49:21Z</time>
      </trkpt>
      <trkpt lat="47.64991" lon="7.14165">
        <ele>282</ele>
        <time>2019-08-16T10:49:22Z</time>
      </trkpt>
      <trkpt lat="47.6499" lon="7.14158">
        <ele>281.9</ele>
        <time>2019-08-16T10:49:23Z</time>
      </trkpt>
      <trkpt lat="47.64989" lon="7.14152">
        <ele>281.9</ele>
        <time>2019-08-16T10:49:24Z</time>
      </trkpt>
      <trkpt lat="47.64988" lon="7.14147">
        <ele>281.9</ele>
        <time>2019-08-16T10:49:25Z</time>
      </trkpt>
      <trkpt lat="47.64987" lon="7.14141">
        <ele>281.9</ele>
        <time>2019-08-16T10:49:26Z</time>
      </trkpt>
      <trkpt lat="47.64985" lon="7.14135">
        <ele>281.9</ele>
        <time>2019-08-16T10:49:27Z</time>
      </trkpt>
      <trkpt lat="47.64984" lon="7.14129">
        <ele>281.9</ele>
        <time>2019-08-16T10:49:28Z</time>
      </trkpt>
      <trkpt lat="47.64983" lon="7.14123">
        <ele>281.9</ele>
        <time>2019-08-16T10:49:29Z</time>
      </trkpt>
      <trkpt lat="47.64983" lon="7.14118">
        <ele>281.9</ele>
        <time>2019-08-16T10:49:30Z</time>
      </trkpt>
      <trkpt lat="47.64982" lon="7.14113">
        <ele>281.9</ele>
        <time>2019-08-16T10:49:31Z</time>
      </trkpt>
      <trkpt lat="47.64981" lon="7.14108">
        <ele>281.9</ele>
        <time>2019-08-16T10:49:32Z</time>
      </trkpt>
      <trkpt lat="47.64981" lon="7.14103">
        <ele>281.9</ele>
        <time>2019-08-16T10:49:33Z</time>
      </trkpt>
      <trkpt lat="47.64981" lon="7.14098">
        <ele>281.9</ele>
        <time>2019-08-16T10:49:34Z</time>
      </trkpt>
      <trkpt lat="47.6498" lon="7.14092">
        <ele>281.9</ele>
        <time>2019-08-16T10:49:35Z</time>
      </trkpt>
      <trkpt lat="47.6498" lon="7.14087">
        <ele>281.9</ele>
        <time>2019-08-16T10:49:36Z</time>
      </trkpt>
      <trkpt lat="47.6498" lon="7.14081">
        <ele>281.9</ele>
        <time>2019-08-16T10:49:37Z</time>
      </trkpt>
      <trkpt lat="47.64979" lon="7.14074">
        <ele>282</ele>
        <time>2019-08-16T10:49:38Z</time>
      </trkpt>
      <trkpt lat="47.64979" lon="7.14068">
        <ele>282.1</ele>
        <time>2019-08-16T10:49:39Z</time>
      </trkpt>
      <trkpt lat="47.64979" lon="7.14062">
        <ele>282.1</ele>
        <time>2019-08-16T10:49:40Z</time>
      </trkpt>
      <trkpt lat="47.64979" lon="7.14056">
        <ele>282.2</ele>
        <time>2019-08-16T10:49:41Z</time>
      </trkpt>
      <trkpt lat="47.64978" lon="7.1405">
        <ele>282.3</ele>
        <time>2019-08-16T10:49:42Z</time>
      </trkpt>
      <trkpt lat="47.64978" lon="7.14044">
        <ele>282.5</ele>
        <time>2019-08-16T10:49:43Z</time>
      </trkpt>
      <trkpt lat="47.64977" lon="7.14037">
        <ele>282.6</ele>
        <time>2019-08-16T10:49:44Z</time>
      </trkpt>
      <trkpt lat="47.64975" lon="7.14032">
        <ele>282.7</ele>
        <time>2019-08-16T10:49:45Z</time>
      </trkpt>
      <trkpt lat="47.64974" lon="7.14027">
        <ele>282.8</ele>
        <time>2019-08-16T10:49:46Z</time>
      </trkpt>
      <trkpt lat="47.64972" lon="7.14022">
        <ele>283</ele>
        <time>2019-08-16T10:49:47Z</time>
      </trkpt>
      <trkpt lat="47.64971" lon="7.14018">
        <ele>283.1</ele>
        <time>2019-08-16T10:49:48Z</time>
      </trkpt>
      <trkpt lat="47.6497" lon="7.14013">
        <ele>283.2</ele>
        <time>2019-08-16T10:49:49Z</time>
      </trkpt>
      <trkpt lat="47.64969" lon="7.14009">
        <ele>283.3</ele>
        <time>2019-08-16T10:49:50Z</time>
      </trkpt>
      <trkpt lat="47.64968" lon="7.14003">
        <ele>283.4</ele>
        <time>2019-08-16T10:49:51Z</time>
      </trkpt>
      <trkpt lat="47.64968" lon="7.13998">
        <ele>283.4</ele>
        <time>2019-08-16T10:49:52Z</time>
      </trkpt>
      <trkpt lat="47.64967" lon="7.13992">
        <ele>283.5</ele>
        <time>2019-08-16T10:49:53Z</time>
      </trkpt>
      <trkpt lat="47.64967" lon="7.13986">
        <ele>283.6</ele>
        <time>2019-08-16T10:49:54Z</time>
      </trkpt>
      <trkpt lat="47.64966" lon="7.1398">
        <ele>283.6</ele>
        <time>2019-08-16T10:49:55Z</time>
      </trkpt>
      <trkpt lat="47.64964" lon="7.13974">
        <ele>283.6</ele>
        <time>2019-08-16T10:49:56Z</time>
      </trkpt>
      <trkpt lat="47.64963" lon="7.13968">
        <ele>283.6</ele>
        <time>2019-08-16T10:49:57Z</time>
      </trkpt>
      <trkpt lat="47.64962" lon="7.13961">
        <ele>283.6</ele>
        <time>2019-08-16T10:49:58Z</time>
      </trkpt>
      <trkpt lat="47.6496" lon="7.13955">
        <ele>283.6</ele>
        <time>2019-08-16T10:49:59Z</time>
      </trkpt>
      <trkpt lat="47.64958" lon="7.13949">
        <ele>283.6</ele>
        <time>2019-08-16T10:50:00Z</time>
      </trkpt>
      <trkpt lat="47.64957" lon="7.13941">
        <ele>283.6</ele>
        <time>2019-08-16T10:50:01Z</time>
      </trkpt>
      <trkpt lat="47.64956" lon="7.13934">
        <ele>283.6</ele>
        <time>2019-08-16T10:50:02Z</time>
      </trkpt>
      <trkpt lat="47.64954" lon="7.13927">
        <ele>283.6</ele>
        <time>2019-08-16T10:50:03Z</time>
      </trkpt>
      <trkpt lat="47.64953" lon="7.13921">
        <ele>283.5</ele>
        <time>2019-08-16T10:50:04Z</time>
      </trkpt>
      <trkpt lat="47.64952" lon="7.13914">
        <ele>283.5</ele>
        <time>2019-08-16T10:50:05Z</time>
      </trkpt>
      <trkpt lat="47.6495" lon="7.13908">
        <ele>283.5</ele>
        <time>2019-08-16T10:50:06Z</time>
      </trkpt>
      <trkpt lat="47.64949" lon="7.13901">
        <ele>283.5</ele>
        <time>2019-08-16T10:50:07Z</time>
      </trkpt>
      <trkpt lat="47.64947" lon="7.13895">
        <ele>283.5</ele>
        <time>2019-08-16T10:50:08Z</time>
      </trkpt>
      <trkpt lat="47.64946" lon="7.13888">
        <ele>283.5</ele>
        <time>2019-08-16T10:50:09Z</time>
      </trkpt>
      <trkpt lat="47.64944" lon="7.13882">
        <ele>283.5</ele>
        <time>2019-08-16T10:50:10Z</time>
      </trkpt>
      <trkpt lat="47.64943" lon="7.13876">
        <ele>283.5</ele>
        <time>2019-08-16T10:50:11Z</time>
      </trkpt>
      <trkpt lat="47.64942" lon="7.13869">
        <ele>283.6</ele>
        <time>2019-08-16T10:50:12Z</time>
      </trkpt>
      <trkpt lat="47.6494" lon="7.13862">
        <ele>283.6</ele>
        <time>2019-08-16T10:50:13Z</time>
      </trkpt>
      <trkpt lat="47.64939" lon="7.13856">
        <ele>283.6</ele>
        <time>2019-08-16T10:50:14Z</time>
      </trkpt>
      <trkpt lat="47.64937" lon="7.1385">
        <ele>283.6</ele>
        <time>2019-08-16T10:50:15Z</time>
      </trkpt>
      <trkpt lat="47.64936" lon="7.13844">
        <ele>283.6</ele>
        <time>2019-08-16T10:50:16Z</time>
      </trkpt>
      <trkpt lat="47.64934" lon="7.13838">
        <ele>283.6</ele>
        <time>2019-08-16T10:50:17Z</time>
      </trkpt>
      <trkpt lat="47.64933" lon="7.13832">
        <ele>283.6</ele>
        <time>2019-08-16T10:50:18Z</time>
      </trkpt>
      <trkpt lat="47.64931" lon="7.13825">
        <ele>283.6</ele>
        <time>2019-08-16T10:50:19Z</time>
      </trkpt>
      <trkpt lat="47.6493" lon="7.13819">
        <ele>283.6</ele>
        <time>2019-08-16T10:50:20Z</time>
      </trkpt>
      <trkpt lat="47.64928" lon="7.13813">
        <ele>283.6</ele>
        <time>2019-08-16T10:50:21Z</time>
      </trkpt>
      <trkpt lat="47.64927" lon="7.13807">
        <ele>283.6</ele>
        <time>2019-08-16T10:50:22Z</time>
      </trkpt>
      <trkpt lat="47.64925" lon="7.13801">
        <ele>283.6</ele>
        <time>2019-08-16T10:50:23Z</time>
      </trkpt>
      <trkpt lat="47.64924" lon="7.13795">
        <ele>283.6</ele>
        <time>2019-08-16T10:50:24Z</time>
      </trkpt>
      <trkpt lat="47.64923" lon="7.13788">
        <ele>283.6</ele>
        <time>2019-08-16T10:50:25Z</time>
      </trkpt>
      <trkpt lat="47.64921" lon="7.13781">
        <ele>283.6</ele>
        <time>2019-08-16T10:50:26Z</time>
      </trkpt>
      <trkpt lat="47.64919" lon="7.13774">
        <ele>283.6</ele>
        <time>2019-08-16T10:50:27Z</time>
      </trkpt>
      <trkpt lat="47.64918" lon="7.13768">
        <ele>283.6</ele>
        <time>2019-08-16T10:50:28Z</time>
      </trkpt>
      <trkpt lat="47.64916" lon="7.13761">
        <ele>283.6</ele>
        <time>2019-08-16T10:50:29Z</time>
      </trkpt>
      <trkpt lat="47.64915" lon="7.13754">
        <ele>283.5</ele>
        <time>2019-08-16T10:50:30Z</time>
      </trkpt>
      <trkpt lat="47.64914" lon="7.13748">
        <ele>283.5</ele>
        <time>2019-08-16T10:50:31Z</time>
      </trkpt>
      <trkpt lat="47.64912" lon="7.13742">
        <ele>283.4</ele>
        <time>2019-08-16T10:50:32Z</time>
      </trkpt>
      <trkpt lat="47.64911" lon="7.13735">
        <ele>283.4</ele>
        <time>2019-08-16T10:50:33Z</time>
      </trkpt>
      <trkpt lat="47.6491" lon="7.13729">
        <ele>283.4</ele>
        <time>2019-08-16T10:50:34Z</time>
      </trkpt>
      <trkpt lat="47.64908" lon="7.13722">
        <ele>283.3</ele>
        <time>2019-08-16T10:50:35Z</time>
      </trkpt>
      <trkpt lat="47.64907" lon="7.13715">
        <ele>283.3</ele>
        <time>2019-08-16T10:50:36Z</time>
      </trkpt>
      <trkpt lat="47.64906" lon="7.13708">
        <ele>283.3</ele>
        <time>2019-08-16T10:50:37Z</time>
      </trkpt>
      <trkpt lat="47.64904" lon="7.13701">
        <ele>283.3</ele>
        <time>2019-08-16T10:50:38Z</time>
      </trkpt>
      <trkpt lat="47.64903" lon="7.13695">
        <ele>283.3</ele>
        <time>2019-08-16T10:50:39Z</time>
      </trkpt>
      <trkpt lat="47.64902" lon="7.13688">
        <ele>283.3</ele>
        <time>2019-08-16T10:50:40Z</time>
      </trkpt>
      <trkpt lat="47.64901" lon="7.13682">
        <ele>283.4</ele>
        <time>2019-08-16T10:50:41Z</time>
      </trkpt>
      <trkpt lat="47.649" lon="7.13674">
        <ele>283.4</ele>
        <time>2019-08-16T10:50:42Z</time>
      </trkpt>
      <trkpt lat="47.64899" lon="7.13668">
        <ele>283.5</ele>
        <time>2019-08-16T10:50:43Z</time>
      </trkpt>
      <trkpt lat="47.64898" lon="7.13661">
        <ele>283.5</ele>
        <time>2019-08-16T10:50:44Z</time>
      </trkpt>
      <trkpt lat="47.64897" lon="7.13654">
        <ele>283.6</ele>
        <time>2019-08-16T10:50:45Z</time>
      </trkpt>
      <trkpt lat="47.64896" lon="7.13648">
        <ele>283.6</ele>
        <time>2019-08-16T10:50:46Z</time>
      </trkpt>
      <trkpt lat="47.64895" lon="7.13641">
        <ele>283.7</ele>
        <time>2019-08-16T10:50:47Z</time>
      </trkpt>
      <trkpt lat="47.64893" lon="7.13634">
        <ele>283.8</ele>
        <time>2019-08-16T10:50:48Z</time>
      </trkpt>
      <trkpt lat="47.64892" lon="7.13627">
        <ele>283.8</ele>
        <time>2019-08-16T10:50:49Z</time>
      </trkpt>
      <trkpt lat="47.64891" lon="7.1362">
        <ele>283.9</ele>
        <time>2019-08-16T10:50:50Z</time>
      </trkpt>
      <trkpt lat="47.64889" lon="7.13614">
        <ele>283.9</ele>
        <time>2019-08-16T10:50:51Z</time>
      </trkpt>
      <trkpt lat="47.64888" lon="7.13607">
        <ele>283.9</ele>
        <time>2019-08-16T10:50:52Z</time>
      </trkpt>
      <trkpt lat="47.64887" lon="7.13601">
        <ele>283.9</ele>
        <time>2019-08-16T10:50:53Z</time>
      </trkpt>
      <trkpt lat="47.64886" lon="7.13594">
        <ele>283.9</ele>
        <time>2019-08-16T10:50:54Z</time>
      </trkpt>
      <trkpt lat="47.64885" lon="7.13587">
        <ele>283.8</ele>
        <time>2019-08-16T10:50:55Z</time>
      </trkpt>
      <trkpt lat="47.64883" lon="7.13581">
        <ele>283.8</ele>
        <time>2019-08-16T10:50:56Z</time>
      </trkpt>
      <trkpt lat="47.64882" lon="7.13574">
        <ele>283.8</ele>
        <time>2019-08-16T10:50:57Z</time>
      </trkpt>
      <trkpt lat="47.64881" lon="7.13567">
        <ele>283.9</ele>
        <time>2019-08-16T10:50:58Z</time>
      </trkpt>
      <trkpt lat="47.6488" lon="7.1356">
        <ele>284</ele>
        <time>2019-08-16T10:50:59Z</time>
      </trkpt>
      <trkpt lat="47.64879" lon="7.13554">
        <ele>284.1</ele>
        <time>2019-08-16T10:51:00Z</time>
      </trkpt>
      <trkpt lat="47.64878" lon="7.13547">
        <ele>284.4</ele>
        <time>2019-08-16T10:51:01Z</time>
      </trkpt>
      <trkpt lat="47.64877" lon="7.13542">
        <ele>284.6</ele>
        <time>2019-08-16T10:51:02Z</time>
      </trkpt>
      <trkpt lat="47.64876" lon="7.13536">
        <ele>284.7</ele>
        <time>2019-08-16T10:51:03Z</time>
      </trkpt>
      <trkpt lat="47.64874" lon="7.13531">
        <ele>284.9</ele>
        <time>2019-08-16T10:51:04Z</time>
      </trkpt>
      <trkpt lat="47.64873" lon="7.13526">
        <ele>285.1</ele>
        <time>2019-08-16T10:51:05Z</time>
      </trkpt>
      <trkpt lat="47.64872" lon="7.13521">
        <ele>285.3</ele>
        <time>2019-08-16T10:51:06Z</time>
      </trkpt>
      <trkpt lat="47.64871" lon="7.13516">
        <ele>285.6</ele>
        <time>2019-08-16T10:51:07Z</time>
      </trkpt>
      <trkpt lat="47.6487" lon="7.13511">
        <ele>285.7</ele>
        <time>2019-08-16T10:51:08Z</time>
      </trkpt>
      <trkpt lat="47.64869" lon="7.13506">
        <ele>285.9</ele>
        <time>2019-08-16T10:51:09Z</time>
      </trkpt>
      <trkpt lat="47.64868" lon="7.13501">
        <ele>286</ele>
        <time>2019-08-16T10:51:10Z</time>
      </trkpt>
      <trkpt lat="47.64867" lon="7.13495">
        <ele>286.1</ele>
        <time>2019-08-16T10:51:11Z</time>
      </trkpt>
      <trkpt lat="47.64865" lon="7.13489">
        <ele>286.2</ele>
        <time>2019-08-16T10:51:12Z</time>
      </trkpt>
      <trkpt lat="47.64864" lon="7.13483">
        <ele>286.3</ele>
        <time>2019-08-16T10:51:13Z</time>
      </trkpt>
      <trkpt lat="47.64863" lon="7.13477">
        <ele>286.4</ele>
        <time>2019-08-16T10:51:14Z</time>
      </trkpt>
      <trkpt lat="47.64861" lon="7.13471">
        <ele>286.4</ele>
        <time>2019-08-16T10:51:15Z</time>
      </trkpt>
      <trkpt lat="47.6486" lon="7.13465">
        <ele>286.5</ele>
        <time>2019-08-16T10:51:16Z</time>
      </trkpt>
      <trkpt lat="47.64859" lon="7.13459">
        <ele>286.5</ele>
        <time>2019-08-16T10:51:17Z</time>
      </trkpt>
      <trkpt lat="47.64858" lon="7.13454">
        <ele>286.6</ele>
        <time>2019-08-16T10:51:18Z</time>
      </trkpt>
      <trkpt lat="47.64857" lon="7.13449">
        <ele>286.6</ele>
        <time>2019-08-16T10:51:19Z</time>
      </trkpt>
      <trkpt lat="47.64856" lon="7.13444">
        <ele>286.7</ele>
        <time>2019-08-16T10:51:20Z</time>
      </trkpt>
      <trkpt lat="47.64855" lon="7.1344">
        <ele>286.7</ele>
        <time>2019-08-16T10:51:21Z</time>
      </trkpt>
      <trkpt lat="47.64854" lon="7.13435">
        <ele>286.8</ele>
        <time>2019-08-16T10:51:22Z</time>
      </trkpt>
      <trkpt lat="47.64853" lon="7.13429">
        <ele>286.9</ele>
        <time>2019-08-16T10:51:23Z</time>
      </trkpt>
      <trkpt lat="47.64852" lon="7.13424">
        <ele>287</ele>
        <time>2019-08-16T10:51:24Z</time>
      </trkpt>
      <trkpt lat="47.64851" lon="7.13419">
        <ele>287.1</ele>
        <time>2019-08-16T10:51:25Z</time>
      </trkpt>
      <trkpt lat="47.6485" lon="7.13414">
        <ele>287.1</ele>
        <time>2019-08-16T10:51:26Z</time>
      </trkpt>
      <trkpt lat="47.64849" lon="7.13409">
        <ele>287.2</ele>
        <time>2019-08-16T10:51:27Z</time>
      </trkpt>
      <trkpt lat="47.64848" lon="7.13404">
        <ele>287.2</ele>
        <time>2019-08-16T10:51:28Z</time>
      </trkpt>
      <trkpt lat="47.64847" lon="7.13399">
        <ele>287.3</ele>
        <time>2019-08-16T10:51:29Z</time>
      </trkpt>
      <trkpt lat="47.64846" lon="7.13393">
        <ele>287.3</ele>
        <time>2019-08-16T10:51:30Z</time>
      </trkpt>
      <trkpt lat="47.64844" lon="7.13388">
        <ele>287.4</ele>
        <time>2019-08-16T10:51:31Z</time>
      </trkpt>
      <trkpt lat="47.64843" lon="7.13382">
        <ele>287.4</ele>
        <time>2019-08-16T10:51:32Z</time>
      </trkpt>
      <trkpt lat="47.64842" lon="7.13377">
        <ele>287.4</ele>
        <time>2019-08-16T10:51:33Z</time>
      </trkpt>
      <trkpt lat="47.6484" lon="7.13371">
        <ele>287.4</ele>
        <time>2019-08-16T10:51:34Z</time>
      </trkpt>
      <trkpt lat="47.64839" lon="7.13366">
        <ele>287.4</ele>
        <time>2019-08-16T10:51:35Z</time>
      </trkpt>
      <trkpt lat="47.64838" lon="7.1336">
        <ele>287.4</ele>
        <time>2019-08-16T10:51:36Z</time>
      </trkpt>
      <trkpt lat="47.64836" lon="7.13354">
        <ele>287.5</ele>
        <time>2019-08-16T10:51:37Z</time>
      </trkpt>
      <trkpt lat="47.64835" lon="7.13348">
        <ele>287.5</ele>
        <time>2019-08-16T10:51:38Z</time>
      </trkpt>
      <trkpt lat="47.64834" lon="7.13342">
        <ele>287.5</ele>
        <time>2019-08-16T10:51:39Z</time>
      </trkpt>
      <trkpt lat="47.64833" lon="7.13336">
        <ele>287.5</ele>
        <time>2019-08-16T10:51:40Z</time>
      </trkpt>
      <trkpt lat="47.64832" lon="7.1333">
        <ele>287.6</ele>
        <time>2019-08-16T10:51:41Z</time>
      </trkpt>
      <trkpt lat="47.64831" lon="7.13324">
        <ele>287.6</ele>
        <time>2019-08-16T10:51:42Z</time>
      </trkpt>
      <trkpt lat="47.6483" lon="7.13317">
        <ele>287.7</ele>
        <time>2019-08-16T10:51:43Z</time>
      </trkpt>
      <trkpt lat="47.64829" lon="7.13311">
        <ele>287.7</ele>
        <time>2019-08-16T10:51:44Z</time>
      </trkpt>
      <trkpt lat="47.64827" lon="7.13304">
        <ele>287.7</ele>
        <time>2019-08-16T10:51:45Z</time>
      </trkpt>
      <trkpt lat="47.64825" lon="7.13297">
        <ele>287.8</ele>
        <time>2019-08-16T10:51:46Z</time>
      </trkpt>
      <trkpt lat="47.64824" lon="7.13291">
        <ele>287.8</ele>
        <time>2019-08-16T10:51:47Z</time>
      </trkpt>
      <trkpt lat="47.64823" lon="7.13284">
        <ele>287.8</ele>
        <time>2019-08-16T10:51:48Z</time>
      </trkpt>
      <trkpt lat="47.64822" lon="7.13279">
        <ele>287.9</ele>
        <time>2019-08-16T10:51:49Z</time>
      </trkpt>
      <trkpt lat="47.64821" lon="7.13273">
        <ele>287.9</ele>
        <time>2019-08-16T10:51:50Z</time>
      </trkpt>
      <trkpt lat="47.6482" lon="7.13267">
        <ele>287.9</ele>
        <time>2019-08-16T10:51:51Z</time>
      </trkpt>
      <trkpt lat="47.64819" lon="7.13262">
        <ele>287.9</ele>
        <time>2019-08-16T10:51:52Z</time>
      </trkpt>
      <trkpt lat="47.64817" lon="7.13258">
        <ele>287.9</ele>
        <time>2019-08-16T10:51:53Z</time>
      </trkpt>
      <trkpt lat="47.64815" lon="7.13253">
        <ele>287.9</ele>
        <time>2019-08-16T10:51:54Z</time>
      </trkpt>
      <trkpt lat="47.64814" lon="7.13247">
        <ele>287.9</ele>
        <time>2019-08-16T10:51:55Z</time>
      </trkpt>
      <trkpt lat="47.64813" lon="7.13241">
        <ele>288</ele>
        <time>2019-08-16T10:51:56Z</time>
      </trkpt>
      <trkpt lat="47.6481" lon="7.13234">
        <ele>288</ele>
        <time>2019-08-16T10:51:57Z</time>
      </trkpt>
      <trkpt lat="47.64808" lon="7.13226">
        <ele>288</ele>
        <time>2019-08-16T10:51:58Z</time>
      </trkpt>
      <trkpt lat="47.64807" lon="7.1322">
        <ele>288</ele>
        <time>2019-08-16T10:51:59Z</time>
      </trkpt>
      <trkpt lat="47.64806" lon="7.13214">
        <ele>288</ele>
        <time>2019-08-16T10:52:00Z</time>
      </trkpt>
      <trkpt lat="47.64805" lon="7.13207">
        <ele>288</ele>
        <time>2019-08-16T10:52:01Z</time>
      </trkpt>
      <trkpt lat="47.64803" lon="7.132">
        <ele>287.9</ele>
        <time>2019-08-16T10:52:02Z</time>
      </trkpt>
      <trkpt lat="47.64802" lon="7.13194">
        <ele>287.9</ele>
        <time>2019-08-16T10:52:03Z</time>
      </trkpt>
      <trkpt lat="47.648" lon="7.13188">
        <ele>287.9</ele>
        <time>2019-08-16T10:52:04Z</time>
      </trkpt>
      <trkpt lat="47.64799" lon="7.13182">
        <ele>287.8</ele>
        <time>2019-08-16T10:52:05Z</time>
      </trkpt>
      <trkpt lat="47.64798" lon="7.13176">
        <ele>287.8</ele>
        <time>2019-08-16T10:52:06Z</time>
      </trkpt>
      <trkpt lat="47.64797" lon="7.13169">
        <ele>287.8</ele>
        <time>2019-08-16T10:52:07Z</time>
      </trkpt>
      <trkpt lat="47.64796" lon="7.13164">
        <ele>287.8</ele>
        <time>2019-08-16T10:52:08Z</time>
      </trkpt>
      <trkpt lat="47.64795" lon="7.13157">
        <ele>287.8</ele>
        <time>2019-08-16T10:52:09Z</time>
      </trkpt>
      <trkpt lat="47.64794" lon="7.13151">
        <ele>287.8</ele>
        <time>2019-08-16T10:52:10Z</time>
      </trkpt>
      <trkpt lat="47.64793" lon="7.13144">
        <ele>287.8</ele>
        <time>2019-08-16T10:52:11Z</time>
      </trkpt>
      <trkpt lat="47.64792" lon="7.13136">
        <ele>287.8</ele>
        <time>2019-08-16T10:52:12Z</time>
      </trkpt>
      <trkpt lat="47.64791" lon="7.13129">
        <ele>287.9</ele>
        <time>2019-08-16T10:52:13Z</time>
      </trkpt>
      <trkpt lat="47.6479" lon="7.13123">
        <ele>287.9</ele>
        <time>2019-08-16T10:52:14Z</time>
      </trkpt>
      <trkpt lat="47.64789" lon="7.13116">
        <ele>287.9</ele>
        <time>2019-08-16T10:52:15Z</time>
      </trkpt>
      <trkpt lat="47.64788" lon="7.1311">
        <ele>288</ele>
        <time>2019-08-16T10:52:16Z</time>
      </trkpt>
      <trkpt lat="47.64786" lon="7.13104">
        <ele>288</ele>
        <time>2019-08-16T10:52:17Z</time>
      </trkpt>
      <trkpt lat="47.64785" lon="7.13097">
        <ele>288</ele>
        <time>2019-08-16T10:52:18Z</time>
      </trkpt>
      <trkpt lat="47.64783" lon="7.1309">
        <ele>288.1</ele>
        <time>2019-08-16T10:52:19Z</time>
      </trkpt>
      <trkpt lat="47.64781" lon="7.13084">
        <ele>288.1</ele>
        <time>2019-08-16T10:52:20Z</time>
      </trkpt>
      <trkpt lat="47.64779" lon="7.13078">
        <ele>288.1</ele>
        <time>2019-08-16T10:52:21Z</time>
      </trkpt>
      <trkpt lat="47.64778" lon="7.13071">
        <ele>288.1</ele>
        <time>2019-08-16T10:52:22Z</time>
      </trkpt>
      <trkpt lat="47.64776" lon="7.13065">
        <ele>288.1</ele>
        <time>2019-08-16T10:52:23Z</time>
      </trkpt>
      <trkpt lat="47.64775" lon="7.13058">
        <ele>288.1</ele>
        <time>2019-08-16T10:52:24Z</time>
      </trkpt>
      <trkpt lat="47.64773" lon="7.13052">
        <ele>288.1</ele>
        <time>2019-08-16T10:52:25Z</time>
      </trkpt>
      <trkpt lat="47.64769" lon="7.13046">
        <ele>288.1</ele>
        <time>2019-08-16T10:52:26Z</time>
      </trkpt>
      <trkpt lat="47.64766" lon="7.13039">
        <ele>288.2</ele>
        <time>2019-08-16T10:52:27Z</time>
      </trkpt>
      <trkpt lat="47.64763" lon="7.13032">
        <ele>288.2</ele>
        <time>2019-08-16T10:52:28Z</time>
      </trkpt>
      <trkpt lat="47.64761" lon="7.13026">
        <ele>288.2</ele>
        <time>2019-08-16T10:52:29Z</time>
      </trkpt>
      <trkpt lat="47.64758" lon="7.1302">
        <ele>288.2</ele>
        <time>2019-08-16T10:52:30Z</time>
      </trkpt>
      <trkpt lat="47.64756" lon="7.13014">
        <ele>288.2</ele>
        <time>2019-08-16T10:52:31Z</time>
      </trkpt>
      <trkpt lat="47.64754" lon="7.13008">
        <ele>288.2</ele>
        <time>2019-08-16T10:52:32Z</time>
      </trkpt>
      <trkpt lat="47.64752" lon="7.13002">
        <ele>288.2</ele>
        <time>2019-08-16T10:52:33Z</time>
      </trkpt>
      <trkpt lat="47.6475" lon="7.12996">
        <ele>288.2</ele>
        <time>2019-08-16T10:52:34Z</time>
      </trkpt>
      <trkpt lat="47.64748" lon="7.12989">
        <ele>288.2</ele>
        <time>2019-08-16T10:52:35Z</time>
      </trkpt>
      <trkpt lat="47.64746" lon="7.12982">
        <ele>288.2</ele>
        <time>2019-08-16T10:52:36Z</time>
      </trkpt>
      <trkpt lat="47.64743" lon="7.12976">
        <ele>288.1</ele>
        <time>2019-08-16T10:52:37Z</time>
      </trkpt>
      <trkpt lat="47.64741" lon="7.1297">
        <ele>288.1</ele>
        <time>2019-08-16T10:52:38Z</time>
      </trkpt>
      <trkpt lat="47.64738" lon="7.12964">
        <ele>288.1</ele>
        <time>2019-08-16T10:52:39Z</time>
      </trkpt>
      <trkpt lat="47.64736" lon="7.12958">
        <ele>288.1</ele>
        <time>2019-08-16T10:52:40Z</time>
      </trkpt>
      <trkpt lat="47.64733" lon="7.12952">
        <ele>288.1</ele>
        <time>2019-08-16T10:52:41Z</time>
      </trkpt>
      <trkpt lat="47.64729" lon="7.12946">
        <ele>288.1</ele>
        <time>2019-08-16T10:52:42Z</time>
      </trkpt>
      <trkpt lat="47.64726" lon="7.1294">
        <ele>288.1</ele>
        <time>2019-08-16T10:52:43Z</time>
      </trkpt>
      <trkpt lat="47.64723" lon="7.12935">
        <ele>288.1</ele>
        <time>2019-08-16T10:52:44Z</time>
      </trkpt>
      <trkpt lat="47.64719" lon="7.12929">
        <ele>288.1</ele>
        <time>2019-08-16T10:52:45Z</time>
      </trkpt>
      <trkpt lat="47.64716" lon="7.12925">
        <ele>288.1</ele>
        <time>2019-08-16T10:52:46Z</time>
      </trkpt>
      <trkpt lat="47.64713" lon="7.1292">
        <ele>288.1</ele>
        <time>2019-08-16T10:52:47Z</time>
      </trkpt>
      <trkpt lat="47.64709" lon="7.12915">
        <ele>288.2</ele>
        <time>2019-08-16T10:52:48Z</time>
      </trkpt>
      <trkpt lat="47.64707" lon="7.1291">
        <ele>288.2</ele>
        <time>2019-08-16T10:52:49Z</time>
      </trkpt>
      <trkpt lat="47.64704" lon="7.12906">
        <ele>288.2</ele>
        <time>2019-08-16T10:52:50Z</time>
      </trkpt>
      <trkpt lat="47.647" lon="7.12901">
        <ele>288.2</ele>
        <time>2019-08-16T10:52:51Z</time>
      </trkpt>
      <trkpt lat="47.64696" lon="7.12896">
        <ele>288.2</ele>
        <time>2019-08-16T10:52:52Z</time>
      </trkpt>
      <trkpt lat="47.64693" lon="7.12892">
        <ele>288.2</ele>
        <time>2019-08-16T10:52:53Z</time>
      </trkpt>
      <trkpt lat="47.64689" lon="7.12888">
        <ele>288.2</ele>
        <time>2019-08-16T10:52:54Z</time>
      </trkpt>
      <trkpt lat="47.64686" lon="7.12884">
        <ele>288.3</ele>
        <time>2019-08-16T10:52:55Z</time>
      </trkpt>
      <trkpt lat="47.64683" lon="7.1288">
        <ele>288.3</ele>
        <time>2019-08-16T10:52:56Z</time>
      </trkpt>
      <trkpt lat="47.6468" lon="7.12876">
        <ele>288.3</ele>
        <time>2019-08-16T10:52:57Z</time>
      </trkpt>
      <trkpt lat="47.64677" lon="7.12872">
        <ele>288.3</ele>
        <time>2019-08-16T10:52:58Z</time>
      </trkpt>
      <trkpt lat="47.64674" lon="7.12867">
        <ele>288.3</ele>
        <time>2019-08-16T10:52:59Z</time>
      </trkpt>
      <trkpt lat="47.64671" lon="7.12863">
        <ele>288.4</ele>
        <time>2019-08-16T10:53:00Z</time>
      </trkpt>
      <trkpt lat="47.64669" lon="7.12859">
        <ele>288.4</ele>
        <time>2019-08-16T10:53:01Z</time>
      </trkpt>
      <trkpt lat="47.64666" lon="7.12855">
        <ele>288.4</ele>
        <time>2019-08-16T10:53:02Z</time>
      </trkpt>
      <trkpt lat="47.64662" lon="7.12852">
        <ele>288.5</ele>
        <time>2019-08-16T10:53:03Z</time>
      </trkpt>
      <trkpt lat="47.64659" lon="7.12848">
        <ele>288.5</ele>
        <time>2019-08-16T10:53:04Z</time>
      </trkpt>
      <trkpt lat="47.64656" lon="7.12844">
        <ele>288.5</ele>
        <time>2019-08-16T10:53:05Z</time>
      </trkpt>
      <trkpt lat="47.64654" lon="7.1284">
        <ele>288.5</ele>
        <time>2019-08-16T10:53:06Z</time>
      </trkpt>
      <trkpt lat="47.6465" lon="7.12836">
        <ele>288.5</ele>
        <time>2019-08-16T10:53:07Z</time>
      </trkpt>
      <trkpt lat="47.64646" lon="7.12832">
        <ele>288.5</ele>
        <time>2019-08-16T10:53:08Z</time>
      </trkpt>
      <trkpt lat="47.64643" lon="7.12828">
        <ele>288.5</ele>
        <time>2019-08-16T10:53:09Z</time>
      </trkpt>
      <trkpt lat="47.64639" lon="7.12825">
        <ele>288.5</ele>
        <time>2019-08-16T10:53:10Z</time>
      </trkpt>
      <trkpt lat="47.64636" lon="7.12821">
        <ele>288.5</ele>
        <time>2019-08-16T10:53:11Z</time>
      </trkpt>
      <trkpt lat="47.64633" lon="7.12818">
        <ele>288.5</ele>
        <time>2019-08-16T10:53:12Z</time>
      </trkpt>
      <trkpt lat="47.6463" lon="7.12815">
        <ele>288.5</ele>
        <time>2019-08-16T10:53:13Z</time>
      </trkpt>
      <trkpt lat="47.64627" lon="7.12811">
        <ele>288.6</ele>
        <time>2019-08-16T10:53:14Z</time>
      </trkpt>
      <trkpt lat="47.64624" lon="7.12808">
        <ele>288.7</ele>
        <time>2019-08-16T10:53:15Z</time>
      </trkpt>
      <trkpt lat="47.64621" lon="7.12805">
        <ele>288.8</ele>
        <time>2019-08-16T10:53:16Z</time>
      </trkpt>
      <trkpt lat="47.64618" lon="7.12801">
        <ele>288.9</ele>
        <time>2019-08-16T10:53:17Z</time>
      </trkpt>
      <trkpt lat="47.64615" lon="7.12798">
        <ele>289.1</ele>
        <time>2019-08-16T10:53:18Z</time>
      </trkpt>
      <trkpt lat="47.64612" lon="7.12795">
        <ele>289.4</ele>
        <time>2019-08-16T10:53:19Z</time>
      </trkpt>
      <trkpt lat="47.6461" lon="7.12792">
        <ele>289.6</ele>
        <time>2019-08-16T10:53:20Z</time>
      </trkpt>
      <trkpt lat="47.64608" lon="7.1279">
        <ele>289.8</ele>
        <time>2019-08-16T10:53:21Z</time>
      </trkpt>
      <trkpt lat="47.64604" lon="7.12787">
        <ele>290.1</ele>
        <time>2019-08-16T10:53:23Z</time>
      </trkpt>
      <trkpt lat="47.646" lon="7.12783">
        <ele>290.5</ele>
        <time>2019-08-16T10:53:25Z</time>
      </trkpt>
      <trkpt lat="47.64599" lon="7.12779">
        <ele>290.7</ele>
        <time>2019-08-16T10:53:26Z</time>
      </trkpt>
      <trkpt lat="47.64597" lon="7.12775">
        <ele>290.9</ele>
        <time>2019-08-16T10:53:27Z</time>
      </trkpt>
      <trkpt lat="47.64594" lon="7.12771">
        <ele>291</ele>
        <time>2019-08-16T10:53:28Z</time>
      </trkpt>
      <trkpt lat="47.64591" lon="7.12766">
        <ele>291.2</ele>
        <time>2019-08-16T10:53:29Z</time>
      </trkpt>
      <trkpt lat="47.64589" lon="7.12761">
        <ele>291.3</ele>
        <time>2019-08-16T10:53:30Z</time>
      </trkpt>
      <trkpt lat="47.64586" lon="7.12756">
        <ele>291.5</ele>
        <time>2019-08-16T10:53:31Z</time>
      </trkpt>
      <trkpt lat="47.64584" lon="7.12752">
        <ele>291.6</ele>
        <time>2019-08-16T10:53:32Z</time>
      </trkpt>
      <trkpt lat="47.64581" lon="7.12748">
        <ele>291.8</ele>
        <time>2019-08-16T10:53:33Z</time>
      </trkpt>
      <trkpt lat="47.64578" lon="7.12744">
        <ele>292</ele>
        <time>2019-08-16T10:53:34Z</time>
      </trkpt>
      <trkpt lat="47.64575" lon="7.1274">
        <ele>292.2</ele>
        <time>2019-08-16T10:53:35Z</time>
      </trkpt>
      <trkpt lat="47.64572" lon="7.12736">
        <ele>292.4</ele>
        <time>2019-08-16T10:53:36Z</time>
      </trkpt>
      <trkpt lat="47.64569" lon="7.12733">
        <ele>292.6</ele>
        <time>2019-08-16T10:53:37Z</time>
      </trkpt>
      <trkpt lat="47.64566" lon="7.12729">
        <ele>292.8</ele>
        <time>2019-08-16T10:53:38Z</time>
      </trkpt>
      <trkpt lat="47.64562" lon="7.12726">
        <ele>293</ele>
        <time>2019-08-16T10:53:39Z</time>
      </trkpt>
      <trkpt lat="47.64559" lon="7.12723">
        <ele>293.1</ele>
        <time>2019-08-16T10:53:40Z</time>
      </trkpt>
      <trkpt lat="47.64556" lon="7.12719">
        <ele>293.2</ele>
        <time>2019-08-16T10:53:41Z</time>
      </trkpt>
      <trkpt lat="47.64553" lon="7.12715">
        <ele>293.3</ele>
        <time>2019-08-16T10:53:42Z</time>
      </trkpt>
      <trkpt lat="47.6455" lon="7.12711">
        <ele>293.4</ele>
        <time>2019-08-16T10:53:43Z</time>
      </trkpt>
      <trkpt lat="47.64547" lon="7.12707">
        <ele>293.5</ele>
        <time>2019-08-16T10:53:44Z</time>
      </trkpt>
      <trkpt lat="47.64544" lon="7.12703">
        <ele>293.5</ele>
        <time>2019-08-16T10:53:45Z</time>
      </trkpt>
      <trkpt lat="47.64541" lon="7.127">
        <ele>293.6</ele>
        <time>2019-08-16T10:53:46Z</time>
      </trkpt>
      <trkpt lat="47.64539" lon="7.12698">
        <ele>293.6</ele>
        <time>2019-08-16T10:53:47Z</time>
      </trkpt>
      <trkpt lat="47.64536" lon="7.12695">
        <ele>293.6</ele>
        <time>2019-08-16T10:53:48Z</time>
      </trkpt>
      <trkpt lat="47.64533" lon="7.12692">
        <ele>293.6</ele>
        <time>2019-08-16T10:53:49Z</time>
      </trkpt>
      <trkpt lat="47.6453" lon="7.1269">
        <ele>293.6</ele>
        <time>2019-08-16T10:53:50Z</time>
      </trkpt>
      <trkpt lat="47.64527" lon="7.12687">
        <ele>293.6</ele>
        <time>2019-08-16T10:53:51Z</time>
      </trkpt>
      <trkpt lat="47.64525" lon="7.12685">
        <ele>293.6</ele>
        <time>2019-08-16T10:53:52Z</time>
      </trkpt>
      <trkpt lat="47.64522" lon="7.12681">
        <ele>293.6</ele>
        <time>2019-08-16T10:53:53Z</time>
      </trkpt>
      <trkpt lat="47.64519" lon="7.12678">
        <ele>293.6</ele>
        <time>2019-08-16T10:53:54Z</time>
      </trkpt>
      <trkpt lat="47.64515" lon="7.12674">
        <ele>293.6</ele>
        <time>2019-08-16T10:53:55Z</time>
      </trkpt>
      <trkpt lat="47.64512" lon="7.12671">
        <ele>293.6</ele>
        <time>2019-08-16T10:53:56Z</time>
      </trkpt>
      <trkpt lat="47.64509" lon="7.12667">
        <ele>293.6</ele>
        <time>2019-08-16T10:53:57Z</time>
      </trkpt>
      <trkpt lat="47.64505" lon="7.12664">
        <ele>293.6</ele>
        <time>2019-08-16T10:53:58Z</time>
      </trkpt>
      <trkpt lat="47.64502" lon="7.12661">
        <ele>293.5</ele>
        <time>2019-08-16T10:53:59Z</time>
      </trkpt>
      <trkpt lat="47.64499" lon="7.12658">
        <ele>293.5</ele>
        <time>2019-08-16T10:54:00Z</time>
      </trkpt>
      <trkpt lat="47.64496" lon="7.12655">
        <ele>293.5</ele>
        <time>2019-08-16T10:54:01Z</time>
      </trkpt>
      <trkpt lat="47.64492" lon="7.12652">
        <ele>293.5</ele>
        <time>2019-08-16T10:54:02Z</time>
      </trkpt>
      <trkpt lat="47.64488" lon="7.12648">
        <ele>293.5</ele>
        <time>2019-08-16T10:54:03Z</time>
      </trkpt>
      <trkpt lat="47.64484" lon="7.12644">
        <ele>293.5</ele>
        <time>2019-08-16T10:54:04Z</time>
      </trkpt>
      <trkpt lat="47.64481" lon="7.1264">
        <ele>293.5</ele>
        <time>2019-08-16T10:54:05Z</time>
      </trkpt>
      <trkpt lat="47.64477" lon="7.12636">
        <ele>293.5</ele>
        <time>2019-08-16T10:54:06Z</time>
      </trkpt>
      <trkpt lat="47.64473" lon="7.12631">
        <ele>293.4</ele>
        <time>2019-08-16T10:54:07Z</time>
      </trkpt>
      <trkpt lat="47.64469" lon="7.12626">
        <ele>293.4</ele>
        <time>2019-08-16T10:54:08Z</time>
      </trkpt>
      <trkpt lat="47.64466" lon="7.12623">
        <ele>293.4</ele>
        <time>2019-08-16T10:54:09Z</time>
      </trkpt>
      <trkpt lat="47.64462" lon="7.12619">
        <ele>293.4</ele>
        <time>2019-08-16T10:54:10Z</time>
      </trkpt>
      <trkpt lat="47.64459" lon="7.12615">
        <ele>293.4</ele>
        <time>2019-08-16T10:54:11Z</time>
      </trkpt>
      <trkpt lat="47.64455" lon="7.1261">
        <ele>293.4</ele>
        <time>2019-08-16T10:54:12Z</time>
      </trkpt>
      <trkpt lat="47.64452" lon="7.12606">
        <ele>293.4</ele>
        <time>2019-08-16T10:54:13Z</time>
      </trkpt>
      <trkpt lat="47.64448" lon="7.12602">
        <ele>293.4</ele>
        <time>2019-08-16T10:54:14Z</time>
      </trkpt>
      <trkpt lat="47.64445" lon="7.12599">
        <ele>293.4</ele>
        <time>2019-08-16T10:54:15Z</time>
      </trkpt>
      <trkpt lat="47.64442" lon="7.12596">
        <ele>293.4</ele>
        <time>2019-08-16T10:54:16Z</time>
      </trkpt>
      <trkpt lat="47.64439" lon="7.12592">
        <ele>293.4</ele>
        <time>2019-08-16T10:54:17Z</time>
      </trkpt>
      <trkpt lat="47.64435" lon="7.12588">
        <ele>293.4</ele>
        <time>2019-08-16T10:54:18Z</time>
      </trkpt>
      <trkpt lat="47.64432" lon="7.12584">
        <ele>293.4</ele>
        <time>2019-08-16T10:54:19Z</time>
      </trkpt>
      <trkpt lat="47.64428" lon="7.12581">
        <ele>293.4</ele>
        <time>2019-08-16T10:54:20Z</time>
      </trkpt>
      <trkpt lat="47.64425" lon="7.12577">
        <ele>293.4</ele>
        <time>2019-08-16T10:54:21Z</time>
      </trkpt>
      <trkpt lat="47.64422" lon="7.12573">
        <ele>293.4</ele>
        <time>2019-08-16T10:54:22Z</time>
      </trkpt>
      <trkpt lat="47.64418" lon="7.1257">
        <ele>293.4</ele>
        <time>2019-08-16T10:54:23Z</time>
      </trkpt>
      <trkpt lat="47.64415" lon="7.12567">
        <ele>293.4</ele>
        <time>2019-08-16T10:54:24Z</time>
      </trkpt>
      <trkpt lat="47.64411" lon="7.12563">
        <ele>293.4</ele>
        <time>2019-08-16T10:54:25Z</time>
      </trkpt>
      <trkpt lat="47.64408" lon="7.12559">
        <ele>293.4</ele>
        <time>2019-08-16T10:54:26Z</time>
      </trkpt>
      <trkpt lat="47.64404" lon="7.12555">
        <ele>293.4</ele>
        <time>2019-08-16T10:54:27Z</time>
      </trkpt>
      <trkpt lat="47.64401" lon="7.12551">
        <ele>293.4</ele>
        <time>2019-08-16T10:54:28Z</time>
      </trkpt>
      <trkpt lat="47.64398" lon="7.12547">
        <ele>293.4</ele>
        <time>2019-08-16T10:54:29Z</time>
      </trkpt>
      <trkpt lat="47.64394" lon="7.12542">
        <ele>293.4</ele>
        <time>2019-08-16T10:54:30Z</time>
      </trkpt>
      <trkpt lat="47.64391" lon="7.12539">
        <ele>293.4</ele>
        <time>2019-08-16T10:54:31Z</time>
      </trkpt>
      <trkpt lat="47.64389" lon="7.12536">
        <ele>293.4</ele>
        <time>2019-08-16T10:54:32Z</time>
      </trkpt>
      <trkpt lat="47.64386" lon="7.12532">
        <ele>293.4</ele>
        <time>2019-08-16T10:54:33Z</time>
      </trkpt>
      <trkpt lat="47.64383" lon="7.12528">
        <ele>293.4</ele>
        <time>2019-08-16T10:54:34Z</time>
      </trkpt>
      <trkpt lat="47.6438" lon="7.12524">
        <ele>293.4</ele>
        <time>2019-08-16T10:54:35Z</time>
      </trkpt>
      <trkpt lat="47.64376" lon="7.12519">
        <ele>293.4</ele>
        <time>2019-08-16T10:54:36Z</time>
      </trkpt>
      <trkpt lat="47.64373" lon="7.12514">
        <ele>293.4</ele>
        <time>2019-08-16T10:54:37Z</time>
      </trkpt>
      <trkpt lat="47.64369" lon="7.12508">
        <ele>293.5</ele>
        <time>2019-08-16T10:54:38Z</time>
      </trkpt>
      <trkpt lat="47.64365" lon="7.12503">
        <ele>293.5</ele>
        <time>2019-08-16T10:54:39Z</time>
      </trkpt>
      <trkpt lat="47.64361" lon="7.12498">
        <ele>293.5</ele>
        <time>2019-08-16T10:54:40Z</time>
      </trkpt>
      <trkpt lat="47.64357" lon="7.12494">
        <ele>293.5</ele>
        <time>2019-08-16T10:54:41Z</time>
      </trkpt>
      <trkpt lat="47.64353" lon="7.12488">
        <ele>293.5</ele>
        <time>2019-08-16T10:54:42Z</time>
      </trkpt>
      <trkpt lat="47.64349" lon="7.12483">
        <ele>293.5</ele>
        <time>2019-08-16T10:54:43Z</time>
      </trkpt>
      <trkpt lat="47.64345" lon="7.12478">
        <ele>293.5</ele>
        <time>2019-08-16T10:54:44Z</time>
      </trkpt>
      <trkpt lat="47.64342" lon="7.12473">
        <ele>293.5</ele>
        <time>2019-08-16T10:54:45Z</time>
      </trkpt>
      <trkpt lat="47.64338" lon="7.12468">
        <ele>293.5</ele>
        <time>2019-08-16T10:54:46Z</time>
      </trkpt>
      <trkpt lat="47.64334" lon="7.12464">
        <ele>293.5</ele>
        <time>2019-08-16T10:54:47Z</time>
      </trkpt>
      <trkpt lat="47.6433" lon="7.12459">
        <ele>293.5</ele>
        <time>2019-08-16T10:54:48Z</time>
      </trkpt>
      <trkpt lat="47.64327" lon="7.12455">
        <ele>293.5</ele>
        <time>2019-08-16T10:54:49Z</time>
      </trkpt>
      <trkpt lat="47.64323" lon="7.12451">
        <ele>293.5</ele>
        <time>2019-08-16T10:54:50Z</time>
      </trkpt>
      <trkpt lat="47.64319" lon="7.12447">
        <ele>293.5</ele>
        <time>2019-08-16T10:54:51Z</time>
      </trkpt>
      <trkpt lat="47.64315" lon="7.12442">
        <ele>293.5</ele>
        <time>2019-08-16T10:54:52Z</time>
      </trkpt>
      <trkpt lat="47.64311" lon="7.12438">
        <ele>293.5</ele>
        <time>2019-08-16T10:54:53Z</time>
      </trkpt>
      <trkpt lat="47.64308" lon="7.12434">
        <ele>293.5</ele>
        <time>2019-08-16T10:54:54Z</time>
      </trkpt>
      <trkpt lat="47.64305" lon="7.12432">
        <ele>293.5</ele>
        <time>2019-08-16T10:54:55Z</time>
      </trkpt>
      <trkpt lat="47.64301" lon="7.12428">
        <ele>293.5</ele>
        <time>2019-08-16T10:54:56Z</time>
      </trkpt>
      <trkpt lat="47.64297" lon="7.12424">
        <ele>293.5</ele>
        <time>2019-08-16T10:54:57Z</time>
      </trkpt>
      <trkpt lat="47.64294" lon="7.12421">
        <ele>293.5</ele>
        <time>2019-08-16T10:54:58Z</time>
      </trkpt>
      <trkpt lat="47.6429" lon="7.12417">
        <ele>293.5</ele>
        <time>2019-08-16T10:54:59Z</time>
      </trkpt>
      <trkpt lat="47.64286" lon="7.12412">
        <ele>293.5</ele>
        <time>2019-08-16T10:55:00Z</time>
      </trkpt>
      <trkpt lat="47.64283" lon="7.12408">
        <ele>293.5</ele>
        <time>2019-08-16T10:55:01Z</time>
      </trkpt>
      <trkpt lat="47.6428" lon="7.12404">
        <ele>293.5</ele>
        <time>2019-08-16T10:55:02Z</time>
      </trkpt>
      <trkpt lat="47.64278" lon="7.124">
        <ele>293.5</ele>
        <time>2019-08-16T10:55:03Z</time>
      </trkpt>
      <trkpt lat="47.64275" lon="7.12395">
        <ele>293.5</ele>
        <time>2019-08-16T10:55:04Z</time>
      </trkpt>
      <trkpt lat="47.64273" lon="7.12392">
        <ele>293.5</ele>
        <time>2019-08-16T10:55:05Z</time>
      </trkpt>
      <trkpt lat="47.6427" lon="7.12388">
        <ele>293.5</ele>
        <time>2019-08-16T10:55:06Z</time>
      </trkpt>
      <trkpt lat="47.64267" lon="7.12383">
        <ele>293.5</ele>
        <time>2019-08-16T10:55:07Z</time>
      </trkpt>
      <trkpt lat="47.64264" lon="7.12378">
        <ele>293.5</ele>
        <time>2019-08-16T10:55:08Z</time>
      </trkpt>
      <trkpt lat="47.64261" lon="7.12373">
        <ele>293.5</ele>
        <time>2019-08-16T10:55:09Z</time>
      </trkpt>
      <trkpt lat="47.64258" lon="7.12368">
        <ele>293.5</ele>
        <time>2019-08-16T10:55:10Z</time>
      </trkpt>
      <trkpt lat="47.64255" lon="7.12364">
        <ele>293.5</ele>
        <time>2019-08-16T10:55:11Z</time>
      </trkpt>
      <trkpt lat="47.64251" lon="7.1236">
        <ele>293.5</ele>
        <time>2019-08-16T10:55:12Z</time>
      </trkpt>
      <trkpt lat="47.64248" lon="7.12355">
        <ele>293.5</ele>
        <time>2019-08-16T10:55:13Z</time>
      </trkpt>
      <trkpt lat="47.64244" lon="7.12351">
        <ele>293.5</ele>
        <time>2019-08-16T10:55:14Z</time>
      </trkpt>
      <trkpt lat="47.64241" lon="7.12348">
        <ele>293.5</ele>
        <time>2019-08-16T10:55:15Z</time>
      </trkpt>
      <trkpt lat="47.64237" lon="7.12344">
        <ele>293.5</ele>
        <time>2019-08-16T10:55:16Z</time>
      </trkpt>
      <trkpt lat="47.64234" lon="7.1234">
        <ele>293.5</ele>
        <time>2019-08-16T10:55:17Z</time>
      </trkpt>
      <trkpt lat="47.6423" lon="7.12336">
        <ele>293.5</ele>
        <time>2019-08-16T10:55:18Z</time>
      </trkpt>
      <trkpt lat="47.64226" lon="7.12333">
        <ele>293.6</ele>
        <time>2019-08-16T10:55:19Z</time>
      </trkpt>
      <trkpt lat="47.64222" lon="7.12329">
        <ele>293.6</ele>
        <time>2019-08-16T10:55:20Z</time>
      </trkpt>
      <trkpt lat="47.64218" lon="7.12325">
        <ele>293.6</ele>
        <time>2019-08-16T10:55:21Z</time>
      </trkpt>
      <trkpt lat="47.64214" lon="7.12321">
        <ele>293.6</ele>
        <time>2019-08-16T10:55:22Z</time>
      </trkpt>
      <trkpt lat="47.6421" lon="7.12317">
        <ele>293.6</ele>
        <time>2019-08-16T10:55:23Z</time>
      </trkpt>
      <trkpt lat="47.64205" lon="7.12314">
        <ele>293.6</ele>
        <time>2019-08-16T10:55:24Z</time>
      </trkpt>
      <trkpt lat="47.64201" lon="7.12311">
        <ele>293.7</ele>
        <time>2019-08-16T10:55:25Z</time>
      </trkpt>
      <trkpt lat="47.64197" lon="7.12306">
        <ele>293.7</ele>
        <time>2019-08-16T10:55:26Z</time>
      </trkpt>
      <trkpt lat="47.64193" lon="7.12301">
        <ele>293.6</ele>
        <time>2019-08-16T10:55:27Z</time>
      </trkpt>
      <trkpt lat="47.64189" lon="7.12298">
        <ele>293.6</ele>
        <time>2019-08-16T10:55:28Z</time>
      </trkpt>
      <trkpt lat="47.64186" lon="7.12294">
        <ele>293.6</ele>
        <time>2019-08-16T10:55:29Z</time>
      </trkpt>
      <trkpt lat="47.64182" lon="7.1229">
        <ele>293.6</ele>
        <time>2019-08-16T10:55:30Z</time>
      </trkpt>
      <trkpt lat="47.64179" lon="7.12286">
        <ele>293.6</ele>
        <time>2019-08-16T10:55:31Z</time>
      </trkpt>
      <trkpt lat="47.64176" lon="7.12282">
        <ele>293.6</ele>
        <time>2019-08-16T10:55:32Z</time>
      </trkpt>
      <trkpt lat="47.64174" lon="7.12278">
        <ele>293.6</ele>
        <time>2019-08-16T10:55:33Z</time>
      </trkpt>
      <trkpt lat="47.64171" lon="7.12275">
        <ele>293.6</ele>
        <time>2019-08-16T10:55:34Z</time>
      </trkpt>
      <trkpt lat="47.64168" lon="7.12271">
        <ele>293.5</ele>
        <time>2019-08-16T10:55:35Z</time>
      </trkpt>
      <trkpt lat="47.64164" lon="7.12267">
        <ele>293.5</ele>
        <time>2019-08-16T10:55:36Z</time>
      </trkpt>
      <trkpt lat="47.6416" lon="7.12263">
        <ele>293.5</ele>
        <time>2019-08-16T10:55:37Z</time>
      </trkpt>
      <trkpt lat="47.64157" lon="7.12259">
        <ele>293.5</ele>
        <time>2019-08-16T10:55:38Z</time>
      </trkpt>
      <trkpt lat="47.64154" lon="7.12255">
        <ele>293.5</ele>
        <time>2019-08-16T10:55:39Z</time>
      </trkpt>
      <trkpt lat="47.64152" lon="7.12252">
        <ele>293.5</ele>
        <time>2019-08-16T10:55:40Z</time>
      </trkpt>
      <trkpt lat="47.64149" lon="7.12248">
        <ele>293.5</ele>
        <time>2019-08-16T10:55:41Z</time>
      </trkpt>
      <trkpt lat="47.64146" lon="7.12245">
        <ele>293.5</ele>
        <time>2019-08-16T10:55:42Z</time>
      </trkpt>
      <trkpt lat="47.64143" lon="7.12241">
        <ele>293.5</ele>
        <time>2019-08-16T10:55:43Z</time>
      </trkpt>
      <trkpt lat="47.6414" lon="7.12239">
        <ele>293.5</ele>
        <time>2019-08-16T10:55:44Z</time>
      </trkpt>
      <trkpt lat="47.64137" lon="7.12236">
        <ele>293.5</ele>
        <time>2019-08-16T10:55:45Z</time>
      </trkpt>
      <trkpt lat="47.64133" lon="7.1223">
        <ele>293.5</ele>
        <time>2019-08-16T10:55:47Z</time>
      </trkpt>
      <trkpt lat="47.64131" lon="7.12227">
        <ele>293.5</ele>
        <time>2019-08-16T10:55:49Z</time>
      </trkpt>
      <trkpt lat="47.64128" lon="7.12224">
        <ele>293.6</ele>
        <time>2019-08-16T10:55:51Z</time>
      </trkpt>
      <trkpt lat="47.64125" lon="7.12221">
        <ele>293.6</ele>
        <time>2019-08-16T10:55:53Z</time>
      </trkpt>
      <trkpt lat="47.64123" lon="7.12216">
        <ele>293.6</ele>
        <time>2019-08-16T10:55:55Z</time>
      </trkpt>
      <trkpt lat="47.64121" lon="7.12211">
        <ele>293.7</ele>
        <time>2019-08-16T10:55:56Z</time>
      </trkpt>
      <trkpt lat="47.64119" lon="7.12206">
        <ele>293.8</ele>
        <time>2019-08-16T10:55:57Z</time>
      </trkpt>
      <trkpt lat="47.64116" lon="7.12202">
        <ele>293.9</ele>
        <time>2019-08-16T10:55:58Z</time>
      </trkpt>
      <trkpt lat="47.64113" lon="7.12197">
        <ele>294</ele>
        <time>2019-08-16T10:55:59Z</time>
      </trkpt>
      <trkpt lat="47.64111" lon="7.12194">
        <ele>294.1</ele>
        <time>2019-08-16T10:56:00Z</time>
      </trkpt>
      <trkpt lat="47.64108" lon="7.12188">
        <ele>294.2</ele>
        <time>2019-08-16T10:56:01Z</time>
      </trkpt>
      <trkpt lat="47.64104" lon="7.12184">
        <ele>294.3</ele>
        <time>2019-08-16T10:56:02Z</time>
      </trkpt>
      <trkpt lat="47.641" lon="7.1218">
        <ele>294.3</ele>
        <time>2019-08-16T10:56:03Z</time>
      </trkpt>
      <trkpt lat="47.64097" lon="7.12176">
        <ele>294.4</ele>
        <time>2019-08-16T10:56:04Z</time>
      </trkpt>
      <trkpt lat="47.64094" lon="7.12174">
        <ele>294.4</ele>
        <time>2019-08-16T10:56:05Z</time>
      </trkpt>
      <trkpt lat="47.64092" lon="7.12171">
        <ele>294.4</ele>
        <time>2019-08-16T10:56:06Z</time>
      </trkpt>
      <trkpt lat="47.64089" lon="7.12169">
        <ele>294.4</ele>
        <time>2019-08-16T10:56:07Z</time>
      </trkpt>
      <trkpt lat="47.64085" lon="7.12166">
        <ele>294.3</ele>
        <time>2019-08-16T10:56:08Z</time>
      </trkpt>
      <trkpt lat="47.64081" lon="7.12164">
        <ele>294.3</ele>
        <time>2019-08-16T10:56:09Z</time>
      </trkpt>
      <trkpt lat="47.64078" lon="7.12161">
        <ele>294.3</ele>
        <time>2019-08-16T10:56:10Z</time>
      </trkpt>
      <trkpt lat="47.64074" lon="7.12158">
        <ele>294.3</ele>
        <time>2019-08-16T10:56:11Z</time>
      </trkpt>
      <trkpt lat="47.6407" lon="7.12155">
        <ele>294.2</ele>
        <time>2019-08-16T10:56:12Z</time>
      </trkpt>
      <trkpt lat="47.64066" lon="7.12152">
        <ele>294.2</ele>
        <time>2019-08-16T10:56:13Z</time>
      </trkpt>
      <trkpt lat="47.64063" lon="7.12147">
        <ele>294.2</ele>
        <time>2019-08-16T10:56:14Z</time>
      </trkpt>
      <trkpt lat="47.64059" lon="7.12143">
        <ele>294.2</ele>
        <time>2019-08-16T10:56:15Z</time>
      </trkpt>
      <trkpt lat="47.64055" lon="7.12139">
        <ele>294.2</ele>
        <time>2019-08-16T10:56:16Z</time>
      </trkpt>
      <trkpt lat="47.64052" lon="7.12135">
        <ele>294.2</ele>
        <time>2019-08-16T10:56:17Z</time>
      </trkpt>
      <trkpt lat="47.64048" lon="7.12132">
        <ele>294.2</ele>
        <time>2019-08-16T10:56:18Z</time>
      </trkpt>
      <trkpt lat="47.64045" lon="7.12129">
        <ele>294.2</ele>
        <time>2019-08-16T10:56:19Z</time>
      </trkpt>
      <trkpt lat="47.64042" lon="7.12126">
        <ele>294.2</ele>
        <time>2019-08-16T10:56:20Z</time>
      </trkpt>
      <trkpt lat="47.64038" lon="7.12123">
        <ele>294.2</ele>
        <time>2019-08-16T10:56:21Z</time>
      </trkpt>
      <trkpt lat="47.64035" lon="7.12119">
        <ele>294.1</ele>
        <time>2019-08-16T10:56:22Z</time>
      </trkpt>
      <trkpt lat="47.64032" lon="7.12116">
        <ele>294.1</ele>
        <time>2019-08-16T10:56:23Z</time>
      </trkpt>
      <trkpt lat="47.64029" lon="7.12111">
        <ele>294.1</ele>
        <time>2019-08-16T10:56:24Z</time>
      </trkpt>
      <trkpt lat="47.64025" lon="7.12107">
        <ele>294.1</ele>
        <time>2019-08-16T10:56:25Z</time>
      </trkpt>
      <trkpt lat="47.64022" lon="7.12104">
        <ele>294.1</ele>
        <time>2019-08-16T10:56:26Z</time>
      </trkpt>
      <trkpt lat="47.64019" lon="7.121">
        <ele>294.1</ele>
        <time>2019-08-16T10:56:27Z</time>
      </trkpt>
      <trkpt lat="47.64016" lon="7.12096">
        <ele>294.1</ele>
        <time>2019-08-16T10:56:28Z</time>
      </trkpt>
      <trkpt lat="47.64012" lon="7.12092">
        <ele>294.1</ele>
        <time>2019-08-16T10:56:29Z</time>
      </trkpt>
      <trkpt lat="47.64009" lon="7.12088">
        <ele>294.1</ele>
        <time>2019-08-16T10:56:30Z</time>
      </trkpt>
      <trkpt lat="47.64006" lon="7.12085">
        <ele>294.1</ele>
        <time>2019-08-16T10:56:31Z</time>
      </trkpt>
      <trkpt lat="47.64002" lon="7.12081">
        <ele>294.1</ele>
        <time>2019-08-16T10:56:32Z</time>
      </trkpt>
      <trkpt lat="47.63999" lon="7.12077">
        <ele>294.2</ele>
        <time>2019-08-16T10:56:33Z</time>
      </trkpt>
      <trkpt lat="47.63995" lon="7.12073">
        <ele>294.2</ele>
        <time>2019-08-16T10:56:34Z</time>
      </trkpt>
      <trkpt lat="47.63991" lon="7.12068">
        <ele>294.3</ele>
        <time>2019-08-16T10:56:35Z</time>
      </trkpt>
      <trkpt lat="47.63987" lon="7.12063">
        <ele>294.4</ele>
        <time>2019-08-16T10:56:36Z</time>
      </trkpt>
      <trkpt lat="47.63983" lon="7.1206">
        <ele>294.5</ele>
        <time>2019-08-16T10:56:37Z</time>
      </trkpt>
      <trkpt lat="47.6398" lon="7.12056">
        <ele>294.5</ele>
        <time>2019-08-16T10:56:38Z</time>
      </trkpt>
      <trkpt lat="47.63976" lon="7.12051">
        <ele>294.6</ele>
        <time>2019-08-16T10:56:39Z</time>
      </trkpt>
      <trkpt lat="47.63972" lon="7.12047">
        <ele>294.6</ele>
        <time>2019-08-16T10:56:40Z</time>
      </trkpt>
      <trkpt lat="47.63968" lon="7.12043">
        <ele>294.5</ele>
        <time>2019-08-16T10:56:41Z</time>
      </trkpt>
      <trkpt lat="47.63964" lon="7.12038">
        <ele>294.5</ele>
        <time>2019-08-16T10:56:42Z</time>
      </trkpt>
      <trkpt lat="47.6396" lon="7.12033">
        <ele>294.4</ele>
        <time>2019-08-16T10:56:43Z</time>
      </trkpt>
      <trkpt lat="47.63956" lon="7.12029">
        <ele>294.3</ele>
        <time>2019-08-16T10:56:44Z</time>
      </trkpt>
      <trkpt lat="47.63952" lon="7.12023">
        <ele>294.3</ele>
        <time>2019-08-16T10:56:45Z</time>
      </trkpt>
      <trkpt lat="47.63948" lon="7.12019">
        <ele>294.3</ele>
        <time>2019-08-16T10:56:46Z</time>
      </trkpt>
      <trkpt lat="47.63944" lon="7.12015">
        <ele>294.3</ele>
        <time>2019-08-16T10:56:47Z</time>
      </trkpt>
      <trkpt lat="47.6394" lon="7.12012">
        <ele>294.3</ele>
        <time>2019-08-16T10:56:48Z</time>
      </trkpt>
      <trkpt lat="47.63936" lon="7.12008">
        <ele>294.3</ele>
        <time>2019-08-16T10:56:49Z</time>
      </trkpt>
      <trkpt lat="47.63932" lon="7.12004">
        <ele>294.4</ele>
        <time>2019-08-16T10:56:50Z</time>
      </trkpt>
      <trkpt lat="47.63927" lon="7.12">
        <ele>294.4</ele>
        <time>2019-08-16T10:56:51Z</time>
      </trkpt>
      <trkpt lat="47.63924" lon="7.11996">
        <ele>294.4</ele>
        <time>2019-08-16T10:56:52Z</time>
      </trkpt>
      <trkpt lat="47.6392" lon="7.11992">
        <ele>294.4</ele>
        <time>2019-08-16T10:56:53Z</time>
      </trkpt>
      <trkpt lat="47.63917" lon="7.11988">
        <ele>294.3</ele>
        <time>2019-08-16T10:56:54Z</time>
      </trkpt>
      <trkpt lat="47.63913" lon="7.11984">
        <ele>294.3</ele>
        <time>2019-08-16T10:56:55Z</time>
      </trkpt>
      <trkpt lat="47.6391" lon="7.1198">
        <ele>294.3</ele>
        <time>2019-08-16T10:56:56Z</time>
      </trkpt>
      <trkpt lat="47.63907" lon="7.11976">
        <ele>294.2</ele>
        <time>2019-08-16T10:56:57Z</time>
      </trkpt>
      <trkpt lat="47.63904" lon="7.11972">
        <ele>294.2</ele>
        <time>2019-08-16T10:56:58Z</time>
      </trkpt>
      <trkpt lat="47.639" lon="7.11969">
        <ele>294.3</ele>
        <time>2019-08-16T10:56:59Z</time>
      </trkpt>
      <trkpt lat="47.63897" lon="7.11965">
        <ele>294.3</ele>
        <time>2019-08-16T10:57:00Z</time>
      </trkpt>
      <trkpt lat="47.63894" lon="7.11962">
        <ele>294.3</ele>
        <time>2019-08-16T10:57:01Z</time>
      </trkpt>
      <trkpt lat="47.6389" lon="7.11958">
        <ele>294.4</ele>
        <time>2019-08-16T10:57:02Z</time>
      </trkpt>
      <trkpt lat="47.63886" lon="7.11954">
        <ele>294.4</ele>
        <time>2019-08-16T10:57:03Z</time>
      </trkpt>
      <trkpt lat="47.63882" lon="7.11949">
        <ele>294.5</ele>
        <time>2019-08-16T10:57:04Z</time>
      </trkpt>
      <trkpt lat="47.63878" lon="7.11945">
        <ele>294.5</ele>
        <time>2019-08-16T10:57:05Z</time>
      </trkpt>
      <trkpt lat="47.63873" lon="7.11941">
        <ele>294.5</ele>
        <time>2019-08-16T10:57:06Z</time>
      </trkpt>
      <trkpt lat="47.63869" lon="7.11937">
        <ele>294.5</ele>
        <time>2019-08-16T10:57:07Z</time>
      </trkpt>
      <trkpt lat="47.63865" lon="7.11933">
        <ele>294.6</ele>
        <time>2019-08-16T10:57:08Z</time>
      </trkpt>
      <trkpt lat="47.63861" lon="7.11929">
        <ele>294.6</ele>
        <time>2019-08-16T10:57:09Z</time>
      </trkpt>
      <trkpt lat="47.63858" lon="7.11925">
        <ele>294.6</ele>
        <time>2019-08-16T10:57:10Z</time>
      </trkpt>
      <trkpt lat="47.63855" lon="7.1192">
        <ele>294.6</ele>
        <time>2019-08-16T10:57:11Z</time>
      </trkpt>
      <trkpt lat="47.63852" lon="7.11915">
        <ele>294.6</ele>
        <time>2019-08-16T10:57:12Z</time>
      </trkpt>
      <trkpt lat="47.63849" lon="7.11911">
        <ele>294.7</ele>
        <time>2019-08-16T10:57:13Z</time>
      </trkpt>
      <trkpt lat="47.63846" lon="7.11906">
        <ele>294.7</ele>
        <time>2019-08-16T10:57:14Z</time>
      </trkpt>
      <trkpt lat="47.63842" lon="7.11902">
        <ele>294.8</ele>
        <time>2019-08-16T10:57:15Z</time>
      </trkpt>
      <trkpt lat="47.63839" lon="7.11898">
        <ele>294.8</ele>
        <time>2019-08-16T10:57:16Z</time>
      </trkpt>
      <trkpt lat="47.63836" lon="7.11894">
        <ele>294.9</ele>
        <time>2019-08-16T10:57:17Z</time>
      </trkpt>
      <trkpt lat="47.63832" lon="7.1189">
        <ele>294.9</ele>
        <time>2019-08-16T10:57:18Z</time>
      </trkpt>
      <trkpt lat="47.63829" lon="7.11886">
        <ele>295</ele>
        <time>2019-08-16T10:57:19Z</time>
      </trkpt>
      <trkpt lat="47.63825" lon="7.11882">
        <ele>295</ele>
        <time>2019-08-16T10:57:20Z</time>
      </trkpt>
      <trkpt lat="47.63822" lon="7.11879">
        <ele>295</ele>
        <time>2019-08-16T10:57:21Z</time>
      </trkpt>
      <trkpt lat="47.63819" lon="7.11875">
        <ele>295</ele>
        <time>2019-08-16T10:57:22Z</time>
      </trkpt>
      <trkpt lat="47.63816" lon="7.11871">
        <ele>295</ele>
        <time>2019-08-16T10:57:23Z</time>
      </trkpt>
      <trkpt lat="47.63812" lon="7.11867">
        <ele>295</ele>
        <time>2019-08-16T10:57:24Z</time>
      </trkpt>
      <trkpt lat="47.63809" lon="7.11863">
        <ele>295</ele>
        <time>2019-08-16T10:57:25Z</time>
      </trkpt>
      <trkpt lat="47.63805" lon="7.11859">
        <ele>295</ele>
        <time>2019-08-16T10:57:26Z</time>
      </trkpt>
      <trkpt lat="47.63802" lon="7.11855">
        <ele>294.9</ele>
        <time>2019-08-16T10:57:27Z</time>
      </trkpt>
      <trkpt lat="47.63798" lon="7.1185">
        <ele>294.9</ele>
        <time>2019-08-16T10:57:28Z</time>
      </trkpt>
      <trkpt lat="47.63794" lon="7.11846">
        <ele>294.8</ele>
        <time>2019-08-16T10:57:29Z</time>
      </trkpt>
      <trkpt lat="47.63791" lon="7.11841">
        <ele>294.8</ele>
        <time>2019-08-16T10:57:30Z</time>
      </trkpt>
      <trkpt lat="47.63787" lon="7.11837">
        <ele>294.8</ele>
        <time>2019-08-16T10:57:31Z</time>
      </trkpt>
      <trkpt lat="47.63783" lon="7.11832">
        <ele>294.8</ele>
        <time>2019-08-16T10:57:32Z</time>
      </trkpt>
      <trkpt lat="47.6378" lon="7.11828">
        <ele>294.8</ele>
        <time>2019-08-16T10:57:33Z</time>
      </trkpt>
      <trkpt lat="47.63777" lon="7.11824">
        <ele>294.9</ele>
        <time>2019-08-16T10:57:34Z</time>
      </trkpt>
      <trkpt lat="47.63773" lon="7.11821">
        <ele>295</ele>
        <time>2019-08-16T10:57:35Z</time>
      </trkpt>
      <trkpt lat="47.6377" lon="7.11816">
        <ele>295.1</ele>
        <time>2019-08-16T10:57:36Z</time>
      </trkpt>
      <trkpt lat="47.63767" lon="7.11812">
        <ele>295.3</ele>
        <time>2019-08-16T10:57:37Z</time>
      </trkpt>
      <trkpt lat="47.63763" lon="7.11807">
        <ele>295.4</ele>
        <time>2019-08-16T10:57:38Z</time>
      </trkpt>
      <trkpt lat="47.6376" lon="7.11803">
        <ele>295.7</ele>
        <time>2019-08-16T10:57:39Z</time>
      </trkpt>
      <trkpt lat="47.63757" lon="7.11799">
        <ele>295.9</ele>
        <time>2019-08-16T10:57:40Z</time>
      </trkpt>
      <trkpt lat="47.63753" lon="7.11795">
        <ele>296.1</ele>
        <time>2019-08-16T10:57:41Z</time>
      </trkpt>
      <trkpt lat="47.6375" lon="7.11791">
        <ele>296.3</ele>
        <time>2019-08-16T10:57:42Z</time>
      </trkpt>
      <trkpt lat="47.63748" lon="7.11787">
        <ele>296.5</ele>
        <time>2019-08-16T10:57:43Z</time>
      </trkpt>
      <trkpt lat="47.63745" lon="7.11783">
        <ele>296.7</ele>
        <time>2019-08-16T10:57:44Z</time>
      </trkpt>
      <trkpt lat="47.63742" lon="7.11779">
        <ele>296.9</ele>
        <time>2019-08-16T10:57:45Z</time>
      </trkpt>
      <trkpt lat="47.63739" lon="7.11776">
        <ele>297</ele>
        <time>2019-08-16T10:57:46Z</time>
      </trkpt>
      <trkpt lat="47.63737" lon="7.11772">
        <ele>297.1</ele>
        <time>2019-08-16T10:57:47Z</time>
      </trkpt>
      <trkpt lat="47.63735" lon="7.11769">
        <ele>297.2</ele>
        <time>2019-08-16T10:57:48Z</time>
      </trkpt>
      <trkpt lat="47.63732" lon="7.11765">
        <ele>297.2</ele>
        <time>2019-08-16T10:57:49Z</time>
      </trkpt>
      <trkpt lat="47.6373" lon="7.11762">
        <ele>297.3</ele>
        <time>2019-08-16T10:57:50Z</time>
      </trkpt>
      <trkpt lat="47.63727" lon="7.11758">
        <ele>297.4</ele>
        <time>2019-08-16T10:57:51Z</time>
      </trkpt>
      <trkpt lat="47.63724" lon="7.11753">
        <ele>297.4</ele>
        <time>2019-08-16T10:57:52Z</time>
      </trkpt>
      <trkpt lat="47.63722" lon="7.11749">
        <ele>297.5</ele>
        <time>2019-08-16T10:57:53Z</time>
      </trkpt>
      <trkpt lat="47.63719" lon="7.11746">
        <ele>297.5</ele>
        <time>2019-08-16T10:57:54Z</time>
      </trkpt>
      <trkpt lat="47.63717" lon="7.11743">
        <ele>297.5</ele>
        <time>2019-08-16T10:57:55Z</time>
      </trkpt>
      <trkpt lat="47.63715" lon="7.1174">
        <ele>297.5</ele>
        <time>2019-08-16T10:57:56Z</time>
      </trkpt>
      <trkpt lat="47.63711" lon="7.11734">
        <ele>297.6</ele>
        <time>2019-08-16T10:57:58Z</time>
      </trkpt>
      <trkpt lat="47.63709" lon="7.11731">
        <ele>297.6</ele>
        <time>2019-08-16T10:57:59Z</time>
      </trkpt>
      <trkpt lat="47.63706" lon="7.11727">
        <ele>297.6</ele>
        <time>2019-08-16T10:58:00Z</time>
      </trkpt>
      <trkpt lat="47.63702" lon="7.11723">
        <ele>297.6</ele>
        <time>2019-08-16T10:58:01Z</time>
      </trkpt>
      <trkpt lat="47.63699" lon="7.11719">
        <ele>297.6</ele>
        <time>2019-08-16T10:58:02Z</time>
      </trkpt>
      <trkpt lat="47.63696" lon="7.11715">
        <ele>297.5</ele>
        <time>2019-08-16T10:58:03Z</time>
      </trkpt>
      <trkpt lat="47.63693" lon="7.11711">
        <ele>297.5</ele>
        <time>2019-08-16T10:58:04Z</time>
      </trkpt>
      <trkpt lat="47.6369" lon="7.11707">
        <ele>297.4</ele>
        <time>2019-08-16T10:58:05Z</time>
      </trkpt>
      <trkpt lat="47.63687" lon="7.11703">
        <ele>297.4</ele>
        <time>2019-08-16T10:58:06Z</time>
      </trkpt>
      <trkpt lat="47.63683" lon="7.11699">
        <ele>297.3</ele>
        <time>2019-08-16T10:58:07Z</time>
      </trkpt>
      <trkpt lat="47.6368" lon="7.11695">
        <ele>297.3</ele>
        <time>2019-08-16T10:58:08Z</time>
      </trkpt>
      <trkpt lat="47.63677" lon="7.11692">
        <ele>297.3</ele>
        <time>2019-08-16T10:58:09Z</time>
      </trkpt>
      <trkpt lat="47.63673" lon="7.11689">
        <ele>297.2</ele>
        <time>2019-08-16T10:58:10Z</time>
      </trkpt>
      <trkpt lat="47.6367" lon="7.11685">
        <ele>297.1</ele>
        <time>2019-08-16T10:58:11Z</time>
      </trkpt>
      <trkpt lat="47.63666" lon="7.11681">
        <ele>297.1</ele>
        <time>2019-08-16T10:58:12Z</time>
      </trkpt>
      <trkpt lat="47.63662" lon="7.11678">
        <ele>297</ele>
        <time>2019-08-16T10:58:13Z</time>
      </trkpt>
      <trkpt lat="47.63658" lon="7.11674">
        <ele>297</ele>
        <time>2019-08-16T10:58:14Z</time>
      </trkpt>
      <trkpt lat="47.63654" lon="7.11669">
        <ele>297</ele>
        <time>2019-08-16T10:58:15Z</time>
      </trkpt>
      <trkpt lat="47.63651" lon="7.11666">
        <ele>297</ele>
        <time>2019-08-16T10:58:16Z</time>
      </trkpt>
      <trkpt lat="47.63647" lon="7.11661">
        <ele>297</ele>
        <time>2019-08-16T10:58:17Z</time>
      </trkpt>
      <trkpt lat="47.63643" lon="7.11658">
        <ele>297</ele>
        <time>2019-08-16T10:58:18Z</time>
      </trkpt>
      <trkpt lat="47.6364" lon="7.11654">
        <ele>297</ele>
        <time>2019-08-16T10:58:19Z</time>
      </trkpt>
      <trkpt lat="47.63636" lon="7.11651">
        <ele>297.1</ele>
        <time>2019-08-16T10:58:20Z</time>
      </trkpt>
      <trkpt lat="47.63633" lon="7.11648">
        <ele>297.1</ele>
        <time>2019-08-16T10:58:21Z</time>
      </trkpt>
      <trkpt lat="47.6363" lon="7.11644">
        <ele>297.2</ele>
        <time>2019-08-16T10:58:22Z</time>
      </trkpt>
      <trkpt lat="47.63626" lon="7.1164">
        <ele>297.3</ele>
        <time>2019-08-16T10:58:23Z</time>
      </trkpt>
      <trkpt lat="47.63623" lon="7.11636">
        <ele>297.3</ele>
        <time>2019-08-16T10:58:24Z</time>
      </trkpt>
      <trkpt lat="47.63619" lon="7.11633">
        <ele>297.4</ele>
        <time>2019-08-16T10:58:25Z</time>
      </trkpt>
      <trkpt lat="47.63616" lon="7.1163">
        <ele>297.5</ele>
        <time>2019-08-16T10:58:26Z</time>
      </trkpt>
      <trkpt lat="47.63614" lon="7.11626">
        <ele>297.5</ele>
        <time>2019-08-16T10:58:27Z</time>
      </trkpt>
      <trkpt lat="47.63611" lon="7.11622">
        <ele>297.6</ele>
        <time>2019-08-16T10:58:28Z</time>
      </trkpt>
      <trkpt lat="47.63608" lon="7.11618">
        <ele>297.6</ele>
        <time>2019-08-16T10:58:29Z</time>
      </trkpt>
      <trkpt lat="47.63605" lon="7.11615">
        <ele>297.6</ele>
        <time>2019-08-16T10:58:30Z</time>
      </trkpt>
      <trkpt lat="47.63603" lon="7.11612">
        <ele>297.6</ele>
        <time>2019-08-16T10:58:31Z</time>
      </trkpt>
      <trkpt lat="47.636" lon="7.11609">
        <ele>297.6</ele>
        <time>2019-08-16T10:58:32Z</time>
      </trkpt>
      <trkpt lat="47.63596" lon="7.11605">
        <ele>297.6</ele>
        <time>2019-08-16T10:58:33Z</time>
      </trkpt>
      <trkpt lat="47.63591" lon="7.11601">
        <ele>297.6</ele>
        <time>2019-08-16T10:58:35Z</time>
      </trkpt>
      <trkpt lat="47.63589" lon="7.11598">
        <ele>297.6</ele>
        <time>2019-08-16T10:58:36Z</time>
      </trkpt>
      <trkpt lat="47.63586" lon="7.11595">
        <ele>297.6</ele>
        <time>2019-08-16T10:58:37Z</time>
      </trkpt>
      <trkpt lat="47.63584" lon="7.11591">
        <ele>297.7</ele>
        <time>2019-08-16T10:58:38Z</time>
      </trkpt>
      <trkpt lat="47.63581" lon="7.11587">
        <ele>297.7</ele>
        <time>2019-08-16T10:58:39Z</time>
      </trkpt>
      <trkpt lat="47.63578" lon="7.11584">
        <ele>297.7</ele>
        <time>2019-08-16T10:58:40Z</time>
      </trkpt>
      <trkpt lat="47.63575" lon="7.1158">
        <ele>297.8</ele>
        <time>2019-08-16T10:58:41Z</time>
      </trkpt>
      <trkpt lat="47.63572" lon="7.11576">
        <ele>297.8</ele>
        <time>2019-08-16T10:58:42Z</time>
      </trkpt>
      <trkpt lat="47.6357" lon="7.11572">
        <ele>297.8</ele>
        <time>2019-08-16T10:58:43Z</time>
      </trkpt>
      <trkpt lat="47.63568" lon="7.11566">
        <ele>297.9</ele>
        <time>2019-08-16T10:58:44Z</time>
      </trkpt>
      <trkpt lat="47.63566" lon="7.11559">
        <ele>297.9</ele>
        <time>2019-08-16T10:58:45Z</time>
      </trkpt>
      <trkpt lat="47.63564" lon="7.11551">
        <ele>297.9</ele>
        <time>2019-08-16T10:58:46Z</time>
      </trkpt>
      <trkpt lat="47.63563" lon="7.11545">
        <ele>297.9</ele>
        <time>2019-08-16T10:58:47Z</time>
      </trkpt>
      <trkpt lat="47.63563" lon="7.11536">
        <ele>297.9</ele>
        <time>2019-08-16T10:58:48Z</time>
      </trkpt>
      <trkpt lat="47.63562" lon="7.1153">
        <ele>297.9</ele>
        <time>2019-08-16T10:58:49Z</time>
      </trkpt>
      <trkpt lat="47.63561" lon="7.11523">
        <ele>297.9</ele>
        <time>2019-08-16T10:58:50Z</time>
      </trkpt>
      <trkpt lat="47.63561" lon="7.11516">
        <ele>298</ele>
        <time>2019-08-16T10:58:51Z</time>
      </trkpt>
      <trkpt lat="47.6356" lon="7.1151">
        <ele>298</ele>
        <time>2019-08-16T10:58:52Z</time>
      </trkpt>
      <trkpt lat="47.6356" lon="7.11503">
        <ele>298.1</ele>
        <time>2019-08-16T10:58:53Z</time>
      </trkpt>
      <trkpt lat="47.6356" lon="7.11496">
        <ele>298.2</ele>
        <time>2019-08-16T10:58:54Z</time>
      </trkpt>
      <trkpt lat="47.63559" lon="7.1149">
        <ele>298.2</ele>
        <time>2019-08-16T10:58:55Z</time>
      </trkpt>
      <trkpt lat="47.63559" lon="7.11483">
        <ele>298.3</ele>
        <time>2019-08-16T10:58:56Z</time>
      </trkpt>
      <trkpt lat="47.63559" lon="7.11477">
        <ele>298.4</ele>
        <time>2019-08-16T10:58:57Z</time>
      </trkpt>
      <trkpt lat="47.63559" lon="7.11471">
        <ele>298.5</ele>
        <time>2019-08-16T10:58:58Z</time>
      </trkpt>
      <trkpt lat="47.63559" lon="7.11465">
        <ele>298.6</ele>
        <time>2019-08-16T10:58:59Z</time>
      </trkpt>
      <trkpt lat="47.63559" lon="7.11459">
        <ele>298.8</ele>
        <time>2019-08-16T10:59:00Z</time>
      </trkpt>
      <trkpt lat="47.63559" lon="7.11453">
        <ele>298.9</ele>
        <time>2019-08-16T10:59:01Z</time>
      </trkpt>
      <trkpt lat="47.6356" lon="7.11447">
        <ele>299</ele>
        <time>2019-08-16T10:59:02Z</time>
      </trkpt>
      <trkpt lat="47.6356" lon="7.1144">
        <ele>299.1</ele>
        <time>2019-08-16T10:59:03Z</time>
      </trkpt>
      <trkpt lat="47.63561" lon="7.11434">
        <ele>299.1</ele>
        <time>2019-08-16T10:59:04Z</time>
      </trkpt>
      <trkpt lat="47.63561" lon="7.11428">
        <ele>299</ele>
        <time>2019-08-16T10:59:05Z</time>
      </trkpt>
      <trkpt lat="47.63561" lon="7.11423">
        <ele>299</ele>
        <time>2019-08-16T10:59:06Z</time>
      </trkpt>
      <trkpt lat="47.63562" lon="7.11419">
        <ele>298.9</ele>
        <time>2019-08-16T10:59:07Z</time>
      </trkpt>
      <trkpt lat="47.63563" lon="7.11415">
        <ele>298.9</ele>
        <time>2019-08-16T10:59:08Z</time>
      </trkpt>
      <trkpt lat="47.63563" lon="7.11411">
        <ele>298.8</ele>
        <time>2019-08-16T10:59:09Z</time>
      </trkpt>
      <trkpt lat="47.63562" lon="7.11406">
        <ele>298.8</ele>
        <time>2019-08-16T10:59:10Z</time>
      </trkpt>
      <trkpt lat="47.63563" lon="7.11401">
        <ele>298.8</ele>
        <time>2019-08-16T10:59:11Z</time>
      </trkpt>
      <trkpt lat="47.63564" lon="7.11396">
        <ele>298.7</ele>
        <time>2019-08-16T10:59:12Z</time>
      </trkpt>
      <trkpt lat="47.63564" lon="7.11391">
        <ele>298.7</ele>
        <time>2019-08-16T10:59:13Z</time>
      </trkpt>
      <trkpt lat="47.63564" lon="7.11385">
        <ele>298.6</ele>
        <time>2019-08-16T10:59:14Z</time>
      </trkpt>
      <trkpt lat="47.63564" lon="7.11379">
        <ele>298.6</ele>
        <time>2019-08-16T10:59:15Z</time>
      </trkpt>
      <trkpt lat="47.63564" lon="7.11372">
        <ele>298.5</ele>
        <time>2019-08-16T10:59:16Z</time>
      </trkpt>
      <trkpt lat="47.63565" lon="7.11367">
        <ele>298.5</ele>
        <time>2019-08-16T10:59:17Z</time>
      </trkpt>
      <trkpt lat="47.63565" lon="7.11361">
        <ele>298.4</ele>
        <time>2019-08-16T10:59:18Z</time>
      </trkpt>
      <trkpt lat="47.63565" lon="7.11356">
        <ele>298.4</ele>
        <time>2019-08-16T10:59:19Z</time>
      </trkpt>
      <trkpt lat="47.63566" lon="7.1135">
        <ele>298.4</ele>
        <time>2019-08-16T10:59:20Z</time>
      </trkpt>
      <trkpt lat="47.63566" lon="7.11345">
        <ele>298.4</ele>
        <time>2019-08-16T10:59:21Z</time>
      </trkpt>
      <trkpt lat="47.63566" lon="7.11341">
        <ele>298.4</ele>
        <time>2019-08-16T10:59:22Z</time>
      </trkpt>
      <trkpt lat="47.63566" lon="7.11336">
        <ele>298.4</ele>
        <time>2019-08-16T10:59:23Z</time>
      </trkpt>
      <trkpt lat="47.63566" lon="7.11331">
        <ele>298.4</ele>
        <time>2019-08-16T10:59:24Z</time>
      </trkpt>
      <trkpt lat="47.63565" lon="7.11326">
        <ele>298.4</ele>
        <time>2019-08-16T10:59:25Z</time>
      </trkpt>
      <trkpt lat="47.63564" lon="7.1132">
        <ele>298.4</ele>
        <time>2019-08-16T10:59:26Z</time>
      </trkpt>
      <trkpt lat="47.63563" lon="7.11315">
        <ele>298.4</ele>
        <time>2019-08-16T10:59:27Z</time>
      </trkpt>
      <trkpt lat="47.63563" lon="7.11311">
        <ele>298.4</ele>
        <time>2019-08-16T10:59:28Z</time>
      </trkpt>
      <trkpt lat="47.63563" lon="7.11306">
        <ele>298.3</ele>
        <time>2019-08-16T10:59:29Z</time>
      </trkpt>
      <trkpt lat="47.63563" lon="7.11301">
        <ele>298.3</ele>
        <time>2019-08-16T10:59:30Z</time>
      </trkpt>
      <trkpt lat="47.63563" lon="7.11295">
        <ele>298.3</ele>
        <time>2019-08-16T10:59:31Z</time>
      </trkpt>
      <trkpt lat="47.63563" lon="7.11289">
        <ele>298.3</ele>
        <time>2019-08-16T10:59:32Z</time>
      </trkpt>
      <trkpt lat="47.63563" lon="7.11283">
        <ele>298.2</ele>
        <time>2019-08-16T10:59:33Z</time>
      </trkpt>
      <trkpt lat="47.63563" lon="7.11277">
        <ele>298.2</ele>
        <time>2019-08-16T10:59:34Z</time>
      </trkpt>
      <trkpt lat="47.63563" lon="7.1127">
        <ele>298.2</ele>
        <time>2019-08-16T10:59:35Z</time>
      </trkpt>
      <trkpt lat="47.63563" lon="7.11264">
        <ele>298.1</ele>
        <time>2019-08-16T10:59:36Z</time>
      </trkpt>
      <trkpt lat="47.63562" lon="7.11259">
        <ele>298.1</ele>
        <time>2019-08-16T10:59:37Z</time>
      </trkpt>
      <trkpt lat="47.63562" lon="7.11254">
        <ele>298.1</ele>
        <time>2019-08-16T10:59:38Z</time>
      </trkpt>
      <trkpt lat="47.63561" lon="7.1125">
        <ele>298.2</ele>
        <time>2019-08-16T10:59:39Z</time>
      </trkpt>
      <trkpt lat="47.6356" lon="7.11245">
        <ele>298.2</ele>
        <time>2019-08-16T10:59:40Z</time>
      </trkpt>
      <trkpt lat="47.6356" lon="7.11241">
        <ele>298.3</ele>
        <time>2019-08-16T10:59:41Z</time>
      </trkpt>
      <trkpt lat="47.6356" lon="7.11235">
        <ele>298.3</ele>
        <time>2019-08-16T10:59:43Z</time>
      </trkpt>
      <trkpt lat="47.6356" lon="7.11228">
        <ele>298.3</ele>
        <time>2019-08-16T10:59:45Z</time>
      </trkpt>
      <trkpt lat="47.6356" lon="7.11224">
        <ele>298.3</ele>
        <time>2019-08-16T10:59:46Z</time>
      </trkpt>
      <trkpt lat="47.6356" lon="7.11219">
        <ele>298.3</ele>
        <time>2019-08-16T10:59:47Z</time>
      </trkpt>
      <trkpt lat="47.63561" lon="7.11214">
        <ele>298.3</ele>
        <time>2019-08-16T10:59:48Z</time>
      </trkpt>
      <trkpt lat="47.63561" lon="7.11208">
        <ele>298.3</ele>
        <time>2019-08-16T10:59:49Z</time>
      </trkpt>
      <trkpt lat="47.63561" lon="7.11203">
        <ele>298.3</ele>
        <time>2019-08-16T10:59:50Z</time>
      </trkpt>
      <trkpt lat="47.63561" lon="7.11197">
        <ele>298.3</ele>
        <time>2019-08-16T10:59:51Z</time>
      </trkpt>
      <trkpt lat="47.63562" lon="7.11192">
        <ele>298.4</ele>
        <time>2019-08-16T10:59:52Z</time>
      </trkpt>
      <trkpt lat="47.63561" lon="7.11187">
        <ele>298.4</ele>
        <time>2019-08-16T10:59:53Z</time>
      </trkpt>
      <trkpt lat="47.63561" lon="7.11182">
        <ele>298.4</ele>
        <time>2019-08-16T10:59:54Z</time>
      </trkpt>
      <trkpt lat="47.6356" lon="7.11178">
        <ele>298.4</ele>
        <time>2019-08-16T10:59:55Z</time>
      </trkpt>
      <trkpt lat="47.6356" lon="7.11174">
        <ele>298.4</ele>
        <time>2019-08-16T10:59:56Z</time>
      </trkpt>
      <trkpt lat="47.63559" lon="7.11166">
        <ele>298.4</ele>
        <time>2019-08-16T10:59:58Z</time>
      </trkpt>
      <trkpt lat="47.63559" lon="7.11162">
        <ele>298.4</ele>
        <time>2019-08-16T10:59:59Z</time>
      </trkpt>
      <trkpt lat="47.63559" lon="7.11157">
        <ele>298.4</ele>
        <time>2019-08-16T11:00:00Z</time>
      </trkpt>
      <trkpt lat="47.63558" lon="7.11152">
        <ele>298.4</ele>
        <time>2019-08-16T11:00:01Z</time>
      </trkpt>
      <trkpt lat="47.63558" lon="7.11146">
        <ele>298.4</ele>
        <time>2019-08-16T11:00:02Z</time>
      </trkpt>
      <trkpt lat="47.63558" lon="7.1114">
        <ele>298.4</ele>
        <time>2019-08-16T11:00:03Z</time>
      </trkpt>
      <trkpt lat="47.63558" lon="7.11134">
        <ele>298.4</ele>
        <time>2019-08-16T11:00:04Z</time>
      </trkpt>
      <trkpt lat="47.63558" lon="7.11129">
        <ele>298.4</ele>
        <time>2019-08-16T11:00:05Z</time>
      </trkpt>
      <trkpt lat="47.63558" lon="7.11122">
        <ele>298.4</ele>
        <time>2019-08-16T11:00:06Z</time>
      </trkpt>
      <trkpt lat="47.63558" lon="7.11116">
        <ele>298.5</ele>
        <time>2019-08-16T11:00:07Z</time>
      </trkpt>
      <trkpt lat="47.63559" lon="7.1111">
        <ele>298.5</ele>
        <time>2019-08-16T11:00:08Z</time>
      </trkpt>
      <trkpt lat="47.63559" lon="7.11103">
        <ele>298.5</ele>
        <time>2019-08-16T11:00:09Z</time>
      </trkpt>
      <trkpt lat="47.63559" lon="7.11097">
        <ele>298.6</ele>
        <time>2019-08-16T11:00:10Z</time>
      </trkpt>
      <trkpt lat="47.6356" lon="7.11091">
        <ele>298.6</ele>
        <time>2019-08-16T11:00:11Z</time>
      </trkpt>
      <trkpt lat="47.6356" lon="7.11085">
        <ele>298.6</ele>
        <time>2019-08-16T11:00:12Z</time>
      </trkpt>
      <trkpt lat="47.6356" lon="7.11079">
        <ele>298.7</ele>
        <time>2019-08-16T11:00:13Z</time>
      </trkpt>
      <trkpt lat="47.6356" lon="7.11073">
        <ele>298.7</ele>
        <time>2019-08-16T11:00:14Z</time>
      </trkpt>
      <trkpt lat="47.63561" lon="7.11067">
        <ele>298.7</ele>
        <time>2019-08-16T11:00:15Z</time>
      </trkpt>
      <trkpt lat="47.63561" lon="7.11062">
        <ele>298.8</ele>
        <time>2019-08-16T11:00:16Z</time>
      </trkpt>
      <trkpt lat="47.63561" lon="7.11056">
        <ele>298.9</ele>
        <time>2019-08-16T11:00:17Z</time>
      </trkpt>
      <trkpt lat="47.63561" lon="7.1105">
        <ele>299</ele>
        <time>2019-08-16T11:00:18Z</time>
      </trkpt>
      <trkpt lat="47.63562" lon="7.11044">
        <ele>299.2</ele>
        <time>2019-08-16T11:00:19Z</time>
      </trkpt>
      <trkpt lat="47.63562" lon="7.11038">
        <ele>299.4</ele>
        <time>2019-08-16T11:00:20Z</time>
      </trkpt>
      <trkpt lat="47.63561" lon="7.11032">
        <ele>299.6</ele>
        <time>2019-08-16T11:00:21Z</time>
      </trkpt>
      <trkpt lat="47.63561" lon="7.11026">
        <ele>299.8</ele>
        <time>2019-08-16T11:00:22Z</time>
      </trkpt>
      <trkpt lat="47.63561" lon="7.11021">
        <ele>299.9</ele>
        <time>2019-08-16T11:00:23Z</time>
      </trkpt>
      <trkpt lat="47.6356" lon="7.11015">
        <ele>300.1</ele>
        <time>2019-08-16T11:00:24Z</time>
      </trkpt>
      <trkpt lat="47.63559" lon="7.11009">
        <ele>300.4</ele>
        <time>2019-08-16T11:00:25Z</time>
      </trkpt>
      <trkpt lat="47.63558" lon="7.11002">
        <ele>300.6</ele>
        <time>2019-08-16T11:00:26Z</time>
      </trkpt>
      <trkpt lat="47.63558" lon="7.10996">
        <ele>300.8</ele>
        <time>2019-08-16T11:00:27Z</time>
      </trkpt>
      <trkpt lat="47.63558" lon="7.10991">
        <ele>300.9</ele>
        <time>2019-08-16T11:00:28Z</time>
      </trkpt>
      <trkpt lat="47.63557" lon="7.10985">
        <ele>300.9</ele>
        <time>2019-08-16T11:00:29Z</time>
      </trkpt>
      <trkpt lat="47.63557" lon="7.10978">
        <ele>300.9</ele>
        <time>2019-08-16T11:00:30Z</time>
      </trkpt>
      <trkpt lat="47.63557" lon="7.10972">
        <ele>300.9</ele>
        <time>2019-08-16T11:00:31Z</time>
      </trkpt>
      <trkpt lat="47.63556" lon="7.10966">
        <ele>300.9</ele>
        <time>2019-08-16T11:00:32Z</time>
      </trkpt>
      <trkpt lat="47.63556" lon="7.10959">
        <ele>300.9</ele>
        <time>2019-08-16T11:00:33Z</time>
      </trkpt>
      <trkpt lat="47.63556" lon="7.10953">
        <ele>300.9</ele>
        <time>2019-08-16T11:00:34Z</time>
      </trkpt>
      <trkpt lat="47.63555" lon="7.10948">
        <ele>300.9</ele>
        <time>2019-08-16T11:00:35Z</time>
      </trkpt>
      <trkpt lat="47.63554" lon="7.10941">
        <ele>300.9</ele>
        <time>2019-08-16T11:00:36Z</time>
      </trkpt>
      <trkpt lat="47.63553" lon="7.10935">
        <ele>300.9</ele>
        <time>2019-08-16T11:00:37Z</time>
      </trkpt>
      <trkpt lat="47.63553" lon="7.10929">
        <ele>300.9</ele>
        <time>2019-08-16T11:00:38Z</time>
      </trkpt>
      <trkpt lat="47.63552" lon="7.10923">
        <ele>300.9</ele>
        <time>2019-08-16T11:00:39Z</time>
      </trkpt>
      <trkpt lat="47.63552" lon="7.10917">
        <ele>300.9</ele>
        <time>2019-08-16T11:00:40Z</time>
      </trkpt>
      <trkpt lat="47.63551" lon="7.10912">
        <ele>300.9</ele>
        <time>2019-08-16T11:00:41Z</time>
      </trkpt>
      <trkpt lat="47.6355" lon="7.10906">
        <ele>300.9</ele>
        <time>2019-08-16T11:00:42Z</time>
      </trkpt>
      <trkpt lat="47.63549" lon="7.109">
        <ele>300.9</ele>
        <time>2019-08-16T11:00:43Z</time>
      </trkpt>
      <trkpt lat="47.63548" lon="7.10894">
        <ele>300.9</ele>
        <time>2019-08-16T11:00:44Z</time>
      </trkpt>
      <trkpt lat="47.63546" lon="7.10887">
        <ele>300.9</ele>
        <time>2019-08-16T11:00:45Z</time>
      </trkpt>
      <trkpt lat="47.63544" lon="7.10881">
        <ele>300.9</ele>
        <time>2019-08-16T11:00:46Z</time>
      </trkpt>
      <trkpt lat="47.63543" lon="7.10875">
        <ele>300.9</ele>
        <time>2019-08-16T11:00:47Z</time>
      </trkpt>
      <trkpt lat="47.63542" lon="7.10869">
        <ele>300.9</ele>
        <time>2019-08-16T11:00:48Z</time>
      </trkpt>
      <trkpt lat="47.6354" lon="7.10864">
        <ele>300.9</ele>
        <time>2019-08-16T11:00:49Z</time>
      </trkpt>
      <trkpt lat="47.63539" lon="7.10858">
        <ele>300.9</ele>
        <time>2019-08-16T11:00:50Z</time>
      </trkpt>
      <trkpt lat="47.63537" lon="7.10852">
        <ele>300.9</ele>
        <time>2019-08-16T11:00:51Z</time>
      </trkpt>
      <trkpt lat="47.63534" lon="7.10845">
        <ele>300.9</ele>
        <time>2019-08-16T11:00:52Z</time>
      </trkpt>
      <trkpt lat="47.63533" lon="7.1084">
        <ele>300.9</ele>
        <time>2019-08-16T11:00:53Z</time>
      </trkpt>
      <trkpt lat="47.63531" lon="7.10835">
        <ele>300.9</ele>
        <time>2019-08-16T11:00:54Z</time>
      </trkpt>
      <trkpt lat="47.63529" lon="7.10831">
        <ele>300.9</ele>
        <time>2019-08-16T11:00:55Z</time>
      </trkpt>
      <trkpt lat="47.63527" lon="7.10826">
        <ele>300.9</ele>
        <time>2019-08-16T11:00:56Z</time>
      </trkpt>
      <trkpt lat="47.63525" lon="7.10821">
        <ele>300.9</ele>
        <time>2019-08-16T11:00:57Z</time>
      </trkpt>
      <trkpt lat="47.63523" lon="7.10817">
        <ele>300.9</ele>
        <time>2019-08-16T11:00:58Z</time>
      </trkpt>
      <trkpt lat="47.63522" lon="7.10812">
        <ele>300.9</ele>
        <time>2019-08-16T11:00:59Z</time>
      </trkpt>
      <trkpt lat="47.63519" lon="7.10806">
        <ele>300.9</ele>
        <time>2019-08-16T11:01:00Z</time>
      </trkpt>
      <trkpt lat="47.63517" lon="7.108">
        <ele>300.9</ele>
        <time>2019-08-16T11:01:01Z</time>
      </trkpt>
      <trkpt lat="47.63514" lon="7.10794">
        <ele>300.9</ele>
        <time>2019-08-16T11:01:02Z</time>
      </trkpt>
      <trkpt lat="47.63512" lon="7.10789">
        <ele>300.9</ele>
        <time>2019-08-16T11:01:03Z</time>
      </trkpt>
      <trkpt lat="47.63509" lon="7.10783">
        <ele>300.9</ele>
        <time>2019-08-16T11:01:04Z</time>
      </trkpt>
      <trkpt lat="47.63507" lon="7.10778">
        <ele>300.9</ele>
        <time>2019-08-16T11:01:05Z</time>
      </trkpt>
      <trkpt lat="47.63504" lon="7.10772">
        <ele>301</ele>
        <time>2019-08-16T11:01:06Z</time>
      </trkpt>
      <trkpt lat="47.63502" lon="7.10767">
        <ele>301</ele>
        <time>2019-08-16T11:01:07Z</time>
      </trkpt>
      <trkpt lat="47.63499" lon="7.10762">
        <ele>301</ele>
        <time>2019-08-16T11:01:08Z</time>
      </trkpt>
      <trkpt lat="47.63497" lon="7.10757">
        <ele>301.1</ele>
        <time>2019-08-16T11:01:09Z</time>
      </trkpt>
      <trkpt lat="47.63494" lon="7.10753">
        <ele>301.1</ele>
        <time>2019-08-16T11:01:10Z</time>
      </trkpt>
      <trkpt lat="47.63491" lon="7.10749">
        <ele>301.2</ele>
        <time>2019-08-16T11:01:11Z</time>
      </trkpt>
      <trkpt lat="47.6349" lon="7.10745">
        <ele>301.3</ele>
        <time>2019-08-16T11:01:12Z</time>
      </trkpt>
      <trkpt lat="47.63487" lon="7.1074">
        <ele>301.4</ele>
        <time>2019-08-16T11:01:13Z</time>
      </trkpt>
      <trkpt lat="47.63485" lon="7.10736">
        <ele>301.5</ele>
        <time>2019-08-16T11:01:14Z</time>
      </trkpt>
      <trkpt lat="47.63482" lon="7.10731">
        <ele>301.6</ele>
        <time>2019-08-16T11:01:15Z</time>
      </trkpt>
      <trkpt lat="47.6348" lon="7.10727">
        <ele>301.8</ele>
        <time>2019-08-16T11:01:16Z</time>
      </trkpt>
      <trkpt lat="47.63477" lon="7.10723">
        <ele>302</ele>
        <time>2019-08-16T11:01:17Z</time>
      </trkpt>
      <trkpt lat="47.63474" lon="7.10719">
        <ele>302.2</ele>
        <time>2019-08-16T11:01:18Z</time>
      </trkpt>
      <trkpt lat="47.63472" lon="7.10714">
        <ele>302.4</ele>
        <time>2019-08-16T11:01:19Z</time>
      </trkpt>
      <trkpt lat="47.63469" lon="7.10711">
        <ele>302.7</ele>
        <time>2019-08-16T11:01:20Z</time>
      </trkpt>
      <trkpt lat="47.63467" lon="7.10706">
        <ele>302.7</ele>
        <time>2019-08-16T11:01:21Z</time>
      </trkpt>
      <trkpt lat="47.63465" lon="7.10701">
        <ele>302.7</ele>
        <time>2019-08-16T11:01:22Z</time>
      </trkpt>
      <trkpt lat="47.63463" lon="7.10696">
        <ele>302.7</ele>
        <time>2019-08-16T11:01:23Z</time>
      </trkpt>
      <trkpt lat="47.63461" lon="7.10692">
        <ele>302.7</ele>
        <time>2019-08-16T11:01:24Z</time>
      </trkpt>
      <trkpt lat="47.63459" lon="7.10685">
        <ele>302.7</ele>
        <time>2019-08-16T11:01:26Z</time>
      </trkpt>
      <trkpt lat="47.63457" lon="7.10682">
        <ele>302.7</ele>
        <time>2019-08-16T11:01:27Z</time>
      </trkpt>
      <trkpt lat="47.63454" lon="7.10679">
        <ele>302.7</ele>
        <time>2019-08-16T11:01:28Z</time>
      </trkpt>
      <trkpt lat="47.63452" lon="7.10677">
        <ele>302.7</ele>
        <time>2019-08-16T11:01:29Z</time>
      </trkpt>
      <trkpt lat="47.63449" lon="7.10674">
        <ele>302.7</ele>
        <time>2019-08-16T11:01:30Z</time>
      </trkpt>
      <trkpt lat="47.63447" lon="7.10671">
        <ele>302.7</ele>
        <time>2019-08-16T11:01:31Z</time>
      </trkpt>
      <trkpt lat="47.63445" lon="7.10668">
        <ele>302.8</ele>
        <time>2019-08-16T11:01:32Z</time>
      </trkpt>
      <trkpt lat="47.63442" lon="7.10664">
        <ele>302.8</ele>
        <time>2019-08-16T11:01:33Z</time>
      </trkpt>
      <trkpt lat="47.63441" lon="7.1066">
        <ele>302.8</ele>
        <time>2019-08-16T11:01:34Z</time>
      </trkpt>
      <trkpt lat="47.63437" lon="7.10653">
        <ele>302.8</ele>
        <time>2019-08-16T11:01:36Z</time>
      </trkpt>
      <trkpt lat="47.63435" lon="7.10649">
        <ele>302.9</ele>
        <time>2019-08-16T11:01:38Z</time>
      </trkpt>
      <trkpt lat="47.63432" lon="7.10644">
        <ele>302.9</ele>
        <time>2019-08-16T11:01:40Z</time>
      </trkpt>
      <trkpt lat="47.63428" lon="7.10638">
        <ele>302.9</ele>
        <time>2019-08-16T11:01:42Z</time>
      </trkpt>
      <trkpt lat="47.63425" lon="7.10634">
        <ele>303</ele>
        <time>2019-08-16T11:01:43Z</time>
      </trkpt>
      <trkpt lat="47.63422" lon="7.10629">
        <ele>303</ele>
        <time>2019-08-16T11:01:44Z</time>
      </trkpt>
      <trkpt lat="47.63419" lon="7.10625">
        <ele>303.1</ele>
        <time>2019-08-16T11:01:45Z</time>
      </trkpt>
      <trkpt lat="47.63416" lon="7.1062">
        <ele>303.2</ele>
        <time>2019-08-16T11:01:46Z</time>
      </trkpt>
      <trkpt lat="47.63413" lon="7.10616">
        <ele>303.4</ele>
        <time>2019-08-16T11:01:47Z</time>
      </trkpt>
      <trkpt lat="47.6341" lon="7.10611">
        <ele>303.5</ele>
        <time>2019-08-16T11:01:48Z</time>
      </trkpt>
      <trkpt lat="47.63408" lon="7.10607">
        <ele>303.7</ele>
        <time>2019-08-16T11:01:49Z</time>
      </trkpt>
      <trkpt lat="47.63405" lon="7.10602">
        <ele>303.9</ele>
        <time>2019-08-16T11:01:50Z</time>
      </trkpt>
      <trkpt lat="47.63403" lon="7.10598">
        <ele>304</ele>
        <time>2019-08-16T11:01:51Z</time>
      </trkpt>
      <trkpt lat="47.63401" lon="7.10594">
        <ele>304.2</ele>
        <time>2019-08-16T11:01:52Z</time>
      </trkpt>
      <trkpt lat="47.63398" lon="7.10588">
        <ele>304.4</ele>
        <time>2019-08-16T11:01:53Z</time>
      </trkpt>
      <trkpt lat="47.63396" lon="7.10584">
        <ele>304.6</ele>
        <time>2019-08-16T11:01:54Z</time>
      </trkpt>
      <trkpt lat="47.63393" lon="7.1058">
        <ele>304.8</ele>
        <time>2019-08-16T11:01:55Z</time>
      </trkpt>
      <trkpt lat="47.63391" lon="7.10575">
        <ele>304.9</ele>
        <time>2019-08-16T11:01:56Z</time>
      </trkpt>
      <trkpt lat="47.63388" lon="7.1057">
        <ele>305</ele>
        <time>2019-08-16T11:01:57Z</time>
      </trkpt>
      <trkpt lat="47.63385" lon="7.10564">
        <ele>305.2</ele>
        <time>2019-08-16T11:01:58Z</time>
      </trkpt>
      <trkpt lat="47.63383" lon="7.10559">
        <ele>305.3</ele>
        <time>2019-08-16T11:01:59Z</time>
      </trkpt>
      <trkpt lat="47.63381" lon="7.10554">
        <ele>305.3</ele>
        <time>2019-08-16T11:02:00Z</time>
      </trkpt>
      <trkpt lat="47.63378" lon="7.10548">
        <ele>305.4</ele>
        <time>2019-08-16T11:02:01Z</time>
      </trkpt>
      <trkpt lat="47.63376" lon="7.10543">
        <ele>305.4</ele>
        <time>2019-08-16T11:02:02Z</time>
      </trkpt>
      <trkpt lat="47.63374" lon="7.10538">
        <ele>305.5</ele>
        <time>2019-08-16T11:02:03Z</time>
      </trkpt>
      <trkpt lat="47.63371" lon="7.10533">
        <ele>305.5</ele>
        <time>2019-08-16T11:02:04Z</time>
      </trkpt>
      <trkpt lat="47.63368" lon="7.10528">
        <ele>305.5</ele>
        <time>2019-08-16T11:02:05Z</time>
      </trkpt>
      <trkpt lat="47.63365" lon="7.10524">
        <ele>305.5</ele>
        <time>2019-08-16T11:02:06Z</time>
      </trkpt>
      <trkpt lat="47.63362" lon="7.10519">
        <ele>305.5</ele>
        <time>2019-08-16T11:02:07Z</time>
      </trkpt>
      <trkpt lat="47.63359" lon="7.10515">
        <ele>305.5</ele>
        <time>2019-08-16T11:02:08Z</time>
      </trkpt>
      <trkpt lat="47.63356" lon="7.1051">
        <ele>305.5</ele>
        <time>2019-08-16T11:02:09Z</time>
      </trkpt>
      <trkpt lat="47.63353" lon="7.10506">
        <ele>305.5</ele>
        <time>2019-08-16T11:02:10Z</time>
      </trkpt>
      <trkpt lat="47.6335" lon="7.10502">
        <ele>305.5</ele>
        <time>2019-08-16T11:02:11Z</time>
      </trkpt>
      <trkpt lat="47.63347" lon="7.10497">
        <ele>305.5</ele>
        <time>2019-08-16T11:02:12Z</time>
      </trkpt>
      <trkpt lat="47.63344" lon="7.10492">
        <ele>305.5</ele>
        <time>2019-08-16T11:02:13Z</time>
      </trkpt>
      <trkpt lat="47.63341" lon="7.10488">
        <ele>305.5</ele>
        <time>2019-08-16T11:02:14Z</time>
      </trkpt>
      <trkpt lat="47.63338" lon="7.10483">
        <ele>305.4</ele>
        <time>2019-08-16T11:02:15Z</time>
      </trkpt>
      <trkpt lat="47.63336" lon="7.10478">
        <ele>305.4</ele>
        <time>2019-08-16T11:02:16Z</time>
      </trkpt>
      <trkpt lat="47.63333" lon="7.10473">
        <ele>305.4</ele>
        <time>2019-08-16T11:02:17Z</time>
      </trkpt>
      <trkpt lat="47.63331" lon="7.10468">
        <ele>305.4</ele>
        <time>2019-08-16T11:02:18Z</time>
      </trkpt>
      <trkpt lat="47.63329" lon="7.10463">
        <ele>305.4</ele>
        <time>2019-08-16T11:02:19Z</time>
      </trkpt>
      <trkpt lat="47.63327" lon="7.10458">
        <ele>305.4</ele>
        <time>2019-08-16T11:02:20Z</time>
      </trkpt>
      <trkpt lat="47.63324" lon="7.10455">
        <ele>305.5</ele>
        <time>2019-08-16T11:02:21Z</time>
      </trkpt>
      <trkpt lat="47.6332" lon="7.10451">
        <ele>305.5</ele>
        <time>2019-08-16T11:02:22Z</time>
      </trkpt>
      <trkpt lat="47.63317" lon="7.10446">
        <ele>305.6</ele>
        <time>2019-08-16T11:02:23Z</time>
      </trkpt>
      <trkpt lat="47.63314" lon="7.10442">
        <ele>305.7</ele>
        <time>2019-08-16T11:02:24Z</time>
      </trkpt>
      <trkpt lat="47.6331" lon="7.10436">
        <ele>305.7</ele>
        <time>2019-08-16T11:02:25Z</time>
      </trkpt>
      <trkpt lat="47.63309" lon="7.10431">
        <ele>305.8</ele>
        <time>2019-08-16T11:02:26Z</time>
      </trkpt>
      <trkpt lat="47.63306" lon="7.10427">
        <ele>305.8</ele>
        <time>2019-08-16T11:02:27Z</time>
      </trkpt>
      <trkpt lat="47.63304" lon="7.10422">
        <ele>305.9</ele>
        <time>2019-08-16T11:02:28Z</time>
      </trkpt>
      <trkpt lat="47.63302" lon="7.10417">
        <ele>305.9</ele>
        <time>2019-08-16T11:02:29Z</time>
      </trkpt>
      <trkpt lat="47.63299" lon="7.10412">
        <ele>305.9</ele>
        <time>2019-08-16T11:02:30Z</time>
      </trkpt>
      <trkpt lat="47.63297" lon="7.10407">
        <ele>305.9</ele>
        <time>2019-08-16T11:02:31Z</time>
      </trkpt>
      <trkpt lat="47.63294" lon="7.10402">
        <ele>305.8</ele>
        <time>2019-08-16T11:02:32Z</time>
      </trkpt>
      <trkpt lat="47.63291" lon="7.10396">
        <ele>305.8</ele>
        <time>2019-08-16T11:02:33Z</time>
      </trkpt>
      <trkpt lat="47.63288" lon="7.10391">
        <ele>305.8</ele>
        <time>2019-08-16T11:02:34Z</time>
      </trkpt>
      <trkpt lat="47.63284" lon="7.10386">
        <ele>305.7</ele>
        <time>2019-08-16T11:02:35Z</time>
      </trkpt>
      <trkpt lat="47.63282" lon="7.1038">
        <ele>305.7</ele>
        <time>2019-08-16T11:02:36Z</time>
      </trkpt>
      <trkpt lat="47.6328" lon="7.10375">
        <ele>305.6</ele>
        <time>2019-08-16T11:02:37Z</time>
      </trkpt>
      <trkpt lat="47.63277" lon="7.10369">
        <ele>305.6</ele>
        <time>2019-08-16T11:02:38Z</time>
      </trkpt>
      <trkpt lat="47.63275" lon="7.10363">
        <ele>305.5</ele>
        <time>2019-08-16T11:02:39Z</time>
      </trkpt>
      <trkpt lat="47.63272" lon="7.10357">
        <ele>305.4</ele>
        <time>2019-08-16T11:02:40Z</time>
      </trkpt>
      <trkpt lat="47.6327" lon="7.10352">
        <ele>305.4</ele>
        <time>2019-08-16T11:02:41Z</time>
      </trkpt>
      <trkpt lat="47.63268" lon="7.10346">
        <ele>305.4</ele>
        <time>2019-08-16T11:02:42Z</time>
      </trkpt>
      <trkpt lat="47.63266" lon="7.10341">
        <ele>305.4</ele>
        <time>2019-08-16T11:02:43Z</time>
      </trkpt>
      <trkpt lat="47.63264" lon="7.10336">
        <ele>305.4</ele>
        <time>2019-08-16T11:02:44Z</time>
      </trkpt>
      <trkpt lat="47.63263" lon="7.10332">
        <ele>305.4</ele>
        <time>2019-08-16T11:02:45Z</time>
      </trkpt>
      <trkpt lat="47.63261" lon="7.10327">
        <ele>305.4</ele>
        <time>2019-08-16T11:02:46Z</time>
      </trkpt>
      <trkpt lat="47.63259" lon="7.10322">
        <ele>305.5</ele>
        <time>2019-08-16T11:02:47Z</time>
      </trkpt>
      <trkpt lat="47.63257" lon="7.10317">
        <ele>305.6</ele>
        <time>2019-08-16T11:02:48Z</time>
      </trkpt>
      <trkpt lat="47.63255" lon="7.10311">
        <ele>305.7</ele>
        <time>2019-08-16T11:02:49Z</time>
      </trkpt>
      <trkpt lat="47.63253" lon="7.10306">
        <ele>305.8</ele>
        <time>2019-08-16T11:02:50Z</time>
      </trkpt>
      <trkpt lat="47.6325" lon="7.10301">
        <ele>306</ele>
        <time>2019-08-16T11:02:51Z</time>
      </trkpt>
      <trkpt lat="47.63248" lon="7.10297">
        <ele>306.1</ele>
        <time>2019-08-16T11:02:52Z</time>
      </trkpt>
      <trkpt lat="47.63246" lon="7.10293">
        <ele>306.2</ele>
        <time>2019-08-16T11:02:53Z</time>
      </trkpt>
      <trkpt lat="47.63244" lon="7.10289">
        <ele>306.4</ele>
        <time>2019-08-16T11:02:54Z</time>
      </trkpt>
      <trkpt lat="47.63243" lon="7.10285">
        <ele>306.5</ele>
        <time>2019-08-16T11:02:55Z</time>
      </trkpt>
      <trkpt lat="47.63242" lon="7.1028">
        <ele>306.6</ele>
        <time>2019-08-16T11:02:56Z</time>
      </trkpt>
      <trkpt lat="47.63242" lon="7.10276">
        <ele>306.7</ele>
        <time>2019-08-16T11:02:57Z</time>
      </trkpt>
      <trkpt lat="47.6324" lon="7.10267">
        <ele>306.8</ele>
        <time>2019-08-16T11:02:59Z</time>
      </trkpt>
      <trkpt lat="47.63239" lon="7.10262">
        <ele>306.9</ele>
        <time>2019-08-16T11:03:00Z</time>
      </trkpt>
      <trkpt lat="47.63237" lon="7.10258">
        <ele>306.9</ele>
        <time>2019-08-16T11:03:01Z</time>
      </trkpt>
      <trkpt lat="47.63236" lon="7.10253">
        <ele>306.9</ele>
        <time>2019-08-16T11:03:02Z</time>
      </trkpt>
      <trkpt lat="47.63235" lon="7.10249">
        <ele>307</ele>
        <time>2019-08-16T11:03:03Z</time>
      </trkpt>
      <trkpt lat="47.63234" lon="7.10244">
        <ele>307</ele>
        <time>2019-08-16T11:03:04Z</time>
      </trkpt>
      <trkpt lat="47.63232" lon="7.10239">
        <ele>307</ele>
        <time>2019-08-16T11:03:05Z</time>
      </trkpt>
      <trkpt lat="47.63231" lon="7.10235">
        <ele>307</ele>
        <time>2019-08-16T11:03:06Z</time>
      </trkpt>
      <trkpt lat="47.63229" lon="7.1023">
        <ele>307</ele>
        <time>2019-08-16T11:03:07Z</time>
      </trkpt>
      <trkpt lat="47.63227" lon="7.10225">
        <ele>307</ele>
        <time>2019-08-16T11:03:08Z</time>
      </trkpt>
      <trkpt lat="47.63226" lon="7.10221">
        <ele>307</ele>
        <time>2019-08-16T11:03:09Z</time>
      </trkpt>
      <trkpt lat="47.63223" lon="7.10217">
        <ele>307</ele>
        <time>2019-08-16T11:03:10Z</time>
      </trkpt>
      <trkpt lat="47.63221" lon="7.10214">
        <ele>307</ele>
        <time>2019-08-16T11:03:11Z</time>
      </trkpt>
      <trkpt lat="47.63219" lon="7.10209">
        <ele>307</ele>
        <time>2019-08-16T11:03:12Z</time>
      </trkpt>
      <trkpt lat="47.63218" lon="7.10205">
        <ele>307.1</ele>
        <time>2019-08-16T11:03:13Z</time>
      </trkpt>
      <trkpt lat="47.63216" lon="7.102">
        <ele>307.1</ele>
        <time>2019-08-16T11:03:14Z</time>
      </trkpt>
      <trkpt lat="47.63215" lon="7.10195">
        <ele>307.2</ele>
        <time>2019-08-16T11:03:15Z</time>
      </trkpt>
      <trkpt lat="47.63213" lon="7.1019">
        <ele>307.2</ele>
        <time>2019-08-16T11:03:16Z</time>
      </trkpt>
      <trkpt lat="47.63212" lon="7.10185">
        <ele>307.2</ele>
        <time>2019-08-16T11:03:17Z</time>
      </trkpt>
      <trkpt lat="47.6321" lon="7.10179">
        <ele>307.3</ele>
        <time>2019-08-16T11:03:18Z</time>
      </trkpt>
      <trkpt lat="47.63208" lon="7.10173">
        <ele>307.3</ele>
        <time>2019-08-16T11:03:19Z</time>
      </trkpt>
      <trkpt lat="47.63206" lon="7.10167">
        <ele>307.4</ele>
        <time>2019-08-16T11:03:20Z</time>
      </trkpt>
      <trkpt lat="47.63204" lon="7.10161">
        <ele>307.4</ele>
        <time>2019-08-16T11:03:21Z</time>
      </trkpt>
      <trkpt lat="47.63203" lon="7.10155">
        <ele>307.4</ele>
        <time>2019-08-16T11:03:22Z</time>
      </trkpt>
      <trkpt lat="47.63201" lon="7.1015">
        <ele>307.5</ele>
        <time>2019-08-16T11:03:23Z</time>
      </trkpt>
      <trkpt lat="47.632" lon="7.10144">
        <ele>307.5</ele>
        <time>2019-08-16T11:03:24Z</time>
      </trkpt>
      <trkpt lat="47.63199" lon="7.10138">
        <ele>307.5</ele>
        <time>2019-08-16T11:03:25Z</time>
      </trkpt>
      <trkpt lat="47.63198" lon="7.10132">
        <ele>307.5</ele>
        <time>2019-08-16T11:03:26Z</time>
      </trkpt>
      <trkpt lat="47.63198" lon="7.10126">
        <ele>307.5</ele>
        <time>2019-08-16T11:03:27Z</time>
      </trkpt>
      <trkpt lat="47.63197" lon="7.1012">
        <ele>307.6</ele>
        <time>2019-08-16T11:03:28Z</time>
      </trkpt>
      <trkpt lat="47.63196" lon="7.10114">
        <ele>307.6</ele>
        <time>2019-08-16T11:03:29Z</time>
      </trkpt>
      <trkpt lat="47.63193" lon="7.10109">
        <ele>307.6</ele>
        <time>2019-08-16T11:03:30Z</time>
      </trkpt>
      <trkpt lat="47.63191" lon="7.10103">
        <ele>307.6</ele>
        <time>2019-08-16T11:03:31Z</time>
      </trkpt>
      <trkpt lat="47.6319" lon="7.10096">
        <ele>307.6</ele>
        <time>2019-08-16T11:03:32Z</time>
      </trkpt>
      <trkpt lat="47.63189" lon="7.10089">
        <ele>307.7</ele>
        <time>2019-08-16T11:03:33Z</time>
      </trkpt>
      <trkpt lat="47.63188" lon="7.10083">
        <ele>307.7</ele>
        <time>2019-08-16T11:03:34Z</time>
      </trkpt>
      <trkpt lat="47.63188" lon="7.10076">
        <ele>307.7</ele>
        <time>2019-08-16T11:03:35Z</time>
      </trkpt>
      <trkpt lat="47.63186" lon="7.1007">
        <ele>307.7</ele>
        <time>2019-08-16T11:03:36Z</time>
      </trkpt>
      <trkpt lat="47.63185" lon="7.10065">
        <ele>307.7</ele>
        <time>2019-08-16T11:03:37Z</time>
      </trkpt>
      <trkpt lat="47.63184" lon="7.10058">
        <ele>307.7</ele>
        <time>2019-08-16T11:03:38Z</time>
      </trkpt>
      <trkpt lat="47.63183" lon="7.10052">
        <ele>307.7</ele>
        <time>2019-08-16T11:03:39Z</time>
      </trkpt>
      <trkpt lat="47.63183" lon="7.10045">
        <ele>307.7</ele>
        <time>2019-08-16T11:03:40Z</time>
      </trkpt>
      <trkpt lat="47.63182" lon="7.10038">
        <ele>307.7</ele>
        <time>2019-08-16T11:03:41Z</time>
      </trkpt>
      <trkpt lat="47.63181" lon="7.10031">
        <ele>307.7</ele>
        <time>2019-08-16T11:03:42Z</time>
      </trkpt>
      <trkpt lat="47.6318" lon="7.10024">
        <ele>307.7</ele>
        <time>2019-08-16T11:03:43Z</time>
      </trkpt>
      <trkpt lat="47.6318" lon="7.10017">
        <ele>307.7</ele>
        <time>2019-08-16T11:03:44Z</time>
      </trkpt>
      <trkpt lat="47.63179" lon="7.10009">
        <ele>307.8</ele>
        <time>2019-08-16T11:03:45Z</time>
      </trkpt>
      <trkpt lat="47.63179" lon="7.10002">
        <ele>307.8</ele>
        <time>2019-08-16T11:03:46Z</time>
      </trkpt>
      <trkpt lat="47.63178" lon="7.09996">
        <ele>307.9</ele>
        <time>2019-08-16T11:03:47Z</time>
      </trkpt>
      <trkpt lat="47.63178" lon="7.09989">
        <ele>308</ele>
        <time>2019-08-16T11:03:48Z</time>
      </trkpt>
      <trkpt lat="47.63177" lon="7.09983">
        <ele>308.1</ele>
        <time>2019-08-16T11:03:49Z</time>
      </trkpt>
      <trkpt lat="47.63177" lon="7.09976">
        <ele>308.1</ele>
        <time>2019-08-16T11:03:50Z</time>
      </trkpt>
      <trkpt lat="47.63176" lon="7.09971">
        <ele>308</ele>
        <time>2019-08-16T11:03:51Z</time>
      </trkpt>
      <trkpt lat="47.63175" lon="7.09965">
        <ele>308</ele>
        <time>2019-08-16T11:03:52Z</time>
      </trkpt>
      <trkpt lat="47.63175" lon="7.09959">
        <ele>308</ele>
        <time>2019-08-16T11:03:53Z</time>
      </trkpt>
      <trkpt lat="47.63176" lon="7.09953">
        <ele>308</ele>
        <time>2019-08-16T11:03:54Z</time>
      </trkpt>
      <trkpt lat="47.63176" lon="7.09946">
        <ele>308</ele>
        <time>2019-08-16T11:03:55Z</time>
      </trkpt>
      <trkpt lat="47.63177" lon="7.09939">
        <ele>308</ele>
        <time>2019-08-16T11:03:56Z</time>
      </trkpt>
      <trkpt lat="47.63178" lon="7.09931">
        <ele>308</ele>
        <time>2019-08-16T11:03:57Z</time>
      </trkpt>
      <trkpt lat="47.63178" lon="7.09924">
        <ele>308</ele>
        <time>2019-08-16T11:03:58Z</time>
      </trkpt>
      <trkpt lat="47.63179" lon="7.09917">
        <ele>308</ele>
        <time>2019-08-16T11:03:59Z</time>
      </trkpt>
      <trkpt lat="47.63179" lon="7.09909">
        <ele>308</ele>
        <time>2019-08-16T11:04:00Z</time>
      </trkpt>
      <trkpt lat="47.6318" lon="7.09902">
        <ele>308</ele>
        <time>2019-08-16T11:04:01Z</time>
      </trkpt>
      <trkpt lat="47.6318" lon="7.09895">
        <ele>308</ele>
        <time>2019-08-16T11:04:02Z</time>
      </trkpt>
      <trkpt lat="47.63181" lon="7.09887">
        <ele>308</ele>
        <time>2019-08-16T11:04:03Z</time>
      </trkpt>
      <trkpt lat="47.63182" lon="7.09881">
        <ele>307.9</ele>
        <time>2019-08-16T11:04:04Z</time>
      </trkpt>
      <trkpt lat="47.63183" lon="7.09873">
        <ele>307.9</ele>
        <time>2019-08-16T11:04:05Z</time>
      </trkpt>
      <trkpt lat="47.63184" lon="7.09866">
        <ele>307.8</ele>
        <time>2019-08-16T11:04:06Z</time>
      </trkpt>
      <trkpt lat="47.63186" lon="7.09858">
        <ele>307.7</ele>
        <time>2019-08-16T11:04:07Z</time>
      </trkpt>
      <trkpt lat="47.63187" lon="7.09851">
        <ele>307.6</ele>
        <time>2019-08-16T11:04:08Z</time>
      </trkpt>
      <trkpt lat="47.63189" lon="7.09843">
        <ele>307.6</ele>
        <time>2019-08-16T11:04:09Z</time>
      </trkpt>
      <trkpt lat="47.63191" lon="7.09836">
        <ele>307.5</ele>
        <time>2019-08-16T11:04:10Z</time>
      </trkpt>
      <trkpt lat="47.63193" lon="7.09829">
        <ele>307.5</ele>
        <time>2019-08-16T11:04:11Z</time>
      </trkpt>
      <trkpt lat="47.63195" lon="7.09822">
        <ele>307.4</ele>
        <time>2019-08-16T11:04:12Z</time>
      </trkpt>
      <trkpt lat="47.63197" lon="7.09815">
        <ele>307.4</ele>
        <time>2019-08-16T11:04:13Z</time>
      </trkpt>
      <trkpt lat="47.63199" lon="7.09809">
        <ele>307.4</ele>
        <time>2019-08-16T11:04:14Z</time>
      </trkpt>
      <trkpt lat="47.63202" lon="7.09801">
        <ele>307.4</ele>
        <time>2019-08-16T11:04:15Z</time>
      </trkpt>
      <trkpt lat="47.63204" lon="7.09794">
        <ele>307.3</ele>
        <time>2019-08-16T11:04:16Z</time>
      </trkpt>
      <trkpt lat="47.63206" lon="7.09788">
        <ele>307.3</ele>
        <time>2019-08-16T11:04:17Z</time>
      </trkpt>
      <trkpt lat="47.63208" lon="7.09781">
        <ele>307.3</ele>
        <time>2019-08-16T11:04:18Z</time>
      </trkpt>
      <trkpt lat="47.63211" lon="7.09774">
        <ele>307.3</ele>
        <time>2019-08-16T11:04:19Z</time>
      </trkpt>
      <trkpt lat="47.63213" lon="7.09767">
        <ele>307.2</ele>
        <time>2019-08-16T11:04:20Z</time>
      </trkpt>
      <trkpt lat="47.63216" lon="7.09761">
        <ele>307.2</ele>
        <time>2019-08-16T11:04:21Z</time>
      </trkpt>
      <trkpt lat="47.63218" lon="7.09754">
        <ele>307.2</ele>
        <time>2019-08-16T11:04:22Z</time>
      </trkpt>
      <trkpt lat="47.6322" lon="7.09748">
        <ele>307.2</ele>
        <time>2019-08-16T11:04:23Z</time>
      </trkpt>
      <trkpt lat="47.63223" lon="7.09742">
        <ele>307.1</ele>
        <time>2019-08-16T11:04:24Z</time>
      </trkpt>
      <trkpt lat="47.63225" lon="7.09736">
        <ele>307.1</ele>
        <time>2019-08-16T11:04:25Z</time>
      </trkpt>
      <trkpt lat="47.63228" lon="7.0973">
        <ele>307.1</ele>
        <time>2019-08-16T11:04:26Z</time>
      </trkpt>
      <trkpt lat="47.63231" lon="7.09723">
        <ele>307.1</ele>
        <time>2019-08-16T11:04:27Z</time>
      </trkpt>
      <trkpt lat="47.63235" lon="7.09717">
        <ele>307</ele>
        <time>2019-08-16T11:04:28Z</time>
      </trkpt>
      <trkpt lat="47.63238" lon="7.09711">
        <ele>307</ele>
        <time>2019-08-16T11:04:29Z</time>
      </trkpt>
      <trkpt lat="47.63241" lon="7.09706">
        <ele>307</ele>
        <time>2019-08-16T11:04:30Z</time>
      </trkpt>
      <trkpt lat="47.63244" lon="7.09701">
        <ele>307</ele>
        <time>2019-08-16T11:04:31Z</time>
      </trkpt>
      <trkpt lat="47.63247" lon="7.09695">
        <ele>307</ele>
        <time>2019-08-16T11:04:32Z</time>
      </trkpt>
      <trkpt lat="47.6325" lon="7.09689">
        <ele>306.9</ele>
        <time>2019-08-16T11:04:33Z</time>
      </trkpt>
      <trkpt lat="47.63253" lon="7.09684">
        <ele>306.9</ele>
        <time>2019-08-16T11:04:34Z</time>
      </trkpt>
      <trkpt lat="47.63255" lon="7.09678">
        <ele>306.9</ele>
        <time>2019-08-16T11:04:35Z</time>
      </trkpt>
      <trkpt lat="47.63258" lon="7.09672">
        <ele>306.9</ele>
        <time>2019-08-16T11:04:36Z</time>
      </trkpt>
      <trkpt lat="47.6326" lon="7.09665">
        <ele>306.9</ele>
        <time>2019-08-16T11:04:37Z</time>
      </trkpt>
      <trkpt lat="47.63264" lon="7.09658">
        <ele>306.8</ele>
        <time>2019-08-16T11:04:38Z</time>
      </trkpt>
      <trkpt lat="47.63267" lon="7.09652">
        <ele>306.8</ele>
        <time>2019-08-16T11:04:39Z</time>
      </trkpt>
      <trkpt lat="47.63269" lon="7.09647">
        <ele>306.8</ele>
        <time>2019-08-16T11:04:40Z</time>
      </trkpt>
      <trkpt lat="47.63272" lon="7.09641">
        <ele>306.8</ele>
        <time>2019-08-16T11:04:41Z</time>
      </trkpt>
      <trkpt lat="47.63276" lon="7.09635">
        <ele>306.8</ele>
        <time>2019-08-16T11:04:42Z</time>
      </trkpt>
      <trkpt lat="47.63279" lon="7.09629">
        <ele>306.8</ele>
        <time>2019-08-16T11:04:43Z</time>
      </trkpt>
      <trkpt lat="47.63282" lon="7.09623">
        <ele>306.8</ele>
        <time>2019-08-16T11:04:44Z</time>
      </trkpt>
      <trkpt lat="47.63285" lon="7.09617">
        <ele>306.8</ele>
        <time>2019-08-16T11:04:45Z</time>
      </trkpt>
      <trkpt lat="47.63288" lon="7.0961">
        <ele>306.8</ele>
        <time>2019-08-16T11:04:46Z</time>
      </trkpt>
      <trkpt lat="47.6329" lon="7.09604">
        <ele>306.7</ele>
        <time>2019-08-16T11:04:47Z</time>
      </trkpt>
      <trkpt lat="47.63293" lon="7.09598">
        <ele>306.7</ele>
        <time>2019-08-16T11:04:48Z</time>
      </trkpt>
      <trkpt lat="47.63296" lon="7.09592">
        <ele>306.7</ele>
        <time>2019-08-16T11:04:49Z</time>
      </trkpt>
      <trkpt lat="47.63299" lon="7.09586">
        <ele>306.7</ele>
        <time>2019-08-16T11:04:50Z</time>
      </trkpt>
      <trkpt lat="47.63302" lon="7.0958">
        <ele>306.7</ele>
        <time>2019-08-16T11:04:51Z</time>
      </trkpt>
      <trkpt lat="47.63304" lon="7.09574">
        <ele>306.7</ele>
        <time>2019-08-16T11:04:52Z</time>
      </trkpt>
      <trkpt lat="47.63306" lon="7.09568">
        <ele>306.7</ele>
        <time>2019-08-16T11:04:53Z</time>
      </trkpt>
      <trkpt lat="47.63309" lon="7.09561">
        <ele>306.7</ele>
        <time>2019-08-16T11:04:54Z</time>
      </trkpt>
      <trkpt lat="47.63311" lon="7.09556">
        <ele>306.7</ele>
        <time>2019-08-16T11:04:55Z</time>
      </trkpt>
      <trkpt lat="47.63314" lon="7.09551">
        <ele>306.7</ele>
        <time>2019-08-16T11:04:56Z</time>
      </trkpt>
      <trkpt lat="47.63317" lon="7.09546">
        <ele>306.7</ele>
        <time>2019-08-16T11:04:57Z</time>
      </trkpt>
      <trkpt lat="47.6332" lon="7.0954">
        <ele>306.7</ele>
        <time>2019-08-16T11:04:58Z</time>
      </trkpt>
      <trkpt lat="47.63323" lon="7.09534">
        <ele>306.7</ele>
        <time>2019-08-16T11:04:59Z</time>
      </trkpt>
      <trkpt lat="47.63325" lon="7.09528">
        <ele>306.7</ele>
        <time>2019-08-16T11:05:00Z</time>
      </trkpt>
      <trkpt lat="47.63328" lon="7.09521">
        <ele>306.7</ele>
        <time>2019-08-16T11:05:01Z</time>
      </trkpt>
      <trkpt lat="47.63331" lon="7.09515">
        <ele>306.7</ele>
        <time>2019-08-16T11:05:02Z</time>
      </trkpt>
      <trkpt lat="47.63334" lon="7.0951">
        <ele>306.7</ele>
        <time>2019-08-16T11:05:03Z</time>
      </trkpt>
      <trkpt lat="47.63337" lon="7.09505">
        <ele>306.7</ele>
        <time>2019-08-16T11:05:04Z</time>
      </trkpt>
      <trkpt lat="47.6334" lon="7.09499">
        <ele>306.7</ele>
        <time>2019-08-16T11:05:05Z</time>
      </trkpt>
      <trkpt lat="47.63343" lon="7.09494">
        <ele>306.7</ele>
        <time>2019-08-16T11:05:06Z</time>
      </trkpt>
      <trkpt lat="47.63346" lon="7.09489">
        <ele>306.7</ele>
        <time>2019-08-16T11:05:07Z</time>
      </trkpt>
      <trkpt lat="47.63348" lon="7.09483">
        <ele>306.7</ele>
        <time>2019-08-16T11:05:08Z</time>
      </trkpt>
      <trkpt lat="47.63351" lon="7.09477">
        <ele>306.6</ele>
        <time>2019-08-16T11:05:09Z</time>
      </trkpt>
      <trkpt lat="47.63354" lon="7.0947">
        <ele>306.6</ele>
        <time>2019-08-16T11:05:10Z</time>
      </trkpt>
      <trkpt lat="47.63357" lon="7.09464">
        <ele>306.6</ele>
        <time>2019-08-16T11:05:11Z</time>
      </trkpt>
      <trkpt lat="47.6336" lon="7.09458">
        <ele>306.6</ele>
        <time>2019-08-16T11:05:12Z</time>
      </trkpt>
      <trkpt lat="47.63363" lon="7.09453">
        <ele>306.6</ele>
        <time>2019-08-16T11:05:13Z</time>
      </trkpt>
      <trkpt lat="47.63366" lon="7.09446">
        <ele>306.5</ele>
        <time>2019-08-16T11:05:14Z</time>
      </trkpt>
      <trkpt lat="47.63369" lon="7.09439">
        <ele>306.5</ele>
        <time>2019-08-16T11:05:15Z</time>
      </trkpt>
      <trkpt lat="47.63371" lon="7.09434">
        <ele>306.5</ele>
        <time>2019-08-16T11:05:16Z</time>
      </trkpt>
      <trkpt lat="47.63373" lon="7.09428">
        <ele>306.5</ele>
        <time>2019-08-16T11:05:17Z</time>
      </trkpt>
      <trkpt lat="47.63376" lon="7.09421">
        <ele>306.5</ele>
        <time>2019-08-16T11:05:18Z</time>
      </trkpt>
      <trkpt lat="47.63379" lon="7.09414">
        <ele>306.5</ele>
        <time>2019-08-16T11:05:19Z</time>
      </trkpt>
      <trkpt lat="47.63382" lon="7.09408">
        <ele>306.5</ele>
        <time>2019-08-16T11:05:20Z</time>
      </trkpt>
      <trkpt lat="47.63385" lon="7.09401">
        <ele>306.5</ele>
        <time>2019-08-16T11:05:21Z</time>
      </trkpt>
      <trkpt lat="47.63388" lon="7.09395">
        <ele>306.5</ele>
        <time>2019-08-16T11:05:22Z</time>
      </trkpt>
      <trkpt lat="47.63391" lon="7.0939">
        <ele>306.5</ele>
        <time>2019-08-16T11:05:23Z</time>
      </trkpt>
      <trkpt lat="47.63394" lon="7.09384">
        <ele>306.5</ele>
        <time>2019-08-16T11:05:24Z</time>
      </trkpt>
      <trkpt lat="47.63398" lon="7.09378">
        <ele>306.6</ele>
        <time>2019-08-16T11:05:25Z</time>
      </trkpt>
      <trkpt lat="47.63401" lon="7.09372">
        <ele>306.6</ele>
        <time>2019-08-16T11:05:26Z</time>
      </trkpt>
      <trkpt lat="47.63403" lon="7.09366">
        <ele>306.6</ele>
        <time>2019-08-16T11:05:27Z</time>
      </trkpt>
      <trkpt lat="47.63406" lon="7.0936">
        <ele>306.6</ele>
        <time>2019-08-16T11:05:28Z</time>
      </trkpt>
      <trkpt lat="47.63408" lon="7.09355">
        <ele>306.7</ele>
        <time>2019-08-16T11:05:29Z</time>
      </trkpt>
      <trkpt lat="47.63411" lon="7.0935">
        <ele>306.5</ele>
        <time>2019-08-16T11:05:30Z</time>
      </trkpt>
      <trkpt lat="47.63414" lon="7.09346">
        <ele>306.5</ele>
        <time>2019-08-16T11:05:31Z</time>
      </trkpt>
      <trkpt lat="47.63416" lon="7.0934">
        <ele>306.4</ele>
        <time>2019-08-16T11:05:32Z</time>
      </trkpt>
      <trkpt lat="47.63417" lon="7.09334">
        <ele>306.4</ele>
        <time>2019-08-16T11:05:33Z</time>
      </trkpt>
      <trkpt lat="47.6342" lon="7.09329">
        <ele>306.3</ele>
        <time>2019-08-16T11:05:34Z</time>
      </trkpt>
      <trkpt lat="47.63423" lon="7.09323">
        <ele>306.3</ele>
        <time>2019-08-16T11:05:35Z</time>
      </trkpt>
      <trkpt lat="47.63425" lon="7.09318">
        <ele>306.3</ele>
        <time>2019-08-16T11:05:36Z</time>
      </trkpt>
      <trkpt lat="47.63428" lon="7.09313">
        <ele>306.3</ele>
        <time>2019-08-16T11:05:37Z</time>
      </trkpt>
      <trkpt lat="47.63431" lon="7.09306">
        <ele>306.3</ele>
        <time>2019-08-16T11:05:38Z</time>
      </trkpt>
      <trkpt lat="47.63433" lon="7.093">
        <ele>306.3</ele>
        <time>2019-08-16T11:05:39Z</time>
      </trkpt>
      <trkpt lat="47.63436" lon="7.09294">
        <ele>306.4</ele>
        <time>2019-08-16T11:05:40Z</time>
      </trkpt>
      <trkpt lat="47.63439" lon="7.09288">
        <ele>306.5</ele>
        <time>2019-08-16T11:05:41Z</time>
      </trkpt>
      <trkpt lat="47.63441" lon="7.09282">
        <ele>306.5</ele>
        <time>2019-08-16T11:05:42Z</time>
      </trkpt>
      <trkpt lat="47.63443" lon="7.09275">
        <ele>306.7</ele>
        <time>2019-08-16T11:05:43Z</time>
      </trkpt>
      <trkpt lat="47.63446" lon="7.09269">
        <ele>306.8</ele>
        <time>2019-08-16T11:05:44Z</time>
      </trkpt>
      <trkpt lat="47.63448" lon="7.09264">
        <ele>306.9</ele>
        <time>2019-08-16T11:05:45Z</time>
      </trkpt>
      <trkpt lat="47.63451" lon="7.09256">
        <ele>307</ele>
        <time>2019-08-16T11:05:46Z</time>
      </trkpt>
      <trkpt lat="47.63453" lon="7.09249">
        <ele>307</ele>
        <time>2019-08-16T11:05:47Z</time>
      </trkpt>
      <trkpt lat="47.63455" lon="7.09242">
        <ele>307.1</ele>
        <time>2019-08-16T11:05:48Z</time>
      </trkpt>
      <trkpt lat="47.63458" lon="7.09235">
        <ele>307.2</ele>
        <time>2019-08-16T11:05:49Z</time>
      </trkpt>
      <trkpt lat="47.6346" lon="7.09229">
        <ele>307.2</ele>
        <time>2019-08-16T11:05:50Z</time>
      </trkpt>
      <trkpt lat="47.63462" lon="7.09223">
        <ele>307.2</ele>
        <time>2019-08-16T11:05:51Z</time>
      </trkpt>
      <trkpt lat="47.63463" lon="7.09216">
        <ele>307.2</ele>
        <time>2019-08-16T11:05:52Z</time>
      </trkpt>
      <trkpt lat="47.63465" lon="7.0921">
        <ele>307.2</ele>
        <time>2019-08-16T11:05:53Z</time>
      </trkpt>
      <trkpt lat="47.63466" lon="7.09204">
        <ele>307.2</ele>
        <time>2019-08-16T11:05:54Z</time>
      </trkpt>
      <trkpt lat="47.63468" lon="7.09198">
        <ele>307.3</ele>
        <time>2019-08-16T11:05:55Z</time>
      </trkpt>
      <trkpt lat="47.6347" lon="7.09192">
        <ele>307.3</ele>
        <time>2019-08-16T11:05:56Z</time>
      </trkpt>
      <trkpt lat="47.63472" lon="7.09187">
        <ele>307.4</ele>
        <time>2019-08-16T11:05:57Z</time>
      </trkpt>
      <trkpt lat="47.63473" lon="7.09182">
        <ele>307.4</ele>
        <time>2019-08-16T11:05:58Z</time>
      </trkpt>
      <trkpt lat="47.63475" lon="7.09177">
        <ele>307.5</ele>
        <time>2019-08-16T11:05:59Z</time>
      </trkpt>
      <trkpt lat="47.63476" lon="7.09172">
        <ele>307.6</ele>
        <time>2019-08-16T11:06:00Z</time>
      </trkpt>
      <trkpt lat="47.63478" lon="7.09167">
        <ele>307.7</ele>
        <time>2019-08-16T11:06:01Z</time>
      </trkpt>
      <trkpt lat="47.6348" lon="7.09162">
        <ele>307.8</ele>
        <time>2019-08-16T11:06:02Z</time>
      </trkpt>
      <trkpt lat="47.63483" lon="7.09156">
        <ele>307.9</ele>
        <time>2019-08-16T11:06:03Z</time>
      </trkpt>
      <trkpt lat="47.63486" lon="7.09151">
        <ele>307.9</ele>
        <time>2019-08-16T11:06:04Z</time>
      </trkpt>
      <trkpt lat="47.63489" lon="7.09147">
        <ele>308</ele>
        <time>2019-08-16T11:06:05Z</time>
      </trkpt>
      <trkpt lat="47.63492" lon="7.09141">
        <ele>308</ele>
        <time>2019-08-16T11:06:06Z</time>
      </trkpt>
      <trkpt lat="47.63495" lon="7.09135">
        <ele>308</ele>
        <time>2019-08-16T11:06:07Z</time>
      </trkpt>
      <trkpt lat="47.63498" lon="7.09128">
        <ele>308</ele>
        <time>2019-08-16T11:06:08Z</time>
      </trkpt>
      <trkpt lat="47.635" lon="7.09123">
        <ele>307.8</ele>
        <time>2019-08-16T11:06:09Z</time>
      </trkpt>
      <trkpt lat="47.63502" lon="7.09116">
        <ele>307.6</ele>
        <time>2019-08-16T11:06:10Z</time>
      </trkpt>
      <trkpt lat="47.63504" lon="7.09111">
        <ele>307.4</ele>
        <time>2019-08-16T11:06:11Z</time>
      </trkpt>
      <trkpt lat="47.63505" lon="7.09106">
        <ele>307.1</ele>
        <time>2019-08-16T11:06:12Z</time>
      </trkpt>
      <trkpt lat="47.63506" lon="7.09102">
        <ele>306.8</ele>
        <time>2019-08-16T11:06:13Z</time>
      </trkpt>
      <trkpt lat="47.63507" lon="7.09098">
        <ele>306.6</ele>
        <time>2019-08-16T11:06:14Z</time>
      </trkpt>
      <trkpt lat="47.63508" lon="7.09094">
        <ele>306.3</ele>
        <time>2019-08-16T11:06:15Z</time>
      </trkpt>
      <trkpt lat="47.63508" lon="7.09089">
        <ele>306.4</ele>
        <time>2019-08-16T11:06:16Z</time>
      </trkpt>
      <trkpt lat="47.63509" lon="7.09084">
        <ele>306.5</ele>
        <time>2019-08-16T11:06:17Z</time>
      </trkpt>
      <trkpt lat="47.6351" lon="7.0908">
        <ele>306.6</ele>
        <time>2019-08-16T11:06:18Z</time>
      </trkpt>
      <trkpt lat="47.6351" lon="7.09076">
        <ele>306.7</ele>
        <time>2019-08-16T11:06:19Z</time>
      </trkpt>
      <trkpt lat="47.63511" lon="7.0907">
        <ele>306.8</ele>
        <time>2019-08-16T11:06:20Z</time>
      </trkpt>
      <trkpt lat="47.63511" lon="7.09065">
        <ele>306.9</ele>
        <time>2019-08-16T11:06:21Z</time>
      </trkpt>
      <trkpt lat="47.63512" lon="7.09056">
        <ele>307</ele>
        <time>2019-08-16T11:06:23Z</time>
      </trkpt>
      <trkpt lat="47.63513" lon="7.09052">
        <ele>307.1</ele>
        <time>2019-08-16T11:06:24Z</time>
      </trkpt>
      <trkpt lat="47.63513" lon="7.09046">
        <ele>307.1</ele>
        <time>2019-08-16T11:06:25Z</time>
      </trkpt>
      <trkpt lat="47.63515" lon="7.09042">
        <ele>307.2</ele>
        <time>2019-08-16T11:06:26Z</time>
      </trkpt>
      <trkpt lat="47.63515" lon="7.09036">
        <ele>307.2</ele>
        <time>2019-08-16T11:06:27Z</time>
      </trkpt>
      <trkpt lat="47.63516" lon="7.09031">
        <ele>307.2</ele>
        <time>2019-08-16T11:06:28Z</time>
      </trkpt>
      <trkpt lat="47.63518" lon="7.09025">
        <ele>307.2</ele>
        <time>2019-08-16T11:06:29Z</time>
      </trkpt>
      <trkpt lat="47.63519" lon="7.09019">
        <ele>307.2</ele>
        <time>2019-08-16T11:06:30Z</time>
      </trkpt>
      <trkpt lat="47.6352" lon="7.09013">
        <ele>307.2</ele>
        <time>2019-08-16T11:06:31Z</time>
      </trkpt>
      <trkpt lat="47.63522" lon="7.09007">
        <ele>307.2</ele>
        <time>2019-08-16T11:06:32Z</time>
      </trkpt>
      <trkpt lat="47.63524" lon="7.09001">
        <ele>307.2</ele>
        <time>2019-08-16T11:06:33Z</time>
      </trkpt>
      <trkpt lat="47.63525" lon="7.08995">
        <ele>307.1</ele>
        <time>2019-08-16T11:06:34Z</time>
      </trkpt>
      <trkpt lat="47.63527" lon="7.0899">
        <ele>307.1</ele>
        <time>2019-08-16T11:06:35Z</time>
      </trkpt>
      <trkpt lat="47.63528" lon="7.08984">
        <ele>307.1</ele>
        <time>2019-08-16T11:06:36Z</time>
      </trkpt>
      <trkpt lat="47.6353" lon="7.08977">
        <ele>307.1</ele>
        <time>2019-08-16T11:06:37Z</time>
      </trkpt>
      <trkpt lat="47.63532" lon="7.0897">
        <ele>307</ele>
        <time>2019-08-16T11:06:38Z</time>
      </trkpt>
      <trkpt lat="47.63534" lon="7.08963">
        <ele>307</ele>
        <time>2019-08-16T11:06:39Z</time>
      </trkpt>
      <trkpt lat="47.63536" lon="7.08957">
        <ele>307</ele>
        <time>2019-08-16T11:06:40Z</time>
      </trkpt>
      <trkpt lat="47.63537" lon="7.08949">
        <ele>307</ele>
        <time>2019-08-16T11:06:41Z</time>
      </trkpt>
      <trkpt lat="47.63537" lon="7.08943">
        <ele>306.9</ele>
        <time>2019-08-16T11:06:42Z</time>
      </trkpt>
      <trkpt lat="47.63538" lon="7.08935">
        <ele>306.9</ele>
        <time>2019-08-16T11:06:43Z</time>
      </trkpt>
      <trkpt lat="47.63539" lon="7.08928">
        <ele>306.9</ele>
        <time>2019-08-16T11:06:44Z</time>
      </trkpt>
      <trkpt lat="47.6354" lon="7.08921">
        <ele>306.9</ele>
        <time>2019-08-16T11:06:45Z</time>
      </trkpt>
      <trkpt lat="47.63542" lon="7.08915">
        <ele>306.9</ele>
        <time>2019-08-16T11:06:46Z</time>
      </trkpt>
      <trkpt lat="47.63543" lon="7.08908">
        <ele>306.9</ele>
        <time>2019-08-16T11:06:47Z</time>
      </trkpt>
      <trkpt lat="47.63545" lon="7.08902">
        <ele>306.9</ele>
        <time>2019-08-16T11:06:48Z</time>
      </trkpt>
      <trkpt lat="47.63546" lon="7.08896">
        <ele>306.9</ele>
        <time>2019-08-16T11:06:49Z</time>
      </trkpt>
      <trkpt lat="47.63548" lon="7.0889">
        <ele>306.9</ele>
        <time>2019-08-16T11:06:50Z</time>
      </trkpt>
      <trkpt lat="47.63549" lon="7.08884">
        <ele>306.9</ele>
        <time>2019-08-16T11:06:51Z</time>
      </trkpt>
      <trkpt lat="47.63551" lon="7.08879">
        <ele>306.9</ele>
        <time>2019-08-16T11:06:52Z</time>
      </trkpt>
      <trkpt lat="47.63552" lon="7.08873">
        <ele>306.9</ele>
        <time>2019-08-16T11:06:53Z</time>
      </trkpt>
      <trkpt lat="47.63554" lon="7.08866">
        <ele>307</ele>
        <time>2019-08-16T11:06:54Z</time>
      </trkpt>
      <trkpt lat="47.63555" lon="7.08859">
        <ele>307</ele>
        <time>2019-08-16T11:06:55Z</time>
      </trkpt>
      <trkpt lat="47.63556" lon="7.08853">
        <ele>307</ele>
        <time>2019-08-16T11:06:56Z</time>
      </trkpt>
      <trkpt lat="47.63556" lon="7.08846">
        <ele>307</ele>
        <time>2019-08-16T11:06:57Z</time>
      </trkpt>
      <trkpt lat="47.63557" lon="7.08839">
        <ele>307</ele>
        <time>2019-08-16T11:06:58Z</time>
      </trkpt>
      <trkpt lat="47.63559" lon="7.08832">
        <ele>307</ele>
        <time>2019-08-16T11:06:59Z</time>
      </trkpt>
      <trkpt lat="47.6356" lon="7.08824">
        <ele>307</ele>
        <time>2019-08-16T11:07:00Z</time>
      </trkpt>
      <trkpt lat="47.6356" lon="7.08816">
        <ele>307</ele>
        <time>2019-08-16T11:07:01Z</time>
      </trkpt>
      <trkpt lat="47.63561" lon="7.08809">
        <ele>307</ele>
        <time>2019-08-16T11:07:02Z</time>
      </trkpt>
      <trkpt lat="47.63561" lon="7.08802">
        <ele>307</ele>
        <time>2019-08-16T11:07:03Z</time>
      </trkpt>
      <trkpt lat="47.63562" lon="7.08795">
        <ele>307</ele>
        <time>2019-08-16T11:07:04Z</time>
      </trkpt>
      <trkpt lat="47.63562" lon="7.08788">
        <ele>307</ele>
        <time>2019-08-16T11:07:05Z</time>
      </trkpt>
      <trkpt lat="47.63563" lon="7.0878">
        <ele>306.9</ele>
        <time>2019-08-16T11:07:06Z</time>
      </trkpt>
      <trkpt lat="47.63564" lon="7.08774">
        <ele>306.9</ele>
        <time>2019-08-16T11:07:07Z</time>
      </trkpt>
      <trkpt lat="47.63565" lon="7.08767">
        <ele>306.9</ele>
        <time>2019-08-16T11:07:08Z</time>
      </trkpt>
      <trkpt lat="47.63566" lon="7.08762">
        <ele>306.9</ele>
        <time>2019-08-16T11:07:09Z</time>
      </trkpt>
      <trkpt lat="47.63567" lon="7.08756">
        <ele>306.9</ele>
        <time>2019-08-16T11:07:10Z</time>
      </trkpt>
      <trkpt lat="47.63568" lon="7.0875">
        <ele>306.9</ele>
        <time>2019-08-16T11:07:11Z</time>
      </trkpt>
      <trkpt lat="47.63568" lon="7.08742">
        <ele>306.8</ele>
        <time>2019-08-16T11:07:12Z</time>
      </trkpt>
      <trkpt lat="47.6357" lon="7.08736">
        <ele>306.8</ele>
        <time>2019-08-16T11:07:13Z</time>
      </trkpt>
      <trkpt lat="47.6357" lon="7.08727">
        <ele>306.8</ele>
        <time>2019-08-16T11:07:14Z</time>
      </trkpt>
      <trkpt lat="47.63571" lon="7.08719">
        <ele>306.8</ele>
        <time>2019-08-16T11:07:15Z</time>
      </trkpt>
      <trkpt lat="47.63571" lon="7.08713">
        <ele>306.8</ele>
        <time>2019-08-16T11:07:16Z</time>
      </trkpt>
      <trkpt lat="47.63572" lon="7.08706">
        <ele>306.8</ele>
        <time>2019-08-16T11:07:17Z</time>
      </trkpt>
      <trkpt lat="47.63572" lon="7.087">
        <ele>306.8</ele>
        <time>2019-08-16T11:07:18Z</time>
      </trkpt>
      <trkpt lat="47.63572" lon="7.08694">
        <ele>306.8</ele>
        <time>2019-08-16T11:07:19Z</time>
      </trkpt>
      <trkpt lat="47.63572" lon="7.08687">
        <ele>306.9</ele>
        <time>2019-08-16T11:07:20Z</time>
      </trkpt>
      <trkpt lat="47.63572" lon="7.08681">
        <ele>306.9</ele>
        <time>2019-08-16T11:07:21Z</time>
      </trkpt>
      <trkpt lat="47.63572" lon="7.08675">
        <ele>306.9</ele>
        <time>2019-08-16T11:07:22Z</time>
      </trkpt>
      <trkpt lat="47.63572" lon="7.08668">
        <ele>306.9</ele>
        <time>2019-08-16T11:07:23Z</time>
      </trkpt>
      <trkpt lat="47.63571" lon="7.08661">
        <ele>306.9</ele>
        <time>2019-08-16T11:07:24Z</time>
      </trkpt>
      <trkpt lat="47.63571" lon="7.08654">
        <ele>306.9</ele>
        <time>2019-08-16T11:07:25Z</time>
      </trkpt>
      <trkpt lat="47.6357" lon="7.08647">
        <ele>306.9</ele>
        <time>2019-08-16T11:07:26Z</time>
      </trkpt>
      <trkpt lat="47.6357" lon="7.08641">
        <ele>306.9</ele>
        <time>2019-08-16T11:07:27Z</time>
      </trkpt>
      <trkpt lat="47.63569" lon="7.08634">
        <ele>307</ele>
        <time>2019-08-16T11:07:28Z</time>
      </trkpt>
      <trkpt lat="47.63569" lon="7.08627">
        <ele>307</ele>
        <time>2019-08-16T11:07:29Z</time>
      </trkpt>
      <trkpt lat="47.63569" lon="7.08621">
        <ele>307</ele>
        <time>2019-08-16T11:07:30Z</time>
      </trkpt>
      <trkpt lat="47.63568" lon="7.08614">
        <ele>307</ele>
        <time>2019-08-16T11:07:31Z</time>
      </trkpt>
      <trkpt lat="47.63567" lon="7.08607">
        <ele>307</ele>
        <time>2019-08-16T11:07:32Z</time>
      </trkpt>
      <trkpt lat="47.63566" lon="7.08601">
        <ele>307</ele>
        <time>2019-08-16T11:07:33Z</time>
      </trkpt>
      <trkpt lat="47.63564" lon="7.08594">
        <ele>307</ele>
        <time>2019-08-16T11:07:34Z</time>
      </trkpt>
      <trkpt lat="47.63563" lon="7.08588">
        <ele>307</ele>
        <time>2019-08-16T11:07:35Z</time>
      </trkpt>
      <trkpt lat="47.63563" lon="7.08581">
        <ele>307.1</ele>
        <time>2019-08-16T11:07:36Z</time>
      </trkpt>
      <trkpt lat="47.63561" lon="7.08575">
        <ele>307.1</ele>
        <time>2019-08-16T11:07:37Z</time>
      </trkpt>
      <trkpt lat="47.63561" lon="7.08569">
        <ele>307.2</ele>
        <time>2019-08-16T11:07:38Z</time>
      </trkpt>
      <trkpt lat="47.6356" lon="7.08562">
        <ele>307.3</ele>
        <time>2019-08-16T11:07:39Z</time>
      </trkpt>
      <trkpt lat="47.6356" lon="7.08556">
        <ele>307.3</ele>
        <time>2019-08-16T11:07:40Z</time>
      </trkpt>
      <trkpt lat="47.6356" lon="7.0855">
        <ele>307.5</ele>
        <time>2019-08-16T11:07:41Z</time>
      </trkpt>
      <trkpt lat="47.63558" lon="7.08546">
        <ele>307.6</ele>
        <time>2019-08-16T11:07:42Z</time>
      </trkpt>
      <trkpt lat="47.63557" lon="7.08542">
        <ele>307.7</ele>
        <time>2019-08-16T11:07:43Z</time>
      </trkpt>
      <trkpt lat="47.63557" lon="7.08537">
        <ele>307.8</ele>
        <time>2019-08-16T11:07:44Z</time>
      </trkpt>
      <trkpt lat="47.63556" lon="7.08532">
        <ele>307.9</ele>
        <time>2019-08-16T11:07:45Z</time>
      </trkpt>
      <trkpt lat="47.63556" lon="7.08526">
        <ele>308.1</ele>
        <time>2019-08-16T11:07:46Z</time>
      </trkpt>
      <trkpt lat="47.63555" lon="7.0852">
        <ele>308.2</ele>
        <time>2019-08-16T11:07:47Z</time>
      </trkpt>
      <trkpt lat="47.63553" lon="7.08515">
        <ele>308.4</ele>
        <time>2019-08-16T11:07:48Z</time>
      </trkpt>
      <trkpt lat="47.63552" lon="7.08509">
        <ele>308.5</ele>
        <time>2019-08-16T11:07:49Z</time>
      </trkpt>
      <trkpt lat="47.63551" lon="7.08503">
        <ele>308.6</ele>
        <time>2019-08-16T11:07:50Z</time>
      </trkpt>
      <trkpt lat="47.63549" lon="7.08496">
        <ele>308.7</ele>
        <time>2019-08-16T11:07:51Z</time>
      </trkpt>
      <trkpt lat="47.63548" lon="7.08491">
        <ele>308.8</ele>
        <time>2019-08-16T11:07:52Z</time>
      </trkpt>
      <trkpt lat="47.63546" lon="7.08485">
        <ele>308.9</ele>
        <time>2019-08-16T11:07:53Z</time>
      </trkpt>
      <trkpt lat="47.63544" lon="7.08479">
        <ele>309</ele>
        <time>2019-08-16T11:07:54Z</time>
      </trkpt>
      <trkpt lat="47.63543" lon="7.08473">
        <ele>309.1</ele>
        <time>2019-08-16T11:07:55Z</time>
      </trkpt>
      <trkpt lat="47.63541" lon="7.08467">
        <ele>309.2</ele>
        <time>2019-08-16T11:07:56Z</time>
      </trkpt>
      <trkpt lat="47.6354" lon="7.08461">
        <ele>309.3</ele>
        <time>2019-08-16T11:07:57Z</time>
      </trkpt>
      <trkpt lat="47.63539" lon="7.08454">
        <ele>309.4</ele>
        <time>2019-08-16T11:07:58Z</time>
      </trkpt>
      <trkpt lat="47.63538" lon="7.08448">
        <ele>309.5</ele>
        <time>2019-08-16T11:07:59Z</time>
      </trkpt>
      <trkpt lat="47.63537" lon="7.08442">
        <ele>309.5</ele>
        <time>2019-08-16T11:08:00Z</time>
      </trkpt>
      <trkpt lat="47.63536" lon="7.08436">
        <ele>309.6</ele>
        <time>2019-08-16T11:08:01Z</time>
      </trkpt>
      <trkpt lat="47.63535" lon="7.0843">
        <ele>309.6</ele>
        <time>2019-08-16T11:08:02Z</time>
      </trkpt>
      <trkpt lat="47.63534" lon="7.08424">
        <ele>309.7</ele>
        <time>2019-08-16T11:08:03Z</time>
      </trkpt>
      <trkpt lat="47.63533" lon="7.08418">
        <ele>309.7</ele>
        <time>2019-08-16T11:08:04Z</time>
      </trkpt>
      <trkpt lat="47.63532" lon="7.08413">
        <ele>309.8</ele>
        <time>2019-08-16T11:08:05Z</time>
      </trkpt>
      <trkpt lat="47.63531" lon="7.08407">
        <ele>309.8</ele>
        <time>2019-08-16T11:08:06Z</time>
      </trkpt>
      <trkpt lat="47.6353" lon="7.08401">
        <ele>309.8</ele>
        <time>2019-08-16T11:08:07Z</time>
      </trkpt>
      <trkpt lat="47.63529" lon="7.08395">
        <ele>309.8</ele>
        <time>2019-08-16T11:08:08Z</time>
      </trkpt>
      <trkpt lat="47.63528" lon="7.08389">
        <ele>309.8</ele>
        <time>2019-08-16T11:08:09Z</time>
      </trkpt>
      <trkpt lat="47.63527" lon="7.08383">
        <ele>309.9</ele>
        <time>2019-08-16T11:08:10Z</time>
      </trkpt>
      <trkpt lat="47.63526" lon="7.08377">
        <ele>309.9</ele>
        <time>2019-08-16T11:08:11Z</time>
      </trkpt>
      <trkpt lat="47.63525" lon="7.08371">
        <ele>309.9</ele>
        <time>2019-08-16T11:08:12Z</time>
      </trkpt>
      <trkpt lat="47.63524" lon="7.08366">
        <ele>309.9</ele>
        <time>2019-08-16T11:08:13Z</time>
      </trkpt>
      <trkpt lat="47.63523" lon="7.0836">
        <ele>309.9</ele>
        <time>2019-08-16T11:08:14Z</time>
      </trkpt>
      <trkpt lat="47.63522" lon="7.08355">
        <ele>310</ele>
        <time>2019-08-16T11:08:15Z</time>
      </trkpt>
      <trkpt lat="47.63521" lon="7.08348">
        <ele>310</ele>
        <time>2019-08-16T11:08:16Z</time>
      </trkpt>
      <trkpt lat="47.6352" lon="7.08342">
        <ele>310</ele>
        <time>2019-08-16T11:08:17Z</time>
      </trkpt>
      <trkpt lat="47.63519" lon="7.08336">
        <ele>310</ele>
        <time>2019-08-16T11:08:18Z</time>
      </trkpt>
      <trkpt lat="47.63518" lon="7.0833">
        <ele>310</ele>
        <time>2019-08-16T11:08:19Z</time>
      </trkpt>
      <trkpt lat="47.63517" lon="7.08324">
        <ele>310</ele>
        <time>2019-08-16T11:08:20Z</time>
      </trkpt>
      <trkpt lat="47.63516" lon="7.08317">
        <ele>310</ele>
        <time>2019-08-16T11:08:21Z</time>
      </trkpt>
      <trkpt lat="47.63515" lon="7.08311">
        <ele>310</ele>
        <time>2019-08-16T11:08:22Z</time>
      </trkpt>
      <trkpt lat="47.63514" lon="7.08305">
        <ele>310</ele>
        <time>2019-08-16T11:08:23Z</time>
      </trkpt>
      <trkpt lat="47.63514" lon="7.08299">
        <ele>310</ele>
        <time>2019-08-16T11:08:24Z</time>
      </trkpt>
      <trkpt lat="47.63513" lon="7.08293">
        <ele>309.9</ele>
        <time>2019-08-16T11:08:25Z</time>
      </trkpt>
      <trkpt lat="47.63512" lon="7.08287">
        <ele>309.9</ele>
        <time>2019-08-16T11:08:26Z</time>
      </trkpt>
      <trkpt lat="47.63511" lon="7.08281">
        <ele>309.9</ele>
        <time>2019-08-16T11:08:27Z</time>
      </trkpt>
      <trkpt lat="47.6351" lon="7.08275">
        <ele>309.9</ele>
        <time>2019-08-16T11:08:28Z</time>
      </trkpt>
      <trkpt lat="47.63509" lon="7.08268">
        <ele>309.9</ele>
        <time>2019-08-16T11:08:29Z</time>
      </trkpt>
      <trkpt lat="47.63508" lon="7.08262">
        <ele>309.9</ele>
        <time>2019-08-16T11:08:30Z</time>
      </trkpt>
      <trkpt lat="47.63507" lon="7.08255">
        <ele>309.8</ele>
        <time>2019-08-16T11:08:31Z</time>
      </trkpt>
      <trkpt lat="47.63506" lon="7.08249">
        <ele>309.8</ele>
        <time>2019-08-16T11:08:32Z</time>
      </trkpt>
      <trkpt lat="47.63505" lon="7.08242">
        <ele>309.8</ele>
        <time>2019-08-16T11:08:33Z</time>
      </trkpt>
      <trkpt lat="47.63504" lon="7.08235">
        <ele>309.8</ele>
        <time>2019-08-16T11:08:34Z</time>
      </trkpt>
      <trkpt lat="47.63504" lon="7.08229">
        <ele>309.8</ele>
        <time>2019-08-16T11:08:35Z</time>
      </trkpt>
      <trkpt lat="47.63503" lon="7.08223">
        <ele>309.8</ele>
        <time>2019-08-16T11:08:36Z</time>
      </trkpt>
      <trkpt lat="47.63502" lon="7.08216">
        <ele>309.8</ele>
        <time>2019-08-16T11:08:37Z</time>
      </trkpt>
      <trkpt lat="47.63502" lon="7.0821">
        <ele>309.8</ele>
        <time>2019-08-16T11:08:38Z</time>
      </trkpt>
      <trkpt lat="47.63501" lon="7.08203">
        <ele>309.8</ele>
        <time>2019-08-16T11:08:39Z</time>
      </trkpt>
      <trkpt lat="47.635" lon="7.08196">
        <ele>309.8</ele>
        <time>2019-08-16T11:08:40Z</time>
      </trkpt>
      <trkpt lat="47.635" lon="7.0819">
        <ele>309.9</ele>
        <time>2019-08-16T11:08:41Z</time>
      </trkpt>
      <trkpt lat="47.63499" lon="7.08184">
        <ele>309.9</ele>
        <time>2019-08-16T11:08:42Z</time>
      </trkpt>
      <trkpt lat="47.63498" lon="7.08178">
        <ele>309.9</ele>
        <time>2019-08-16T11:08:43Z</time>
      </trkpt>
      <trkpt lat="47.63497" lon="7.08171">
        <ele>309.9</ele>
        <time>2019-08-16T11:08:44Z</time>
      </trkpt>
      <trkpt lat="47.63497" lon="7.08164">
        <ele>309.9</ele>
        <time>2019-08-16T11:08:45Z</time>
      </trkpt>
      <trkpt lat="47.63497" lon="7.08157">
        <ele>309.9</ele>
        <time>2019-08-16T11:08:46Z</time>
      </trkpt>
      <trkpt lat="47.63496" lon="7.0815">
        <ele>310</ele>
        <time>2019-08-16T11:08:47Z</time>
      </trkpt>
      <trkpt lat="47.63495" lon="7.08143">
        <ele>310</ele>
        <time>2019-08-16T11:08:48Z</time>
      </trkpt>
      <trkpt lat="47.63494" lon="7.08135">
        <ele>310</ele>
        <time>2019-08-16T11:08:49Z</time>
      </trkpt>
      <trkpt lat="47.63493" lon="7.08128">
        <ele>310</ele>
        <time>2019-08-16T11:08:50Z</time>
      </trkpt>
      <trkpt lat="47.63492" lon="7.08121">
        <ele>310</ele>
        <time>2019-08-16T11:08:51Z</time>
      </trkpt>
      <trkpt lat="47.63491" lon="7.08114">
        <ele>310</ele>
        <time>2019-08-16T11:08:52Z</time>
      </trkpt>
      <trkpt lat="47.63491" lon="7.08107">
        <ele>310</ele>
        <time>2019-08-16T11:08:53Z</time>
      </trkpt>
      <trkpt lat="47.6349" lon="7.08099">
        <ele>310</ele>
        <time>2019-08-16T11:08:54Z</time>
      </trkpt>
      <trkpt lat="47.6349" lon="7.08091">
        <ele>310</ele>
        <time>2019-08-16T11:08:55Z</time>
      </trkpt>
      <trkpt lat="47.6349" lon="7.08084">
        <ele>310</ele>
        <time>2019-08-16T11:08:56Z</time>
      </trkpt>
      <trkpt lat="47.63489" lon="7.08078">
        <ele>310.1</ele>
        <time>2019-08-16T11:08:57Z</time>
      </trkpt>
      <trkpt lat="47.63489" lon="7.08072">
        <ele>310.1</ele>
        <time>2019-08-16T11:08:58Z</time>
      </trkpt>
      <trkpt lat="47.63488" lon="7.08066">
        <ele>310.1</ele>
        <time>2019-08-16T11:08:59Z</time>
      </trkpt>
      <trkpt lat="47.63487" lon="7.08061">
        <ele>310.1</ele>
        <time>2019-08-16T11:09:00Z</time>
      </trkpt>
      <trkpt lat="47.63486" lon="7.08056">
        <ele>310.1</ele>
        <time>2019-08-16T11:09:01Z</time>
      </trkpt>
      <trkpt lat="47.63485" lon="7.08051">
        <ele>310.2</ele>
        <time>2019-08-16T11:09:02Z</time>
      </trkpt>
      <trkpt lat="47.63485" lon="7.08046">
        <ele>310.2</ele>
        <time>2019-08-16T11:09:03Z</time>
      </trkpt>
      <trkpt lat="47.63485" lon="7.08041">
        <ele>310.2</ele>
        <time>2019-08-16T11:09:04Z</time>
      </trkpt>
      <trkpt lat="47.63485" lon="7.08035">
        <ele>310.3</ele>
        <time>2019-08-16T11:09:05Z</time>
      </trkpt>
      <trkpt lat="47.63484" lon="7.08029">
        <ele>310.4</ele>
        <time>2019-08-16T11:09:06Z</time>
      </trkpt>
      <trkpt lat="47.63484" lon="7.08022">
        <ele>310.6</ele>
        <time>2019-08-16T11:09:07Z</time>
      </trkpt>
      <trkpt lat="47.63483" lon="7.08017">
        <ele>310.7</ele>
        <time>2019-08-16T11:09:08Z</time>
      </trkpt>
      <trkpt lat="47.63483" lon="7.08011">
        <ele>310.9</ele>
        <time>2019-08-16T11:09:09Z</time>
      </trkpt>
      <trkpt lat="47.63482" lon="7.08003">
        <ele>311.1</ele>
        <time>2019-08-16T11:09:10Z</time>
      </trkpt>
      <trkpt lat="47.63481" lon="7.07996">
        <ele>311.3</ele>
        <time>2019-08-16T11:09:11Z</time>
      </trkpt>
      <trkpt lat="47.6348" lon="7.07989">
        <ele>311.5</ele>
        <time>2019-08-16T11:09:12Z</time>
      </trkpt>
      <trkpt lat="47.63478" lon="7.07983">
        <ele>311.7</ele>
        <time>2019-08-16T11:09:13Z</time>
      </trkpt>
      <trkpt lat="47.63477" lon="7.07978">
        <ele>311.8</ele>
        <time>2019-08-16T11:09:14Z</time>
      </trkpt>
      <trkpt lat="47.63475" lon="7.07973">
        <ele>312</ele>
        <time>2019-08-16T11:09:16Z</time>
      </trkpt>
      <trkpt lat="47.63475" lon="7.07977">
        <ele>312</ele>
        <time>2019-08-16T11:09:18Z</time>
      </trkpt>
      <trkpt lat="47.63474" lon="7.07981">
        <ele>312.1</ele>
        <time>2019-08-16T11:09:21Z</time>
      </trkpt>
      <trkpt lat="47.63472" lon="7.07985">
        <ele>312.1</ele>
        <time>2019-08-16T11:09:33Z</time>
      </trkpt>
      <trkpt lat="47.63469" lon="7.07989">
        <ele>312.2</ele>
        <time>2019-08-16T11:09:36Z</time>
      </trkpt>
      <trkpt lat="47.63469" lon="7.07993">
        <ele>312.2</ele>
        <time>2019-08-16T11:09:44Z</time>
      </trkpt>
      <trkpt lat="47.6347" lon="7.07989">
        <ele>312.2</ele>
        <time>2019-08-16T11:10:01Z</time>
      </trkpt>
      <trkpt lat="47.6347" lon="7.07985">
        <ele>312.2</ele>
        <time>2019-08-16T11:10:04Z</time>
      </trkpt>
      <trkpt lat="47.6347" lon="7.07981">
        <ele>312.2</ele>
        <time>2019-08-16T11:10:08Z</time>
      </trkpt>
      <trkpt lat="47.63472" lon="7.07993">
        <ele>312.3</ele>
        <time>2019-08-16T11:10:49Z</time>
      </trkpt>
      <trkpt lat="47.6347" lon="7.07997">
        <ele>312.3</ele>
        <time>2019-08-16T11:10:52Z</time>
      </trkpt>
      <trkpt lat="47.6347" lon="7.08002">
        <ele>312.4</ele>
        <time>2019-08-16T11:10:55Z</time>
      </trkpt>
      <trkpt lat="47.6347" lon="7.08006">
        <ele>312.4</ele>
        <time>2019-08-16T11:10:58Z</time>
      </trkpt>
      <trkpt lat="47.63471" lon="7.08011">
        <ele>312.5</ele>
        <time>2019-08-16T11:11:02Z</time>
      </trkpt>
      <trkpt lat="47.63477" lon="7.08015">
        <ele>312.6</ele>
        <time>2019-08-16T11:11:58Z</time>
      </trkpt>
      <trkpt lat="47.63477" lon="7.08009">
        <ele>312.6</ele>
        <time>2019-08-16T11:12:00Z</time>
      </trkpt>
      <trkpt lat="47.63476" lon="7.08005">
        <ele>312.7</ele>
        <time>2019-08-16T11:12:02Z</time>
      </trkpt>
      <trkpt lat="47.63476" lon="7.08001">
        <ele>312.7</ele>
        <time>2019-08-16T11:12:04Z</time>
      </trkpt>
      <trkpt lat="47.63475" lon="7.07996">
        <ele>312.7</ele>
        <time>2019-08-16T11:12:06Z</time>
      </trkpt>
      <trkpt lat="47.63475" lon="7.07992">
        <ele>312.7</ele>
        <time>2019-08-16T11:12:14Z</time>
      </trkpt>
      <trkpt lat="47.63475" lon="7.07983">
        <ele>312.7</ele>
        <time>2019-08-16T11:13:30Z</time>
      </trkpt>
      <trkpt lat="47.63472" lon="7.07975">
        <ele>312.7</ele>
        <time>2019-08-16T11:13:58Z</time>
      </trkpt>
      <trkpt lat="47.63469" lon="7.07978">
        <ele>312.7</ele>
        <time>2019-08-16T11:14:01Z</time>
      </trkpt>
      <trkpt lat="47.63469" lon="7.07982">
        <ele>312.7</ele>
        <time>2019-08-16T11:14:03Z</time>
      </trkpt>
      <trkpt lat="47.6347" lon="7.07986">
        <ele>312.7</ele>
        <time>2019-08-16T11:14:06Z</time>
      </trkpt>
      <trkpt lat="47.63469" lon="7.07982">
        <ele>312.8</ele>
        <time>2019-08-16T11:34:03Z</time>
      </trkpt>
      <trkpt lat="47.63475" lon="7.07987">
        <ele>312.8</ele>
        <time>2019-08-16T11:34:48Z</time>
      </trkpt>
      <trkpt lat="47.63472" lon="7.07991">
        <ele>312.8</ele>
        <time>2019-08-16T11:34:52Z</time>
      </trkpt>
      <trkpt lat="47.63475" lon="7.07976">
        <ele>312.9</ele>
        <time>2019-08-16T12:06:44Z</time>
      </trkpt>
      <trkpt lat="47.63475" lon="7.07971">
        <ele>312.9</ele>
        <time>2019-08-16T12:06:48Z</time>
      </trkpt>
      <trkpt lat="47.63475" lon="7.07967">
        <ele>312.9</ele>
        <time>2019-08-16T12:06:58Z</time>
      </trkpt>
      <trkpt lat="47.63473" lon="7.0796">
        <ele>313</ele>
        <time>2019-08-16T12:07:00Z</time>
      </trkpt>
      <trkpt lat="47.63473" lon="7.07953">
        <ele>313</ele>
        <time>2019-08-16T12:07:02Z</time>
      </trkpt>
      <trkpt lat="47.63473" lon="7.07947">
        <ele>313</ele>
        <time>2019-08-16T12:07:04Z</time>
      </trkpt>
      <trkpt lat="47.63473" lon="7.0794">
        <ele>313</ele>
        <time>2019-08-16T12:07:06Z</time>
      </trkpt>
      <trkpt lat="47.63472" lon="7.07936">
        <ele>313</ele>
        <time>2019-08-16T12:07:07Z</time>
      </trkpt>
      <trkpt lat="47.63472" lon="7.07931">
        <ele>313</ele>
        <time>2019-08-16T12:07:08Z</time>
      </trkpt>
      <trkpt lat="47.63472" lon="7.07925">
        <ele>312.9</ele>
        <time>2019-08-16T12:07:09Z</time>
      </trkpt>
      <trkpt lat="47.63471" lon="7.07919">
        <ele>312.9</ele>
        <time>2019-08-16T12:07:10Z</time>
      </trkpt>
      <trkpt lat="47.6347" lon="7.07914">
        <ele>312.9</ele>
        <time>2019-08-16T12:07:11Z</time>
      </trkpt>
      <trkpt lat="47.6347" lon="7.07909">
        <ele>312.9</ele>
        <time>2019-08-16T12:07:12Z</time>
      </trkpt>
      <trkpt lat="47.63469" lon="7.07904">
        <ele>312.9</ele>
        <time>2019-08-16T12:07:13Z</time>
      </trkpt>
      <trkpt lat="47.63468" lon="7.07899">
        <ele>312.9</ele>
        <time>2019-08-16T12:07:14Z</time>
      </trkpt>
      <trkpt lat="47.63468" lon="7.07894">
        <ele>312.9</ele>
        <time>2019-08-16T12:07:15Z</time>
      </trkpt>
      <trkpt lat="47.63468" lon="7.0789">
        <ele>312.9</ele>
        <time>2019-08-16T12:07:16Z</time>
      </trkpt>
      <trkpt lat="47.63467" lon="7.07885">
        <ele>312.9</ele>
        <time>2019-08-16T12:07:17Z</time>
      </trkpt>
      <trkpt lat="47.63465" lon="7.07881">
        <ele>312.9</ele>
        <time>2019-08-16T12:07:18Z</time>
      </trkpt>
      <trkpt lat="47.63465" lon="7.07876">
        <ele>312.9</ele>
        <time>2019-08-16T12:07:19Z</time>
      </trkpt>
      <trkpt lat="47.63464" lon="7.07872">
        <ele>312.9</ele>
        <time>2019-08-16T12:07:20Z</time>
      </trkpt>
      <trkpt lat="47.63463" lon="7.07867">
        <ele>312.8</ele>
        <time>2019-08-16T12:07:21Z</time>
      </trkpt>
      <trkpt lat="47.63462" lon="7.07861">
        <ele>312.8</ele>
        <time>2019-08-16T12:07:22Z</time>
      </trkpt>
      <trkpt lat="47.63462" lon="7.07856">
        <ele>312.8</ele>
        <time>2019-08-16T12:07:23Z</time>
      </trkpt>
      <trkpt lat="47.63462" lon="7.0785">
        <ele>312.8</ele>
        <time>2019-08-16T12:07:24Z</time>
      </trkpt>
      <trkpt lat="47.63462" lon="7.07845">
        <ele>312.8</ele>
        <time>2019-08-16T12:07:25Z</time>
      </trkpt>
      <trkpt lat="47.63462" lon="7.07839">
        <ele>312.8</ele>
        <time>2019-08-16T12:07:26Z</time>
      </trkpt>
      <trkpt lat="47.63462" lon="7.07833">
        <ele>312.8</ele>
        <time>2019-08-16T12:07:27Z</time>
      </trkpt>
      <trkpt lat="47.63462" lon="7.07827">
        <ele>312.7</ele>
        <time>2019-08-16T12:07:28Z</time>
      </trkpt>
      <trkpt lat="47.63461" lon="7.07821">
        <ele>312.7</ele>
        <time>2019-08-16T12:07:29Z</time>
      </trkpt>
      <trkpt lat="47.6346" lon="7.07815">
        <ele>312.7</ele>
        <time>2019-08-16T12:07:30Z</time>
      </trkpt>
      <trkpt lat="47.63459" lon="7.0781">
        <ele>312.7</ele>
        <time>2019-08-16T12:07:31Z</time>
      </trkpt>
      <trkpt lat="47.63458" lon="7.07805">
        <ele>312.7</ele>
        <time>2019-08-16T12:07:32Z</time>
      </trkpt>
      <trkpt lat="47.63457" lon="7.078">
        <ele>312.7</ele>
        <time>2019-08-16T12:07:33Z</time>
      </trkpt>
      <trkpt lat="47.63456" lon="7.07796">
        <ele>312.7</ele>
        <time>2019-08-16T12:07:34Z</time>
      </trkpt>
      <trkpt lat="47.63456" lon="7.07791">
        <ele>312.7</ele>
        <time>2019-08-16T12:07:35Z</time>
      </trkpt>
      <trkpt lat="47.63455" lon="7.07786">
        <ele>312.7</ele>
        <time>2019-08-16T12:07:36Z</time>
      </trkpt>
      <trkpt lat="47.63454" lon="7.0778">
        <ele>312.7</ele>
        <time>2019-08-16T12:07:37Z</time>
      </trkpt>
      <trkpt lat="47.63454" lon="7.07775">
        <ele>312.7</ele>
        <time>2019-08-16T12:07:38Z</time>
      </trkpt>
      <trkpt lat="47.63454" lon="7.07769">
        <ele>312.7</ele>
        <time>2019-08-16T12:07:39Z</time>
      </trkpt>
      <trkpt lat="47.63453" lon="7.07764">
        <ele>312.7</ele>
        <time>2019-08-16T12:07:40Z</time>
      </trkpt>
      <trkpt lat="47.63452" lon="7.07756">
        <ele>312.7</ele>
        <time>2019-08-16T12:07:41Z</time>
      </trkpt>
      <trkpt lat="47.63452" lon="7.0775">
        <ele>312.7</ele>
        <time>2019-08-16T12:07:42Z</time>
      </trkpt>
      <trkpt lat="47.63451" lon="7.07746">
        <ele>312.7</ele>
        <time>2019-08-16T12:07:43Z</time>
      </trkpt>
      <trkpt lat="47.6345" lon="7.07741">
        <ele>312.7</ele>
        <time>2019-08-16T12:07:44Z</time>
      </trkpt>
      <trkpt lat="47.6345" lon="7.07737">
        <ele>312.7</ele>
        <time>2019-08-16T12:07:45Z</time>
      </trkpt>
      <trkpt lat="47.63449" lon="7.07732">
        <ele>312.7</ele>
        <time>2019-08-16T12:07:46Z</time>
      </trkpt>
      <trkpt lat="47.6345" lon="7.07728">
        <ele>312.7</ele>
        <time>2019-08-16T12:07:47Z</time>
      </trkpt>
      <trkpt lat="47.6345" lon="7.07722">
        <ele>312.7</ele>
        <time>2019-08-16T12:07:48Z</time>
      </trkpt>
      <trkpt lat="47.6345" lon="7.07717">
        <ele>312.8</ele>
        <time>2019-08-16T12:07:49Z</time>
      </trkpt>
      <trkpt lat="47.63449" lon="7.07712">
        <ele>312.8</ele>
        <time>2019-08-16T12:07:50Z</time>
      </trkpt>
      <trkpt lat="47.63449" lon="7.07708">
        <ele>312.8</ele>
        <time>2019-08-16T12:07:51Z</time>
      </trkpt>
      <trkpt lat="47.63448" lon="7.07703">
        <ele>312.8</ele>
        <time>2019-08-16T12:07:52Z</time>
      </trkpt>
      <trkpt lat="47.63448" lon="7.07698">
        <ele>312.8</ele>
        <time>2019-08-16T12:07:53Z</time>
      </trkpt>
      <trkpt lat="47.63447" lon="7.07694">
        <ele>312.9</ele>
        <time>2019-08-16T12:07:54Z</time>
      </trkpt>
      <trkpt lat="47.63446" lon="7.07689">
        <ele>312.9</ele>
        <time>2019-08-16T12:07:55Z</time>
      </trkpt>
      <trkpt lat="47.63446" lon="7.07684">
        <ele>313</ele>
        <time>2019-08-16T12:07:56Z</time>
      </trkpt>
      <trkpt lat="47.63445" lon="7.07679">
        <ele>313.1</ele>
        <time>2019-08-16T12:07:57Z</time>
      </trkpt>
      <trkpt lat="47.63444" lon="7.07673">
        <ele>313.2</ele>
        <time>2019-08-16T12:07:58Z</time>
      </trkpt>
      <trkpt lat="47.63444" lon="7.07668">
        <ele>313.3</ele>
        <time>2019-08-16T12:07:59Z</time>
      </trkpt>
      <trkpt lat="47.63443" lon="7.07664">
        <ele>313.4</ele>
        <time>2019-08-16T12:08:00Z</time>
      </trkpt>
      <trkpt lat="47.63443" lon="7.07658">
        <ele>313.5</ele>
        <time>2019-08-16T12:08:01Z</time>
      </trkpt>
      <trkpt lat="47.63442" lon="7.07654">
        <ele>313.6</ele>
        <time>2019-08-16T12:08:02Z</time>
      </trkpt>
      <trkpt lat="47.63442" lon="7.07648">
        <ele>313.7</ele>
        <time>2019-08-16T12:08:03Z</time>
      </trkpt>
      <trkpt lat="47.63441" lon="7.07643">
        <ele>313.9</ele>
        <time>2019-08-16T12:08:04Z</time>
      </trkpt>
      <trkpt lat="47.6344" lon="7.07636">
        <ele>314.1</ele>
        <time>2019-08-16T12:08:05Z</time>
      </trkpt>
      <trkpt lat="47.63439" lon="7.0763">
        <ele>314.4</ele>
        <time>2019-08-16T12:08:06Z</time>
      </trkpt>
      <trkpt lat="47.63438" lon="7.07624">
        <ele>314.6</ele>
        <time>2019-08-16T12:08:07Z</time>
      </trkpt>
      <trkpt lat="47.63439" lon="7.07619">
        <ele>314.7</ele>
        <time>2019-08-16T12:08:08Z</time>
      </trkpt>
      <trkpt lat="47.63438" lon="7.07613">
        <ele>314.9</ele>
        <time>2019-08-16T12:08:09Z</time>
      </trkpt>
      <trkpt lat="47.63436" lon="7.07607">
        <ele>315.1</ele>
        <time>2019-08-16T12:08:10Z</time>
      </trkpt>
      <trkpt lat="47.63436" lon="7.07602">
        <ele>315.2</ele>
        <time>2019-08-16T12:08:11Z</time>
      </trkpt>
      <trkpt lat="47.63435" lon="7.07596">
        <ele>315.3</ele>
        <time>2019-08-16T12:08:12Z</time>
      </trkpt>
      <trkpt lat="47.63434" lon="7.07589">
        <ele>315.4</ele>
        <time>2019-08-16T12:08:13Z</time>
      </trkpt>
      <trkpt lat="47.63433" lon="7.07585">
        <ele>315.4</ele>
        <time>2019-08-16T12:08:14Z</time>
      </trkpt>
      <trkpt lat="47.63433" lon="7.0758">
        <ele>315.5</ele>
        <time>2019-08-16T12:08:15Z</time>
      </trkpt>
      <trkpt lat="47.63432" lon="7.07576">
        <ele>315.5</ele>
        <time>2019-08-16T12:08:16Z</time>
      </trkpt>
      <trkpt lat="47.63431" lon="7.07571">
        <ele>315.6</ele>
        <time>2019-08-16T12:08:17Z</time>
      </trkpt>
      <trkpt lat="47.63431" lon="7.07565">
        <ele>315.6</ele>
        <time>2019-08-16T12:08:19Z</time>
      </trkpt>
      <trkpt lat="47.6343" lon="7.07558">
        <ele>315.6</ele>
        <time>2019-08-16T12:08:21Z</time>
      </trkpt>
      <trkpt lat="47.63429" lon="7.07551">
        <ele>315.7</ele>
        <time>2019-08-16T12:08:23Z</time>
      </trkpt>
      <trkpt lat="47.63429" lon="7.07544">
        <ele>315.8</ele>
        <time>2019-08-16T12:08:25Z</time>
      </trkpt>
      <trkpt lat="47.63429" lon="7.07539">
        <ele>315.9</ele>
        <time>2019-08-16T12:08:26Z</time>
      </trkpt>
      <trkpt lat="47.63428" lon="7.07534">
        <ele>315.9</ele>
        <time>2019-08-16T12:08:27Z</time>
      </trkpt>
      <trkpt lat="47.63428" lon="7.0753">
        <ele>316</ele>
        <time>2019-08-16T12:08:28Z</time>
      </trkpt>
      <trkpt lat="47.63427" lon="7.07525">
        <ele>316</ele>
        <time>2019-08-16T12:08:29Z</time>
      </trkpt>
      <trkpt lat="47.63426" lon="7.07521">
        <ele>316.1</ele>
        <time>2019-08-16T12:08:30Z</time>
      </trkpt>
      <trkpt lat="47.63426" lon="7.07516">
        <ele>316.2</ele>
        <time>2019-08-16T12:08:31Z</time>
      </trkpt>
      <trkpt lat="47.63425" lon="7.0751">
        <ele>316.2</ele>
        <time>2019-08-16T12:08:32Z</time>
      </trkpt>
      <trkpt lat="47.63425" lon="7.07505">
        <ele>316.2</ele>
        <time>2019-08-16T12:08:33Z</time>
      </trkpt>
      <trkpt lat="47.63425" lon="7.07501">
        <ele>316.3</ele>
        <time>2019-08-16T12:08:34Z</time>
      </trkpt>
      <trkpt lat="47.63424" lon="7.07496">
        <ele>316.3</ele>
        <time>2019-08-16T12:08:35Z</time>
      </trkpt>
      <trkpt lat="47.63423" lon="7.0749">
        <ele>316.3</ele>
        <time>2019-08-16T12:08:36Z</time>
      </trkpt>
      <trkpt lat="47.63421" lon="7.07484">
        <ele>316.3</ele>
        <time>2019-08-16T12:08:38Z</time>
      </trkpt>
      <trkpt lat="47.6342" lon="7.0748">
        <ele>316.3</ele>
        <time>2019-08-16T12:08:39Z</time>
      </trkpt>
      <trkpt lat="47.63419" lon="7.07475">
        <ele>316.4</ele>
        <time>2019-08-16T12:08:40Z</time>
      </trkpt>
      <trkpt lat="47.63418" lon="7.07471">
        <ele>316.4</ele>
        <time>2019-08-16T12:08:41Z</time>
      </trkpt>
      <trkpt lat="47.63417" lon="7.07466">
        <ele>316.4</ele>
        <time>2019-08-16T12:08:42Z</time>
      </trkpt>
      <trkpt lat="47.63416" lon="7.07458">
        <ele>316.4</ele>
        <time>2019-08-16T12:08:44Z</time>
      </trkpt>
      <trkpt lat="47.63415" lon="7.07453">
        <ele>316.4</ele>
        <time>2019-08-16T12:08:45Z</time>
      </trkpt>
      <trkpt lat="47.63414" lon="7.07448">
        <ele>316.4</ele>
        <time>2019-08-16T12:08:46Z</time>
      </trkpt>
      <trkpt lat="47.63414" lon="7.07442">
        <ele>316.5</ele>
        <time>2019-08-16T12:08:47Z</time>
      </trkpt>
      <trkpt lat="47.63414" lon="7.07437">
        <ele>316.5</ele>
        <time>2019-08-16T12:08:48Z</time>
      </trkpt>
      <trkpt lat="47.63414" lon="7.07432">
        <ele>316.5</ele>
        <time>2019-08-16T12:08:49Z</time>
      </trkpt>
      <trkpt lat="47.63413" lon="7.07427">
        <ele>316.6</ele>
        <time>2019-08-16T12:08:50Z</time>
      </trkpt>
      <trkpt lat="47.63414" lon="7.07423">
        <ele>316.6</ele>
        <time>2019-08-16T12:08:51Z</time>
      </trkpt>
      <trkpt lat="47.63412" lon="7.07416">
        <ele>316.6</ele>
        <time>2019-08-16T12:08:52Z</time>
      </trkpt>
      <trkpt lat="47.63412" lon="7.0741">
        <ele>316.7</ele>
        <time>2019-08-16T12:08:53Z</time>
      </trkpt>
      <trkpt lat="47.63411" lon="7.07405">
        <ele>316.7</ele>
        <time>2019-08-16T12:08:54Z</time>
      </trkpt>
      <trkpt lat="47.6341" lon="7.07398">
        <ele>316.7</ele>
        <time>2019-08-16T12:08:55Z</time>
      </trkpt>
      <trkpt lat="47.6341" lon="7.07392">
        <ele>316.7</ele>
        <time>2019-08-16T12:08:56Z</time>
      </trkpt>
      <trkpt lat="47.63409" lon="7.07387">
        <ele>316.7</ele>
        <time>2019-08-16T12:08:57Z</time>
      </trkpt>
      <trkpt lat="47.63408" lon="7.07382">
        <ele>316.8</ele>
        <time>2019-08-16T12:08:58Z</time>
      </trkpt>
      <trkpt lat="47.63407" lon="7.07376">
        <ele>316.8</ele>
        <time>2019-08-16T12:08:59Z</time>
      </trkpt>
      <trkpt lat="47.63406" lon="7.0737">
        <ele>316.8</ele>
        <time>2019-08-16T12:09:00Z</time>
      </trkpt>
      <trkpt lat="47.63405" lon="7.07365">
        <ele>316.8</ele>
        <time>2019-08-16T12:09:01Z</time>
      </trkpt>
      <trkpt lat="47.63404" lon="7.07359">
        <ele>316.8</ele>
        <time>2019-08-16T12:09:02Z</time>
      </trkpt>
      <trkpt lat="47.63403" lon="7.07353">
        <ele>316.8</ele>
        <time>2019-08-16T12:09:03Z</time>
      </trkpt>
      <trkpt lat="47.63402" lon="7.07348">
        <ele>316.9</ele>
        <time>2019-08-16T12:09:04Z</time>
      </trkpt>
      <trkpt lat="47.63401" lon="7.07341">
        <ele>316.9</ele>
        <time>2019-08-16T12:09:05Z</time>
      </trkpt>
      <trkpt lat="47.634" lon="7.07335">
        <ele>317</ele>
        <time>2019-08-16T12:09:06Z</time>
      </trkpt>
      <trkpt lat="47.63399" lon="7.07329">
        <ele>317.1</ele>
        <time>2019-08-16T12:09:07Z</time>
      </trkpt>
      <trkpt lat="47.63399" lon="7.07324">
        <ele>317.2</ele>
        <time>2019-08-16T12:09:08Z</time>
      </trkpt>
      <trkpt lat="47.63398" lon="7.07318">
        <ele>317.3</ele>
        <time>2019-08-16T12:09:09Z</time>
      </trkpt>
      <trkpt lat="47.63397" lon="7.07313">
        <ele>317.4</ele>
        <time>2019-08-16T12:09:10Z</time>
      </trkpt>
      <trkpt lat="47.63396" lon="7.07308">
        <ele>317.5</ele>
        <time>2019-08-16T12:09:11Z</time>
      </trkpt>
      <trkpt lat="47.63395" lon="7.07301">
        <ele>317.6</ele>
        <time>2019-08-16T12:09:12Z</time>
      </trkpt>
      <trkpt lat="47.63394" lon="7.07295">
        <ele>317.7</ele>
        <time>2019-08-16T12:09:13Z</time>
      </trkpt>
      <trkpt lat="47.63393" lon="7.07289">
        <ele>317.9</ele>
        <time>2019-08-16T12:09:14Z</time>
      </trkpt>
      <trkpt lat="47.63392" lon="7.07282">
        <ele>318.1</ele>
        <time>2019-08-16T12:09:15Z</time>
      </trkpt>
      <trkpt lat="47.63391" lon="7.07277">
        <ele>318.2</ele>
        <time>2019-08-16T12:09:16Z</time>
      </trkpt>
      <trkpt lat="47.63391" lon="7.07271">
        <ele>318.3</ele>
        <time>2019-08-16T12:09:17Z</time>
      </trkpt>
      <trkpt lat="47.63391" lon="7.07265">
        <ele>318.4</ele>
        <time>2019-08-16T12:09:18Z</time>
      </trkpt>
      <trkpt lat="47.63391" lon="7.07259">
        <ele>318.5</ele>
        <time>2019-08-16T12:09:19Z</time>
      </trkpt>
      <trkpt lat="47.6339" lon="7.07254">
        <ele>318.6</ele>
        <time>2019-08-16T12:09:20Z</time>
      </trkpt>
      <trkpt lat="47.6339" lon="7.07248">
        <ele>318.7</ele>
        <time>2019-08-16T12:09:21Z</time>
      </trkpt>
      <trkpt lat="47.6339" lon="7.07243">
        <ele>318.7</ele>
        <time>2019-08-16T12:09:22Z</time>
      </trkpt>
      <trkpt lat="47.63389" lon="7.07238">
        <ele>318.8</ele>
        <time>2019-08-16T12:09:23Z</time>
      </trkpt>
      <trkpt lat="47.63389" lon="7.07233">
        <ele>318.9</ele>
        <time>2019-08-16T12:09:24Z</time>
      </trkpt>
      <trkpt lat="47.63388" lon="7.07229">
        <ele>318.9</ele>
        <time>2019-08-16T12:09:25Z</time>
      </trkpt>
      <trkpt lat="47.63387" lon="7.07225">
        <ele>318.9</ele>
        <time>2019-08-16T12:09:26Z</time>
      </trkpt>
      <trkpt lat="47.63387" lon="7.07218">
        <ele>319</ele>
        <time>2019-08-16T12:09:28Z</time>
      </trkpt>
      <trkpt lat="47.63386" lon="7.07212">
        <ele>319.1</ele>
        <time>2019-08-16T12:09:30Z</time>
      </trkpt>
      <trkpt lat="47.63386" lon="7.07205">
        <ele>319.2</ele>
        <time>2019-08-16T12:09:32Z</time>
      </trkpt>
      <trkpt lat="47.63385" lon="7.072">
        <ele>319.2</ele>
        <time>2019-08-16T12:09:33Z</time>
      </trkpt>
      <trkpt lat="47.63384" lon="7.07195">
        <ele>319.3</ele>
        <time>2019-08-16T12:09:34Z</time>
      </trkpt>
      <trkpt lat="47.63383" lon="7.07191">
        <ele>319.3</ele>
        <time>2019-08-16T12:09:35Z</time>
      </trkpt>
      <trkpt lat="47.63383" lon="7.07185">
        <ele>319.4</ele>
        <time>2019-08-16T12:09:36Z</time>
      </trkpt>
      <trkpt lat="47.63382" lon="7.07177">
        <ele>319.4</ele>
        <time>2019-08-16T12:09:38Z</time>
      </trkpt>
      <trkpt lat="47.63382" lon="7.07173">
        <ele>319.5</ele>
        <time>2019-08-16T12:09:39Z</time>
      </trkpt>
      <trkpt lat="47.63382" lon="7.07169">
        <ele>319.5</ele>
        <time>2019-08-16T12:09:40Z</time>
      </trkpt>
      <trkpt lat="47.63381" lon="7.07164">
        <ele>319.5</ele>
        <time>2019-08-16T12:09:41Z</time>
      </trkpt>
      <trkpt lat="47.63379" lon="7.07157">
        <ele>319.6</ele>
        <time>2019-08-16T12:09:43Z</time>
      </trkpt>
      <trkpt lat="47.63378" lon="7.07153">
        <ele>319.6</ele>
        <time>2019-08-16T12:09:44Z</time>
      </trkpt>
      <trkpt lat="47.63375" lon="7.07146">
        <ele>319.6</ele>
        <time>2019-08-16T12:09:46Z</time>
      </trkpt>
      <trkpt lat="47.63374" lon="7.07142">
        <ele>319.6</ele>
        <time>2019-08-16T12:09:47Z</time>
      </trkpt>
      <trkpt lat="47.63374" lon="7.07137">
        <ele>319.6</ele>
        <time>2019-08-16T12:09:49Z</time>
      </trkpt>
      <trkpt lat="47.63372" lon="7.07129">
        <ele>319.6</ele>
        <time>2019-08-16T12:09:51Z</time>
      </trkpt>
      <trkpt lat="47.63372" lon="7.07124">
        <ele>319.6</ele>
        <time>2019-08-16T12:09:52Z</time>
      </trkpt>
      <trkpt lat="47.63371" lon="7.0712">
        <ele>319.6</ele>
        <time>2019-08-16T12:09:53Z</time>
      </trkpt>
      <trkpt lat="47.63369" lon="7.07115">
        <ele>319.6</ele>
        <time>2019-08-16T12:09:54Z</time>
      </trkpt>
      <trkpt lat="47.63368" lon="7.07111">
        <ele>319.6</ele>
        <time>2019-08-16T12:09:55Z</time>
      </trkpt>
      <trkpt lat="47.63367" lon="7.07101">
        <ele>319.6</ele>
        <time>2019-08-16T12:09:57Z</time>
      </trkpt>
      <trkpt lat="47.63367" lon="7.07095">
        <ele>319.5</ele>
        <time>2019-08-16T12:09:58Z</time>
      </trkpt>
      <trkpt lat="47.63366" lon="7.0709">
        <ele>319.5</ele>
        <time>2019-08-16T12:09:59Z</time>
      </trkpt>
      <trkpt lat="47.63365" lon="7.07086">
        <ele>319.5</ele>
        <time>2019-08-16T12:10:00Z</time>
      </trkpt>
      <trkpt lat="47.63365" lon="7.0708">
        <ele>319.5</ele>
        <time>2019-08-16T12:10:01Z</time>
      </trkpt>
      <trkpt lat="47.63364" lon="7.07074">
        <ele>319.5</ele>
        <time>2019-08-16T12:10:02Z</time>
      </trkpt>
      <trkpt lat="47.63363" lon="7.07069">
        <ele>319.4</ele>
        <time>2019-08-16T12:10:03Z</time>
      </trkpt>
      <trkpt lat="47.63362" lon="7.07063">
        <ele>319.4</ele>
        <time>2019-08-16T12:10:04Z</time>
      </trkpt>
      <trkpt lat="47.63361" lon="7.07058">
        <ele>319.4</ele>
        <time>2019-08-16T12:10:05Z</time>
      </trkpt>
      <trkpt lat="47.63361" lon="7.07053">
        <ele>319.4</ele>
        <time>2019-08-16T12:10:06Z</time>
      </trkpt>
      <trkpt lat="47.6336" lon="7.07048">
        <ele>319.4</ele>
        <time>2019-08-16T12:10:07Z</time>
      </trkpt>
      <trkpt lat="47.6336" lon="7.07044">
        <ele>319.4</ele>
        <time>2019-08-16T12:10:08Z</time>
      </trkpt>
      <trkpt lat="47.63359" lon="7.07039">
        <ele>319.5</ele>
        <time>2019-08-16T12:10:09Z</time>
      </trkpt>
      <trkpt lat="47.63358" lon="7.07035">
        <ele>319.5</ele>
        <time>2019-08-16T12:10:10Z</time>
      </trkpt>
      <trkpt lat="47.63357" lon="7.07029">
        <ele>319.6</ele>
        <time>2019-08-16T12:10:11Z</time>
      </trkpt>
      <trkpt lat="47.63356" lon="7.07024">
        <ele>319.7</ele>
        <time>2019-08-16T12:10:12Z</time>
      </trkpt>
      <trkpt lat="47.63356" lon="7.07018">
        <ele>319.8</ele>
        <time>2019-08-16T12:10:13Z</time>
      </trkpt>
      <trkpt lat="47.63355" lon="7.07012">
        <ele>320</ele>
        <time>2019-08-16T12:10:14Z</time>
      </trkpt>
      <trkpt lat="47.63356" lon="7.07007">
        <ele>320.1</ele>
        <time>2019-08-16T12:10:15Z</time>
      </trkpt>
      <trkpt lat="47.63356" lon="7.07002">
        <ele>320.2</ele>
        <time>2019-08-16T12:10:16Z</time>
      </trkpt>
      <trkpt lat="47.63356" lon="7.06997">
        <ele>320.4</ele>
        <time>2019-08-16T12:10:17Z</time>
      </trkpt>
      <trkpt lat="47.63356" lon="7.06992">
        <ele>320.5</ele>
        <time>2019-08-16T12:10:18Z</time>
      </trkpt>
      <trkpt lat="47.63356" lon="7.06987">
        <ele>320.6</ele>
        <time>2019-08-16T12:10:19Z</time>
      </trkpt>
      <trkpt lat="47.63356" lon="7.06981">
        <ele>320.8</ele>
        <time>2019-08-16T12:10:20Z</time>
      </trkpt>
      <trkpt lat="47.63357" lon="7.06975">
        <ele>321</ele>
        <time>2019-08-16T12:10:21Z</time>
      </trkpt>
      <trkpt lat="47.63356" lon="7.0697">
        <ele>321.1</ele>
        <time>2019-08-16T12:10:22Z</time>
      </trkpt>
      <trkpt lat="47.63356" lon="7.06966">
        <ele>321.3</ele>
        <time>2019-08-16T12:10:23Z</time>
      </trkpt>
      <trkpt lat="47.63355" lon="7.06961">
        <ele>321.4</ele>
        <time>2019-08-16T12:10:24Z</time>
      </trkpt>
      <trkpt lat="47.63355" lon="7.06957">
        <ele>321.6</ele>
        <time>2019-08-16T12:10:25Z</time>
      </trkpt>
      <trkpt lat="47.63354" lon="7.06952">
        <ele>321.7</ele>
        <time>2019-08-16T12:10:26Z</time>
      </trkpt>
      <trkpt lat="47.63354" lon="7.06947">
        <ele>321.8</ele>
        <time>2019-08-16T12:10:27Z</time>
      </trkpt>
      <trkpt lat="47.63353" lon="7.06943">
        <ele>321.9</ele>
        <time>2019-08-16T12:10:28Z</time>
      </trkpt>
      <trkpt lat="47.63351" lon="7.06938">
        <ele>322.1</ele>
        <time>2019-08-16T12:10:29Z</time>
      </trkpt>
      <trkpt lat="47.63351" lon="7.06933">
        <ele>322.2</ele>
        <time>2019-08-16T12:10:30Z</time>
      </trkpt>
      <trkpt lat="47.6335" lon="7.06929">
        <ele>322.2</ele>
        <time>2019-08-16T12:10:31Z</time>
      </trkpt>
      <trkpt lat="47.63349" lon="7.06924">
        <ele>322.3</ele>
        <time>2019-08-16T12:10:32Z</time>
      </trkpt>
      <trkpt lat="47.63348" lon="7.0692">
        <ele>322.3</ele>
        <time>2019-08-16T12:10:33Z</time>
      </trkpt>
      <trkpt lat="47.63347" lon="7.06913">
        <ele>322.4</ele>
        <time>2019-08-16T12:10:35Z</time>
      </trkpt>
      <trkpt lat="47.63346" lon="7.06909">
        <ele>322.4</ele>
        <time>2019-08-16T12:10:36Z</time>
      </trkpt>
      <trkpt lat="47.63345" lon="7.06904">
        <ele>322.4</ele>
        <time>2019-08-16T12:10:37Z</time>
      </trkpt>
      <trkpt lat="47.63344" lon="7.06899">
        <ele>322.4</ele>
        <time>2019-08-16T12:10:38Z</time>
      </trkpt>
      <trkpt lat="47.63343" lon="7.06894">
        <ele>322.4</ele>
        <time>2019-08-16T12:10:39Z</time>
      </trkpt>
      <trkpt lat="47.63343" lon="7.06889">
        <ele>322.4</ele>
        <time>2019-08-16T12:10:40Z</time>
      </trkpt>
      <trkpt lat="47.63342" lon="7.06884">
        <ele>322.4</ele>
        <time>2019-08-16T12:10:41Z</time>
      </trkpt>
      <trkpt lat="47.63341" lon="7.06879">
        <ele>322.4</ele>
        <time>2019-08-16T12:10:42Z</time>
      </trkpt>
      <trkpt lat="47.63341" lon="7.06874">
        <ele>322.4</ele>
        <time>2019-08-16T12:10:43Z</time>
      </trkpt>
      <trkpt lat="47.6334" lon="7.06869">
        <ele>322.4</ele>
        <time>2019-08-16T12:10:44Z</time>
      </trkpt>
      <trkpt lat="47.63339" lon="7.06864">
        <ele>322.4</ele>
        <time>2019-08-16T12:10:45Z</time>
      </trkpt>
      <trkpt lat="47.63338" lon="7.0686">
        <ele>322.4</ele>
        <time>2019-08-16T12:10:46Z</time>
      </trkpt>
      <trkpt lat="47.63338" lon="7.06855">
        <ele>322.5</ele>
        <time>2019-08-16T12:10:47Z</time>
      </trkpt>
      <trkpt lat="47.63337" lon="7.0685">
        <ele>322.5</ele>
        <time>2019-08-16T12:10:48Z</time>
      </trkpt>
      <trkpt lat="47.63336" lon="7.06845">
        <ele>322.5</ele>
        <time>2019-08-16T12:10:49Z</time>
      </trkpt>
      <trkpt lat="47.63335" lon="7.0684">
        <ele>322.5</ele>
        <time>2019-08-16T12:10:50Z</time>
      </trkpt>
      <trkpt lat="47.63335" lon="7.06834">
        <ele>322.5</ele>
        <time>2019-08-16T12:10:51Z</time>
      </trkpt>
      <trkpt lat="47.63334" lon="7.06828">
        <ele>322.6</ele>
        <time>2019-08-16T12:10:52Z</time>
      </trkpt>
      <trkpt lat="47.63333" lon="7.06822">
        <ele>322.6</ele>
        <time>2019-08-16T12:10:53Z</time>
      </trkpt>
      <trkpt lat="47.63332" lon="7.06815">
        <ele>322.7</ele>
        <time>2019-08-16T12:10:54Z</time>
      </trkpt>
      <trkpt lat="47.63332" lon="7.06809">
        <ele>322.7</ele>
        <time>2019-08-16T12:10:55Z</time>
      </trkpt>
      <trkpt lat="47.63331" lon="7.06803">
        <ele>322.8</ele>
        <time>2019-08-16T12:10:56Z</time>
      </trkpt>
      <trkpt lat="47.63331" lon="7.06797">
        <ele>323</ele>
        <time>2019-08-16T12:10:57Z</time>
      </trkpt>
      <trkpt lat="47.6333" lon="7.06791">
        <ele>323.1</ele>
        <time>2019-08-16T12:10:58Z</time>
      </trkpt>
      <trkpt lat="47.6333" lon="7.06785">
        <ele>323.3</ele>
        <time>2019-08-16T12:10:59Z</time>
      </trkpt>
      <trkpt lat="47.6333" lon="7.06781">
        <ele>323.5</ele>
        <time>2019-08-16T12:11:00Z</time>
      </trkpt>
      <trkpt lat="47.6333" lon="7.06775">
        <ele>323.7</ele>
        <time>2019-08-16T12:11:01Z</time>
      </trkpt>
      <trkpt lat="47.6333" lon="7.0677">
        <ele>323.9</ele>
        <time>2019-08-16T12:11:02Z</time>
      </trkpt>
      <trkpt lat="47.6333" lon="7.06764">
        <ele>324.1</ele>
        <time>2019-08-16T12:11:03Z</time>
      </trkpt>
      <trkpt lat="47.6333" lon="7.06758">
        <ele>324.4</ele>
        <time>2019-08-16T12:11:04Z</time>
      </trkpt>
      <trkpt lat="47.6333" lon="7.06753">
        <ele>324.6</ele>
        <time>2019-08-16T12:11:05Z</time>
      </trkpt>
      <trkpt lat="47.6333" lon="7.06749">
        <ele>324.7</ele>
        <time>2019-08-16T12:11:06Z</time>
      </trkpt>
      <trkpt lat="47.6333" lon="7.06744">
        <ele>324.9</ele>
        <time>2019-08-16T12:11:07Z</time>
      </trkpt>
      <trkpt lat="47.63329" lon="7.06739">
        <ele>325.1</ele>
        <time>2019-08-16T12:11:08Z</time>
      </trkpt>
      <trkpt lat="47.63328" lon="7.06734">
        <ele>325.2</ele>
        <time>2019-08-16T12:11:09Z</time>
      </trkpt>
      <trkpt lat="47.63328" lon="7.0673">
        <ele>325.3</ele>
        <time>2019-08-16T12:11:10Z</time>
      </trkpt>
      <trkpt lat="47.63327" lon="7.06725">
        <ele>325.5</ele>
        <time>2019-08-16T12:11:11Z</time>
      </trkpt>
      <trkpt lat="47.63326" lon="7.0672">
        <ele>325.6</ele>
        <time>2019-08-16T12:11:12Z</time>
      </trkpt>
      <trkpt lat="47.63326" lon="7.06714">
        <ele>325.7</ele>
        <time>2019-08-16T12:11:14Z</time>
      </trkpt>
      <trkpt lat="47.63325" lon="7.06707">
        <ele>325.9</ele>
        <time>2019-08-16T12:11:16Z</time>
      </trkpt>
      <trkpt lat="47.63324" lon="7.06703">
        <ele>325.9</ele>
        <time>2019-08-16T12:11:17Z</time>
      </trkpt>
      <trkpt lat="47.63323" lon="7.06699">
        <ele>326</ele>
        <time>2019-08-16T12:11:18Z</time>
      </trkpt>
      <trkpt lat="47.63322" lon="7.06695">
        <ele>326.1</ele>
        <time>2019-08-16T12:11:19Z</time>
      </trkpt>
      <trkpt lat="47.63321" lon="7.06691">
        <ele>326.1</ele>
        <time>2019-08-16T12:11:20Z</time>
      </trkpt>
      <trkpt lat="47.6332" lon="7.06686">
        <ele>326.2</ele>
        <time>2019-08-16T12:11:21Z</time>
      </trkpt>
      <trkpt lat="47.6332" lon="7.06679">
        <ele>326.3</ele>
        <time>2019-08-16T12:11:23Z</time>
      </trkpt>
      <trkpt lat="47.63319" lon="7.06674">
        <ele>326.4</ele>
        <time>2019-08-16T12:11:24Z</time>
      </trkpt>
      <trkpt lat="47.63318" lon="7.0667">
        <ele>326.4</ele>
        <time>2019-08-16T12:11:25Z</time>
      </trkpt>
      <trkpt lat="47.63317" lon="7.06665">
        <ele>326.5</ele>
        <time>2019-08-16T12:11:26Z</time>
      </trkpt>
      <trkpt lat="47.63317" lon="7.0666">
        <ele>326.5</ele>
        <time>2019-08-16T12:11:27Z</time>
      </trkpt>
      <trkpt lat="47.63317" lon="7.06655">
        <ele>326.6</ele>
        <time>2019-08-16T12:11:28Z</time>
      </trkpt>
      <trkpt lat="47.63316" lon="7.0665">
        <ele>326.6</ele>
        <time>2019-08-16T12:11:29Z</time>
      </trkpt>
      <trkpt lat="47.63316" lon="7.06644">
        <ele>326.7</ele>
        <time>2019-08-16T12:11:30Z</time>
      </trkpt>
      <trkpt lat="47.63315" lon="7.06639">
        <ele>326.7</ele>
        <time>2019-08-16T12:11:31Z</time>
      </trkpt>
      <trkpt lat="47.63314" lon="7.06634">
        <ele>326.7</ele>
        <time>2019-08-16T12:11:32Z</time>
      </trkpt>
      <trkpt lat="47.63314" lon="7.06629">
        <ele>326.8</ele>
        <time>2019-08-16T12:11:33Z</time>
      </trkpt>
      <trkpt lat="47.63313" lon="7.06624">
        <ele>326.8</ele>
        <time>2019-08-16T12:11:34Z</time>
      </trkpt>
      <trkpt lat="47.63313" lon="7.06618">
        <ele>326.8</ele>
        <time>2019-08-16T12:11:35Z</time>
      </trkpt>
      <trkpt lat="47.63313" lon="7.06613">
        <ele>326.8</ele>
        <time>2019-08-16T12:11:36Z</time>
      </trkpt>
      <trkpt lat="47.63312" lon="7.06607">
        <ele>326.9</ele>
        <time>2019-08-16T12:11:37Z</time>
      </trkpt>
      <trkpt lat="47.63311" lon="7.06602">
        <ele>326.9</ele>
        <time>2019-08-16T12:11:38Z</time>
      </trkpt>
      <trkpt lat="47.6331" lon="7.06595">
        <ele>326.9</ele>
        <time>2019-08-16T12:11:39Z</time>
      </trkpt>
      <trkpt lat="47.63309" lon="7.06589">
        <ele>326.9</ele>
        <time>2019-08-16T12:11:40Z</time>
      </trkpt>
      <trkpt lat="47.63308" lon="7.06583">
        <ele>327</ele>
        <time>2019-08-16T12:11:41Z</time>
      </trkpt>
      <trkpt lat="47.63308" lon="7.06577">
        <ele>327</ele>
        <time>2019-08-16T12:11:42Z</time>
      </trkpt>
      <trkpt lat="47.63307" lon="7.06571">
        <ele>327.1</ele>
        <time>2019-08-16T12:11:43Z</time>
      </trkpt>
      <trkpt lat="47.63307" lon="7.06565">
        <ele>327.1</ele>
        <time>2019-08-16T12:11:44Z</time>
      </trkpt>
      <trkpt lat="47.63307" lon="7.0656">
        <ele>327.2</ele>
        <time>2019-08-16T12:11:45Z</time>
      </trkpt>
      <trkpt lat="47.63306" lon="7.06555">
        <ele>327.3</ele>
        <time>2019-08-16T12:11:46Z</time>
      </trkpt>
      <trkpt lat="47.63304" lon="7.06549">
        <ele>327.4</ele>
        <time>2019-08-16T12:11:47Z</time>
      </trkpt>
      <trkpt lat="47.63304" lon="7.06544">
        <ele>327.5</ele>
        <time>2019-08-16T12:11:48Z</time>
      </trkpt>
      <trkpt lat="47.63303" lon="7.06539">
        <ele>327.6</ele>
        <time>2019-08-16T12:11:49Z</time>
      </trkpt>
      <trkpt lat="47.63302" lon="7.06533">
        <ele>327.7</ele>
        <time>2019-08-16T12:11:50Z</time>
      </trkpt>
      <trkpt lat="47.63301" lon="7.06528">
        <ele>327.8</ele>
        <time>2019-08-16T12:11:51Z</time>
      </trkpt>
      <trkpt lat="47.63301" lon="7.06522">
        <ele>327.9</ele>
        <time>2019-08-16T12:11:52Z</time>
      </trkpt>
      <trkpt lat="47.63301" lon="7.06516">
        <ele>328.1</ele>
        <time>2019-08-16T12:11:53Z</time>
      </trkpt>
      <trkpt lat="47.63301" lon="7.06509">
        <ele>328.3</ele>
        <time>2019-08-16T12:11:54Z</time>
      </trkpt>
      <trkpt lat="47.633" lon="7.06504">
        <ele>328.4</ele>
        <time>2019-08-16T12:11:55Z</time>
      </trkpt>
      <trkpt lat="47.633" lon="7.06499">
        <ele>328.5</ele>
        <time>2019-08-16T12:11:56Z</time>
      </trkpt>
      <trkpt lat="47.63299" lon="7.06495">
        <ele>328.7</ele>
        <time>2019-08-16T12:11:57Z</time>
      </trkpt>
      <trkpt lat="47.63299" lon="7.06491">
        <ele>328.8</ele>
        <time>2019-08-16T12:11:58Z</time>
      </trkpt>
      <trkpt lat="47.63299" lon="7.06486">
        <ele>328.9</ele>
        <time>2019-08-16T12:11:59Z</time>
      </trkpt>
      <trkpt lat="47.63298" lon="7.06479">
        <ele>329.1</ele>
        <time>2019-08-16T12:12:01Z</time>
      </trkpt>
      <trkpt lat="47.63296" lon="7.0647">
        <ele>329.2</ele>
        <time>2019-08-16T12:12:03Z</time>
      </trkpt>
      <trkpt lat="47.63296" lon="7.06465">
        <ele>329.3</ele>
        <time>2019-08-16T12:12:04Z</time>
      </trkpt>
      <trkpt lat="47.63294" lon="7.0646">
        <ele>329.4</ele>
        <time>2019-08-16T12:12:05Z</time>
      </trkpt>
      <trkpt lat="47.63293" lon="7.06455">
        <ele>329.4</ele>
        <time>2019-08-16T12:12:06Z</time>
      </trkpt>
      <trkpt lat="47.63293" lon="7.0645">
        <ele>329.4</ele>
        <time>2019-08-16T12:12:07Z</time>
      </trkpt>
      <trkpt lat="47.63293" lon="7.06445">
        <ele>329.4</ele>
        <time>2019-08-16T12:12:08Z</time>
      </trkpt>
      <trkpt lat="47.63292" lon="7.0644">
        <ele>329.5</ele>
        <time>2019-08-16T12:12:09Z</time>
      </trkpt>
      <trkpt lat="47.63292" lon="7.06434">
        <ele>329.5</ele>
        <time>2019-08-16T12:12:10Z</time>
      </trkpt>
      <trkpt lat="47.63292" lon="7.06429">
        <ele>329.5</ele>
        <time>2019-08-16T12:12:11Z</time>
      </trkpt>
      <trkpt lat="47.63292" lon="7.06424">
        <ele>329.5</ele>
        <time>2019-08-16T12:12:12Z</time>
      </trkpt>
      <trkpt lat="47.63291" lon="7.06418">
        <ele>329.5</ele>
        <time>2019-08-16T12:12:13Z</time>
      </trkpt>
      <trkpt lat="47.6329" lon="7.06413">
        <ele>329.5</ele>
        <time>2019-08-16T12:12:14Z</time>
      </trkpt>
      <trkpt lat="47.63289" lon="7.06407">
        <ele>329.5</ele>
        <time>2019-08-16T12:12:15Z</time>
      </trkpt>
      <trkpt lat="47.63288" lon="7.06401">
        <ele>329.5</ele>
        <time>2019-08-16T12:12:16Z</time>
      </trkpt>
      <trkpt lat="47.63288" lon="7.06395">
        <ele>329.5</ele>
        <time>2019-08-16T12:12:17Z</time>
      </trkpt>
      <trkpt lat="47.63287" lon="7.06388">
        <ele>329.5</ele>
        <time>2019-08-16T12:12:18Z</time>
      </trkpt>
      <trkpt lat="47.63286" lon="7.06382">
        <ele>329.5</ele>
        <time>2019-08-16T12:12:19Z</time>
      </trkpt>
      <trkpt lat="47.63285" lon="7.06376">
        <ele>329.5</ele>
        <time>2019-08-16T12:12:20Z</time>
      </trkpt>
      <trkpt lat="47.63284" lon="7.06371">
        <ele>329.5</ele>
        <time>2019-08-16T12:12:21Z</time>
      </trkpt>
      <trkpt lat="47.63282" lon="7.06366">
        <ele>329.5</ele>
        <time>2019-08-16T12:12:22Z</time>
      </trkpt>
      <trkpt lat="47.63281" lon="7.06359">
        <ele>329.5</ele>
        <time>2019-08-16T12:12:23Z</time>
      </trkpt>
      <trkpt lat="47.63281" lon="7.06353">
        <ele>329.5</ele>
        <time>2019-08-16T12:12:24Z</time>
      </trkpt>
      <trkpt lat="47.6328" lon="7.06347">
        <ele>329.5</ele>
        <time>2019-08-16T12:12:25Z</time>
      </trkpt>
      <trkpt lat="47.63279" lon="7.06341">
        <ele>329.6</ele>
        <time>2019-08-16T12:12:26Z</time>
      </trkpt>
      <trkpt lat="47.63279" lon="7.06336">
        <ele>329.6</ele>
        <time>2019-08-16T12:12:27Z</time>
      </trkpt>
      <trkpt lat="47.63278" lon="7.0633">
        <ele>329.6</ele>
        <time>2019-08-16T12:12:28Z</time>
      </trkpt>
      <trkpt lat="47.63278" lon="7.06324">
        <ele>329.7</ele>
        <time>2019-08-16T12:12:29Z</time>
      </trkpt>
      <trkpt lat="47.63278" lon="7.06318">
        <ele>329.8</ele>
        <time>2019-08-16T12:12:30Z</time>
      </trkpt>
      <trkpt lat="47.63278" lon="7.06312">
        <ele>329.9</ele>
        <time>2019-08-16T12:12:31Z</time>
      </trkpt>
      <trkpt lat="47.63278" lon="7.06306">
        <ele>330.1</ele>
        <time>2019-08-16T12:12:32Z</time>
      </trkpt>
      <trkpt lat="47.63278" lon="7.063">
        <ele>330.2</ele>
        <time>2019-08-16T12:12:33Z</time>
      </trkpt>
      <trkpt lat="47.63277" lon="7.06294">
        <ele>330.4</ele>
        <time>2019-08-16T12:12:34Z</time>
      </trkpt>
      <trkpt lat="47.63277" lon="7.06289">
        <ele>330.6</ele>
        <time>2019-08-16T12:12:35Z</time>
      </trkpt>
      <trkpt lat="47.63277" lon="7.06284">
        <ele>330.8</ele>
        <time>2019-08-16T12:12:36Z</time>
      </trkpt>
      <trkpt lat="47.63276" lon="7.06279">
        <ele>330.9</ele>
        <time>2019-08-16T12:12:37Z</time>
      </trkpt>
      <trkpt lat="47.63275" lon="7.06275">
        <ele>331.1</ele>
        <time>2019-08-16T12:12:38Z</time>
      </trkpt>
      <trkpt lat="47.63275" lon="7.06271">
        <ele>331.2</ele>
        <time>2019-08-16T12:12:39Z</time>
      </trkpt>
      <trkpt lat="47.63275" lon="7.06267">
        <ele>331.4</ele>
        <time>2019-08-16T12:12:40Z</time>
      </trkpt>
      <trkpt lat="47.63275" lon="7.06263">
        <ele>331.5</ele>
        <time>2019-08-16T12:12:41Z</time>
      </trkpt>
      <trkpt lat="47.63274" lon="7.06259">
        <ele>331.6</ele>
        <time>2019-08-16T12:12:42Z</time>
      </trkpt>
      <trkpt lat="47.63273" lon="7.06252">
        <ele>331.8</ele>
        <time>2019-08-16T12:12:44Z</time>
      </trkpt>
      <trkpt lat="47.63271" lon="7.06245">
        <ele>331.9</ele>
        <time>2019-08-16T12:12:46Z</time>
      </trkpt>
      <trkpt lat="47.6327" lon="7.06241">
        <ele>332</ele>
        <time>2019-08-16T12:12:47Z</time>
      </trkpt>
      <trkpt lat="47.63269" lon="7.06236">
        <ele>332</ele>
        <time>2019-08-16T12:12:48Z</time>
      </trkpt>
      <trkpt lat="47.63269" lon="7.06231">
        <ele>332.1</ele>
        <time>2019-08-16T12:12:49Z</time>
      </trkpt>
      <trkpt lat="47.63268" lon="7.06227">
        <ele>332.1</ele>
        <time>2019-08-16T12:12:50Z</time>
      </trkpt>
      <trkpt lat="47.63267" lon="7.06223">
        <ele>332.2</ele>
        <time>2019-08-16T12:12:51Z</time>
      </trkpt>
      <trkpt lat="47.63266" lon="7.06218">
        <ele>332.2</ele>
        <time>2019-08-16T12:12:52Z</time>
      </trkpt>
      <trkpt lat="47.63265" lon="7.06213">
        <ele>332.2</ele>
        <time>2019-08-16T12:12:53Z</time>
      </trkpt>
      <trkpt lat="47.63264" lon="7.06208">
        <ele>332.3</ele>
        <time>2019-08-16T12:12:54Z</time>
      </trkpt>
      <trkpt lat="47.63263" lon="7.06201">
        <ele>332.3</ele>
        <time>2019-08-16T12:12:55Z</time>
      </trkpt>
      <trkpt lat="47.63263" lon="7.06196">
        <ele>332.3</ele>
        <time>2019-08-16T12:12:56Z</time>
      </trkpt>
      <trkpt lat="47.63262" lon="7.06191">
        <ele>332.4</ele>
        <time>2019-08-16T12:12:57Z</time>
      </trkpt>
      <trkpt lat="47.63261" lon="7.06185">
        <ele>332.4</ele>
        <time>2019-08-16T12:12:58Z</time>
      </trkpt>
      <trkpt lat="47.6326" lon="7.06179">
        <ele>332.4</ele>
        <time>2019-08-16T12:12:59Z</time>
      </trkpt>
      <trkpt lat="47.6326" lon="7.06174">
        <ele>332.4</ele>
        <time>2019-08-16T12:13:00Z</time>
      </trkpt>
      <trkpt lat="47.63259" lon="7.06168">
        <ele>332.5</ele>
        <time>2019-08-16T12:13:01Z</time>
      </trkpt>
      <trkpt lat="47.63258" lon="7.06161">
        <ele>332.5</ele>
        <time>2019-08-16T12:13:02Z</time>
      </trkpt>
      <trkpt lat="47.63257" lon="7.06156">
        <ele>332.5</ele>
        <time>2019-08-16T12:13:03Z</time>
      </trkpt>
      <trkpt lat="47.63257" lon="7.0615">
        <ele>332.5</ele>
        <time>2019-08-16T12:13:04Z</time>
      </trkpt>
      <trkpt lat="47.63256" lon="7.06145">
        <ele>332.5</ele>
        <time>2019-08-16T12:13:05Z</time>
      </trkpt>
      <trkpt lat="47.63255" lon="7.06139">
        <ele>332.5</ele>
        <time>2019-08-16T12:13:06Z</time>
      </trkpt>
      <trkpt lat="47.63254" lon="7.06133">
        <ele>332.5</ele>
        <time>2019-08-16T12:13:07Z</time>
      </trkpt>
      <trkpt lat="47.63254" lon="7.06126">
        <ele>332.5</ele>
        <time>2019-08-16T12:13:08Z</time>
      </trkpt>
      <trkpt lat="47.63253" lon="7.06121">
        <ele>332.6</ele>
        <time>2019-08-16T12:13:09Z</time>
      </trkpt>
      <trkpt lat="47.63252" lon="7.06116">
        <ele>332.6</ele>
        <time>2019-08-16T12:13:10Z</time>
      </trkpt>
      <trkpt lat="47.63252" lon="7.06111">
        <ele>332.6</ele>
        <time>2019-08-16T12:13:11Z</time>
      </trkpt>
      <trkpt lat="47.63252" lon="7.06106">
        <ele>332.6</ele>
        <time>2019-08-16T12:13:12Z</time>
      </trkpt>
      <trkpt lat="47.63251" lon="7.061">
        <ele>332.7</ele>
        <time>2019-08-16T12:13:13Z</time>
      </trkpt>
      <trkpt lat="47.6325" lon="7.06094">
        <ele>332.7</ele>
        <time>2019-08-16T12:13:14Z</time>
      </trkpt>
      <trkpt lat="47.63249" lon="7.06088">
        <ele>332.8</ele>
        <time>2019-08-16T12:13:15Z</time>
      </trkpt>
      <trkpt lat="47.63248" lon="7.06083">
        <ele>332.9</ele>
        <time>2019-08-16T12:13:16Z</time>
      </trkpt>
      <trkpt lat="47.63249" lon="7.06078">
        <ele>333</ele>
        <time>2019-08-16T12:13:17Z</time>
      </trkpt>
      <trkpt lat="47.63248" lon="7.06074">
        <ele>333.1</ele>
        <time>2019-08-16T12:13:18Z</time>
      </trkpt>
      <trkpt lat="47.63248" lon="7.06068">
        <ele>333.3</ele>
        <time>2019-08-16T12:13:19Z</time>
      </trkpt>
      <trkpt lat="47.63247" lon="7.06063">
        <ele>333.5</ele>
        <time>2019-08-16T12:13:20Z</time>
      </trkpt>
      <trkpt lat="47.63246" lon="7.06058">
        <ele>333.6</ele>
        <time>2019-08-16T12:13:21Z</time>
      </trkpt>
      <trkpt lat="47.63245" lon="7.06053">
        <ele>333.8</ele>
        <time>2019-08-16T12:13:22Z</time>
      </trkpt>
      <trkpt lat="47.63244" lon="7.06048">
        <ele>333.9</ele>
        <time>2019-08-16T12:13:23Z</time>
      </trkpt>
      <trkpt lat="47.63244" lon="7.06043">
        <ele>334.1</ele>
        <time>2019-08-16T12:13:24Z</time>
      </trkpt>
      <trkpt lat="47.63244" lon="7.06038">
        <ele>334.2</ele>
        <time>2019-08-16T12:13:25Z</time>
      </trkpt>
      <trkpt lat="47.63243" lon="7.06034">
        <ele>334.4</ele>
        <time>2019-08-16T12:13:26Z</time>
      </trkpt>
      <trkpt lat="47.63242" lon="7.06027">
        <ele>334.6</ele>
        <time>2019-08-16T12:13:28Z</time>
      </trkpt>
      <trkpt lat="47.63241" lon="7.06023">
        <ele>334.6</ele>
        <time>2019-08-16T12:13:29Z</time>
      </trkpt>
      <trkpt lat="47.6324" lon="7.06019">
        <ele>334.7</ele>
        <time>2019-08-16T12:13:30Z</time>
      </trkpt>
      <trkpt lat="47.63239" lon="7.06015">
        <ele>334.8</ele>
        <time>2019-08-16T12:13:31Z</time>
      </trkpt>
      <trkpt lat="47.63238" lon="7.06009">
        <ele>335</ele>
        <time>2019-08-16T12:13:32Z</time>
      </trkpt>
      <trkpt lat="47.63238" lon="7.06005">
        <ele>335</ele>
        <time>2019-08-16T12:13:33Z</time>
      </trkpt>
      <trkpt lat="47.63238" lon="7.06">
        <ele>335.1</ele>
        <time>2019-08-16T12:13:34Z</time>
      </trkpt>
      <trkpt lat="47.63237" lon="7.05996">
        <ele>335.2</ele>
        <time>2019-08-16T12:13:35Z</time>
      </trkpt>
      <trkpt lat="47.63237" lon="7.0599">
        <ele>335.3</ele>
        <time>2019-08-16T12:13:36Z</time>
      </trkpt>
      <trkpt lat="47.63236" lon="7.05985">
        <ele>335.4</ele>
        <time>2019-08-16T12:13:37Z</time>
      </trkpt>
      <trkpt lat="47.63236" lon="7.0598">
        <ele>335.4</ele>
        <time>2019-08-16T12:13:38Z</time>
      </trkpt>
      <trkpt lat="47.63234" lon="7.05975">
        <ele>335.5</ele>
        <time>2019-08-16T12:13:39Z</time>
      </trkpt>
      <trkpt lat="47.63234" lon="7.05969">
        <ele>335.5</ele>
        <time>2019-08-16T12:13:40Z</time>
      </trkpt>
      <trkpt lat="47.63233" lon="7.05964">
        <ele>335.5</ele>
        <time>2019-08-16T12:13:41Z</time>
      </trkpt>
      <trkpt lat="47.63232" lon="7.05958">
        <ele>335.5</ele>
        <time>2019-08-16T12:13:42Z</time>
      </trkpt>
      <trkpt lat="47.63231" lon="7.05952">
        <ele>335.6</ele>
        <time>2019-08-16T12:13:43Z</time>
      </trkpt>
      <trkpt lat="47.6323" lon="7.05946">
        <ele>335.6</ele>
        <time>2019-08-16T12:13:44Z</time>
      </trkpt>
      <trkpt lat="47.63229" lon="7.0594">
        <ele>335.6</ele>
        <time>2019-08-16T12:13:45Z</time>
      </trkpt>
      <trkpt lat="47.63227" lon="7.05933">
        <ele>335.6</ele>
        <time>2019-08-16T12:13:46Z</time>
      </trkpt>
      <trkpt lat="47.63225" lon="7.05927">
        <ele>335.6</ele>
        <time>2019-08-16T12:13:47Z</time>
      </trkpt>
      <trkpt lat="47.63223" lon="7.05921">
        <ele>335.7</ele>
        <time>2019-08-16T12:13:48Z</time>
      </trkpt>
      <trkpt lat="47.63221" lon="7.05915">
        <ele>335.7</ele>
        <time>2019-08-16T12:13:49Z</time>
      </trkpt>
      <trkpt lat="47.63218" lon="7.05911">
        <ele>335.7</ele>
        <time>2019-08-16T12:13:50Z</time>
      </trkpt>
      <trkpt lat="47.63216" lon="7.05906">
        <ele>335.8</ele>
        <time>2019-08-16T12:13:51Z</time>
      </trkpt>
      <trkpt lat="47.63214" lon="7.05901">
        <ele>335.8</ele>
        <time>2019-08-16T12:13:52Z</time>
      </trkpt>
      <trkpt lat="47.63212" lon="7.05896">
        <ele>335.8</ele>
        <time>2019-08-16T12:13:53Z</time>
      </trkpt>
      <trkpt lat="47.6321" lon="7.05891">
        <ele>335.9</ele>
        <time>2019-08-16T12:13:54Z</time>
      </trkpt>
      <trkpt lat="47.63208" lon="7.05886">
        <ele>335.9</ele>
        <time>2019-08-16T12:13:55Z</time>
      </trkpt>
      <trkpt lat="47.63206" lon="7.0588">
        <ele>336</ele>
        <time>2019-08-16T12:13:56Z</time>
      </trkpt>
      <trkpt lat="47.63204" lon="7.05875">
        <ele>336</ele>
        <time>2019-08-16T12:13:57Z</time>
      </trkpt>
      <trkpt lat="47.63202" lon="7.0587">
        <ele>336.1</ele>
        <time>2019-08-16T12:13:58Z</time>
      </trkpt>
      <trkpt lat="47.632" lon="7.05865">
        <ele>336.2</ele>
        <time>2019-08-16T12:13:59Z</time>
      </trkpt>
      <trkpt lat="47.63198" lon="7.05861">
        <ele>336.2</ele>
        <time>2019-08-16T12:14:00Z</time>
      </trkpt>
      <trkpt lat="47.63196" lon="7.05858">
        <ele>336.3</ele>
        <time>2019-08-16T12:14:01Z</time>
      </trkpt>
      <trkpt lat="47.63193" lon="7.05852">
        <ele>336.5</ele>
        <time>2019-08-16T12:14:03Z</time>
      </trkpt>
      <trkpt lat="47.63191" lon="7.05848">
        <ele>336.7</ele>
        <time>2019-08-16T12:14:04Z</time>
      </trkpt>
      <trkpt lat="47.63188" lon="7.0584">
        <ele>337.1</ele>
        <time>2019-08-16T12:14:06Z</time>
      </trkpt>
      <trkpt lat="47.63184" lon="7.05835">
        <ele>337.5</ele>
        <time>2019-08-16T12:14:08Z</time>
      </trkpt>
      <trkpt lat="47.63181" lon="7.05832">
        <ele>337.7</ele>
        <time>2019-08-16T12:14:09Z</time>
      </trkpt>
      <trkpt lat="47.63179" lon="7.05829">
        <ele>337.9</ele>
        <time>2019-08-16T12:14:10Z</time>
      </trkpt>
      <trkpt lat="47.63176" lon="7.05826">
        <ele>338.1</ele>
        <time>2019-08-16T12:14:11Z</time>
      </trkpt>
      <trkpt lat="47.63172" lon="7.05821">
        <ele>338.2</ele>
        <time>2019-08-16T12:14:13Z</time>
      </trkpt>
      <trkpt lat="47.63169" lon="7.05818">
        <ele>338.2</ele>
        <time>2019-08-16T12:14:14Z</time>
      </trkpt>
      <trkpt lat="47.63167" lon="7.05815">
        <ele>338.3</ele>
        <time>2019-08-16T12:14:15Z</time>
      </trkpt>
      <trkpt lat="47.63164" lon="7.05811">
        <ele>338.3</ele>
        <time>2019-08-16T12:14:16Z</time>
      </trkpt>
      <trkpt lat="47.63161" lon="7.05807">
        <ele>338.3</ele>
        <time>2019-08-16T12:14:17Z</time>
      </trkpt>
      <trkpt lat="47.63158" lon="7.05802">
        <ele>338.3</ele>
        <time>2019-08-16T12:14:18Z</time>
      </trkpt>
      <trkpt lat="47.63156" lon="7.05798">
        <ele>338.4</ele>
        <time>2019-08-16T12:14:19Z</time>
      </trkpt>
      <trkpt lat="47.63154" lon="7.05795">
        <ele>338.4</ele>
        <time>2019-08-16T12:14:20Z</time>
      </trkpt>
      <trkpt lat="47.63152" lon="7.05791">
        <ele>338.4</ele>
        <time>2019-08-16T12:14:21Z</time>
      </trkpt>
      <trkpt lat="47.6315" lon="7.05787">
        <ele>338.4</ele>
        <time>2019-08-16T12:14:22Z</time>
      </trkpt>
      <trkpt lat="47.63148" lon="7.05783">
        <ele>338.4</ele>
        <time>2019-08-16T12:14:23Z</time>
      </trkpt>
      <trkpt lat="47.63146" lon="7.05779">
        <ele>338.4</ele>
        <time>2019-08-16T12:14:24Z</time>
      </trkpt>
      <trkpt lat="47.63145" lon="7.05775">
        <ele>338.4</ele>
        <time>2019-08-16T12:14:25Z</time>
      </trkpt>
      <trkpt lat="47.63142" lon="7.0577">
        <ele>338.5</ele>
        <time>2019-08-16T12:14:26Z</time>
      </trkpt>
      <trkpt lat="47.63139" lon="7.05765">
        <ele>338.5</ele>
        <time>2019-08-16T12:14:27Z</time>
      </trkpt>
      <trkpt lat="47.63137" lon="7.05761">
        <ele>338.5</ele>
        <time>2019-08-16T12:14:28Z</time>
      </trkpt>
      <trkpt lat="47.63134" lon="7.05755">
        <ele>338.5</ele>
        <time>2019-08-16T12:14:29Z</time>
      </trkpt>
      <trkpt lat="47.63133" lon="7.0575">
        <ele>338.5</ele>
        <time>2019-08-16T12:14:30Z</time>
      </trkpt>
      <trkpt lat="47.63134" lon="7.05746">
        <ele>338.6</ele>
        <time>2019-08-16T12:14:31Z</time>
      </trkpt>
      <trkpt lat="47.63136" lon="7.05742">
        <ele>338.6</ele>
        <time>2019-08-16T12:14:32Z</time>
      </trkpt>
      <trkpt lat="47.63136" lon="7.05737">
        <ele>338.6</ele>
        <time>2019-08-16T12:14:33Z</time>
      </trkpt>
      <trkpt lat="47.63134" lon="7.05733">
        <ele>338.6</ele>
        <time>2019-08-16T12:14:34Z</time>
      </trkpt>
      <trkpt lat="47.63132" lon="7.0573">
        <ele>338.6</ele>
        <time>2019-08-16T12:14:35Z</time>
      </trkpt>
      <trkpt lat="47.6313" lon="7.05726">
        <ele>338.7</ele>
        <time>2019-08-16T12:14:36Z</time>
      </trkpt>
      <trkpt lat="47.63129" lon="7.05722">
        <ele>338.7</ele>
        <time>2019-08-16T12:14:37Z</time>
      </trkpt>
      <trkpt lat="47.63128" lon="7.05717">
        <ele>338.7</ele>
        <time>2019-08-16T12:14:39Z</time>
      </trkpt>
      <trkpt lat="47.63124" lon="7.05711">
        <ele>338.8</ele>
        <time>2019-08-16T12:14:41Z</time>
      </trkpt>
      <trkpt lat="47.6312" lon="7.05704">
        <ele>338.9</ele>
        <time>2019-08-16T12:14:42Z</time>
      </trkpt>
      <trkpt lat="47.63118" lon="7.05697">
        <ele>339.1</ele>
        <time>2019-08-16T12:14:43Z</time>
      </trkpt>
      <trkpt lat="47.63114" lon="7.05695">
        <ele>339.2</ele>
        <time>2019-08-16T12:14:44Z</time>
      </trkpt>
      <trkpt lat="47.63111" lon="7.05694">
        <ele>339.3</ele>
        <time>2019-08-16T12:14:45Z</time>
      </trkpt>
      <trkpt lat="47.63108" lon="7.05691">
        <ele>339.3</ele>
        <time>2019-08-16T12:14:46Z</time>
      </trkpt>
      <trkpt lat="47.63105" lon="7.05688">
        <ele>339.5</ele>
        <time>2019-08-16T12:14:48Z</time>
      </trkpt>
      <trkpt lat="47.63101" lon="7.05686">
        <ele>339.6</ele>
        <time>2019-08-16T12:14:50Z</time>
      </trkpt>
      <trkpt lat="47.63099" lon="7.05683">
        <ele>339.7</ele>
        <time>2019-08-16T12:14:52Z</time>
      </trkpt>
      <trkpt lat="47.63096" lon="7.05682">
        <ele>339.7</ele>
        <time>2019-08-16T12:14:54Z</time>
      </trkpt>
      <trkpt lat="47.63093" lon="7.05679">
        <ele>339.8</ele>
        <time>2019-08-16T12:14:56Z</time>
      </trkpt>
      <trkpt lat="47.63091" lon="7.05676">
        <ele>339.9</ele>
        <time>2019-08-16T12:14:57Z</time>
      </trkpt>
      <trkpt lat="47.63089" lon="7.05672">
        <ele>339.9</ele>
        <time>2019-08-16T12:14:58Z</time>
      </trkpt>
      <trkpt lat="47.63087" lon="7.05668">
        <ele>340</ele>
        <time>2019-08-16T12:14:59Z</time>
      </trkpt>
      <trkpt lat="47.63085" lon="7.05665">
        <ele>340.1</ele>
        <time>2019-08-16T12:15:00Z</time>
      </trkpt>
      <trkpt lat="47.63081" lon="7.05658">
        <ele>340.3</ele>
        <time>2019-08-16T12:15:02Z</time>
      </trkpt>
      <trkpt lat="47.63079" lon="7.05654">
        <ele>340.3</ele>
        <time>2019-08-16T12:15:03Z</time>
      </trkpt>
      <trkpt lat="47.63076" lon="7.05649">
        <ele>340.5</ele>
        <time>2019-08-16T12:15:04Z</time>
      </trkpt>
      <trkpt lat="47.63074" lon="7.05645">
        <ele>340.6</ele>
        <time>2019-08-16T12:15:05Z</time>
      </trkpt>
      <trkpt lat="47.63073" lon="7.0564">
        <ele>340.7</ele>
        <time>2019-08-16T12:15:06Z</time>
      </trkpt>
      <trkpt lat="47.6307" lon="7.05637">
        <ele>340.8</ele>
        <time>2019-08-16T12:15:07Z</time>
      </trkpt>
      <trkpt lat="47.63068" lon="7.05632">
        <ele>340.9</ele>
        <time>2019-08-16T12:15:08Z</time>
      </trkpt>
      <trkpt lat="47.63065" lon="7.05628">
        <ele>341.1</ele>
        <time>2019-08-16T12:15:09Z</time>
      </trkpt>
      <trkpt lat="47.63062" lon="7.05623">
        <ele>341.2</ele>
        <time>2019-08-16T12:15:10Z</time>
      </trkpt>
      <trkpt lat="47.63059" lon="7.05619">
        <ele>341.3</ele>
        <time>2019-08-16T12:15:11Z</time>
      </trkpt>
      <trkpt lat="47.63056" lon="7.05615">
        <ele>341.4</ele>
        <time>2019-08-16T12:15:12Z</time>
      </trkpt>
      <trkpt lat="47.63053" lon="7.0561">
        <ele>341.6</ele>
        <time>2019-08-16T12:15:13Z</time>
      </trkpt>
      <trkpt lat="47.6305" lon="7.05605">
        <ele>341.7</ele>
        <time>2019-08-16T12:15:14Z</time>
      </trkpt>
      <trkpt lat="47.63047" lon="7.05601">
        <ele>341.8</ele>
        <time>2019-08-16T12:15:15Z</time>
      </trkpt>
      <trkpt lat="47.63043" lon="7.05597">
        <ele>342</ele>
        <time>2019-08-16T12:15:16Z</time>
      </trkpt>
      <trkpt lat="47.63041" lon="7.05593">
        <ele>342.1</ele>
        <time>2019-08-16T12:15:17Z</time>
      </trkpt>
      <trkpt lat="47.63037" lon="7.05589">
        <ele>342.2</ele>
        <time>2019-08-16T12:15:18Z</time>
      </trkpt>
      <trkpt lat="47.63035" lon="7.05584">
        <ele>342.3</ele>
        <time>2019-08-16T12:15:19Z</time>
      </trkpt>
      <trkpt lat="47.63032" lon="7.0558">
        <ele>342.3</ele>
        <time>2019-08-16T12:15:20Z</time>
      </trkpt>
      <trkpt lat="47.6303" lon="7.05575">
        <ele>342.4</ele>
        <time>2019-08-16T12:15:21Z</time>
      </trkpt>
      <trkpt lat="47.63029" lon="7.05571">
        <ele>342.4</ele>
        <time>2019-08-16T12:15:22Z</time>
      </trkpt>
      <trkpt lat="47.63027" lon="7.05567">
        <ele>342.4</ele>
        <time>2019-08-16T12:15:23Z</time>
      </trkpt>
      <trkpt lat="47.63025" lon="7.05563">
        <ele>342.4</ele>
        <time>2019-08-16T12:15:24Z</time>
      </trkpt>
      <trkpt lat="47.63023" lon="7.05558">
        <ele>342.4</ele>
        <time>2019-08-16T12:15:25Z</time>
      </trkpt>
      <trkpt lat="47.6302" lon="7.05554">
        <ele>342.4</ele>
        <time>2019-08-16T12:15:26Z</time>
      </trkpt>
      <trkpt lat="47.63018" lon="7.05549">
        <ele>342.4</ele>
        <time>2019-08-16T12:15:27Z</time>
      </trkpt>
      <trkpt lat="47.63015" lon="7.05544">
        <ele>342.5</ele>
        <time>2019-08-16T12:15:28Z</time>
      </trkpt>
      <trkpt lat="47.63012" lon="7.0554">
        <ele>342.5</ele>
        <time>2019-08-16T12:15:29Z</time>
      </trkpt>
      <trkpt lat="47.6301" lon="7.05536">
        <ele>342.5</ele>
        <time>2019-08-16T12:15:30Z</time>
      </trkpt>
      <trkpt lat="47.63008" lon="7.05531">
        <ele>342.5</ele>
        <time>2019-08-16T12:15:31Z</time>
      </trkpt>
      <trkpt lat="47.63007" lon="7.05527">
        <ele>342.5</ele>
        <time>2019-08-16T12:15:32Z</time>
      </trkpt>
      <trkpt lat="47.63005" lon="7.05522">
        <ele>342.5</ele>
        <time>2019-08-16T12:15:33Z</time>
      </trkpt>
      <trkpt lat="47.63003" lon="7.05518">
        <ele>342.5</ele>
        <time>2019-08-16T12:15:34Z</time>
      </trkpt>
      <trkpt lat="47.63001" lon="7.05512">
        <ele>342.5</ele>
        <time>2019-08-16T12:15:35Z</time>
      </trkpt>
      <trkpt lat="47.62999" lon="7.05507">
        <ele>342.5</ele>
        <time>2019-08-16T12:15:36Z</time>
      </trkpt>
      <trkpt lat="47.62997" lon="7.05502">
        <ele>342.5</ele>
        <time>2019-08-16T12:15:37Z</time>
      </trkpt>
      <trkpt lat="47.62995" lon="7.05497">
        <ele>342.5</ele>
        <time>2019-08-16T12:15:38Z</time>
      </trkpt>
      <trkpt lat="47.62992" lon="7.05492">
        <ele>342.6</ele>
        <time>2019-08-16T12:15:39Z</time>
      </trkpt>
      <trkpt lat="47.6299" lon="7.05487">
        <ele>342.6</ele>
        <time>2019-08-16T12:15:40Z</time>
      </trkpt>
      <trkpt lat="47.62987" lon="7.05483">
        <ele>342.7</ele>
        <time>2019-08-16T12:15:41Z</time>
      </trkpt>
      <trkpt lat="47.62984" lon="7.05478">
        <ele>342.8</ele>
        <time>2019-08-16T12:15:42Z</time>
      </trkpt>
      <trkpt lat="47.62982" lon="7.05474">
        <ele>342.9</ele>
        <time>2019-08-16T12:15:43Z</time>
      </trkpt>
      <trkpt lat="47.6298" lon="7.05469">
        <ele>343</ele>
        <time>2019-08-16T12:15:44Z</time>
      </trkpt>
      <trkpt lat="47.62978" lon="7.05464">
        <ele>343.1</ele>
        <time>2019-08-16T12:15:45Z</time>
      </trkpt>
      <trkpt lat="47.62975" lon="7.05459">
        <ele>343.2</ele>
        <time>2019-08-16T12:15:46Z</time>
      </trkpt>
      <trkpt lat="47.62973" lon="7.05456">
        <ele>343.3</ele>
        <time>2019-08-16T12:15:47Z</time>
      </trkpt>
      <trkpt lat="47.62971" lon="7.05453">
        <ele>343.4</ele>
        <time>2019-08-16T12:15:48Z</time>
      </trkpt>
      <trkpt lat="47.62969" lon="7.05449">
        <ele>343.6</ele>
        <time>2019-08-16T12:15:49Z</time>
      </trkpt>
      <trkpt lat="47.62966" lon="7.05446">
        <ele>343.7</ele>
        <time>2019-08-16T12:15:50Z</time>
      </trkpt>
      <trkpt lat="47.62964" lon="7.05442">
        <ele>343.8</ele>
        <time>2019-08-16T12:15:51Z</time>
      </trkpt>
      <trkpt lat="47.62962" lon="7.05438">
        <ele>343.9</ele>
        <time>2019-08-16T12:15:52Z</time>
      </trkpt>
      <trkpt lat="47.62958" lon="7.0543">
        <ele>344.2</ele>
        <time>2019-08-16T12:15:54Z</time>
      </trkpt>
      <trkpt lat="47.62956" lon="7.05426">
        <ele>344.3</ele>
        <time>2019-08-16T12:15:55Z</time>
      </trkpt>
      <trkpt lat="47.62953" lon="7.05421">
        <ele>344.4</ele>
        <time>2019-08-16T12:15:56Z</time>
      </trkpt>
      <trkpt lat="47.6295" lon="7.05418">
        <ele>344.5</ele>
        <time>2019-08-16T12:15:57Z</time>
      </trkpt>
      <trkpt lat="47.62948" lon="7.05414">
        <ele>344.6</ele>
        <time>2019-08-16T12:15:58Z</time>
      </trkpt>
      <trkpt lat="47.62945" lon="7.05409">
        <ele>344.7</ele>
        <time>2019-08-16T12:15:59Z</time>
      </trkpt>
      <trkpt lat="47.62943" lon="7.05405">
        <ele>344.8</ele>
        <time>2019-08-16T12:16:00Z</time>
      </trkpt>
      <trkpt lat="47.62941" lon="7.054">
        <ele>344.9</ele>
        <time>2019-08-16T12:16:01Z</time>
      </trkpt>
      <trkpt lat="47.62938" lon="7.05395">
        <ele>345</ele>
        <time>2019-08-16T12:16:02Z</time>
      </trkpt>
      <trkpt lat="47.62936" lon="7.05391">
        <ele>345.1</ele>
        <time>2019-08-16T12:16:03Z</time>
      </trkpt>
      <trkpt lat="47.62934" lon="7.05386">
        <ele>345.2</ele>
        <time>2019-08-16T12:16:04Z</time>
      </trkpt>
      <trkpt lat="47.62931" lon="7.05381">
        <ele>345.3</ele>
        <time>2019-08-16T12:16:05Z</time>
      </trkpt>
      <trkpt lat="47.62929" lon="7.05377">
        <ele>345.4</ele>
        <time>2019-08-16T12:16:06Z</time>
      </trkpt>
      <trkpt lat="47.62926" lon="7.05371">
        <ele>345.4</ele>
        <time>2019-08-16T12:16:07Z</time>
      </trkpt>
      <trkpt lat="47.62924" lon="7.05366">
        <ele>345.5</ele>
        <time>2019-08-16T12:16:08Z</time>
      </trkpt>
      <trkpt lat="47.62922" lon="7.05362">
        <ele>345.5</ele>
        <time>2019-08-16T12:16:09Z</time>
      </trkpt>
      <trkpt lat="47.62919" lon="7.05357">
        <ele>345.5</ele>
        <time>2019-08-16T12:16:10Z</time>
      </trkpt>
      <trkpt lat="47.62917" lon="7.05352">
        <ele>345.5</ele>
        <time>2019-08-16T12:16:11Z</time>
      </trkpt>
      <trkpt lat="47.62915" lon="7.05348">
        <ele>345.5</ele>
        <time>2019-08-16T12:16:12Z</time>
      </trkpt>
      <trkpt lat="47.62913" lon="7.05344">
        <ele>345.5</ele>
        <time>2019-08-16T12:16:13Z</time>
      </trkpt>
      <trkpt lat="47.6291" lon="7.05339">
        <ele>345.5</ele>
        <time>2019-08-16T12:16:14Z</time>
      </trkpt>
      <trkpt lat="47.62908" lon="7.05334">
        <ele>345.5</ele>
        <time>2019-08-16T12:16:15Z</time>
      </trkpt>
      <trkpt lat="47.62905" lon="7.05329">
        <ele>345.5</ele>
        <time>2019-08-16T12:16:16Z</time>
      </trkpt>
      <trkpt lat="47.62903" lon="7.05324">
        <ele>345.5</ele>
        <time>2019-08-16T12:16:17Z</time>
      </trkpt>
      <trkpt lat="47.629" lon="7.05318">
        <ele>345.5</ele>
        <time>2019-08-16T12:16:18Z</time>
      </trkpt>
      <trkpt lat="47.62898" lon="7.05312">
        <ele>345.4</ele>
        <time>2019-08-16T12:16:19Z</time>
      </trkpt>
      <trkpt lat="47.62894" lon="7.05307">
        <ele>345.4</ele>
        <time>2019-08-16T12:16:20Z</time>
      </trkpt>
      <trkpt lat="47.62892" lon="7.05301">
        <ele>345.4</ele>
        <time>2019-08-16T12:16:21Z</time>
      </trkpt>
      <trkpt lat="47.62889" lon="7.05294">
        <ele>345.3</ele>
        <time>2019-08-16T12:16:22Z</time>
      </trkpt>
      <trkpt lat="47.62886" lon="7.05287">
        <ele>345.2</ele>
        <time>2019-08-16T12:16:23Z</time>
      </trkpt>
      <trkpt lat="47.62882" lon="7.05281">
        <ele>345.1</ele>
        <time>2019-08-16T12:16:24Z</time>
      </trkpt>
      <trkpt lat="47.62878" lon="7.05274">
        <ele>344.9</ele>
        <time>2019-08-16T12:16:25Z</time>
      </trkpt>
      <trkpt lat="47.62874" lon="7.05267">
        <ele>344.8</ele>
        <time>2019-08-16T12:16:26Z</time>
      </trkpt>
      <trkpt lat="47.6287" lon="7.05258">
        <ele>344.5</ele>
        <time>2019-08-16T12:16:27Z</time>
      </trkpt>
      <trkpt lat="47.62866" lon="7.05252">
        <ele>344.3</ele>
        <time>2019-08-16T12:16:28Z</time>
      </trkpt>
      <trkpt lat="47.62861" lon="7.05243">
        <ele>343.9</ele>
        <time>2019-08-16T12:16:29Z</time>
      </trkpt>
      <trkpt lat="47.62858" lon="7.05238">
        <ele>343.7</ele>
        <time>2019-08-16T12:16:30Z</time>
      </trkpt>
      <trkpt lat="47.62852" lon="7.05231">
        <ele>343.5</ele>
        <time>2019-08-16T12:16:31Z</time>
      </trkpt>
      <trkpt lat="47.62847" lon="7.05224">
        <ele>343.3</ele>
        <time>2019-08-16T12:16:32Z</time>
      </trkpt>
      <trkpt lat="47.62843" lon="7.05218">
        <ele>343.1</ele>
        <time>2019-08-16T12:16:33Z</time>
      </trkpt>
      <trkpt lat="47.62839" lon="7.05212">
        <ele>342.9</ele>
        <time>2019-08-16T12:16:34Z</time>
      </trkpt>
      <trkpt lat="47.62835" lon="7.05206">
        <ele>342.8</ele>
        <time>2019-08-16T12:16:35Z</time>
      </trkpt>
      <trkpt lat="47.62832" lon="7.052">
        <ele>342.8</ele>
        <time>2019-08-16T12:16:36Z</time>
      </trkpt>
      <trkpt lat="47.62828" lon="7.05195">
        <ele>342.7</ele>
        <time>2019-08-16T12:16:37Z</time>
      </trkpt>
      <trkpt lat="47.62824" lon="7.05188">
        <ele>342.6</ele>
        <time>2019-08-16T12:16:38Z</time>
      </trkpt>
      <trkpt lat="47.62819" lon="7.05181">
        <ele>342.6</ele>
        <time>2019-08-16T12:16:39Z</time>
      </trkpt>
      <trkpt lat="47.62815" lon="7.05173">
        <ele>342.5</ele>
        <time>2019-08-16T12:16:40Z</time>
      </trkpt>
      <trkpt lat="47.62811" lon="7.05167">
        <ele>342.5</ele>
        <time>2019-08-16T12:16:41Z</time>
      </trkpt>
      <trkpt lat="47.62808" lon="7.05161">
        <ele>342.5</ele>
        <time>2019-08-16T12:16:42Z</time>
      </trkpt>
      <trkpt lat="47.62804" lon="7.05155">
        <ele>342.5</ele>
        <time>2019-08-16T12:16:43Z</time>
      </trkpt>
      <trkpt lat="47.62801" lon="7.05149">
        <ele>342.5</ele>
        <time>2019-08-16T12:16:44Z</time>
      </trkpt>
      <trkpt lat="47.62798" lon="7.05144">
        <ele>342.5</ele>
        <time>2019-08-16T12:16:45Z</time>
      </trkpt>
      <trkpt lat="47.62795" lon="7.05137">
        <ele>342.5</ele>
        <time>2019-08-16T12:16:46Z</time>
      </trkpt>
      <trkpt lat="47.62791" lon="7.05131">
        <ele>342.5</ele>
        <time>2019-08-16T12:16:47Z</time>
      </trkpt>
      <trkpt lat="47.62788" lon="7.05125">
        <ele>342.5</ele>
        <time>2019-08-16T12:16:48Z</time>
      </trkpt>
      <trkpt lat="47.62785" lon="7.05121">
        <ele>342.5</ele>
        <time>2019-08-16T12:16:49Z</time>
      </trkpt>
      <trkpt lat="47.62782" lon="7.05115">
        <ele>342.5</ele>
        <time>2019-08-16T12:16:50Z</time>
      </trkpt>
      <trkpt lat="47.6278" lon="7.05109">
        <ele>342.5</ele>
        <time>2019-08-16T12:16:51Z</time>
      </trkpt>
      <trkpt lat="47.62777" lon="7.05102">
        <ele>342.5</ele>
        <time>2019-08-16T12:16:52Z</time>
      </trkpt>
      <trkpt lat="47.62774" lon="7.05096">
        <ele>342.6</ele>
        <time>2019-08-16T12:16:53Z</time>
      </trkpt>
      <trkpt lat="47.62772" lon="7.0509">
        <ele>342.6</ele>
        <time>2019-08-16T12:16:54Z</time>
      </trkpt>
      <trkpt lat="47.6277" lon="7.05085">
        <ele>342.6</ele>
        <time>2019-08-16T12:16:55Z</time>
      </trkpt>
      <trkpt lat="47.62768" lon="7.05078">
        <ele>342.7</ele>
        <time>2019-08-16T12:16:56Z</time>
      </trkpt>
      <trkpt lat="47.62766" lon="7.05073">
        <ele>342.7</ele>
        <time>2019-08-16T12:16:57Z</time>
      </trkpt>
      <trkpt lat="47.62763" lon="7.05069">
        <ele>342.8</ele>
        <time>2019-08-16T12:16:58Z</time>
      </trkpt>
      <trkpt lat="47.6276" lon="7.05066">
        <ele>342.8</ele>
        <time>2019-08-16T12:16:59Z</time>
      </trkpt>
      <trkpt lat="47.62757" lon="7.05059">
        <ele>343</ele>
        <time>2019-08-16T12:17:00Z</time>
      </trkpt>
      <trkpt lat="47.62755" lon="7.05055">
        <ele>343.1</ele>
        <time>2019-08-16T12:17:01Z</time>
      </trkpt>
      <trkpt lat="47.62753" lon="7.0505">
        <ele>343.2</ele>
        <time>2019-08-16T12:17:02Z</time>
      </trkpt>
      <trkpt lat="47.62751" lon="7.05046">
        <ele>343.3</ele>
        <time>2019-08-16T12:17:03Z</time>
      </trkpt>
      <trkpt lat="47.62749" lon="7.0504">
        <ele>343.4</ele>
        <time>2019-08-16T12:17:04Z</time>
      </trkpt>
      <trkpt lat="47.62745" lon="7.05035">
        <ele>343.6</ele>
        <time>2019-08-16T12:17:05Z</time>
      </trkpt>
      <trkpt lat="47.62743" lon="7.05031">
        <ele>343.7</ele>
        <time>2019-08-16T12:17:06Z</time>
      </trkpt>
      <trkpt lat="47.6274" lon="7.05026">
        <ele>343.9</ele>
        <time>2019-08-16T12:17:07Z</time>
      </trkpt>
      <trkpt lat="47.62737" lon="7.0502">
        <ele>344.1</ele>
        <time>2019-08-16T12:17:08Z</time>
      </trkpt>
      <trkpt lat="47.62733" lon="7.05014">
        <ele>344.2</ele>
        <time>2019-08-16T12:17:09Z</time>
      </trkpt>
      <trkpt lat="47.62731" lon="7.05009">
        <ele>344.4</ele>
        <time>2019-08-16T12:17:10Z</time>
      </trkpt>
      <trkpt lat="47.62729" lon="7.05005">
        <ele>344.5</ele>
        <time>2019-08-16T12:17:11Z</time>
      </trkpt>
      <trkpt lat="47.62727" lon="7.05">
        <ele>344.6</ele>
        <time>2019-08-16T12:17:12Z</time>
      </trkpt>
      <trkpt lat="47.62725" lon="7.04996">
        <ele>344.7</ele>
        <time>2019-08-16T12:17:13Z</time>
      </trkpt>
      <trkpt lat="47.62723" lon="7.0499">
        <ele>344.8</ele>
        <time>2019-08-16T12:17:14Z</time>
      </trkpt>
      <trkpt lat="47.6272" lon="7.04984">
        <ele>344.9</ele>
        <time>2019-08-16T12:17:15Z</time>
      </trkpt>
      <trkpt lat="47.62717" lon="7.04979">
        <ele>345</ele>
        <time>2019-08-16T12:17:16Z</time>
      </trkpt>
      <trkpt lat="47.62712" lon="7.04974">
        <ele>345.1</ele>
        <time>2019-08-16T12:17:17Z</time>
      </trkpt>
      <trkpt lat="47.62709" lon="7.0497">
        <ele>345.2</ele>
        <time>2019-08-16T12:17:18Z</time>
      </trkpt>
      <trkpt lat="47.62705" lon="7.04964">
        <ele>345.3</ele>
        <time>2019-08-16T12:17:19Z</time>
      </trkpt>
      <trkpt lat="47.62702" lon="7.0496">
        <ele>345.4</ele>
        <time>2019-08-16T12:17:20Z</time>
      </trkpt>
      <trkpt lat="47.62699" lon="7.04955">
        <ele>345.4</ele>
        <time>2019-08-16T12:17:21Z</time>
      </trkpt>
      <trkpt lat="47.62696" lon="7.04951">
        <ele>345.4</ele>
        <time>2019-08-16T12:17:22Z</time>
      </trkpt>
      <trkpt lat="47.62692" lon="7.04945">
        <ele>345.5</ele>
        <time>2019-08-16T12:17:23Z</time>
      </trkpt>
      <trkpt lat="47.62689" lon="7.0494">
        <ele>345.5</ele>
        <time>2019-08-16T12:17:24Z</time>
      </trkpt>
      <trkpt lat="47.62686" lon="7.04934">
        <ele>345.5</ele>
        <time>2019-08-16T12:17:25Z</time>
      </trkpt>
      <trkpt lat="47.62682" lon="7.04929">
        <ele>345.5</ele>
        <time>2019-08-16T12:17:26Z</time>
      </trkpt>
      <trkpt lat="47.62679" lon="7.04923">
        <ele>345.5</ele>
        <time>2019-08-16T12:17:27Z</time>
      </trkpt>
      <trkpt lat="47.62676" lon="7.04918">
        <ele>345.5</ele>
        <time>2019-08-16T12:17:28Z</time>
      </trkpt>
      <trkpt lat="47.62674" lon="7.04914">
        <ele>345.5</ele>
        <time>2019-08-16T12:17:29Z</time>
      </trkpt>
      <trkpt lat="47.62671" lon="7.04909">
        <ele>345.5</ele>
        <time>2019-08-16T12:17:30Z</time>
      </trkpt>
      <trkpt lat="47.62667" lon="7.04905">
        <ele>345.5</ele>
        <time>2019-08-16T12:17:31Z</time>
      </trkpt>
      <trkpt lat="47.62663" lon="7.04901">
        <ele>345.5</ele>
        <time>2019-08-16T12:17:32Z</time>
      </trkpt>
      <trkpt lat="47.62659" lon="7.04897">
        <ele>345.5</ele>
        <time>2019-08-16T12:17:33Z</time>
      </trkpt>
      <trkpt lat="47.62656" lon="7.04893">
        <ele>345.5</ele>
        <time>2019-08-16T12:17:34Z</time>
      </trkpt>
      <trkpt lat="47.62653" lon="7.04888">
        <ele>345.5</ele>
        <time>2019-08-16T12:17:35Z</time>
      </trkpt>
      <trkpt lat="47.62649" lon="7.04883">
        <ele>345.5</ele>
        <time>2019-08-16T12:17:36Z</time>
      </trkpt>
      <trkpt lat="47.62647" lon="7.04878">
        <ele>345.5</ele>
        <time>2019-08-16T12:17:37Z</time>
      </trkpt>
      <trkpt lat="47.62644" lon="7.04872">
        <ele>345.5</ele>
        <time>2019-08-16T12:17:38Z</time>
      </trkpt>
      <trkpt lat="47.62641" lon="7.04867">
        <ele>345.5</ele>
        <time>2019-08-16T12:17:39Z</time>
      </trkpt>
      <trkpt lat="47.62638" lon="7.04861">
        <ele>345.5</ele>
        <time>2019-08-16T12:17:40Z</time>
      </trkpt>
      <trkpt lat="47.62636" lon="7.04855">
        <ele>345.5</ele>
        <time>2019-08-16T12:17:41Z</time>
      </trkpt>
      <trkpt lat="47.62634" lon="7.0485">
        <ele>345.5</ele>
        <time>2019-08-16T12:17:42Z</time>
      </trkpt>
      <trkpt lat="47.62631" lon="7.04844">
        <ele>345.5</ele>
        <time>2019-08-16T12:17:43Z</time>
      </trkpt>
      <trkpt lat="47.62629" lon="7.04839">
        <ele>345.5</ele>
        <time>2019-08-16T12:17:44Z</time>
      </trkpt>
      <trkpt lat="47.62628" lon="7.04832">
        <ele>345.5</ele>
        <time>2019-08-16T12:17:45Z</time>
      </trkpt>
      <trkpt lat="47.62626" lon="7.04827">
        <ele>345.5</ele>
        <time>2019-08-16T12:17:46Z</time>
      </trkpt>
      <trkpt lat="47.62623" lon="7.04821">
        <ele>345.5</ele>
        <time>2019-08-16T12:17:47Z</time>
      </trkpt>
      <trkpt lat="47.6262" lon="7.04816">
        <ele>345.5</ele>
        <time>2019-08-16T12:17:48Z</time>
      </trkpt>
      <trkpt lat="47.62618" lon="7.04812">
        <ele>345.5</ele>
        <time>2019-08-16T12:17:49Z</time>
      </trkpt>
      <trkpt lat="47.62614" lon="7.04807">
        <ele>345.5</ele>
        <time>2019-08-16T12:17:50Z</time>
      </trkpt>
      <trkpt lat="47.62611" lon="7.04802">
        <ele>345.5</ele>
        <time>2019-08-16T12:17:51Z</time>
      </trkpt>
      <trkpt lat="47.62607" lon="7.04796">
        <ele>345.5</ele>
        <time>2019-08-16T12:17:52Z</time>
      </trkpt>
      <trkpt lat="47.62604" lon="7.0479">
        <ele>345.5</ele>
        <time>2019-08-16T12:17:53Z</time>
      </trkpt>
      <trkpt lat="47.62601" lon="7.04785">
        <ele>345.5</ele>
        <time>2019-08-16T12:17:54Z</time>
      </trkpt>
      <trkpt lat="47.62598" lon="7.04779">
        <ele>345.5</ele>
        <time>2019-08-16T12:17:55Z</time>
      </trkpt>
      <trkpt lat="47.62596" lon="7.04774">
        <ele>345.5</ele>
        <time>2019-08-16T12:17:56Z</time>
      </trkpt>
      <trkpt lat="47.62593" lon="7.04768">
        <ele>345.5</ele>
        <time>2019-08-16T12:17:57Z</time>
      </trkpt>
      <trkpt lat="47.62591" lon="7.04764">
        <ele>345.5</ele>
        <time>2019-08-16T12:17:58Z</time>
      </trkpt>
      <trkpt lat="47.62588" lon="7.04758">
        <ele>345.5</ele>
        <time>2019-08-16T12:17:59Z</time>
      </trkpt>
      <trkpt lat="47.62585" lon="7.04752">
        <ele>345.5</ele>
        <time>2019-08-16T12:18:00Z</time>
      </trkpt>
      <trkpt lat="47.62582" lon="7.04746">
        <ele>345.5</ele>
        <time>2019-08-16T12:18:01Z</time>
      </trkpt>
      <trkpt lat="47.62579" lon="7.04741">
        <ele>345.5</ele>
        <time>2019-08-16T12:18:02Z</time>
      </trkpt>
      <trkpt lat="47.62577" lon="7.04735">
        <ele>345.6</ele>
        <time>2019-08-16T12:18:03Z</time>
      </trkpt>
      <trkpt lat="47.62574" lon="7.0473">
        <ele>345.6</ele>
        <time>2019-08-16T12:18:04Z</time>
      </trkpt>
      <trkpt lat="47.6257" lon="7.04725">
        <ele>345.6</ele>
        <time>2019-08-16T12:18:05Z</time>
      </trkpt>
      <trkpt lat="47.62567" lon="7.0472">
        <ele>345.6</ele>
        <time>2019-08-16T12:18:06Z</time>
      </trkpt>
      <trkpt lat="47.62564" lon="7.04715">
        <ele>345.6</ele>
        <time>2019-08-16T12:18:07Z</time>
      </trkpt>
      <trkpt lat="47.62561" lon="7.04709">
        <ele>345.6</ele>
        <time>2019-08-16T12:18:08Z</time>
      </trkpt>
      <trkpt lat="47.62558" lon="7.04704">
        <ele>345.6</ele>
        <time>2019-08-16T12:18:09Z</time>
      </trkpt>
      <trkpt lat="47.62554" lon="7.04697">
        <ele>345.6</ele>
        <time>2019-08-16T12:18:10Z</time>
      </trkpt>
      <trkpt lat="47.62552" lon="7.04691">
        <ele>345.6</ele>
        <time>2019-08-16T12:18:11Z</time>
      </trkpt>
      <trkpt lat="47.62548" lon="7.04685">
        <ele>345.7</ele>
        <time>2019-08-16T12:18:12Z</time>
      </trkpt>
      <trkpt lat="47.62546" lon="7.04679">
        <ele>345.7</ele>
        <time>2019-08-16T12:18:13Z</time>
      </trkpt>
      <trkpt lat="47.62543" lon="7.04676">
        <ele>345.8</ele>
        <time>2019-08-16T12:18:14Z</time>
      </trkpt>
      <trkpt lat="47.62539" lon="7.0467">
        <ele>345.9</ele>
        <time>2019-08-16T12:18:15Z</time>
      </trkpt>
      <trkpt lat="47.62536" lon="7.04664">
        <ele>346</ele>
        <time>2019-08-16T12:18:16Z</time>
      </trkpt>
      <trkpt lat="47.62532" lon="7.04658">
        <ele>346.1</ele>
        <time>2019-08-16T12:18:17Z</time>
      </trkpt>
      <trkpt lat="47.6253" lon="7.04652">
        <ele>346.2</ele>
        <time>2019-08-16T12:18:18Z</time>
      </trkpt>
      <trkpt lat="47.62527" lon="7.04647">
        <ele>346.2</ele>
        <time>2019-08-16T12:18:19Z</time>
      </trkpt>
      <trkpt lat="47.62524" lon="7.04641">
        <ele>346.3</ele>
        <time>2019-08-16T12:18:20Z</time>
      </trkpt>
      <trkpt lat="47.62522" lon="7.04636">
        <ele>346.4</ele>
        <time>2019-08-16T12:18:21Z</time>
      </trkpt>
      <trkpt lat="47.62518" lon="7.04631">
        <ele>346.4</ele>
        <time>2019-08-16T12:18:22Z</time>
      </trkpt>
      <trkpt lat="47.62516" lon="7.04625">
        <ele>346.5</ele>
        <time>2019-08-16T12:18:23Z</time>
      </trkpt>
      <trkpt lat="47.62512" lon="7.0462">
        <ele>346.5</ele>
        <time>2019-08-16T12:18:24Z</time>
      </trkpt>
      <trkpt lat="47.62509" lon="7.04614">
        <ele>346.5</ele>
        <time>2019-08-16T12:18:25Z</time>
      </trkpt>
      <trkpt lat="47.62506" lon="7.04609">
        <ele>346.5</ele>
        <time>2019-08-16T12:18:26Z</time>
      </trkpt>
      <trkpt lat="47.62504" lon="7.04603">
        <ele>346.6</ele>
        <time>2019-08-16T12:18:27Z</time>
      </trkpt>
      <trkpt lat="47.62502" lon="7.04598">
        <ele>346.6</ele>
        <time>2019-08-16T12:18:28Z</time>
      </trkpt>
      <trkpt lat="47.625" lon="7.04594">
        <ele>346.6</ele>
        <time>2019-08-16T12:18:29Z</time>
      </trkpt>
      <trkpt lat="47.62498" lon="7.04588">
        <ele>346.6</ele>
        <time>2019-08-16T12:18:30Z</time>
      </trkpt>
      <trkpt lat="47.62495" lon="7.04582">
        <ele>346.6</ele>
        <time>2019-08-16T12:18:31Z</time>
      </trkpt>
      <trkpt lat="47.62492" lon="7.04576">
        <ele>346.6</ele>
        <time>2019-08-16T12:18:32Z</time>
      </trkpt>
      <trkpt lat="47.62488" lon="7.0457">
        <ele>346.6</ele>
        <time>2019-08-16T12:18:33Z</time>
      </trkpt>
      <trkpt lat="47.62485" lon="7.04566">
        <ele>346.6</ele>
        <time>2019-08-16T12:18:34Z</time>
      </trkpt>
      <trkpt lat="47.62482" lon="7.04562">
        <ele>346.6</ele>
        <time>2019-08-16T12:18:35Z</time>
      </trkpt>
      <trkpt lat="47.62479" lon="7.04557">
        <ele>346.6</ele>
        <time>2019-08-16T12:18:36Z</time>
      </trkpt>
      <trkpt lat="47.62476" lon="7.04552">
        <ele>346.6</ele>
        <time>2019-08-16T12:18:37Z</time>
      </trkpt>
      <trkpt lat="47.62473" lon="7.04547">
        <ele>346.6</ele>
        <time>2019-08-16T12:18:38Z</time>
      </trkpt>
      <trkpt lat="47.62471" lon="7.0454">
        <ele>346.6</ele>
        <time>2019-08-16T12:18:39Z</time>
      </trkpt>
      <trkpt lat="47.62469" lon="7.04534">
        <ele>346.6</ele>
        <time>2019-08-16T12:18:40Z</time>
      </trkpt>
      <trkpt lat="47.62466" lon="7.04529">
        <ele>346.6</ele>
        <time>2019-08-16T12:18:41Z</time>
      </trkpt>
      <trkpt lat="47.62464" lon="7.04524">
        <ele>346.6</ele>
        <time>2019-08-16T12:18:42Z</time>
      </trkpt>
      <trkpt lat="47.62461" lon="7.04518">
        <ele>346.6</ele>
        <time>2019-08-16T12:18:43Z</time>
      </trkpt>
      <trkpt lat="47.62458" lon="7.04513">
        <ele>346.6</ele>
        <time>2019-08-16T12:18:44Z</time>
      </trkpt>
      <trkpt lat="47.62455" lon="7.04508">
        <ele>346.6</ele>
        <time>2019-08-16T12:18:45Z</time>
      </trkpt>
      <trkpt lat="47.62452" lon="7.04502">
        <ele>346.6</ele>
        <time>2019-08-16T12:18:46Z</time>
      </trkpt>
      <trkpt lat="47.6245" lon="7.04498">
        <ele>346.6</ele>
        <time>2019-08-16T12:18:47Z</time>
      </trkpt>
      <trkpt lat="47.62446" lon="7.04492">
        <ele>346.6</ele>
        <time>2019-08-16T12:18:48Z</time>
      </trkpt>
      <trkpt lat="47.62443" lon="7.04488">
        <ele>346.6</ele>
        <time>2019-08-16T12:18:49Z</time>
      </trkpt>
      <trkpt lat="47.6244" lon="7.04483">
        <ele>346.6</ele>
        <time>2019-08-16T12:18:50Z</time>
      </trkpt>
      <trkpt lat="47.62437" lon="7.0448">
        <ele>346.6</ele>
        <time>2019-08-16T12:18:51Z</time>
      </trkpt>
      <trkpt lat="47.62435" lon="7.04476">
        <ele>346.6</ele>
        <time>2019-08-16T12:18:52Z</time>
      </trkpt>
      <trkpt lat="47.62432" lon="7.04472">
        <ele>346.6</ele>
        <time>2019-08-16T12:18:53Z</time>
      </trkpt>
      <trkpt lat="47.6243" lon="7.04468">
        <ele>346.6</ele>
        <time>2019-08-16T12:18:54Z</time>
      </trkpt>
      <trkpt lat="47.62428" lon="7.04465">
        <ele>346.6</ele>
        <time>2019-08-16T12:18:55Z</time>
      </trkpt>
      <trkpt lat="47.62426" lon="7.04463">
        <ele>346.6</ele>
        <time>2019-08-16T12:18:56Z</time>
      </trkpt>
      <trkpt lat="47.62423" lon="7.04461">
        <ele>346.6</ele>
        <time>2019-08-16T12:18:57Z</time>
      </trkpt>
      <trkpt lat="47.6242" lon="7.04459">
        <ele>346.6</ele>
        <time>2019-08-16T12:18:58Z</time>
      </trkpt>
      <trkpt lat="47.62418" lon="7.04457">
        <ele>346.6</ele>
        <time>2019-08-16T12:18:59Z</time>
      </trkpt>
      <trkpt lat="47.62415" lon="7.04455">
        <ele>346.6</ele>
        <time>2019-08-16T12:19:00Z</time>
      </trkpt>
      <trkpt lat="47.62412" lon="7.04452">
        <ele>346.6</ele>
        <time>2019-08-16T12:19:01Z</time>
      </trkpt>
      <trkpt lat="47.62409" lon="7.04449">
        <ele>346.6</ele>
        <time>2019-08-16T12:19:02Z</time>
      </trkpt>
      <trkpt lat="47.62406" lon="7.04447">
        <ele>346.6</ele>
        <time>2019-08-16T12:19:03Z</time>
      </trkpt>
      <trkpt lat="47.62403" lon="7.04445">
        <ele>346.6</ele>
        <time>2019-08-16T12:19:04Z</time>
      </trkpt>
      <trkpt lat="47.624" lon="7.04443">
        <ele>346.6</ele>
        <time>2019-08-16T12:19:05Z</time>
      </trkpt>
      <trkpt lat="47.62397" lon="7.04441">
        <ele>346.6</ele>
        <time>2019-08-16T12:19:09Z</time>
      </trkpt>
      <trkpt lat="47.62394" lon="7.04442">
        <ele>346.6</ele>
        <time>2019-08-16T12:19:14Z</time>
      </trkpt>
      <trkpt lat="47.62391" lon="7.04445">
        <ele>346.6</ele>
        <time>2019-08-16T12:19:17Z</time>
      </trkpt>
      <trkpt lat="47.62389" lon="7.04449">
        <ele>346.7</ele>
        <time>2019-08-16T12:19:19Z</time>
      </trkpt>
      <trkpt lat="47.62388" lon="7.04453">
        <ele>346.7</ele>
        <time>2019-08-16T12:19:21Z</time>
      </trkpt>
      <trkpt lat="47.62383" lon="7.04456">
        <ele>346.8</ele>
        <time>2019-08-16T12:19:23Z</time>
      </trkpt>
      <trkpt lat="47.6238" lon="7.04451">
        <ele>346.8</ele>
        <time>2019-08-16T12:19:25Z</time>
      </trkpt>
      <trkpt lat="47.62381" lon="7.04445">
        <ele>346.9</ele>
        <time>2019-08-16T12:19:27Z</time>
      </trkpt>
      <trkpt lat="47.62382" lon="7.04441">
        <ele>347</ele>
        <time>2019-08-16T12:19:29Z</time>
      </trkpt>
      <trkpt lat="47.62383" lon="7.04436">
        <ele>347.1</ele>
        <time>2019-08-16T12:19:31Z</time>
      </trkpt>
      <trkpt lat="47.62384" lon="7.0443">
        <ele>347.2</ele>
        <time>2019-08-16T12:19:33Z</time>
      </trkpt>
      <trkpt lat="47.62386" lon="7.04422">
        <ele>347.3</ele>
        <time>2019-08-16T12:19:35Z</time>
      </trkpt>
      <trkpt lat="47.62386" lon="7.04418">
        <ele>347.4</ele>
        <time>2019-08-16T12:19:36Z</time>
      </trkpt>
      <trkpt lat="47.62388" lon="7.04412">
        <ele>347.6</ele>
        <time>2019-08-16T12:19:38Z</time>
      </trkpt>
      <trkpt lat="47.62388" lon="7.04407">
        <ele>347.4</ele>
        <time>2019-08-16T12:19:39Z</time>
      </trkpt>
      <trkpt lat="47.62388" lon="7.04403">
        <ele>347.3</ele>
        <time>2019-08-16T12:19:40Z</time>
      </trkpt>
      <trkpt lat="47.62388" lon="7.04396">
        <ele>347.2</ele>
        <time>2019-08-16T12:19:41Z</time>
      </trkpt>
      <trkpt lat="47.62386" lon="7.04391">
        <ele>347</ele>
        <time>2019-08-16T12:19:42Z</time>
      </trkpt>
      <trkpt lat="47.62383" lon="7.04386">
        <ele>346.9</ele>
        <time>2019-08-16T12:19:43Z</time>
      </trkpt>
      <trkpt lat="47.62382" lon="7.04382">
        <ele>346.9</ele>
        <time>2019-08-16T12:19:44Z</time>
      </trkpt>
      <trkpt lat="47.62381" lon="7.04377">
        <ele>346.8</ele>
        <time>2019-08-16T12:19:45Z</time>
      </trkpt>
      <trkpt lat="47.62379" lon="7.04371">
        <ele>346.7</ele>
        <time>2019-08-16T12:19:46Z</time>
      </trkpt>
      <trkpt lat="47.62378" lon="7.04368">
        <ele>346.7</ele>
        <time>2019-08-16T12:19:47Z</time>
      </trkpt>
      <trkpt lat="47.62376" lon="7.04363">
        <ele>346.7</ele>
        <time>2019-08-16T12:19:48Z</time>
      </trkpt>
      <trkpt lat="47.62375" lon="7.04359">
        <ele>346.7</ele>
        <time>2019-08-16T12:19:49Z</time>
      </trkpt>
      <trkpt lat="47.62374" lon="7.04353">
        <ele>346.7</ele>
        <time>2019-08-16T12:19:50Z</time>
      </trkpt>
      <trkpt lat="47.62372" lon="7.04348">
        <ele>346.7</ele>
        <time>2019-08-16T12:19:51Z</time>
      </trkpt>
      <trkpt lat="47.6237" lon="7.04343">
        <ele>346.8</ele>
        <time>2019-08-16T12:19:52Z</time>
      </trkpt>
      <trkpt lat="47.62369" lon="7.04338">
        <ele>346.8</ele>
        <time>2019-08-16T12:19:53Z</time>
      </trkpt>
      <trkpt lat="47.62368" lon="7.04334">
        <ele>346.8</ele>
        <time>2019-08-16T12:19:54Z</time>
      </trkpt>
      <trkpt lat="47.62366" lon="7.0433">
        <ele>346.9</ele>
        <time>2019-08-16T12:19:55Z</time>
      </trkpt>
      <trkpt lat="47.62363" lon="7.04326">
        <ele>346.9</ele>
        <time>2019-08-16T12:19:56Z</time>
      </trkpt>
      <trkpt lat="47.62361" lon="7.04322">
        <ele>346.9</ele>
        <time>2019-08-16T12:19:57Z</time>
      </trkpt>
      <trkpt lat="47.62358" lon="7.04317">
        <ele>347</ele>
        <time>2019-08-16T12:19:58Z</time>
      </trkpt>
      <trkpt lat="47.62355" lon="7.04313">
        <ele>347</ele>
        <time>2019-08-16T12:19:59Z</time>
      </trkpt>
      <trkpt lat="47.62352" lon="7.04308">
        <ele>347</ele>
        <time>2019-08-16T12:20:00Z</time>
      </trkpt>
      <trkpt lat="47.62349" lon="7.04303">
        <ele>347</ele>
        <time>2019-08-16T12:20:01Z</time>
      </trkpt>
      <trkpt lat="47.62346" lon="7.043">
        <ele>347</ele>
        <time>2019-08-16T12:20:02Z</time>
      </trkpt>
      <trkpt lat="47.62343" lon="7.04295">
        <ele>346.9</ele>
        <time>2019-08-16T12:20:03Z</time>
      </trkpt>
      <trkpt lat="47.62341" lon="7.04292">
        <ele>346.9</ele>
        <time>2019-08-16T12:20:04Z</time>
      </trkpt>
      <trkpt lat="47.62339" lon="7.04287">
        <ele>346.9</ele>
        <time>2019-08-16T12:20:05Z</time>
      </trkpt>
      <trkpt lat="47.62336" lon="7.04282">
        <ele>346.8</ele>
        <time>2019-08-16T12:20:06Z</time>
      </trkpt>
      <trkpt lat="47.62333" lon="7.04277">
        <ele>346.8</ele>
        <time>2019-08-16T12:20:07Z</time>
      </trkpt>
      <trkpt lat="47.6233" lon="7.04273">
        <ele>346.7</ele>
        <time>2019-08-16T12:20:08Z</time>
      </trkpt>
      <trkpt lat="47.62327" lon="7.04268">
        <ele>346.7</ele>
        <time>2019-08-16T12:20:09Z</time>
      </trkpt>
      <trkpt lat="47.62324" lon="7.04264">
        <ele>346.6</ele>
        <time>2019-08-16T12:20:10Z</time>
      </trkpt>
      <trkpt lat="47.62322" lon="7.04258">
        <ele>346.6</ele>
        <time>2019-08-16T12:20:11Z</time>
      </trkpt>
      <trkpt lat="47.62319" lon="7.04253">
        <ele>346.6</ele>
        <time>2019-08-16T12:20:12Z</time>
      </trkpt>
      <trkpt lat="47.62316" lon="7.04247">
        <ele>346.6</ele>
        <time>2019-08-16T12:20:13Z</time>
      </trkpt>
      <trkpt lat="47.62313" lon="7.04241">
        <ele>346.6</ele>
        <time>2019-08-16T12:20:14Z</time>
      </trkpt>
      <trkpt lat="47.6231" lon="7.04237">
        <ele>346.6</ele>
        <time>2019-08-16T12:20:15Z</time>
      </trkpt>
      <trkpt lat="47.62308" lon="7.04234">
        <ele>346.6</ele>
        <time>2019-08-16T12:20:16Z</time>
      </trkpt>
      <trkpt lat="47.62305" lon="7.04227">
        <ele>346.6</ele>
        <time>2019-08-16T12:20:18Z</time>
      </trkpt>
      <trkpt lat="47.62302" lon="7.04222">
        <ele>346.6</ele>
        <time>2019-08-16T12:20:19Z</time>
      </trkpt>
      <trkpt lat="47.62299" lon="7.04217">
        <ele>346.6</ele>
        <time>2019-08-16T12:20:20Z</time>
      </trkpt>
      <trkpt lat="47.62297" lon="7.04211">
        <ele>346.6</ele>
        <time>2019-08-16T12:20:21Z</time>
      </trkpt>
      <trkpt lat="47.62295" lon="7.04205">
        <ele>346.6</ele>
        <time>2019-08-16T12:20:22Z</time>
      </trkpt>
      <trkpt lat="47.62293" lon="7.04199">
        <ele>346.6</ele>
        <time>2019-08-16T12:20:23Z</time>
      </trkpt>
      <trkpt lat="47.6229" lon="7.04194">
        <ele>346.6</ele>
        <time>2019-08-16T12:20:24Z</time>
      </trkpt>
      <trkpt lat="47.62288" lon="7.0419">
        <ele>346.6</ele>
        <time>2019-08-16T12:20:25Z</time>
      </trkpt>
      <trkpt lat="47.62285" lon="7.04184">
        <ele>346.6</ele>
        <time>2019-08-16T12:20:26Z</time>
      </trkpt>
      <trkpt lat="47.62283" lon="7.04179">
        <ele>346.6</ele>
        <time>2019-08-16T12:20:27Z</time>
      </trkpt>
      <trkpt lat="47.6228" lon="7.04173">
        <ele>346.5</ele>
        <time>2019-08-16T12:20:28Z</time>
      </trkpt>
      <trkpt lat="47.62278" lon="7.04169">
        <ele>346.5</ele>
        <time>2019-08-16T12:20:29Z</time>
      </trkpt>
      <trkpt lat="47.62275" lon="7.04164">
        <ele>346.5</ele>
        <time>2019-08-16T12:20:30Z</time>
      </trkpt>
      <trkpt lat="47.62272" lon="7.04159">
        <ele>346.5</ele>
        <time>2019-08-16T12:20:31Z</time>
      </trkpt>
      <trkpt lat="47.62269" lon="7.04154">
        <ele>346.5</ele>
        <time>2019-08-16T12:20:32Z</time>
      </trkpt>
      <trkpt lat="47.62266" lon="7.0415">
        <ele>346.5</ele>
        <time>2019-08-16T12:20:33Z</time>
      </trkpt>
      <trkpt lat="47.62264" lon="7.04145">
        <ele>346.5</ele>
        <time>2019-08-16T12:20:34Z</time>
      </trkpt>
      <trkpt lat="47.62261" lon="7.04139">
        <ele>346.5</ele>
        <time>2019-08-16T12:20:35Z</time>
      </trkpt>
      <trkpt lat="47.62258" lon="7.04134">
        <ele>346.5</ele>
        <time>2019-08-16T12:20:36Z</time>
      </trkpt>
      <trkpt lat="47.62254" lon="7.04128">
        <ele>346.5</ele>
        <time>2019-08-16T12:20:37Z</time>
      </trkpt>
      <trkpt lat="47.62251" lon="7.04124">
        <ele>346.5</ele>
        <time>2019-08-16T12:20:38Z</time>
      </trkpt>
      <trkpt lat="47.62248" lon="7.04119">
        <ele>346.5</ele>
        <time>2019-08-16T12:20:39Z</time>
      </trkpt>
      <trkpt lat="47.62244" lon="7.04113">
        <ele>346.5</ele>
        <time>2019-08-16T12:20:40Z</time>
      </trkpt>
      <trkpt lat="47.62241" lon="7.04108">
        <ele>346.5</ele>
        <time>2019-08-16T12:20:41Z</time>
      </trkpt>
      <trkpt lat="47.62238" lon="7.04102">
        <ele>346.5</ele>
        <time>2019-08-16T12:20:42Z</time>
      </trkpt>
      <trkpt lat="47.62234" lon="7.04096">
        <ele>346.5</ele>
        <time>2019-08-16T12:20:43Z</time>
      </trkpt>
      <trkpt lat="47.62231" lon="7.04091">
        <ele>346.4</ele>
        <time>2019-08-16T12:20:44Z</time>
      </trkpt>
      <trkpt lat="47.62227" lon="7.04086">
        <ele>346.4</ele>
        <time>2019-08-16T12:20:45Z</time>
      </trkpt>
      <trkpt lat="47.62222" lon="7.04082">
        <ele>346.3</ele>
        <time>2019-08-16T12:20:46Z</time>
      </trkpt>
      <trkpt lat="47.62219" lon="7.04078">
        <ele>346.2</ele>
        <time>2019-08-16T12:20:47Z</time>
      </trkpt>
      <trkpt lat="47.62216" lon="7.04073">
        <ele>346.2</ele>
        <time>2019-08-16T12:20:48Z</time>
      </trkpt>
      <trkpt lat="47.62212" lon="7.04068">
        <ele>346.1</ele>
        <time>2019-08-16T12:20:49Z</time>
      </trkpt>
      <trkpt lat="47.62209" lon="7.04062">
        <ele>346</ele>
        <time>2019-08-16T12:20:50Z</time>
      </trkpt>
      <trkpt lat="47.62205" lon="7.04056">
        <ele>345.9</ele>
        <time>2019-08-16T12:20:51Z</time>
      </trkpt>
      <trkpt lat="47.62203" lon="7.04051">
        <ele>345.8</ele>
        <time>2019-08-16T12:20:52Z</time>
      </trkpt>
      <trkpt lat="47.622" lon="7.04046">
        <ele>345.7</ele>
        <time>2019-08-16T12:20:53Z</time>
      </trkpt>
      <trkpt lat="47.62196" lon="7.04041">
        <ele>345.7</ele>
        <time>2019-08-16T12:20:54Z</time>
      </trkpt>
      <trkpt lat="47.62193" lon="7.04036">
        <ele>345.6</ele>
        <time>2019-08-16T12:20:55Z</time>
      </trkpt>
      <trkpt lat="47.6219" lon="7.04031">
        <ele>345.6</ele>
        <time>2019-08-16T12:20:56Z</time>
      </trkpt>
      <trkpt lat="47.62188" lon="7.04024">
        <ele>345.6</ele>
        <time>2019-08-16T12:20:57Z</time>
      </trkpt>
      <trkpt lat="47.62185" lon="7.04019">
        <ele>345.6</ele>
        <time>2019-08-16T12:20:58Z</time>
      </trkpt>
      <trkpt lat="47.62182" lon="7.04012">
        <ele>345.6</ele>
        <time>2019-08-16T12:20:59Z</time>
      </trkpt>
      <trkpt lat="47.62178" lon="7.04008">
        <ele>345.5</ele>
        <time>2019-08-16T12:21:00Z</time>
      </trkpt>
      <trkpt lat="47.62175" lon="7.04002">
        <ele>345.5</ele>
        <time>2019-08-16T12:21:01Z</time>
      </trkpt>
      <trkpt lat="47.62172" lon="7.03997">
        <ele>345.5</ele>
        <time>2019-08-16T12:21:02Z</time>
      </trkpt>
      <trkpt lat="47.62169" lon="7.03992">
        <ele>345.5</ele>
        <time>2019-08-16T12:21:03Z</time>
      </trkpt>
      <trkpt lat="47.62167" lon="7.03987">
        <ele>345.5</ele>
        <time>2019-08-16T12:21:04Z</time>
      </trkpt>
      <trkpt lat="47.62165" lon="7.03983">
        <ele>345.5</ele>
        <time>2019-08-16T12:21:05Z</time>
      </trkpt>
      <trkpt lat="47.62163" lon="7.03979">
        <ele>345.5</ele>
        <time>2019-08-16T12:21:06Z</time>
      </trkpt>
      <trkpt lat="47.62161" lon="7.03974">
        <ele>345.5</ele>
        <time>2019-08-16T12:21:07Z</time>
      </trkpt>
      <trkpt lat="47.62158" lon="7.0397">
        <ele>345.5</ele>
        <time>2019-08-16T12:21:08Z</time>
      </trkpt>
      <trkpt lat="47.62154" lon="7.03966">
        <ele>345.5</ele>
        <time>2019-08-16T12:21:09Z</time>
      </trkpt>
      <trkpt lat="47.62152" lon="7.03961">
        <ele>345.5</ele>
        <time>2019-08-16T12:21:10Z</time>
      </trkpt>
      <trkpt lat="47.62149" lon="7.03957">
        <ele>345.5</ele>
        <time>2019-08-16T12:21:11Z</time>
      </trkpt>
      <trkpt lat="47.62147" lon="7.03951">
        <ele>345.5</ele>
        <time>2019-08-16T12:21:12Z</time>
      </trkpt>
      <trkpt lat="47.62143" lon="7.03946">
        <ele>345.5</ele>
        <time>2019-08-16T12:21:13Z</time>
      </trkpt>
      <trkpt lat="47.6214" lon="7.0394">
        <ele>345.5</ele>
        <time>2019-08-16T12:21:14Z</time>
      </trkpt>
      <trkpt lat="47.62137" lon="7.03935">
        <ele>345.5</ele>
        <time>2019-08-16T12:21:15Z</time>
      </trkpt>
      <trkpt lat="47.62134" lon="7.03929">
        <ele>345.5</ele>
        <time>2019-08-16T12:21:16Z</time>
      </trkpt>
      <trkpt lat="47.6213" lon="7.03923">
        <ele>345.5</ele>
        <time>2019-08-16T12:21:17Z</time>
      </trkpt>
      <trkpt lat="47.62127" lon="7.03917">
        <ele>345.5</ele>
        <time>2019-08-16T12:21:18Z</time>
      </trkpt>
      <trkpt lat="47.62123" lon="7.03911">
        <ele>345.5</ele>
        <time>2019-08-16T12:21:19Z</time>
      </trkpt>
      <trkpt lat="47.62119" lon="7.03905">
        <ele>345.5</ele>
        <time>2019-08-16T12:21:20Z</time>
      </trkpt>
      <trkpt lat="47.62116" lon="7.03899">
        <ele>345.5</ele>
        <time>2019-08-16T12:21:21Z</time>
      </trkpt>
      <trkpt lat="47.62113" lon="7.03893">
        <ele>345.5</ele>
        <time>2019-08-16T12:21:22Z</time>
      </trkpt>
      <trkpt lat="47.6211" lon="7.03888">
        <ele>345.5</ele>
        <time>2019-08-16T12:21:23Z</time>
      </trkpt>
      <trkpt lat="47.62107" lon="7.03884">
        <ele>345.5</ele>
        <time>2019-08-16T12:21:24Z</time>
      </trkpt>
      <trkpt lat="47.62103" lon="7.0388">
        <ele>345.5</ele>
        <time>2019-08-16T12:21:25Z</time>
      </trkpt>
      <trkpt lat="47.62101" lon="7.03876">
        <ele>345.5</ele>
        <time>2019-08-16T12:21:26Z</time>
      </trkpt>
      <trkpt lat="47.62097" lon="7.0387">
        <ele>345.5</ele>
        <time>2019-08-16T12:21:27Z</time>
      </trkpt>
      <trkpt lat="47.62094" lon="7.03865">
        <ele>345.5</ele>
        <time>2019-08-16T12:21:28Z</time>
      </trkpt>
      <trkpt lat="47.6209" lon="7.03859">
        <ele>345.5</ele>
        <time>2019-08-16T12:21:29Z</time>
      </trkpt>
      <trkpt lat="47.62087" lon="7.03853">
        <ele>345.5</ele>
        <time>2019-08-16T12:21:30Z</time>
      </trkpt>
      <trkpt lat="47.62084" lon="7.03848">
        <ele>345.5</ele>
        <time>2019-08-16T12:21:31Z</time>
      </trkpt>
      <trkpt lat="47.62081" lon="7.03843">
        <ele>345.5</ele>
        <time>2019-08-16T12:21:32Z</time>
      </trkpt>
      <trkpt lat="47.62078" lon="7.03837">
        <ele>345.5</ele>
        <time>2019-08-16T12:21:33Z</time>
      </trkpt>
      <trkpt lat="47.62075" lon="7.03832">
        <ele>345.5</ele>
        <time>2019-08-16T12:21:34Z</time>
      </trkpt>
      <trkpt lat="47.62072" lon="7.03826">
        <ele>345.5</ele>
        <time>2019-08-16T12:21:35Z</time>
      </trkpt>
      <trkpt lat="47.62069" lon="7.0382">
        <ele>345.5</ele>
        <time>2019-08-16T12:21:36Z</time>
      </trkpt>
      <trkpt lat="47.62066" lon="7.03815">
        <ele>345.5</ele>
        <time>2019-08-16T12:21:37Z</time>
      </trkpt>
      <trkpt lat="47.62063" lon="7.0381">
        <ele>345.5</ele>
        <time>2019-08-16T12:21:38Z</time>
      </trkpt>
      <trkpt lat="47.62061" lon="7.03805">
        <ele>345.5</ele>
        <time>2019-08-16T12:21:39Z</time>
      </trkpt>
      <trkpt lat="47.62059" lon="7.038">
        <ele>345.5</ele>
        <time>2019-08-16T12:21:40Z</time>
      </trkpt>
      <trkpt lat="47.62056" lon="7.03796">
        <ele>345.5</ele>
        <time>2019-08-16T12:21:41Z</time>
      </trkpt>
      <trkpt lat="47.62054" lon="7.0379">
        <ele>345.4</ele>
        <time>2019-08-16T12:21:42Z</time>
      </trkpt>
      <trkpt lat="47.62051" lon="7.03786">
        <ele>345.4</ele>
        <time>2019-08-16T12:21:43Z</time>
      </trkpt>
      <trkpt lat="47.62048" lon="7.03781">
        <ele>345.3</ele>
        <time>2019-08-16T12:21:44Z</time>
      </trkpt>
      <trkpt lat="47.62046" lon="7.03776">
        <ele>345.2</ele>
        <time>2019-08-16T12:21:45Z</time>
      </trkpt>
      <trkpt lat="47.62043" lon="7.0377">
        <ele>345.1</ele>
        <time>2019-08-16T12:21:46Z</time>
      </trkpt>
      <trkpt lat="47.62039" lon="7.03764">
        <ele>345</ele>
        <time>2019-08-16T12:21:47Z</time>
      </trkpt>
      <trkpt lat="47.62035" lon="7.03759">
        <ele>344.9</ele>
        <time>2019-08-16T12:21:48Z</time>
      </trkpt>
      <trkpt lat="47.62031" lon="7.03753">
        <ele>344.8</ele>
        <time>2019-08-16T12:21:49Z</time>
      </trkpt>
      <trkpt lat="47.62028" lon="7.03747">
        <ele>344.7</ele>
        <time>2019-08-16T12:21:50Z</time>
      </trkpt>
      <trkpt lat="47.62025" lon="7.0374">
        <ele>344.7</ele>
        <time>2019-08-16T12:21:51Z</time>
      </trkpt>
      <trkpt lat="47.62023" lon="7.03734">
        <ele>344.6</ele>
        <time>2019-08-16T12:21:52Z</time>
      </trkpt>
      <trkpt lat="47.6202" lon="7.03728">
        <ele>344.6</ele>
        <time>2019-08-16T12:21:53Z</time>
      </trkpt>
      <trkpt lat="47.62018" lon="7.03723">
        <ele>344.6</ele>
        <time>2019-08-16T12:21:54Z</time>
      </trkpt>
      <trkpt lat="47.62016" lon="7.03719">
        <ele>344.5</ele>
        <time>2019-08-16T12:21:55Z</time>
      </trkpt>
      <trkpt lat="47.62013" lon="7.03715">
        <ele>344.5</ele>
        <time>2019-08-16T12:21:56Z</time>
      </trkpt>
      <trkpt lat="47.6201" lon="7.03711">
        <ele>344.5</ele>
        <time>2019-08-16T12:21:57Z</time>
      </trkpt>
      <trkpt lat="47.62007" lon="7.03705">
        <ele>344.4</ele>
        <time>2019-08-16T12:21:58Z</time>
      </trkpt>
      <trkpt lat="47.62004" lon="7.03699">
        <ele>344.4</ele>
        <time>2019-08-16T12:21:59Z</time>
      </trkpt>
      <trkpt lat="47.62" lon="7.03694">
        <ele>344.3</ele>
        <time>2019-08-16T12:22:00Z</time>
      </trkpt>
      <trkpt lat="47.61997" lon="7.03688">
        <ele>344.3</ele>
        <time>2019-08-16T12:22:01Z</time>
      </trkpt>
      <trkpt lat="47.61994" lon="7.03682">
        <ele>344.3</ele>
        <time>2019-08-16T12:22:02Z</time>
      </trkpt>
      <trkpt lat="47.61991" lon="7.03676">
        <ele>344.3</ele>
        <time>2019-08-16T12:22:03Z</time>
      </trkpt>
      <trkpt lat="47.61988" lon="7.03669">
        <ele>344.3</ele>
        <time>2019-08-16T12:22:04Z</time>
      </trkpt>
      <trkpt lat="47.61985" lon="7.03663">
        <ele>344.3</ele>
        <time>2019-08-16T12:22:05Z</time>
      </trkpt>
      <trkpt lat="47.61983" lon="7.03657">
        <ele>344.3</ele>
        <time>2019-08-16T12:22:06Z</time>
      </trkpt>
      <trkpt lat="47.6198" lon="7.03651">
        <ele>344.3</ele>
        <time>2019-08-16T12:22:07Z</time>
      </trkpt>
      <trkpt lat="47.61976" lon="7.03647">
        <ele>344.3</ele>
        <time>2019-08-16T12:22:08Z</time>
      </trkpt>
      <trkpt lat="47.61973" lon="7.03642">
        <ele>344.3</ele>
        <time>2019-08-16T12:22:09Z</time>
      </trkpt>
      <trkpt lat="47.61969" lon="7.03637">
        <ele>344.3</ele>
        <time>2019-08-16T12:22:10Z</time>
      </trkpt>
      <trkpt lat="47.61966" lon="7.03631">
        <ele>344.3</ele>
        <time>2019-08-16T12:22:11Z</time>
      </trkpt>
      <trkpt lat="47.61963" lon="7.03626">
        <ele>344.3</ele>
        <time>2019-08-16T12:22:12Z</time>
      </trkpt>
      <trkpt lat="47.61961" lon="7.03622">
        <ele>344.3</ele>
        <time>2019-08-16T12:22:13Z</time>
      </trkpt>
      <trkpt lat="47.61958" lon="7.03617">
        <ele>344.2</ele>
        <time>2019-08-16T12:22:14Z</time>
      </trkpt>
      <trkpt lat="47.61956" lon="7.03612">
        <ele>344.2</ele>
        <time>2019-08-16T12:22:15Z</time>
      </trkpt>
      <trkpt lat="47.61953" lon="7.03607">
        <ele>344.2</ele>
        <time>2019-08-16T12:22:16Z</time>
      </trkpt>
      <trkpt lat="47.6195" lon="7.03602">
        <ele>344.2</ele>
        <time>2019-08-16T12:22:17Z</time>
      </trkpt>
      <trkpt lat="47.61948" lon="7.03597">
        <ele>344.2</ele>
        <time>2019-08-16T12:22:18Z</time>
      </trkpt>
      <trkpt lat="47.61945" lon="7.03591">
        <ele>344.1</ele>
        <time>2019-08-16T12:22:19Z</time>
      </trkpt>
      <trkpt lat="47.61942" lon="7.03586">
        <ele>344.1</ele>
        <time>2019-08-16T12:22:20Z</time>
      </trkpt>
      <trkpt lat="47.6194" lon="7.0358">
        <ele>344.1</ele>
        <time>2019-08-16T12:22:21Z</time>
      </trkpt>
      <trkpt lat="47.61938" lon="7.03574">
        <ele>344.1</ele>
        <time>2019-08-16T12:22:22Z</time>
      </trkpt>
      <trkpt lat="47.61935" lon="7.03568">
        <ele>344.1</ele>
        <time>2019-08-16T12:22:23Z</time>
      </trkpt>
      <trkpt lat="47.61933" lon="7.03564">
        <ele>344.1</ele>
        <time>2019-08-16T12:22:24Z</time>
      </trkpt>
      <trkpt lat="47.6193" lon="7.03558">
        <ele>344.1</ele>
        <time>2019-08-16T12:22:25Z</time>
      </trkpt>
      <trkpt lat="47.61927" lon="7.03553">
        <ele>344.1</ele>
        <time>2019-08-16T12:22:26Z</time>
      </trkpt>
      <trkpt lat="47.61924" lon="7.03549">
        <ele>344.1</ele>
        <time>2019-08-16T12:22:27Z</time>
      </trkpt>
      <trkpt lat="47.61921" lon="7.03544">
        <ele>344.1</ele>
        <time>2019-08-16T12:22:28Z</time>
      </trkpt>
      <trkpt lat="47.61918" lon="7.03538">
        <ele>344.1</ele>
        <time>2019-08-16T12:22:29Z</time>
      </trkpt>
      <trkpt lat="47.61916" lon="7.03532">
        <ele>344.2</ele>
        <time>2019-08-16T12:22:30Z</time>
      </trkpt>
      <trkpt lat="47.61912" lon="7.03527">
        <ele>344</ele>
        <time>2019-08-16T12:22:31Z</time>
      </trkpt>
      <trkpt lat="47.61909" lon="7.03521">
        <ele>343.9</ele>
        <time>2019-08-16T12:22:32Z</time>
      </trkpt>
      <trkpt lat="47.61906" lon="7.03516">
        <ele>343.9</ele>
        <time>2019-08-16T12:22:33Z</time>
      </trkpt>
      <trkpt lat="47.61903" lon="7.03512">
        <ele>343.9</ele>
        <time>2019-08-16T12:22:34Z</time>
      </trkpt>
      <trkpt lat="47.61901" lon="7.03507">
        <ele>343.9</ele>
        <time>2019-08-16T12:22:35Z</time>
      </trkpt>
      <trkpt lat="47.61898" lon="7.03503">
        <ele>343.9</ele>
        <time>2019-08-16T12:22:36Z</time>
      </trkpt>
      <trkpt lat="47.61896" lon="7.035">
        <ele>344</ele>
        <time>2019-08-16T12:22:37Z</time>
      </trkpt>
      <trkpt lat="47.61893" lon="7.03496">
        <ele>344.1</ele>
        <time>2019-08-16T12:22:38Z</time>
      </trkpt>
      <trkpt lat="47.61891" lon="7.03492">
        <ele>344.2</ele>
        <time>2019-08-16T12:22:39Z</time>
      </trkpt>
      <trkpt lat="47.61888" lon="7.03487">
        <ele>344.3</ele>
        <time>2019-08-16T12:22:40Z</time>
      </trkpt>
      <trkpt lat="47.61886" lon="7.03483">
        <ele>344.4</ele>
        <time>2019-08-16T12:22:41Z</time>
      </trkpt>
      <trkpt lat="47.61883" lon="7.03477">
        <ele>344.5</ele>
        <time>2019-08-16T12:22:42Z</time>
      </trkpt>
      <trkpt lat="47.6188" lon="7.03472">
        <ele>344.5</ele>
        <time>2019-08-16T12:22:43Z</time>
      </trkpt>
      <trkpt lat="47.61877" lon="7.03468">
        <ele>344.5</ele>
        <time>2019-08-16T12:22:44Z</time>
      </trkpt>
      <trkpt lat="47.61873" lon="7.03463">
        <ele>344.5</ele>
        <time>2019-08-16T12:22:45Z</time>
      </trkpt>
      <trkpt lat="47.6187" lon="7.03457">
        <ele>344.3</ele>
        <time>2019-08-16T12:22:46Z</time>
      </trkpt>
      <trkpt lat="47.61867" lon="7.03452">
        <ele>344.2</ele>
        <time>2019-08-16T12:22:47Z</time>
      </trkpt>
      <trkpt lat="47.61864" lon="7.03445">
        <ele>344</ele>
        <time>2019-08-16T12:22:48Z</time>
      </trkpt>
      <trkpt lat="47.61861" lon="7.0344">
        <ele>343.9</ele>
        <time>2019-08-16T12:22:49Z</time>
      </trkpt>
      <trkpt lat="47.61858" lon="7.03435">
        <ele>343.9</ele>
        <time>2019-08-16T12:22:50Z</time>
      </trkpt>
      <trkpt lat="47.61855" lon="7.03429">
        <ele>343.9</ele>
        <time>2019-08-16T12:22:51Z</time>
      </trkpt>
      <trkpt lat="47.61852" lon="7.03425">
        <ele>343.8</ele>
        <time>2019-08-16T12:22:52Z</time>
      </trkpt>
      <trkpt lat="47.6185" lon="7.0342">
        <ele>343.8</ele>
        <time>2019-08-16T12:22:53Z</time>
      </trkpt>
      <trkpt lat="47.61848" lon="7.03415">
        <ele>343.7</ele>
        <time>2019-08-16T12:22:54Z</time>
      </trkpt>
      <trkpt lat="47.61845" lon="7.03411">
        <ele>343.7</ele>
        <time>2019-08-16T12:22:55Z</time>
      </trkpt>
      <trkpt lat="47.61843" lon="7.03406">
        <ele>343.7</ele>
        <time>2019-08-16T12:22:56Z</time>
      </trkpt>
      <trkpt lat="47.6184" lon="7.03401">
        <ele>343.7</ele>
        <time>2019-08-16T12:22:57Z</time>
      </trkpt>
      <trkpt lat="47.61836" lon="7.03396">
        <ele>343.7</ele>
        <time>2019-08-16T12:22:58Z</time>
      </trkpt>
      <trkpt lat="47.61833" lon="7.03391">
        <ele>343.7</ele>
        <time>2019-08-16T12:22:59Z</time>
      </trkpt>
      <trkpt lat="47.61829" lon="7.03385">
        <ele>343.7</ele>
        <time>2019-08-16T12:23:00Z</time>
      </trkpt>
      <trkpt lat="47.61825" lon="7.03379">
        <ele>343.7</ele>
        <time>2019-08-16T12:23:01Z</time>
      </trkpt>
      <trkpt lat="47.61822" lon="7.03374">
        <ele>343.7</ele>
        <time>2019-08-16T12:23:02Z</time>
      </trkpt>
      <trkpt lat="47.61819" lon="7.03369">
        <ele>343.6</ele>
        <time>2019-08-16T12:23:03Z</time>
      </trkpt>
      <trkpt lat="47.61816" lon="7.03363">
        <ele>343.6</ele>
        <time>2019-08-16T12:23:04Z</time>
      </trkpt>
      <trkpt lat="47.61813" lon="7.03357">
        <ele>343.6</ele>
        <time>2019-08-16T12:23:05Z</time>
      </trkpt>
      <trkpt lat="47.6181" lon="7.03352">
        <ele>343.6</ele>
        <time>2019-08-16T12:23:06Z</time>
      </trkpt>
      <trkpt lat="47.61807" lon="7.03347">
        <ele>343.5</ele>
        <time>2019-08-16T12:23:07Z</time>
      </trkpt>
      <trkpt lat="47.61803" lon="7.03343">
        <ele>343.5</ele>
        <time>2019-08-16T12:23:08Z</time>
      </trkpt>
      <trkpt lat="47.618" lon="7.03338">
        <ele>343.5</ele>
        <time>2019-08-16T12:23:09Z</time>
      </trkpt>
      <trkpt lat="47.61797" lon="7.03333">
        <ele>343.4</ele>
        <time>2019-08-16T12:23:10Z</time>
      </trkpt>
      <trkpt lat="47.61794" lon="7.03326">
        <ele>343.4</ele>
        <time>2019-08-16T12:23:11Z</time>
      </trkpt>
      <trkpt lat="47.61791" lon="7.03321">
        <ele>343.4</ele>
        <time>2019-08-16T12:23:12Z</time>
      </trkpt>
      <trkpt lat="47.61788" lon="7.03315">
        <ele>343.4</ele>
        <time>2019-08-16T12:23:13Z</time>
      </trkpt>
      <trkpt lat="47.61786" lon="7.0331">
        <ele>343.4</ele>
        <time>2019-08-16T12:23:14Z</time>
      </trkpt>
      <trkpt lat="47.61783" lon="7.03305">
        <ele>343.4</ele>
        <time>2019-08-16T12:23:15Z</time>
      </trkpt>
      <trkpt lat="47.6178" lon="7.03299">
        <ele>343.4</ele>
        <time>2019-08-16T12:23:16Z</time>
      </trkpt>
      <trkpt lat="47.61777" lon="7.03294">
        <ele>343.4</ele>
        <time>2019-08-16T12:23:17Z</time>
      </trkpt>
      <trkpt lat="47.61774" lon="7.03288">
        <ele>343.4</ele>
        <time>2019-08-16T12:23:18Z</time>
      </trkpt>
      <trkpt lat="47.6177" lon="7.03281">
        <ele>343.4</ele>
        <time>2019-08-16T12:23:19Z</time>
      </trkpt>
      <trkpt lat="47.61767" lon="7.03275">
        <ele>343.5</ele>
        <time>2019-08-16T12:23:20Z</time>
      </trkpt>
      <trkpt lat="47.61763" lon="7.03268">
        <ele>343.5</ele>
        <time>2019-08-16T12:23:21Z</time>
      </trkpt>
      <trkpt lat="47.61759" lon="7.03262">
        <ele>343.5</ele>
        <time>2019-08-16T12:23:22Z</time>
      </trkpt>
      <trkpt lat="47.61756" lon="7.03257">
        <ele>343.6</ele>
        <time>2019-08-16T12:23:23Z</time>
      </trkpt>
      <trkpt lat="47.61752" lon="7.03251">
        <ele>343.6</ele>
        <time>2019-08-16T12:23:24Z</time>
      </trkpt>
      <trkpt lat="47.61749" lon="7.03245">
        <ele>343.6</ele>
        <time>2019-08-16T12:23:25Z</time>
      </trkpt>
      <trkpt lat="47.61747" lon="7.03239">
        <ele>343.6</ele>
        <time>2019-08-16T12:23:26Z</time>
      </trkpt>
      <trkpt lat="47.61744" lon="7.03233">
        <ele>343.6</ele>
        <time>2019-08-16T12:23:27Z</time>
      </trkpt>
      <trkpt lat="47.61741" lon="7.03228">
        <ele>343.5</ele>
        <time>2019-08-16T12:23:28Z</time>
      </trkpt>
      <trkpt lat="47.61738" lon="7.03222">
        <ele>343.5</ele>
        <time>2019-08-16T12:23:29Z</time>
      </trkpt>
      <trkpt lat="47.61734" lon="7.03216">
        <ele>343.5</ele>
        <time>2019-08-16T12:23:30Z</time>
      </trkpt>
      <trkpt lat="47.61731" lon="7.03211">
        <ele>343.5</ele>
        <time>2019-08-16T12:23:31Z</time>
      </trkpt>
      <trkpt lat="47.61728" lon="7.03204">
        <ele>343.5</ele>
        <time>2019-08-16T12:23:32Z</time>
      </trkpt>
      <trkpt lat="47.61724" lon="7.03198">
        <ele>343.5</ele>
        <time>2019-08-16T12:23:33Z</time>
      </trkpt>
      <trkpt lat="47.61721" lon="7.03192">
        <ele>343.5</ele>
        <time>2019-08-16T12:23:34Z</time>
      </trkpt>
      <trkpt lat="47.61718" lon="7.03185">
        <ele>343.6</ele>
        <time>2019-08-16T12:23:35Z</time>
      </trkpt>
      <trkpt lat="47.61714" lon="7.03178">
        <ele>343.6</ele>
        <time>2019-08-16T12:23:36Z</time>
      </trkpt>
      <trkpt lat="47.61712" lon="7.03173">
        <ele>343.7</ele>
        <time>2019-08-16T12:23:37Z</time>
      </trkpt>
      <trkpt lat="47.61709" lon="7.03168">
        <ele>343.7</ele>
        <time>2019-08-16T12:23:38Z</time>
      </trkpt>
      <trkpt lat="47.61706" lon="7.03162">
        <ele>343.8</ele>
        <time>2019-08-16T12:23:39Z</time>
      </trkpt>
      <trkpt lat="47.61704" lon="7.03158">
        <ele>343.8</ele>
        <time>2019-08-16T12:23:40Z</time>
      </trkpt>
      <trkpt lat="47.61702" lon="7.03153">
        <ele>343.8</ele>
        <time>2019-08-16T12:23:41Z</time>
      </trkpt>
      <trkpt lat="47.617" lon="7.03148">
        <ele>343.9</ele>
        <time>2019-08-16T12:23:42Z</time>
      </trkpt>
      <trkpt lat="47.61697" lon="7.03142">
        <ele>343.9</ele>
        <time>2019-08-16T12:23:43Z</time>
      </trkpt>
      <trkpt lat="47.61694" lon="7.03138">
        <ele>343.9</ele>
        <time>2019-08-16T12:23:44Z</time>
      </trkpt>
      <trkpt lat="47.61691" lon="7.03133">
        <ele>343.9</ele>
        <time>2019-08-16T12:23:45Z</time>
      </trkpt>
      <trkpt lat="47.61688" lon="7.03129">
        <ele>343.9</ele>
        <time>2019-08-16T12:23:46Z</time>
      </trkpt>
      <trkpt lat="47.61685" lon="7.03125">
        <ele>343.8</ele>
        <time>2019-08-16T12:23:47Z</time>
      </trkpt>
      <trkpt lat="47.61682" lon="7.03119">
        <ele>343.8</ele>
        <time>2019-08-16T12:23:48Z</time>
      </trkpt>
      <trkpt lat="47.6168" lon="7.03113">
        <ele>343.8</ele>
        <time>2019-08-16T12:23:49Z</time>
      </trkpt>
      <trkpt lat="47.61676" lon="7.03107">
        <ele>343.8</ele>
        <time>2019-08-16T12:23:50Z</time>
      </trkpt>
      <trkpt lat="47.61673" lon="7.03101">
        <ele>343.7</ele>
        <time>2019-08-16T12:23:51Z</time>
      </trkpt>
      <trkpt lat="47.6167" lon="7.03096">
        <ele>343.7</ele>
        <time>2019-08-16T12:23:52Z</time>
      </trkpt>
      <trkpt lat="47.61667" lon="7.0309">
        <ele>343.7</ele>
        <time>2019-08-16T12:23:53Z</time>
      </trkpt>
      <trkpt lat="47.61664" lon="7.03084">
        <ele>343.7</ele>
        <time>2019-08-16T12:23:54Z</time>
      </trkpt>
      <trkpt lat="47.61661" lon="7.03079">
        <ele>343.7</ele>
        <time>2019-08-16T12:23:55Z</time>
      </trkpt>
      <trkpt lat="47.61658" lon="7.03075">
        <ele>343.7</ele>
        <time>2019-08-16T12:23:56Z</time>
      </trkpt>
      <trkpt lat="47.61655" lon="7.0307">
        <ele>343.7</ele>
        <time>2019-08-16T12:23:57Z</time>
      </trkpt>
      <trkpt lat="47.61651" lon="7.03066">
        <ele>343.8</ele>
        <time>2019-08-16T12:23:58Z</time>
      </trkpt>
      <trkpt lat="47.61649" lon="7.03061">
        <ele>343.8</ele>
        <time>2019-08-16T12:23:59Z</time>
      </trkpt>
      <trkpt lat="47.61646" lon="7.03057">
        <ele>343.8</ele>
        <time>2019-08-16T12:24:00Z</time>
      </trkpt>
      <trkpt lat="47.61642" lon="7.03051">
        <ele>343.9</ele>
        <time>2019-08-16T12:24:01Z</time>
      </trkpt>
      <trkpt lat="47.61639" lon="7.03045">
        <ele>343.9</ele>
        <time>2019-08-16T12:24:02Z</time>
      </trkpt>
      <trkpt lat="47.61636" lon="7.03039">
        <ele>344</ele>
        <time>2019-08-16T12:24:03Z</time>
      </trkpt>
      <trkpt lat="47.61633" lon="7.03033">
        <ele>344</ele>
        <time>2019-08-16T12:24:04Z</time>
      </trkpt>
      <trkpt lat="47.61631" lon="7.03028">
        <ele>344.1</ele>
        <time>2019-08-16T12:24:05Z</time>
      </trkpt>
      <trkpt lat="47.61629" lon="7.03025">
        <ele>344.1</ele>
        <time>2019-08-16T12:24:06Z</time>
      </trkpt>
      <trkpt lat="47.61626" lon="7.03018">
        <ele>344.3</ele>
        <time>2019-08-16T12:24:08Z</time>
      </trkpt>
      <trkpt lat="47.61623" lon="7.03013">
        <ele>344.4</ele>
        <time>2019-08-16T12:24:10Z</time>
      </trkpt>
      <trkpt lat="47.6162" lon="7.03009">
        <ele>344.5</ele>
        <time>2019-08-16T12:24:11Z</time>
      </trkpt>
      <trkpt lat="47.61618" lon="7.03005">
        <ele>344.6</ele>
        <time>2019-08-16T12:24:12Z</time>
      </trkpt>
      <trkpt lat="47.61615" lon="7.03001">
        <ele>344.7</ele>
        <time>2019-08-16T12:24:13Z</time>
      </trkpt>
      <trkpt lat="47.61612" lon="7.02997">
        <ele>344.7</ele>
        <time>2019-08-16T12:24:14Z</time>
      </trkpt>
      <trkpt lat="47.6161" lon="7.02994">
        <ele>344.8</ele>
        <time>2019-08-16T12:24:15Z</time>
      </trkpt>
      <trkpt lat="47.61607" lon="7.02991">
        <ele>344.8</ele>
        <time>2019-08-16T12:24:16Z</time>
      </trkpt>
      <trkpt lat="47.61605" lon="7.02988">
        <ele>344.9</ele>
        <time>2019-08-16T12:24:17Z</time>
      </trkpt>
      <trkpt lat="47.61604" lon="7.02982">
        <ele>344.9</ele>
        <time>2019-08-16T12:24:19Z</time>
      </trkpt>
      <trkpt lat="47.61602" lon="7.02979">
        <ele>344.9</ele>
        <time>2019-08-16T12:24:21Z</time>
      </trkpt>
      <trkpt lat="47.61598" lon="7.02974">
        <ele>345</ele>
        <time>2019-08-16T12:24:23Z</time>
      </trkpt>
      <trkpt lat="47.61596" lon="7.0297">
        <ele>345</ele>
        <time>2019-08-16T12:24:24Z</time>
      </trkpt>
      <trkpt lat="47.61594" lon="7.02966">
        <ele>345</ele>
        <time>2019-08-16T12:24:25Z</time>
      </trkpt>
      <trkpt lat="47.61593" lon="7.02962">
        <ele>345</ele>
        <time>2019-08-16T12:24:26Z</time>
      </trkpt>
      <trkpt lat="47.61591" lon="7.02957">
        <ele>345.1</ele>
        <time>2019-08-16T12:24:27Z</time>
      </trkpt>
      <trkpt lat="47.61589" lon="7.02953">
        <ele>345.1</ele>
        <time>2019-08-16T12:24:28Z</time>
      </trkpt>
      <trkpt lat="47.61587" lon="7.02949">
        <ele>345.1</ele>
        <time>2019-08-16T12:24:29Z</time>
      </trkpt>
      <trkpt lat="47.61584" lon="7.02944">
        <ele>345.1</ele>
        <time>2019-08-16T12:24:30Z</time>
      </trkpt>
      <trkpt lat="47.61582" lon="7.0294">
        <ele>345.2</ele>
        <time>2019-08-16T12:24:31Z</time>
      </trkpt>
      <trkpt lat="47.61579" lon="7.02936">
        <ele>345.2</ele>
        <time>2019-08-16T12:24:32Z</time>
      </trkpt>
      <trkpt lat="47.61577" lon="7.02932">
        <ele>345.2</ele>
        <time>2019-08-16T12:24:33Z</time>
      </trkpt>
      <trkpt lat="47.61575" lon="7.02928">
        <ele>345.2</ele>
        <time>2019-08-16T12:24:34Z</time>
      </trkpt>
      <trkpt lat="47.61572" lon="7.02924">
        <ele>345.2</ele>
        <time>2019-08-16T12:24:35Z</time>
      </trkpt>
      <trkpt lat="47.61568" lon="7.0292">
        <ele>345.2</ele>
        <time>2019-08-16T12:24:36Z</time>
      </trkpt>
      <trkpt lat="47.61564" lon="7.02916">
        <ele>345.2</ele>
        <time>2019-08-16T12:24:37Z</time>
      </trkpt>
      <trkpt lat="47.61561" lon="7.02911">
        <ele>345.2</ele>
        <time>2019-08-16T12:24:38Z</time>
      </trkpt>
      <trkpt lat="47.61558" lon="7.02906">
        <ele>345.2</ele>
        <time>2019-08-16T12:24:39Z</time>
      </trkpt>
      <trkpt lat="47.61555" lon="7.02901">
        <ele>345.2</ele>
        <time>2019-08-16T12:24:40Z</time>
      </trkpt>
      <trkpt lat="47.61551" lon="7.02896">
        <ele>345.2</ele>
        <time>2019-08-16T12:24:41Z</time>
      </trkpt>
      <trkpt lat="47.61548" lon="7.02891">
        <ele>345.1</ele>
        <time>2019-08-16T12:24:42Z</time>
      </trkpt>
      <trkpt lat="47.61545" lon="7.02887">
        <ele>345.1</ele>
        <time>2019-08-16T12:24:43Z</time>
      </trkpt>
      <trkpt lat="47.61542" lon="7.02883">
        <ele>345.1</ele>
        <time>2019-08-16T12:24:44Z</time>
      </trkpt>
      <trkpt lat="47.61538" lon="7.0288">
        <ele>345.1</ele>
        <time>2019-08-16T12:24:45Z</time>
      </trkpt>
      <trkpt lat="47.61535" lon="7.02877">
        <ele>345.1</ele>
        <time>2019-08-16T12:24:46Z</time>
      </trkpt>
      <trkpt lat="47.61531" lon="7.02873">
        <ele>345.2</ele>
        <time>2019-08-16T12:24:47Z</time>
      </trkpt>
      <trkpt lat="47.61528" lon="7.02869">
        <ele>345.2</ele>
        <time>2019-08-16T12:24:48Z</time>
      </trkpt>
      <trkpt lat="47.61525" lon="7.02865">
        <ele>345.2</ele>
        <time>2019-08-16T12:24:49Z</time>
      </trkpt>
      <trkpt lat="47.61521" lon="7.02861">
        <ele>345.2</ele>
        <time>2019-08-16T12:24:50Z</time>
      </trkpt>
      <trkpt lat="47.61518" lon="7.02858">
        <ele>345.2</ele>
        <time>2019-08-16T12:24:51Z</time>
      </trkpt>
      <trkpt lat="47.61513" lon="7.02854">
        <ele>345.2</ele>
        <time>2019-08-16T12:24:52Z</time>
      </trkpt>
      <trkpt lat="47.61509" lon="7.02851">
        <ele>345.3</ele>
        <time>2019-08-16T12:24:53Z</time>
      </trkpt>
      <trkpt lat="47.61506" lon="7.02848">
        <ele>345.3</ele>
        <time>2019-08-16T12:24:54Z</time>
      </trkpt>
      <trkpt lat="47.61502" lon="7.02845">
        <ele>345.3</ele>
        <time>2019-08-16T12:24:55Z</time>
      </trkpt>
      <trkpt lat="47.61499" lon="7.02842">
        <ele>345.3</ele>
        <time>2019-08-16T12:24:56Z</time>
      </trkpt>
      <trkpt lat="47.61495" lon="7.02838">
        <ele>345.3</ele>
        <time>2019-08-16T12:24:57Z</time>
      </trkpt>
      <trkpt lat="47.61492" lon="7.02836">
        <ele>345.3</ele>
        <time>2019-08-16T12:24:58Z</time>
      </trkpt>
      <trkpt lat="47.61488" lon="7.02833">
        <ele>345.3</ele>
        <time>2019-08-16T12:24:59Z</time>
      </trkpt>
      <trkpt lat="47.61485" lon="7.02829">
        <ele>345.3</ele>
        <time>2019-08-16T12:25:00Z</time>
      </trkpt>
      <trkpt lat="47.61483" lon="7.02826">
        <ele>345.3</ele>
        <time>2019-08-16T12:25:01Z</time>
      </trkpt>
      <trkpt lat="47.6148" lon="7.02823">
        <ele>345.3</ele>
        <time>2019-08-16T12:25:02Z</time>
      </trkpt>
      <trkpt lat="47.61476" lon="7.0282">
        <ele>345.3</ele>
        <time>2019-08-16T12:25:03Z</time>
      </trkpt>
      <trkpt lat="47.61474" lon="7.02818">
        <ele>345.3</ele>
        <time>2019-08-16T12:25:04Z</time>
      </trkpt>
      <trkpt lat="47.61471" lon="7.02815">
        <ele>345.3</ele>
        <time>2019-08-16T12:25:05Z</time>
      </trkpt>
      <trkpt lat="47.61469" lon="7.02813">
        <ele>345.3</ele>
        <time>2019-08-16T12:25:06Z</time>
      </trkpt>
      <trkpt lat="47.61465" lon="7.02811">
        <ele>345.3</ele>
        <time>2019-08-16T12:25:07Z</time>
      </trkpt>
      <trkpt lat="47.61462" lon="7.02809">
        <ele>345.3</ele>
        <time>2019-08-16T12:25:08Z</time>
      </trkpt>
      <trkpt lat="47.61457" lon="7.02804">
        <ele>345.4</ele>
        <time>2019-08-16T12:25:09Z</time>
      </trkpt>
      <trkpt lat="47.61452" lon="7.02801">
        <ele>345.4</ele>
        <time>2019-08-16T12:25:10Z</time>
      </trkpt>
      <trkpt lat="47.61448" lon="7.02797">
        <ele>345.4</ele>
        <time>2019-08-16T12:25:11Z</time>
      </trkpt>
      <trkpt lat="47.61444" lon="7.02794">
        <ele>345.4</ele>
        <time>2019-08-16T12:25:12Z</time>
      </trkpt>
      <trkpt lat="47.61441" lon="7.02789">
        <ele>345.4</ele>
        <time>2019-08-16T12:25:13Z</time>
      </trkpt>
      <trkpt lat="47.61437" lon="7.02786">
        <ele>345.4</ele>
        <time>2019-08-16T12:25:14Z</time>
      </trkpt>
      <trkpt lat="47.61433" lon="7.02782">
        <ele>345.4</ele>
        <time>2019-08-16T12:25:15Z</time>
      </trkpt>
      <trkpt lat="47.61428" lon="7.02778">
        <ele>345.4</ele>
        <time>2019-08-16T12:25:16Z</time>
      </trkpt>
      <trkpt lat="47.61424" lon="7.02776">
        <ele>345.3</ele>
        <time>2019-08-16T12:25:17Z</time>
      </trkpt>
      <trkpt lat="47.6142" lon="7.02774">
        <ele>345.3</ele>
        <time>2019-08-16T12:25:18Z</time>
      </trkpt>
      <trkpt lat="47.61415" lon="7.02771">
        <ele>345.2</ele>
        <time>2019-08-16T12:25:19Z</time>
      </trkpt>
      <trkpt lat="47.61411" lon="7.02767">
        <ele>345</ele>
        <time>2019-08-16T12:25:20Z</time>
      </trkpt>
      <trkpt lat="47.61406" lon="7.02763">
        <ele>344.9</ele>
        <time>2019-08-16T12:25:21Z</time>
      </trkpt>
      <trkpt lat="47.61402" lon="7.02759">
        <ele>344.7</ele>
        <time>2019-08-16T12:25:22Z</time>
      </trkpt>
      <trkpt lat="47.61398" lon="7.02755">
        <ele>344.5</ele>
        <time>2019-08-16T12:25:23Z</time>
      </trkpt>
      <trkpt lat="47.61394" lon="7.02751">
        <ele>344.3</ele>
        <time>2019-08-16T12:25:24Z</time>
      </trkpt>
      <trkpt lat="47.6139" lon="7.02748">
        <ele>344</ele>
        <time>2019-08-16T12:25:25Z</time>
      </trkpt>
      <trkpt lat="47.61385" lon="7.02745">
        <ele>343.8</ele>
        <time>2019-08-16T12:25:26Z</time>
      </trkpt>
      <trkpt lat="47.6138" lon="7.02741">
        <ele>343.6</ele>
        <time>2019-08-16T12:25:27Z</time>
      </trkpt>
      <trkpt lat="47.61375" lon="7.02737">
        <ele>343.4</ele>
        <time>2019-08-16T12:25:28Z</time>
      </trkpt>
      <trkpt lat="47.6137" lon="7.02734">
        <ele>343.4</ele>
        <time>2019-08-16T12:25:29Z</time>
      </trkpt>
      <trkpt lat="47.61366" lon="7.02731">
        <ele>343.3</ele>
        <time>2019-08-16T12:25:30Z</time>
      </trkpt>
      <trkpt lat="47.61362" lon="7.02726">
        <ele>343.3</ele>
        <time>2019-08-16T12:25:31Z</time>
      </trkpt>
      <trkpt lat="47.61357" lon="7.02723">
        <ele>343.3</ele>
        <time>2019-08-16T12:25:32Z</time>
      </trkpt>
      <trkpt lat="47.61352" lon="7.02718">
        <ele>343.2</ele>
        <time>2019-08-16T12:25:33Z</time>
      </trkpt>
      <trkpt lat="47.61347" lon="7.02714">
        <ele>343.2</ele>
        <time>2019-08-16T12:25:34Z</time>
      </trkpt>
      <trkpt lat="47.61341" lon="7.02709">
        <ele>343.2</ele>
        <time>2019-08-16T12:25:35Z</time>
      </trkpt>
      <trkpt lat="47.61337" lon="7.02705">
        <ele>343.2</ele>
        <time>2019-08-16T12:25:36Z</time>
      </trkpt>
      <trkpt lat="47.61332" lon="7.02701">
        <ele>343.2</ele>
        <time>2019-08-16T12:25:37Z</time>
      </trkpt>
      <trkpt lat="47.61327" lon="7.02695">
        <ele>343.2</ele>
        <time>2019-08-16T12:25:38Z</time>
      </trkpt>
      <trkpt lat="47.61323" lon="7.02689">
        <ele>343.2</ele>
        <time>2019-08-16T12:25:39Z</time>
      </trkpt>
      <trkpt lat="47.61318" lon="7.02685">
        <ele>343.1</ele>
        <time>2019-08-16T12:25:40Z</time>
      </trkpt>
      <trkpt lat="47.61312" lon="7.02679">
        <ele>343.1</ele>
        <time>2019-08-16T12:25:41Z</time>
      </trkpt>
      <trkpt lat="47.61308" lon="7.02673">
        <ele>343</ele>
        <time>2019-08-16T12:25:42Z</time>
      </trkpt>
      <trkpt lat="47.61303" lon="7.02669">
        <ele>342.9</ele>
        <time>2019-08-16T12:25:43Z</time>
      </trkpt>
      <trkpt lat="47.61299" lon="7.02665">
        <ele>342.8</ele>
        <time>2019-08-16T12:25:44Z</time>
      </trkpt>
      <trkpt lat="47.61294" lon="7.02661">
        <ele>342.6</ele>
        <time>2019-08-16T12:25:45Z</time>
      </trkpt>
      <trkpt lat="47.61289" lon="7.02658">
        <ele>342.5</ele>
        <time>2019-08-16T12:25:46Z</time>
      </trkpt>
      <trkpt lat="47.61285" lon="7.02656">
        <ele>342.4</ele>
        <time>2019-08-16T12:25:47Z</time>
      </trkpt>
      <trkpt lat="47.6128" lon="7.02653">
        <ele>342.3</ele>
        <time>2019-08-16T12:25:48Z</time>
      </trkpt>
      <trkpt lat="47.61275" lon="7.0265">
        <ele>342.2</ele>
        <time>2019-08-16T12:25:49Z</time>
      </trkpt>
      <trkpt lat="47.6127" lon="7.02646">
        <ele>342.2</ele>
        <time>2019-08-16T12:25:50Z</time>
      </trkpt>
      <trkpt lat="47.61264" lon="7.02641">
        <ele>342.2</ele>
        <time>2019-08-16T12:25:51Z</time>
      </trkpt>
      <trkpt lat="47.61259" lon="7.02637">
        <ele>342.1</ele>
        <time>2019-08-16T12:25:52Z</time>
      </trkpt>
      <trkpt lat="47.61253" lon="7.02632">
        <ele>342.1</ele>
        <time>2019-08-16T12:25:53Z</time>
      </trkpt>
      <trkpt lat="47.61247" lon="7.02628">
        <ele>342.1</ele>
        <time>2019-08-16T12:25:54Z</time>
      </trkpt>
      <trkpt lat="47.6124" lon="7.02624">
        <ele>342.1</ele>
        <time>2019-08-16T12:25:55Z</time>
      </trkpt>
      <trkpt lat="47.61234" lon="7.02619">
        <ele>342.1</ele>
        <time>2019-08-16T12:25:56Z</time>
      </trkpt>
      <trkpt lat="47.61228" lon="7.02615">
        <ele>342.1</ele>
        <time>2019-08-16T12:25:57Z</time>
      </trkpt>
      <trkpt lat="47.61222" lon="7.02611">
        <ele>342.1</ele>
        <time>2019-08-16T12:25:58Z</time>
      </trkpt>
      <trkpt lat="47.61216" lon="7.02606">
        <ele>342.1</ele>
        <time>2019-08-16T12:25:59Z</time>
      </trkpt>
      <trkpt lat="47.6121" lon="7.02602">
        <ele>342.1</ele>
        <time>2019-08-16T12:26:00Z</time>
      </trkpt>
      <trkpt lat="47.61204" lon="7.02599">
        <ele>342.1</ele>
        <time>2019-08-16T12:26:01Z</time>
      </trkpt>
      <trkpt lat="47.61199" lon="7.02596">
        <ele>342</ele>
        <time>2019-08-16T12:26:02Z</time>
      </trkpt>
      <trkpt lat="47.61196" lon="7.02593">
        <ele>342</ele>
        <time>2019-08-16T12:26:03Z</time>
      </trkpt>
      <trkpt lat="47.61191" lon="7.02588">
        <ele>342</ele>
        <time>2019-08-16T12:26:04Z</time>
      </trkpt>
      <trkpt lat="47.61186" lon="7.02584">
        <ele>342</ele>
        <time>2019-08-16T12:26:05Z</time>
      </trkpt>
      <trkpt lat="47.61182" lon="7.0258">
        <ele>342</ele>
        <time>2019-08-16T12:26:06Z</time>
      </trkpt>
      <trkpt lat="47.61178" lon="7.02577">
        <ele>342</ele>
        <time>2019-08-16T12:26:07Z</time>
      </trkpt>
      <trkpt lat="47.61174" lon="7.02574">
        <ele>342</ele>
        <time>2019-08-16T12:26:08Z</time>
      </trkpt>
      <trkpt lat="47.61168" lon="7.0257">
        <ele>342</ele>
        <time>2019-08-16T12:26:09Z</time>
      </trkpt>
      <trkpt lat="47.61163" lon="7.02566">
        <ele>341.9</ele>
        <time>2019-08-16T12:26:10Z</time>
      </trkpt>
      <trkpt lat="47.61159" lon="7.02563">
        <ele>341.9</ele>
        <time>2019-08-16T12:26:11Z</time>
      </trkpt>
      <trkpt lat="47.61155" lon="7.0256">
        <ele>341.8</ele>
        <time>2019-08-16T12:26:12Z</time>
      </trkpt>
      <trkpt lat="47.61152" lon="7.02556">
        <ele>341.8</ele>
        <time>2019-08-16T12:26:13Z</time>
      </trkpt>
      <trkpt lat="47.61149" lon="7.02555">
        <ele>341.7</ele>
        <time>2019-08-16T12:26:14Z</time>
      </trkpt>
      <trkpt lat="47.61145" lon="7.02551">
        <ele>341.6</ele>
        <time>2019-08-16T12:26:15Z</time>
      </trkpt>
      <trkpt lat="47.61142" lon="7.02548">
        <ele>341.5</ele>
        <time>2019-08-16T12:26:16Z</time>
      </trkpt>
      <trkpt lat="47.61138" lon="7.02544">
        <ele>341.4</ele>
        <time>2019-08-16T12:26:17Z</time>
      </trkpt>
      <trkpt lat="47.61135" lon="7.02541">
        <ele>341.3</ele>
        <time>2019-08-16T12:26:18Z</time>
      </trkpt>
      <trkpt lat="47.6113" lon="7.02537">
        <ele>341.2</ele>
        <time>2019-08-16T12:26:19Z</time>
      </trkpt>
      <trkpt lat="47.61126" lon="7.02534">
        <ele>341.1</ele>
        <time>2019-08-16T12:26:20Z</time>
      </trkpt>
      <trkpt lat="47.61122" lon="7.02531">
        <ele>341</ele>
        <time>2019-08-16T12:26:21Z</time>
      </trkpt>
      <trkpt lat="47.61117" lon="7.02527">
        <ele>341</ele>
        <time>2019-08-16T12:26:22Z</time>
      </trkpt>
      <trkpt lat="47.61112" lon="7.02524">
        <ele>341</ele>
        <time>2019-08-16T12:26:23Z</time>
      </trkpt>
      <trkpt lat="47.61109" lon="7.02521">
        <ele>340.9</ele>
        <time>2019-08-16T12:26:24Z</time>
      </trkpt>
      <trkpt lat="47.61105" lon="7.02517">
        <ele>340.9</ele>
        <time>2019-08-16T12:26:25Z</time>
      </trkpt>
      <trkpt lat="47.61101" lon="7.02512">
        <ele>340.9</ele>
        <time>2019-08-16T12:26:26Z</time>
      </trkpt>
      <trkpt lat="47.61096" lon="7.02508">
        <ele>340.9</ele>
        <time>2019-08-16T12:26:27Z</time>
      </trkpt>
      <trkpt lat="47.61091" lon="7.02502">
        <ele>340.9</ele>
        <time>2019-08-16T12:26:28Z</time>
      </trkpt>
      <trkpt lat="47.61086" lon="7.02499">
        <ele>340.9</ele>
        <time>2019-08-16T12:26:29Z</time>
      </trkpt>
      <trkpt lat="47.61081" lon="7.02495">
        <ele>340.9</ele>
        <time>2019-08-16T12:26:30Z</time>
      </trkpt>
      <trkpt lat="47.61076" lon="7.0249">
        <ele>340.9</ele>
        <time>2019-08-16T12:26:31Z</time>
      </trkpt>
      <trkpt lat="47.6107" lon="7.02486">
        <ele>340.9</ele>
        <time>2019-08-16T12:26:32Z</time>
      </trkpt>
      <trkpt lat="47.61065" lon="7.02482">
        <ele>340.9</ele>
        <time>2019-08-16T12:26:33Z</time>
      </trkpt>
      <trkpt lat="47.61062" lon="7.02479">
        <ele>340.9</ele>
        <time>2019-08-16T12:26:34Z</time>
      </trkpt>
      <trkpt lat="47.61058" lon="7.02476">
        <ele>340.9</ele>
        <time>2019-08-16T12:26:35Z</time>
      </trkpt>
      <trkpt lat="47.61054" lon="7.02473">
        <ele>340.9</ele>
        <time>2019-08-16T12:26:36Z</time>
      </trkpt>
      <trkpt lat="47.6105" lon="7.02469">
        <ele>340.9</ele>
        <time>2019-08-16T12:26:37Z</time>
      </trkpt>
      <trkpt lat="47.61046" lon="7.02465">
        <ele>340.9</ele>
        <time>2019-08-16T12:26:38Z</time>
      </trkpt>
      <trkpt lat="47.61042" lon="7.02461">
        <ele>340.9</ele>
        <time>2019-08-16T12:26:39Z</time>
      </trkpt>
      <trkpt lat="47.61038" lon="7.02457">
        <ele>340.9</ele>
        <time>2019-08-16T12:26:40Z</time>
      </trkpt>
      <trkpt lat="47.61035" lon="7.02453">
        <ele>340.9</ele>
        <time>2019-08-16T12:26:41Z</time>
      </trkpt>
      <trkpt lat="47.61031" lon="7.02448">
        <ele>340.8</ele>
        <time>2019-08-16T12:26:42Z</time>
      </trkpt>
      <trkpt lat="47.61027" lon="7.02444">
        <ele>340.8</ele>
        <time>2019-08-16T12:26:43Z</time>
      </trkpt>
      <trkpt lat="47.61023" lon="7.02438">
        <ele>340.8</ele>
        <time>2019-08-16T12:26:44Z</time>
      </trkpt>
      <trkpt lat="47.61018" lon="7.02434">
        <ele>340.8</ele>
        <time>2019-08-16T12:26:45Z</time>
      </trkpt>
      <trkpt lat="47.61013" lon="7.02427">
        <ele>340.8</ele>
        <time>2019-08-16T12:26:46Z</time>
      </trkpt>
      <trkpt lat="47.61009" lon="7.02419">
        <ele>340.8</ele>
        <time>2019-08-16T12:26:47Z</time>
      </trkpt>
      <trkpt lat="47.61005" lon="7.02412">
        <ele>340.8</ele>
        <time>2019-08-16T12:26:48Z</time>
      </trkpt>
      <trkpt lat="47.61002" lon="7.02405">
        <ele>340.8</ele>
        <time>2019-08-16T12:26:49Z</time>
      </trkpt>
      <trkpt lat="47.60998" lon="7.02398">
        <ele>340.8</ele>
        <time>2019-08-16T12:26:50Z</time>
      </trkpt>
      <trkpt lat="47.60995" lon="7.02393">
        <ele>340.8</ele>
        <time>2019-08-16T12:26:51Z</time>
      </trkpt>
      <trkpt lat="47.60991" lon="7.02389">
        <ele>340.8</ele>
        <time>2019-08-16T12:26:52Z</time>
      </trkpt>
      <trkpt lat="47.60987" lon="7.02384">
        <ele>340.8</ele>
        <time>2019-08-16T12:26:53Z</time>
      </trkpt>
      <trkpt lat="47.60984" lon="7.0238">
        <ele>340.8</ele>
        <time>2019-08-16T12:26:54Z</time>
      </trkpt>
      <trkpt lat="47.6098" lon="7.02376">
        <ele>340.7</ele>
        <time>2019-08-16T12:26:55Z</time>
      </trkpt>
      <trkpt lat="47.60976" lon="7.02373">
        <ele>340.7</ele>
        <time>2019-08-16T12:26:56Z</time>
      </trkpt>
      <trkpt lat="47.60972" lon="7.02369">
        <ele>340.7</ele>
        <time>2019-08-16T12:26:57Z</time>
      </trkpt>
      <trkpt lat="47.60967" lon="7.02366">
        <ele>340.7</ele>
        <time>2019-08-16T12:26:58Z</time>
      </trkpt>
      <trkpt lat="47.60962" lon="7.02361">
        <ele>340.6</ele>
        <time>2019-08-16T12:26:59Z</time>
      </trkpt>
      <trkpt lat="47.60957" lon="7.02356">
        <ele>340.5</ele>
        <time>2019-08-16T12:27:00Z</time>
      </trkpt>
      <trkpt lat="47.60952" lon="7.02349">
        <ele>340.4</ele>
        <time>2019-08-16T12:27:01Z</time>
      </trkpt>
      <trkpt lat="47.60946" lon="7.02342">
        <ele>340.3</ele>
        <time>2019-08-16T12:27:02Z</time>
      </trkpt>
      <trkpt lat="47.60942" lon="7.02336">
        <ele>340.1</ele>
        <time>2019-08-16T12:27:03Z</time>
      </trkpt>
      <trkpt lat="47.60937" lon="7.02329">
        <ele>340</ele>
        <time>2019-08-16T12:27:04Z</time>
      </trkpt>
      <trkpt lat="47.60934" lon="7.02323">
        <ele>339.9</ele>
        <time>2019-08-16T12:27:05Z</time>
      </trkpt>
      <trkpt lat="47.60931" lon="7.02318">
        <ele>339.8</ele>
        <time>2019-08-16T12:27:06Z</time>
      </trkpt>
      <trkpt lat="47.60928" lon="7.02313">
        <ele>339.8</ele>
        <time>2019-08-16T12:27:07Z</time>
      </trkpt>
      <trkpt lat="47.60925" lon="7.02306">
        <ele>339.7</ele>
        <time>2019-08-16T12:27:08Z</time>
      </trkpt>
      <trkpt lat="47.60921" lon="7.02299">
        <ele>339.7</ele>
        <time>2019-08-16T12:27:09Z</time>
      </trkpt>
      <trkpt lat="47.60917" lon="7.02293">
        <ele>339.7</ele>
        <time>2019-08-16T12:27:10Z</time>
      </trkpt>
      <trkpt lat="47.60914" lon="7.02287">
        <ele>339.7</ele>
        <time>2019-08-16T12:27:11Z</time>
      </trkpt>
      <trkpt lat="47.60911" lon="7.02281">
        <ele>339.7</ele>
        <time>2019-08-16T12:27:12Z</time>
      </trkpt>
      <trkpt lat="47.60907" lon="7.02275">
        <ele>339.7</ele>
        <time>2019-08-16T12:27:13Z</time>
      </trkpt>
      <trkpt lat="47.60904" lon="7.02269">
        <ele>339.7</ele>
        <time>2019-08-16T12:27:14Z</time>
      </trkpt>
      <trkpt lat="47.60902" lon="7.02264">
        <ele>339.7</ele>
        <time>2019-08-16T12:27:15Z</time>
      </trkpt>
      <trkpt lat="47.60899" lon="7.02258">
        <ele>339.6</ele>
        <time>2019-08-16T12:27:16Z</time>
      </trkpt>
      <trkpt lat="47.60895" lon="7.0225">
        <ele>339.6</ele>
        <time>2019-08-16T12:27:17Z</time>
      </trkpt>
      <trkpt lat="47.60891" lon="7.02242">
        <ele>339.6</ele>
        <time>2019-08-16T12:27:18Z</time>
      </trkpt>
      <trkpt lat="47.60887" lon="7.02235">
        <ele>339.6</ele>
        <time>2019-08-16T12:27:19Z</time>
      </trkpt>
      <trkpt lat="47.60884" lon="7.02228">
        <ele>339.6</ele>
        <time>2019-08-16T12:27:20Z</time>
      </trkpt>
      <trkpt lat="47.60881" lon="7.02222">
        <ele>339.7</ele>
        <time>2019-08-16T12:27:21Z</time>
      </trkpt>
      <trkpt lat="47.60878" lon="7.02216">
        <ele>339.9</ele>
        <time>2019-08-16T12:27:22Z</time>
      </trkpt>
      <trkpt lat="47.60876" lon="7.0221">
        <ele>340.1</ele>
        <time>2019-08-16T12:27:23Z</time>
      </trkpt>
      <trkpt lat="47.60872" lon="7.02205">
        <ele>340.2</ele>
        <time>2019-08-16T12:27:24Z</time>
      </trkpt>
      <trkpt lat="47.60869" lon="7.022">
        <ele>340.4</ele>
        <time>2019-08-16T12:27:25Z</time>
      </trkpt>
      <trkpt lat="47.60866" lon="7.02194">
        <ele>340.5</ele>
        <time>2019-08-16T12:27:26Z</time>
      </trkpt>
      <trkpt lat="47.60863" lon="7.02189">
        <ele>340.6</ele>
        <time>2019-08-16T12:27:27Z</time>
      </trkpt>
      <trkpt lat="47.60859" lon="7.02183">
        <ele>340.6</ele>
        <time>2019-08-16T12:27:28Z</time>
      </trkpt>
      <trkpt lat="47.60857" lon="7.02178">
        <ele>340.7</ele>
        <time>2019-08-16T12:27:29Z</time>
      </trkpt>
      <trkpt lat="47.60855" lon="7.02173">
        <ele>340.7</ele>
        <time>2019-08-16T12:27:30Z</time>
      </trkpt>
      <trkpt lat="47.60853" lon="7.02168">
        <ele>340.8</ele>
        <time>2019-08-16T12:27:31Z</time>
      </trkpt>
      <trkpt lat="47.60851" lon="7.02164">
        <ele>340.8</ele>
        <time>2019-08-16T12:27:32Z</time>
      </trkpt>
      <trkpt lat="47.60848" lon="7.02161">
        <ele>340.8</ele>
        <time>2019-08-16T12:27:33Z</time>
      </trkpt>
      <trkpt lat="47.60846" lon="7.02157">
        <ele>340.8</ele>
        <time>2019-08-16T12:27:34Z</time>
      </trkpt>
      <trkpt lat="47.60843" lon="7.02152">
        <ele>340.8</ele>
        <time>2019-08-16T12:27:35Z</time>
      </trkpt>
      <trkpt lat="47.6084" lon="7.02146">
        <ele>340.8</ele>
        <time>2019-08-16T12:27:36Z</time>
      </trkpt>
      <trkpt lat="47.60837" lon="7.02141">
        <ele>340.8</ele>
        <time>2019-08-16T12:27:37Z</time>
      </trkpt>
      <trkpt lat="47.60834" lon="7.02135">
        <ele>340.7</ele>
        <time>2019-08-16T12:27:38Z</time>
      </trkpt>
      <trkpt lat="47.60831" lon="7.0213">
        <ele>340.7</ele>
        <time>2019-08-16T12:27:39Z</time>
      </trkpt>
      <trkpt lat="47.60829" lon="7.02124">
        <ele>340.7</ele>
        <time>2019-08-16T12:27:40Z</time>
      </trkpt>
      <trkpt lat="47.60827" lon="7.02119">
        <ele>340.7</ele>
        <time>2019-08-16T12:27:41Z</time>
      </trkpt>
      <trkpt lat="47.60824" lon="7.02112">
        <ele>340.7</ele>
        <time>2019-08-16T12:27:42Z</time>
      </trkpt>
      <trkpt lat="47.60822" lon="7.02105">
        <ele>340.6</ele>
        <time>2019-08-16T12:27:43Z</time>
      </trkpt>
      <trkpt lat="47.60819" lon="7.02099">
        <ele>340.6</ele>
        <time>2019-08-16T12:27:44Z</time>
      </trkpt>
      <trkpt lat="47.60817" lon="7.02092">
        <ele>340.6</ele>
        <time>2019-08-16T12:27:45Z</time>
      </trkpt>
      <trkpt lat="47.60814" lon="7.02087">
        <ele>340.6</ele>
        <time>2019-08-16T12:27:46Z</time>
      </trkpt>
      <trkpt lat="47.60812" lon="7.02081">
        <ele>340.6</ele>
        <time>2019-08-16T12:27:47Z</time>
      </trkpt>
      <trkpt lat="47.6081" lon="7.02074">
        <ele>340.6</ele>
        <time>2019-08-16T12:27:48Z</time>
      </trkpt>
      <trkpt lat="47.60807" lon="7.02068">
        <ele>340.6</ele>
        <time>2019-08-16T12:27:49Z</time>
      </trkpt>
      <trkpt lat="47.60805" lon="7.02062">
        <ele>340.6</ele>
        <time>2019-08-16T12:27:50Z</time>
      </trkpt>
      <trkpt lat="47.60801" lon="7.02056">
        <ele>340.6</ele>
        <time>2019-08-16T12:27:51Z</time>
      </trkpt>
      <trkpt lat="47.60798" lon="7.02051">
        <ele>340.6</ele>
        <time>2019-08-16T12:27:52Z</time>
      </trkpt>
      <trkpt lat="47.60794" lon="7.02045">
        <ele>340.6</ele>
        <time>2019-08-16T12:27:53Z</time>
      </trkpt>
      <trkpt lat="47.60791" lon="7.0204">
        <ele>340.5</ele>
        <time>2019-08-16T12:27:54Z</time>
      </trkpt>
      <trkpt lat="47.60787" lon="7.02036">
        <ele>340.5</ele>
        <time>2019-08-16T12:27:55Z</time>
      </trkpt>
      <trkpt lat="47.60784" lon="7.02029">
        <ele>340.5</ele>
        <time>2019-08-16T12:27:56Z</time>
      </trkpt>
      <trkpt lat="47.6078" lon="7.02022">
        <ele>340.4</ele>
        <time>2019-08-16T12:27:57Z</time>
      </trkpt>
      <trkpt lat="47.60778" lon="7.02016">
        <ele>340.4</ele>
        <time>2019-08-16T12:27:58Z</time>
      </trkpt>
      <trkpt lat="47.60775" lon="7.0201">
        <ele>340.4</ele>
        <time>2019-08-16T12:27:59Z</time>
      </trkpt>
      <trkpt lat="47.60771" lon="7.02003">
        <ele>340.3</ele>
        <time>2019-08-16T12:28:00Z</time>
      </trkpt>
      <trkpt lat="47.6077" lon="7.01999">
        <ele>340.3</ele>
        <time>2019-08-16T12:28:01Z</time>
      </trkpt>
      <trkpt lat="47.60768" lon="7.01991">
        <ele>340.2</ele>
        <time>2019-08-16T12:28:02Z</time>
      </trkpt>
      <trkpt lat="47.60765" lon="7.01986">
        <ele>340.2</ele>
        <time>2019-08-16T12:28:03Z</time>
      </trkpt>
      <trkpt lat="47.60762" lon="7.0198">
        <ele>340.2</ele>
        <time>2019-08-16T12:28:04Z</time>
      </trkpt>
      <trkpt lat="47.60759" lon="7.01973">
        <ele>340.2</ele>
        <time>2019-08-16T12:28:05Z</time>
      </trkpt>
      <trkpt lat="47.60757" lon="7.01966">
        <ele>340.2</ele>
        <time>2019-08-16T12:28:06Z</time>
      </trkpt>
      <trkpt lat="47.60754" lon="7.01961">
        <ele>340.3</ele>
        <time>2019-08-16T12:28:07Z</time>
      </trkpt>
      <trkpt lat="47.60751" lon="7.01955">
        <ele>340.3</ele>
        <time>2019-08-16T12:28:08Z</time>
      </trkpt>
      <trkpt lat="47.60748" lon="7.01949">
        <ele>340.4</ele>
        <time>2019-08-16T12:28:09Z</time>
      </trkpt>
      <trkpt lat="47.60745" lon="7.01943">
        <ele>340.4</ele>
        <time>2019-08-16T12:28:10Z</time>
      </trkpt>
      <trkpt lat="47.60742" lon="7.01936">
        <ele>340.4</ele>
        <time>2019-08-16T12:28:11Z</time>
      </trkpt>
      <trkpt lat="47.60738" lon="7.0193">
        <ele>340.4</ele>
        <time>2019-08-16T12:28:12Z</time>
      </trkpt>
      <trkpt lat="47.60735" lon="7.01924">
        <ele>340.5</ele>
        <time>2019-08-16T12:28:13Z</time>
      </trkpt>
      <trkpt lat="47.60732" lon="7.01917">
        <ele>340.4</ele>
        <time>2019-08-16T12:28:14Z</time>
      </trkpt>
      <trkpt lat="47.60728" lon="7.01911">
        <ele>340.4</ele>
        <time>2019-08-16T12:28:15Z</time>
      </trkpt>
      <trkpt lat="47.60726" lon="7.01906">
        <ele>340.4</ele>
        <time>2019-08-16T12:28:16Z</time>
      </trkpt>
      <trkpt lat="47.60723" lon="7.01899">
        <ele>340.3</ele>
        <time>2019-08-16T12:28:17Z</time>
      </trkpt>
      <trkpt lat="47.6072" lon="7.01892">
        <ele>340.2</ele>
        <time>2019-08-16T12:28:18Z</time>
      </trkpt>
      <trkpt lat="47.60716" lon="7.01886">
        <ele>340.1</ele>
        <time>2019-08-16T12:28:19Z</time>
      </trkpt>
      <trkpt lat="47.60712" lon="7.01878">
        <ele>340</ele>
        <time>2019-08-16T12:28:20Z</time>
      </trkpt>
      <trkpt lat="47.60709" lon="7.01872">
        <ele>340</ele>
        <time>2019-08-16T12:28:21Z</time>
      </trkpt>
      <trkpt lat="47.60706" lon="7.01866">
        <ele>339.9</ele>
        <time>2019-08-16T12:28:22Z</time>
      </trkpt>
      <trkpt lat="47.60703" lon="7.0186">
        <ele>339.8</ele>
        <time>2019-08-16T12:28:23Z</time>
      </trkpt>
      <trkpt lat="47.607" lon="7.01855">
        <ele>339.8</ele>
        <time>2019-08-16T12:28:24Z</time>
      </trkpt>
      <trkpt lat="47.60697" lon="7.01848">
        <ele>339.8</ele>
        <time>2019-08-16T12:28:25Z</time>
      </trkpt>
      <trkpt lat="47.60695" lon="7.01843">
        <ele>339.7</ele>
        <time>2019-08-16T12:28:26Z</time>
      </trkpt>
      <trkpt lat="47.60692" lon="7.01835">
        <ele>339.7</ele>
        <time>2019-08-16T12:28:27Z</time>
      </trkpt>
      <trkpt lat="47.60689" lon="7.01828">
        <ele>339.7</ele>
        <time>2019-08-16T12:28:28Z</time>
      </trkpt>
      <trkpt lat="47.60686" lon="7.01821">
        <ele>339.8</ele>
        <time>2019-08-16T12:28:29Z</time>
      </trkpt>
      <trkpt lat="47.60683" lon="7.01814">
        <ele>339.8</ele>
        <time>2019-08-16T12:28:30Z</time>
      </trkpt>
      <trkpt lat="47.60681" lon="7.01807">
        <ele>339.8</ele>
        <time>2019-08-16T12:28:31Z</time>
      </trkpt>
      <trkpt lat="47.60678" lon="7.01803">
        <ele>339.9</ele>
        <time>2019-08-16T12:28:32Z</time>
      </trkpt>
      <trkpt lat="47.60676" lon="7.01797">
        <ele>339.9</ele>
        <time>2019-08-16T12:28:33Z</time>
      </trkpt>
      <trkpt lat="47.60673" lon="7.01791">
        <ele>340</ele>
        <time>2019-08-16T12:28:34Z</time>
      </trkpt>
      <trkpt lat="47.6067" lon="7.01784">
        <ele>340.1</ele>
        <time>2019-08-16T12:28:35Z</time>
      </trkpt>
      <trkpt lat="47.60668" lon="7.01779">
        <ele>340.2</ele>
        <time>2019-08-16T12:28:36Z</time>
      </trkpt>
      <trkpt lat="47.60666" lon="7.01773">
        <ele>340.2</ele>
        <time>2019-08-16T12:28:37Z</time>
      </trkpt>
      <trkpt lat="47.60663" lon="7.01765">
        <ele>340.3</ele>
        <time>2019-08-16T12:28:38Z</time>
      </trkpt>
      <trkpt lat="47.60661" lon="7.0176">
        <ele>340.3</ele>
        <time>2019-08-16T12:28:39Z</time>
      </trkpt>
      <trkpt lat="47.60659" lon="7.01756">
        <ele>340.3</ele>
        <time>2019-08-16T12:28:40Z</time>
      </trkpt>
      <trkpt lat="47.60656" lon="7.01747">
        <ele>340.3</ele>
        <time>2019-08-16T12:28:41Z</time>
      </trkpt>
      <trkpt lat="47.60653" lon="7.01742">
        <ele>340.3</ele>
        <time>2019-08-16T12:28:42Z</time>
      </trkpt>
      <trkpt lat="47.60651" lon="7.01736">
        <ele>340.3</ele>
        <time>2019-08-16T12:28:43Z</time>
      </trkpt>
      <trkpt lat="47.60648" lon="7.0173">
        <ele>340.3</ele>
        <time>2019-08-16T12:28:44Z</time>
      </trkpt>
      <trkpt lat="47.60646" lon="7.01724">
        <ele>340.2</ele>
        <time>2019-08-16T12:28:45Z</time>
      </trkpt>
      <trkpt lat="47.60643" lon="7.01719">
        <ele>340.1</ele>
        <time>2019-08-16T12:28:46Z</time>
      </trkpt>
      <trkpt lat="47.60641" lon="7.01713">
        <ele>340.1</ele>
        <time>2019-08-16T12:28:47Z</time>
      </trkpt>
      <trkpt lat="47.60637" lon="7.01707">
        <ele>340</ele>
        <time>2019-08-16T12:28:48Z</time>
      </trkpt>
      <trkpt lat="47.60636" lon="7.01703">
        <ele>339.9</ele>
        <time>2019-08-16T12:28:49Z</time>
      </trkpt>
      <trkpt lat="47.60633" lon="7.01697">
        <ele>339.8</ele>
        <time>2019-08-16T12:28:50Z</time>
      </trkpt>
      <trkpt lat="47.6063" lon="7.01691">
        <ele>339.8</ele>
        <time>2019-08-16T12:28:51Z</time>
      </trkpt>
      <trkpt lat="47.60627" lon="7.01685">
        <ele>339.8</ele>
        <time>2019-08-16T12:28:52Z</time>
      </trkpt>
      <trkpt lat="47.60625" lon="7.01679">
        <ele>339.7</ele>
        <time>2019-08-16T12:28:53Z</time>
      </trkpt>
      <trkpt lat="47.60621" lon="7.01672">
        <ele>339.7</ele>
        <time>2019-08-16T12:28:54Z</time>
      </trkpt>
      <trkpt lat="47.60617" lon="7.01664">
        <ele>339.8</ele>
        <time>2019-08-16T12:28:55Z</time>
      </trkpt>
      <trkpt lat="47.60614" lon="7.01657">
        <ele>339.8</ele>
        <time>2019-08-16T12:28:56Z</time>
      </trkpt>
      <trkpt lat="47.60612" lon="7.0165">
        <ele>339.8</ele>
        <time>2019-08-16T12:28:57Z</time>
      </trkpt>
      <trkpt lat="47.6061" lon="7.01644">
        <ele>339.9</ele>
        <time>2019-08-16T12:28:58Z</time>
      </trkpt>
      <trkpt lat="47.60609" lon="7.0164">
        <ele>339.9</ele>
        <time>2019-08-16T12:28:59Z</time>
      </trkpt>
      <trkpt lat="47.60607" lon="7.01633">
        <ele>340</ele>
        <time>2019-08-16T12:29:00Z</time>
      </trkpt>
      <trkpt lat="47.60605" lon="7.01626">
        <ele>340</ele>
        <time>2019-08-16T12:29:01Z</time>
      </trkpt>
      <trkpt lat="47.60603" lon="7.01622">
        <ele>340.1</ele>
        <time>2019-08-16T12:29:02Z</time>
      </trkpt>
      <trkpt lat="47.606" lon="7.01616">
        <ele>340.1</ele>
        <time>2019-08-16T12:29:03Z</time>
      </trkpt>
      <trkpt lat="47.60597" lon="7.0161">
        <ele>340.1</ele>
        <time>2019-08-16T12:29:04Z</time>
      </trkpt>
      <trkpt lat="47.60594" lon="7.01602">
        <ele>340.1</ele>
        <time>2019-08-16T12:29:05Z</time>
      </trkpt>
      <trkpt lat="47.60592" lon="7.01597">
        <ele>340.1</ele>
        <time>2019-08-16T12:29:06Z</time>
      </trkpt>
      <trkpt lat="47.60589" lon="7.01592">
        <ele>340.1</ele>
        <time>2019-08-16T12:29:07Z</time>
      </trkpt>
      <trkpt lat="47.60587" lon="7.01585">
        <ele>340.1</ele>
        <time>2019-08-16T12:29:08Z</time>
      </trkpt>
      <trkpt lat="47.60584" lon="7.0158">
        <ele>340.1</ele>
        <time>2019-08-16T12:29:09Z</time>
      </trkpt>
      <trkpt lat="47.60581" lon="7.01573">
        <ele>340.2</ele>
        <time>2019-08-16T12:29:10Z</time>
      </trkpt>
      <trkpt lat="47.60578" lon="7.01567">
        <ele>340.2</ele>
        <time>2019-08-16T12:29:11Z</time>
      </trkpt>
      <trkpt lat="47.60574" lon="7.01561">
        <ele>340.2</ele>
        <time>2019-08-16T12:29:12Z</time>
      </trkpt>
      <trkpt lat="47.60571" lon="7.01554">
        <ele>340.3</ele>
        <time>2019-08-16T12:29:13Z</time>
      </trkpt>
      <trkpt lat="47.60568" lon="7.01548">
        <ele>340.3</ele>
        <time>2019-08-16T12:29:14Z</time>
      </trkpt>
      <trkpt lat="47.60565" lon="7.01542">
        <ele>340.3</ele>
        <time>2019-08-16T12:29:15Z</time>
      </trkpt>
      <trkpt lat="47.60562" lon="7.01536">
        <ele>340.4</ele>
        <time>2019-08-16T12:29:16Z</time>
      </trkpt>
      <trkpt lat="47.60558" lon="7.0153">
        <ele>340.4</ele>
        <time>2019-08-16T12:29:17Z</time>
      </trkpt>
      <trkpt lat="47.60555" lon="7.01523">
        <ele>340.4</ele>
        <time>2019-08-16T12:29:18Z</time>
      </trkpt>
      <trkpt lat="47.60552" lon="7.01517">
        <ele>340.3</ele>
        <time>2019-08-16T12:29:19Z</time>
      </trkpt>
      <trkpt lat="47.60548" lon="7.0151">
        <ele>340.2</ele>
        <time>2019-08-16T12:29:20Z</time>
      </trkpt>
      <trkpt lat="47.60546" lon="7.01504">
        <ele>340.2</ele>
        <time>2019-08-16T12:29:21Z</time>
      </trkpt>
      <trkpt lat="47.60543" lon="7.01498">
        <ele>340.1</ele>
        <time>2019-08-16T12:29:22Z</time>
      </trkpt>
      <trkpt lat="47.6054" lon="7.01491">
        <ele>340</ele>
        <time>2019-08-16T12:29:23Z</time>
      </trkpt>
      <trkpt lat="47.60538" lon="7.01484">
        <ele>339.9</ele>
        <time>2019-08-16T12:29:24Z</time>
      </trkpt>
      <trkpt lat="47.60536" lon="7.01478">
        <ele>339.9</ele>
        <time>2019-08-16T12:29:25Z</time>
      </trkpt>
      <trkpt lat="47.60533" lon="7.01472">
        <ele>339.8</ele>
        <time>2019-08-16T12:29:26Z</time>
      </trkpt>
      <trkpt lat="47.6053" lon="7.01465">
        <ele>339.8</ele>
        <time>2019-08-16T12:29:27Z</time>
      </trkpt>
      <trkpt lat="47.60528" lon="7.0146">
        <ele>339.7</ele>
        <time>2019-08-16T12:29:28Z</time>
      </trkpt>
      <trkpt lat="47.60525" lon="7.01455">
        <ele>339.7</ele>
        <time>2019-08-16T12:29:29Z</time>
      </trkpt>
      <trkpt lat="47.60523" lon="7.01448">
        <ele>339.7</ele>
        <time>2019-08-16T12:29:30Z</time>
      </trkpt>
      <trkpt lat="47.60519" lon="7.01442">
        <ele>339.7</ele>
        <time>2019-08-16T12:29:31Z</time>
      </trkpt>
      <trkpt lat="47.60516" lon="7.01434">
        <ele>339.6</ele>
        <time>2019-08-16T12:29:32Z</time>
      </trkpt>
      <trkpt lat="47.60513" lon="7.01428">
        <ele>339.6</ele>
        <time>2019-08-16T12:29:33Z</time>
      </trkpt>
      <trkpt lat="47.60511" lon="7.01424">
        <ele>339.6</ele>
        <time>2019-08-16T12:29:34Z</time>
      </trkpt>
      <trkpt lat="47.60508" lon="7.01417">
        <ele>339.6</ele>
        <time>2019-08-16T12:29:35Z</time>
      </trkpt>
      <trkpt lat="47.60504" lon="7.0141">
        <ele>339.6</ele>
        <time>2019-08-16T12:29:36Z</time>
      </trkpt>
      <trkpt lat="47.60502" lon="7.01404">
        <ele>339.6</ele>
        <time>2019-08-16T12:29:37Z</time>
      </trkpt>
      <trkpt lat="47.60499" lon="7.01399">
        <ele>339.6</ele>
        <time>2019-08-16T12:29:38Z</time>
      </trkpt>
      <trkpt lat="47.60497" lon="7.01393">
        <ele>339.6</ele>
        <time>2019-08-16T12:29:39Z</time>
      </trkpt>
      <trkpt lat="47.60494" lon="7.01385">
        <ele>339.6</ele>
        <time>2019-08-16T12:29:40Z</time>
      </trkpt>
      <trkpt lat="47.60492" lon="7.0138">
        <ele>339.6</ele>
        <time>2019-08-16T12:29:41Z</time>
      </trkpt>
      <trkpt lat="47.60491" lon="7.01375">
        <ele>339.6</ele>
        <time>2019-08-16T12:29:42Z</time>
      </trkpt>
      <trkpt lat="47.60489" lon="7.01369">
        <ele>339.6</ele>
        <time>2019-08-16T12:29:43Z</time>
      </trkpt>
      <trkpt lat="47.60485" lon="7.01363">
        <ele>339.6</ele>
        <time>2019-08-16T12:29:44Z</time>
      </trkpt>
      <trkpt lat="47.60482" lon="7.01357">
        <ele>339.6</ele>
        <time>2019-08-16T12:29:45Z</time>
      </trkpt>
      <trkpt lat="47.60478" lon="7.0135">
        <ele>339.6</ele>
        <time>2019-08-16T12:29:46Z</time>
      </trkpt>
      <trkpt lat="47.60475" lon="7.01342">
        <ele>339.6</ele>
        <time>2019-08-16T12:29:47Z</time>
      </trkpt>
      <trkpt lat="47.60473" lon="7.01338">
        <ele>339.6</ele>
        <time>2019-08-16T12:29:48Z</time>
      </trkpt>
      <trkpt lat="47.60469" lon="7.01329">
        <ele>339.6</ele>
        <time>2019-08-16T12:29:49Z</time>
      </trkpt>
      <trkpt lat="47.60466" lon="7.01321">
        <ele>339.6</ele>
        <time>2019-08-16T12:29:50Z</time>
      </trkpt>
      <trkpt lat="47.60464" lon="7.01314">
        <ele>339.6</ele>
        <time>2019-08-16T12:29:51Z</time>
      </trkpt>
      <trkpt lat="47.60461" lon="7.01309">
        <ele>339.6</ele>
        <time>2019-08-16T12:29:52Z</time>
      </trkpt>
      <trkpt lat="47.60459" lon="7.01306">
        <ele>339.6</ele>
        <time>2019-08-16T12:29:53Z</time>
      </trkpt>
      <trkpt lat="47.60456" lon="7.013">
        <ele>339.6</ele>
        <time>2019-08-16T12:29:54Z</time>
      </trkpt>
      <trkpt lat="47.60453" lon="7.01293">
        <ele>339.6</ele>
        <time>2019-08-16T12:29:55Z</time>
      </trkpt>
      <trkpt lat="47.6045" lon="7.01288">
        <ele>339.6</ele>
        <time>2019-08-16T12:29:56Z</time>
      </trkpt>
      <trkpt lat="47.60445" lon="7.01279">
        <ele>339.6</ele>
        <time>2019-08-16T12:29:57Z</time>
      </trkpt>
      <trkpt lat="47.60443" lon="7.01273">
        <ele>339.6</ele>
        <time>2019-08-16T12:29:58Z</time>
      </trkpt>
      <trkpt lat="47.6044" lon="7.0127">
        <ele>339.6</ele>
        <time>2019-08-16T12:29:59Z</time>
      </trkpt>
      <trkpt lat="47.60438" lon="7.01264">
        <ele>339.6</ele>
        <time>2019-08-16T12:30:00Z</time>
      </trkpt>
      <trkpt lat="47.60435" lon="7.01258">
        <ele>339.6</ele>
        <time>2019-08-16T12:30:01Z</time>
      </trkpt>
      <trkpt lat="47.60431" lon="7.01253">
        <ele>339.6</ele>
        <time>2019-08-16T12:30:02Z</time>
      </trkpt>
      <trkpt lat="47.60428" lon="7.01248">
        <ele>339.6</ele>
        <time>2019-08-16T12:30:03Z</time>
      </trkpt>
      <trkpt lat="47.60425" lon="7.01243">
        <ele>339.6</ele>
        <time>2019-08-16T12:30:04Z</time>
      </trkpt>
      <trkpt lat="47.60422" lon="7.01237">
        <ele>339.6</ele>
        <time>2019-08-16T12:30:05Z</time>
      </trkpt>
      <trkpt lat="47.60419" lon="7.01232">
        <ele>339.6</ele>
        <time>2019-08-16T12:30:06Z</time>
      </trkpt>
      <trkpt lat="47.60416" lon="7.01228">
        <ele>339.6</ele>
        <time>2019-08-16T12:30:07Z</time>
      </trkpt>
      <trkpt lat="47.60413" lon="7.01223">
        <ele>339.6</ele>
        <time>2019-08-16T12:30:08Z</time>
      </trkpt>
      <trkpt lat="47.60409" lon="7.01216">
        <ele>339.6</ele>
        <time>2019-08-16T12:30:09Z</time>
      </trkpt>
      <trkpt lat="47.60405" lon="7.01208">
        <ele>339.6</ele>
        <time>2019-08-16T12:30:10Z</time>
      </trkpt>
      <trkpt lat="47.60402" lon="7.01202">
        <ele>339.6</ele>
        <time>2019-08-16T12:30:11Z</time>
      </trkpt>
      <trkpt lat="47.60399" lon="7.01196">
        <ele>339.6</ele>
        <time>2019-08-16T12:30:12Z</time>
      </trkpt>
      <trkpt lat="47.60397" lon="7.0119">
        <ele>339.6</ele>
        <time>2019-08-16T12:30:13Z</time>
      </trkpt>
      <trkpt lat="47.60394" lon="7.01185">
        <ele>339.6</ele>
        <time>2019-08-16T12:30:14Z</time>
      </trkpt>
      <trkpt lat="47.60392" lon="7.01179">
        <ele>339.6</ele>
        <time>2019-08-16T12:30:15Z</time>
      </trkpt>
      <trkpt lat="47.60389" lon="7.01172">
        <ele>339.6</ele>
        <time>2019-08-16T12:30:16Z</time>
      </trkpt>
      <trkpt lat="47.60388" lon="7.01166">
        <ele>339.6</ele>
        <time>2019-08-16T12:30:17Z</time>
      </trkpt>
      <trkpt lat="47.60385" lon="7.0116">
        <ele>339.6</ele>
        <time>2019-08-16T12:30:18Z</time>
      </trkpt>
      <trkpt lat="47.60382" lon="7.01154">
        <ele>339.6</ele>
        <time>2019-08-16T12:30:19Z</time>
      </trkpt>
      <trkpt lat="47.6038" lon="7.01148">
        <ele>339.6</ele>
        <time>2019-08-16T12:30:20Z</time>
      </trkpt>
      <trkpt lat="47.60377" lon="7.01141">
        <ele>339.6</ele>
        <time>2019-08-16T12:30:21Z</time>
      </trkpt>
      <trkpt lat="47.60375" lon="7.01134">
        <ele>339.6</ele>
        <time>2019-08-16T12:30:22Z</time>
      </trkpt>
      <trkpt lat="47.60372" lon="7.01128">
        <ele>339.6</ele>
        <time>2019-08-16T12:30:23Z</time>
      </trkpt>
      <trkpt lat="47.6037" lon="7.01121">
        <ele>339.6</ele>
        <time>2019-08-16T12:30:24Z</time>
      </trkpt>
      <trkpt lat="47.60367" lon="7.01116">
        <ele>339.6</ele>
        <time>2019-08-16T12:30:25Z</time>
      </trkpt>
      <trkpt lat="47.60364" lon="7.01112">
        <ele>339.6</ele>
        <time>2019-08-16T12:30:26Z</time>
      </trkpt>
      <trkpt lat="47.60361" lon="7.01106">
        <ele>339.6</ele>
        <time>2019-08-16T12:30:27Z</time>
      </trkpt>
      <trkpt lat="47.60357" lon="7.01101">
        <ele>339.6</ele>
        <time>2019-08-16T12:30:28Z</time>
      </trkpt>
      <trkpt lat="47.60354" lon="7.01097">
        <ele>339.6</ele>
        <time>2019-08-16T12:30:29Z</time>
      </trkpt>
      <trkpt lat="47.6035" lon="7.01091">
        <ele>339.6</ele>
        <time>2019-08-16T12:30:30Z</time>
      </trkpt>
      <trkpt lat="47.60348" lon="7.01085">
        <ele>339.6</ele>
        <time>2019-08-16T12:30:31Z</time>
      </trkpt>
      <trkpt lat="47.60345" lon="7.0108">
        <ele>339.6</ele>
        <time>2019-08-16T12:30:32Z</time>
      </trkpt>
      <trkpt lat="47.60342" lon="7.01075">
        <ele>339.6</ele>
        <time>2019-08-16T12:30:33Z</time>
      </trkpt>
      <trkpt lat="47.60338" lon="7.0107">
        <ele>339.6</ele>
        <time>2019-08-16T12:30:34Z</time>
      </trkpt>
      <trkpt lat="47.60335" lon="7.01065">
        <ele>339.6</ele>
        <time>2019-08-16T12:30:35Z</time>
      </trkpt>
      <trkpt lat="47.6033" lon="7.01059">
        <ele>339.6</ele>
        <time>2019-08-16T12:30:36Z</time>
      </trkpt>
      <trkpt lat="47.60326" lon="7.01056">
        <ele>339.6</ele>
        <time>2019-08-16T12:30:37Z</time>
      </trkpt>
      <trkpt lat="47.60322" lon="7.01051">
        <ele>339.6</ele>
        <time>2019-08-16T12:30:38Z</time>
      </trkpt>
      <trkpt lat="47.60318" lon="7.01044">
        <ele>339.6</ele>
        <time>2019-08-16T12:30:39Z</time>
      </trkpt>
      <trkpt lat="47.60315" lon="7.01038">
        <ele>339.6</ele>
        <time>2019-08-16T12:30:40Z</time>
      </trkpt>
      <trkpt lat="47.60312" lon="7.01033">
        <ele>339.6</ele>
        <time>2019-08-16T12:30:41Z</time>
      </trkpt>
      <trkpt lat="47.60308" lon="7.01028">
        <ele>339.6</ele>
        <time>2019-08-16T12:30:42Z</time>
      </trkpt>
      <trkpt lat="47.60305" lon="7.01023">
        <ele>339.6</ele>
        <time>2019-08-16T12:30:43Z</time>
      </trkpt>
      <trkpt lat="47.603" lon="7.01018">
        <ele>339.6</ele>
        <time>2019-08-16T12:30:44Z</time>
      </trkpt>
      <trkpt lat="47.60297" lon="7.01013">
        <ele>339.6</ele>
        <time>2019-08-16T12:30:45Z</time>
      </trkpt>
      <trkpt lat="47.60294" lon="7.01008">
        <ele>339.6</ele>
        <time>2019-08-16T12:30:46Z</time>
      </trkpt>
      <trkpt lat="47.6029" lon="7.01003">
        <ele>339.6</ele>
        <time>2019-08-16T12:30:47Z</time>
      </trkpt>
      <trkpt lat="47.60286" lon="7.00997">
        <ele>339.6</ele>
        <time>2019-08-16T12:30:48Z</time>
      </trkpt>
      <trkpt lat="47.60282" lon="7.00992">
        <ele>339.6</ele>
        <time>2019-08-16T12:30:49Z</time>
      </trkpt>
      <trkpt lat="47.60279" lon="7.00988">
        <ele>339.6</ele>
        <time>2019-08-16T12:30:50Z</time>
      </trkpt>
      <trkpt lat="47.60275" lon="7.00983">
        <ele>339.6</ele>
        <time>2019-08-16T12:30:51Z</time>
      </trkpt>
      <trkpt lat="47.60271" lon="7.00979">
        <ele>339.7</ele>
        <time>2019-08-16T12:30:52Z</time>
      </trkpt>
      <trkpt lat="47.60267" lon="7.00973">
        <ele>339.7</ele>
        <time>2019-08-16T12:30:53Z</time>
      </trkpt>
      <trkpt lat="47.60263" lon="7.00968">
        <ele>339.7</ele>
        <time>2019-08-16T12:30:54Z</time>
      </trkpt>
      <trkpt lat="47.6026" lon="7.00963">
        <ele>339.7</ele>
        <time>2019-08-16T12:30:55Z</time>
      </trkpt>
      <trkpt lat="47.60256" lon="7.0096">
        <ele>339.7</ele>
        <time>2019-08-16T12:30:56Z</time>
      </trkpt>
      <trkpt lat="47.60253" lon="7.00953">
        <ele>339.8</ele>
        <time>2019-08-16T12:30:57Z</time>
      </trkpt>
      <trkpt lat="47.6025" lon="7.00947">
        <ele>339.8</ele>
        <time>2019-08-16T12:30:58Z</time>
      </trkpt>
      <trkpt lat="47.60247" lon="7.00942">
        <ele>339.8</ele>
        <time>2019-08-16T12:30:59Z</time>
      </trkpt>
      <trkpt lat="47.60244" lon="7.00937">
        <ele>339.9</ele>
        <time>2019-08-16T12:31:00Z</time>
      </trkpt>
      <trkpt lat="47.60241" lon="7.00931">
        <ele>340</ele>
        <time>2019-08-16T12:31:01Z</time>
      </trkpt>
      <trkpt lat="47.60237" lon="7.00926">
        <ele>340</ele>
        <time>2019-08-16T12:31:02Z</time>
      </trkpt>
      <trkpt lat="47.60233" lon="7.0092">
        <ele>340.1</ele>
        <time>2019-08-16T12:31:03Z</time>
      </trkpt>
      <trkpt lat="47.60229" lon="7.00915">
        <ele>340.2</ele>
        <time>2019-08-16T12:31:04Z</time>
      </trkpt>
      <trkpt lat="47.60226" lon="7.00909">
        <ele>340.2</ele>
        <time>2019-08-16T12:31:05Z</time>
      </trkpt>
      <trkpt lat="47.60224" lon="7.00903">
        <ele>340.2</ele>
        <time>2019-08-16T12:31:06Z</time>
      </trkpt>
      <trkpt lat="47.60221" lon="7.00897">
        <ele>340.2</ele>
        <time>2019-08-16T12:31:07Z</time>
      </trkpt>
      <trkpt lat="47.60218" lon="7.00893">
        <ele>340.2</ele>
        <time>2019-08-16T12:31:08Z</time>
      </trkpt>
      <trkpt lat="47.60215" lon="7.00887">
        <ele>340.2</ele>
        <time>2019-08-16T12:31:09Z</time>
      </trkpt>
      <trkpt lat="47.60211" lon="7.00882">
        <ele>340.1</ele>
        <time>2019-08-16T12:31:10Z</time>
      </trkpt>
      <trkpt lat="47.60208" lon="7.00877">
        <ele>340.1</ele>
        <time>2019-08-16T12:31:11Z</time>
      </trkpt>
      <trkpt lat="47.60205" lon="7.00872">
        <ele>340</ele>
        <time>2019-08-16T12:31:12Z</time>
      </trkpt>
      <trkpt lat="47.60203" lon="7.00867">
        <ele>340</ele>
        <time>2019-08-16T12:31:13Z</time>
      </trkpt>
      <trkpt lat="47.60199" lon="7.0086">
        <ele>339.9</ele>
        <time>2019-08-16T12:31:14Z</time>
      </trkpt>
      <trkpt lat="47.60196" lon="7.00856">
        <ele>339.8</ele>
        <time>2019-08-16T12:31:15Z</time>
      </trkpt>
      <trkpt lat="47.60193" lon="7.0085">
        <ele>339.8</ele>
        <time>2019-08-16T12:31:16Z</time>
      </trkpt>
      <trkpt lat="47.6019" lon="7.00844">
        <ele>339.7</ele>
        <time>2019-08-16T12:31:17Z</time>
      </trkpt>
      <trkpt lat="47.60187" lon="7.0084">
        <ele>339.7</ele>
        <time>2019-08-16T12:31:18Z</time>
      </trkpt>
      <trkpt lat="47.60183" lon="7.00834">
        <ele>339.7</ele>
        <time>2019-08-16T12:31:19Z</time>
      </trkpt>
      <trkpt lat="47.60179" lon="7.00829">
        <ele>339.7</ele>
        <time>2019-08-16T12:31:20Z</time>
      </trkpt>
      <trkpt lat="47.60176" lon="7.00824">
        <ele>339.7</ele>
        <time>2019-08-16T12:31:21Z</time>
      </trkpt>
      <trkpt lat="47.60173" lon="7.00819">
        <ele>339.7</ele>
        <time>2019-08-16T12:31:22Z</time>
      </trkpt>
      <trkpt lat="47.6017" lon="7.00812">
        <ele>339.7</ele>
        <time>2019-08-16T12:31:23Z</time>
      </trkpt>
      <trkpt lat="47.60167" lon="7.00807">
        <ele>339.7</ele>
        <time>2019-08-16T12:31:24Z</time>
      </trkpt>
      <trkpt lat="47.60165" lon="7.00801">
        <ele>339.7</ele>
        <time>2019-08-16T12:31:25Z</time>
      </trkpt>
      <trkpt lat="47.60163" lon="7.00795">
        <ele>339.7</ele>
        <time>2019-08-16T12:31:26Z</time>
      </trkpt>
      <trkpt lat="47.6016" lon="7.0079">
        <ele>339.7</ele>
        <time>2019-08-16T12:31:27Z</time>
      </trkpt>
      <trkpt lat="47.60156" lon="7.00785">
        <ele>339.7</ele>
        <time>2019-08-16T12:31:28Z</time>
      </trkpt>
      <trkpt lat="47.60152" lon="7.00779">
        <ele>339.8</ele>
        <time>2019-08-16T12:31:29Z</time>
      </trkpt>
      <trkpt lat="47.60149" lon="7.00773">
        <ele>339.8</ele>
        <time>2019-08-16T12:31:30Z</time>
      </trkpt>
      <trkpt lat="47.60145" lon="7.00768">
        <ele>339.9</ele>
        <time>2019-08-16T12:31:31Z</time>
      </trkpt>
      <trkpt lat="47.60141" lon="7.00761">
        <ele>340</ele>
        <time>2019-08-16T12:31:32Z</time>
      </trkpt>
      <trkpt lat="47.60137" lon="7.00756">
        <ele>340.1</ele>
        <time>2019-08-16T12:31:33Z</time>
      </trkpt>
      <trkpt lat="47.60134" lon="7.00751">
        <ele>340.2</ele>
        <time>2019-08-16T12:31:34Z</time>
      </trkpt>
      <trkpt lat="47.6013" lon="7.00745">
        <ele>340.3</ele>
        <time>2019-08-16T12:31:35Z</time>
      </trkpt>
      <trkpt lat="47.60126" lon="7.00739">
        <ele>340.3</ele>
        <time>2019-08-16T12:31:36Z</time>
      </trkpt>
      <trkpt lat="47.60123" lon="7.00734">
        <ele>340.4</ele>
        <time>2019-08-16T12:31:37Z</time>
      </trkpt>
      <trkpt lat="47.6012" lon="7.00728">
        <ele>340.4</ele>
        <time>2019-08-16T12:31:38Z</time>
      </trkpt>
      <trkpt lat="47.60118" lon="7.00721">
        <ele>340.5</ele>
        <time>2019-08-16T12:31:39Z</time>
      </trkpt>
      <trkpt lat="47.60115" lon="7.00715">
        <ele>340.5</ele>
        <time>2019-08-16T12:31:40Z</time>
      </trkpt>
      <trkpt lat="47.60112" lon="7.00709">
        <ele>340.5</ele>
        <time>2019-08-16T12:31:41Z</time>
      </trkpt>
      <trkpt lat="47.60109" lon="7.00702">
        <ele>340.4</ele>
        <time>2019-08-16T12:31:42Z</time>
      </trkpt>
      <trkpt lat="47.60106" lon="7.00696">
        <ele>340.4</ele>
        <time>2019-08-16T12:31:43Z</time>
      </trkpt>
      <trkpt lat="47.60104" lon="7.00689">
        <ele>340.3</ele>
        <time>2019-08-16T12:31:44Z</time>
      </trkpt>
      <trkpt lat="47.60103" lon="7.00683">
        <ele>340.3</ele>
        <time>2019-08-16T12:31:45Z</time>
      </trkpt>
      <trkpt lat="47.60101" lon="7.00677">
        <ele>340.2</ele>
        <time>2019-08-16T12:31:46Z</time>
      </trkpt>
      <trkpt lat="47.60099" lon="7.00671">
        <ele>340.1</ele>
        <time>2019-08-16T12:31:47Z</time>
      </trkpt>
      <trkpt lat="47.60098" lon="7.00663">
        <ele>340</ele>
        <time>2019-08-16T12:31:48Z</time>
      </trkpt>
      <trkpt lat="47.60097" lon="7.00656">
        <ele>340</ele>
        <time>2019-08-16T12:31:49Z</time>
      </trkpt>
      <trkpt lat="47.60096" lon="7.00648">
        <ele>339.9</ele>
        <time>2019-08-16T12:31:50Z</time>
      </trkpt>
      <trkpt lat="47.60095" lon="7.00641">
        <ele>339.8</ele>
        <time>2019-08-16T12:31:51Z</time>
      </trkpt>
      <trkpt lat="47.60094" lon="7.00634">
        <ele>339.8</ele>
        <time>2019-08-16T12:31:52Z</time>
      </trkpt>
      <trkpt lat="47.60094" lon="7.00627">
        <ele>339.7</ele>
        <time>2019-08-16T12:31:53Z</time>
      </trkpt>
      <trkpt lat="47.60093" lon="7.00619">
        <ele>339.7</ele>
        <time>2019-08-16T12:31:54Z</time>
      </trkpt>
      <trkpt lat="47.60092" lon="7.00613">
        <ele>339.7</ele>
        <time>2019-08-16T12:31:55Z</time>
      </trkpt>
      <trkpt lat="47.6009" lon="7.00606">
        <ele>339.7</ele>
        <time>2019-08-16T12:31:56Z</time>
      </trkpt>
      <trkpt lat="47.60088" lon="7.00599">
        <ele>339.7</ele>
        <time>2019-08-16T12:31:57Z</time>
      </trkpt>
      <trkpt lat="47.60088" lon="7.00591">
        <ele>339.7</ele>
        <time>2019-08-16T12:31:58Z</time>
      </trkpt>
      <trkpt lat="47.60088" lon="7.00585">
        <ele>339.7</ele>
        <time>2019-08-16T12:31:59Z</time>
      </trkpt>
      <trkpt lat="47.60089" lon="7.00577">
        <ele>339.7</ele>
        <time>2019-08-16T12:32:00Z</time>
      </trkpt>
      <trkpt lat="47.60089" lon="7.0057">
        <ele>339.7</ele>
        <time>2019-08-16T12:32:01Z</time>
      </trkpt>
      <trkpt lat="47.60088" lon="7.00564">
        <ele>339.7</ele>
        <time>2019-08-16T12:32:02Z</time>
      </trkpt>
      <trkpt lat="47.60088" lon="7.00557">
        <ele>339.7</ele>
        <time>2019-08-16T12:32:03Z</time>
      </trkpt>
      <trkpt lat="47.60089" lon="7.0055">
        <ele>339.7</ele>
        <time>2019-08-16T12:32:04Z</time>
      </trkpt>
      <trkpt lat="47.60089" lon="7.00542">
        <ele>339.7</ele>
        <time>2019-08-16T12:32:05Z</time>
      </trkpt>
      <trkpt lat="47.60089" lon="7.00535">
        <ele>339.7</ele>
        <time>2019-08-16T12:32:06Z</time>
      </trkpt>
      <trkpt lat="47.60089" lon="7.00528">
        <ele>339.7</ele>
        <time>2019-08-16T12:32:07Z</time>
      </trkpt>
      <trkpt lat="47.6009" lon="7.00521">
        <ele>339.7</ele>
        <time>2019-08-16T12:32:08Z</time>
      </trkpt>
      <trkpt lat="47.60088" lon="7.00514">
        <ele>339.7</ele>
        <time>2019-08-16T12:32:09Z</time>
      </trkpt>
      <trkpt lat="47.60088" lon="7.00506">
        <ele>339.7</ele>
        <time>2019-08-16T12:32:10Z</time>
      </trkpt>
      <trkpt lat="47.60088" lon="7.00498">
        <ele>339.7</ele>
        <time>2019-08-16T12:32:11Z</time>
      </trkpt>
      <trkpt lat="47.60088" lon="7.00491">
        <ele>339.7</ele>
        <time>2019-08-16T12:32:12Z</time>
      </trkpt>
      <trkpt lat="47.60088" lon="7.00484">
        <ele>339.7</ele>
        <time>2019-08-16T12:32:13Z</time>
      </trkpt>
      <trkpt lat="47.60088" lon="7.00476">
        <ele>339.7</ele>
        <time>2019-08-16T12:32:14Z</time>
      </trkpt>
      <trkpt lat="47.60088" lon="7.00469">
        <ele>339.7</ele>
        <time>2019-08-16T12:32:15Z</time>
      </trkpt>
      <trkpt lat="47.60088" lon="7.00461">
        <ele>339.7</ele>
        <time>2019-08-16T12:32:16Z</time>
      </trkpt>
      <trkpt lat="47.60088" lon="7.00454">
        <ele>339.7</ele>
        <time>2019-08-16T12:32:17Z</time>
      </trkpt>
      <trkpt lat="47.60088" lon="7.00447">
        <ele>339.7</ele>
        <time>2019-08-16T12:32:18Z</time>
      </trkpt>
      <trkpt lat="47.60089" lon="7.00439">
        <ele>339.7</ele>
        <time>2019-08-16T12:32:19Z</time>
      </trkpt>
      <trkpt lat="47.60088" lon="7.00431">
        <ele>339.7</ele>
        <time>2019-08-16T12:32:20Z</time>
      </trkpt>
      <trkpt lat="47.60088" lon="7.00424">
        <ele>339.7</ele>
        <time>2019-08-16T12:32:21Z</time>
      </trkpt>
      <trkpt lat="47.60088" lon="7.00416">
        <ele>339.7</ele>
        <time>2019-08-16T12:32:22Z</time>
      </trkpt>
      <trkpt lat="47.60089" lon="7.00409">
        <ele>339.7</ele>
        <time>2019-08-16T12:32:23Z</time>
      </trkpt>
      <trkpt lat="47.6009" lon="7.00401">
        <ele>339.7</ele>
        <time>2019-08-16T12:32:24Z</time>
      </trkpt>
      <trkpt lat="47.6009" lon="7.00395">
        <ele>339.7</ele>
        <time>2019-08-16T12:32:25Z</time>
      </trkpt>
      <trkpt lat="47.6009" lon="7.00388">
        <ele>339.7</ele>
        <time>2019-08-16T12:32:26Z</time>
      </trkpt>
      <trkpt lat="47.60091" lon="7.0038">
        <ele>339.7</ele>
        <time>2019-08-16T12:32:27Z</time>
      </trkpt>
      <trkpt lat="47.60092" lon="7.00374">
        <ele>339.7</ele>
        <time>2019-08-16T12:32:28Z</time>
      </trkpt>
      <trkpt lat="47.60093" lon="7.00368">
        <ele>339.7</ele>
        <time>2019-08-16T12:32:29Z</time>
      </trkpt>
      <trkpt lat="47.60094" lon="7.00361">
        <ele>339.7</ele>
        <time>2019-08-16T12:32:30Z</time>
      </trkpt>
      <trkpt lat="47.60096" lon="7.00354">
        <ele>339.7</ele>
        <time>2019-08-16T12:32:31Z</time>
      </trkpt>
      <trkpt lat="47.60098" lon="7.00346">
        <ele>339.7</ele>
        <time>2019-08-16T12:32:32Z</time>
      </trkpt>
      <trkpt lat="47.601" lon="7.00338">
        <ele>339.7</ele>
        <time>2019-08-16T12:32:33Z</time>
      </trkpt>
      <trkpt lat="47.60101" lon="7.00331">
        <ele>339.7</ele>
        <time>2019-08-16T12:32:34Z</time>
      </trkpt>
      <trkpt lat="47.60102" lon="7.00324">
        <ele>339.7</ele>
        <time>2019-08-16T12:32:35Z</time>
      </trkpt>
      <trkpt lat="47.60103" lon="7.00317">
        <ele>339.7</ele>
        <time>2019-08-16T12:32:36Z</time>
      </trkpt>
      <trkpt lat="47.60104" lon="7.00311">
        <ele>339.7</ele>
        <time>2019-08-16T12:32:37Z</time>
      </trkpt>
      <trkpt lat="47.60105" lon="7.00305">
        <ele>339.7</ele>
        <time>2019-08-16T12:32:38Z</time>
      </trkpt>
      <trkpt lat="47.60106" lon="7.00298">
        <ele>339.7</ele>
        <time>2019-08-16T12:32:39Z</time>
      </trkpt>
      <trkpt lat="47.60108" lon="7.00291">
        <ele>339.7</ele>
        <time>2019-08-16T12:32:40Z</time>
      </trkpt>
      <trkpt lat="47.60109" lon="7.00286">
        <ele>339.7</ele>
        <time>2019-08-16T12:32:41Z</time>
      </trkpt>
      <trkpt lat="47.60111" lon="7.0028">
        <ele>339.7</ele>
        <time>2019-08-16T12:32:42Z</time>
      </trkpt>
      <trkpt lat="47.60112" lon="7.00273">
        <ele>339.7</ele>
        <time>2019-08-16T12:32:43Z</time>
      </trkpt>
      <trkpt lat="47.60113" lon="7.00267">
        <ele>339.7</ele>
        <time>2019-08-16T12:32:44Z</time>
      </trkpt>
      <trkpt lat="47.60114" lon="7.00261">
        <ele>339.7</ele>
        <time>2019-08-16T12:32:45Z</time>
      </trkpt>
      <trkpt lat="47.60114" lon="7.00257">
        <ele>339.7</ele>
        <time>2019-08-16T12:32:46Z</time>
      </trkpt>
      <trkpt lat="47.60116" lon="7.00252">
        <ele>339.7</ele>
        <time>2019-08-16T12:32:47Z</time>
      </trkpt>
      <trkpt lat="47.60117" lon="7.00248">
        <ele>339.7</ele>
        <time>2019-08-16T12:32:48Z</time>
      </trkpt>
      <trkpt lat="47.60119" lon="7.00242">
        <ele>339.7</ele>
        <time>2019-08-16T12:32:49Z</time>
      </trkpt>
      <trkpt lat="47.6012" lon="7.00237">
        <ele>339.6</ele>
        <time>2019-08-16T12:32:50Z</time>
      </trkpt>
      <trkpt lat="47.60121" lon="7.00231">
        <ele>339.5</ele>
        <time>2019-08-16T12:32:51Z</time>
      </trkpt>
      <trkpt lat="47.60123" lon="7.00226">
        <ele>339.4</ele>
        <time>2019-08-16T12:32:52Z</time>
      </trkpt>
      <trkpt lat="47.60126" lon="7.0022">
        <ele>339.3</ele>
        <time>2019-08-16T12:32:53Z</time>
      </trkpt>
      <trkpt lat="47.60128" lon="7.00215">
        <ele>339.2</ele>
        <time>2019-08-16T12:32:54Z</time>
      </trkpt>
      <trkpt lat="47.6013" lon="7.00209">
        <ele>339</ele>
        <time>2019-08-16T12:32:55Z</time>
      </trkpt>
      <trkpt lat="47.60132" lon="7.00203">
        <ele>338.9</ele>
        <time>2019-08-16T12:32:56Z</time>
      </trkpt>
      <trkpt lat="47.60133" lon="7.00196">
        <ele>338.7</ele>
        <time>2019-08-16T12:32:57Z</time>
      </trkpt>
      <trkpt lat="47.60134" lon="7.0019">
        <ele>338.6</ele>
        <time>2019-08-16T12:32:58Z</time>
      </trkpt>
      <trkpt lat="47.60135" lon="7.00182">
        <ele>338.4</ele>
        <time>2019-08-16T12:32:59Z</time>
      </trkpt>
      <trkpt lat="47.60137" lon="7.00175">
        <ele>338.3</ele>
        <time>2019-08-16T12:33:00Z</time>
      </trkpt>
      <trkpt lat="47.60139" lon="7.00167">
        <ele>338.1</ele>
        <time>2019-08-16T12:33:01Z</time>
      </trkpt>
      <trkpt lat="47.60142" lon="7.00157">
        <ele>337.8</ele>
        <time>2019-08-16T12:33:02Z</time>
      </trkpt>
      <trkpt lat="47.60143" lon="7.00146">
        <ele>337.5</ele>
        <time>2019-08-16T12:33:03Z</time>
      </trkpt>
      <trkpt lat="47.60142" lon="7.00135">
        <ele>337.3</ele>
        <time>2019-08-16T12:33:04Z</time>
      </trkpt>
      <trkpt lat="47.60141" lon="7.00127">
        <ele>337.1</ele>
        <time>2019-08-16T12:33:05Z</time>
      </trkpt>
      <trkpt lat="47.60141" lon="7.00119">
        <ele>337.1</ele>
        <time>2019-08-16T12:33:06Z</time>
      </trkpt>
      <trkpt lat="47.6014" lon="7.00112">
        <ele>337.1</ele>
        <time>2019-08-16T12:33:07Z</time>
      </trkpt>
      <trkpt lat="47.6014" lon="7.00104">
        <ele>337.1</ele>
        <time>2019-08-16T12:33:08Z</time>
      </trkpt>
      <trkpt lat="47.6014" lon="7.00096">
        <ele>337.1</ele>
        <time>2019-08-16T12:33:09Z</time>
      </trkpt>
      <trkpt lat="47.60139" lon="7.0009">
        <ele>337.1</ele>
        <time>2019-08-16T12:33:10Z</time>
      </trkpt>
      <trkpt lat="47.60139" lon="7.00083">
        <ele>337.1</ele>
        <time>2019-08-16T12:33:11Z</time>
      </trkpt>
      <trkpt lat="47.60139" lon="7.00075">
        <ele>337.1</ele>
        <time>2019-08-16T12:33:12Z</time>
      </trkpt>
      <trkpt lat="47.60138" lon="7.00068">
        <ele>337.1</ele>
        <time>2019-08-16T12:33:13Z</time>
      </trkpt>
      <trkpt lat="47.60136" lon="7.00061">
        <ele>337.1</ele>
        <time>2019-08-16T12:33:14Z</time>
      </trkpt>
      <trkpt lat="47.60135" lon="7.00053">
        <ele>337.1</ele>
        <time>2019-08-16T12:33:15Z</time>
      </trkpt>
      <trkpt lat="47.60135" lon="7.00046">
        <ele>337.1</ele>
        <time>2019-08-16T12:33:16Z</time>
      </trkpt>
      <trkpt lat="47.60134" lon="7.00039">
        <ele>337.1</ele>
        <time>2019-08-16T12:33:17Z</time>
      </trkpt>
      <trkpt lat="47.60133" lon="7.00032">
        <ele>337.1</ele>
        <time>2019-08-16T12:33:18Z</time>
      </trkpt>
      <trkpt lat="47.60131" lon="7.00025">
        <ele>337.1</ele>
        <time>2019-08-16T12:33:19Z</time>
      </trkpt>
      <trkpt lat="47.60128" lon="7.0002">
        <ele>337.1</ele>
        <time>2019-08-16T12:33:20Z</time>
      </trkpt>
      <trkpt lat="47.60126" lon="7.00013">
        <ele>337.1</ele>
        <time>2019-08-16T12:33:21Z</time>
      </trkpt>
      <trkpt lat="47.60124" lon="7.00006">
        <ele>337.1</ele>
        <time>2019-08-16T12:33:22Z</time>
      </trkpt>
      <trkpt lat="47.60123" lon="7">
        <ele>337.1</ele>
        <time>2019-08-16T12:33:23Z</time>
      </trkpt>
      <trkpt lat="47.60119" lon="6.99993">
        <ele>337.1</ele>
        <time>2019-08-16T12:33:24Z</time>
      </trkpt>
      <trkpt lat="47.60117" lon="6.99986">
        <ele>337.1</ele>
        <time>2019-08-16T12:33:25Z</time>
      </trkpt>
      <trkpt lat="47.60114" lon="6.99979">
        <ele>337.1</ele>
        <time>2019-08-16T12:33:26Z</time>
      </trkpt>
      <trkpt lat="47.60112" lon="6.99972">
        <ele>337.1</ele>
        <time>2019-08-16T12:33:27Z</time>
      </trkpt>
      <trkpt lat="47.60109" lon="6.99966">
        <ele>337.1</ele>
        <time>2019-08-16T12:33:28Z</time>
      </trkpt>
      <trkpt lat="47.60106" lon="6.99959">
        <ele>337.1</ele>
        <time>2019-08-16T12:33:29Z</time>
      </trkpt>
      <trkpt lat="47.60103" lon="6.99953">
        <ele>337.1</ele>
        <time>2019-08-16T12:33:30Z</time>
      </trkpt>
      <trkpt lat="47.601" lon="6.99947">
        <ele>337.1</ele>
        <time>2019-08-16T12:33:31Z</time>
      </trkpt>
      <trkpt lat="47.60097" lon="6.99943">
        <ele>337.1</ele>
        <time>2019-08-16T12:33:32Z</time>
      </trkpt>
      <trkpt lat="47.60095" lon="6.99937">
        <ele>337.1</ele>
        <time>2019-08-16T12:33:33Z</time>
      </trkpt>
      <trkpt lat="47.60092" lon="6.99932">
        <ele>337.1</ele>
        <time>2019-08-16T12:33:34Z</time>
      </trkpt>
      <trkpt lat="47.60089" lon="6.99928">
        <ele>337.1</ele>
        <time>2019-08-16T12:33:35Z</time>
      </trkpt>
      <trkpt lat="47.60086" lon="6.99923">
        <ele>337.1</ele>
        <time>2019-08-16T12:33:36Z</time>
      </trkpt>
      <trkpt lat="47.60083" lon="6.99917">
        <ele>337.1</ele>
        <time>2019-08-16T12:33:37Z</time>
      </trkpt>
      <trkpt lat="47.6008" lon="6.99914">
        <ele>337.1</ele>
        <time>2019-08-16T12:33:38Z</time>
      </trkpt>
      <trkpt lat="47.60078" lon="6.99908">
        <ele>337.1</ele>
        <time>2019-08-16T12:33:39Z</time>
      </trkpt>
      <trkpt lat="47.60076" lon="6.99902">
        <ele>337.1</ele>
        <time>2019-08-16T12:33:40Z</time>
      </trkpt>
      <trkpt lat="47.60073" lon="6.99896">
        <ele>337.1</ele>
        <time>2019-08-16T12:33:41Z</time>
      </trkpt>
      <trkpt lat="47.6007" lon="6.9989">
        <ele>337.1</ele>
        <time>2019-08-16T12:33:42Z</time>
      </trkpt>
      <trkpt lat="47.60067" lon="6.99884">
        <ele>337.1</ele>
        <time>2019-08-16T12:33:43Z</time>
      </trkpt>
      <trkpt lat="47.60063" lon="6.99878">
        <ele>337.1</ele>
        <time>2019-08-16T12:33:44Z</time>
      </trkpt>
      <trkpt lat="47.60059" lon="6.99873">
        <ele>337.1</ele>
        <time>2019-08-16T12:33:45Z</time>
      </trkpt>
      <trkpt lat="47.60055" lon="6.99869">
        <ele>337.1</ele>
        <time>2019-08-16T12:33:46Z</time>
      </trkpt>
      <trkpt lat="47.6005" lon="6.99862">
        <ele>337.1</ele>
        <time>2019-08-16T12:33:47Z</time>
      </trkpt>
      <trkpt lat="47.60046" lon="6.99857">
        <ele>337.1</ele>
        <time>2019-08-16T12:33:48Z</time>
      </trkpt>
      <trkpt lat="47.60042" lon="6.99852">
        <ele>337.1</ele>
        <time>2019-08-16T12:33:49Z</time>
      </trkpt>
      <trkpt lat="47.60038" lon="6.99847">
        <ele>337.1</ele>
        <time>2019-08-16T12:33:50Z</time>
      </trkpt>
      <trkpt lat="47.60035" lon="6.99843">
        <ele>337.1</ele>
        <time>2019-08-16T12:33:51Z</time>
      </trkpt>
      <trkpt lat="47.60031" lon="6.99837">
        <ele>337.1</ele>
        <time>2019-08-16T12:33:52Z</time>
      </trkpt>
      <trkpt lat="47.60028" lon="6.99833">
        <ele>337.1</ele>
        <time>2019-08-16T12:33:53Z</time>
      </trkpt>
      <trkpt lat="47.60025" lon="6.99829">
        <ele>337.1</ele>
        <time>2019-08-16T12:33:54Z</time>
      </trkpt>
      <trkpt lat="47.60021" lon="6.99824">
        <ele>337.1</ele>
        <time>2019-08-16T12:33:55Z</time>
      </trkpt>
      <trkpt lat="47.60017" lon="6.9982">
        <ele>337.1</ele>
        <time>2019-08-16T12:33:56Z</time>
      </trkpt>
      <trkpt lat="47.60012" lon="6.99815">
        <ele>337.1</ele>
        <time>2019-08-16T12:33:57Z</time>
      </trkpt>
      <trkpt lat="47.60007" lon="6.99811">
        <ele>337.1</ele>
        <time>2019-08-16T12:33:58Z</time>
      </trkpt>
      <trkpt lat="47.60002" lon="6.99807">
        <ele>337.1</ele>
        <time>2019-08-16T12:33:59Z</time>
      </trkpt>
      <trkpt lat="47.59998" lon="6.99801">
        <ele>337.1</ele>
        <time>2019-08-16T12:34:00Z</time>
      </trkpt>
      <trkpt lat="47.59994" lon="6.99797">
        <ele>337.1</ele>
        <time>2019-08-16T12:34:01Z</time>
      </trkpt>
      <trkpt lat="47.5999" lon="6.99792">
        <ele>337.1</ele>
        <time>2019-08-16T12:34:02Z</time>
      </trkpt>
      <trkpt lat="47.59986" lon="6.99788">
        <ele>337.1</ele>
        <time>2019-08-16T12:34:03Z</time>
      </trkpt>
      <trkpt lat="47.59982" lon="6.99785">
        <ele>337</ele>
        <time>2019-08-16T12:34:04Z</time>
      </trkpt>
      <trkpt lat="47.59978" lon="6.9978">
        <ele>337</ele>
        <time>2019-08-16T12:34:05Z</time>
      </trkpt>
      <trkpt lat="47.59974" lon="6.99776">
        <ele>337</ele>
        <time>2019-08-16T12:34:06Z</time>
      </trkpt>
      <trkpt lat="47.5997" lon="6.99773">
        <ele>337</ele>
        <time>2019-08-16T12:34:07Z</time>
      </trkpt>
      <trkpt lat="47.59966" lon="6.99769">
        <ele>337</ele>
        <time>2019-08-16T12:34:08Z</time>
      </trkpt>
      <trkpt lat="47.59963" lon="6.99763">
        <ele>337</ele>
        <time>2019-08-16T12:34:09Z</time>
      </trkpt>
      <trkpt lat="47.59959" lon="6.99758">
        <ele>337</ele>
        <time>2019-08-16T12:34:10Z</time>
      </trkpt>
      <trkpt lat="47.59955" lon="6.99754">
        <ele>336.9</ele>
        <time>2019-08-16T12:34:11Z</time>
      </trkpt>
      <trkpt lat="47.59951" lon="6.99749">
        <ele>336.9</ele>
        <time>2019-08-16T12:34:12Z</time>
      </trkpt>
      <trkpt lat="47.59948" lon="6.99745">
        <ele>336.9</ele>
        <time>2019-08-16T12:34:13Z</time>
      </trkpt>
      <trkpt lat="47.59944" lon="6.99741">
        <ele>336.9</ele>
        <time>2019-08-16T12:34:14Z</time>
      </trkpt>
      <trkpt lat="47.5994" lon="6.99735">
        <ele>336.9</ele>
        <time>2019-08-16T12:34:15Z</time>
      </trkpt>
      <trkpt lat="47.59936" lon="6.9973">
        <ele>336.9</ele>
        <time>2019-08-16T12:34:16Z</time>
      </trkpt>
      <trkpt lat="47.59932" lon="6.99726">
        <ele>336.9</ele>
        <time>2019-08-16T12:34:17Z</time>
      </trkpt>
      <trkpt lat="47.59928" lon="6.99721">
        <ele>336.9</ele>
        <time>2019-08-16T12:34:18Z</time>
      </trkpt>
      <trkpt lat="47.59923" lon="6.99717">
        <ele>336.8</ele>
        <time>2019-08-16T12:34:19Z</time>
      </trkpt>
      <trkpt lat="47.5992" lon="6.99713">
        <ele>336.8</ele>
        <time>2019-08-16T12:34:20Z</time>
      </trkpt>
      <trkpt lat="47.59915" lon="6.99709">
        <ele>336.8</ele>
        <time>2019-08-16T12:34:21Z</time>
      </trkpt>
      <trkpt lat="47.59911" lon="6.99705">
        <ele>336.8</ele>
        <time>2019-08-16T12:34:22Z</time>
      </trkpt>
      <trkpt lat="47.59907" lon="6.997">
        <ele>336.8</ele>
        <time>2019-08-16T12:34:23Z</time>
      </trkpt>
      <trkpt lat="47.59903" lon="6.99695">
        <ele>336.8</ele>
        <time>2019-08-16T12:34:24Z</time>
      </trkpt>
      <trkpt lat="47.59899" lon="6.9969">
        <ele>336.7</ele>
        <time>2019-08-16T12:34:25Z</time>
      </trkpt>
      <trkpt lat="47.59894" lon="6.99686">
        <ele>336.7</ele>
        <time>2019-08-16T12:34:26Z</time>
      </trkpt>
      <trkpt lat="47.5989" lon="6.9968">
        <ele>336.7</ele>
        <time>2019-08-16T12:34:27Z</time>
      </trkpt>
      <trkpt lat="47.59886" lon="6.99677">
        <ele>336.7</ele>
        <time>2019-08-16T12:34:28Z</time>
      </trkpt>
      <trkpt lat="47.59881" lon="6.99672">
        <ele>336.7</ele>
        <time>2019-08-16T12:34:29Z</time>
      </trkpt>
      <trkpt lat="47.59876" lon="6.99669">
        <ele>336.7</ele>
        <time>2019-08-16T12:34:30Z</time>
      </trkpt>
      <trkpt lat="47.59871" lon="6.99665">
        <ele>336.7</ele>
        <time>2019-08-16T12:34:31Z</time>
      </trkpt>
      <trkpt lat="47.59868" lon="6.99662">
        <ele>336.7</ele>
        <time>2019-08-16T12:34:32Z</time>
      </trkpt>
      <trkpt lat="47.59863" lon="6.99658">
        <ele>336.7</ele>
        <time>2019-08-16T12:34:33Z</time>
      </trkpt>
      <trkpt lat="47.5986" lon="6.99654">
        <ele>336.7</ele>
        <time>2019-08-16T12:34:34Z</time>
      </trkpt>
      <trkpt lat="47.59856" lon="6.99648">
        <ele>336.7</ele>
        <time>2019-08-16T12:34:35Z</time>
      </trkpt>
      <trkpt lat="47.59852" lon="6.99643">
        <ele>336.7</ele>
        <time>2019-08-16T12:34:36Z</time>
      </trkpt>
      <trkpt lat="47.59848" lon="6.99638">
        <ele>336.7</ele>
        <time>2019-08-16T12:34:37Z</time>
      </trkpt>
      <trkpt lat="47.59845" lon="6.99633">
        <ele>336.7</ele>
        <time>2019-08-16T12:34:38Z</time>
      </trkpt>
      <trkpt lat="47.5984" lon="6.99629">
        <ele>336.6</ele>
        <time>2019-08-16T12:34:39Z</time>
      </trkpt>
      <trkpt lat="47.59835" lon="6.99624">
        <ele>336.6</ele>
        <time>2019-08-16T12:34:40Z</time>
      </trkpt>
      <trkpt lat="47.59831" lon="6.99619">
        <ele>336.6</ele>
        <time>2019-08-16T12:34:41Z</time>
      </trkpt>
      <trkpt lat="47.59827" lon="6.99614">
        <ele>336.6</ele>
        <time>2019-08-16T12:34:42Z</time>
      </trkpt>
      <trkpt lat="47.59823" lon="6.99609">
        <ele>336.6</ele>
        <time>2019-08-16T12:34:43Z</time>
      </trkpt>
      <trkpt lat="47.5982" lon="6.99604">
        <ele>336.6</ele>
        <time>2019-08-16T12:34:44Z</time>
      </trkpt>
      <trkpt lat="47.59816" lon="6.99599">
        <ele>336.6</ele>
        <time>2019-08-16T12:34:45Z</time>
      </trkpt>
      <trkpt lat="47.59813" lon="6.99594">
        <ele>336.6</ele>
        <time>2019-08-16T12:34:46Z</time>
      </trkpt>
      <trkpt lat="47.59809" lon="6.99589">
        <ele>336.6</ele>
        <time>2019-08-16T12:34:47Z</time>
      </trkpt>
      <trkpt lat="47.59804" lon="6.99585">
        <ele>336.5</ele>
        <time>2019-08-16T12:34:48Z</time>
      </trkpt>
      <trkpt lat="47.59799" lon="6.99581">
        <ele>336.5</ele>
        <time>2019-08-16T12:34:49Z</time>
      </trkpt>
      <trkpt lat="47.59795" lon="6.99576">
        <ele>336.5</ele>
        <time>2019-08-16T12:34:50Z</time>
      </trkpt>
      <trkpt lat="47.59791" lon="6.99573">
        <ele>336.5</ele>
        <time>2019-08-16T12:34:51Z</time>
      </trkpt>
      <trkpt lat="47.59787" lon="6.99569">
        <ele>336.5</ele>
        <time>2019-08-16T12:34:52Z</time>
      </trkpt>
      <trkpt lat="47.59783" lon="6.99563">
        <ele>336.5</ele>
        <time>2019-08-16T12:34:53Z</time>
      </trkpt>
      <trkpt lat="47.59778" lon="6.99559">
        <ele>336.5</ele>
        <time>2019-08-16T12:34:54Z</time>
      </trkpt>
      <trkpt lat="47.59775" lon="6.99556">
        <ele>336.5</ele>
        <time>2019-08-16T12:34:55Z</time>
      </trkpt>
      <trkpt lat="47.59771" lon="6.99552">
        <ele>336.5</ele>
        <time>2019-08-16T12:34:56Z</time>
      </trkpt>
      <trkpt lat="47.59767" lon="6.99548">
        <ele>336.5</ele>
        <time>2019-08-16T12:34:57Z</time>
      </trkpt>
      <trkpt lat="47.59763" lon="6.99544">
        <ele>336.5</ele>
        <time>2019-08-16T12:34:58Z</time>
      </trkpt>
      <trkpt lat="47.59759" lon="6.99541">
        <ele>336.5</ele>
        <time>2019-08-16T12:34:59Z</time>
      </trkpt>
      <trkpt lat="47.59754" lon="6.99537">
        <ele>336.5</ele>
        <time>2019-08-16T12:35:00Z</time>
      </trkpt>
      <trkpt lat="47.5975" lon="6.99532">
        <ele>336.4</ele>
        <time>2019-08-16T12:35:01Z</time>
      </trkpt>
      <trkpt lat="47.59746" lon="6.99527">
        <ele>336.4</ele>
        <time>2019-08-16T12:35:02Z</time>
      </trkpt>
      <trkpt lat="47.59742" lon="6.99522">
        <ele>336.4</ele>
        <time>2019-08-16T12:35:03Z</time>
      </trkpt>
      <trkpt lat="47.59738" lon="6.99518">
        <ele>336.4</ele>
        <time>2019-08-16T12:35:04Z</time>
      </trkpt>
      <trkpt lat="47.59735" lon="6.99515">
        <ele>336.4</ele>
        <time>2019-08-16T12:35:05Z</time>
      </trkpt>
      <trkpt lat="47.59731" lon="6.99512">
        <ele>336.4</ele>
        <time>2019-08-16T12:35:06Z</time>
      </trkpt>
      <trkpt lat="47.59727" lon="6.99507">
        <ele>336.4</ele>
        <time>2019-08-16T12:35:07Z</time>
      </trkpt>
      <trkpt lat="47.59724" lon="6.99502">
        <ele>336.4</ele>
        <time>2019-08-16T12:35:08Z</time>
      </trkpt>
      <trkpt lat="47.5972" lon="6.99497">
        <ele>336.4</ele>
        <time>2019-08-16T12:35:09Z</time>
      </trkpt>
      <trkpt lat="47.59717" lon="6.99493">
        <ele>336.4</ele>
        <time>2019-08-16T12:35:10Z</time>
      </trkpt>
      <trkpt lat="47.59714" lon="6.99487">
        <ele>336.4</ele>
        <time>2019-08-16T12:35:11Z</time>
      </trkpt>
      <trkpt lat="47.5971" lon="6.99483">
        <ele>336.4</ele>
        <time>2019-08-16T12:35:12Z</time>
      </trkpt>
      <trkpt lat="47.59707" lon="6.99478">
        <ele>336.4</ele>
        <time>2019-08-16T12:35:13Z</time>
      </trkpt>
      <trkpt lat="47.59704" lon="6.99473">
        <ele>336.3</ele>
        <time>2019-08-16T12:35:14Z</time>
      </trkpt>
      <trkpt lat="47.59701" lon="6.99468">
        <ele>336.3</ele>
        <time>2019-08-16T12:35:15Z</time>
      </trkpt>
      <trkpt lat="47.59698" lon="6.99464">
        <ele>336.3</ele>
        <time>2019-08-16T12:35:16Z</time>
      </trkpt>
      <trkpt lat="47.59695" lon="6.99458">
        <ele>336.3</ele>
        <time>2019-08-16T12:35:17Z</time>
      </trkpt>
      <trkpt lat="47.59692" lon="6.99453">
        <ele>336.3</ele>
        <time>2019-08-16T12:35:18Z</time>
      </trkpt>
      <trkpt lat="47.59688" lon="6.99448">
        <ele>336.3</ele>
        <time>2019-08-16T12:35:19Z</time>
      </trkpt>
      <trkpt lat="47.59685" lon="6.99443">
        <ele>336.3</ele>
        <time>2019-08-16T12:35:20Z</time>
      </trkpt>
      <trkpt lat="47.59681" lon="6.99438">
        <ele>336.3</ele>
        <time>2019-08-16T12:35:21Z</time>
      </trkpt>
      <trkpt lat="47.59678" lon="6.99432">
        <ele>336.3</ele>
        <time>2019-08-16T12:35:22Z</time>
      </trkpt>
      <trkpt lat="47.59675" lon="6.99426">
        <ele>336.3</ele>
        <time>2019-08-16T12:35:23Z</time>
      </trkpt>
      <trkpt lat="47.59673" lon="6.9942">
        <ele>336.2</ele>
        <time>2019-08-16T12:35:24Z</time>
      </trkpt>
      <trkpt lat="47.59669" lon="6.99414">
        <ele>336.2</ele>
        <time>2019-08-16T12:35:25Z</time>
      </trkpt>
      <trkpt lat="47.59666" lon="6.99407">
        <ele>336.2</ele>
        <time>2019-08-16T12:35:26Z</time>
      </trkpt>
      <trkpt lat="47.59663" lon="6.994">
        <ele>336.2</ele>
        <time>2019-08-16T12:35:27Z</time>
      </trkpt>
      <trkpt lat="47.59659" lon="6.99394">
        <ele>336.2</ele>
        <time>2019-08-16T12:35:28Z</time>
      </trkpt>
      <trkpt lat="47.59656" lon="6.99388">
        <ele>336.2</ele>
        <time>2019-08-16T12:35:29Z</time>
      </trkpt>
      <trkpt lat="47.59653" lon="6.99382">
        <ele>336.2</ele>
        <time>2019-08-16T12:35:30Z</time>
      </trkpt>
      <trkpt lat="47.5965" lon="6.99375">
        <ele>336.2</ele>
        <time>2019-08-16T12:35:31Z</time>
      </trkpt>
      <trkpt lat="47.59647" lon="6.9937">
        <ele>336.2</ele>
        <time>2019-08-16T12:35:32Z</time>
      </trkpt>
      <trkpt lat="47.59644" lon="6.99363">
        <ele>336.2</ele>
        <time>2019-08-16T12:35:33Z</time>
      </trkpt>
      <trkpt lat="47.59641" lon="6.99357">
        <ele>336.2</ele>
        <time>2019-08-16T12:35:34Z</time>
      </trkpt>
      <trkpt lat="47.59638" lon="6.9935">
        <ele>336.1</ele>
        <time>2019-08-16T12:35:35Z</time>
      </trkpt>
      <trkpt lat="47.59635" lon="6.99344">
        <ele>336.1</ele>
        <time>2019-08-16T12:35:36Z</time>
      </trkpt>
      <trkpt lat="47.59633" lon="6.99337">
        <ele>336.1</ele>
        <time>2019-08-16T12:35:37Z</time>
      </trkpt>
      <trkpt lat="47.5963" lon="6.99331">
        <ele>336.1</ele>
        <time>2019-08-16T12:35:38Z</time>
      </trkpt>
      <trkpt lat="47.59628" lon="6.99325">
        <ele>336.1</ele>
        <time>2019-08-16T12:35:39Z</time>
      </trkpt>
      <trkpt lat="47.59625" lon="6.99318">
        <ele>336.1</ele>
        <time>2019-08-16T12:35:40Z</time>
      </trkpt>
      <trkpt lat="47.59623" lon="6.99311">
        <ele>336.1</ele>
        <time>2019-08-16T12:35:41Z</time>
      </trkpt>
      <trkpt lat="47.59622" lon="6.99305">
        <ele>336.1</ele>
        <time>2019-08-16T12:35:42Z</time>
      </trkpt>
      <trkpt lat="47.5962" lon="6.99298">
        <ele>336.1</ele>
        <time>2019-08-16T12:35:43Z</time>
      </trkpt>
      <trkpt lat="47.59617" lon="6.99291">
        <ele>336.1</ele>
        <time>2019-08-16T12:35:44Z</time>
      </trkpt>
      <trkpt lat="47.59616" lon="6.99284">
        <ele>336.1</ele>
        <time>2019-08-16T12:35:45Z</time>
      </trkpt>
      <trkpt lat="47.59613" lon="6.99276">
        <ele>336.1</ele>
        <time>2019-08-16T12:35:46Z</time>
      </trkpt>
      <trkpt lat="47.59611" lon="6.99269">
        <ele>336</ele>
        <time>2019-08-16T12:35:47Z</time>
      </trkpt>
      <trkpt lat="47.59609" lon="6.99262">
        <ele>336</ele>
        <time>2019-08-16T12:35:48Z</time>
      </trkpt>
      <trkpt lat="47.59607" lon="6.99255">
        <ele>336</ele>
        <time>2019-08-16T12:35:49Z</time>
      </trkpt>
      <trkpt lat="47.59606" lon="6.99247">
        <ele>336</ele>
        <time>2019-08-16T12:35:50Z</time>
      </trkpt>
      <trkpt lat="47.59604" lon="6.9924">
        <ele>336</ele>
        <time>2019-08-16T12:35:51Z</time>
      </trkpt>
      <trkpt lat="47.59603" lon="6.99235">
        <ele>336</ele>
        <time>2019-08-16T12:35:52Z</time>
      </trkpt>
      <trkpt lat="47.59602" lon="6.99229">
        <ele>336</ele>
        <time>2019-08-16T12:35:53Z</time>
      </trkpt>
      <trkpt lat="47.596" lon="6.99223">
        <ele>336</ele>
        <time>2019-08-16T12:35:54Z</time>
      </trkpt>
      <trkpt lat="47.59601" lon="6.99217">
        <ele>336</ele>
        <time>2019-08-16T12:35:55Z</time>
      </trkpt>
      <trkpt lat="47.596" lon="6.99209">
        <ele>336</ele>
        <time>2019-08-16T12:35:56Z</time>
      </trkpt>
      <trkpt lat="47.59598" lon="6.99202">
        <ele>336</ele>
        <time>2019-08-16T12:35:57Z</time>
      </trkpt>
      <trkpt lat="47.59596" lon="6.99195">
        <ele>336</ele>
        <time>2019-08-16T12:35:58Z</time>
      </trkpt>
      <trkpt lat="47.59595" lon="6.99188">
        <ele>335.9</ele>
        <time>2019-08-16T12:35:59Z</time>
      </trkpt>
      <trkpt lat="47.59592" lon="6.9918">
        <ele>335.9</ele>
        <time>2019-08-16T12:36:00Z</time>
      </trkpt>
      <trkpt lat="47.5959" lon="6.99173">
        <ele>335.9</ele>
        <time>2019-08-16T12:36:01Z</time>
      </trkpt>
      <trkpt lat="47.59588" lon="6.99166">
        <ele>335.9</ele>
        <time>2019-08-16T12:36:02Z</time>
      </trkpt>
      <trkpt lat="47.59587" lon="6.99158">
        <ele>335.9</ele>
        <time>2019-08-16T12:36:03Z</time>
      </trkpt>
      <trkpt lat="47.59586" lon="6.9915">
        <ele>335.8</ele>
        <time>2019-08-16T12:36:04Z</time>
      </trkpt>
      <trkpt lat="47.59585" lon="6.99142">
        <ele>335.8</ele>
        <time>2019-08-16T12:36:05Z</time>
      </trkpt>
      <trkpt lat="47.59584" lon="6.99133">
        <ele>335.8</ele>
        <time>2019-08-16T12:36:06Z</time>
      </trkpt>
      <trkpt lat="47.59583" lon="6.99125">
        <ele>335.8</ele>
        <time>2019-08-16T12:36:07Z</time>
      </trkpt>
      <trkpt lat="47.59581" lon="6.99116">
        <ele>335.7</ele>
        <time>2019-08-16T12:36:08Z</time>
      </trkpt>
      <trkpt lat="47.59581" lon="6.99108">
        <ele>335.7</ele>
        <time>2019-08-16T12:36:09Z</time>
      </trkpt>
      <trkpt lat="47.5958" lon="6.991">
        <ele>335.7</ele>
        <time>2019-08-16T12:36:10Z</time>
      </trkpt>
      <trkpt lat="47.59579" lon="6.99092">
        <ele>335.7</ele>
        <time>2019-08-16T12:36:11Z</time>
      </trkpt>
      <trkpt lat="47.59579" lon="6.99083">
        <ele>335.7</ele>
        <time>2019-08-16T12:36:12Z</time>
      </trkpt>
      <trkpt lat="47.59579" lon="6.99075">
        <ele>335.6</ele>
        <time>2019-08-16T12:36:13Z</time>
      </trkpt>
      <trkpt lat="47.59578" lon="6.99068">
        <ele>335.6</ele>
        <time>2019-08-16T12:36:14Z</time>
      </trkpt>
      <trkpt lat="47.59578" lon="6.9906">
        <ele>335.6</ele>
        <time>2019-08-16T12:36:15Z</time>
      </trkpt>
      <trkpt lat="47.59579" lon="6.99052">
        <ele>335.6</ele>
        <time>2019-08-16T12:36:16Z</time>
      </trkpt>
      <trkpt lat="47.59579" lon="6.99044">
        <ele>335.6</ele>
        <time>2019-08-16T12:36:17Z</time>
      </trkpt>
      <trkpt lat="47.59579" lon="6.99036">
        <ele>335.5</ele>
        <time>2019-08-16T12:36:18Z</time>
      </trkpt>
      <trkpt lat="47.59579" lon="6.99027">
        <ele>335.5</ele>
        <time>2019-08-16T12:36:19Z</time>
      </trkpt>
      <trkpt lat="47.59578" lon="6.99018">
        <ele>335.5</ele>
        <time>2019-08-16T12:36:20Z</time>
      </trkpt>
      <trkpt lat="47.59578" lon="6.9901">
        <ele>335.5</ele>
        <time>2019-08-16T12:36:21Z</time>
      </trkpt>
      <trkpt lat="47.59577" lon="6.99002">
        <ele>335.5</ele>
        <time>2019-08-16T12:36:22Z</time>
      </trkpt>
      <trkpt lat="47.59575" lon="6.98992">
        <ele>335.5</ele>
        <time>2019-08-16T12:36:23Z</time>
      </trkpt>
      <trkpt lat="47.59575" lon="6.98984">
        <ele>335.4</ele>
        <time>2019-08-16T12:36:24Z</time>
      </trkpt>
      <trkpt lat="47.59575" lon="6.98976">
        <ele>335.4</ele>
        <time>2019-08-16T12:36:25Z</time>
      </trkpt>
      <trkpt lat="47.59574" lon="6.98969">
        <ele>335.4</ele>
        <time>2019-08-16T12:36:26Z</time>
      </trkpt>
      <trkpt lat="47.59574" lon="6.98961">
        <ele>335.4</ele>
        <time>2019-08-16T12:36:27Z</time>
      </trkpt>
      <trkpt lat="47.59574" lon="6.98955">
        <ele>335.4</ele>
        <time>2019-08-16T12:36:28Z</time>
      </trkpt>
      <trkpt lat="47.59573" lon="6.98947">
        <ele>335.4</ele>
        <time>2019-08-16T12:36:29Z</time>
      </trkpt>
      <trkpt lat="47.59572" lon="6.9894">
        <ele>335.4</ele>
        <time>2019-08-16T12:36:30Z</time>
      </trkpt>
      <trkpt lat="47.59574" lon="6.98931">
        <ele>335.3</ele>
        <time>2019-08-16T12:36:31Z</time>
      </trkpt>
      <trkpt lat="47.59574" lon="6.98923">
        <ele>335.3</ele>
        <time>2019-08-16T12:36:32Z</time>
      </trkpt>
      <trkpt lat="47.59575" lon="6.98915">
        <ele>335.3</ele>
        <time>2019-08-16T12:36:33Z</time>
      </trkpt>
      <trkpt lat="47.59575" lon="6.98908">
        <ele>335.3</ele>
        <time>2019-08-16T12:36:34Z</time>
      </trkpt>
      <trkpt lat="47.59575" lon="6.989">
        <ele>335.3</ele>
        <time>2019-08-16T12:36:35Z</time>
      </trkpt>
      <trkpt lat="47.59575" lon="6.98892">
        <ele>335.3</ele>
        <time>2019-08-16T12:36:36Z</time>
      </trkpt>
      <trkpt lat="47.59574" lon="6.98884">
        <ele>335.2</ele>
        <time>2019-08-16T12:36:37Z</time>
      </trkpt>
      <trkpt lat="47.59573" lon="6.98875">
        <ele>335.2</ele>
        <time>2019-08-16T12:36:38Z</time>
      </trkpt>
      <trkpt lat="47.59572" lon="6.98868">
        <ele>335.2</ele>
        <time>2019-08-16T12:36:39Z</time>
      </trkpt>
      <trkpt lat="47.59571" lon="6.9886">
        <ele>335.2</ele>
        <time>2019-08-16T12:36:40Z</time>
      </trkpt>
      <trkpt lat="47.59571" lon="6.98852">
        <ele>335.2</ele>
        <time>2019-08-16T12:36:41Z</time>
      </trkpt>
      <trkpt lat="47.5957" lon="6.98844">
        <ele>335.2</ele>
        <time>2019-08-16T12:36:42Z</time>
      </trkpt>
      <trkpt lat="47.5957" lon="6.98837">
        <ele>335.2</ele>
        <time>2019-08-16T12:36:43Z</time>
      </trkpt>
      <trkpt lat="47.59569" lon="6.98829">
        <ele>335.2</ele>
        <time>2019-08-16T12:36:44Z</time>
      </trkpt>
      <trkpt lat="47.59568" lon="6.98822">
        <ele>335.1</ele>
        <time>2019-08-16T12:36:45Z</time>
      </trkpt>
      <trkpt lat="47.59567" lon="6.98815">
        <ele>335.1</ele>
        <time>2019-08-16T12:36:46Z</time>
      </trkpt>
      <trkpt lat="47.59566" lon="6.98808">
        <ele>335.1</ele>
        <time>2019-08-16T12:36:47Z</time>
      </trkpt>
      <trkpt lat="47.59566" lon="6.988">
        <ele>335.1</ele>
        <time>2019-08-16T12:36:48Z</time>
      </trkpt>
      <trkpt lat="47.59566" lon="6.98791">
        <ele>335.1</ele>
        <time>2019-08-16T12:36:49Z</time>
      </trkpt>
      <trkpt lat="47.59566" lon="6.98783">
        <ele>335.1</ele>
        <time>2019-08-16T12:36:50Z</time>
      </trkpt>
      <trkpt lat="47.59563" lon="6.98776">
        <ele>335.1</ele>
        <time>2019-08-16T12:36:51Z</time>
      </trkpt>
      <trkpt lat="47.59561" lon="6.98768">
        <ele>335</ele>
        <time>2019-08-16T12:36:52Z</time>
      </trkpt>
      <trkpt lat="47.59559" lon="6.9876">
        <ele>335</ele>
        <time>2019-08-16T12:36:53Z</time>
      </trkpt>
      <trkpt lat="47.59557" lon="6.98751">
        <ele>335</ele>
        <time>2019-08-16T12:36:54Z</time>
      </trkpt>
      <trkpt lat="47.59556" lon="6.98744">
        <ele>335</ele>
        <time>2019-08-16T12:36:55Z</time>
      </trkpt>
      <trkpt lat="47.59554" lon="6.98736">
        <ele>335</ele>
        <time>2019-08-16T12:36:56Z</time>
      </trkpt>
      <trkpt lat="47.59552" lon="6.98729">
        <ele>335</ele>
        <time>2019-08-16T12:36:57Z</time>
      </trkpt>
      <trkpt lat="47.5955" lon="6.98722">
        <ele>335</ele>
        <time>2019-08-16T12:36:58Z</time>
      </trkpt>
      <trkpt lat="47.59548" lon="6.98715">
        <ele>335</ele>
        <time>2019-08-16T12:36:59Z</time>
      </trkpt>
      <trkpt lat="47.59545" lon="6.98708">
        <ele>334.9</ele>
        <time>2019-08-16T12:37:00Z</time>
      </trkpt>
      <trkpt lat="47.59543" lon="6.98701">
        <ele>334.9</ele>
        <time>2019-08-16T12:37:01Z</time>
      </trkpt>
      <trkpt lat="47.59541" lon="6.98694">
        <ele>334.9</ele>
        <time>2019-08-16T12:37:02Z</time>
      </trkpt>
      <trkpt lat="47.59537" lon="6.98688">
        <ele>334.9</ele>
        <time>2019-08-16T12:37:03Z</time>
      </trkpt>
      <trkpt lat="47.59535" lon="6.98682">
        <ele>334.9</ele>
        <time>2019-08-16T12:37:04Z</time>
      </trkpt>
      <trkpt lat="47.59533" lon="6.98677">
        <ele>334.9</ele>
        <time>2019-08-16T12:37:05Z</time>
      </trkpt>
      <trkpt lat="47.5953" lon="6.98671">
        <ele>334.9</ele>
        <time>2019-08-16T12:37:06Z</time>
      </trkpt>
      <trkpt lat="47.59527" lon="6.98664">
        <ele>334.8</ele>
        <time>2019-08-16T12:37:07Z</time>
      </trkpt>
      <trkpt lat="47.59524" lon="6.98657">
        <ele>334.8</ele>
        <time>2019-08-16T12:37:08Z</time>
      </trkpt>
      <trkpt lat="47.59521" lon="6.98651">
        <ele>334.8</ele>
        <time>2019-08-16T12:37:09Z</time>
      </trkpt>
      <trkpt lat="47.59518" lon="6.98645">
        <ele>334.8</ele>
        <time>2019-08-16T12:37:10Z</time>
      </trkpt>
      <trkpt lat="47.59515" lon="6.98639">
        <ele>334.8</ele>
        <time>2019-08-16T12:37:11Z</time>
      </trkpt>
      <trkpt lat="47.59513" lon="6.98632">
        <ele>334.8</ele>
        <time>2019-08-16T12:37:12Z</time>
      </trkpt>
      <trkpt lat="47.59509" lon="6.98626">
        <ele>334.8</ele>
        <time>2019-08-16T12:37:13Z</time>
      </trkpt>
      <trkpt lat="47.59506" lon="6.9862">
        <ele>334.8</ele>
        <time>2019-08-16T12:37:14Z</time>
      </trkpt>
      <trkpt lat="47.59503" lon="6.98614">
        <ele>334.8</ele>
        <time>2019-08-16T12:37:15Z</time>
      </trkpt>
      <trkpt lat="47.59499" lon="6.98608">
        <ele>334.8</ele>
        <time>2019-08-16T12:37:16Z</time>
      </trkpt>
      <trkpt lat="47.59496" lon="6.98602">
        <ele>334.7</ele>
        <time>2019-08-16T12:37:17Z</time>
      </trkpt>
      <trkpt lat="47.59491" lon="6.98596">
        <ele>334.7</ele>
        <time>2019-08-16T12:37:18Z</time>
      </trkpt>
      <trkpt lat="47.59487" lon="6.9859">
        <ele>334.7</ele>
        <time>2019-08-16T12:37:19Z</time>
      </trkpt>
      <trkpt lat="47.59484" lon="6.98585">
        <ele>334.7</ele>
        <time>2019-08-16T12:37:20Z</time>
      </trkpt>
      <trkpt lat="47.5948" lon="6.98579">
        <ele>334.7</ele>
        <time>2019-08-16T12:37:21Z</time>
      </trkpt>
      <trkpt lat="47.59477" lon="6.98573">
        <ele>334.7</ele>
        <time>2019-08-16T12:37:22Z</time>
      </trkpt>
      <trkpt lat="47.59474" lon="6.9857">
        <ele>334.6</ele>
        <time>2019-08-16T12:37:23Z</time>
      </trkpt>
      <trkpt lat="47.59471" lon="6.98565">
        <ele>334.6</ele>
        <time>2019-08-16T12:37:24Z</time>
      </trkpt>
      <trkpt lat="47.59468" lon="6.9856">
        <ele>334.6</ele>
        <time>2019-08-16T12:37:25Z</time>
      </trkpt>
      <trkpt lat="47.59464" lon="6.98554">
        <ele>334.6</ele>
        <time>2019-08-16T12:37:26Z</time>
      </trkpt>
      <trkpt lat="47.59461" lon="6.98549">
        <ele>334.6</ele>
        <time>2019-08-16T12:37:27Z</time>
      </trkpt>
      <trkpt lat="47.59458" lon="6.98545">
        <ele>334.6</ele>
        <time>2019-08-16T12:37:28Z</time>
      </trkpt>
      <trkpt lat="47.59455" lon="6.98539">
        <ele>334.6</ele>
        <time>2019-08-16T12:37:29Z</time>
      </trkpt>
      <trkpt lat="47.59452" lon="6.98534">
        <ele>334.6</ele>
        <time>2019-08-16T12:37:30Z</time>
      </trkpt>
      <trkpt lat="47.59448" lon="6.98528">
        <ele>334.6</ele>
        <time>2019-08-16T12:37:31Z</time>
      </trkpt>
      <trkpt lat="47.59445" lon="6.98522">
        <ele>334.6</ele>
        <time>2019-08-16T12:37:32Z</time>
      </trkpt>
      <trkpt lat="47.59441" lon="6.98517">
        <ele>334.6</ele>
        <time>2019-08-16T12:37:33Z</time>
      </trkpt>
      <trkpt lat="47.59437" lon="6.98512">
        <ele>334.6</ele>
        <time>2019-08-16T12:37:34Z</time>
      </trkpt>
      <trkpt lat="47.59433" lon="6.98506">
        <ele>334.6</ele>
        <time>2019-08-16T12:37:35Z</time>
      </trkpt>
      <trkpt lat="47.5943" lon="6.98501">
        <ele>334.5</ele>
        <time>2019-08-16T12:37:36Z</time>
      </trkpt>
      <trkpt lat="47.59427" lon="6.98496">
        <ele>334.5</ele>
        <time>2019-08-16T12:37:37Z</time>
      </trkpt>
      <trkpt lat="47.59422" lon="6.9849">
        <ele>334.5</ele>
        <time>2019-08-16T12:37:38Z</time>
      </trkpt>
      <trkpt lat="47.59419" lon="6.98483">
        <ele>334.5</ele>
        <time>2019-08-16T12:37:39Z</time>
      </trkpt>
      <trkpt lat="47.59415" lon="6.98477">
        <ele>334.5</ele>
        <time>2019-08-16T12:37:40Z</time>
      </trkpt>
      <trkpt lat="47.59411" lon="6.98473">
        <ele>334.5</ele>
        <time>2019-08-16T12:37:41Z</time>
      </trkpt>
      <trkpt lat="47.59408" lon="6.98467">
        <ele>334.4</ele>
        <time>2019-08-16T12:37:42Z</time>
      </trkpt>
      <trkpt lat="47.59404" lon="6.98461">
        <ele>334.4</ele>
        <time>2019-08-16T12:37:43Z</time>
      </trkpt>
      <trkpt lat="47.594" lon="6.98456">
        <ele>334.4</ele>
        <time>2019-08-16T12:37:44Z</time>
      </trkpt>
      <trkpt lat="47.59396" lon="6.98449">
        <ele>334.4</ele>
        <time>2019-08-16T12:37:45Z</time>
      </trkpt>
      <trkpt lat="47.59393" lon="6.98443">
        <ele>334.4</ele>
        <time>2019-08-16T12:37:46Z</time>
      </trkpt>
      <trkpt lat="47.59389" lon="6.98439">
        <ele>334.4</ele>
        <time>2019-08-16T12:37:47Z</time>
      </trkpt>
      <trkpt lat="47.59385" lon="6.98432">
        <ele>334.4</ele>
        <time>2019-08-16T12:37:48Z</time>
      </trkpt>
      <trkpt lat="47.59382" lon="6.98426">
        <ele>334.4</ele>
        <time>2019-08-16T12:37:49Z</time>
      </trkpt>
      <trkpt lat="47.59378" lon="6.98421">
        <ele>334.3</ele>
        <time>2019-08-16T12:37:50Z</time>
      </trkpt>
      <trkpt lat="47.59375" lon="6.98415">
        <ele>334.3</ele>
        <time>2019-08-16T12:37:51Z</time>
      </trkpt>
      <trkpt lat="47.59371" lon="6.98411">
        <ele>334.3</ele>
        <time>2019-08-16T12:37:52Z</time>
      </trkpt>
      <trkpt lat="47.59368" lon="6.98406">
        <ele>334.3</ele>
        <time>2019-08-16T12:37:53Z</time>
      </trkpt>
      <trkpt lat="47.59364" lon="6.98399">
        <ele>334.3</ele>
        <time>2019-08-16T12:37:54Z</time>
      </trkpt>
      <trkpt lat="47.59361" lon="6.98394">
        <ele>334.3</ele>
        <time>2019-08-16T12:37:55Z</time>
      </trkpt>
      <trkpt lat="47.59357" lon="6.98388">
        <ele>334.2</ele>
        <time>2019-08-16T12:37:56Z</time>
      </trkpt>
      <trkpt lat="47.59354" lon="6.98383">
        <ele>334.2</ele>
        <time>2019-08-16T12:37:57Z</time>
      </trkpt>
      <trkpt lat="47.59351" lon="6.98378">
        <ele>334.2</ele>
        <time>2019-08-16T12:37:58Z</time>
      </trkpt>
      <trkpt lat="47.59348" lon="6.98372">
        <ele>334.2</ele>
        <time>2019-08-16T12:37:59Z</time>
      </trkpt>
      <trkpt lat="47.59344" lon="6.98366">
        <ele>334.2</ele>
        <time>2019-08-16T12:38:00Z</time>
      </trkpt>
      <trkpt lat="47.5934" lon="6.98359">
        <ele>334.2</ele>
        <time>2019-08-16T12:38:01Z</time>
      </trkpt>
      <trkpt lat="47.59336" lon="6.98353">
        <ele>334.2</ele>
        <time>2019-08-16T12:38:02Z</time>
      </trkpt>
      <trkpt lat="47.59332" lon="6.98347">
        <ele>334.2</ele>
        <time>2019-08-16T12:38:03Z</time>
      </trkpt>
      <trkpt lat="47.59327" lon="6.98342">
        <ele>334.1</ele>
        <time>2019-08-16T12:38:04Z</time>
      </trkpt>
      <trkpt lat="47.59324" lon="6.98337">
        <ele>334.1</ele>
        <time>2019-08-16T12:38:05Z</time>
      </trkpt>
      <trkpt lat="47.5932" lon="6.98331">
        <ele>334.1</ele>
        <time>2019-08-16T12:38:06Z</time>
      </trkpt>
      <trkpt lat="47.59316" lon="6.98325">
        <ele>334.1</ele>
        <time>2019-08-16T12:38:07Z</time>
      </trkpt>
      <trkpt lat="47.59313" lon="6.98319">
        <ele>334.1</ele>
        <time>2019-08-16T12:38:08Z</time>
      </trkpt>
      <trkpt lat="47.59309" lon="6.98313">
        <ele>334</ele>
        <time>2019-08-16T12:38:09Z</time>
      </trkpt>
      <trkpt lat="47.59305" lon="6.98307">
        <ele>334</ele>
        <time>2019-08-16T12:38:10Z</time>
      </trkpt>
      <trkpt lat="47.59301" lon="6.98302">
        <ele>334</ele>
        <time>2019-08-16T12:38:11Z</time>
      </trkpt>
      <trkpt lat="47.59297" lon="6.98297">
        <ele>334</ele>
        <time>2019-08-16T12:38:12Z</time>
      </trkpt>
      <trkpt lat="47.59295" lon="6.98291">
        <ele>334</ele>
        <time>2019-08-16T12:38:13Z</time>
      </trkpt>
      <trkpt lat="47.59291" lon="6.98284">
        <ele>334</ele>
        <time>2019-08-16T12:38:14Z</time>
      </trkpt>
      <trkpt lat="47.59289" lon="6.98279">
        <ele>334</ele>
        <time>2019-08-16T12:38:15Z</time>
      </trkpt>
      <trkpt lat="47.59286" lon="6.98274">
        <ele>334</ele>
        <time>2019-08-16T12:38:16Z</time>
      </trkpt>
      <trkpt lat="47.59283" lon="6.98268">
        <ele>334</ele>
        <time>2019-08-16T12:38:17Z</time>
      </trkpt>
      <trkpt lat="47.5928" lon="6.98261">
        <ele>334</ele>
        <time>2019-08-16T12:38:18Z</time>
      </trkpt>
      <trkpt lat="47.59276" lon="6.98255">
        <ele>334.1</ele>
        <time>2019-08-16T12:38:19Z</time>
      </trkpt>
      <trkpt lat="47.59273" lon="6.98247">
        <ele>334.1</ele>
        <time>2019-08-16T12:38:20Z</time>
      </trkpt>
      <trkpt lat="47.5927" lon="6.9824">
        <ele>334.2</ele>
        <time>2019-08-16T12:38:21Z</time>
      </trkpt>
      <trkpt lat="47.59266" lon="6.98234">
        <ele>334.2</ele>
        <time>2019-08-16T12:38:22Z</time>
      </trkpt>
      <trkpt lat="47.59263" lon="6.9823">
        <ele>334.3</ele>
        <time>2019-08-16T12:38:23Z</time>
      </trkpt>
      <trkpt lat="47.59259" lon="6.98227">
        <ele>334.3</ele>
        <time>2019-08-16T12:38:24Z</time>
      </trkpt>
      <trkpt lat="47.59255" lon="6.98226">
        <ele>334.4</ele>
        <time>2019-08-16T12:38:25Z</time>
      </trkpt>
      <trkpt lat="47.59252" lon="6.98223">
        <ele>334.4</ele>
        <time>2019-08-16T12:38:26Z</time>
      </trkpt>
      <trkpt lat="47.59248" lon="6.9822">
        <ele>334.4</ele>
        <time>2019-08-16T12:38:27Z</time>
      </trkpt>
      <trkpt lat="47.59245" lon="6.98215">
        <ele>334.5</ele>
        <time>2019-08-16T12:38:28Z</time>
      </trkpt>
      <trkpt lat="47.59242" lon="6.98211">
        <ele>334.5</ele>
        <time>2019-08-16T12:38:29Z</time>
      </trkpt>
      <trkpt lat="47.59239" lon="6.98206">
        <ele>334.5</ele>
        <time>2019-08-16T12:38:30Z</time>
      </trkpt>
      <trkpt lat="47.59236" lon="6.98201">
        <ele>334.5</ele>
        <time>2019-08-16T12:38:31Z</time>
      </trkpt>
      <trkpt lat="47.59233" lon="6.98197">
        <ele>334.5</ele>
        <time>2019-08-16T12:38:32Z</time>
      </trkpt>
      <trkpt lat="47.5923" lon="6.98192">
        <ele>334.6</ele>
        <time>2019-08-16T12:38:33Z</time>
      </trkpt>
      <trkpt lat="47.59227" lon="6.98187">
        <ele>334.6</ele>
        <time>2019-08-16T12:38:34Z</time>
      </trkpt>
      <trkpt lat="47.59224" lon="6.98181">
        <ele>334.6</ele>
        <time>2019-08-16T12:38:35Z</time>
      </trkpt>
      <trkpt lat="47.59221" lon="6.98176">
        <ele>334.7</ele>
        <time>2019-08-16T12:38:36Z</time>
      </trkpt>
      <trkpt lat="47.59218" lon="6.98171">
        <ele>334.7</ele>
        <time>2019-08-16T12:38:37Z</time>
      </trkpt>
      <trkpt lat="47.59215" lon="6.98166">
        <ele>334.8</ele>
        <time>2019-08-16T12:38:38Z</time>
      </trkpt>
      <trkpt lat="47.59212" lon="6.98161">
        <ele>334.8</ele>
        <time>2019-08-16T12:38:39Z</time>
      </trkpt>
      <trkpt lat="47.59209" lon="6.98157">
        <ele>334.8</ele>
        <time>2019-08-16T12:38:40Z</time>
      </trkpt>
      <trkpt lat="47.59206" lon="6.98151">
        <ele>334.8</ele>
        <time>2019-08-16T12:38:41Z</time>
      </trkpt>
      <trkpt lat="47.59203" lon="6.98145">
        <ele>334.8</ele>
        <time>2019-08-16T12:38:42Z</time>
      </trkpt>
      <trkpt lat="47.592" lon="6.98141">
        <ele>334.8</ele>
        <time>2019-08-16T12:38:43Z</time>
      </trkpt>
      <trkpt lat="47.59196" lon="6.98135">
        <ele>334.8</ele>
        <time>2019-08-16T12:38:44Z</time>
      </trkpt>
      <trkpt lat="47.59193" lon="6.98131">
        <ele>334.8</ele>
        <time>2019-08-16T12:38:45Z</time>
      </trkpt>
      <trkpt lat="47.5919" lon="6.98126">
        <ele>334.8</ele>
        <time>2019-08-16T12:38:46Z</time>
      </trkpt>
      <trkpt lat="47.59187" lon="6.98119">
        <ele>334.8</ele>
        <time>2019-08-16T12:38:47Z</time>
      </trkpt>
      <trkpt lat="47.59183" lon="6.98115">
        <ele>334.9</ele>
        <time>2019-08-16T12:38:48Z</time>
      </trkpt>
      <trkpt lat="47.59179" lon="6.98109">
        <ele>334.9</ele>
        <time>2019-08-16T12:38:49Z</time>
      </trkpt>
      <trkpt lat="47.59176" lon="6.98104">
        <ele>334.9</ele>
        <time>2019-08-16T12:38:50Z</time>
      </trkpt>
      <trkpt lat="47.59174" lon="6.98097">
        <ele>334.9</ele>
        <time>2019-08-16T12:38:51Z</time>
      </trkpt>
      <trkpt lat="47.5917" lon="6.98091">
        <ele>335</ele>
        <time>2019-08-16T12:38:52Z</time>
      </trkpt>
      <trkpt lat="47.59166" lon="6.98087">
        <ele>335</ele>
        <time>2019-08-16T12:38:53Z</time>
      </trkpt>
      <trkpt lat="47.59163" lon="6.98081">
        <ele>335</ele>
        <time>2019-08-16T12:38:54Z</time>
      </trkpt>
      <trkpt lat="47.5916" lon="6.98076">
        <ele>335.1</ele>
        <time>2019-08-16T12:38:55Z</time>
      </trkpt>
      <trkpt lat="47.59157" lon="6.9807">
        <ele>335.1</ele>
        <time>2019-08-16T12:38:56Z</time>
      </trkpt>
      <trkpt lat="47.59153" lon="6.98063">
        <ele>335.2</ele>
        <time>2019-08-16T12:38:57Z</time>
      </trkpt>
      <trkpt lat="47.59149" lon="6.98057">
        <ele>335.3</ele>
        <time>2019-08-16T12:38:58Z</time>
      </trkpt>
      <trkpt lat="47.59146" lon="6.98051">
        <ele>335.3</ele>
        <time>2019-08-16T12:38:59Z</time>
      </trkpt>
      <trkpt lat="47.59143" lon="6.98046">
        <ele>335.3</ele>
        <time>2019-08-16T12:39:00Z</time>
      </trkpt>
      <trkpt lat="47.59139" lon="6.9804">
        <ele>335.3</ele>
        <time>2019-08-16T12:39:01Z</time>
      </trkpt>
      <trkpt lat="47.59135" lon="6.98035">
        <ele>335.4</ele>
        <time>2019-08-16T12:39:02Z</time>
      </trkpt>
      <trkpt lat="47.59131" lon="6.98029">
        <ele>335.3</ele>
        <time>2019-08-16T12:39:03Z</time>
      </trkpt>
      <trkpt lat="47.59127" lon="6.98023">
        <ele>335.3</ele>
        <time>2019-08-16T12:39:04Z</time>
      </trkpt>
      <trkpt lat="47.59124" lon="6.98018">
        <ele>335.2</ele>
        <time>2019-08-16T12:39:05Z</time>
      </trkpt>
      <trkpt lat="47.5912" lon="6.98013">
        <ele>335.2</ele>
        <time>2019-08-16T12:39:06Z</time>
      </trkpt>
      <trkpt lat="47.59116" lon="6.98008">
        <ele>335.1</ele>
        <time>2019-08-16T12:39:07Z</time>
      </trkpt>
      <trkpt lat="47.59112" lon="6.98003">
        <ele>335</ele>
        <time>2019-08-16T12:39:08Z</time>
      </trkpt>
      <trkpt lat="47.59108" lon="6.97998">
        <ele>334.9</ele>
        <time>2019-08-16T12:39:09Z</time>
      </trkpt>
      <trkpt lat="47.59103" lon="6.97993">
        <ele>334.8</ele>
        <time>2019-08-16T12:39:10Z</time>
      </trkpt>
      <trkpt lat="47.591" lon="6.97987">
        <ele>334.7</ele>
        <time>2019-08-16T12:39:11Z</time>
      </trkpt>
      <trkpt lat="47.59096" lon="6.97981">
        <ele>334.6</ele>
        <time>2019-08-16T12:39:12Z</time>
      </trkpt>
      <trkpt lat="47.59092" lon="6.97975">
        <ele>334.6</ele>
        <time>2019-08-16T12:39:13Z</time>
      </trkpt>
      <trkpt lat="47.59089" lon="6.97969">
        <ele>334.6</ele>
        <time>2019-08-16T12:39:14Z</time>
      </trkpt>
      <trkpt lat="47.59085" lon="6.97963">
        <ele>334.6</ele>
        <time>2019-08-16T12:39:15Z</time>
      </trkpt>
      <trkpt lat="47.59081" lon="6.97958">
        <ele>334.6</ele>
        <time>2019-08-16T12:39:16Z</time>
      </trkpt>
      <trkpt lat="47.59077" lon="6.97951">
        <ele>334.6</ele>
        <time>2019-08-16T12:39:17Z</time>
      </trkpt>
      <trkpt lat="47.59074" lon="6.97946">
        <ele>334.6</ele>
        <time>2019-08-16T12:39:18Z</time>
      </trkpt>
      <trkpt lat="47.5907" lon="6.9794">
        <ele>334.6</ele>
        <time>2019-08-16T12:39:19Z</time>
      </trkpt>
      <trkpt lat="47.59066" lon="6.97936">
        <ele>334.7</ele>
        <time>2019-08-16T12:39:20Z</time>
      </trkpt>
      <trkpt lat="47.59062" lon="6.9793">
        <ele>334.7</ele>
        <time>2019-08-16T12:39:21Z</time>
      </trkpt>
      <trkpt lat="47.59058" lon="6.97924">
        <ele>334.7</ele>
        <time>2019-08-16T12:39:22Z</time>
      </trkpt>
      <trkpt lat="47.59053" lon="6.97918">
        <ele>334.7</ele>
        <time>2019-08-16T12:39:23Z</time>
      </trkpt>
      <trkpt lat="47.59049" lon="6.97913">
        <ele>334.7</ele>
        <time>2019-08-16T12:39:24Z</time>
      </trkpt>
      <trkpt lat="47.59045" lon="6.97908">
        <ele>334.7</ele>
        <time>2019-08-16T12:39:25Z</time>
      </trkpt>
      <trkpt lat="47.59042" lon="6.97902">
        <ele>334.7</ele>
        <time>2019-08-16T12:39:26Z</time>
      </trkpt>
      <trkpt lat="47.59038" lon="6.97896">
        <ele>334.7</ele>
        <time>2019-08-16T12:39:27Z</time>
      </trkpt>
      <trkpt lat="47.59034" lon="6.97889">
        <ele>334.7</ele>
        <time>2019-08-16T12:39:28Z</time>
      </trkpt>
      <trkpt lat="47.59031" lon="6.97885">
        <ele>334.7</ele>
        <time>2019-08-16T12:39:29Z</time>
      </trkpt>
      <trkpt lat="47.59027" lon="6.9788">
        <ele>334.7</ele>
        <time>2019-08-16T12:39:30Z</time>
      </trkpt>
      <trkpt lat="47.59024" lon="6.97874">
        <ele>334.7</ele>
        <time>2019-08-16T12:39:31Z</time>
      </trkpt>
      <trkpt lat="47.59021" lon="6.97867">
        <ele>334.7</ele>
        <time>2019-08-16T12:39:32Z</time>
      </trkpt>
      <trkpt lat="47.59017" lon="6.97859">
        <ele>334.6</ele>
        <time>2019-08-16T12:39:33Z</time>
      </trkpt>
      <trkpt lat="47.59013" lon="6.97852">
        <ele>334.6</ele>
        <time>2019-08-16T12:39:34Z</time>
      </trkpt>
      <trkpt lat="47.5901" lon="6.97846">
        <ele>334.6</ele>
        <time>2019-08-16T12:39:35Z</time>
      </trkpt>
      <trkpt lat="47.59006" lon="6.97839">
        <ele>334.6</ele>
        <time>2019-08-16T12:39:36Z</time>
      </trkpt>
      <trkpt lat="47.59002" lon="6.97832">
        <ele>334.5</ele>
        <time>2019-08-16T12:39:37Z</time>
      </trkpt>
      <trkpt lat="47.58999" lon="6.97826">
        <ele>334.5</ele>
        <time>2019-08-16T12:39:38Z</time>
      </trkpt>
      <trkpt lat="47.58995" lon="6.9782">
        <ele>334.5</ele>
        <time>2019-08-16T12:39:39Z</time>
      </trkpt>
      <trkpt lat="47.58992" lon="6.97813">
        <ele>334.4</ele>
        <time>2019-08-16T12:39:40Z</time>
      </trkpt>
      <trkpt lat="47.58988" lon="6.97808">
        <ele>334.4</ele>
        <time>2019-08-16T12:39:41Z</time>
      </trkpt>
      <trkpt lat="47.58984" lon="6.97803">
        <ele>334.4</ele>
        <time>2019-08-16T12:39:42Z</time>
      </trkpt>
      <trkpt lat="47.58981" lon="6.97798">
        <ele>334.3</ele>
        <time>2019-08-16T12:39:43Z</time>
      </trkpt>
      <trkpt lat="47.58977" lon="6.97792">
        <ele>334.3</ele>
        <time>2019-08-16T12:39:44Z</time>
      </trkpt>
      <trkpt lat="47.58973" lon="6.97787">
        <ele>334.2</ele>
        <time>2019-08-16T12:39:45Z</time>
      </trkpt>
      <trkpt lat="47.58969" lon="6.97782">
        <ele>334.2</ele>
        <time>2019-08-16T12:39:46Z</time>
      </trkpt>
      <trkpt lat="47.58965" lon="6.97777">
        <ele>334.2</ele>
        <time>2019-08-16T12:39:47Z</time>
      </trkpt>
      <trkpt lat="47.58961" lon="6.97772">
        <ele>334.2</ele>
        <time>2019-08-16T12:39:48Z</time>
      </trkpt>
      <trkpt lat="47.58957" lon="6.97766">
        <ele>334.1</ele>
        <time>2019-08-16T12:39:49Z</time>
      </trkpt>
      <trkpt lat="47.58953" lon="6.97762">
        <ele>334.1</ele>
        <time>2019-08-16T12:39:50Z</time>
      </trkpt>
      <trkpt lat="47.58949" lon="6.97756">
        <ele>334.1</ele>
        <time>2019-08-16T12:39:51Z</time>
      </trkpt>
      <trkpt lat="47.58945" lon="6.97751">
        <ele>334</ele>
        <time>2019-08-16T12:39:52Z</time>
      </trkpt>
      <trkpt lat="47.58941" lon="6.97745">
        <ele>334</ele>
        <time>2019-08-16T12:39:53Z</time>
      </trkpt>
      <trkpt lat="47.58938" lon="6.97742">
        <ele>333.9</ele>
        <time>2019-08-16T12:39:54Z</time>
      </trkpt>
      <trkpt lat="47.58934" lon="6.97736">
        <ele>333.8</ele>
        <time>2019-08-16T12:39:55Z</time>
      </trkpt>
      <trkpt lat="47.58929" lon="6.97731">
        <ele>333.8</ele>
        <time>2019-08-16T12:39:56Z</time>
      </trkpt>
      <trkpt lat="47.58925" lon="6.97725">
        <ele>333.7</ele>
        <time>2019-08-16T12:39:57Z</time>
      </trkpt>
      <trkpt lat="47.58921" lon="6.9772">
        <ele>333.6</ele>
        <time>2019-08-16T12:39:58Z</time>
      </trkpt>
      <trkpt lat="47.58917" lon="6.97714">
        <ele>333.5</ele>
        <time>2019-08-16T12:39:59Z</time>
      </trkpt>
      <trkpt lat="47.58914" lon="6.97708">
        <ele>333.4</ele>
        <time>2019-08-16T12:40:00Z</time>
      </trkpt>
      <trkpt lat="47.58911" lon="6.97702">
        <ele>333.3</ele>
        <time>2019-08-16T12:40:01Z</time>
      </trkpt>
      <trkpt lat="47.58906" lon="6.97696">
        <ele>333.2</ele>
        <time>2019-08-16T12:40:02Z</time>
      </trkpt>
      <trkpt lat="47.58902" lon="6.97689">
        <ele>333.1</ele>
        <time>2019-08-16T12:40:03Z</time>
      </trkpt>
      <trkpt lat="47.58898" lon="6.97683">
        <ele>332.9</ele>
        <time>2019-08-16T12:40:04Z</time>
      </trkpt>
      <trkpt lat="47.58894" lon="6.97677">
        <ele>332.7</ele>
        <time>2019-08-16T12:40:05Z</time>
      </trkpt>
      <trkpt lat="47.58889" lon="6.97672">
        <ele>332.5</ele>
        <time>2019-08-16T12:40:06Z</time>
      </trkpt>
      <trkpt lat="47.58885" lon="6.97666">
        <ele>332.4</ele>
        <time>2019-08-16T12:40:07Z</time>
      </trkpt>
      <trkpt lat="47.58882" lon="6.97659">
        <ele>332.2</ele>
        <time>2019-08-16T12:40:08Z</time>
      </trkpt>
      <trkpt lat="47.58878" lon="6.97653">
        <ele>332.2</ele>
        <time>2019-08-16T12:40:09Z</time>
      </trkpt>
      <trkpt lat="47.58874" lon="6.97647">
        <ele>332.2</ele>
        <time>2019-08-16T12:40:10Z</time>
      </trkpt>
      <trkpt lat="47.5887" lon="6.97642">
        <ele>332.2</ele>
        <time>2019-08-16T12:40:11Z</time>
      </trkpt>
      <trkpt lat="47.58866" lon="6.97635">
        <ele>332.3</ele>
        <time>2019-08-16T12:40:12Z</time>
      </trkpt>
      <trkpt lat="47.58862" lon="6.9763">
        <ele>332.3</ele>
        <time>2019-08-16T12:40:13Z</time>
      </trkpt>
      <trkpt lat="47.58858" lon="6.97624">
        <ele>332.4</ele>
        <time>2019-08-16T12:40:14Z</time>
      </trkpt>
      <trkpt lat="47.58855" lon="6.97619">
        <ele>332.5</ele>
        <time>2019-08-16T12:40:15Z</time>
      </trkpt>
      <trkpt lat="47.58851" lon="6.97614">
        <ele>332.6</ele>
        <time>2019-08-16T12:40:16Z</time>
      </trkpt>
      <trkpt lat="47.58847" lon="6.97608">
        <ele>332.8</ele>
        <time>2019-08-16T12:40:17Z</time>
      </trkpt>
      <trkpt lat="47.58844" lon="6.97602">
        <ele>332.8</ele>
        <time>2019-08-16T12:40:18Z</time>
      </trkpt>
      <trkpt lat="47.58841" lon="6.97595">
        <ele>332.9</ele>
        <time>2019-08-16T12:40:19Z</time>
      </trkpt>
      <trkpt lat="47.58839" lon="6.97588">
        <ele>332.8</ele>
        <time>2019-08-16T12:40:20Z</time>
      </trkpt>
      <trkpt lat="47.58835" lon="6.97582">
        <ele>332.8</ele>
        <time>2019-08-16T12:40:21Z</time>
      </trkpt>
      <trkpt lat="47.58832" lon="6.97577">
        <ele>332.7</ele>
        <time>2019-08-16T12:40:22Z</time>
      </trkpt>
      <trkpt lat="47.58828" lon="6.9757">
        <ele>332.5</ele>
        <time>2019-08-16T12:40:23Z</time>
      </trkpt>
      <trkpt lat="47.58825" lon="6.97565">
        <ele>332.4</ele>
        <time>2019-08-16T12:40:24Z</time>
      </trkpt>
      <trkpt lat="47.58821" lon="6.9756">
        <ele>332.2</ele>
        <time>2019-08-16T12:40:25Z</time>
      </trkpt>
      <trkpt lat="47.58817" lon="6.97555">
        <ele>332.1</ele>
        <time>2019-08-16T12:40:26Z</time>
      </trkpt>
      <trkpt lat="47.58813" lon="6.9755">
        <ele>331.9</ele>
        <time>2019-08-16T12:40:27Z</time>
      </trkpt>
      <trkpt lat="47.58809" lon="6.97545">
        <ele>331.8</ele>
        <time>2019-08-16T12:40:28Z</time>
      </trkpt>
      <trkpt lat="47.58803" lon="6.9754">
        <ele>331.7</ele>
        <time>2019-08-16T12:40:29Z</time>
      </trkpt>
      <trkpt lat="47.58799" lon="6.97535">
        <ele>331.7</ele>
        <time>2019-08-16T12:40:30Z</time>
      </trkpt>
      <trkpt lat="47.58795" lon="6.97531">
        <ele>331.7</ele>
        <time>2019-08-16T12:40:31Z</time>
      </trkpt>
      <trkpt lat="47.58791" lon="6.97525">
        <ele>331.7</ele>
        <time>2019-08-16T12:40:32Z</time>
      </trkpt>
      <trkpt lat="47.58788" lon="6.97519">
        <ele>331.7</ele>
        <time>2019-08-16T12:40:33Z</time>
      </trkpt>
      <trkpt lat="47.58784" lon="6.97514">
        <ele>331.7</ele>
        <time>2019-08-16T12:40:34Z</time>
      </trkpt>
      <trkpt lat="47.5878" lon="6.97509">
        <ele>331.8</ele>
        <time>2019-08-16T12:40:35Z</time>
      </trkpt>
      <trkpt lat="47.58777" lon="6.97503">
        <ele>331.9</ele>
        <time>2019-08-16T12:40:36Z</time>
      </trkpt>
      <trkpt lat="47.58774" lon="6.97497">
        <ele>332</ele>
        <time>2019-08-16T12:40:37Z</time>
      </trkpt>
      <trkpt lat="47.58771" lon="6.97492">
        <ele>332.1</ele>
        <time>2019-08-16T12:40:38Z</time>
      </trkpt>
      <trkpt lat="47.58768" lon="6.97487">
        <ele>332.3</ele>
        <time>2019-08-16T12:40:39Z</time>
      </trkpt>
      <trkpt lat="47.58765" lon="6.97482">
        <ele>332.5</ele>
        <time>2019-08-16T12:40:40Z</time>
      </trkpt>
      <trkpt lat="47.58762" lon="6.97477">
        <ele>332.7</ele>
        <time>2019-08-16T12:40:41Z</time>
      </trkpt>
      <trkpt lat="47.58759" lon="6.97471">
        <ele>332.9</ele>
        <time>2019-08-16T12:40:42Z</time>
      </trkpt>
      <trkpt lat="47.58756" lon="6.97467">
        <ele>333.1</ele>
        <time>2019-08-16T12:40:43Z</time>
      </trkpt>
      <trkpt lat="47.58752" lon="6.97461">
        <ele>333.3</ele>
        <time>2019-08-16T12:40:44Z</time>
      </trkpt>
      <trkpt lat="47.58748" lon="6.97457">
        <ele>333.4</ele>
        <time>2019-08-16T12:40:45Z</time>
      </trkpt>
      <trkpt lat="47.58744" lon="6.9745">
        <ele>333.5</ele>
        <time>2019-08-16T12:40:46Z</time>
      </trkpt>
      <trkpt lat="47.5874" lon="6.97444">
        <ele>333.5</ele>
        <time>2019-08-16T12:40:47Z</time>
      </trkpt>
      <trkpt lat="47.58735" lon="6.97438">
        <ele>333.5</ele>
        <time>2019-08-16T12:40:48Z</time>
      </trkpt>
      <trkpt lat="47.58731" lon="6.97433">
        <ele>333.5</ele>
        <time>2019-08-16T12:40:49Z</time>
      </trkpt>
      <trkpt lat="47.58728" lon="6.97426">
        <ele>333.5</ele>
        <time>2019-08-16T12:40:50Z</time>
      </trkpt>
      <trkpt lat="47.58724" lon="6.97421">
        <ele>333.5</ele>
        <time>2019-08-16T12:40:51Z</time>
      </trkpt>
      <trkpt lat="47.5872" lon="6.97415">
        <ele>333.5</ele>
        <time>2019-08-16T12:40:52Z</time>
      </trkpt>
      <trkpt lat="47.58716" lon="6.97409">
        <ele>333.5</ele>
        <time>2019-08-16T12:40:53Z</time>
      </trkpt>
      <trkpt lat="47.58713" lon="6.97403">
        <ele>333.5</ele>
        <time>2019-08-16T12:40:54Z</time>
      </trkpt>
      <trkpt lat="47.58709" lon="6.97399">
        <ele>333.5</ele>
        <time>2019-08-16T12:40:55Z</time>
      </trkpt>
      <trkpt lat="47.58705" lon="6.97393">
        <ele>333.5</ele>
        <time>2019-08-16T12:40:56Z</time>
      </trkpt>
      <trkpt lat="47.58701" lon="6.97387">
        <ele>333.6</ele>
        <time>2019-08-16T12:40:57Z</time>
      </trkpt>
      <trkpt lat="47.58697" lon="6.97382">
        <ele>333.6</ele>
        <time>2019-08-16T12:40:58Z</time>
      </trkpt>
      <trkpt lat="47.58693" lon="6.97376">
        <ele>333.6</ele>
        <time>2019-08-16T12:40:59Z</time>
      </trkpt>
      <trkpt lat="47.58689" lon="6.9737">
        <ele>333.7</ele>
        <time>2019-08-16T12:41:00Z</time>
      </trkpt>
      <trkpt lat="47.58685" lon="6.97365">
        <ele>333.7</ele>
        <time>2019-08-16T12:41:01Z</time>
      </trkpt>
      <trkpt lat="47.58682" lon="6.97358">
        <ele>333.8</ele>
        <time>2019-08-16T12:41:02Z</time>
      </trkpt>
      <trkpt lat="47.58678" lon="6.97354">
        <ele>333.8</ele>
        <time>2019-08-16T12:41:03Z</time>
      </trkpt>
      <trkpt lat="47.58674" lon="6.97349">
        <ele>333.8</ele>
        <time>2019-08-16T12:41:04Z</time>
      </trkpt>
      <trkpt lat="47.5867" lon="6.97343">
        <ele>333.8</ele>
        <time>2019-08-16T12:41:05Z</time>
      </trkpt>
      <trkpt lat="47.58666" lon="6.97337">
        <ele>333.7</ele>
        <time>2019-08-16T12:41:06Z</time>
      </trkpt>
      <trkpt lat="47.58663" lon="6.97331">
        <ele>333.7</ele>
        <time>2019-08-16T12:41:07Z</time>
      </trkpt>
      <trkpt lat="47.5866" lon="6.97325">
        <ele>333.6</ele>
        <time>2019-08-16T12:41:08Z</time>
      </trkpt>
      <trkpt lat="47.58656" lon="6.97319">
        <ele>333.6</ele>
        <time>2019-08-16T12:41:09Z</time>
      </trkpt>
      <trkpt lat="47.58653" lon="6.97312">
        <ele>333.6</ele>
        <time>2019-08-16T12:41:10Z</time>
      </trkpt>
      <trkpt lat="47.58651" lon="6.97306">
        <ele>333.5</ele>
        <time>2019-08-16T12:41:11Z</time>
      </trkpt>
      <trkpt lat="47.58647" lon="6.97301">
        <ele>333.5</ele>
        <time>2019-08-16T12:41:12Z</time>
      </trkpt>
      <trkpt lat="47.58644" lon="6.97295">
        <ele>333.5</ele>
        <time>2019-08-16T12:41:13Z</time>
      </trkpt>
      <trkpt lat="47.58641" lon="6.97288">
        <ele>333.5</ele>
        <time>2019-08-16T12:41:14Z</time>
      </trkpt>
      <trkpt lat="47.58637" lon="6.97284">
        <ele>333.5</ele>
        <time>2019-08-16T12:41:15Z</time>
      </trkpt>
      <trkpt lat="47.58633" lon="6.97277">
        <ele>333.5</ele>
        <time>2019-08-16T12:41:16Z</time>
      </trkpt>
      <trkpt lat="47.5863" lon="6.97272">
        <ele>333.5</ele>
        <time>2019-08-16T12:41:17Z</time>
      </trkpt>
      <trkpt lat="47.58627" lon="6.97266">
        <ele>333.6</ele>
        <time>2019-08-16T12:41:18Z</time>
      </trkpt>
      <trkpt lat="47.58623" lon="6.97261">
        <ele>333.6</ele>
        <time>2019-08-16T12:41:19Z</time>
      </trkpt>
      <trkpt lat="47.58619" lon="6.97255">
        <ele>333.6</ele>
        <time>2019-08-16T12:41:20Z</time>
      </trkpt>
      <trkpt lat="47.58616" lon="6.9725">
        <ele>333.5</ele>
        <time>2019-08-16T12:41:21Z</time>
      </trkpt>
      <trkpt lat="47.58613" lon="6.97245">
        <ele>333.5</ele>
        <time>2019-08-16T12:41:22Z</time>
      </trkpt>
      <trkpt lat="47.58609" lon="6.9724">
        <ele>333.5</ele>
        <time>2019-08-16T12:41:23Z</time>
      </trkpt>
      <trkpt lat="47.58605" lon="6.97234">
        <ele>333.4</ele>
        <time>2019-08-16T12:41:24Z</time>
      </trkpt>
      <trkpt lat="47.58602" lon="6.97229">
        <ele>333.4</ele>
        <time>2019-08-16T12:41:25Z</time>
      </trkpt>
      <trkpt lat="47.58597" lon="6.97224">
        <ele>333.4</ele>
        <time>2019-08-16T12:41:26Z</time>
      </trkpt>
      <trkpt lat="47.58594" lon="6.97218">
        <ele>333.3</ele>
        <time>2019-08-16T12:41:27Z</time>
      </trkpt>
      <trkpt lat="47.5859" lon="6.97213">
        <ele>333.3</ele>
        <time>2019-08-16T12:41:28Z</time>
      </trkpt>
      <trkpt lat="47.58586" lon="6.97208">
        <ele>333.3</ele>
        <time>2019-08-16T12:41:29Z</time>
      </trkpt>
      <trkpt lat="47.58583" lon="6.97203">
        <ele>333.3</ele>
        <time>2019-08-16T12:41:30Z</time>
      </trkpt>
      <trkpt lat="47.58578" lon="6.97198">
        <ele>333.2</ele>
        <time>2019-08-16T12:41:31Z</time>
      </trkpt>
      <trkpt lat="47.58575" lon="6.97192">
        <ele>333.2</ele>
        <time>2019-08-16T12:41:32Z</time>
      </trkpt>
      <trkpt lat="47.58572" lon="6.97186">
        <ele>333.2</ele>
        <time>2019-08-16T12:41:33Z</time>
      </trkpt>
      <trkpt lat="47.58568" lon="6.97181">
        <ele>333.1</ele>
        <time>2019-08-16T12:41:34Z</time>
      </trkpt>
      <trkpt lat="47.58565" lon="6.97175">
        <ele>333.1</ele>
        <time>2019-08-16T12:41:35Z</time>
      </trkpt>
      <trkpt lat="47.58561" lon="6.97169">
        <ele>333</ele>
        <time>2019-08-16T12:41:36Z</time>
      </trkpt>
      <trkpt lat="47.58558" lon="6.97162">
        <ele>332.9</ele>
        <time>2019-08-16T12:41:37Z</time>
      </trkpt>
      <trkpt lat="47.58555" lon="6.97157">
        <ele>332.9</ele>
        <time>2019-08-16T12:41:38Z</time>
      </trkpt>
      <trkpt lat="47.58552" lon="6.9715">
        <ele>332.8</ele>
        <time>2019-08-16T12:41:39Z</time>
      </trkpt>
      <trkpt lat="47.58548" lon="6.97144">
        <ele>332.8</ele>
        <time>2019-08-16T12:41:40Z</time>
      </trkpt>
      <trkpt lat="47.58544" lon="6.97139">
        <ele>332.8</ele>
        <time>2019-08-16T12:41:41Z</time>
      </trkpt>
      <trkpt lat="47.58541" lon="6.97133">
        <ele>332.8</ele>
        <time>2019-08-16T12:41:42Z</time>
      </trkpt>
      <trkpt lat="47.58537" lon="6.97127">
        <ele>332.8</ele>
        <time>2019-08-16T12:41:43Z</time>
      </trkpt>
      <trkpt lat="47.58533" lon="6.97121">
        <ele>332.8</ele>
        <time>2019-08-16T12:41:44Z</time>
      </trkpt>
      <trkpt lat="47.58529" lon="6.97115">
        <ele>332.8</ele>
        <time>2019-08-16T12:41:45Z</time>
      </trkpt>
      <trkpt lat="47.58525" lon="6.9711">
        <ele>332.8</ele>
        <time>2019-08-16T12:41:46Z</time>
      </trkpt>
      <trkpt lat="47.58521" lon="6.97105">
        <ele>332.8</ele>
        <time>2019-08-16T12:41:47Z</time>
      </trkpt>
      <trkpt lat="47.58518" lon="6.97098">
        <ele>332.8</ele>
        <time>2019-08-16T12:41:48Z</time>
      </trkpt>
      <trkpt lat="47.58515" lon="6.97092">
        <ele>332.9</ele>
        <time>2019-08-16T12:41:49Z</time>
      </trkpt>
      <trkpt lat="47.58511" lon="6.97086">
        <ele>332.9</ele>
        <time>2019-08-16T12:41:50Z</time>
      </trkpt>
      <trkpt lat="47.58507" lon="6.97081">
        <ele>332.8</ele>
        <time>2019-08-16T12:41:51Z</time>
      </trkpt>
      <trkpt lat="47.58503" lon="6.97075">
        <ele>332.8</ele>
        <time>2019-08-16T12:41:52Z</time>
      </trkpt>
      <trkpt lat="47.58499" lon="6.97069">
        <ele>332.8</ele>
        <time>2019-08-16T12:41:53Z</time>
      </trkpt>
      <trkpt lat="47.58495" lon="6.97062">
        <ele>332.7</ele>
        <time>2019-08-16T12:41:54Z</time>
      </trkpt>
      <trkpt lat="47.5849" lon="6.97057">
        <ele>332.7</ele>
        <time>2019-08-16T12:41:55Z</time>
      </trkpt>
      <trkpt lat="47.58486" lon="6.97051">
        <ele>332.6</ele>
        <time>2019-08-16T12:41:56Z</time>
      </trkpt>
      <trkpt lat="47.58483" lon="6.97044">
        <ele>332.5</ele>
        <time>2019-08-16T12:41:57Z</time>
      </trkpt>
      <trkpt lat="47.58479" lon="6.97037">
        <ele>332.4</ele>
        <time>2019-08-16T12:41:58Z</time>
      </trkpt>
      <trkpt lat="47.58475" lon="6.97031">
        <ele>332.3</ele>
        <time>2019-08-16T12:41:59Z</time>
      </trkpt>
      <trkpt lat="47.58471" lon="6.97026">
        <ele>332.3</ele>
        <time>2019-08-16T12:42:00Z</time>
      </trkpt>
      <trkpt lat="47.58467" lon="6.97019">
        <ele>332.2</ele>
        <time>2019-08-16T12:42:01Z</time>
      </trkpt>
      <trkpt lat="47.58463" lon="6.97014">
        <ele>332.2</ele>
        <time>2019-08-16T12:42:02Z</time>
      </trkpt>
      <trkpt lat="47.5846" lon="6.97009">
        <ele>332.1</ele>
        <time>2019-08-16T12:42:03Z</time>
      </trkpt>
      <trkpt lat="47.58457" lon="6.97003">
        <ele>332.1</ele>
        <time>2019-08-16T12:42:04Z</time>
      </trkpt>
      <trkpt lat="47.58453" lon="6.96998">
        <ele>332.1</ele>
        <time>2019-08-16T12:42:05Z</time>
      </trkpt>
      <trkpt lat="47.5845" lon="6.96993">
        <ele>332.1</ele>
        <time>2019-08-16T12:42:06Z</time>
      </trkpt>
      <trkpt lat="47.58446" lon="6.96988">
        <ele>332.1</ele>
        <time>2019-08-16T12:42:07Z</time>
      </trkpt>
      <trkpt lat="47.58443" lon="6.96982">
        <ele>332</ele>
        <time>2019-08-16T12:42:08Z</time>
      </trkpt>
      <trkpt lat="47.58439" lon="6.96976">
        <ele>332</ele>
        <time>2019-08-16T12:42:09Z</time>
      </trkpt>
      <trkpt lat="47.58436" lon="6.96972">
        <ele>332</ele>
        <time>2019-08-16T12:42:10Z</time>
      </trkpt>
      <trkpt lat="47.58432" lon="6.96967">
        <ele>331.9</ele>
        <time>2019-08-16T12:42:11Z</time>
      </trkpt>
      <trkpt lat="47.58429" lon="6.9696">
        <ele>331.9</ele>
        <time>2019-08-16T12:42:12Z</time>
      </trkpt>
      <trkpt lat="47.58426" lon="6.96954">
        <ele>331.8</ele>
        <time>2019-08-16T12:42:13Z</time>
      </trkpt>
      <trkpt lat="47.58423" lon="6.96948">
        <ele>331.7</ele>
        <time>2019-08-16T12:42:14Z</time>
      </trkpt>
      <trkpt lat="47.58419" lon="6.96943">
        <ele>331.7</ele>
        <time>2019-08-16T12:42:15Z</time>
      </trkpt>
      <trkpt lat="47.58416" lon="6.96937">
        <ele>331.6</ele>
        <time>2019-08-16T12:42:16Z</time>
      </trkpt>
      <trkpt lat="47.58412" lon="6.96932">
        <ele>331.6</ele>
        <time>2019-08-16T12:42:17Z</time>
      </trkpt>
      <trkpt lat="47.58408" lon="6.96926">
        <ele>331.5</ele>
        <time>2019-08-16T12:42:18Z</time>
      </trkpt>
      <trkpt lat="47.58404" lon="6.96921">
        <ele>331.5</ele>
        <time>2019-08-16T12:42:19Z</time>
      </trkpt>
      <trkpt lat="47.584" lon="6.96917">
        <ele>331.4</ele>
        <time>2019-08-16T12:42:20Z</time>
      </trkpt>
      <trkpt lat="47.58396" lon="6.96911">
        <ele>331.4</ele>
        <time>2019-08-16T12:42:21Z</time>
      </trkpt>
      <trkpt lat="47.58392" lon="6.96906">
        <ele>331.3</ele>
        <time>2019-08-16T12:42:22Z</time>
      </trkpt>
      <trkpt lat="47.58388" lon="6.969">
        <ele>331.2</ele>
        <time>2019-08-16T12:42:23Z</time>
      </trkpt>
      <trkpt lat="47.58384" lon="6.96895">
        <ele>331.1</ele>
        <time>2019-08-16T12:42:24Z</time>
      </trkpt>
      <trkpt lat="47.58381" lon="6.9689">
        <ele>330.9</ele>
        <time>2019-08-16T12:42:25Z</time>
      </trkpt>
      <trkpt lat="47.58377" lon="6.96885">
        <ele>330.7</ele>
        <time>2019-08-16T12:42:26Z</time>
      </trkpt>
      <trkpt lat="47.58373" lon="6.9688">
        <ele>330.5</ele>
        <time>2019-08-16T12:42:27Z</time>
      </trkpt>
      <trkpt lat="47.58369" lon="6.96874">
        <ele>330.2</ele>
        <time>2019-08-16T12:42:28Z</time>
      </trkpt>
      <trkpt lat="47.58365" lon="6.96868">
        <ele>329.8</ele>
        <time>2019-08-16T12:42:29Z</time>
      </trkpt>
      <trkpt lat="47.58361" lon="6.96862">
        <ele>329.6</ele>
        <time>2019-08-16T12:42:30Z</time>
      </trkpt>
      <trkpt lat="47.58358" lon="6.96856">
        <ele>329.4</ele>
        <time>2019-08-16T12:42:31Z</time>
      </trkpt>
      <trkpt lat="47.58354" lon="6.96849">
        <ele>329.3</ele>
        <time>2019-08-16T12:42:32Z</time>
      </trkpt>
      <trkpt lat="47.58351" lon="6.96843">
        <ele>329.2</ele>
        <time>2019-08-16T12:42:33Z</time>
      </trkpt>
      <trkpt lat="47.58347" lon="6.96837">
        <ele>329.2</ele>
        <time>2019-08-16T12:42:34Z</time>
      </trkpt>
      <trkpt lat="47.58344" lon="6.9683">
        <ele>329.2</ele>
        <time>2019-08-16T12:42:35Z</time>
      </trkpt>
      <trkpt lat="47.58339" lon="6.96825">
        <ele>329.3</ele>
        <time>2019-08-16T12:42:36Z</time>
      </trkpt>
      <trkpt lat="47.58335" lon="6.96819">
        <ele>329.4</ele>
        <time>2019-08-16T12:42:37Z</time>
      </trkpt>
      <trkpt lat="47.58332" lon="6.96812">
        <ele>329.4</ele>
        <time>2019-08-16T12:42:38Z</time>
      </trkpt>
      <trkpt lat="47.58328" lon="6.96807">
        <ele>329.5</ele>
        <time>2019-08-16T12:42:39Z</time>
      </trkpt>
      <trkpt lat="47.58325" lon="6.96801">
        <ele>329.6</ele>
        <time>2019-08-16T12:42:40Z</time>
      </trkpt>
      <trkpt lat="47.58321" lon="6.96794">
        <ele>329.8</ele>
        <time>2019-08-16T12:42:41Z</time>
      </trkpt>
      <trkpt lat="47.58318" lon="6.96787">
        <ele>330</ele>
        <time>2019-08-16T12:42:42Z</time>
      </trkpt>
      <trkpt lat="47.58314" lon="6.96782">
        <ele>330.2</ele>
        <time>2019-08-16T12:42:43Z</time>
      </trkpt>
      <trkpt lat="47.58309" lon="6.96776">
        <ele>330.5</ele>
        <time>2019-08-16T12:42:44Z</time>
      </trkpt>
      <trkpt lat="47.58305" lon="6.9677">
        <ele>330.8</ele>
        <time>2019-08-16T12:42:45Z</time>
      </trkpt>
      <trkpt lat="47.58301" lon="6.96764">
        <ele>331.1</ele>
        <time>2019-08-16T12:42:46Z</time>
      </trkpt>
      <trkpt lat="47.58297" lon="6.96758">
        <ele>331.4</ele>
        <time>2019-08-16T12:42:47Z</time>
      </trkpt>
      <trkpt lat="47.58293" lon="6.96753">
        <ele>331.6</ele>
        <time>2019-08-16T12:42:48Z</time>
      </trkpt>
      <trkpt lat="47.58289" lon="6.96747">
        <ele>331.8</ele>
        <time>2019-08-16T12:42:49Z</time>
      </trkpt>
      <trkpt lat="47.58286" lon="6.96741">
        <ele>332</ele>
        <time>2019-08-16T12:42:50Z</time>
      </trkpt>
      <trkpt lat="47.58282" lon="6.96735">
        <ele>332.1</ele>
        <time>2019-08-16T12:42:51Z</time>
      </trkpt>
      <trkpt lat="47.58276" lon="6.9673">
        <ele>332.2</ele>
        <time>2019-08-16T12:42:52Z</time>
      </trkpt>
      <trkpt lat="47.58273" lon="6.96725">
        <ele>332.2</ele>
        <time>2019-08-16T12:42:53Z</time>
      </trkpt>
      <trkpt lat="47.58269" lon="6.9672">
        <ele>332.3</ele>
        <time>2019-08-16T12:42:54Z</time>
      </trkpt>
      <trkpt lat="47.58266" lon="6.96714">
        <ele>332.4</ele>
        <time>2019-08-16T12:42:55Z</time>
      </trkpt>
      <trkpt lat="47.58263" lon="6.96709">
        <ele>332.5</ele>
        <time>2019-08-16T12:42:56Z</time>
      </trkpt>
      <trkpt lat="47.58259" lon="6.96704">
        <ele>332.5</ele>
        <time>2019-08-16T12:42:57Z</time>
      </trkpt>
      <trkpt lat="47.58255" lon="6.96699">
        <ele>332.6</ele>
        <time>2019-08-16T12:42:58Z</time>
      </trkpt>
      <trkpt lat="47.58252" lon="6.96693">
        <ele>332.7</ele>
        <time>2019-08-16T12:42:59Z</time>
      </trkpt>
      <trkpt lat="47.58249" lon="6.96687">
        <ele>332.8</ele>
        <time>2019-08-16T12:43:00Z</time>
      </trkpt>
      <trkpt lat="47.58245" lon="6.96682">
        <ele>332.8</ele>
        <time>2019-08-16T12:43:01Z</time>
      </trkpt>
      <trkpt lat="47.58242" lon="6.96676">
        <ele>332.9</ele>
        <time>2019-08-16T12:43:02Z</time>
      </trkpt>
      <trkpt lat="47.58239" lon="6.9667">
        <ele>332.9</ele>
        <time>2019-08-16T12:43:03Z</time>
      </trkpt>
      <trkpt lat="47.58235" lon="6.96665">
        <ele>332.9</ele>
        <time>2019-08-16T12:43:04Z</time>
      </trkpt>
      <trkpt lat="47.58232" lon="6.96659">
        <ele>332.9</ele>
        <time>2019-08-16T12:43:05Z</time>
      </trkpt>
      <trkpt lat="47.58229" lon="6.96652">
        <ele>332.9</ele>
        <time>2019-08-16T12:43:06Z</time>
      </trkpt>
      <trkpt lat="47.58226" lon="6.96645">
        <ele>332.9</ele>
        <time>2019-08-16T12:43:07Z</time>
      </trkpt>
      <trkpt lat="47.58223" lon="6.96639">
        <ele>332.9</ele>
        <time>2019-08-16T12:43:08Z</time>
      </trkpt>
      <trkpt lat="47.58219" lon="6.96634">
        <ele>333</ele>
        <time>2019-08-16T12:43:09Z</time>
      </trkpt>
      <trkpt lat="47.58216" lon="6.96628">
        <ele>333</ele>
        <time>2019-08-16T12:43:10Z</time>
      </trkpt>
      <trkpt lat="47.58213" lon="6.96621">
        <ele>333</ele>
        <time>2019-08-16T12:43:11Z</time>
      </trkpt>
      <trkpt lat="47.58211" lon="6.96615">
        <ele>333.1</ele>
        <time>2019-08-16T12:43:12Z</time>
      </trkpt>
      <trkpt lat="47.58209" lon="6.96609">
        <ele>333.1</ele>
        <time>2019-08-16T12:43:13Z</time>
      </trkpt>
      <trkpt lat="47.58205" lon="6.96604">
        <ele>333.1</ele>
        <time>2019-08-16T12:43:14Z</time>
      </trkpt>
      <trkpt lat="47.58201" lon="6.966">
        <ele>333.2</ele>
        <time>2019-08-16T12:43:15Z</time>
      </trkpt>
      <trkpt lat="47.58198" lon="6.96593">
        <ele>333.2</ele>
        <time>2019-08-16T12:43:16Z</time>
      </trkpt>
      <trkpt lat="47.58192" lon="6.96588">
        <ele>333.3</ele>
        <time>2019-08-16T12:43:17Z</time>
      </trkpt>
      <trkpt lat="47.58188" lon="6.96583">
        <ele>333.3</ele>
        <time>2019-08-16T12:43:18Z</time>
      </trkpt>
      <trkpt lat="47.58184" lon="6.96578">
        <ele>333.4</ele>
        <time>2019-08-16T12:43:19Z</time>
      </trkpt>
      <trkpt lat="47.58181" lon="6.96572">
        <ele>333.4</ele>
        <time>2019-08-16T12:43:20Z</time>
      </trkpt>
      <trkpt lat="47.58179" lon="6.96567">
        <ele>333.4</ele>
        <time>2019-08-16T12:43:21Z</time>
      </trkpt>
      <trkpt lat="47.58174" lon="6.96562">
        <ele>333.4</ele>
        <time>2019-08-16T12:43:22Z</time>
      </trkpt>
      <trkpt lat="47.5817" lon="6.96558">
        <ele>333.4</ele>
        <time>2019-08-16T12:43:23Z</time>
      </trkpt>
      <trkpt lat="47.58167" lon="6.96553">
        <ele>333.4</ele>
        <time>2019-08-16T12:43:24Z</time>
      </trkpt>
      <trkpt lat="47.58163" lon="6.96548">
        <ele>333.4</ele>
        <time>2019-08-16T12:43:25Z</time>
      </trkpt>
      <trkpt lat="47.58159" lon="6.96543">
        <ele>333.4</ele>
        <time>2019-08-16T12:43:26Z</time>
      </trkpt>
      <trkpt lat="47.58155" lon="6.96537">
        <ele>333.4</ele>
        <time>2019-08-16T12:43:27Z</time>
      </trkpt>
      <trkpt lat="47.58151" lon="6.96531">
        <ele>333.4</ele>
        <time>2019-08-16T12:43:28Z</time>
      </trkpt>
      <trkpt lat="47.58147" lon="6.96526">
        <ele>333.4</ele>
        <time>2019-08-16T12:43:29Z</time>
      </trkpt>
      <trkpt lat="47.58143" lon="6.9652">
        <ele>333.4</ele>
        <time>2019-08-16T12:43:30Z</time>
      </trkpt>
      <trkpt lat="47.58139" lon="6.96515">
        <ele>333.4</ele>
        <time>2019-08-16T12:43:31Z</time>
      </trkpt>
      <trkpt lat="47.58136" lon="6.96509">
        <ele>333.4</ele>
        <time>2019-08-16T12:43:32Z</time>
      </trkpt>
      <trkpt lat="47.58133" lon="6.96503">
        <ele>333.4</ele>
        <time>2019-08-16T12:43:33Z</time>
      </trkpt>
      <trkpt lat="47.58129" lon="6.96497">
        <ele>333.4</ele>
        <time>2019-08-16T12:43:34Z</time>
      </trkpt>
      <trkpt lat="47.58126" lon="6.96491">
        <ele>333.4</ele>
        <time>2019-08-16T12:43:35Z</time>
      </trkpt>
      <trkpt lat="47.58122" lon="6.96487">
        <ele>333.4</ele>
        <time>2019-08-16T12:43:36Z</time>
      </trkpt>
      <trkpt lat="47.58118" lon="6.96481">
        <ele>333.4</ele>
        <time>2019-08-16T12:43:37Z</time>
      </trkpt>
      <trkpt lat="47.58114" lon="6.96476">
        <ele>333.4</ele>
        <time>2019-08-16T12:43:38Z</time>
      </trkpt>
      <trkpt lat="47.5811" lon="6.9647">
        <ele>333.4</ele>
        <time>2019-08-16T12:43:39Z</time>
      </trkpt>
      <trkpt lat="47.58107" lon="6.96464">
        <ele>333.4</ele>
        <time>2019-08-16T12:43:40Z</time>
      </trkpt>
      <trkpt lat="47.58103" lon="6.96458">
        <ele>333.4</ele>
        <time>2019-08-16T12:43:41Z</time>
      </trkpt>
      <trkpt lat="47.58099" lon="6.96452">
        <ele>333.4</ele>
        <time>2019-08-16T12:43:42Z</time>
      </trkpt>
      <trkpt lat="47.58096" lon="6.96446">
        <ele>333.4</ele>
        <time>2019-08-16T12:43:43Z</time>
      </trkpt>
      <trkpt lat="47.58093" lon="6.9644">
        <ele>333.4</ele>
        <time>2019-08-16T12:43:44Z</time>
      </trkpt>
      <trkpt lat="47.58089" lon="6.96435">
        <ele>333.4</ele>
        <time>2019-08-16T12:43:45Z</time>
      </trkpt>
      <trkpt lat="47.58085" lon="6.96428">
        <ele>333.4</ele>
        <time>2019-08-16T12:43:46Z</time>
      </trkpt>
      <trkpt lat="47.58081" lon="6.96423">
        <ele>333.4</ele>
        <time>2019-08-16T12:43:47Z</time>
      </trkpt>
      <trkpt lat="47.58076" lon="6.96417">
        <ele>333.4</ele>
        <time>2019-08-16T12:43:48Z</time>
      </trkpt>
      <trkpt lat="47.58072" lon="6.96411">
        <ele>333.4</ele>
        <time>2019-08-16T12:43:49Z</time>
      </trkpt>
      <trkpt lat="47.58067" lon="6.96405">
        <ele>333.4</ele>
        <time>2019-08-16T12:43:50Z</time>
      </trkpt>
      <trkpt lat="47.58063" lon="6.96399">
        <ele>333.4</ele>
        <time>2019-08-16T12:43:51Z</time>
      </trkpt>
      <trkpt lat="47.58059" lon="6.96393">
        <ele>333.4</ele>
        <time>2019-08-16T12:43:52Z</time>
      </trkpt>
      <trkpt lat="47.58054" lon="6.96388">
        <ele>333.4</ele>
        <time>2019-08-16T12:43:53Z</time>
      </trkpt>
      <trkpt lat="47.5805" lon="6.96382">
        <ele>333.4</ele>
        <time>2019-08-16T12:43:54Z</time>
      </trkpt>
      <trkpt lat="47.58045" lon="6.96376">
        <ele>333.4</ele>
        <time>2019-08-16T12:43:55Z</time>
      </trkpt>
      <trkpt lat="47.58041" lon="6.96369">
        <ele>333.4</ele>
        <time>2019-08-16T12:43:56Z</time>
      </trkpt>
      <trkpt lat="47.58036" lon="6.96364">
        <ele>333.4</ele>
        <time>2019-08-16T12:43:57Z</time>
      </trkpt>
      <trkpt lat="47.58032" lon="6.96357">
        <ele>333.4</ele>
        <time>2019-08-16T12:43:58Z</time>
      </trkpt>
      <trkpt lat="47.58028" lon="6.96351">
        <ele>333.4</ele>
        <time>2019-08-16T12:43:59Z</time>
      </trkpt>
      <trkpt lat="47.58025" lon="6.96346">
        <ele>333.4</ele>
        <time>2019-08-16T12:44:00Z</time>
      </trkpt>
      <trkpt lat="47.58021" lon="6.9634">
        <ele>333.4</ele>
        <time>2019-08-16T12:44:01Z</time>
      </trkpt>
      <trkpt lat="47.58017" lon="6.96335">
        <ele>333.4</ele>
        <time>2019-08-16T12:44:02Z</time>
      </trkpt>
      <trkpt lat="47.58014" lon="6.96329">
        <ele>333.4</ele>
        <time>2019-08-16T12:44:03Z</time>
      </trkpt>
      <trkpt lat="47.5801" lon="6.96323">
        <ele>333.4</ele>
        <time>2019-08-16T12:44:04Z</time>
      </trkpt>
      <trkpt lat="47.58005" lon="6.96317">
        <ele>333.4</ele>
        <time>2019-08-16T12:44:05Z</time>
      </trkpt>
      <trkpt lat="47.58001" lon="6.96311">
        <ele>333.4</ele>
        <time>2019-08-16T12:44:06Z</time>
      </trkpt>
      <trkpt lat="47.57997" lon="6.96306">
        <ele>333.4</ele>
        <time>2019-08-16T12:44:07Z</time>
      </trkpt>
      <trkpt lat="47.57994" lon="6.96299">
        <ele>333.4</ele>
        <time>2019-08-16T12:44:08Z</time>
      </trkpt>
      <trkpt lat="47.5799" lon="6.96294">
        <ele>333.4</ele>
        <time>2019-08-16T12:44:09Z</time>
      </trkpt>
      <trkpt lat="47.57987" lon="6.96289">
        <ele>333.4</ele>
        <time>2019-08-16T12:44:10Z</time>
      </trkpt>
      <trkpt lat="47.57984" lon="6.96285">
        <ele>333.4</ele>
        <time>2019-08-16T12:44:11Z</time>
      </trkpt>
      <trkpt lat="47.57981" lon="6.9628">
        <ele>333.3</ele>
        <time>2019-08-16T12:44:12Z</time>
      </trkpt>
      <trkpt lat="47.57978" lon="6.96275">
        <ele>333.3</ele>
        <time>2019-08-16T12:44:13Z</time>
      </trkpt>
      <trkpt lat="47.57975" lon="6.9627">
        <ele>333.2</ele>
        <time>2019-08-16T12:44:14Z</time>
      </trkpt>
      <trkpt lat="47.57971" lon="6.96266">
        <ele>333.1</ele>
        <time>2019-08-16T12:44:15Z</time>
      </trkpt>
      <trkpt lat="47.57967" lon="6.9626">
        <ele>332.9</ele>
        <time>2019-08-16T12:44:16Z</time>
      </trkpt>
      <trkpt lat="47.57964" lon="6.96255">
        <ele>332.8</ele>
        <time>2019-08-16T12:44:17Z</time>
      </trkpt>
      <trkpt lat="47.57961" lon="6.96249">
        <ele>332.7</ele>
        <time>2019-08-16T12:44:18Z</time>
      </trkpt>
      <trkpt lat="47.57959" lon="6.96244">
        <ele>332.7</ele>
        <time>2019-08-16T12:44:19Z</time>
      </trkpt>
      <trkpt lat="47.57956" lon="6.96239">
        <ele>332.6</ele>
        <time>2019-08-16T12:44:20Z</time>
      </trkpt>
      <trkpt lat="47.57952" lon="6.96234">
        <ele>332.6</ele>
        <time>2019-08-16T12:44:21Z</time>
      </trkpt>
      <trkpt lat="47.57949" lon="6.96229">
        <ele>332.6</ele>
        <time>2019-08-16T12:44:22Z</time>
      </trkpt>
      <trkpt lat="47.57945" lon="6.96223">
        <ele>332.5</ele>
        <time>2019-08-16T12:44:23Z</time>
      </trkpt>
      <trkpt lat="47.57943" lon="6.96217">
        <ele>332.5</ele>
        <time>2019-08-16T12:44:24Z</time>
      </trkpt>
      <trkpt lat="47.5794" lon="6.96211">
        <ele>332.5</ele>
        <time>2019-08-16T12:44:25Z</time>
      </trkpt>
      <trkpt lat="47.57938" lon="6.96205">
        <ele>332.5</ele>
        <time>2019-08-16T12:44:26Z</time>
      </trkpt>
      <trkpt lat="47.57934" lon="6.96201">
        <ele>332.5</ele>
        <time>2019-08-16T12:44:27Z</time>
      </trkpt>
      <trkpt lat="47.57931" lon="6.96195">
        <ele>332.5</ele>
        <time>2019-08-16T12:44:28Z</time>
      </trkpt>
      <trkpt lat="47.57928" lon="6.96189">
        <ele>332.5</ele>
        <time>2019-08-16T12:44:29Z</time>
      </trkpt>
      <trkpt lat="47.57925" lon="6.96183">
        <ele>332.5</ele>
        <time>2019-08-16T12:44:30Z</time>
      </trkpt>
      <trkpt lat="47.57922" lon="6.96178">
        <ele>332.5</ele>
        <time>2019-08-16T12:44:31Z</time>
      </trkpt>
      <trkpt lat="47.5792" lon="6.96173">
        <ele>332.5</ele>
        <time>2019-08-16T12:44:32Z</time>
      </trkpt>
      <trkpt lat="47.57916" lon="6.96168">
        <ele>332.5</ele>
        <time>2019-08-16T12:44:33Z</time>
      </trkpt>
      <trkpt lat="47.57914" lon="6.96163">
        <ele>332.5</ele>
        <time>2019-08-16T12:44:34Z</time>
      </trkpt>
      <trkpt lat="47.5791" lon="6.96158">
        <ele>332.5</ele>
        <time>2019-08-16T12:44:35Z</time>
      </trkpt>
      <trkpt lat="47.57906" lon="6.96152">
        <ele>332.5</ele>
        <time>2019-08-16T12:44:36Z</time>
      </trkpt>
      <trkpt lat="47.57902" lon="6.96147">
        <ele>332.5</ele>
        <time>2019-08-16T12:44:37Z</time>
      </trkpt>
      <trkpt lat="47.57898" lon="6.96142">
        <ele>332.5</ele>
        <time>2019-08-16T12:44:38Z</time>
      </trkpt>
      <trkpt lat="47.57894" lon="6.96136">
        <ele>332.5</ele>
        <time>2019-08-16T12:44:39Z</time>
      </trkpt>
      <trkpt lat="47.5789" lon="6.9613">
        <ele>332.5</ele>
        <time>2019-08-16T12:44:40Z</time>
      </trkpt>
      <trkpt lat="47.57887" lon="6.96125">
        <ele>332.5</ele>
        <time>2019-08-16T12:44:41Z</time>
      </trkpt>
      <trkpt lat="47.57883" lon="6.9612">
        <ele>332.5</ele>
        <time>2019-08-16T12:44:42Z</time>
      </trkpt>
      <trkpt lat="47.57879" lon="6.96113">
        <ele>332.5</ele>
        <time>2019-08-16T12:44:43Z</time>
      </trkpt>
      <trkpt lat="47.57875" lon="6.96108">
        <ele>332.5</ele>
        <time>2019-08-16T12:44:44Z</time>
      </trkpt>
      <trkpt lat="47.5787" lon="6.96101">
        <ele>332.5</ele>
        <time>2019-08-16T12:44:45Z</time>
      </trkpt>
      <trkpt lat="47.57865" lon="6.96095">
        <ele>332.5</ele>
        <time>2019-08-16T12:44:46Z</time>
      </trkpt>
      <trkpt lat="47.57861" lon="6.96088">
        <ele>332.5</ele>
        <time>2019-08-16T12:44:47Z</time>
      </trkpt>
      <trkpt lat="47.57856" lon="6.96081">
        <ele>332.5</ele>
        <time>2019-08-16T12:44:48Z</time>
      </trkpt>
      <trkpt lat="47.57851" lon="6.96075">
        <ele>332.5</ele>
        <time>2019-08-16T12:44:49Z</time>
      </trkpt>
      <trkpt lat="47.57846" lon="6.96069">
        <ele>332.5</ele>
        <time>2019-08-16T12:44:50Z</time>
      </trkpt>
      <trkpt lat="47.57841" lon="6.96063">
        <ele>332.5</ele>
        <time>2019-08-16T12:44:51Z</time>
      </trkpt>
      <trkpt lat="47.57836" lon="6.96057">
        <ele>332.5</ele>
        <time>2019-08-16T12:44:52Z</time>
      </trkpt>
      <trkpt lat="47.5783" lon="6.9605">
        <ele>332.5</ele>
        <time>2019-08-16T12:44:53Z</time>
      </trkpt>
      <trkpt lat="47.57827" lon="6.96044">
        <ele>332.5</ele>
        <time>2019-08-16T12:44:54Z</time>
      </trkpt>
      <trkpt lat="47.57823" lon="6.96037">
        <ele>332.5</ele>
        <time>2019-08-16T12:44:55Z</time>
      </trkpt>
      <trkpt lat="47.57819" lon="6.96031">
        <ele>332.5</ele>
        <time>2019-08-16T12:44:56Z</time>
      </trkpt>
      <trkpt lat="47.57816" lon="6.96026">
        <ele>332.5</ele>
        <time>2019-08-16T12:44:57Z</time>
      </trkpt>
      <trkpt lat="47.57812" lon="6.9602">
        <ele>332.5</ele>
        <time>2019-08-16T12:44:58Z</time>
      </trkpt>
      <trkpt lat="47.57808" lon="6.96014">
        <ele>332.5</ele>
        <time>2019-08-16T12:44:59Z</time>
      </trkpt>
      <trkpt lat="47.57805" lon="6.96009">
        <ele>332.5</ele>
        <time>2019-08-16T12:45:00Z</time>
      </trkpt>
      <trkpt lat="47.578" lon="6.96003">
        <ele>332.5</ele>
        <time>2019-08-16T12:45:01Z</time>
      </trkpt>
      <trkpt lat="47.57796" lon="6.95997">
        <ele>332.5</ele>
        <time>2019-08-16T12:45:02Z</time>
      </trkpt>
      <trkpt lat="47.57792" lon="6.95991">
        <ele>332.5</ele>
        <time>2019-08-16T12:45:03Z</time>
      </trkpt>
      <trkpt lat="47.57787" lon="6.95985">
        <ele>332.5</ele>
        <time>2019-08-16T12:45:04Z</time>
      </trkpt>
      <trkpt lat="47.57784" lon="6.9598">
        <ele>332.5</ele>
        <time>2019-08-16T12:45:05Z</time>
      </trkpt>
      <trkpt lat="47.5778" lon="6.95974">
        <ele>332.5</ele>
        <time>2019-08-16T12:45:06Z</time>
      </trkpt>
      <trkpt lat="47.57775" lon="6.95965">
        <ele>332.5</ele>
        <time>2019-08-16T12:45:07Z</time>
      </trkpt>
      <trkpt lat="47.57772" lon="6.95959">
        <ele>332.5</ele>
        <time>2019-08-16T12:45:08Z</time>
      </trkpt>
      <trkpt lat="47.57769" lon="6.95953">
        <ele>332.5</ele>
        <time>2019-08-16T12:45:09Z</time>
      </trkpt>
      <trkpt lat="47.57766" lon="6.95946">
        <ele>332.5</ele>
        <time>2019-08-16T12:45:10Z</time>
      </trkpt>
      <trkpt lat="47.57762" lon="6.9594">
        <ele>332.5</ele>
        <time>2019-08-16T12:45:11Z</time>
      </trkpt>
      <trkpt lat="47.57757" lon="6.95933">
        <ele>332.5</ele>
        <time>2019-08-16T12:45:12Z</time>
      </trkpt>
      <trkpt lat="47.57753" lon="6.95926">
        <ele>332.5</ele>
        <time>2019-08-16T12:45:13Z</time>
      </trkpt>
      <trkpt lat="47.57748" lon="6.95918">
        <ele>332.5</ele>
        <time>2019-08-16T12:45:14Z</time>
      </trkpt>
      <trkpt lat="47.57745" lon="6.95912">
        <ele>332.5</ele>
        <time>2019-08-16T12:45:15Z</time>
      </trkpt>
      <trkpt lat="47.57741" lon="6.95908">
        <ele>332.5</ele>
        <time>2019-08-16T12:45:16Z</time>
      </trkpt>
      <trkpt lat="47.57737" lon="6.95901">
        <ele>332.5</ele>
        <time>2019-08-16T12:45:17Z</time>
      </trkpt>
      <trkpt lat="47.57733" lon="6.95894">
        <ele>332.5</ele>
        <time>2019-08-16T12:45:18Z</time>
      </trkpt>
      <trkpt lat="47.57728" lon="6.9589">
        <ele>332.5</ele>
        <time>2019-08-16T12:45:19Z</time>
      </trkpt>
      <trkpt lat="47.57724" lon="6.95884">
        <ele>332.5</ele>
        <time>2019-08-16T12:45:20Z</time>
      </trkpt>
      <trkpt lat="47.57719" lon="6.95878">
        <ele>332.5</ele>
        <time>2019-08-16T12:45:21Z</time>
      </trkpt>
      <trkpt lat="47.57715" lon="6.95872">
        <ele>332.5</ele>
        <time>2019-08-16T12:45:22Z</time>
      </trkpt>
      <trkpt lat="47.57712" lon="6.95867">
        <ele>332.5</ele>
        <time>2019-08-16T12:45:23Z</time>
      </trkpt>
      <trkpt lat="47.57708" lon="6.95861">
        <ele>332.5</ele>
        <time>2019-08-16T12:45:24Z</time>
      </trkpt>
      <trkpt lat="47.57705" lon="6.95858">
        <ele>332.5</ele>
        <time>2019-08-16T12:45:25Z</time>
      </trkpt>
      <trkpt lat="47.57702" lon="6.95852">
        <ele>332.5</ele>
        <time>2019-08-16T12:45:26Z</time>
      </trkpt>
      <trkpt lat="47.57697" lon="6.95847">
        <ele>332.5</ele>
        <time>2019-08-16T12:45:27Z</time>
      </trkpt>
      <trkpt lat="47.57693" lon="6.95841">
        <ele>332.5</ele>
        <time>2019-08-16T12:45:28Z</time>
      </trkpt>
      <trkpt lat="47.57689" lon="6.95835">
        <ele>332.5</ele>
        <time>2019-08-16T12:45:29Z</time>
      </trkpt>
      <trkpt lat="47.57685" lon="6.95829">
        <ele>332.5</ele>
        <time>2019-08-16T12:45:30Z</time>
      </trkpt>
      <trkpt lat="47.57682" lon="6.95824">
        <ele>332.5</ele>
        <time>2019-08-16T12:45:31Z</time>
      </trkpt>
      <trkpt lat="47.57679" lon="6.95818">
        <ele>332.5</ele>
        <time>2019-08-16T12:45:32Z</time>
      </trkpt>
      <trkpt lat="47.57676" lon="6.95813">
        <ele>332.5</ele>
        <time>2019-08-16T12:45:33Z</time>
      </trkpt>
      <trkpt lat="47.57673" lon="6.95807">
        <ele>332.5</ele>
        <time>2019-08-16T12:45:34Z</time>
      </trkpt>
      <trkpt lat="47.57669" lon="6.95802">
        <ele>332.5</ele>
        <time>2019-08-16T12:45:35Z</time>
      </trkpt>
      <trkpt lat="47.57666" lon="6.95797">
        <ele>332.5</ele>
        <time>2019-08-16T12:45:36Z</time>
      </trkpt>
      <trkpt lat="47.57662" lon="6.95793">
        <ele>332.5</ele>
        <time>2019-08-16T12:45:37Z</time>
      </trkpt>
      <trkpt lat="47.57659" lon="6.95788">
        <ele>332.5</ele>
        <time>2019-08-16T12:45:38Z</time>
      </trkpt>
      <trkpt lat="47.57654" lon="6.95783">
        <ele>332.5</ele>
        <time>2019-08-16T12:45:39Z</time>
      </trkpt>
      <trkpt lat="47.57651" lon="6.95777">
        <ele>332.5</ele>
        <time>2019-08-16T12:45:40Z</time>
      </trkpt>
      <trkpt lat="47.57648" lon="6.95771">
        <ele>332.5</ele>
        <time>2019-08-16T12:45:41Z</time>
      </trkpt>
      <trkpt lat="47.57645" lon="6.95765">
        <ele>332.5</ele>
        <time>2019-08-16T12:45:42Z</time>
      </trkpt>
      <trkpt lat="47.57642" lon="6.95758">
        <ele>332.5</ele>
        <time>2019-08-16T12:45:43Z</time>
      </trkpt>
      <trkpt lat="47.57639" lon="6.95751">
        <ele>332.4</ele>
        <time>2019-08-16T12:45:44Z</time>
      </trkpt>
      <trkpt lat="47.57635" lon="6.95745">
        <ele>332.4</ele>
        <time>2019-08-16T12:45:45Z</time>
      </trkpt>
      <trkpt lat="47.57632" lon="6.95739">
        <ele>332.3</ele>
        <time>2019-08-16T12:45:46Z</time>
      </trkpt>
      <trkpt lat="47.57627" lon="6.95734">
        <ele>332.1</ele>
        <time>2019-08-16T12:45:47Z</time>
      </trkpt>
      <trkpt lat="47.57623" lon="6.95729">
        <ele>332</ele>
        <time>2019-08-16T12:45:48Z</time>
      </trkpt>
      <trkpt lat="47.57619" lon="6.95725">
        <ele>331.9</ele>
        <time>2019-08-16T12:45:49Z</time>
      </trkpt>
      <trkpt lat="47.57614" lon="6.9572">
        <ele>331.7</ele>
        <time>2019-08-16T12:45:50Z</time>
      </trkpt>
      <trkpt lat="47.57609" lon="6.95715">
        <ele>331.6</ele>
        <time>2019-08-16T12:45:51Z</time>
      </trkpt>
      <trkpt lat="47.57605" lon="6.95709">
        <ele>331.6</ele>
        <time>2019-08-16T12:45:52Z</time>
      </trkpt>
      <trkpt lat="47.57601" lon="6.95704">
        <ele>331.6</ele>
        <time>2019-08-16T12:45:53Z</time>
      </trkpt>
      <trkpt lat="47.57597" lon="6.95699">
        <ele>331.5</ele>
        <time>2019-08-16T12:45:54Z</time>
      </trkpt>
      <trkpt lat="47.57594" lon="6.95694">
        <ele>331.5</ele>
        <time>2019-08-16T12:45:55Z</time>
      </trkpt>
      <trkpt lat="47.5759" lon="6.95688">
        <ele>331.5</ele>
        <time>2019-08-16T12:45:56Z</time>
      </trkpt>
      <trkpt lat="47.57586" lon="6.95683">
        <ele>331.5</ele>
        <time>2019-08-16T12:45:57Z</time>
      </trkpt>
      <trkpt lat="47.57583" lon="6.95678">
        <ele>331.5</ele>
        <time>2019-08-16T12:45:58Z</time>
      </trkpt>
      <trkpt lat="47.5758" lon="6.95674">
        <ele>331.5</ele>
        <time>2019-08-16T12:45:59Z</time>
      </trkpt>
      <trkpt lat="47.57576" lon="6.95669">
        <ele>331.5</ele>
        <time>2019-08-16T12:46:00Z</time>
      </trkpt>
      <trkpt lat="47.57572" lon="6.95663">
        <ele>331.5</ele>
        <time>2019-08-16T12:46:01Z</time>
      </trkpt>
      <trkpt lat="47.57567" lon="6.95658">
        <ele>331.5</ele>
        <time>2019-08-16T12:46:02Z</time>
      </trkpt>
      <trkpt lat="47.57563" lon="6.95652">
        <ele>331.5</ele>
        <time>2019-08-16T12:46:03Z</time>
      </trkpt>
      <trkpt lat="47.57559" lon="6.95647">
        <ele>331.5</ele>
        <time>2019-08-16T12:46:04Z</time>
      </trkpt>
      <trkpt lat="47.57555" lon="6.95642">
        <ele>331.5</ele>
        <time>2019-08-16T12:46:05Z</time>
      </trkpt>
      <trkpt lat="47.57552" lon="6.95637">
        <ele>331.5</ele>
        <time>2019-08-16T12:46:06Z</time>
      </trkpt>
      <trkpt lat="47.57549" lon="6.95633">
        <ele>331.5</ele>
        <time>2019-08-16T12:46:07Z</time>
      </trkpt>
      <trkpt lat="47.57546" lon="6.95628">
        <ele>331.5</ele>
        <time>2019-08-16T12:46:08Z</time>
      </trkpt>
      <trkpt lat="47.57542" lon="6.95624">
        <ele>331.5</ele>
        <time>2019-08-16T12:46:09Z</time>
      </trkpt>
      <trkpt lat="47.57539" lon="6.9562">
        <ele>331.5</ele>
        <time>2019-08-16T12:46:10Z</time>
      </trkpt>
      <trkpt lat="47.57535" lon="6.95615">
        <ele>331.5</ele>
        <time>2019-08-16T12:46:11Z</time>
      </trkpt>
      <trkpt lat="47.57532" lon="6.95611">
        <ele>331.5</ele>
        <time>2019-08-16T12:46:12Z</time>
      </trkpt>
      <trkpt lat="47.5753" lon="6.95608">
        <ele>331.5</ele>
        <time>2019-08-16T12:46:13Z</time>
      </trkpt>
      <trkpt lat="47.57526" lon="6.95601">
        <ele>331.5</ele>
        <time>2019-08-16T12:46:14Z</time>
      </trkpt>
      <trkpt lat="47.57522" lon="6.95595">
        <ele>331.5</ele>
        <time>2019-08-16T12:46:15Z</time>
      </trkpt>
      <trkpt lat="47.57518" lon="6.9559">
        <ele>331.5</ele>
        <time>2019-08-16T12:46:16Z</time>
      </trkpt>
      <trkpt lat="47.57514" lon="6.95584">
        <ele>331.5</ele>
        <time>2019-08-16T12:46:17Z</time>
      </trkpt>
      <trkpt lat="47.5751" lon="6.9558">
        <ele>331.5</ele>
        <time>2019-08-16T12:46:18Z</time>
      </trkpt>
      <trkpt lat="47.57506" lon="6.95575">
        <ele>331.5</ele>
        <time>2019-08-16T12:46:19Z</time>
      </trkpt>
      <trkpt lat="47.57502" lon="6.95571">
        <ele>331.5</ele>
        <time>2019-08-16T12:46:20Z</time>
      </trkpt>
      <trkpt lat="47.57499" lon="6.95567">
        <ele>331.5</ele>
        <time>2019-08-16T12:46:21Z</time>
      </trkpt>
      <trkpt lat="47.57494" lon="6.95563">
        <ele>331.5</ele>
        <time>2019-08-16T12:46:22Z</time>
      </trkpt>
      <trkpt lat="47.57491" lon="6.95558">
        <ele>331.5</ele>
        <time>2019-08-16T12:46:23Z</time>
      </trkpt>
      <trkpt lat="47.57486" lon="6.95554">
        <ele>331.5</ele>
        <time>2019-08-16T12:46:24Z</time>
      </trkpt>
      <trkpt lat="47.57482" lon="6.95549">
        <ele>331.5</ele>
        <time>2019-08-16T12:46:25Z</time>
      </trkpt>
      <trkpt lat="47.57478" lon="6.95543">
        <ele>331.5</ele>
        <time>2019-08-16T12:46:26Z</time>
      </trkpt>
      <trkpt lat="47.57475" lon="6.9554">
        <ele>331.5</ele>
        <time>2019-08-16T12:46:27Z</time>
      </trkpt>
      <trkpt lat="47.57471" lon="6.95536">
        <ele>331.5</ele>
        <time>2019-08-16T12:46:28Z</time>
      </trkpt>
      <trkpt lat="47.57468" lon="6.95532">
        <ele>331.5</ele>
        <time>2019-08-16T12:46:29Z</time>
      </trkpt>
      <trkpt lat="47.57464" lon="6.95528">
        <ele>331.5</ele>
        <time>2019-08-16T12:46:30Z</time>
      </trkpt>
      <trkpt lat="47.57461" lon="6.95522">
        <ele>331.5</ele>
        <time>2019-08-16T12:46:31Z</time>
      </trkpt>
      <trkpt lat="47.57457" lon="6.95517">
        <ele>331.5</ele>
        <time>2019-08-16T12:46:32Z</time>
      </trkpt>
      <trkpt lat="47.57453" lon="6.95512">
        <ele>331.5</ele>
        <time>2019-08-16T12:46:33Z</time>
      </trkpt>
      <trkpt lat="47.57449" lon="6.95507">
        <ele>331.5</ele>
        <time>2019-08-16T12:46:34Z</time>
      </trkpt>
      <trkpt lat="47.57445" lon="6.95503">
        <ele>331.5</ele>
        <time>2019-08-16T12:46:35Z</time>
      </trkpt>
      <trkpt lat="47.57441" lon="6.95499">
        <ele>331.5</ele>
        <time>2019-08-16T12:46:36Z</time>
      </trkpt>
      <trkpt lat="47.57437" lon="6.95494">
        <ele>331.5</ele>
        <time>2019-08-16T12:46:37Z</time>
      </trkpt>
      <trkpt lat="47.57432" lon="6.9549">
        <ele>331.5</ele>
        <time>2019-08-16T12:46:38Z</time>
      </trkpt>
      <trkpt lat="47.57429" lon="6.95485">
        <ele>331.5</ele>
        <time>2019-08-16T12:46:39Z</time>
      </trkpt>
      <trkpt lat="47.57426" lon="6.95481">
        <ele>331.5</ele>
        <time>2019-08-16T12:46:40Z</time>
      </trkpt>
      <trkpt lat="47.57423" lon="6.95476">
        <ele>331.5</ele>
        <time>2019-08-16T12:46:41Z</time>
      </trkpt>
      <trkpt lat="47.5742" lon="6.95471">
        <ele>331.5</ele>
        <time>2019-08-16T12:46:42Z</time>
      </trkpt>
      <trkpt lat="47.57415" lon="6.95467">
        <ele>331.5</ele>
        <time>2019-08-16T12:46:43Z</time>
      </trkpt>
      <trkpt lat="47.57411" lon="6.95463">
        <ele>331.5</ele>
        <time>2019-08-16T12:46:44Z</time>
      </trkpt>
      <trkpt lat="47.57408" lon="6.95458">
        <ele>331.5</ele>
        <time>2019-08-16T12:46:45Z</time>
      </trkpt>
      <trkpt lat="47.57403" lon="6.95452">
        <ele>331.5</ele>
        <time>2019-08-16T12:46:46Z</time>
      </trkpt>
      <trkpt lat="47.57398" lon="6.95447">
        <ele>331.5</ele>
        <time>2019-08-16T12:46:47Z</time>
      </trkpt>
      <trkpt lat="47.57394" lon="6.95441">
        <ele>331.5</ele>
        <time>2019-08-16T12:46:48Z</time>
      </trkpt>
      <trkpt lat="47.5739" lon="6.95436">
        <ele>331.5</ele>
        <time>2019-08-16T12:46:49Z</time>
      </trkpt>
      <trkpt lat="47.57386" lon="6.95432">
        <ele>331.5</ele>
        <time>2019-08-16T12:46:50Z</time>
      </trkpt>
      <trkpt lat="47.57381" lon="6.95427">
        <ele>331.5</ele>
        <time>2019-08-16T12:46:51Z</time>
      </trkpt>
      <trkpt lat="47.57377" lon="6.95422">
        <ele>331.5</ele>
        <time>2019-08-16T12:46:52Z</time>
      </trkpt>
      <trkpt lat="47.57372" lon="6.95417">
        <ele>331.5</ele>
        <time>2019-08-16T12:46:53Z</time>
      </trkpt>
      <trkpt lat="47.57367" lon="6.95412">
        <ele>331.5</ele>
        <time>2019-08-16T12:46:54Z</time>
      </trkpt>
      <trkpt lat="47.57362" lon="6.95408">
        <ele>331.5</ele>
        <time>2019-08-16T12:46:55Z</time>
      </trkpt>
      <trkpt lat="47.57356" lon="6.95403">
        <ele>331.5</ele>
        <time>2019-08-16T12:46:56Z</time>
      </trkpt>
      <trkpt lat="47.57352" lon="6.95399">
        <ele>331.5</ele>
        <time>2019-08-16T12:46:57Z</time>
      </trkpt>
      <trkpt lat="47.57348" lon="6.95395">
        <ele>331.5</ele>
        <time>2019-08-16T12:46:58Z</time>
      </trkpt>
      <trkpt lat="47.57344" lon="6.9539">
        <ele>331.5</ele>
        <time>2019-08-16T12:46:59Z</time>
      </trkpt>
      <trkpt lat="47.5734" lon="6.95386">
        <ele>331.5</ele>
        <time>2019-08-16T12:47:00Z</time>
      </trkpt>
      <trkpt lat="47.57336" lon="6.95382">
        <ele>331.5</ele>
        <time>2019-08-16T12:47:01Z</time>
      </trkpt>
      <trkpt lat="47.57332" lon="6.95378">
        <ele>331.5</ele>
        <time>2019-08-16T12:47:02Z</time>
      </trkpt>
      <trkpt lat="47.57327" lon="6.95372">
        <ele>331.4</ele>
        <time>2019-08-16T12:47:03Z</time>
      </trkpt>
      <trkpt lat="47.57322" lon="6.95367">
        <ele>331.4</ele>
        <time>2019-08-16T12:47:04Z</time>
      </trkpt>
      <trkpt lat="47.57317" lon="6.95362">
        <ele>331.4</ele>
        <time>2019-08-16T12:47:05Z</time>
      </trkpt>
      <trkpt lat="47.57312" lon="6.95357">
        <ele>331.4</ele>
        <time>2019-08-16T12:47:06Z</time>
      </trkpt>
      <trkpt lat="47.57308" lon="6.95352">
        <ele>331.4</ele>
        <time>2019-08-16T12:47:07Z</time>
      </trkpt>
      <trkpt lat="47.57304" lon="6.95347">
        <ele>331.4</ele>
        <time>2019-08-16T12:47:08Z</time>
      </trkpt>
      <trkpt lat="47.57299" lon="6.95343">
        <ele>331.4</ele>
        <time>2019-08-16T12:47:09Z</time>
      </trkpt>
      <trkpt lat="47.57295" lon="6.95339">
        <ele>331.3</ele>
        <time>2019-08-16T12:47:10Z</time>
      </trkpt>
      <trkpt lat="47.57291" lon="6.95335">
        <ele>331.3</ele>
        <time>2019-08-16T12:47:11Z</time>
      </trkpt>
      <trkpt lat="47.57288" lon="6.95329">
        <ele>331.3</ele>
        <time>2019-08-16T12:47:12Z</time>
      </trkpt>
      <trkpt lat="47.57284" lon="6.95325">
        <ele>331.3</ele>
        <time>2019-08-16T12:47:13Z</time>
      </trkpt>
      <trkpt lat="47.5728" lon="6.95319">
        <ele>331.3</ele>
        <time>2019-08-16T12:47:14Z</time>
      </trkpt>
      <trkpt lat="47.57276" lon="6.95315">
        <ele>331.3</ele>
        <time>2019-08-16T12:47:15Z</time>
      </trkpt>
      <trkpt lat="47.57272" lon="6.95311">
        <ele>331.3</ele>
        <time>2019-08-16T12:47:16Z</time>
      </trkpt>
      <trkpt lat="47.57268" lon="6.95307">
        <ele>331.3</ele>
        <time>2019-08-16T12:47:17Z</time>
      </trkpt>
      <trkpt lat="47.57264" lon="6.95303">
        <ele>331.3</ele>
        <time>2019-08-16T12:47:18Z</time>
      </trkpt>
      <trkpt lat="47.5726" lon="6.953">
        <ele>331.2</ele>
        <time>2019-08-16T12:47:19Z</time>
      </trkpt>
      <trkpt lat="47.57256" lon="6.95296">
        <ele>331.2</ele>
        <time>2019-08-16T12:47:20Z</time>
      </trkpt>
      <trkpt lat="47.57252" lon="6.95292">
        <ele>331.2</ele>
        <time>2019-08-16T12:47:21Z</time>
      </trkpt>
      <trkpt lat="47.57247" lon="6.95289">
        <ele>331.2</ele>
        <time>2019-08-16T12:47:22Z</time>
      </trkpt>
      <trkpt lat="47.57243" lon="6.95283">
        <ele>331.2</ele>
        <time>2019-08-16T12:47:23Z</time>
      </trkpt>
      <trkpt lat="47.57239" lon="6.95278">
        <ele>331.1</ele>
        <time>2019-08-16T12:47:24Z</time>
      </trkpt>
      <trkpt lat="47.57235" lon="6.95273">
        <ele>331.1</ele>
        <time>2019-08-16T12:47:25Z</time>
      </trkpt>
      <trkpt lat="47.57232" lon="6.95267">
        <ele>331.1</ele>
        <time>2019-08-16T12:47:26Z</time>
      </trkpt>
      <trkpt lat="47.57228" lon="6.95263">
        <ele>331.1</ele>
        <time>2019-08-16T12:47:27Z</time>
      </trkpt>
      <trkpt lat="47.57225" lon="6.95258">
        <ele>331.1</ele>
        <time>2019-08-16T12:47:28Z</time>
      </trkpt>
      <trkpt lat="47.57221" lon="6.95253">
        <ele>331</ele>
        <time>2019-08-16T12:47:29Z</time>
      </trkpt>
      <trkpt lat="47.57218" lon="6.95249">
        <ele>331</ele>
        <time>2019-08-16T12:47:30Z</time>
      </trkpt>
      <trkpt lat="47.57214" lon="6.95245">
        <ele>331</ele>
        <time>2019-08-16T12:47:31Z</time>
      </trkpt>
      <trkpt lat="47.5721" lon="6.95239">
        <ele>331</ele>
        <time>2019-08-16T12:47:32Z</time>
      </trkpt>
      <trkpt lat="47.57207" lon="6.95235">
        <ele>331</ele>
        <time>2019-08-16T12:47:33Z</time>
      </trkpt>
      <trkpt lat="47.57203" lon="6.95232">
        <ele>331</ele>
        <time>2019-08-16T12:47:34Z</time>
      </trkpt>
      <trkpt lat="47.572" lon="6.95228">
        <ele>331</ele>
        <time>2019-08-16T12:47:35Z</time>
      </trkpt>
      <trkpt lat="47.57196" lon="6.95224">
        <ele>331</ele>
        <time>2019-08-16T12:47:36Z</time>
      </trkpt>
      <trkpt lat="47.57193" lon="6.95221">
        <ele>331</ele>
        <time>2019-08-16T12:47:37Z</time>
      </trkpt>
      <trkpt lat="47.5719" lon="6.95217">
        <ele>331</ele>
        <time>2019-08-16T12:47:38Z</time>
      </trkpt>
      <trkpt lat="47.57186" lon="6.95213">
        <ele>331</ele>
        <time>2019-08-16T12:47:39Z</time>
      </trkpt>
      <trkpt lat="47.57183" lon="6.95208">
        <ele>331</ele>
        <time>2019-08-16T12:47:40Z</time>
      </trkpt>
      <trkpt lat="47.57179" lon="6.95203">
        <ele>331</ele>
        <time>2019-08-16T12:47:41Z</time>
      </trkpt>
      <trkpt lat="47.57175" lon="6.95198">
        <ele>331</ele>
        <time>2019-08-16T12:47:42Z</time>
      </trkpt>
      <trkpt lat="47.57172" lon="6.95194">
        <ele>331</ele>
        <time>2019-08-16T12:47:43Z</time>
      </trkpt>
      <trkpt lat="47.57169" lon="6.9519">
        <ele>331</ele>
        <time>2019-08-16T12:47:44Z</time>
      </trkpt>
      <trkpt lat="47.57165" lon="6.95185">
        <ele>331</ele>
        <time>2019-08-16T12:47:45Z</time>
      </trkpt>
      <trkpt lat="47.57161" lon="6.95181">
        <ele>331</ele>
        <time>2019-08-16T12:47:46Z</time>
      </trkpt>
      <trkpt lat="47.57156" lon="6.95177">
        <ele>331</ele>
        <time>2019-08-16T12:47:47Z</time>
      </trkpt>
      <trkpt lat="47.57151" lon="6.95173">
        <ele>331</ele>
        <time>2019-08-16T12:47:48Z</time>
      </trkpt>
      <trkpt lat="47.57145" lon="6.95168">
        <ele>331.1</ele>
        <time>2019-08-16T12:47:49Z</time>
      </trkpt>
      <trkpt lat="47.5714" lon="6.95163">
        <ele>331.1</ele>
        <time>2019-08-16T12:47:50Z</time>
      </trkpt>
      <trkpt lat="47.57135" lon="6.95158">
        <ele>331.1</ele>
        <time>2019-08-16T12:47:51Z</time>
      </trkpt>
      <trkpt lat="47.57131" lon="6.95154">
        <ele>331.1</ele>
        <time>2019-08-16T12:47:52Z</time>
      </trkpt>
      <trkpt lat="47.57127" lon="6.95149">
        <ele>331.2</ele>
        <time>2019-08-16T12:47:53Z</time>
      </trkpt>
      <trkpt lat="47.57124" lon="6.95144">
        <ele>331.2</ele>
        <time>2019-08-16T12:47:54Z</time>
      </trkpt>
      <trkpt lat="47.57118" lon="6.95141">
        <ele>331.2</ele>
        <time>2019-08-16T12:47:55Z</time>
      </trkpt>
      <trkpt lat="47.57114" lon="6.95135">
        <ele>331.3</ele>
        <time>2019-08-16T12:47:56Z</time>
      </trkpt>
      <trkpt lat="47.5711" lon="6.9513">
        <ele>331.3</ele>
        <time>2019-08-16T12:47:57Z</time>
      </trkpt>
      <trkpt lat="47.57106" lon="6.95125">
        <ele>331.3</ele>
        <time>2019-08-16T12:47:58Z</time>
      </trkpt>
      <trkpt lat="47.57102" lon="6.9512">
        <ele>331.3</ele>
        <time>2019-08-16T12:47:59Z</time>
      </trkpt>
      <trkpt lat="47.57098" lon="6.95115">
        <ele>331.3</ele>
        <time>2019-08-16T12:48:00Z</time>
      </trkpt>
      <trkpt lat="47.57095" lon="6.9511">
        <ele>331.3</ele>
        <time>2019-08-16T12:48:01Z</time>
      </trkpt>
      <trkpt lat="47.57092" lon="6.95104">
        <ele>331.3</ele>
        <time>2019-08-16T12:48:02Z</time>
      </trkpt>
      <trkpt lat="47.57088" lon="6.95099">
        <ele>331.3</ele>
        <time>2019-08-16T12:48:03Z</time>
      </trkpt>
      <trkpt lat="47.57084" lon="6.95095">
        <ele>331.3</ele>
        <time>2019-08-16T12:48:04Z</time>
      </trkpt>
      <trkpt lat="47.5708" lon="6.9509">
        <ele>331.3</ele>
        <time>2019-08-16T12:48:05Z</time>
      </trkpt>
      <trkpt lat="47.57075" lon="6.95085">
        <ele>331.3</ele>
        <time>2019-08-16T12:48:06Z</time>
      </trkpt>
      <trkpt lat="47.57071" lon="6.9508">
        <ele>331.3</ele>
        <time>2019-08-16T12:48:07Z</time>
      </trkpt>
      <trkpt lat="47.57067" lon="6.95075">
        <ele>331.3</ele>
        <time>2019-08-16T12:48:08Z</time>
      </trkpt>
      <trkpt lat="47.57063" lon="6.9507">
        <ele>331.3</ele>
        <time>2019-08-16T12:48:09Z</time>
      </trkpt>
      <trkpt lat="47.57059" lon="6.95066">
        <ele>331.3</ele>
        <time>2019-08-16T12:48:10Z</time>
      </trkpt>
      <trkpt lat="47.57055" lon="6.95061">
        <ele>331.3</ele>
        <time>2019-08-16T12:48:11Z</time>
      </trkpt>
      <trkpt lat="47.57049" lon="6.95057">
        <ele>331.2</ele>
        <time>2019-08-16T12:48:12Z</time>
      </trkpt>
      <trkpt lat="47.57045" lon="6.95052">
        <ele>331.2</ele>
        <time>2019-08-16T12:48:13Z</time>
      </trkpt>
      <trkpt lat="47.57041" lon="6.95048">
        <ele>331.2</ele>
        <time>2019-08-16T12:48:14Z</time>
      </trkpt>
      <trkpt lat="47.57036" lon="6.95043">
        <ele>331.1</ele>
        <time>2019-08-16T12:48:15Z</time>
      </trkpt>
      <trkpt lat="47.57032" lon="6.95038">
        <ele>331.1</ele>
        <time>2019-08-16T12:48:16Z</time>
      </trkpt>
      <trkpt lat="47.57027" lon="6.95034">
        <ele>331.1</ele>
        <time>2019-08-16T12:48:17Z</time>
      </trkpt>
      <trkpt lat="47.57022" lon="6.95029">
        <ele>331.1</ele>
        <time>2019-08-16T12:48:18Z</time>
      </trkpt>
      <trkpt lat="47.57018" lon="6.95024">
        <ele>331</ele>
        <time>2019-08-16T12:48:19Z</time>
      </trkpt>
      <trkpt lat="47.57014" lon="6.9502">
        <ele>331</ele>
        <time>2019-08-16T12:48:20Z</time>
      </trkpt>
      <trkpt lat="47.5701" lon="6.95015">
        <ele>331</ele>
        <time>2019-08-16T12:48:21Z</time>
      </trkpt>
      <trkpt lat="47.57006" lon="6.9501">
        <ele>331</ele>
        <time>2019-08-16T12:48:22Z</time>
      </trkpt>
      <trkpt lat="47.57002" lon="6.95004">
        <ele>331</ele>
        <time>2019-08-16T12:48:23Z</time>
      </trkpt>
      <trkpt lat="47.56998" lon="6.94999">
        <ele>331</ele>
        <time>2019-08-16T12:48:24Z</time>
      </trkpt>
      <trkpt lat="47.56994" lon="6.94993">
        <ele>331</ele>
        <time>2019-08-16T12:48:25Z</time>
      </trkpt>
      <trkpt lat="47.5699" lon="6.94988">
        <ele>331</ele>
        <time>2019-08-16T12:48:26Z</time>
      </trkpt>
      <trkpt lat="47.56985" lon="6.94983">
        <ele>330.9</ele>
        <time>2019-08-16T12:48:27Z</time>
      </trkpt>
      <trkpt lat="47.5698" lon="6.94978">
        <ele>330.9</ele>
        <time>2019-08-16T12:48:28Z</time>
      </trkpt>
      <trkpt lat="47.56976" lon="6.94972">
        <ele>330.9</ele>
        <time>2019-08-16T12:48:29Z</time>
      </trkpt>
      <trkpt lat="47.56971" lon="6.94967">
        <ele>330.9</ele>
        <time>2019-08-16T12:48:30Z</time>
      </trkpt>
      <trkpt lat="47.56966" lon="6.94961">
        <ele>330.9</ele>
        <time>2019-08-16T12:48:31Z</time>
      </trkpt>
      <trkpt lat="47.56962" lon="6.94956">
        <ele>330.9</ele>
        <time>2019-08-16T12:48:32Z</time>
      </trkpt>
      <trkpt lat="47.56958" lon="6.94949">
        <ele>330.9</ele>
        <time>2019-08-16T12:48:33Z</time>
      </trkpt>
      <trkpt lat="47.56953" lon="6.94944">
        <ele>330.9</ele>
        <time>2019-08-16T12:48:34Z</time>
      </trkpt>
      <trkpt lat="47.56949" lon="6.94939">
        <ele>330.9</ele>
        <time>2019-08-16T12:48:35Z</time>
      </trkpt>
      <trkpt lat="47.56945" lon="6.94934">
        <ele>330.9</ele>
        <time>2019-08-16T12:48:36Z</time>
      </trkpt>
      <trkpt lat="47.56941" lon="6.94929">
        <ele>331</ele>
        <time>2019-08-16T12:48:37Z</time>
      </trkpt>
      <trkpt lat="47.56936" lon="6.94924">
        <ele>331</ele>
        <time>2019-08-16T12:48:38Z</time>
      </trkpt>
      <trkpt lat="47.56931" lon="6.9492">
        <ele>331</ele>
        <time>2019-08-16T12:48:39Z</time>
      </trkpt>
      <trkpt lat="47.56926" lon="6.94915">
        <ele>331</ele>
        <time>2019-08-16T12:48:40Z</time>
      </trkpt>
      <trkpt lat="47.56922" lon="6.94909">
        <ele>331</ele>
        <time>2019-08-16T12:48:41Z</time>
      </trkpt>
      <trkpt lat="47.56917" lon="6.94904">
        <ele>331</ele>
        <time>2019-08-16T12:48:42Z</time>
      </trkpt>
      <trkpt lat="47.56913" lon="6.94899">
        <ele>331</ele>
        <time>2019-08-16T12:48:43Z</time>
      </trkpt>
      <trkpt lat="47.56909" lon="6.94893">
        <ele>331</ele>
        <time>2019-08-16T12:48:44Z</time>
      </trkpt>
      <trkpt lat="47.56905" lon="6.94887">
        <ele>331</ele>
        <time>2019-08-16T12:48:45Z</time>
      </trkpt>
      <trkpt lat="47.56901" lon="6.94882">
        <ele>331</ele>
        <time>2019-08-16T12:48:46Z</time>
      </trkpt>
      <trkpt lat="47.56897" lon="6.94876">
        <ele>331</ele>
        <time>2019-08-16T12:48:47Z</time>
      </trkpt>
      <trkpt lat="47.56893" lon="6.94871">
        <ele>331</ele>
        <time>2019-08-16T12:48:48Z</time>
      </trkpt>
      <trkpt lat="47.56889" lon="6.94866">
        <ele>331</ele>
        <time>2019-08-16T12:48:49Z</time>
      </trkpt>
      <trkpt lat="47.56886" lon="6.94861">
        <ele>331</ele>
        <time>2019-08-16T12:48:50Z</time>
      </trkpt>
      <trkpt lat="47.56883" lon="6.94856">
        <ele>331</ele>
        <time>2019-08-16T12:48:51Z</time>
      </trkpt>
      <trkpt lat="47.5688" lon="6.94852">
        <ele>331</ele>
        <time>2019-08-16T12:48:52Z</time>
      </trkpt>
      <trkpt lat="47.56877" lon="6.94847">
        <ele>331</ele>
        <time>2019-08-16T12:48:53Z</time>
      </trkpt>
      <trkpt lat="47.56875" lon="6.94843">
        <ele>331</ele>
        <time>2019-08-16T12:48:54Z</time>
      </trkpt>
      <trkpt lat="47.56872" lon="6.94839">
        <ele>331</ele>
        <time>2019-08-16T12:48:55Z</time>
      </trkpt>
      <trkpt lat="47.56869" lon="6.94834">
        <ele>331</ele>
        <time>2019-08-16T12:48:56Z</time>
      </trkpt>
      <trkpt lat="47.56866" lon="6.94828">
        <ele>331</ele>
        <time>2019-08-16T12:48:57Z</time>
      </trkpt>
      <trkpt lat="47.56862" lon="6.94823">
        <ele>331</ele>
        <time>2019-08-16T12:48:58Z</time>
      </trkpt>
      <trkpt lat="47.56859" lon="6.94818">
        <ele>331</ele>
        <time>2019-08-16T12:48:59Z</time>
      </trkpt>
      <trkpt lat="47.56855" lon="6.94812">
        <ele>331</ele>
        <time>2019-08-16T12:49:00Z</time>
      </trkpt>
      <trkpt lat="47.56852" lon="6.94806">
        <ele>331</ele>
        <time>2019-08-16T12:49:01Z</time>
      </trkpt>
      <trkpt lat="47.56848" lon="6.94801">
        <ele>331</ele>
        <time>2019-08-16T12:49:02Z</time>
      </trkpt>
      <trkpt lat="47.56845" lon="6.94796">
        <ele>331</ele>
        <time>2019-08-16T12:49:03Z</time>
      </trkpt>
      <trkpt lat="47.56842" lon="6.9479">
        <ele>331</ele>
        <time>2019-08-16T12:49:04Z</time>
      </trkpt>
      <trkpt lat="47.56838" lon="6.94785">
        <ele>331</ele>
        <time>2019-08-16T12:49:05Z</time>
      </trkpt>
      <trkpt lat="47.56835" lon="6.9478">
        <ele>331</ele>
        <time>2019-08-16T12:49:06Z</time>
      </trkpt>
      <trkpt lat="47.56832" lon="6.94775">
        <ele>331</ele>
        <time>2019-08-16T12:49:07Z</time>
      </trkpt>
      <trkpt lat="47.56829" lon="6.94769">
        <ele>331</ele>
        <time>2019-08-16T12:49:08Z</time>
      </trkpt>
      <trkpt lat="47.56825" lon="6.94763">
        <ele>331</ele>
        <time>2019-08-16T12:49:09Z</time>
      </trkpt>
      <trkpt lat="47.56822" lon="6.94757">
        <ele>331</ele>
        <time>2019-08-16T12:49:10Z</time>
      </trkpt>
      <trkpt lat="47.56819" lon="6.94751">
        <ele>331</ele>
        <time>2019-08-16T12:49:11Z</time>
      </trkpt>
      <trkpt lat="47.56815" lon="6.94746">
        <ele>331</ele>
        <time>2019-08-16T12:49:12Z</time>
      </trkpt>
      <trkpt lat="47.56812" lon="6.9474">
        <ele>331</ele>
        <time>2019-08-16T12:49:13Z</time>
      </trkpt>
      <trkpt lat="47.56808" lon="6.94735">
        <ele>331</ele>
        <time>2019-08-16T12:49:14Z</time>
      </trkpt>
      <trkpt lat="47.56804" lon="6.9473">
        <ele>331</ele>
        <time>2019-08-16T12:49:15Z</time>
      </trkpt>
      <trkpt lat="47.568" lon="6.94725">
        <ele>331</ele>
        <time>2019-08-16T12:49:16Z</time>
      </trkpt>
      <trkpt lat="47.56796" lon="6.94719">
        <ele>331</ele>
        <time>2019-08-16T12:49:17Z</time>
      </trkpt>
      <trkpt lat="47.56792" lon="6.94713">
        <ele>331</ele>
        <time>2019-08-16T12:49:18Z</time>
      </trkpt>
      <trkpt lat="47.56789" lon="6.94709">
        <ele>331</ele>
        <time>2019-08-16T12:49:19Z</time>
      </trkpt>
      <trkpt lat="47.56785" lon="6.94704">
        <ele>331</ele>
        <time>2019-08-16T12:49:20Z</time>
      </trkpt>
      <trkpt lat="47.56782" lon="6.94698">
        <ele>331</ele>
        <time>2019-08-16T12:49:21Z</time>
      </trkpt>
      <trkpt lat="47.56778" lon="6.94693">
        <ele>331</ele>
        <time>2019-08-16T12:49:22Z</time>
      </trkpt>
      <trkpt lat="47.56775" lon="6.94687">
        <ele>331</ele>
        <time>2019-08-16T12:49:23Z</time>
      </trkpt>
      <trkpt lat="47.56771" lon="6.94683">
        <ele>331</ele>
        <time>2019-08-16T12:49:24Z</time>
      </trkpt>
      <trkpt lat="47.56768" lon="6.94678">
        <ele>331</ele>
        <time>2019-08-16T12:49:25Z</time>
      </trkpt>
      <trkpt lat="47.56765" lon="6.94673">
        <ele>331</ele>
        <time>2019-08-16T12:49:26Z</time>
      </trkpt>
      <trkpt lat="47.56762" lon="6.94668">
        <ele>331</ele>
        <time>2019-08-16T12:49:27Z</time>
      </trkpt>
      <trkpt lat="47.56759" lon="6.94663">
        <ele>331</ele>
        <time>2019-08-16T12:49:28Z</time>
      </trkpt>
      <trkpt lat="47.56756" lon="6.94658">
        <ele>331</ele>
        <time>2019-08-16T12:49:29Z</time>
      </trkpt>
      <trkpt lat="47.56753" lon="6.94653">
        <ele>331</ele>
        <time>2019-08-16T12:49:30Z</time>
      </trkpt>
      <trkpt lat="47.56751" lon="6.94648">
        <ele>331</ele>
        <time>2019-08-16T12:49:31Z</time>
      </trkpt>
      <trkpt lat="47.56748" lon="6.94643">
        <ele>331</ele>
        <time>2019-08-16T12:49:32Z</time>
      </trkpt>
      <trkpt lat="47.56745" lon="6.94638">
        <ele>331</ele>
        <time>2019-08-16T12:49:33Z</time>
      </trkpt>
      <trkpt lat="47.56742" lon="6.94634">
        <ele>331</ele>
        <time>2019-08-16T12:49:34Z</time>
      </trkpt>
      <trkpt lat="47.56739" lon="6.9463">
        <ele>331</ele>
        <time>2019-08-16T12:49:35Z</time>
      </trkpt>
      <trkpt lat="47.56737" lon="6.94624">
        <ele>331</ele>
        <time>2019-08-16T12:49:36Z</time>
      </trkpt>
      <trkpt lat="47.56734" lon="6.94619">
        <ele>331</ele>
        <time>2019-08-16T12:49:37Z</time>
      </trkpt>
      <trkpt lat="47.56732" lon="6.94615">
        <ele>331</ele>
        <time>2019-08-16T12:49:38Z</time>
      </trkpt>
      <trkpt lat="47.56729" lon="6.9461">
        <ele>331</ele>
        <time>2019-08-16T12:49:39Z</time>
      </trkpt>
      <trkpt lat="47.56727" lon="6.94606">
        <ele>331</ele>
        <time>2019-08-16T12:49:40Z</time>
      </trkpt>
      <trkpt lat="47.56724" lon="6.94601">
        <ele>331</ele>
        <time>2019-08-16T12:49:41Z</time>
      </trkpt>
      <trkpt lat="47.56721" lon="6.94597">
        <ele>331</ele>
        <time>2019-08-16T12:49:42Z</time>
      </trkpt>
      <trkpt lat="47.56718" lon="6.94592">
        <ele>331</ele>
        <time>2019-08-16T12:49:43Z</time>
      </trkpt>
      <trkpt lat="47.56715" lon="6.94586">
        <ele>331</ele>
        <time>2019-08-16T12:49:44Z</time>
      </trkpt>
      <trkpt lat="47.56711" lon="6.94581">
        <ele>331</ele>
        <time>2019-08-16T12:49:45Z</time>
      </trkpt>
      <trkpt lat="47.56707" lon="6.94576">
        <ele>331</ele>
        <time>2019-08-16T12:49:46Z</time>
      </trkpt>
      <trkpt lat="47.56703" lon="6.94571">
        <ele>331</ele>
        <time>2019-08-16T12:49:47Z</time>
      </trkpt>
      <trkpt lat="47.56699" lon="6.94566">
        <ele>331</ele>
        <time>2019-08-16T12:49:48Z</time>
      </trkpt>
      <trkpt lat="47.56695" lon="6.9456">
        <ele>331</ele>
        <time>2019-08-16T12:49:49Z</time>
      </trkpt>
      <trkpt lat="47.56691" lon="6.94555">
        <ele>331</ele>
        <time>2019-08-16T12:49:50Z</time>
      </trkpt>
      <trkpt lat="47.56687" lon="6.94549">
        <ele>331</ele>
        <time>2019-08-16T12:49:51Z</time>
      </trkpt>
      <trkpt lat="47.56684" lon="6.94542">
        <ele>331</ele>
        <time>2019-08-16T12:49:52Z</time>
      </trkpt>
      <trkpt lat="47.5668" lon="6.94536">
        <ele>331</ele>
        <time>2019-08-16T12:49:53Z</time>
      </trkpt>
      <trkpt lat="47.56677" lon="6.9453">
        <ele>331</ele>
        <time>2019-08-16T12:49:54Z</time>
      </trkpt>
      <trkpt lat="47.56674" lon="6.94524">
        <ele>331</ele>
        <time>2019-08-16T12:49:55Z</time>
      </trkpt>
      <trkpt lat="47.56671" lon="6.94521">
        <ele>330.9</ele>
        <time>2019-08-16T12:49:56Z</time>
      </trkpt>
      <trkpt lat="47.56668" lon="6.94516">
        <ele>330.9</ele>
        <time>2019-08-16T12:49:57Z</time>
      </trkpt>
      <trkpt lat="47.56666" lon="6.94511">
        <ele>330.9</ele>
        <time>2019-08-16T12:49:58Z</time>
      </trkpt>
      <trkpt lat="47.56662" lon="6.94508">
        <ele>330.9</ele>
        <time>2019-08-16T12:49:59Z</time>
      </trkpt>
      <trkpt lat="47.56659" lon="6.94503">
        <ele>330.9</ele>
        <time>2019-08-16T12:50:00Z</time>
      </trkpt>
      <trkpt lat="47.56657" lon="6.945">
        <ele>330.9</ele>
        <time>2019-08-16T12:50:01Z</time>
      </trkpt>
      <trkpt lat="47.56655" lon="6.94496">
        <ele>330.9</ele>
        <time>2019-08-16T12:50:02Z</time>
      </trkpt>
      <trkpt lat="47.56653" lon="6.94491">
        <ele>330.9</ele>
        <time>2019-08-16T12:50:03Z</time>
      </trkpt>
      <trkpt lat="47.56652" lon="6.94487">
        <ele>330.9</ele>
        <time>2019-08-16T12:50:04Z</time>
      </trkpt>
      <trkpt lat="47.56649" lon="6.94481">
        <ele>330.8</ele>
        <time>2019-08-16T12:50:05Z</time>
      </trkpt>
      <trkpt lat="47.56647" lon="6.94476">
        <ele>330.8</ele>
        <time>2019-08-16T12:50:06Z</time>
      </trkpt>
      <trkpt lat="47.56645" lon="6.9447">
        <ele>330.8</ele>
        <time>2019-08-16T12:50:07Z</time>
      </trkpt>
      <trkpt lat="47.56644" lon="6.94465">
        <ele>330.8</ele>
        <time>2019-08-16T12:50:08Z</time>
      </trkpt>
      <trkpt lat="47.5664" lon="6.9446">
        <ele>330.7</ele>
        <time>2019-08-16T12:50:09Z</time>
      </trkpt>
      <trkpt lat="47.56638" lon="6.94456">
        <ele>330.7</ele>
        <time>2019-08-16T12:50:10Z</time>
      </trkpt>
      <trkpt lat="47.56636" lon="6.94452">
        <ele>330.7</ele>
        <time>2019-08-16T12:50:11Z</time>
      </trkpt>
      <trkpt lat="47.56634" lon="6.94448">
        <ele>330.6</ele>
        <time>2019-08-16T12:50:12Z</time>
      </trkpt>
      <trkpt lat="47.5663" lon="6.94444">
        <ele>330.6</ele>
        <time>2019-08-16T12:50:13Z</time>
      </trkpt>
      <trkpt lat="47.56626" lon="6.9444">
        <ele>330.6</ele>
        <time>2019-08-16T12:50:14Z</time>
      </trkpt>
      <trkpt lat="47.56623" lon="6.94435">
        <ele>330.6</ele>
        <time>2019-08-16T12:50:15Z</time>
      </trkpt>
      <trkpt lat="47.5662" lon="6.94431">
        <ele>330.6</ele>
        <time>2019-08-16T12:50:16Z</time>
      </trkpt>
      <trkpt lat="47.56616" lon="6.94427">
        <ele>330.6</ele>
        <time>2019-08-16T12:50:17Z</time>
      </trkpt>
      <trkpt lat="47.56614" lon="6.94422">
        <ele>330.6</ele>
        <time>2019-08-16T12:50:18Z</time>
      </trkpt>
      <trkpt lat="47.56612" lon="6.94418">
        <ele>330.6</ele>
        <time>2019-08-16T12:50:19Z</time>
      </trkpt>
      <trkpt lat="47.56609" lon="6.94416">
        <ele>330.6</ele>
        <time>2019-08-16T12:50:20Z</time>
      </trkpt>
      <trkpt lat="47.56606" lon="6.94412">
        <ele>330.5</ele>
        <time>2019-08-16T12:50:21Z</time>
      </trkpt>
      <trkpt lat="47.56603" lon="6.94408">
        <ele>330.5</ele>
        <time>2019-08-16T12:50:22Z</time>
      </trkpt>
      <trkpt lat="47.56602" lon="6.94405">
        <ele>330.5</ele>
        <time>2019-08-16T12:50:23Z</time>
      </trkpt>
      <trkpt lat="47.566" lon="6.94402">
        <ele>330.5</ele>
        <time>2019-08-16T12:50:24Z</time>
      </trkpt>
      <trkpt lat="47.56598" lon="6.94398">
        <ele>330.4</ele>
        <time>2019-08-16T12:50:25Z</time>
      </trkpt>
      <trkpt lat="47.56597" lon="6.94393">
        <ele>330.4</ele>
        <time>2019-08-16T12:50:27Z</time>
      </trkpt>
      <trkpt lat="47.56595" lon="6.94388">
        <ele>330.4</ele>
        <time>2019-08-16T12:50:29Z</time>
      </trkpt>
      <trkpt lat="47.56591" lon="6.94382">
        <ele>330.4</ele>
        <time>2019-08-16T12:50:31Z</time>
      </trkpt>
      <trkpt lat="47.56589" lon="6.94378">
        <ele>330.3</ele>
        <time>2019-08-16T12:50:32Z</time>
      </trkpt>
      <trkpt lat="47.56587" lon="6.94373">
        <ele>330.3</ele>
        <time>2019-08-16T12:50:33Z</time>
      </trkpt>
      <trkpt lat="47.56585" lon="6.94369">
        <ele>330.3</ele>
        <time>2019-08-16T12:50:34Z</time>
      </trkpt>
      <trkpt lat="47.56582" lon="6.94366">
        <ele>330.3</ele>
        <time>2019-08-16T12:50:35Z</time>
      </trkpt>
      <trkpt lat="47.5658" lon="6.94362">
        <ele>330.3</ele>
        <time>2019-08-16T12:50:36Z</time>
      </trkpt>
      <trkpt lat="47.56578" lon="6.94358">
        <ele>330.3</ele>
        <time>2019-08-16T12:50:37Z</time>
      </trkpt>
      <trkpt lat="47.56576" lon="6.94354">
        <ele>330.3</ele>
        <time>2019-08-16T12:50:38Z</time>
      </trkpt>
      <trkpt lat="47.56574" lon="6.9435">
        <ele>330.3</ele>
        <time>2019-08-16T12:50:39Z</time>
      </trkpt>
      <trkpt lat="47.56572" lon="6.94346">
        <ele>330.3</ele>
        <time>2019-08-16T12:50:40Z</time>
      </trkpt>
      <trkpt lat="47.56569" lon="6.9434">
        <ele>330.3</ele>
        <time>2019-08-16T12:50:41Z</time>
      </trkpt>
      <trkpt lat="47.56566" lon="6.94337">
        <ele>330.3</ele>
        <time>2019-08-16T12:50:42Z</time>
      </trkpt>
      <trkpt lat="47.56564" lon="6.94332">
        <ele>330.3</ele>
        <time>2019-08-16T12:50:43Z</time>
      </trkpt>
      <trkpt lat="47.5656" lon="6.94327">
        <ele>330.3</ele>
        <time>2019-08-16T12:50:44Z</time>
      </trkpt>
      <trkpt lat="47.56557" lon="6.94323">
        <ele>330.3</ele>
        <time>2019-08-16T12:50:45Z</time>
      </trkpt>
      <trkpt lat="47.56553" lon="6.9432">
        <ele>330.3</ele>
        <time>2019-08-16T12:50:46Z</time>
      </trkpt>
      <trkpt lat="47.5655" lon="6.94315">
        <ele>330.2</ele>
        <time>2019-08-16T12:50:47Z</time>
      </trkpt>
      <trkpt lat="47.56546" lon="6.9431">
        <ele>330.2</ele>
        <time>2019-08-16T12:50:48Z</time>
      </trkpt>
      <trkpt lat="47.56544" lon="6.94306">
        <ele>330.2</ele>
        <time>2019-08-16T12:50:49Z</time>
      </trkpt>
      <trkpt lat="47.56541" lon="6.94301">
        <ele>330.2</ele>
        <time>2019-08-16T12:50:50Z</time>
      </trkpt>
      <trkpt lat="47.56538" lon="6.94296">
        <ele>330.2</ele>
        <time>2019-08-16T12:50:51Z</time>
      </trkpt>
      <trkpt lat="47.56535" lon="6.94291">
        <ele>330.2</ele>
        <time>2019-08-16T12:50:52Z</time>
      </trkpt>
      <trkpt lat="47.56533" lon="6.94287">
        <ele>330.2</ele>
        <time>2019-08-16T12:50:53Z</time>
      </trkpt>
      <trkpt lat="47.56531" lon="6.94282">
        <ele>330.2</ele>
        <time>2019-08-16T12:50:54Z</time>
      </trkpt>
      <trkpt lat="47.56528" lon="6.94278">
        <ele>330.2</ele>
        <time>2019-08-16T12:50:55Z</time>
      </trkpt>
      <trkpt lat="47.56525" lon="6.94273">
        <ele>330.2</ele>
        <time>2019-08-16T12:50:56Z</time>
      </trkpt>
      <trkpt lat="47.5652" lon="6.94269">
        <ele>330.2</ele>
        <time>2019-08-16T12:50:57Z</time>
      </trkpt>
      <trkpt lat="47.56517" lon="6.94264">
        <ele>330.1</ele>
        <time>2019-08-16T12:50:58Z</time>
      </trkpt>
      <trkpt lat="47.56514" lon="6.94259">
        <ele>330.1</ele>
        <time>2019-08-16T12:50:59Z</time>
      </trkpt>
      <trkpt lat="47.56511" lon="6.94254">
        <ele>330.1</ele>
        <time>2019-08-16T12:51:00Z</time>
      </trkpt>
      <trkpt lat="47.56509" lon="6.94249">
        <ele>330.1</ele>
        <time>2019-08-16T12:51:01Z</time>
      </trkpt>
      <trkpt lat="47.56506" lon="6.94245">
        <ele>330.1</ele>
        <time>2019-08-16T12:51:02Z</time>
      </trkpt>
      <trkpt lat="47.56503" lon="6.9424">
        <ele>330.1</ele>
        <time>2019-08-16T12:51:03Z</time>
      </trkpt>
      <trkpt lat="47.56499" lon="6.94235">
        <ele>330.1</ele>
        <time>2019-08-16T12:51:04Z</time>
      </trkpt>
      <trkpt lat="47.56496" lon="6.94231">
        <ele>330.1</ele>
        <time>2019-08-16T12:51:05Z</time>
      </trkpt>
      <trkpt lat="47.56493" lon="6.94225">
        <ele>330.1</ele>
        <time>2019-08-16T12:51:06Z</time>
      </trkpt>
      <trkpt lat="47.56489" lon="6.9422">
        <ele>330.1</ele>
        <time>2019-08-16T12:51:07Z</time>
      </trkpt>
      <trkpt lat="47.56486" lon="6.94215">
        <ele>330.1</ele>
        <time>2019-08-16T12:51:08Z</time>
      </trkpt>
      <trkpt lat="47.56481" lon="6.9421">
        <ele>330.1</ele>
        <time>2019-08-16T12:51:09Z</time>
      </trkpt>
      <trkpt lat="47.56478" lon="6.94205">
        <ele>330.1</ele>
        <time>2019-08-16T12:51:10Z</time>
      </trkpt>
      <trkpt lat="47.56473" lon="6.942">
        <ele>330.1</ele>
        <time>2019-08-16T12:51:11Z</time>
      </trkpt>
      <trkpt lat="47.56469" lon="6.94194">
        <ele>330.1</ele>
        <time>2019-08-16T12:51:12Z</time>
      </trkpt>
      <trkpt lat="47.56466" lon="6.94188">
        <ele>330.1</ele>
        <time>2019-08-16T12:51:13Z</time>
      </trkpt>
      <trkpt lat="47.56463" lon="6.94182">
        <ele>330.1</ele>
        <time>2019-08-16T12:51:14Z</time>
      </trkpt>
      <trkpt lat="47.5646" lon="6.94176">
        <ele>330.1</ele>
        <time>2019-08-16T12:51:15Z</time>
      </trkpt>
      <trkpt lat="47.56458" lon="6.94171">
        <ele>330.1</ele>
        <time>2019-08-16T12:51:16Z</time>
      </trkpt>
      <trkpt lat="47.56455" lon="6.94166">
        <ele>330.1</ele>
        <time>2019-08-16T12:51:17Z</time>
      </trkpt>
      <trkpt lat="47.56453" lon="6.94161">
        <ele>330.1</ele>
        <time>2019-08-16T12:51:18Z</time>
      </trkpt>
      <trkpt lat="47.5645" lon="6.94156">
        <ele>330</ele>
        <time>2019-08-16T12:51:19Z</time>
      </trkpt>
      <trkpt lat="47.56447" lon="6.9415">
        <ele>330</ele>
        <time>2019-08-16T12:51:20Z</time>
      </trkpt>
      <trkpt lat="47.56444" lon="6.94145">
        <ele>330</ele>
        <time>2019-08-16T12:51:21Z</time>
      </trkpt>
      <trkpt lat="47.5644" lon="6.94141">
        <ele>330</ele>
        <time>2019-08-16T12:51:22Z</time>
      </trkpt>
      <trkpt lat="47.56437" lon="6.94137">
        <ele>330</ele>
        <time>2019-08-16T12:51:23Z</time>
      </trkpt>
      <trkpt lat="47.56434" lon="6.94132">
        <ele>330</ele>
        <time>2019-08-16T12:51:24Z</time>
      </trkpt>
      <trkpt lat="47.56431" lon="6.94127">
        <ele>329.9</ele>
        <time>2019-08-16T12:51:25Z</time>
      </trkpt>
      <trkpt lat="47.56428" lon="6.94121">
        <ele>329.9</ele>
        <time>2019-08-16T12:51:26Z</time>
      </trkpt>
      <trkpt lat="47.56425" lon="6.94116">
        <ele>329.9</ele>
        <time>2019-08-16T12:51:27Z</time>
      </trkpt>
      <trkpt lat="47.56423" lon="6.94111">
        <ele>329.9</ele>
        <time>2019-08-16T12:51:28Z</time>
      </trkpt>
      <trkpt lat="47.5642" lon="6.94106">
        <ele>329.9</ele>
        <time>2019-08-16T12:51:29Z</time>
      </trkpt>
      <trkpt lat="47.56417" lon="6.94102">
        <ele>329.9</ele>
        <time>2019-08-16T12:51:30Z</time>
      </trkpt>
      <trkpt lat="47.56414" lon="6.94098">
        <ele>329.9</ele>
        <time>2019-08-16T12:51:31Z</time>
      </trkpt>
      <trkpt lat="47.56411" lon="6.94093">
        <ele>329.9</ele>
        <time>2019-08-16T12:51:32Z</time>
      </trkpt>
      <trkpt lat="47.56409" lon="6.94089">
        <ele>329.9</ele>
        <time>2019-08-16T12:51:33Z</time>
      </trkpt>
      <trkpt lat="47.56405" lon="6.94085">
        <ele>329.9</ele>
        <time>2019-08-16T12:51:34Z</time>
      </trkpt>
      <trkpt lat="47.56403" lon="6.94079">
        <ele>329.9</ele>
        <time>2019-08-16T12:51:35Z</time>
      </trkpt>
      <trkpt lat="47.56399" lon="6.94074">
        <ele>329.9</ele>
        <time>2019-08-16T12:51:36Z</time>
      </trkpt>
      <trkpt lat="47.56396" lon="6.94068">
        <ele>329.9</ele>
        <time>2019-08-16T12:51:37Z</time>
      </trkpt>
      <trkpt lat="47.56393" lon="6.94062">
        <ele>329.9</ele>
        <time>2019-08-16T12:51:38Z</time>
      </trkpt>
      <trkpt lat="47.5639" lon="6.94056">
        <ele>329.9</ele>
        <time>2019-08-16T12:51:39Z</time>
      </trkpt>
      <trkpt lat="47.56386" lon="6.9405">
        <ele>329.9</ele>
        <time>2019-08-16T12:51:40Z</time>
      </trkpt>
      <trkpt lat="47.56383" lon="6.94044">
        <ele>329.9</ele>
        <time>2019-08-16T12:51:41Z</time>
      </trkpt>
      <trkpt lat="47.56379" lon="6.94038">
        <ele>329.9</ele>
        <time>2019-08-16T12:51:42Z</time>
      </trkpt>
      <trkpt lat="47.56376" lon="6.94031">
        <ele>329.9</ele>
        <time>2019-08-16T12:51:43Z</time>
      </trkpt>
      <trkpt lat="47.56373" lon="6.94025">
        <ele>329.9</ele>
        <time>2019-08-16T12:51:44Z</time>
      </trkpt>
      <trkpt lat="47.56369" lon="6.94019">
        <ele>329.9</ele>
        <time>2019-08-16T12:51:45Z</time>
      </trkpt>
      <trkpt lat="47.56366" lon="6.94013">
        <ele>329.9</ele>
        <time>2019-08-16T12:51:46Z</time>
      </trkpt>
      <trkpt lat="47.56363" lon="6.94008">
        <ele>329.9</ele>
        <time>2019-08-16T12:51:47Z</time>
      </trkpt>
      <trkpt lat="47.5636" lon="6.94002">
        <ele>329.9</ele>
        <time>2019-08-16T12:51:48Z</time>
      </trkpt>
      <trkpt lat="47.56355" lon="6.93998">
        <ele>329.9</ele>
        <time>2019-08-16T12:51:49Z</time>
      </trkpt>
      <trkpt lat="47.56352" lon="6.93992">
        <ele>329.9</ele>
        <time>2019-08-16T12:51:50Z</time>
      </trkpt>
      <trkpt lat="47.5635" lon="6.93987">
        <ele>329.9</ele>
        <time>2019-08-16T12:51:51Z</time>
      </trkpt>
      <trkpt lat="47.56347" lon="6.93982">
        <ele>329.9</ele>
        <time>2019-08-16T12:51:52Z</time>
      </trkpt>
      <trkpt lat="47.56344" lon="6.93976">
        <ele>329.9</ele>
        <time>2019-08-16T12:51:53Z</time>
      </trkpt>
      <trkpt lat="47.56341" lon="6.93971">
        <ele>329.9</ele>
        <time>2019-08-16T12:51:54Z</time>
      </trkpt>
      <trkpt lat="47.56339" lon="6.93966">
        <ele>329.9</ele>
        <time>2019-08-16T12:51:55Z</time>
      </trkpt>
      <trkpt lat="47.56337" lon="6.93961">
        <ele>329.9</ele>
        <time>2019-08-16T12:51:56Z</time>
      </trkpt>
      <trkpt lat="47.56335" lon="6.93955">
        <ele>329.9</ele>
        <time>2019-08-16T12:51:57Z</time>
      </trkpt>
      <trkpt lat="47.56333" lon="6.9395">
        <ele>329.9</ele>
        <time>2019-08-16T12:51:58Z</time>
      </trkpt>
      <trkpt lat="47.56331" lon="6.93945">
        <ele>329.9</ele>
        <time>2019-08-16T12:51:59Z</time>
      </trkpt>
      <trkpt lat="47.56328" lon="6.93941">
        <ele>329.9</ele>
        <time>2019-08-16T12:52:00Z</time>
      </trkpt>
      <trkpt lat="47.56326" lon="6.93936">
        <ele>329.9</ele>
        <time>2019-08-16T12:52:01Z</time>
      </trkpt>
      <trkpt lat="47.56324" lon="6.9393">
        <ele>329.9</ele>
        <time>2019-08-16T12:52:02Z</time>
      </trkpt>
      <trkpt lat="47.56321" lon="6.93926">
        <ele>329.9</ele>
        <time>2019-08-16T12:52:03Z</time>
      </trkpt>
      <trkpt lat="47.56317" lon="6.93921">
        <ele>329.9</ele>
        <time>2019-08-16T12:52:04Z</time>
      </trkpt>
      <trkpt lat="47.56315" lon="6.93916">
        <ele>329.9</ele>
        <time>2019-08-16T12:52:05Z</time>
      </trkpt>
      <trkpt lat="47.56312" lon="6.93912">
        <ele>329.9</ele>
        <time>2019-08-16T12:52:06Z</time>
      </trkpt>
      <trkpt lat="47.56309" lon="6.93909">
        <ele>329.9</ele>
        <time>2019-08-16T12:52:07Z</time>
      </trkpt>
      <trkpt lat="47.56306" lon="6.93905">
        <ele>329.9</ele>
        <time>2019-08-16T12:52:08Z</time>
      </trkpt>
      <trkpt lat="47.56303" lon="6.939">
        <ele>329.9</ele>
        <time>2019-08-16T12:52:09Z</time>
      </trkpt>
      <trkpt lat="47.56299" lon="6.93894">
        <ele>329.9</ele>
        <time>2019-08-16T12:52:10Z</time>
      </trkpt>
      <trkpt lat="47.56295" lon="6.93888">
        <ele>330</ele>
        <time>2019-08-16T12:52:11Z</time>
      </trkpt>
      <trkpt lat="47.56291" lon="6.93882">
        <ele>330</ele>
        <time>2019-08-16T12:52:12Z</time>
      </trkpt>
      <trkpt lat="47.56287" lon="6.93875">
        <ele>330</ele>
        <time>2019-08-16T12:52:13Z</time>
      </trkpt>
      <trkpt lat="47.56282" lon="6.9387">
        <ele>330</ele>
        <time>2019-08-16T12:52:14Z</time>
      </trkpt>
      <trkpt lat="47.56277" lon="6.93863">
        <ele>330</ele>
        <time>2019-08-16T12:52:15Z</time>
      </trkpt>
      <trkpt lat="47.56272" lon="6.93855">
        <ele>330</ele>
        <time>2019-08-16T12:52:16Z</time>
      </trkpt>
      <trkpt lat="47.56268" lon="6.93847">
        <ele>330</ele>
        <time>2019-08-16T12:52:17Z</time>
      </trkpt>
      <trkpt lat="47.56264" lon="6.9384">
        <ele>330</ele>
        <time>2019-08-16T12:52:18Z</time>
      </trkpt>
      <trkpt lat="47.5626" lon="6.93833">
        <ele>330</ele>
        <time>2019-08-16T12:52:19Z</time>
      </trkpt>
      <trkpt lat="47.56256" lon="6.93827">
        <ele>330</ele>
        <time>2019-08-16T12:52:20Z</time>
      </trkpt>
      <trkpt lat="47.56252" lon="6.93821">
        <ele>330</ele>
        <time>2019-08-16T12:52:21Z</time>
      </trkpt>
      <trkpt lat="47.56249" lon="6.93816">
        <ele>330</ele>
        <time>2019-08-16T12:52:22Z</time>
      </trkpt>
      <trkpt lat="47.56245" lon="6.93812">
        <ele>330</ele>
        <time>2019-08-16T12:52:23Z</time>
      </trkpt>
      <trkpt lat="47.56243" lon="6.93806">
        <ele>330</ele>
        <time>2019-08-16T12:52:24Z</time>
      </trkpt>
      <trkpt lat="47.56239" lon="6.93801">
        <ele>330</ele>
        <time>2019-08-16T12:52:25Z</time>
      </trkpt>
      <trkpt lat="47.56235" lon="6.93796">
        <ele>330</ele>
        <time>2019-08-16T12:52:26Z</time>
      </trkpt>
      <trkpt lat="47.56232" lon="6.9379">
        <ele>330</ele>
        <time>2019-08-16T12:52:27Z</time>
      </trkpt>
      <trkpt lat="47.5623" lon="6.93785">
        <ele>330</ele>
        <time>2019-08-16T12:52:28Z</time>
      </trkpt>
      <trkpt lat="47.56226" lon="6.9378">
        <ele>330</ele>
        <time>2019-08-16T12:52:29Z</time>
      </trkpt>
      <trkpt lat="47.56223" lon="6.93775">
        <ele>330</ele>
        <time>2019-08-16T12:52:30Z</time>
      </trkpt>
      <trkpt lat="47.5622" lon="6.93771">
        <ele>330</ele>
        <time>2019-08-16T12:52:31Z</time>
      </trkpt>
      <trkpt lat="47.56216" lon="6.93765">
        <ele>330</ele>
        <time>2019-08-16T12:52:32Z</time>
      </trkpt>
      <trkpt lat="47.56212" lon="6.93759">
        <ele>330</ele>
        <time>2019-08-16T12:52:33Z</time>
      </trkpt>
      <trkpt lat="47.56209" lon="6.93753">
        <ele>330.1</ele>
        <time>2019-08-16T12:52:34Z</time>
      </trkpt>
      <trkpt lat="47.56206" lon="6.93747">
        <ele>330.1</ele>
        <time>2019-08-16T12:52:35Z</time>
      </trkpt>
      <trkpt lat="47.56203" lon="6.93741">
        <ele>330.1</ele>
        <time>2019-08-16T12:52:36Z</time>
      </trkpt>
      <trkpt lat="47.56199" lon="6.93735">
        <ele>330.1</ele>
        <time>2019-08-16T12:52:37Z</time>
      </trkpt>
      <trkpt lat="47.56196" lon="6.93729">
        <ele>330.2</ele>
        <time>2019-08-16T12:52:38Z</time>
      </trkpt>
      <trkpt lat="47.56193" lon="6.93723">
        <ele>330.2</ele>
        <time>2019-08-16T12:52:39Z</time>
      </trkpt>
      <trkpt lat="47.5619" lon="6.93717">
        <ele>330.3</ele>
        <time>2019-08-16T12:52:40Z</time>
      </trkpt>
      <trkpt lat="47.56187" lon="6.9371">
        <ele>330.4</ele>
        <time>2019-08-16T12:52:41Z</time>
      </trkpt>
      <trkpt lat="47.56183" lon="6.93704">
        <ele>330.6</ele>
        <time>2019-08-16T12:52:42Z</time>
      </trkpt>
      <trkpt lat="47.5618" lon="6.93699">
        <ele>330.7</ele>
        <time>2019-08-16T12:52:43Z</time>
      </trkpt>
      <trkpt lat="47.56177" lon="6.93693">
        <ele>330.8</ele>
        <time>2019-08-16T12:52:44Z</time>
      </trkpt>
      <trkpt lat="47.56174" lon="6.93687">
        <ele>330.8</ele>
        <time>2019-08-16T12:52:45Z</time>
      </trkpt>
      <trkpt lat="47.56171" lon="6.93682">
        <ele>330.9</ele>
        <time>2019-08-16T12:52:46Z</time>
      </trkpt>
      <trkpt lat="47.56168" lon="6.93677">
        <ele>330.9</ele>
        <time>2019-08-16T12:52:47Z</time>
      </trkpt>
      <trkpt lat="47.56164" lon="6.93672">
        <ele>330.9</ele>
        <time>2019-08-16T12:52:48Z</time>
      </trkpt>
      <trkpt lat="47.5616" lon="6.93667">
        <ele>331</ele>
        <time>2019-08-16T12:52:49Z</time>
      </trkpt>
      <trkpt lat="47.56157" lon="6.93661">
        <ele>331</ele>
        <time>2019-08-16T12:52:50Z</time>
      </trkpt>
      <trkpt lat="47.56154" lon="6.93656">
        <ele>331</ele>
        <time>2019-08-16T12:52:51Z</time>
      </trkpt>
      <trkpt lat="47.56152" lon="6.9365">
        <ele>331</ele>
        <time>2019-08-16T12:52:52Z</time>
      </trkpt>
      <trkpt lat="47.56149" lon="6.93644">
        <ele>331</ele>
        <time>2019-08-16T12:52:53Z</time>
      </trkpt>
      <trkpt lat="47.56146" lon="6.93637">
        <ele>331.1</ele>
        <time>2019-08-16T12:52:54Z</time>
      </trkpt>
      <trkpt lat="47.56143" lon="6.93632">
        <ele>331.1</ele>
        <time>2019-08-16T12:52:55Z</time>
      </trkpt>
      <trkpt lat="47.56141" lon="6.93625">
        <ele>331.1</ele>
        <time>2019-08-16T12:52:56Z</time>
      </trkpt>
      <trkpt lat="47.56138" lon="6.93619">
        <ele>331.1</ele>
        <time>2019-08-16T12:52:57Z</time>
      </trkpt>
      <trkpt lat="47.56135" lon="6.93612">
        <ele>331.1</ele>
        <time>2019-08-16T12:52:58Z</time>
      </trkpt>
      <trkpt lat="47.56133" lon="6.93606">
        <ele>331.1</ele>
        <time>2019-08-16T12:52:59Z</time>
      </trkpt>
      <trkpt lat="47.5613" lon="6.936">
        <ele>331.1</ele>
        <time>2019-08-16T12:53:00Z</time>
      </trkpt>
      <trkpt lat="47.56126" lon="6.93594">
        <ele>331.1</ele>
        <time>2019-08-16T12:53:01Z</time>
      </trkpt>
      <trkpt lat="47.56123" lon="6.93588">
        <ele>331.1</ele>
        <time>2019-08-16T12:53:02Z</time>
      </trkpt>
      <trkpt lat="47.56119" lon="6.93581">
        <ele>331.1</ele>
        <time>2019-08-16T12:53:03Z</time>
      </trkpt>
      <trkpt lat="47.56116" lon="6.93575">
        <ele>331.1</ele>
        <time>2019-08-16T12:53:04Z</time>
      </trkpt>
      <trkpt lat="47.56113" lon="6.93569">
        <ele>331.1</ele>
        <time>2019-08-16T12:53:05Z</time>
      </trkpt>
      <trkpt lat="47.5611" lon="6.93564">
        <ele>331.1</ele>
        <time>2019-08-16T12:53:06Z</time>
      </trkpt>
      <trkpt lat="47.56107" lon="6.93558">
        <ele>331.1</ele>
        <time>2019-08-16T12:53:07Z</time>
      </trkpt>
      <trkpt lat="47.56104" lon="6.93553">
        <ele>331.1</ele>
        <time>2019-08-16T12:53:08Z</time>
      </trkpt>
      <trkpt lat="47.56101" lon="6.93547">
        <ele>331.1</ele>
        <time>2019-08-16T12:53:09Z</time>
      </trkpt>
      <trkpt lat="47.56098" lon="6.93542">
        <ele>331.1</ele>
        <time>2019-08-16T12:53:10Z</time>
      </trkpt>
      <trkpt lat="47.56094" lon="6.93537">
        <ele>331.1</ele>
        <time>2019-08-16T12:53:11Z</time>
      </trkpt>
      <trkpt lat="47.56091" lon="6.9353">
        <ele>331.1</ele>
        <time>2019-08-16T12:53:12Z</time>
      </trkpt>
      <trkpt lat="47.56089" lon="6.93524">
        <ele>331.1</ele>
        <time>2019-08-16T12:53:13Z</time>
      </trkpt>
      <trkpt lat="47.56086" lon="6.93518">
        <ele>331.1</ele>
        <time>2019-08-16T12:53:14Z</time>
      </trkpt>
      <trkpt lat="47.56084" lon="6.93511">
        <ele>331.1</ele>
        <time>2019-08-16T12:53:15Z</time>
      </trkpt>
      <trkpt lat="47.56081" lon="6.93505">
        <ele>331.1</ele>
        <time>2019-08-16T12:53:16Z</time>
      </trkpt>
      <trkpt lat="47.56078" lon="6.93497">
        <ele>331.1</ele>
        <time>2019-08-16T12:53:17Z</time>
      </trkpt>
      <trkpt lat="47.56076" lon="6.9349">
        <ele>331.1</ele>
        <time>2019-08-16T12:53:18Z</time>
      </trkpt>
      <trkpt lat="47.56074" lon="6.93485">
        <ele>331.1</ele>
        <time>2019-08-16T12:53:19Z</time>
      </trkpt>
      <trkpt lat="47.56071" lon="6.93479">
        <ele>331.1</ele>
        <time>2019-08-16T12:53:20Z</time>
      </trkpt>
      <trkpt lat="47.56069" lon="6.93473">
        <ele>331.1</ele>
        <time>2019-08-16T12:53:21Z</time>
      </trkpt>
      <trkpt lat="47.56066" lon="6.93467">
        <ele>331.1</ele>
        <time>2019-08-16T12:53:22Z</time>
      </trkpt>
      <trkpt lat="47.56064" lon="6.93461">
        <ele>331.1</ele>
        <time>2019-08-16T12:53:23Z</time>
      </trkpt>
      <trkpt lat="47.56062" lon="6.93454">
        <ele>331.1</ele>
        <time>2019-08-16T12:53:24Z</time>
      </trkpt>
      <trkpt lat="47.5606" lon="6.93449">
        <ele>331.1</ele>
        <time>2019-08-16T12:53:25Z</time>
      </trkpt>
      <trkpt lat="47.56058" lon="6.93442">
        <ele>331.1</ele>
        <time>2019-08-16T12:53:26Z</time>
      </trkpt>
      <trkpt lat="47.56055" lon="6.93436">
        <ele>331.1</ele>
        <time>2019-08-16T12:53:27Z</time>
      </trkpt>
      <trkpt lat="47.56052" lon="6.93429">
        <ele>331.1</ele>
        <time>2019-08-16T12:53:28Z</time>
      </trkpt>
      <trkpt lat="47.56049" lon="6.93423">
        <ele>331.1</ele>
        <time>2019-08-16T12:53:29Z</time>
      </trkpt>
      <trkpt lat="47.56046" lon="6.93416">
        <ele>331.1</ele>
        <time>2019-08-16T12:53:30Z</time>
      </trkpt>
      <trkpt lat="47.56044" lon="6.93409">
        <ele>331.1</ele>
        <time>2019-08-16T12:53:31Z</time>
      </trkpt>
      <trkpt lat="47.56041" lon="6.93401">
        <ele>331.1</ele>
        <time>2019-08-16T12:53:32Z</time>
      </trkpt>
      <trkpt lat="47.56039" lon="6.93397">
        <ele>331.1</ele>
        <time>2019-08-16T12:53:33Z</time>
      </trkpt>
      <trkpt lat="47.56036" lon="6.93391">
        <ele>331.1</ele>
        <time>2019-08-16T12:53:34Z</time>
      </trkpt>
      <trkpt lat="47.56034" lon="6.93386">
        <ele>331.2</ele>
        <time>2019-08-16T12:53:35Z</time>
      </trkpt>
      <trkpt lat="47.56031" lon="6.9338">
        <ele>331.2</ele>
        <time>2019-08-16T12:53:36Z</time>
      </trkpt>
      <trkpt lat="47.56028" lon="6.93375">
        <ele>331.2</ele>
        <time>2019-08-16T12:53:37Z</time>
      </trkpt>
      <trkpt lat="47.56025" lon="6.93369">
        <ele>331.2</ele>
        <time>2019-08-16T12:53:38Z</time>
      </trkpt>
      <trkpt lat="47.56023" lon="6.93363">
        <ele>331.2</ele>
        <time>2019-08-16T12:53:39Z</time>
      </trkpt>
      <trkpt lat="47.56021" lon="6.93356">
        <ele>331.2</ele>
        <time>2019-08-16T12:53:40Z</time>
      </trkpt>
      <trkpt lat="47.56018" lon="6.9335">
        <ele>331.2</ele>
        <time>2019-08-16T12:53:41Z</time>
      </trkpt>
      <trkpt lat="47.56016" lon="6.93344">
        <ele>331.2</ele>
        <time>2019-08-16T12:53:42Z</time>
      </trkpt>
      <trkpt lat="47.56015" lon="6.93338">
        <ele>331.2</ele>
        <time>2019-08-16T12:53:43Z</time>
      </trkpt>
      <trkpt lat="47.56013" lon="6.93331">
        <ele>331.2</ele>
        <time>2019-08-16T12:53:44Z</time>
      </trkpt>
      <trkpt lat="47.5601" lon="6.93325">
        <ele>331.2</ele>
        <time>2019-08-16T12:53:45Z</time>
      </trkpt>
      <trkpt lat="47.56009" lon="6.93319">
        <ele>331.2</ele>
        <time>2019-08-16T12:53:46Z</time>
      </trkpt>
      <trkpt lat="47.56006" lon="6.93312">
        <ele>331.2</ele>
        <time>2019-08-16T12:53:47Z</time>
      </trkpt>
      <trkpt lat="47.56003" lon="6.93306">
        <ele>331.2</ele>
        <time>2019-08-16T12:53:48Z</time>
      </trkpt>
      <trkpt lat="47.56001" lon="6.933">
        <ele>331.2</ele>
        <time>2019-08-16T12:53:49Z</time>
      </trkpt>
      <trkpt lat="47.55997" lon="6.93294">
        <ele>331.2</ele>
        <time>2019-08-16T12:53:50Z</time>
      </trkpt>
      <trkpt lat="47.55994" lon="6.93289">
        <ele>331.2</ele>
        <time>2019-08-16T12:53:51Z</time>
      </trkpt>
      <trkpt lat="47.55991" lon="6.93283">
        <ele>331.2</ele>
        <time>2019-08-16T12:53:52Z</time>
      </trkpt>
      <trkpt lat="47.55988" lon="6.93277">
        <ele>331.2</ele>
        <time>2019-08-16T12:53:53Z</time>
      </trkpt>
      <trkpt lat="47.55986" lon="6.93271">
        <ele>331.2</ele>
        <time>2019-08-16T12:53:54Z</time>
      </trkpt>
      <trkpt lat="47.55985" lon="6.93264">
        <ele>331.2</ele>
        <time>2019-08-16T12:53:55Z</time>
      </trkpt>
      <trkpt lat="47.55983" lon="6.93258">
        <ele>331.3</ele>
        <time>2019-08-16T12:53:56Z</time>
      </trkpt>
      <trkpt lat="47.5598" lon="6.93253">
        <ele>331.3</ele>
        <time>2019-08-16T12:53:57Z</time>
      </trkpt>
      <trkpt lat="47.55977" lon="6.93247">
        <ele>331.3</ele>
        <time>2019-08-16T12:53:58Z</time>
      </trkpt>
      <trkpt lat="47.55975" lon="6.93242">
        <ele>331.3</ele>
        <time>2019-08-16T12:53:59Z</time>
      </trkpt>
      <trkpt lat="47.55973" lon="6.93236">
        <ele>331.4</ele>
        <time>2019-08-16T12:54:00Z</time>
      </trkpt>
      <trkpt lat="47.5597" lon="6.9323">
        <ele>331.4</ele>
        <time>2019-08-16T12:54:01Z</time>
      </trkpt>
      <trkpt lat="47.55967" lon="6.93223">
        <ele>331.4</ele>
        <time>2019-08-16T12:54:02Z</time>
      </trkpt>
      <trkpt lat="47.55964" lon="6.93216">
        <ele>331.4</ele>
        <time>2019-08-16T12:54:03Z</time>
      </trkpt>
      <trkpt lat="47.55962" lon="6.93208">
        <ele>331.4</ele>
        <time>2019-08-16T12:54:04Z</time>
      </trkpt>
      <trkpt lat="47.55959" lon="6.93201">
        <ele>331.4</ele>
        <time>2019-08-16T12:54:05Z</time>
      </trkpt>
      <trkpt lat="47.55957" lon="6.93194">
        <ele>331.4</ele>
        <time>2019-08-16T12:54:06Z</time>
      </trkpt>
      <trkpt lat="47.55955" lon="6.93188">
        <ele>331.4</ele>
        <time>2019-08-16T12:54:07Z</time>
      </trkpt>
      <trkpt lat="47.55952" lon="6.93182">
        <ele>331.4</ele>
        <time>2019-08-16T12:54:08Z</time>
      </trkpt>
      <trkpt lat="47.5595" lon="6.93176">
        <ele>331.4</ele>
        <time>2019-08-16T12:54:09Z</time>
      </trkpt>
      <trkpt lat="47.55948" lon="6.9317">
        <ele>331.4</ele>
        <time>2019-08-16T12:54:10Z</time>
      </trkpt>
      <trkpt lat="47.55945" lon="6.93164">
        <ele>331.4</ele>
        <time>2019-08-16T12:54:11Z</time>
      </trkpt>
      <trkpt lat="47.55944" lon="6.93157">
        <ele>331.4</ele>
        <time>2019-08-16T12:54:12Z</time>
      </trkpt>
      <trkpt lat="47.55942" lon="6.93151">
        <ele>331.4</ele>
        <time>2019-08-16T12:54:13Z</time>
      </trkpt>
      <trkpt lat="47.5594" lon="6.93145">
        <ele>331.4</ele>
        <time>2019-08-16T12:54:14Z</time>
      </trkpt>
      <trkpt lat="47.55938" lon="6.93139">
        <ele>331.4</ele>
        <time>2019-08-16T12:54:15Z</time>
      </trkpt>
      <trkpt lat="47.55936" lon="6.93133">
        <ele>331.4</ele>
        <time>2019-08-16T12:54:16Z</time>
      </trkpt>
      <trkpt lat="47.55933" lon="6.93127">
        <ele>331.4</ele>
        <time>2019-08-16T12:54:17Z</time>
      </trkpt>
      <trkpt lat="47.5593" lon="6.9312">
        <ele>331.4</ele>
        <time>2019-08-16T12:54:18Z</time>
      </trkpt>
      <trkpt lat="47.55928" lon="6.93114">
        <ele>331.4</ele>
        <time>2019-08-16T12:54:19Z</time>
      </trkpt>
      <trkpt lat="47.55924" lon="6.93105">
        <ele>331.4</ele>
        <time>2019-08-16T12:54:20Z</time>
      </trkpt>
      <trkpt lat="47.55922" lon="6.931">
        <ele>331.4</ele>
        <time>2019-08-16T12:54:21Z</time>
      </trkpt>
      <trkpt lat="47.55919" lon="6.93093">
        <ele>331.5</ele>
        <time>2019-08-16T12:54:22Z</time>
      </trkpt>
      <trkpt lat="47.55917" lon="6.93088">
        <ele>331.5</ele>
        <time>2019-08-16T12:54:23Z</time>
      </trkpt>
      <trkpt lat="47.55914" lon="6.93081">
        <ele>331.5</ele>
        <time>2019-08-16T12:54:24Z</time>
      </trkpt>
      <trkpt lat="47.55912" lon="6.93074">
        <ele>331.5</ele>
        <time>2019-08-16T12:54:25Z</time>
      </trkpt>
      <trkpt lat="47.5591" lon="6.93067">
        <ele>331.5</ele>
        <time>2019-08-16T12:54:26Z</time>
      </trkpt>
      <trkpt lat="47.55909" lon="6.93061">
        <ele>331.5</ele>
        <time>2019-08-16T12:54:27Z</time>
      </trkpt>
      <trkpt lat="47.55906" lon="6.93054">
        <ele>331.5</ele>
        <time>2019-08-16T12:54:28Z</time>
      </trkpt>
      <trkpt lat="47.55904" lon="6.93047">
        <ele>331.5</ele>
        <time>2019-08-16T12:54:29Z</time>
      </trkpt>
      <trkpt lat="47.55902" lon="6.93041">
        <ele>331.5</ele>
        <time>2019-08-16T12:54:30Z</time>
      </trkpt>
      <trkpt lat="47.559" lon="6.93035">
        <ele>331.5</ele>
        <time>2019-08-16T12:54:31Z</time>
      </trkpt>
      <trkpt lat="47.55897" lon="6.93029">
        <ele>331.4</ele>
        <time>2019-08-16T12:54:32Z</time>
      </trkpt>
      <trkpt lat="47.55896" lon="6.93021">
        <ele>331.4</ele>
        <time>2019-08-16T12:54:33Z</time>
      </trkpt>
      <trkpt lat="47.55894" lon="6.93015">
        <ele>331.4</ele>
        <time>2019-08-16T12:54:34Z</time>
      </trkpt>
      <trkpt lat="47.55894" lon="6.93007">
        <ele>331.4</ele>
        <time>2019-08-16T12:54:35Z</time>
      </trkpt>
      <trkpt lat="47.55893" lon="6.93001">
        <ele>331.4</ele>
        <time>2019-08-16T12:54:36Z</time>
      </trkpt>
      <trkpt lat="47.55893" lon="6.92995">
        <ele>331.3</ele>
        <time>2019-08-16T12:54:37Z</time>
      </trkpt>
      <trkpt lat="47.55892" lon="6.92988">
        <ele>331.3</ele>
        <time>2019-08-16T12:54:38Z</time>
      </trkpt>
      <trkpt lat="47.5589" lon="6.92983">
        <ele>331.3</ele>
        <time>2019-08-16T12:54:39Z</time>
      </trkpt>
      <trkpt lat="47.55887" lon="6.92976">
        <ele>331.2</ele>
        <time>2019-08-16T12:54:40Z</time>
      </trkpt>
      <trkpt lat="47.55883" lon="6.9297">
        <ele>331.2</ele>
        <time>2019-08-16T12:54:41Z</time>
      </trkpt>
      <trkpt lat="47.5588" lon="6.92963">
        <ele>331.2</ele>
        <time>2019-08-16T12:54:42Z</time>
      </trkpt>
      <trkpt lat="47.55877" lon="6.92956">
        <ele>331.1</ele>
        <time>2019-08-16T12:54:43Z</time>
      </trkpt>
      <trkpt lat="47.55874" lon="6.92947">
        <ele>331.1</ele>
        <time>2019-08-16T12:54:44Z</time>
      </trkpt>
      <trkpt lat="47.55871" lon="6.9294">
        <ele>331</ele>
        <time>2019-08-16T12:54:45Z</time>
      </trkpt>
      <trkpt lat="47.55869" lon="6.92933">
        <ele>331</ele>
        <time>2019-08-16T12:54:46Z</time>
      </trkpt>
      <trkpt lat="47.55866" lon="6.92927">
        <ele>330.9</ele>
        <time>2019-08-16T12:54:47Z</time>
      </trkpt>
      <trkpt lat="47.55864" lon="6.9292">
        <ele>330.9</ele>
        <time>2019-08-16T12:54:48Z</time>
      </trkpt>
      <trkpt lat="47.55862" lon="6.92914">
        <ele>330.8</ele>
        <time>2019-08-16T12:54:49Z</time>
      </trkpt>
      <trkpt lat="47.5586" lon="6.92907">
        <ele>330.8</ele>
        <time>2019-08-16T12:54:50Z</time>
      </trkpt>
      <trkpt lat="47.55857" lon="6.92902">
        <ele>330.7</ele>
        <time>2019-08-16T12:54:51Z</time>
      </trkpt>
      <trkpt lat="47.55855" lon="6.92895">
        <ele>330.7</ele>
        <time>2019-08-16T12:54:52Z</time>
      </trkpt>
      <trkpt lat="47.55852" lon="6.92888">
        <ele>330.7</ele>
        <time>2019-08-16T12:54:53Z</time>
      </trkpt>
      <trkpt lat="47.5585" lon="6.92882">
        <ele>330.6</ele>
        <time>2019-08-16T12:54:54Z</time>
      </trkpt>
      <trkpt lat="47.55846" lon="6.92874">
        <ele>330.6</ele>
        <time>2019-08-16T12:54:55Z</time>
      </trkpt>
      <trkpt lat="47.55845" lon="6.92866">
        <ele>330.6</ele>
        <time>2019-08-16T12:54:56Z</time>
      </trkpt>
      <trkpt lat="47.55843" lon="6.9286">
        <ele>330.6</ele>
        <time>2019-08-16T12:54:57Z</time>
      </trkpt>
      <trkpt lat="47.55841" lon="6.92855">
        <ele>330.5</ele>
        <time>2019-08-16T12:54:58Z</time>
      </trkpt>
      <trkpt lat="47.55839" lon="6.92849">
        <ele>330.5</ele>
        <time>2019-08-16T12:54:59Z</time>
      </trkpt>
      <trkpt lat="47.55837" lon="6.92844">
        <ele>330.5</ele>
        <time>2019-08-16T12:55:00Z</time>
      </trkpt>
      <trkpt lat="47.55835" lon="6.9284">
        <ele>330.5</ele>
        <time>2019-08-16T12:55:01Z</time>
      </trkpt>
      <trkpt lat="47.55833" lon="6.92834">
        <ele>330.5</ele>
        <time>2019-08-16T12:55:02Z</time>
      </trkpt>
      <trkpt lat="47.55831" lon="6.92829">
        <ele>330.5</ele>
        <time>2019-08-16T12:55:03Z</time>
      </trkpt>
      <trkpt lat="47.55828" lon="6.92823">
        <ele>330.5</ele>
        <time>2019-08-16T12:55:04Z</time>
      </trkpt>
      <trkpt lat="47.55826" lon="6.92818">
        <ele>330.5</ele>
        <time>2019-08-16T12:55:05Z</time>
      </trkpt>
      <trkpt lat="47.55824" lon="6.92813">
        <ele>330.5</ele>
        <time>2019-08-16T12:55:06Z</time>
      </trkpt>
      <trkpt lat="47.55821" lon="6.92807">
        <ele>330.5</ele>
        <time>2019-08-16T12:55:07Z</time>
      </trkpt>
      <trkpt lat="47.55818" lon="6.92801">
        <ele>330.5</ele>
        <time>2019-08-16T12:55:08Z</time>
      </trkpt>
      <trkpt lat="47.55815" lon="6.92794">
        <ele>330.5</ele>
        <time>2019-08-16T12:55:09Z</time>
      </trkpt>
      <trkpt lat="47.55814" lon="6.92787">
        <ele>330.5</ele>
        <time>2019-08-16T12:55:10Z</time>
      </trkpt>
      <trkpt lat="47.55813" lon="6.92781">
        <ele>330.5</ele>
        <time>2019-08-16T12:55:11Z</time>
      </trkpt>
      <trkpt lat="47.55812" lon="6.92773">
        <ele>330.5</ele>
        <time>2019-08-16T12:55:12Z</time>
      </trkpt>
      <trkpt lat="47.55811" lon="6.92766">
        <ele>330.5</ele>
        <time>2019-08-16T12:55:13Z</time>
      </trkpt>
      <trkpt lat="47.55809" lon="6.92761">
        <ele>330.5</ele>
        <time>2019-08-16T12:55:14Z</time>
      </trkpt>
      <trkpt lat="47.55808" lon="6.92755">
        <ele>330.5</ele>
        <time>2019-08-16T12:55:15Z</time>
      </trkpt>
      <trkpt lat="47.55805" lon="6.92751">
        <ele>330.5</ele>
        <time>2019-08-16T12:55:16Z</time>
      </trkpt>
      <trkpt lat="47.55802" lon="6.92746">
        <ele>330.4</ele>
        <time>2019-08-16T12:55:17Z</time>
      </trkpt>
      <trkpt lat="47.558" lon="6.92742">
        <ele>330.4</ele>
        <time>2019-08-16T12:55:18Z</time>
      </trkpt>
      <trkpt lat="47.55798" lon="6.92737">
        <ele>330.4</ele>
        <time>2019-08-16T12:55:19Z</time>
      </trkpt>
      <trkpt lat="47.55796" lon="6.92732">
        <ele>330.4</ele>
        <time>2019-08-16T12:55:20Z</time>
      </trkpt>
      <trkpt lat="47.55795" lon="6.92726">
        <ele>330.4</ele>
        <time>2019-08-16T12:55:21Z</time>
      </trkpt>
      <trkpt lat="47.55793" lon="6.92721">
        <ele>330.4</ele>
        <time>2019-08-16T12:55:22Z</time>
      </trkpt>
      <trkpt lat="47.55791" lon="6.92715">
        <ele>330.4</ele>
        <time>2019-08-16T12:55:23Z</time>
      </trkpt>
      <trkpt lat="47.5579" lon="6.9271">
        <ele>330.4</ele>
        <time>2019-08-16T12:55:24Z</time>
      </trkpt>
      <trkpt lat="47.55789" lon="6.92705">
        <ele>330.4</ele>
        <time>2019-08-16T12:55:25Z</time>
      </trkpt>
      <trkpt lat="47.55787" lon="6.927">
        <ele>330.4</ele>
        <time>2019-08-16T12:55:26Z</time>
      </trkpt>
      <trkpt lat="47.55785" lon="6.92694">
        <ele>330.4</ele>
        <time>2019-08-16T12:55:27Z</time>
      </trkpt>
      <trkpt lat="47.55783" lon="6.92688">
        <ele>330.4</ele>
        <time>2019-08-16T12:55:28Z</time>
      </trkpt>
      <trkpt lat="47.55781" lon="6.92682">
        <ele>330.4</ele>
        <time>2019-08-16T12:55:29Z</time>
      </trkpt>
      <trkpt lat="47.55779" lon="6.92676">
        <ele>330.4</ele>
        <time>2019-08-16T12:55:30Z</time>
      </trkpt>
      <trkpt lat="47.55777" lon="6.9267">
        <ele>330.4</ele>
        <time>2019-08-16T12:55:31Z</time>
      </trkpt>
      <trkpt lat="47.55775" lon="6.92663">
        <ele>330.4</ele>
        <time>2019-08-16T12:55:32Z</time>
      </trkpt>
      <trkpt lat="47.55771" lon="6.92658">
        <ele>330.4</ele>
        <time>2019-08-16T12:55:33Z</time>
      </trkpt>
      <trkpt lat="47.55769" lon="6.92653">
        <ele>330.4</ele>
        <time>2019-08-16T12:55:34Z</time>
      </trkpt>
      <trkpt lat="47.55766" lon="6.92648">
        <ele>330.4</ele>
        <time>2019-08-16T12:55:35Z</time>
      </trkpt>
      <trkpt lat="47.55764" lon="6.92642">
        <ele>330.4</ele>
        <time>2019-08-16T12:55:36Z</time>
      </trkpt>
      <trkpt lat="47.55762" lon="6.92637">
        <ele>330.4</ele>
        <time>2019-08-16T12:55:37Z</time>
      </trkpt>
      <trkpt lat="47.5576" lon="6.92633">
        <ele>330.4</ele>
        <time>2019-08-16T12:55:38Z</time>
      </trkpt>
      <trkpt lat="47.55757" lon="6.92628">
        <ele>330.4</ele>
        <time>2019-08-16T12:55:39Z</time>
      </trkpt>
      <trkpt lat="47.55755" lon="6.92623">
        <ele>330.4</ele>
        <time>2019-08-16T12:55:40Z</time>
      </trkpt>
      <trkpt lat="47.55752" lon="6.92618">
        <ele>330.4</ele>
        <time>2019-08-16T12:55:41Z</time>
      </trkpt>
      <trkpt lat="47.55749" lon="6.92612">
        <ele>330.5</ele>
        <time>2019-08-16T12:55:42Z</time>
      </trkpt>
      <trkpt lat="47.55746" lon="6.92607">
        <ele>330.5</ele>
        <time>2019-08-16T12:55:43Z</time>
      </trkpt>
      <trkpt lat="47.55743" lon="6.926">
        <ele>330.5</ele>
        <time>2019-08-16T12:55:44Z</time>
      </trkpt>
      <trkpt lat="47.55741" lon="6.92595">
        <ele>330.6</ele>
        <time>2019-08-16T12:55:45Z</time>
      </trkpt>
      <trkpt lat="47.55738" lon="6.9259">
        <ele>330.6</ele>
        <time>2019-08-16T12:55:46Z</time>
      </trkpt>
      <trkpt lat="47.55735" lon="6.92584">
        <ele>330.6</ele>
        <time>2019-08-16T12:55:47Z</time>
      </trkpt>
      <trkpt lat="47.55732" lon="6.92579">
        <ele>330.6</ele>
        <time>2019-08-16T12:55:48Z</time>
      </trkpt>
      <trkpt lat="47.5573" lon="6.92573">
        <ele>330.6</ele>
        <time>2019-08-16T12:55:49Z</time>
      </trkpt>
      <trkpt lat="47.55727" lon="6.92567">
        <ele>330.7</ele>
        <time>2019-08-16T12:55:50Z</time>
      </trkpt>
      <trkpt lat="47.55724" lon="6.92562">
        <ele>330.7</ele>
        <time>2019-08-16T12:55:51Z</time>
      </trkpt>
      <trkpt lat="47.55722" lon="6.92557">
        <ele>330.7</ele>
        <time>2019-08-16T12:55:52Z</time>
      </trkpt>
      <trkpt lat="47.55719" lon="6.9255">
        <ele>330.8</ele>
        <time>2019-08-16T12:55:54Z</time>
      </trkpt>
      <trkpt lat="47.55717" lon="6.92548">
        <ele>330.9</ele>
        <time>2019-08-16T12:55:55Z</time>
      </trkpt>
      <trkpt lat="47.55714" lon="6.92544">
        <ele>331</ele>
        <time>2019-08-16T12:55:57Z</time>
      </trkpt>
      <trkpt lat="47.55711" lon="6.92541">
        <ele>331.1</ele>
        <time>2019-08-16T12:55:58Z</time>
      </trkpt>
      <trkpt lat="47.55708" lon="6.92535">
        <ele>331.2</ele>
        <time>2019-08-16T12:56:00Z</time>
      </trkpt>
      <trkpt lat="47.55706" lon="6.9253">
        <ele>331.2</ele>
        <time>2019-08-16T12:56:02Z</time>
      </trkpt>
      <trkpt lat="47.55705" lon="6.92526">
        <ele>331.3</ele>
        <time>2019-08-16T12:56:04Z</time>
      </trkpt>
      <trkpt lat="47.55704" lon="6.92522">
        <ele>331.3</ele>
        <time>2019-08-16T12:56:06Z</time>
      </trkpt>
      <trkpt lat="47.55705" lon="6.92518">
        <ele>331.3</ele>
        <time>2019-08-16T12:56:09Z</time>
      </trkpt>
      <trkpt lat="47.55709" lon="6.92513">
        <ele>331.4</ele>
        <time>2019-08-16T12:56:11Z</time>
      </trkpt>
      <trkpt lat="47.55713" lon="6.92509">
        <ele>331.4</ele>
        <time>2019-08-16T12:56:13Z</time>
      </trkpt>
      <trkpt lat="47.55715" lon="6.92506">
        <ele>331.5</ele>
        <time>2019-08-16T12:56:14Z</time>
      </trkpt>
      <trkpt lat="47.55717" lon="6.92503">
        <ele>331.5</ele>
        <time>2019-08-16T12:56:15Z</time>
      </trkpt>
      <trkpt lat="47.55718" lon="6.92498">
        <ele>331.5</ele>
        <time>2019-08-16T12:56:16Z</time>
      </trkpt>
      <trkpt lat="47.5572" lon="6.92494">
        <ele>331.6</ele>
        <time>2019-08-16T12:56:17Z</time>
      </trkpt>
      <trkpt lat="47.55723" lon="6.92489">
        <ele>331.6</ele>
        <time>2019-08-16T12:56:19Z</time>
      </trkpt>
      <trkpt lat="47.55723" lon="6.92483">
        <ele>331.6</ele>
        <time>2019-08-16T12:56:21Z</time>
      </trkpt>
      <trkpt lat="47.5572" lon="6.92479">
        <ele>331</ele>
        <time>2019-08-16T12:56:22Z</time>
      </trkpt>
      <trkpt lat="47.55718" lon="6.92473">
        <ele>330.7</ele>
        <time>2019-08-16T12:56:23Z</time>
      </trkpt>
      <trkpt lat="47.55714" lon="6.92468">
        <ele>330.5</ele>
        <time>2019-08-16T12:56:24Z</time>
      </trkpt>
      <trkpt lat="47.5571" lon="6.92463">
        <ele>330.2</ele>
        <time>2019-08-16T12:56:25Z</time>
      </trkpt>
      <trkpt lat="47.55705" lon="6.92457">
        <ele>330.1</ele>
        <time>2019-08-16T12:56:26Z</time>
      </trkpt>
      <trkpt lat="47.55701" lon="6.92451">
        <ele>330</ele>
        <time>2019-08-16T12:56:27Z</time>
      </trkpt>
      <trkpt lat="47.55698" lon="6.92445">
        <ele>329.9</ele>
        <time>2019-08-16T12:56:28Z</time>
      </trkpt>
      <trkpt lat="47.55694" lon="6.92439">
        <ele>329.9</ele>
        <time>2019-08-16T12:56:29Z</time>
      </trkpt>
      <trkpt lat="47.55691" lon="6.92432">
        <ele>329.9</ele>
        <time>2019-08-16T12:56:30Z</time>
      </trkpt>
      <trkpt lat="47.55688" lon="6.92425">
        <ele>329.9</ele>
        <time>2019-08-16T12:56:31Z</time>
      </trkpt>
      <trkpt lat="47.55685" lon="6.92418">
        <ele>329.9</ele>
        <time>2019-08-16T12:56:32Z</time>
      </trkpt>
      <trkpt lat="47.55683" lon="6.92412">
        <ele>329.9</ele>
        <time>2019-08-16T12:56:33Z</time>
      </trkpt>
      <trkpt lat="47.5568" lon="6.92406">
        <ele>329.9</ele>
        <time>2019-08-16T12:56:34Z</time>
      </trkpt>
      <trkpt lat="47.55676" lon="6.92401">
        <ele>329.9</ele>
        <time>2019-08-16T12:56:35Z</time>
      </trkpt>
      <trkpt lat="47.55672" lon="6.92395">
        <ele>329.9</ele>
        <time>2019-08-16T12:56:36Z</time>
      </trkpt>
      <trkpt lat="47.55669" lon="6.92389">
        <ele>329.9</ele>
        <time>2019-08-16T12:56:37Z</time>
      </trkpt>
      <trkpt lat="47.55665" lon="6.92383">
        <ele>329.9</ele>
        <time>2019-08-16T12:56:38Z</time>
      </trkpt>
      <trkpt lat="47.55661" lon="6.92376">
        <ele>329.9</ele>
        <time>2019-08-16T12:56:39Z</time>
      </trkpt>
      <trkpt lat="47.55658" lon="6.9237">
        <ele>329.9</ele>
        <time>2019-08-16T12:56:40Z</time>
      </trkpt>
      <trkpt lat="47.55654" lon="6.92363">
        <ele>329.9</ele>
        <time>2019-08-16T12:56:41Z</time>
      </trkpt>
      <trkpt lat="47.55651" lon="6.92357">
        <ele>329.9</ele>
        <time>2019-08-16T12:56:42Z</time>
      </trkpt>
      <trkpt lat="47.55647" lon="6.92351">
        <ele>329.9</ele>
        <time>2019-08-16T12:56:43Z</time>
      </trkpt>
      <trkpt lat="47.55644" lon="6.92347">
        <ele>329.9</ele>
        <time>2019-08-16T12:56:44Z</time>
      </trkpt>
      <trkpt lat="47.5564" lon="6.92341">
        <ele>329.9</ele>
        <time>2019-08-16T12:56:45Z</time>
      </trkpt>
      <trkpt lat="47.55638" lon="6.92335">
        <ele>329.9</ele>
        <time>2019-08-16T12:56:46Z</time>
      </trkpt>
      <trkpt lat="47.55636" lon="6.9233">
        <ele>329.9</ele>
        <time>2019-08-16T12:56:47Z</time>
      </trkpt>
      <trkpt lat="47.55633" lon="6.92324">
        <ele>329.9</ele>
        <time>2019-08-16T12:56:48Z</time>
      </trkpt>
      <trkpt lat="47.55631" lon="6.92319">
        <ele>329.9</ele>
        <time>2019-08-16T12:56:49Z</time>
      </trkpt>
      <trkpt lat="47.55628" lon="6.92314">
        <ele>329.9</ele>
        <time>2019-08-16T12:56:50Z</time>
      </trkpt>
      <trkpt lat="47.55626" lon="6.92309">
        <ele>329.9</ele>
        <time>2019-08-16T12:56:51Z</time>
      </trkpt>
      <trkpt lat="47.55625" lon="6.92303">
        <ele>329.9</ele>
        <time>2019-08-16T12:56:52Z</time>
      </trkpt>
      <trkpt lat="47.55623" lon="6.92298">
        <ele>329.9</ele>
        <time>2019-08-16T12:56:53Z</time>
      </trkpt>
      <trkpt lat="47.5562" lon="6.92292">
        <ele>329.9</ele>
        <time>2019-08-16T12:56:54Z</time>
      </trkpt>
      <trkpt lat="47.55617" lon="6.92286">
        <ele>329.9</ele>
        <time>2019-08-16T12:56:55Z</time>
      </trkpt>
      <trkpt lat="47.55613" lon="6.92279">
        <ele>329.9</ele>
        <time>2019-08-16T12:56:56Z</time>
      </trkpt>
      <trkpt lat="47.5561" lon="6.92273">
        <ele>329.9</ele>
        <time>2019-08-16T12:56:57Z</time>
      </trkpt>
      <trkpt lat="47.55607" lon="6.92266">
        <ele>329.8</ele>
        <time>2019-08-16T12:56:58Z</time>
      </trkpt>
      <trkpt lat="47.55603" lon="6.92261">
        <ele>329.8</ele>
        <time>2019-08-16T12:56:59Z</time>
      </trkpt>
      <trkpt lat="47.55599" lon="6.92255">
        <ele>329.8</ele>
        <time>2019-08-16T12:57:00Z</time>
      </trkpt>
      <trkpt lat="47.55596" lon="6.92249">
        <ele>329.8</ele>
        <time>2019-08-16T12:57:01Z</time>
      </trkpt>
      <trkpt lat="47.55593" lon="6.92243">
        <ele>329.7</ele>
        <time>2019-08-16T12:57:02Z</time>
      </trkpt>
      <trkpt lat="47.55589" lon="6.92238">
        <ele>329.7</ele>
        <time>2019-08-16T12:57:03Z</time>
      </trkpt>
      <trkpt lat="47.55588" lon="6.92231">
        <ele>329.7</ele>
        <time>2019-08-16T12:57:04Z</time>
      </trkpt>
      <trkpt lat="47.55585" lon="6.92226">
        <ele>329.6</ele>
        <time>2019-08-16T12:57:05Z</time>
      </trkpt>
      <trkpt lat="47.55581" lon="6.92221">
        <ele>329.6</ele>
        <time>2019-08-16T12:57:06Z</time>
      </trkpt>
      <trkpt lat="47.55578" lon="6.92216">
        <ele>329.6</ele>
        <time>2019-08-16T12:57:07Z</time>
      </trkpt>
      <trkpt lat="47.55575" lon="6.9221">
        <ele>329.6</ele>
        <time>2019-08-16T12:57:08Z</time>
      </trkpt>
      <trkpt lat="47.55572" lon="6.92205">
        <ele>329.6</ele>
        <time>2019-08-16T12:57:09Z</time>
      </trkpt>
      <trkpt lat="47.55569" lon="6.922">
        <ele>329.6</ele>
        <time>2019-08-16T12:57:10Z</time>
      </trkpt>
      <trkpt lat="47.55565" lon="6.92195">
        <ele>329.6</ele>
        <time>2019-08-16T12:57:11Z</time>
      </trkpt>
      <trkpt lat="47.55562" lon="6.9219">
        <ele>329.6</ele>
        <time>2019-08-16T12:57:12Z</time>
      </trkpt>
      <trkpt lat="47.55559" lon="6.92185">
        <ele>329.6</ele>
        <time>2019-08-16T12:57:13Z</time>
      </trkpt>
      <trkpt lat="47.55556" lon="6.9218">
        <ele>329.6</ele>
        <time>2019-08-16T12:57:14Z</time>
      </trkpt>
      <trkpt lat="47.55553" lon="6.92175">
        <ele>329.6</ele>
        <time>2019-08-16T12:57:15Z</time>
      </trkpt>
      <trkpt lat="47.55549" lon="6.92169">
        <ele>329.6</ele>
        <time>2019-08-16T12:57:16Z</time>
      </trkpt>
      <trkpt lat="47.55546" lon="6.92164">
        <ele>329.6</ele>
        <time>2019-08-16T12:57:17Z</time>
      </trkpt>
      <trkpt lat="47.55543" lon="6.92159">
        <ele>329.6</ele>
        <time>2019-08-16T12:57:18Z</time>
      </trkpt>
      <trkpt lat="47.5554" lon="6.92154">
        <ele>329.6</ele>
        <time>2019-08-16T12:57:19Z</time>
      </trkpt>
      <trkpt lat="47.55537" lon="6.92148">
        <ele>329.6</ele>
        <time>2019-08-16T12:57:20Z</time>
      </trkpt>
      <trkpt lat="47.55534" lon="6.92143">
        <ele>329.6</ele>
        <time>2019-08-16T12:57:21Z</time>
      </trkpt>
      <trkpt lat="47.55531" lon="6.92138">
        <ele>329.6</ele>
        <time>2019-08-16T12:57:22Z</time>
      </trkpt>
      <trkpt lat="47.55528" lon="6.92132">
        <ele>329.6</ele>
        <time>2019-08-16T12:57:23Z</time>
      </trkpt>
      <trkpt lat="47.55525" lon="6.92127">
        <ele>329.6</ele>
        <time>2019-08-16T12:57:24Z</time>
      </trkpt>
      <trkpt lat="47.55522" lon="6.92122">
        <ele>329.6</ele>
        <time>2019-08-16T12:57:25Z</time>
      </trkpt>
      <trkpt lat="47.5552" lon="6.92116">
        <ele>329.6</ele>
        <time>2019-08-16T12:57:26Z</time>
      </trkpt>
      <trkpt lat="47.55517" lon="6.92109">
        <ele>329.6</ele>
        <time>2019-08-16T12:57:27Z</time>
      </trkpt>
      <trkpt lat="47.55514" lon="6.92104">
        <ele>329.6</ele>
        <time>2019-08-16T12:57:28Z</time>
      </trkpt>
      <trkpt lat="47.55511" lon="6.92097">
        <ele>329.6</ele>
        <time>2019-08-16T12:57:29Z</time>
      </trkpt>
      <trkpt lat="47.55508" lon="6.92091">
        <ele>329.6</ele>
        <time>2019-08-16T12:57:30Z</time>
      </trkpt>
      <trkpt lat="47.55505" lon="6.92085">
        <ele>329.6</ele>
        <time>2019-08-16T12:57:31Z</time>
      </trkpt>
      <trkpt lat="47.55502" lon="6.9208">
        <ele>329.6</ele>
        <time>2019-08-16T12:57:32Z</time>
      </trkpt>
      <trkpt lat="47.55497" lon="6.92075">
        <ele>329.6</ele>
        <time>2019-08-16T12:57:33Z</time>
      </trkpt>
      <trkpt lat="47.55494" lon="6.92069">
        <ele>329.6</ele>
        <time>2019-08-16T12:57:34Z</time>
      </trkpt>
      <trkpt lat="47.55491" lon="6.92063">
        <ele>329.6</ele>
        <time>2019-08-16T12:57:35Z</time>
      </trkpt>
      <trkpt lat="47.55488" lon="6.92057">
        <ele>329.6</ele>
        <time>2019-08-16T12:57:36Z</time>
      </trkpt>
      <trkpt lat="47.55484" lon="6.92051">
        <ele>329.6</ele>
        <time>2019-08-16T12:57:37Z</time>
      </trkpt>
      <trkpt lat="47.55481" lon="6.92045">
        <ele>329.6</ele>
        <time>2019-08-16T12:57:38Z</time>
      </trkpt>
      <trkpt lat="47.55477" lon="6.92038">
        <ele>329.6</ele>
        <time>2019-08-16T12:57:39Z</time>
      </trkpt>
      <trkpt lat="47.55474" lon="6.92032">
        <ele>329.6</ele>
        <time>2019-08-16T12:57:40Z</time>
      </trkpt>
      <trkpt lat="47.55471" lon="6.92026">
        <ele>329.6</ele>
        <time>2019-08-16T12:57:41Z</time>
      </trkpt>
      <trkpt lat="47.55468" lon="6.9202">
        <ele>329.6</ele>
        <time>2019-08-16T12:57:42Z</time>
      </trkpt>
      <trkpt lat="47.55465" lon="6.92014">
        <ele>329.6</ele>
        <time>2019-08-16T12:57:43Z</time>
      </trkpt>
      <trkpt lat="47.55463" lon="6.92007">
        <ele>329.6</ele>
        <time>2019-08-16T12:57:44Z</time>
      </trkpt>
      <trkpt lat="47.5546" lon="6.92002">
        <ele>329.6</ele>
        <time>2019-08-16T12:57:45Z</time>
      </trkpt>
      <trkpt lat="47.55458" lon="6.91997">
        <ele>329.6</ele>
        <time>2019-08-16T12:57:46Z</time>
      </trkpt>
      <trkpt lat="47.55455" lon="6.91992">
        <ele>329.6</ele>
        <time>2019-08-16T12:57:47Z</time>
      </trkpt>
      <trkpt lat="47.55453" lon="6.91986">
        <ele>329.6</ele>
        <time>2019-08-16T12:57:48Z</time>
      </trkpt>
      <trkpt lat="47.5545" lon="6.91981">
        <ele>329.6</ele>
        <time>2019-08-16T12:57:49Z</time>
      </trkpt>
      <trkpt lat="47.55447" lon="6.91977">
        <ele>329.6</ele>
        <time>2019-08-16T12:57:50Z</time>
      </trkpt>
      <trkpt lat="47.55445" lon="6.91972">
        <ele>329.6</ele>
        <time>2019-08-16T12:57:51Z</time>
      </trkpt>
      <trkpt lat="47.55442" lon="6.91966">
        <ele>329.6</ele>
        <time>2019-08-16T12:57:52Z</time>
      </trkpt>
      <trkpt lat="47.55439" lon="6.91961">
        <ele>329.6</ele>
        <time>2019-08-16T12:57:53Z</time>
      </trkpt>
      <trkpt lat="47.55436" lon="6.91957">
        <ele>329.6</ele>
        <time>2019-08-16T12:57:54Z</time>
      </trkpt>
      <trkpt lat="47.55433" lon="6.91951">
        <ele>329.6</ele>
        <time>2019-08-16T12:57:55Z</time>
      </trkpt>
      <trkpt lat="47.5543" lon="6.91946">
        <ele>329.6</ele>
        <time>2019-08-16T12:57:56Z</time>
      </trkpt>
      <trkpt lat="47.55427" lon="6.91941">
        <ele>329.6</ele>
        <time>2019-08-16T12:57:57Z</time>
      </trkpt>
      <trkpt lat="47.55425" lon="6.91935">
        <ele>329.6</ele>
        <time>2019-08-16T12:57:58Z</time>
      </trkpt>
      <trkpt lat="47.55422" lon="6.9193">
        <ele>329.6</ele>
        <time>2019-08-16T12:57:59Z</time>
      </trkpt>
      <trkpt lat="47.55419" lon="6.91925">
        <ele>329.6</ele>
        <time>2019-08-16T12:58:00Z</time>
      </trkpt>
      <trkpt lat="47.55415" lon="6.9192">
        <ele>329.6</ele>
        <time>2019-08-16T12:58:01Z</time>
      </trkpt>
      <trkpt lat="47.55412" lon="6.91915">
        <ele>329.5</ele>
        <time>2019-08-16T12:58:02Z</time>
      </trkpt>
      <trkpt lat="47.55408" lon="6.9191">
        <ele>329.5</ele>
        <time>2019-08-16T12:58:03Z</time>
      </trkpt>
      <trkpt lat="47.55405" lon="6.91904">
        <ele>329.5</ele>
        <time>2019-08-16T12:58:04Z</time>
      </trkpt>
      <trkpt lat="47.55402" lon="6.91898">
        <ele>329.5</ele>
        <time>2019-08-16T12:58:05Z</time>
      </trkpt>
      <trkpt lat="47.55399" lon="6.91893">
        <ele>329.5</ele>
        <time>2019-08-16T12:58:06Z</time>
      </trkpt>
      <trkpt lat="47.55396" lon="6.91887">
        <ele>329.5</ele>
        <time>2019-08-16T12:58:07Z</time>
      </trkpt>
      <trkpt lat="47.55393" lon="6.91881">
        <ele>329.4</ele>
        <time>2019-08-16T12:58:08Z</time>
      </trkpt>
      <trkpt lat="47.55389" lon="6.91876">
        <ele>329.3</ele>
        <time>2019-08-16T12:58:09Z</time>
      </trkpt>
      <trkpt lat="47.55386" lon="6.91871">
        <ele>329.1</ele>
        <time>2019-08-16T12:58:10Z</time>
      </trkpt>
      <trkpt lat="47.55383" lon="6.91865">
        <ele>328.8</ele>
        <time>2019-08-16T12:58:11Z</time>
      </trkpt>
      <trkpt lat="47.55379" lon="6.9186">
        <ele>328.5</ele>
        <time>2019-08-16T12:58:12Z</time>
      </trkpt>
      <trkpt lat="47.55376" lon="6.91855">
        <ele>328.2</ele>
        <time>2019-08-16T12:58:13Z</time>
      </trkpt>
      <trkpt lat="47.55373" lon="6.91849">
        <ele>328.2</ele>
        <time>2019-08-16T12:58:14Z</time>
      </trkpt>
      <trkpt lat="47.5537" lon="6.91844">
        <ele>328.3</ele>
        <time>2019-08-16T12:58:15Z</time>
      </trkpt>
      <trkpt lat="47.55368" lon="6.91839">
        <ele>328.3</ele>
        <time>2019-08-16T12:58:16Z</time>
      </trkpt>
      <trkpt lat="47.55365" lon="6.91833">
        <ele>328.3</ele>
        <time>2019-08-16T12:58:17Z</time>
      </trkpt>
      <trkpt lat="47.55362" lon="6.91828">
        <ele>328.4</ele>
        <time>2019-08-16T12:58:18Z</time>
      </trkpt>
      <trkpt lat="47.5536" lon="6.91822">
        <ele>328.4</ele>
        <time>2019-08-16T12:58:19Z</time>
      </trkpt>
      <trkpt lat="47.55357" lon="6.91816">
        <ele>328.4</ele>
        <time>2019-08-16T12:58:20Z</time>
      </trkpt>
      <trkpt lat="47.55354" lon="6.9181">
        <ele>328.5</ele>
        <time>2019-08-16T12:58:21Z</time>
      </trkpt>
      <trkpt lat="47.55351" lon="6.91805">
        <ele>328.5</ele>
        <time>2019-08-16T12:58:22Z</time>
      </trkpt>
      <trkpt lat="47.55349" lon="6.91799">
        <ele>328.5</ele>
        <time>2019-08-16T12:58:23Z</time>
      </trkpt>
      <trkpt lat="47.55346" lon="6.91794">
        <ele>328.6</ele>
        <time>2019-08-16T12:58:24Z</time>
      </trkpt>
      <trkpt lat="47.55343" lon="6.91788">
        <ele>328.6</ele>
        <time>2019-08-16T12:58:25Z</time>
      </trkpt>
      <trkpt lat="47.5534" lon="6.91783">
        <ele>328.7</ele>
        <time>2019-08-16T12:58:26Z</time>
      </trkpt>
      <trkpt lat="47.55338" lon="6.91778">
        <ele>328.7</ele>
        <time>2019-08-16T12:58:27Z</time>
      </trkpt>
      <trkpt lat="47.55335" lon="6.91773">
        <ele>328.7</ele>
        <time>2019-08-16T12:58:28Z</time>
      </trkpt>
      <trkpt lat="47.55332" lon="6.91767">
        <ele>328.8</ele>
        <time>2019-08-16T12:58:29Z</time>
      </trkpt>
      <trkpt lat="47.5533" lon="6.91761">
        <ele>328.8</ele>
        <time>2019-08-16T12:58:30Z</time>
      </trkpt>
      <trkpt lat="47.55328" lon="6.91756">
        <ele>328.8</ele>
        <time>2019-08-16T12:58:31Z</time>
      </trkpt>
      <trkpt lat="47.55325" lon="6.9175">
        <ele>328.9</ele>
        <time>2019-08-16T12:58:32Z</time>
      </trkpt>
      <trkpt lat="47.55322" lon="6.91744">
        <ele>328.9</ele>
        <time>2019-08-16T12:58:33Z</time>
      </trkpt>
      <trkpt lat="47.55319" lon="6.91738">
        <ele>328.9</ele>
        <time>2019-08-16T12:58:34Z</time>
      </trkpt>
      <trkpt lat="47.55317" lon="6.91733">
        <ele>329</ele>
        <time>2019-08-16T12:58:35Z</time>
      </trkpt>
      <trkpt lat="47.55315" lon="6.91726">
        <ele>329</ele>
        <time>2019-08-16T12:58:36Z</time>
      </trkpt>
      <trkpt lat="47.55312" lon="6.91721">
        <ele>329</ele>
        <time>2019-08-16T12:58:37Z</time>
      </trkpt>
      <trkpt lat="47.55309" lon="6.91716">
        <ele>329.1</ele>
        <time>2019-08-16T12:58:38Z</time>
      </trkpt>
      <trkpt lat="47.55307" lon="6.91712">
        <ele>329.1</ele>
        <time>2019-08-16T12:58:39Z</time>
      </trkpt>
      <trkpt lat="47.55304" lon="6.91708">
        <ele>329.1</ele>
        <time>2019-08-16T12:58:40Z</time>
      </trkpt>
      <trkpt lat="47.55301" lon="6.91704">
        <ele>329.1</ele>
        <time>2019-08-16T12:58:41Z</time>
      </trkpt>
      <trkpt lat="47.55299" lon="6.91699">
        <ele>329.1</ele>
        <time>2019-08-16T12:58:42Z</time>
      </trkpt>
      <trkpt lat="47.55296" lon="6.91694">
        <ele>329.2</ele>
        <time>2019-08-16T12:58:43Z</time>
      </trkpt>
      <trkpt lat="47.55294" lon="6.91688">
        <ele>329.2</ele>
        <time>2019-08-16T12:58:44Z</time>
      </trkpt>
      <trkpt lat="47.5529" lon="6.91682">
        <ele>329.2</ele>
        <time>2019-08-16T12:58:45Z</time>
      </trkpt>
      <trkpt lat="47.55287" lon="6.91677">
        <ele>329.3</ele>
        <time>2019-08-16T12:58:46Z</time>
      </trkpt>
      <trkpt lat="47.55284" lon="6.91671">
        <ele>329.3</ele>
        <time>2019-08-16T12:58:47Z</time>
      </trkpt>
      <trkpt lat="47.5528" lon="6.91665">
        <ele>329.3</ele>
        <time>2019-08-16T12:58:48Z</time>
      </trkpt>
      <trkpt lat="47.55277" lon="6.9166">
        <ele>329.3</ele>
        <time>2019-08-16T12:58:49Z</time>
      </trkpt>
      <trkpt lat="47.55274" lon="6.91654">
        <ele>329.4</ele>
        <time>2019-08-16T12:58:50Z</time>
      </trkpt>
      <trkpt lat="47.55271" lon="6.91648">
        <ele>329.4</ele>
        <time>2019-08-16T12:58:51Z</time>
      </trkpt>
      <trkpt lat="47.55267" lon="6.91643">
        <ele>329.4</ele>
        <time>2019-08-16T12:58:52Z</time>
      </trkpt>
      <trkpt lat="47.55264" lon="6.91637">
        <ele>329.5</ele>
        <time>2019-08-16T12:58:53Z</time>
      </trkpt>
      <trkpt lat="47.5526" lon="6.91631">
        <ele>329.5</ele>
        <time>2019-08-16T12:58:54Z</time>
      </trkpt>
      <trkpt lat="47.55259" lon="6.91624">
        <ele>329.5</ele>
        <time>2019-08-16T12:58:55Z</time>
      </trkpt>
      <trkpt lat="47.55257" lon="6.91617">
        <ele>329.6</ele>
        <time>2019-08-16T12:58:56Z</time>
      </trkpt>
      <trkpt lat="47.55255" lon="6.9161">
        <ele>329.6</ele>
        <time>2019-08-16T12:58:57Z</time>
      </trkpt>
      <trkpt lat="47.55252" lon="6.91603">
        <ele>329.6</ele>
        <time>2019-08-16T12:58:58Z</time>
      </trkpt>
      <trkpt lat="47.55248" lon="6.91597">
        <ele>329.7</ele>
        <time>2019-08-16T12:58:59Z</time>
      </trkpt>
      <trkpt lat="47.55245" lon="6.91591">
        <ele>329.7</ele>
        <time>2019-08-16T12:59:00Z</time>
      </trkpt>
      <trkpt lat="47.55242" lon="6.91585">
        <ele>329.7</ele>
        <time>2019-08-16T12:59:01Z</time>
      </trkpt>
      <trkpt lat="47.55239" lon="6.9158">
        <ele>329.8</ele>
        <time>2019-08-16T12:59:02Z</time>
      </trkpt>
      <trkpt lat="47.55236" lon="6.91574">
        <ele>329.8</ele>
        <time>2019-08-16T12:59:03Z</time>
      </trkpt>
      <trkpt lat="47.55233" lon="6.91568">
        <ele>329.8</ele>
        <time>2019-08-16T12:59:04Z</time>
      </trkpt>
      <trkpt lat="47.5523" lon="6.91562">
        <ele>329.9</ele>
        <time>2019-08-16T12:59:05Z</time>
      </trkpt>
      <trkpt lat="47.55228" lon="6.91556">
        <ele>329.9</ele>
        <time>2019-08-16T12:59:06Z</time>
      </trkpt>
      <trkpt lat="47.55225" lon="6.91551">
        <ele>329.9</ele>
        <time>2019-08-16T12:59:07Z</time>
      </trkpt>
      <trkpt lat="47.55223" lon="6.91546">
        <ele>329.9</ele>
        <time>2019-08-16T12:59:08Z</time>
      </trkpt>
      <trkpt lat="47.5522" lon="6.91541">
        <ele>330</ele>
        <time>2019-08-16T12:59:09Z</time>
      </trkpt>
      <trkpt lat="47.55217" lon="6.91536">
        <ele>330</ele>
        <time>2019-08-16T12:59:10Z</time>
      </trkpt>
      <trkpt lat="47.55214" lon="6.91531">
        <ele>330</ele>
        <time>2019-08-16T12:59:11Z</time>
      </trkpt>
      <trkpt lat="47.55211" lon="6.91526">
        <ele>330.1</ele>
        <time>2019-08-16T12:59:12Z</time>
      </trkpt>
      <trkpt lat="47.55209" lon="6.91521">
        <ele>330.1</ele>
        <time>2019-08-16T12:59:13Z</time>
      </trkpt>
      <trkpt lat="47.55205" lon="6.91516">
        <ele>330.1</ele>
        <time>2019-08-16T12:59:14Z</time>
      </trkpt>
      <trkpt lat="47.55202" lon="6.91511">
        <ele>330.2</ele>
        <time>2019-08-16T12:59:15Z</time>
      </trkpt>
      <trkpt lat="47.55199" lon="6.91506">
        <ele>330.2</ele>
        <time>2019-08-16T12:59:16Z</time>
      </trkpt>
      <trkpt lat="47.55196" lon="6.915">
        <ele>330.2</ele>
        <time>2019-08-16T12:59:17Z</time>
      </trkpt>
      <trkpt lat="47.55193" lon="6.91495">
        <ele>330.3</ele>
        <time>2019-08-16T12:59:18Z</time>
      </trkpt>
      <trkpt lat="47.55191" lon="6.9149">
        <ele>330.3</ele>
        <time>2019-08-16T12:59:19Z</time>
      </trkpt>
      <trkpt lat="47.55189" lon="6.91484">
        <ele>330.3</ele>
        <time>2019-08-16T12:59:20Z</time>
      </trkpt>
      <trkpt lat="47.55187" lon="6.91478">
        <ele>330.4</ele>
        <time>2019-08-16T12:59:21Z</time>
      </trkpt>
      <trkpt lat="47.55185" lon="6.91472">
        <ele>330.4</ele>
        <time>2019-08-16T12:59:22Z</time>
      </trkpt>
      <trkpt lat="47.55182" lon="6.91467">
        <ele>330.4</ele>
        <time>2019-08-16T12:59:23Z</time>
      </trkpt>
      <trkpt lat="47.5518" lon="6.91461">
        <ele>330.5</ele>
        <time>2019-08-16T12:59:24Z</time>
      </trkpt>
      <trkpt lat="47.55176" lon="6.91456">
        <ele>330.5</ele>
        <time>2019-08-16T12:59:25Z</time>
      </trkpt>
      <trkpt lat="47.55172" lon="6.9145">
        <ele>330.5</ele>
        <time>2019-08-16T12:59:26Z</time>
      </trkpt>
      <trkpt lat="47.5517" lon="6.91444">
        <ele>330.6</ele>
        <time>2019-08-16T12:59:27Z</time>
      </trkpt>
      <trkpt lat="47.55168" lon="6.91438">
        <ele>330.6</ele>
        <time>2019-08-16T12:59:28Z</time>
      </trkpt>
      <trkpt lat="47.55166" lon="6.91433">
        <ele>330.6</ele>
        <time>2019-08-16T12:59:29Z</time>
      </trkpt>
      <trkpt lat="47.55163" lon="6.91428">
        <ele>330.7</ele>
        <time>2019-08-16T12:59:30Z</time>
      </trkpt>
      <trkpt lat="47.5516" lon="6.91422">
        <ele>330.7</ele>
        <time>2019-08-16T12:59:31Z</time>
      </trkpt>
      <trkpt lat="47.55157" lon="6.91417">
        <ele>330.7</ele>
        <time>2019-08-16T12:59:32Z</time>
      </trkpt>
      <trkpt lat="47.55153" lon="6.91412">
        <ele>330.8</ele>
        <time>2019-08-16T12:59:33Z</time>
      </trkpt>
      <trkpt lat="47.55149" lon="6.91406">
        <ele>330.8</ele>
        <time>2019-08-16T12:59:34Z</time>
      </trkpt>
      <trkpt lat="47.55146" lon="6.914">
        <ele>330.8</ele>
        <time>2019-08-16T12:59:35Z</time>
      </trkpt>
      <trkpt lat="47.55142" lon="6.91394">
        <ele>330.9</ele>
        <time>2019-08-16T12:59:36Z</time>
      </trkpt>
      <trkpt lat="47.55139" lon="6.91389">
        <ele>330.9</ele>
        <time>2019-08-16T12:59:37Z</time>
      </trkpt>
      <trkpt lat="47.55135" lon="6.91383">
        <ele>331</ele>
        <time>2019-08-16T12:59:38Z</time>
      </trkpt>
      <trkpt lat="47.55132" lon="6.91378">
        <ele>331</ele>
        <time>2019-08-16T12:59:39Z</time>
      </trkpt>
      <trkpt lat="47.55129" lon="6.91374">
        <ele>331</ele>
        <time>2019-08-16T12:59:40Z</time>
      </trkpt>
      <trkpt lat="47.55126" lon="6.91368">
        <ele>331.1</ele>
        <time>2019-08-16T12:59:41Z</time>
      </trkpt>
      <trkpt lat="47.55123" lon="6.91363">
        <ele>331.1</ele>
        <time>2019-08-16T12:59:42Z</time>
      </trkpt>
      <trkpt lat="47.5512" lon="6.91357">
        <ele>331.2</ele>
        <time>2019-08-16T12:59:43Z</time>
      </trkpt>
      <trkpt lat="47.55117" lon="6.91353">
        <ele>331.2</ele>
        <time>2019-08-16T12:59:44Z</time>
      </trkpt>
      <trkpt lat="47.55113" lon="6.91348">
        <ele>331.2</ele>
        <time>2019-08-16T12:59:45Z</time>
      </trkpt>
      <trkpt lat="47.5511" lon="6.91342">
        <ele>331.3</ele>
        <time>2019-08-16T12:59:46Z</time>
      </trkpt>
      <trkpt lat="47.55107" lon="6.91337">
        <ele>331.3</ele>
        <time>2019-08-16T12:59:47Z</time>
      </trkpt>
      <trkpt lat="47.55104" lon="6.91331">
        <ele>331.3</ele>
        <time>2019-08-16T12:59:48Z</time>
      </trkpt>
      <trkpt lat="47.55102" lon="6.91325">
        <ele>331.4</ele>
        <time>2019-08-16T12:59:49Z</time>
      </trkpt>
      <trkpt lat="47.55099" lon="6.91319">
        <ele>331.4</ele>
        <time>2019-08-16T12:59:50Z</time>
      </trkpt>
      <trkpt lat="47.55096" lon="6.91313">
        <ele>331.4</ele>
        <time>2019-08-16T12:59:51Z</time>
      </trkpt>
      <trkpt lat="47.55093" lon="6.91307">
        <ele>331.5</ele>
        <time>2019-08-16T12:59:52Z</time>
      </trkpt>
      <trkpt lat="47.55091" lon="6.91301">
        <ele>331.5</ele>
        <time>2019-08-16T12:59:53Z</time>
      </trkpt>
      <trkpt lat="47.55088" lon="6.91294">
        <ele>331.5</ele>
        <time>2019-08-16T12:59:54Z</time>
      </trkpt>
      <trkpt lat="47.55086" lon="6.91288">
        <ele>331.6</ele>
        <time>2019-08-16T12:59:55Z</time>
      </trkpt>
      <trkpt lat="47.55082" lon="6.91283">
        <ele>331.6</ele>
        <time>2019-08-16T12:59:56Z</time>
      </trkpt>
      <trkpt lat="47.55079" lon="6.91277">
        <ele>331.6</ele>
        <time>2019-08-16T12:59:57Z</time>
      </trkpt>
      <trkpt lat="47.55075" lon="6.91271">
        <ele>331.7</ele>
        <time>2019-08-16T12:59:58Z</time>
      </trkpt>
      <trkpt lat="47.55072" lon="6.91265">
        <ele>331.7</ele>
        <time>2019-08-16T12:59:59Z</time>
      </trkpt>
      <trkpt lat="47.55069" lon="6.91259">
        <ele>331.7</ele>
        <time>2019-08-16T13:00:00Z</time>
      </trkpt>
      <trkpt lat="47.55066" lon="6.91254">
        <ele>331.8</ele>
        <time>2019-08-16T13:00:01Z</time>
      </trkpt>
      <trkpt lat="47.55064" lon="6.91249">
        <ele>331.8</ele>
        <time>2019-08-16T13:00:02Z</time>
      </trkpt>
      <trkpt lat="47.55062" lon="6.91244">
        <ele>331.8</ele>
        <time>2019-08-16T13:00:03Z</time>
      </trkpt>
      <trkpt lat="47.55058" lon="6.91239">
        <ele>331.9</ele>
        <time>2019-08-16T13:00:04Z</time>
      </trkpt>
      <trkpt lat="47.55056" lon="6.91234">
        <ele>331.9</ele>
        <time>2019-08-16T13:00:05Z</time>
      </trkpt>
      <trkpt lat="47.55052" lon="6.91228">
        <ele>331.9</ele>
        <time>2019-08-16T13:00:06Z</time>
      </trkpt>
      <trkpt lat="47.5505" lon="6.91221">
        <ele>332</ele>
        <time>2019-08-16T13:00:07Z</time>
      </trkpt>
      <trkpt lat="47.55047" lon="6.91215">
        <ele>332</ele>
        <time>2019-08-16T13:00:08Z</time>
      </trkpt>
      <trkpt lat="47.55044" lon="6.9121">
        <ele>332</ele>
        <time>2019-08-16T13:00:09Z</time>
      </trkpt>
      <trkpt lat="47.55041" lon="6.91204">
        <ele>332.1</ele>
        <time>2019-08-16T13:00:10Z</time>
      </trkpt>
      <trkpt lat="47.55037" lon="6.91199">
        <ele>332.1</ele>
        <time>2019-08-16T13:00:11Z</time>
      </trkpt>
      <trkpt lat="47.55034" lon="6.91193">
        <ele>332.1</ele>
        <time>2019-08-16T13:00:12Z</time>
      </trkpt>
      <trkpt lat="47.55031" lon="6.91188">
        <ele>332.2</ele>
        <time>2019-08-16T13:00:13Z</time>
      </trkpt>
      <trkpt lat="47.55027" lon="6.91183">
        <ele>332.2</ele>
        <time>2019-08-16T13:00:14Z</time>
      </trkpt>
      <trkpt lat="47.55024" lon="6.91177">
        <ele>332.2</ele>
        <time>2019-08-16T13:00:15Z</time>
      </trkpt>
      <trkpt lat="47.55021" lon="6.91171">
        <ele>332.2</ele>
        <time>2019-08-16T13:00:16Z</time>
      </trkpt>
      <trkpt lat="47.55018" lon="6.91165">
        <ele>332.3</ele>
        <time>2019-08-16T13:00:17Z</time>
      </trkpt>
      <trkpt lat="47.55015" lon="6.9116">
        <ele>332.3</ele>
        <time>2019-08-16T13:00:18Z</time>
      </trkpt>
      <trkpt lat="47.55011" lon="6.91154">
        <ele>332.3</ele>
        <time>2019-08-16T13:00:19Z</time>
      </trkpt>
      <trkpt lat="47.55007" lon="6.91148">
        <ele>332.4</ele>
        <time>2019-08-16T13:00:20Z</time>
      </trkpt>
      <trkpt lat="47.55004" lon="6.91142">
        <ele>332.4</ele>
        <time>2019-08-16T13:00:21Z</time>
      </trkpt>
      <trkpt lat="47.55" lon="6.91136">
        <ele>332.4</ele>
        <time>2019-08-16T13:00:22Z</time>
      </trkpt>
      <trkpt lat="47.54997" lon="6.9113">
        <ele>332.4</ele>
        <time>2019-08-16T13:00:23Z</time>
      </trkpt>
      <trkpt lat="47.54994" lon="6.91124">
        <ele>332.5</ele>
        <time>2019-08-16T13:00:24Z</time>
      </trkpt>
      <trkpt lat="47.54991" lon="6.91118">
        <ele>332.5</ele>
        <time>2019-08-16T13:00:25Z</time>
      </trkpt>
      <trkpt lat="47.54988" lon="6.91113">
        <ele>332.5</ele>
        <time>2019-08-16T13:00:26Z</time>
      </trkpt>
      <trkpt lat="47.54985" lon="6.91107">
        <ele>332.6</ele>
        <time>2019-08-16T13:00:27Z</time>
      </trkpt>
      <trkpt lat="47.54982" lon="6.91101">
        <ele>332.6</ele>
        <time>2019-08-16T13:00:28Z</time>
      </trkpt>
      <trkpt lat="47.54979" lon="6.91096">
        <ele>332.6</ele>
        <time>2019-08-16T13:00:29Z</time>
      </trkpt>
      <trkpt lat="47.54976" lon="6.9109">
        <ele>332.6</ele>
        <time>2019-08-16T13:00:30Z</time>
      </trkpt>
      <trkpt lat="47.54973" lon="6.91084">
        <ele>332.7</ele>
        <time>2019-08-16T13:00:31Z</time>
      </trkpt>
      <trkpt lat="47.5497" lon="6.91078">
        <ele>332.7</ele>
        <time>2019-08-16T13:00:32Z</time>
      </trkpt>
      <trkpt lat="47.54967" lon="6.91072">
        <ele>332.7</ele>
        <time>2019-08-16T13:00:33Z</time>
      </trkpt>
      <trkpt lat="47.54964" lon="6.91067">
        <ele>332.8</ele>
        <time>2019-08-16T13:00:34Z</time>
      </trkpt>
      <trkpt lat="47.54961" lon="6.91062">
        <ele>332.8</ele>
        <time>2019-08-16T13:00:35Z</time>
      </trkpt>
      <trkpt lat="47.54958" lon="6.91057">
        <ele>332.9</ele>
        <time>2019-08-16T13:00:36Z</time>
      </trkpt>
      <trkpt lat="47.54955" lon="6.91051">
        <ele>332.9</ele>
        <time>2019-08-16T13:00:37Z</time>
      </trkpt>
      <trkpt lat="47.54952" lon="6.91045">
        <ele>332.9</ele>
        <time>2019-08-16T13:00:38Z</time>
      </trkpt>
      <trkpt lat="47.54949" lon="6.9104">
        <ele>332.9</ele>
        <time>2019-08-16T13:00:39Z</time>
      </trkpt>
      <trkpt lat="47.54946" lon="6.91034">
        <ele>333</ele>
        <time>2019-08-16T13:00:40Z</time>
      </trkpt>
      <trkpt lat="47.54943" lon="6.91028">
        <ele>333</ele>
        <time>2019-08-16T13:00:41Z</time>
      </trkpt>
      <trkpt lat="47.54939" lon="6.91022">
        <ele>333</ele>
        <time>2019-08-16T13:00:42Z</time>
      </trkpt>
      <trkpt lat="47.54936" lon="6.91015">
        <ele>333.1</ele>
        <time>2019-08-16T13:00:43Z</time>
      </trkpt>
      <trkpt lat="47.54932" lon="6.91008">
        <ele>333.1</ele>
        <time>2019-08-16T13:00:44Z</time>
      </trkpt>
      <trkpt lat="47.54929" lon="6.91002">
        <ele>333.2</ele>
        <time>2019-08-16T13:00:45Z</time>
      </trkpt>
      <trkpt lat="47.54926" lon="6.90996">
        <ele>333.2</ele>
        <time>2019-08-16T13:00:46Z</time>
      </trkpt>
      <trkpt lat="47.54924" lon="6.9099">
        <ele>333.2</ele>
        <time>2019-08-16T13:00:47Z</time>
      </trkpt>
      <trkpt lat="47.54921" lon="6.90985">
        <ele>333.3</ele>
        <time>2019-08-16T13:00:48Z</time>
      </trkpt>
      <trkpt lat="47.54919" lon="6.90979">
        <ele>333.3</ele>
        <time>2019-08-16T13:00:49Z</time>
      </trkpt>
      <trkpt lat="47.54916" lon="6.90972">
        <ele>333.4</ele>
        <time>2019-08-16T13:00:50Z</time>
      </trkpt>
      <trkpt lat="47.54913" lon="6.90966">
        <ele>333.4</ele>
        <time>2019-08-16T13:00:51Z</time>
      </trkpt>
      <trkpt lat="47.5491" lon="6.90961">
        <ele>333.4</ele>
        <time>2019-08-16T13:00:52Z</time>
      </trkpt>
      <trkpt lat="47.54907" lon="6.90955">
        <ele>333.4</ele>
        <time>2019-08-16T13:00:53Z</time>
      </trkpt>
      <trkpt lat="47.54904" lon="6.9095">
        <ele>333.5</ele>
        <time>2019-08-16T13:00:54Z</time>
      </trkpt>
      <trkpt lat="47.549" lon="6.90944">
        <ele>333.5</ele>
        <time>2019-08-16T13:00:55Z</time>
      </trkpt>
      <trkpt lat="47.54897" lon="6.90939">
        <ele>333.6</ele>
        <time>2019-08-16T13:00:56Z</time>
      </trkpt>
      <trkpt lat="47.54893" lon="6.90934">
        <ele>333.6</ele>
        <time>2019-08-16T13:00:57Z</time>
      </trkpt>
      <trkpt lat="47.5489" lon="6.90928">
        <ele>333.6</ele>
        <time>2019-08-16T13:00:58Z</time>
      </trkpt>
      <trkpt lat="47.54887" lon="6.90923">
        <ele>333.7</ele>
        <time>2019-08-16T13:00:59Z</time>
      </trkpt>
      <trkpt lat="47.54883" lon="6.90917">
        <ele>333.7</ele>
        <time>2019-08-16T13:01:00Z</time>
      </trkpt>
      <trkpt lat="47.5488" lon="6.90912">
        <ele>333.7</ele>
        <time>2019-08-16T13:01:01Z</time>
      </trkpt>
      <trkpt lat="47.54877" lon="6.90907">
        <ele>333.8</ele>
        <time>2019-08-16T13:01:02Z</time>
      </trkpt>
      <trkpt lat="47.54874" lon="6.90901">
        <ele>333.8</ele>
        <time>2019-08-16T13:01:03Z</time>
      </trkpt>
      <trkpt lat="47.54871" lon="6.90894">
        <ele>333.8</ele>
        <time>2019-08-16T13:01:04Z</time>
      </trkpt>
      <trkpt lat="47.54868" lon="6.90888">
        <ele>333.9</ele>
        <time>2019-08-16T13:01:05Z</time>
      </trkpt>
      <trkpt lat="47.54865" lon="6.90882">
        <ele>333.9</ele>
        <time>2019-08-16T13:01:06Z</time>
      </trkpt>
      <trkpt lat="47.54861" lon="6.90875">
        <ele>334</ele>
        <time>2019-08-16T13:01:07Z</time>
      </trkpt>
      <trkpt lat="47.54858" lon="6.90869">
        <ele>334</ele>
        <time>2019-08-16T13:01:08Z</time>
      </trkpt>
      <trkpt lat="47.54856" lon="6.90864">
        <ele>334</ele>
        <time>2019-08-16T13:01:09Z</time>
      </trkpt>
      <trkpt lat="47.54852" lon="6.90858">
        <ele>334.1</ele>
        <time>2019-08-16T13:01:10Z</time>
      </trkpt>
      <trkpt lat="47.54849" lon="6.90853">
        <ele>334.1</ele>
        <time>2019-08-16T13:01:11Z</time>
      </trkpt>
      <trkpt lat="47.54845" lon="6.90848">
        <ele>334.2</ele>
        <time>2019-08-16T13:01:12Z</time>
      </trkpt>
      <trkpt lat="47.54842" lon="6.90842">
        <ele>334.2</ele>
        <time>2019-08-16T13:01:13Z</time>
      </trkpt>
      <trkpt lat="47.5484" lon="6.90837">
        <ele>334.2</ele>
        <time>2019-08-16T13:01:14Z</time>
      </trkpt>
      <trkpt lat="47.54837" lon="6.90832">
        <ele>334.3</ele>
        <time>2019-08-16T13:01:15Z</time>
      </trkpt>
      <trkpt lat="47.54834" lon="6.90827">
        <ele>334.3</ele>
        <time>2019-08-16T13:01:16Z</time>
      </trkpt>
      <trkpt lat="47.54832" lon="6.90821">
        <ele>334.3</ele>
        <time>2019-08-16T13:01:17Z</time>
      </trkpt>
      <trkpt lat="47.54829" lon="6.90815">
        <ele>334.4</ele>
        <time>2019-08-16T13:01:18Z</time>
      </trkpt>
      <trkpt lat="47.54826" lon="6.9081">
        <ele>334.4</ele>
        <time>2019-08-16T13:01:19Z</time>
      </trkpt>
      <trkpt lat="47.54822" lon="6.90805">
        <ele>334.5</ele>
        <time>2019-08-16T13:01:20Z</time>
      </trkpt>
      <trkpt lat="47.54819" lon="6.908">
        <ele>334.5</ele>
        <time>2019-08-16T13:01:21Z</time>
      </trkpt>
      <trkpt lat="47.54816" lon="6.90794">
        <ele>334.6</ele>
        <time>2019-08-16T13:01:22Z</time>
      </trkpt>
      <trkpt lat="47.54813" lon="6.90789">
        <ele>334.6</ele>
        <time>2019-08-16T13:01:23Z</time>
      </trkpt>
      <trkpt lat="47.5481" lon="6.90783">
        <ele>334.7</ele>
        <time>2019-08-16T13:01:24Z</time>
      </trkpt>
      <trkpt lat="47.54807" lon="6.90777">
        <ele>334.7</ele>
        <time>2019-08-16T13:01:25Z</time>
      </trkpt>
      <trkpt lat="47.54804" lon="6.90771">
        <ele>334.8</ele>
        <time>2019-08-16T13:01:26Z</time>
      </trkpt>
      <trkpt lat="47.54801" lon="6.90767">
        <ele>334.8</ele>
        <time>2019-08-16T13:01:27Z</time>
      </trkpt>
      <trkpt lat="47.54797" lon="6.9076">
        <ele>334.9</ele>
        <time>2019-08-16T13:01:28Z</time>
      </trkpt>
      <trkpt lat="47.54794" lon="6.90755">
        <ele>334.9</ele>
        <time>2019-08-16T13:01:29Z</time>
      </trkpt>
      <trkpt lat="47.54791" lon="6.9075">
        <ele>335</ele>
        <time>2019-08-16T13:01:30Z</time>
      </trkpt>
      <trkpt lat="47.54787" lon="6.90745">
        <ele>335.1</ele>
        <time>2019-08-16T13:01:31Z</time>
      </trkpt>
      <trkpt lat="47.54783" lon="6.90739">
        <ele>335.1</ele>
        <time>2019-08-16T13:01:32Z</time>
      </trkpt>
      <trkpt lat="47.5478" lon="6.90732">
        <ele>335.2</ele>
        <time>2019-08-16T13:01:33Z</time>
      </trkpt>
      <trkpt lat="47.54776" lon="6.90727">
        <ele>335.3</ele>
        <time>2019-08-16T13:01:34Z</time>
      </trkpt>
      <trkpt lat="47.54774" lon="6.90722">
        <ele>335.3</ele>
        <time>2019-08-16T13:01:35Z</time>
      </trkpt>
      <trkpt lat="47.54771" lon="6.90716">
        <ele>335.4</ele>
        <time>2019-08-16T13:01:36Z</time>
      </trkpt>
      <trkpt lat="47.54769" lon="6.9071">
        <ele>335.5</ele>
        <time>2019-08-16T13:01:37Z</time>
      </trkpt>
      <trkpt lat="47.54766" lon="6.90704">
        <ele>335.5</ele>
        <time>2019-08-16T13:01:38Z</time>
      </trkpt>
      <trkpt lat="47.54763" lon="6.90698">
        <ele>335.6</ele>
        <time>2019-08-16T13:01:39Z</time>
      </trkpt>
      <trkpt lat="47.5476" lon="6.90692">
        <ele>335.7</ele>
        <time>2019-08-16T13:01:40Z</time>
      </trkpt>
      <trkpt lat="47.54757" lon="6.90685">
        <ele>335.8</ele>
        <time>2019-08-16T13:01:41Z</time>
      </trkpt>
      <trkpt lat="47.54754" lon="6.90679">
        <ele>335.9</ele>
        <time>2019-08-16T13:01:42Z</time>
      </trkpt>
      <trkpt lat="47.54752" lon="6.90672">
        <ele>335.9</ele>
        <time>2019-08-16T13:01:43Z</time>
      </trkpt>
      <trkpt lat="47.54749" lon="6.90665">
        <ele>336.1</ele>
        <time>2019-08-16T13:01:44Z</time>
      </trkpt>
      <trkpt lat="47.54746" lon="6.90659">
        <ele>336.2</ele>
        <time>2019-08-16T13:01:45Z</time>
      </trkpt>
      <trkpt lat="47.54743" lon="6.90654">
        <ele>336.3</ele>
        <time>2019-08-16T13:01:46Z</time>
      </trkpt>
      <trkpt lat="47.5474" lon="6.90649">
        <ele>336.4</ele>
        <time>2019-08-16T13:01:47Z</time>
      </trkpt>
      <trkpt lat="47.54737" lon="6.90644">
        <ele>336.5</ele>
        <time>2019-08-16T13:01:48Z</time>
      </trkpt>
      <trkpt lat="47.54733" lon="6.90641">
        <ele>336.6</ele>
        <time>2019-08-16T13:01:49Z</time>
      </trkpt>
      <trkpt lat="47.54728" lon="6.90639">
        <ele>336.8</ele>
        <time>2019-08-16T13:01:50Z</time>
      </trkpt>
      <trkpt lat="47.54723" lon="6.90636">
        <ele>336.9</ele>
        <time>2019-08-16T13:01:51Z</time>
      </trkpt>
      <trkpt lat="47.54718" lon="6.90634">
        <ele>337</ele>
        <time>2019-08-16T13:01:52Z</time>
      </trkpt>
      <trkpt lat="47.54714" lon="6.90632">
        <ele>337.2</ele>
        <time>2019-08-16T13:01:53Z</time>
      </trkpt>
      <trkpt lat="47.54709" lon="6.90629">
        <ele>337.3</ele>
        <time>2019-08-16T13:01:54Z</time>
      </trkpt>
      <trkpt lat="47.54705" lon="6.90625">
        <ele>337.4</ele>
        <time>2019-08-16T13:01:55Z</time>
      </trkpt>
      <trkpt lat="47.547" lon="6.90621">
        <ele>338.6</ele>
        <time>2019-08-16T13:01:56Z</time>
      </trkpt>
      <trkpt lat="47.54696" lon="6.90616">
        <ele>339.3</ele>
        <time>2019-08-16T13:01:57Z</time>
      </trkpt>
      <trkpt lat="47.54694" lon="6.9061">
        <ele>339.9</ele>
        <time>2019-08-16T13:01:58Z</time>
      </trkpt>
      <trkpt lat="47.54693" lon="6.90604">
        <ele>340.5</ele>
        <time>2019-08-16T13:01:59Z</time>
      </trkpt>
      <trkpt lat="47.54692" lon="6.90598">
        <ele>341.1</ele>
        <time>2019-08-16T13:02:00Z</time>
      </trkpt>
      <trkpt lat="47.5469" lon="6.90592">
        <ele>341.7</ele>
        <time>2019-08-16T13:02:01Z</time>
      </trkpt>
      <trkpt lat="47.54687" lon="6.90587">
        <ele>342.2</ele>
        <time>2019-08-16T13:02:02Z</time>
      </trkpt>
      <trkpt lat="47.54685" lon="6.90582">
        <ele>342.8</ele>
        <time>2019-08-16T13:02:03Z</time>
      </trkpt>
      <trkpt lat="47.54683" lon="6.90578">
        <ele>343.2</ele>
        <time>2019-08-16T13:02:04Z</time>
      </trkpt>
      <trkpt lat="47.5468" lon="6.90574">
        <ele>343.8</ele>
        <time>2019-08-16T13:02:06Z</time>
      </trkpt>
      <trkpt lat="47.54677" lon="6.90572">
        <ele>344.8</ele>
        <time>2019-08-16T13:02:08Z</time>
      </trkpt>
      <trkpt lat="47.54672" lon="6.90571">
        <ele>344.8</ele>
        <time>2019-08-16T13:02:10Z</time>
      </trkpt>
      <trkpt lat="47.54667" lon="6.90569">
        <ele>344.8</ele>
        <time>2019-08-16T13:02:12Z</time>
      </trkpt>
      <trkpt lat="47.54664" lon="6.90568">
        <ele>344.8</ele>
        <time>2019-08-16T13:02:13Z</time>
      </trkpt>
      <trkpt lat="47.54659" lon="6.90569">
        <ele>344.7</ele>
        <time>2019-08-16T13:02:15Z</time>
      </trkpt>
      <trkpt lat="47.54656" lon="6.9057">
        <ele>344.7</ele>
        <time>2019-08-16T13:02:16Z</time>
      </trkpt>
      <trkpt lat="47.54652" lon="6.90572">
        <ele>344.7</ele>
        <time>2019-08-16T13:02:17Z</time>
      </trkpt>
      <trkpt lat="47.54647" lon="6.90574">
        <ele>344.7</ele>
        <time>2019-08-16T13:02:18Z</time>
      </trkpt>
      <trkpt lat="47.54643" lon="6.90577">
        <ele>344.7</ele>
        <time>2019-08-16T13:02:19Z</time>
      </trkpt>
      <trkpt lat="47.54638" lon="6.9058">
        <ele>344.7</ele>
        <time>2019-08-16T13:02:20Z</time>
      </trkpt>
      <trkpt lat="47.54633" lon="6.90583">
        <ele>344.7</ele>
        <time>2019-08-16T13:02:21Z</time>
      </trkpt>
      <trkpt lat="47.54628" lon="6.90587">
        <ele>344.6</ele>
        <time>2019-08-16T13:02:22Z</time>
      </trkpt>
      <trkpt lat="47.54624" lon="6.90592">
        <ele>344.6</ele>
        <time>2019-08-16T13:02:23Z</time>
      </trkpt>
      <trkpt lat="47.54619" lon="6.90595">
        <ele>344.6</ele>
        <time>2019-08-16T13:02:24Z</time>
      </trkpt>
      <trkpt lat="47.54615" lon="6.90597">
        <ele>344.6</ele>
        <time>2019-08-16T13:02:25Z</time>
      </trkpt>
      <trkpt lat="47.54611" lon="6.906">
        <ele>344.6</ele>
        <time>2019-08-16T13:02:26Z</time>
      </trkpt>
      <trkpt lat="47.54607" lon="6.90601">
        <ele>344.6</ele>
        <time>2019-08-16T13:02:27Z</time>
      </trkpt>
      <trkpt lat="47.54603" lon="6.90601">
        <ele>344.5</ele>
        <time>2019-08-16T13:02:28Z</time>
      </trkpt>
      <trkpt lat="47.54598" lon="6.90602">
        <ele>344.5</ele>
        <time>2019-08-16T13:02:29Z</time>
      </trkpt>
      <trkpt lat="47.54593" lon="6.90604">
        <ele>344.5</ele>
        <time>2019-08-16T13:02:30Z</time>
      </trkpt>
      <trkpt lat="47.54588" lon="6.90606">
        <ele>344.5</ele>
        <time>2019-08-16T13:02:31Z</time>
      </trkpt>
      <trkpt lat="47.54583" lon="6.90609">
        <ele>344.5</ele>
        <time>2019-08-16T13:02:32Z</time>
      </trkpt>
      <trkpt lat="47.54578" lon="6.90612">
        <ele>344.5</ele>
        <time>2019-08-16T13:02:33Z</time>
      </trkpt>
      <trkpt lat="47.54573" lon="6.90616">
        <ele>344.5</ele>
        <time>2019-08-16T13:02:34Z</time>
      </trkpt>
      <trkpt lat="47.54569" lon="6.90619">
        <ele>344.4</ele>
        <time>2019-08-16T13:02:35Z</time>
      </trkpt>
      <trkpt lat="47.54564" lon="6.90622">
        <ele>344.4</ele>
        <time>2019-08-16T13:02:36Z</time>
      </trkpt>
      <trkpt lat="47.54559" lon="6.90624">
        <ele>344.4</ele>
        <time>2019-08-16T13:02:37Z</time>
      </trkpt>
      <trkpt lat="47.54553" lon="6.90626">
        <ele>344.4</ele>
        <time>2019-08-16T13:02:38Z</time>
      </trkpt>
      <trkpt lat="47.54547" lon="6.90629">
        <ele>344.5</ele>
        <time>2019-08-16T13:02:39Z</time>
      </trkpt>
      <trkpt lat="47.54541" lon="6.90632">
        <ele>344.6</ele>
        <time>2019-08-16T13:02:40Z</time>
      </trkpt>
      <trkpt lat="47.54535" lon="6.90634">
        <ele>344.8</ele>
        <time>2019-08-16T13:02:41Z</time>
      </trkpt>
      <trkpt lat="47.54529" lon="6.90636">
        <ele>345</ele>
        <time>2019-08-16T13:02:42Z</time>
      </trkpt>
      <trkpt lat="47.54524" lon="6.9064">
        <ele>345.2</ele>
        <time>2019-08-16T13:02:43Z</time>
      </trkpt>
      <trkpt lat="47.54518" lon="6.90642">
        <ele>345.4</ele>
        <time>2019-08-16T13:02:44Z</time>
      </trkpt>
      <trkpt lat="47.54513" lon="6.90644">
        <ele>345.6</ele>
        <time>2019-08-16T13:02:45Z</time>
      </trkpt>
      <trkpt lat="47.54508" lon="6.90647">
        <ele>345.9</ele>
        <time>2019-08-16T13:02:46Z</time>
      </trkpt>
      <trkpt lat="47.54503" lon="6.9065">
        <ele>346.2</ele>
        <time>2019-08-16T13:02:47Z</time>
      </trkpt>
      <trkpt lat="47.54498" lon="6.90653">
        <ele>346.4</ele>
        <time>2019-08-16T13:02:48Z</time>
      </trkpt>
      <trkpt lat="47.54492" lon="6.90657">
        <ele>346.7</ele>
        <time>2019-08-16T13:02:49Z</time>
      </trkpt>
      <trkpt lat="47.54485" lon="6.90662">
        <ele>347</ele>
        <time>2019-08-16T13:02:50Z</time>
      </trkpt>
      <trkpt lat="47.54479" lon="6.90665">
        <ele>347.4</ele>
        <time>2019-08-16T13:02:51Z</time>
      </trkpt>
      <trkpt lat="47.54473" lon="6.90666">
        <ele>347.7</ele>
        <time>2019-08-16T13:02:52Z</time>
      </trkpt>
      <trkpt lat="47.54468" lon="6.90667">
        <ele>348.1</ele>
        <time>2019-08-16T13:02:53Z</time>
      </trkpt>
      <trkpt lat="47.54462" lon="6.90667">
        <ele>348.5</ele>
        <time>2019-08-16T13:02:54Z</time>
      </trkpt>
      <trkpt lat="47.54457" lon="6.90667">
        <ele>348.8</ele>
        <time>2019-08-16T13:02:55Z</time>
      </trkpt>
      <trkpt lat="47.54452" lon="6.90667">
        <ele>349.2</ele>
        <time>2019-08-16T13:02:56Z</time>
      </trkpt>
      <trkpt lat="47.54447" lon="6.90666">
        <ele>349.5</ele>
        <time>2019-08-16T13:02:57Z</time>
      </trkpt>
      <trkpt lat="47.54442" lon="6.90666">
        <ele>349.8</ele>
        <time>2019-08-16T13:02:58Z</time>
      </trkpt>
      <trkpt lat="47.54436" lon="6.90663">
        <ele>350.3</ele>
        <time>2019-08-16T13:02:59Z</time>
      </trkpt>
      <trkpt lat="47.5443" lon="6.90661">
        <ele>350.8</ele>
        <time>2019-08-16T13:03:00Z</time>
      </trkpt>
      <trkpt lat="47.54425" lon="6.90659">
        <ele>351.3</ele>
        <time>2019-08-16T13:03:01Z</time>
      </trkpt>
      <trkpt lat="47.5442" lon="6.90657">
        <ele>351.7</ele>
        <time>2019-08-16T13:03:02Z</time>
      </trkpt>
      <trkpt lat="47.54415" lon="6.90655">
        <ele>352.1</ele>
        <time>2019-08-16T13:03:03Z</time>
      </trkpt>
      <trkpt lat="47.54411" lon="6.90654">
        <ele>352.5</ele>
        <time>2019-08-16T13:03:04Z</time>
      </trkpt>
      <trkpt lat="47.54407" lon="6.90654">
        <ele>352.8</ele>
        <time>2019-08-16T13:03:05Z</time>
      </trkpt>
      <trkpt lat="47.54403" lon="6.90653">
        <ele>353.1</ele>
        <time>2019-08-16T13:03:06Z</time>
      </trkpt>
      <trkpt lat="47.54399" lon="6.90652">
        <ele>353.3</ele>
        <time>2019-08-16T13:03:07Z</time>
      </trkpt>
      <trkpt lat="47.54395" lon="6.9065">
        <ele>353.6</ele>
        <time>2019-08-16T13:03:08Z</time>
      </trkpt>
      <trkpt lat="47.5439" lon="6.90649">
        <ele>353.8</ele>
        <time>2019-08-16T13:03:09Z</time>
      </trkpt>
      <trkpt lat="47.54385" lon="6.90648">
        <ele>354</ele>
        <time>2019-08-16T13:03:10Z</time>
      </trkpt>
      <trkpt lat="47.54379" lon="6.90648">
        <ele>354.2</ele>
        <time>2019-08-16T13:03:11Z</time>
      </trkpt>
      <trkpt lat="47.54374" lon="6.90649">
        <ele>354.4</ele>
        <time>2019-08-16T13:03:12Z</time>
      </trkpt>
      <trkpt lat="47.54368" lon="6.9065">
        <ele>354.3</ele>
        <time>2019-08-16T13:03:13Z</time>
      </trkpt>
      <trkpt lat="47.54362" lon="6.9065">
        <ele>354.2</ele>
        <time>2019-08-16T13:03:14Z</time>
      </trkpt>
      <trkpt lat="47.54357" lon="6.9065">
        <ele>354</ele>
        <time>2019-08-16T13:03:15Z</time>
      </trkpt>
      <trkpt lat="47.54352" lon="6.90651">
        <ele>353.9</ele>
        <time>2019-08-16T13:03:16Z</time>
      </trkpt>
      <trkpt lat="47.54347" lon="6.90651">
        <ele>353.6</ele>
        <time>2019-08-16T13:03:17Z</time>
      </trkpt>
      <trkpt lat="47.54341" lon="6.90652">
        <ele>353.3</ele>
        <time>2019-08-16T13:03:18Z</time>
      </trkpt>
      <trkpt lat="47.54336" lon="6.90652">
        <ele>352.8</ele>
        <time>2019-08-16T13:03:19Z</time>
      </trkpt>
      <trkpt lat="47.54333" lon="6.90652">
        <ele>352.5</ele>
        <time>2019-08-16T13:03:20Z</time>
      </trkpt>
      <trkpt lat="47.54329" lon="6.90652">
        <ele>352</ele>
        <time>2019-08-16T13:03:21Z</time>
      </trkpt>
      <trkpt lat="47.54324" lon="6.90653">
        <ele>351.5</ele>
        <time>2019-08-16T13:03:22Z</time>
      </trkpt>
      <trkpt lat="47.54319" lon="6.90655">
        <ele>351</ele>
        <time>2019-08-16T13:03:23Z</time>
      </trkpt>
      <trkpt lat="47.54314" lon="6.90657">
        <ele>350.4</ele>
        <time>2019-08-16T13:03:24Z</time>
      </trkpt>
      <trkpt lat="47.54308" lon="6.90659">
        <ele>349.7</ele>
        <time>2019-08-16T13:03:25Z</time>
      </trkpt>
      <trkpt lat="47.54302" lon="6.90662">
        <ele>348.9</ele>
        <time>2019-08-16T13:03:26Z</time>
      </trkpt>
      <trkpt lat="47.54295" lon="6.90666">
        <ele>348.1</ele>
        <time>2019-08-16T13:03:27Z</time>
      </trkpt>
      <trkpt lat="47.54289" lon="6.90669">
        <ele>347.4</ele>
        <time>2019-08-16T13:03:28Z</time>
      </trkpt>
      <trkpt lat="47.54283" lon="6.90672">
        <ele>346.7</ele>
        <time>2019-08-16T13:03:29Z</time>
      </trkpt>
      <trkpt lat="47.54278" lon="6.90674">
        <ele>346.2</ele>
        <time>2019-08-16T13:03:30Z</time>
      </trkpt>
      <trkpt lat="47.54273" lon="6.90676">
        <ele>345.7</ele>
        <time>2019-08-16T13:03:31Z</time>
      </trkpt>
      <trkpt lat="47.54267" lon="6.90678">
        <ele>345.2</ele>
        <time>2019-08-16T13:03:32Z</time>
      </trkpt>
      <trkpt lat="47.54262" lon="6.9068">
        <ele>344.7</ele>
        <time>2019-08-16T13:03:33Z</time>
      </trkpt>
      <trkpt lat="47.54256" lon="6.9068">
        <ele>344.1</ele>
        <time>2019-08-16T13:03:34Z</time>
      </trkpt>
      <trkpt lat="47.5425" lon="6.90681">
        <ele>343.5</ele>
        <time>2019-08-16T13:03:35Z</time>
      </trkpt>
      <trkpt lat="47.54244" lon="6.90682">
        <ele>343.1</ele>
        <time>2019-08-16T13:03:36Z</time>
      </trkpt>
      <trkpt lat="47.5424" lon="6.90684">
        <ele>342.8</ele>
        <time>2019-08-16T13:03:37Z</time>
      </trkpt>
      <trkpt lat="47.54235" lon="6.90686">
        <ele>342.6</ele>
        <time>2019-08-16T13:03:38Z</time>
      </trkpt>
      <trkpt lat="47.54231" lon="6.90688">
        <ele>342.2</ele>
        <time>2019-08-16T13:03:39Z</time>
      </trkpt>
      <trkpt lat="47.54227" lon="6.90689">
        <ele>342</ele>
        <time>2019-08-16T13:03:40Z</time>
      </trkpt>
      <trkpt lat="47.54223" lon="6.90691">
        <ele>341.8</ele>
        <time>2019-08-16T13:03:41Z</time>
      </trkpt>
      <trkpt lat="47.54218" lon="6.90692">
        <ele>341.5</ele>
        <time>2019-08-16T13:03:42Z</time>
      </trkpt>
      <trkpt lat="47.54212" lon="6.90693">
        <ele>341.1</ele>
        <time>2019-08-16T13:03:43Z</time>
      </trkpt>
      <trkpt lat="47.54206" lon="6.90694">
        <ele>340.7</ele>
        <time>2019-08-16T13:03:44Z</time>
      </trkpt>
      <trkpt lat="47.542" lon="6.90696">
        <ele>340.2</ele>
        <time>2019-08-16T13:03:45Z</time>
      </trkpt>
      <trkpt lat="47.54194" lon="6.90698">
        <ele>339.6</ele>
        <time>2019-08-16T13:03:46Z</time>
      </trkpt>
      <trkpt lat="47.54188" lon="6.907">
        <ele>339.1</ele>
        <time>2019-08-16T13:03:47Z</time>
      </trkpt>
      <trkpt lat="47.54182" lon="6.90702">
        <ele>338.8</ele>
        <time>2019-08-16T13:03:48Z</time>
      </trkpt>
      <trkpt lat="47.54176" lon="6.90703">
        <ele>338.4</ele>
        <time>2019-08-16T13:03:49Z</time>
      </trkpt>
      <trkpt lat="47.5417" lon="6.90704">
        <ele>338</ele>
        <time>2019-08-16T13:03:50Z</time>
      </trkpt>
      <trkpt lat="47.54166" lon="6.90706">
        <ele>337.7</ele>
        <time>2019-08-16T13:03:51Z</time>
      </trkpt>
      <trkpt lat="47.54161" lon="6.90709">
        <ele>337.4</ele>
        <time>2019-08-16T13:03:52Z</time>
      </trkpt>
      <trkpt lat="47.54156" lon="6.90712">
        <ele>337.1</ele>
        <time>2019-08-16T13:03:53Z</time>
      </trkpt>
      <trkpt lat="47.54151" lon="6.90715">
        <ele>336.8</ele>
        <time>2019-08-16T13:03:54Z</time>
      </trkpt>
      <trkpt lat="47.54145" lon="6.90717">
        <ele>336.5</ele>
        <time>2019-08-16T13:03:55Z</time>
      </trkpt>
      <trkpt lat="47.5414" lon="6.9072">
        <ele>336.3</ele>
        <time>2019-08-16T13:03:56Z</time>
      </trkpt>
      <trkpt lat="47.54136" lon="6.90723">
        <ele>336.1</ele>
        <time>2019-08-16T13:03:57Z</time>
      </trkpt>
      <trkpt lat="47.54131" lon="6.90726">
        <ele>335.9</ele>
        <time>2019-08-16T13:03:58Z</time>
      </trkpt>
      <trkpt lat="47.54125" lon="6.90728">
        <ele>335.7</ele>
        <time>2019-08-16T13:03:59Z</time>
      </trkpt>
      <trkpt lat="47.5412" lon="6.9073">
        <ele>335.5</ele>
        <time>2019-08-16T13:04:00Z</time>
      </trkpt>
      <trkpt lat="47.54115" lon="6.90733">
        <ele>335.4</ele>
        <time>2019-08-16T13:04:01Z</time>
      </trkpt>
      <trkpt lat="47.54111" lon="6.90736">
        <ele>335.2</ele>
        <time>2019-08-16T13:04:02Z</time>
      </trkpt>
      <trkpt lat="47.54107" lon="6.90739">
        <ele>335.1</ele>
        <time>2019-08-16T13:04:03Z</time>
      </trkpt>
      <trkpt lat="47.54102" lon="6.90743">
        <ele>335</ele>
        <time>2019-08-16T13:04:04Z</time>
      </trkpt>
      <trkpt lat="47.54097" lon="6.90747">
        <ele>334.9</ele>
        <time>2019-08-16T13:04:05Z</time>
      </trkpt>
      <trkpt lat="47.54094" lon="6.9075">
        <ele>334.9</ele>
        <time>2019-08-16T13:04:06Z</time>
      </trkpt>
      <trkpt lat="47.5409" lon="6.90754">
        <ele>334.8</ele>
        <time>2019-08-16T13:04:07Z</time>
      </trkpt>
      <trkpt lat="47.54087" lon="6.90757">
        <ele>334.8</ele>
        <time>2019-08-16T13:04:08Z</time>
      </trkpt>
      <trkpt lat="47.54084" lon="6.90761">
        <ele>334.8</ele>
        <time>2019-08-16T13:04:09Z</time>
      </trkpt>
      <trkpt lat="47.54081" lon="6.90765">
        <ele>334.7</ele>
        <time>2019-08-16T13:04:10Z</time>
      </trkpt>
      <trkpt lat="47.54077" lon="6.9077">
        <ele>334.7</ele>
        <time>2019-08-16T13:04:11Z</time>
      </trkpt>
      <trkpt lat="47.54073" lon="6.90774">
        <ele>334.6</ele>
        <time>2019-08-16T13:04:12Z</time>
      </trkpt>
      <trkpt lat="47.54069" lon="6.9078">
        <ele>334.6</ele>
        <time>2019-08-16T13:04:13Z</time>
      </trkpt>
      <trkpt lat="47.54065" lon="6.90788">
        <ele>334.4</ele>
        <time>2019-08-16T13:04:14Z</time>
      </trkpt>
      <trkpt lat="47.54061" lon="6.90796">
        <ele>334.3</ele>
        <time>2019-08-16T13:04:15Z</time>
      </trkpt>
      <trkpt lat="47.54058" lon="6.90805">
        <ele>334.1</ele>
        <time>2019-08-16T13:04:16Z</time>
      </trkpt>
      <trkpt lat="47.54054" lon="6.90811">
        <ele>334</ele>
        <time>2019-08-16T13:04:17Z</time>
      </trkpt>
      <trkpt lat="47.5405" lon="6.90818">
        <ele>333.9</ele>
        <time>2019-08-16T13:04:18Z</time>
      </trkpt>
      <trkpt lat="47.54045" lon="6.90824">
        <ele>333.8</ele>
        <time>2019-08-16T13:04:19Z</time>
      </trkpt>
      <trkpt lat="47.54041" lon="6.9083">
        <ele>333.7</ele>
        <time>2019-08-16T13:04:20Z</time>
      </trkpt>
      <trkpt lat="47.54037" lon="6.90837">
        <ele>333.6</ele>
        <time>2019-08-16T13:04:21Z</time>
      </trkpt>
      <trkpt lat="47.54033" lon="6.90845">
        <ele>333.6</ele>
        <time>2019-08-16T13:04:22Z</time>
      </trkpt>
      <trkpt lat="47.54029" lon="6.90853">
        <ele>333.6</ele>
        <time>2019-08-16T13:04:23Z</time>
      </trkpt>
      <trkpt lat="47.54025" lon="6.90859">
        <ele>333.6</ele>
        <time>2019-08-16T13:04:24Z</time>
      </trkpt>
      <trkpt lat="47.54022" lon="6.90865">
        <ele>333.7</ele>
        <time>2019-08-16T13:04:25Z</time>
      </trkpt>
      <trkpt lat="47.54018" lon="6.90872">
        <ele>333.8</ele>
        <time>2019-08-16T13:04:26Z</time>
      </trkpt>
      <trkpt lat="47.54014" lon="6.90878">
        <ele>333.8</ele>
        <time>2019-08-16T13:04:27Z</time>
      </trkpt>
      <trkpt lat="47.5401" lon="6.90889">
        <ele>333.9</ele>
        <time>2019-08-16T13:04:28Z</time>
      </trkpt>
      <trkpt lat="47.54006" lon="6.90897">
        <ele>334</ele>
        <time>2019-08-16T13:04:29Z</time>
      </trkpt>
      <trkpt lat="47.54002" lon="6.90904">
        <ele>334.1</ele>
        <time>2019-08-16T13:04:30Z</time>
      </trkpt>
      <trkpt lat="47.53998" lon="6.90911">
        <ele>334.2</ele>
        <time>2019-08-16T13:04:31Z</time>
      </trkpt>
      <trkpt lat="47.53995" lon="6.90919">
        <ele>334.3</ele>
        <time>2019-08-16T13:04:32Z</time>
      </trkpt>
      <trkpt lat="47.53992" lon="6.90926">
        <ele>334.3</ele>
        <time>2019-08-16T13:04:33Z</time>
      </trkpt>
      <trkpt lat="47.53989" lon="6.90933">
        <ele>334.3</ele>
        <time>2019-08-16T13:04:34Z</time>
      </trkpt>
      <trkpt lat="47.53986" lon="6.90939">
        <ele>334.3</ele>
        <time>2019-08-16T13:04:35Z</time>
      </trkpt>
      <trkpt lat="47.53983" lon="6.90946">
        <ele>334.3</ele>
        <time>2019-08-16T13:04:36Z</time>
      </trkpt>
      <trkpt lat="47.5398" lon="6.90953">
        <ele>334.3</ele>
        <time>2019-08-16T13:04:37Z</time>
      </trkpt>
      <trkpt lat="47.53975" lon="6.90959">
        <ele>334.2</ele>
        <time>2019-08-16T13:04:38Z</time>
      </trkpt>
      <trkpt lat="47.53972" lon="6.90965">
        <ele>334.2</ele>
        <time>2019-08-16T13:04:39Z</time>
      </trkpt>
      <trkpt lat="47.53968" lon="6.90972">
        <ele>334.2</ele>
        <time>2019-08-16T13:04:40Z</time>
      </trkpt>
      <trkpt lat="47.53965" lon="6.90978">
        <ele>334.3</ele>
        <time>2019-08-16T13:04:41Z</time>
      </trkpt>
      <trkpt lat="47.53963" lon="6.90983">
        <ele>334.3</ele>
        <time>2019-08-16T13:04:42Z</time>
      </trkpt>
      <trkpt lat="47.53961" lon="6.9099">
        <ele>334.3</ele>
        <time>2019-08-16T13:04:43Z</time>
      </trkpt>
      <trkpt lat="47.53961" lon="6.90997">
        <ele>334.4</ele>
        <time>2019-08-16T13:04:44Z</time>
      </trkpt>
      <trkpt lat="47.53959" lon="6.91004">
        <ele>334.5</ele>
        <time>2019-08-16T13:04:45Z</time>
      </trkpt>
      <trkpt lat="47.53957" lon="6.91011">
        <ele>334.7</ele>
        <time>2019-08-16T13:04:46Z</time>
      </trkpt>
      <trkpt lat="47.53954" lon="6.91018">
        <ele>334.8</ele>
        <time>2019-08-16T13:04:47Z</time>
      </trkpt>
      <trkpt lat="47.53951" lon="6.91025">
        <ele>334.9</ele>
        <time>2019-08-16T13:04:48Z</time>
      </trkpt>
      <trkpt lat="47.53947" lon="6.91031">
        <ele>334.9</ele>
        <time>2019-08-16T13:04:49Z</time>
      </trkpt>
      <trkpt lat="47.53945" lon="6.91036">
        <ele>335</ele>
        <time>2019-08-16T13:04:50Z</time>
      </trkpt>
      <trkpt lat="47.53942" lon="6.91041">
        <ele>335</ele>
        <time>2019-08-16T13:04:51Z</time>
      </trkpt>
      <trkpt lat="47.53938" lon="6.91045">
        <ele>335</ele>
        <time>2019-08-16T13:04:52Z</time>
      </trkpt>
      <trkpt lat="47.53935" lon="6.91049">
        <ele>335</ele>
        <time>2019-08-16T13:04:53Z</time>
      </trkpt>
      <trkpt lat="47.5393" lon="6.91051">
        <ele>334.9</ele>
        <time>2019-08-16T13:04:54Z</time>
      </trkpt>
      <trkpt lat="47.53926" lon="6.91054">
        <ele>334.9</ele>
        <time>2019-08-16T13:04:55Z</time>
      </trkpt>
      <trkpt lat="47.5392" lon="6.91055">
        <ele>334.9</ele>
        <time>2019-08-16T13:04:56Z</time>
      </trkpt>
      <trkpt lat="47.53915" lon="6.91055">
        <ele>334.8</ele>
        <time>2019-08-16T13:04:57Z</time>
      </trkpt>
      <trkpt lat="47.5391" lon="6.91054">
        <ele>334.8</ele>
        <time>2019-08-16T13:04:58Z</time>
      </trkpt>
      <trkpt lat="47.53905" lon="6.91053">
        <ele>334.7</ele>
        <time>2019-08-16T13:04:59Z</time>
      </trkpt>
      <trkpt lat="47.539" lon="6.91052">
        <ele>334.6</ele>
        <time>2019-08-16T13:05:00Z</time>
      </trkpt>
      <trkpt lat="47.53896" lon="6.91051">
        <ele>334.5</ele>
        <time>2019-08-16T13:05:01Z</time>
      </trkpt>
      <trkpt lat="47.53892" lon="6.9105">
        <ele>334.4</ele>
        <time>2019-08-16T13:05:02Z</time>
      </trkpt>
      <trkpt lat="47.53887" lon="6.91048">
        <ele>334.2</ele>
        <time>2019-08-16T13:05:03Z</time>
      </trkpt>
      <trkpt lat="47.53882" lon="6.91046">
        <ele>334.1</ele>
        <time>2019-08-16T13:05:04Z</time>
      </trkpt>
      <trkpt lat="47.53878" lon="6.91045">
        <ele>334</ele>
        <time>2019-08-16T13:05:05Z</time>
      </trkpt>
      <trkpt lat="47.53873" lon="6.91043">
        <ele>333.9</ele>
        <time>2019-08-16T13:05:06Z</time>
      </trkpt>
      <trkpt lat="47.53868" lon="6.91041">
        <ele>333.9</ele>
        <time>2019-08-16T13:05:07Z</time>
      </trkpt>
      <trkpt lat="47.53864" lon="6.91039">
        <ele>333.8</ele>
        <time>2019-08-16T13:05:08Z</time>
      </trkpt>
      <trkpt lat="47.53859" lon="6.91037">
        <ele>333.8</ele>
        <time>2019-08-16T13:05:09Z</time>
      </trkpt>
      <trkpt lat="47.53855" lon="6.91035">
        <ele>333.7</ele>
        <time>2019-08-16T13:05:10Z</time>
      </trkpt>
      <trkpt lat="47.53849" lon="6.91033">
        <ele>333.7</ele>
        <time>2019-08-16T13:05:11Z</time>
      </trkpt>
      <trkpt lat="47.53844" lon="6.91032">
        <ele>333.7</ele>
        <time>2019-08-16T13:05:12Z</time>
      </trkpt>
      <trkpt lat="47.53839" lon="6.91031">
        <ele>333.7</ele>
        <time>2019-08-16T13:05:13Z</time>
      </trkpt>
      <trkpt lat="47.53834" lon="6.9103">
        <ele>333.7</ele>
        <time>2019-08-16T13:05:14Z</time>
      </trkpt>
      <trkpt lat="47.5383" lon="6.91028">
        <ele>333.6</ele>
        <time>2019-08-16T13:05:15Z</time>
      </trkpt>
      <trkpt lat="47.53825" lon="6.91026">
        <ele>333.6</ele>
        <time>2019-08-16T13:05:16Z</time>
      </trkpt>
      <trkpt lat="47.53821" lon="6.91024">
        <ele>333.6</ele>
        <time>2019-08-16T13:05:17Z</time>
      </trkpt>
      <trkpt lat="47.53815" lon="6.91024">
        <ele>333.6</ele>
        <time>2019-08-16T13:05:18Z</time>
      </trkpt>
      <trkpt lat="47.5381" lon="6.91024">
        <ele>333.6</ele>
        <time>2019-08-16T13:05:19Z</time>
      </trkpt>
      <trkpt lat="47.53805" lon="6.91024">
        <ele>333.6</ele>
        <time>2019-08-16T13:05:20Z</time>
      </trkpt>
      <trkpt lat="47.538" lon="6.91022">
        <ele>333.5</ele>
        <time>2019-08-16T13:05:21Z</time>
      </trkpt>
      <trkpt lat="47.53797" lon="6.9102">
        <ele>333.5</ele>
        <time>2019-08-16T13:05:22Z</time>
      </trkpt>
      <trkpt lat="47.53793" lon="6.91017">
        <ele>333.5</ele>
        <time>2019-08-16T13:05:23Z</time>
      </trkpt>
      <trkpt lat="47.53789" lon="6.91015">
        <ele>333.4</ele>
        <time>2019-08-16T13:05:24Z</time>
      </trkpt>
      <trkpt lat="47.53785" lon="6.91012">
        <ele>333.4</ele>
        <time>2019-08-16T13:05:25Z</time>
      </trkpt>
      <trkpt lat="47.53781" lon="6.9101">
        <ele>333.4</ele>
        <time>2019-08-16T13:05:26Z</time>
      </trkpt>
      <trkpt lat="47.53777" lon="6.91007">
        <ele>333.3</ele>
        <time>2019-08-16T13:05:27Z</time>
      </trkpt>
      <trkpt lat="47.53772" lon="6.91005">
        <ele>333.3</ele>
        <time>2019-08-16T13:05:28Z</time>
      </trkpt>
      <trkpt lat="47.53767" lon="6.91001">
        <ele>333.2</ele>
        <time>2019-08-16T13:05:29Z</time>
      </trkpt>
      <trkpt lat="47.53763" lon="6.90996">
        <ele>333.2</ele>
        <time>2019-08-16T13:05:30Z</time>
      </trkpt>
      <trkpt lat="47.53759" lon="6.90992">
        <ele>333.2</ele>
        <time>2019-08-16T13:05:31Z</time>
      </trkpt>
      <trkpt lat="47.53754" lon="6.90988">
        <ele>333.2</ele>
        <time>2019-08-16T13:05:32Z</time>
      </trkpt>
      <trkpt lat="47.5375" lon="6.90985">
        <ele>333.2</ele>
        <time>2019-08-16T13:05:33Z</time>
      </trkpt>
      <trkpt lat="47.53747" lon="6.90982">
        <ele>333.2</ele>
        <time>2019-08-16T13:05:34Z</time>
      </trkpt>
      <trkpt lat="47.53743" lon="6.90979">
        <ele>333.3</ele>
        <time>2019-08-16T13:05:35Z</time>
      </trkpt>
      <trkpt lat="47.5374" lon="6.90975">
        <ele>333.3</ele>
        <time>2019-08-16T13:05:36Z</time>
      </trkpt>
      <trkpt lat="47.53736" lon="6.90971">
        <ele>333.3</ele>
        <time>2019-08-16T13:05:37Z</time>
      </trkpt>
      <trkpt lat="47.53731" lon="6.90967">
        <ele>333.3</ele>
        <time>2019-08-16T13:05:38Z</time>
      </trkpt>
      <trkpt lat="47.53727" lon="6.90962">
        <ele>333.3</ele>
        <time>2019-08-16T13:05:39Z</time>
      </trkpt>
      <trkpt lat="47.53722" lon="6.90956">
        <ele>333.2</ele>
        <time>2019-08-16T13:05:40Z</time>
      </trkpt>
      <trkpt lat="47.53718" lon="6.90951">
        <ele>333.2</ele>
        <time>2019-08-16T13:05:41Z</time>
      </trkpt>
      <trkpt lat="47.53714" lon="6.90946">
        <ele>333.2</ele>
        <time>2019-08-16T13:05:42Z</time>
      </trkpt>
      <trkpt lat="47.53709" lon="6.90942">
        <ele>333.2</ele>
        <time>2019-08-16T13:05:43Z</time>
      </trkpt>
      <trkpt lat="47.53705" lon="6.90939">
        <ele>333.1</ele>
        <time>2019-08-16T13:05:44Z</time>
      </trkpt>
      <trkpt lat="47.53701" lon="6.90936">
        <ele>333</ele>
        <time>2019-08-16T13:05:45Z</time>
      </trkpt>
      <trkpt lat="47.53697" lon="6.90933">
        <ele>332.9</ele>
        <time>2019-08-16T13:05:46Z</time>
      </trkpt>
      <trkpt lat="47.53693" lon="6.9093">
        <ele>332.8</ele>
        <time>2019-08-16T13:05:47Z</time>
      </trkpt>
      <trkpt lat="47.5369" lon="6.90927">
        <ele>332.7</ele>
        <time>2019-08-16T13:05:48Z</time>
      </trkpt>
      <trkpt lat="47.53687" lon="6.90924">
        <ele>332.6</ele>
        <time>2019-08-16T13:05:49Z</time>
      </trkpt>
      <trkpt lat="47.53683" lon="6.9092">
        <ele>332.5</ele>
        <time>2019-08-16T13:05:50Z</time>
      </trkpt>
      <trkpt lat="47.53679" lon="6.90916">
        <ele>332.3</ele>
        <time>2019-08-16T13:05:51Z</time>
      </trkpt>
      <trkpt lat="47.53675" lon="6.90913">
        <ele>332.2</ele>
        <time>2019-08-16T13:05:52Z</time>
      </trkpt>
      <trkpt lat="47.53671" lon="6.90909">
        <ele>332.1</ele>
        <time>2019-08-16T13:05:53Z</time>
      </trkpt>
      <trkpt lat="47.53667" lon="6.90905">
        <ele>332</ele>
        <time>2019-08-16T13:05:54Z</time>
      </trkpt>
      <trkpt lat="47.53663" lon="6.90901">
        <ele>332</ele>
        <time>2019-08-16T13:05:55Z</time>
      </trkpt>
      <trkpt lat="47.53658" lon="6.90897">
        <ele>332</ele>
        <time>2019-08-16T13:05:56Z</time>
      </trkpt>
      <trkpt lat="47.53653" lon="6.90893">
        <ele>332</ele>
        <time>2019-08-16T13:05:57Z</time>
      </trkpt>
      <trkpt lat="47.53649" lon="6.90888">
        <ele>332</ele>
        <time>2019-08-16T13:05:58Z</time>
      </trkpt>
      <trkpt lat="47.53645" lon="6.90884">
        <ele>332</ele>
        <time>2019-08-16T13:05:59Z</time>
      </trkpt>
      <trkpt lat="47.5364" lon="6.90881">
        <ele>332</ele>
        <time>2019-08-16T13:06:00Z</time>
      </trkpt>
      <trkpt lat="47.53637" lon="6.90876">
        <ele>332</ele>
        <time>2019-08-16T13:06:01Z</time>
      </trkpt>
      <trkpt lat="47.53633" lon="6.90872">
        <ele>332</ele>
        <time>2019-08-16T13:06:02Z</time>
      </trkpt>
      <trkpt lat="47.5363" lon="6.90868">
        <ele>332</ele>
        <time>2019-08-16T13:06:03Z</time>
      </trkpt>
      <trkpt lat="47.53626" lon="6.90865">
        <ele>332.1</ele>
        <time>2019-08-16T13:06:04Z</time>
      </trkpt>
      <trkpt lat="47.53623" lon="6.90861">
        <ele>332.2</ele>
        <time>2019-08-16T13:06:05Z</time>
      </trkpt>
      <trkpt lat="47.53619" lon="6.90857">
        <ele>332.3</ele>
        <time>2019-08-16T13:06:06Z</time>
      </trkpt>
      <trkpt lat="47.53615" lon="6.90853">
        <ele>332.4</ele>
        <time>2019-08-16T13:06:07Z</time>
      </trkpt>
      <trkpt lat="47.53611" lon="6.90849">
        <ele>332.5</ele>
        <time>2019-08-16T13:06:08Z</time>
      </trkpt>
      <trkpt lat="47.53607" lon="6.90844">
        <ele>332.6</ele>
        <time>2019-08-16T13:06:09Z</time>
      </trkpt>
      <trkpt lat="47.53602" lon="6.9084">
        <ele>332.7</ele>
        <time>2019-08-16T13:06:10Z</time>
      </trkpt>
      <trkpt lat="47.53597" lon="6.90836">
        <ele>332.7</ele>
        <time>2019-08-16T13:06:11Z</time>
      </trkpt>
      <trkpt lat="47.53592" lon="6.90831">
        <ele>332.7</ele>
        <time>2019-08-16T13:06:12Z</time>
      </trkpt>
      <trkpt lat="47.53587" lon="6.90827">
        <ele>332.7</ele>
        <time>2019-08-16T13:06:13Z</time>
      </trkpt>
      <trkpt lat="47.53582" lon="6.90822">
        <ele>332.7</ele>
        <time>2019-08-16T13:06:14Z</time>
      </trkpt>
      <trkpt lat="47.53577" lon="6.90819">
        <ele>332.7</ele>
        <time>2019-08-16T13:06:15Z</time>
      </trkpt>
      <trkpt lat="47.53572" lon="6.90815">
        <ele>332.7</ele>
        <time>2019-08-16T13:06:16Z</time>
      </trkpt>
      <trkpt lat="47.53568" lon="6.90811">
        <ele>332.7</ele>
        <time>2019-08-16T13:06:17Z</time>
      </trkpt>
      <trkpt lat="47.53564" lon="6.90806">
        <ele>332.6</ele>
        <time>2019-08-16T13:06:18Z</time>
      </trkpt>
      <trkpt lat="47.5356" lon="6.90802">
        <ele>332.6</ele>
        <time>2019-08-16T13:06:19Z</time>
      </trkpt>
      <trkpt lat="47.53556" lon="6.90798">
        <ele>332.6</ele>
        <time>2019-08-16T13:06:20Z</time>
      </trkpt>
      <trkpt lat="47.53552" lon="6.90793">
        <ele>332.6</ele>
        <time>2019-08-16T13:06:21Z</time>
      </trkpt>
      <trkpt lat="47.53548" lon="6.90789">
        <ele>332.6</ele>
        <time>2019-08-16T13:06:22Z</time>
      </trkpt>
      <trkpt lat="47.53543" lon="6.90784">
        <ele>332.6</ele>
        <time>2019-08-16T13:06:23Z</time>
      </trkpt>
      <trkpt lat="47.53539" lon="6.90781">
        <ele>332.5</ele>
        <time>2019-08-16T13:06:24Z</time>
      </trkpt>
      <trkpt lat="47.53533" lon="6.90779">
        <ele>332.5</ele>
        <time>2019-08-16T13:06:25Z</time>
      </trkpt>
      <trkpt lat="47.53528" lon="6.90775">
        <ele>332.5</ele>
        <time>2019-08-16T13:06:26Z</time>
      </trkpt>
      <trkpt lat="47.53524" lon="6.90773">
        <ele>332.5</ele>
        <time>2019-08-16T13:06:27Z</time>
      </trkpt>
      <trkpt lat="47.5352" lon="6.9077">
        <ele>332.5</ele>
        <time>2019-08-16T13:06:28Z</time>
      </trkpt>
      <trkpt lat="47.53516" lon="6.90766">
        <ele>332.5</ele>
        <time>2019-08-16T13:06:29Z</time>
      </trkpt>
      <trkpt lat="47.53512" lon="6.90761">
        <ele>332.4</ele>
        <time>2019-08-16T13:06:30Z</time>
      </trkpt>
      <trkpt lat="47.53508" lon="6.90757">
        <ele>332.4</ele>
        <time>2019-08-16T13:06:31Z</time>
      </trkpt>
      <trkpt lat="47.53504" lon="6.90753">
        <ele>332.4</ele>
        <time>2019-08-16T13:06:32Z</time>
      </trkpt>
      <trkpt lat="47.53499" lon="6.90749">
        <ele>332.4</ele>
        <time>2019-08-16T13:06:33Z</time>
      </trkpt>
      <trkpt lat="47.53495" lon="6.90745">
        <ele>332.4</ele>
        <time>2019-08-16T13:06:34Z</time>
      </trkpt>
      <trkpt lat="47.53491" lon="6.90741">
        <ele>332.4</ele>
        <time>2019-08-16T13:06:35Z</time>
      </trkpt>
      <trkpt lat="47.53486" lon="6.90738">
        <ele>332.3</ele>
        <time>2019-08-16T13:06:36Z</time>
      </trkpt>
      <trkpt lat="47.53482" lon="6.90736">
        <ele>332.3</ele>
        <time>2019-08-16T13:06:37Z</time>
      </trkpt>
      <trkpt lat="47.53477" lon="6.90733">
        <ele>332.3</ele>
        <time>2019-08-16T13:06:38Z</time>
      </trkpt>
      <trkpt lat="47.53473" lon="6.90728">
        <ele>332.3</ele>
        <time>2019-08-16T13:06:39Z</time>
      </trkpt>
      <trkpt lat="47.53469" lon="6.90724">
        <ele>332.3</ele>
        <time>2019-08-16T13:06:40Z</time>
      </trkpt>
      <trkpt lat="47.53464" lon="6.9072">
        <ele>332.3</ele>
        <time>2019-08-16T13:06:41Z</time>
      </trkpt>
      <trkpt lat="47.5346" lon="6.90716">
        <ele>332.2</ele>
        <time>2019-08-16T13:06:42Z</time>
      </trkpt>
      <trkpt lat="47.53455" lon="6.90712">
        <ele>332.2</ele>
        <time>2019-08-16T13:06:43Z</time>
      </trkpt>
      <trkpt lat="47.5345" lon="6.90708">
        <ele>332.2</ele>
        <time>2019-08-16T13:06:44Z</time>
      </trkpt>
      <trkpt lat="47.53446" lon="6.90704">
        <ele>332.2</ele>
        <time>2019-08-16T13:06:45Z</time>
      </trkpt>
      <trkpt lat="47.53441" lon="6.907">
        <ele>332.2</ele>
        <time>2019-08-16T13:06:46Z</time>
      </trkpt>
      <trkpt lat="47.53436" lon="6.90694">
        <ele>332.1</ele>
        <time>2019-08-16T13:06:47Z</time>
      </trkpt>
      <trkpt lat="47.53433" lon="6.90688">
        <ele>332.1</ele>
        <time>2019-08-16T13:06:48Z</time>
      </trkpt>
      <trkpt lat="47.53429" lon="6.90682">
        <ele>332</ele>
        <time>2019-08-16T13:06:49Z</time>
      </trkpt>
      <trkpt lat="47.53424" lon="6.90678">
        <ele>331.9</ele>
        <time>2019-08-16T13:06:50Z</time>
      </trkpt>
      <trkpt lat="47.5342" lon="6.90672">
        <ele>331.8</ele>
        <time>2019-08-16T13:06:51Z</time>
      </trkpt>
      <trkpt lat="47.53415" lon="6.90666">
        <ele>331.7</ele>
        <time>2019-08-16T13:06:52Z</time>
      </trkpt>
      <trkpt lat="47.53411" lon="6.9066">
        <ele>331.6</ele>
        <time>2019-08-16T13:06:53Z</time>
      </trkpt>
      <trkpt lat="47.53406" lon="6.90655">
        <ele>331.4</ele>
        <time>2019-08-16T13:06:54Z</time>
      </trkpt>
      <trkpt lat="47.53402" lon="6.90649">
        <ele>331.3</ele>
        <time>2019-08-16T13:06:55Z</time>
      </trkpt>
      <trkpt lat="47.53398" lon="6.90644">
        <ele>331.2</ele>
        <time>2019-08-16T13:06:56Z</time>
      </trkpt>
      <trkpt lat="47.53394" lon="6.90639">
        <ele>331.1</ele>
        <time>2019-08-16T13:06:57Z</time>
      </trkpt>
      <trkpt lat="47.5339" lon="6.90633">
        <ele>331</ele>
        <time>2019-08-16T13:06:58Z</time>
      </trkpt>
      <trkpt lat="47.53385" lon="6.90629">
        <ele>331</ele>
        <time>2019-08-16T13:06:59Z</time>
      </trkpt>
      <trkpt lat="47.53381" lon="6.90624">
        <ele>331.1</ele>
        <time>2019-08-16T13:07:00Z</time>
      </trkpt>
      <trkpt lat="47.53377" lon="6.90619">
        <ele>331.1</ele>
        <time>2019-08-16T13:07:01Z</time>
      </trkpt>
      <trkpt lat="47.53372" lon="6.90613">
        <ele>331.2</ele>
        <time>2019-08-16T13:07:02Z</time>
      </trkpt>
      <trkpt lat="47.53368" lon="6.90608">
        <ele>331.3</ele>
        <time>2019-08-16T13:07:03Z</time>
      </trkpt>
      <trkpt lat="47.53365" lon="6.90601">
        <ele>331.4</ele>
        <time>2019-08-16T13:07:04Z</time>
      </trkpt>
      <trkpt lat="47.53361" lon="6.90595">
        <ele>331.5</ele>
        <time>2019-08-16T13:07:05Z</time>
      </trkpt>
      <trkpt lat="47.53358" lon="6.90589">
        <ele>331.6</ele>
        <time>2019-08-16T13:07:06Z</time>
      </trkpt>
      <trkpt lat="47.53354" lon="6.90584">
        <ele>331.6</ele>
        <time>2019-08-16T13:07:07Z</time>
      </trkpt>
      <trkpt lat="47.53351" lon="6.90579">
        <ele>331.7</ele>
        <time>2019-08-16T13:07:08Z</time>
      </trkpt>
      <trkpt lat="47.53347" lon="6.90574">
        <ele>331.7</ele>
        <time>2019-08-16T13:07:09Z</time>
      </trkpt>
      <trkpt lat="47.53342" lon="6.90569">
        <ele>331.7</ele>
        <time>2019-08-16T13:07:10Z</time>
      </trkpt>
      <trkpt lat="47.53339" lon="6.90563">
        <ele>331.7</ele>
        <time>2019-08-16T13:07:11Z</time>
      </trkpt>
      <trkpt lat="47.53335" lon="6.90557">
        <ele>331.7</ele>
        <time>2019-08-16T13:07:12Z</time>
      </trkpt>
      <trkpt lat="47.5333" lon="6.90552">
        <ele>331.7</ele>
        <time>2019-08-16T13:07:13Z</time>
      </trkpt>
      <trkpt lat="47.53326" lon="6.90546">
        <ele>331.6</ele>
        <time>2019-08-16T13:07:14Z</time>
      </trkpt>
      <trkpt lat="47.53322" lon="6.90541">
        <ele>331.6</ele>
        <time>2019-08-16T13:07:15Z</time>
      </trkpt>
      <trkpt lat="47.53319" lon="6.90535">
        <ele>331.6</ele>
        <time>2019-08-16T13:07:16Z</time>
      </trkpt>
      <trkpt lat="47.53316" lon="6.9053">
        <ele>331.5</ele>
        <time>2019-08-16T13:07:17Z</time>
      </trkpt>
      <trkpt lat="47.53312" lon="6.90524">
        <ele>331.5</ele>
        <time>2019-08-16T13:07:18Z</time>
      </trkpt>
      <trkpt lat="47.53308" lon="6.90518">
        <ele>331.4</ele>
        <time>2019-08-16T13:07:19Z</time>
      </trkpt>
      <trkpt lat="47.53304" lon="6.90513">
        <ele>331.3</ele>
        <time>2019-08-16T13:07:20Z</time>
      </trkpt>
      <trkpt lat="47.53299" lon="6.90508">
        <ele>331.2</ele>
        <time>2019-08-16T13:07:21Z</time>
      </trkpt>
      <trkpt lat="47.53296" lon="6.90502">
        <ele>331</ele>
        <time>2019-08-16T13:07:22Z</time>
      </trkpt>
      <trkpt lat="47.53292" lon="6.90498">
        <ele>330.9</ele>
        <time>2019-08-16T13:07:23Z</time>
      </trkpt>
      <trkpt lat="47.53288" lon="6.90493">
        <ele>330.8</ele>
        <time>2019-08-16T13:07:24Z</time>
      </trkpt>
      <trkpt lat="47.53284" lon="6.90488">
        <ele>330.7</ele>
        <time>2019-08-16T13:07:25Z</time>
      </trkpt>
      <trkpt lat="47.5328" lon="6.90485">
        <ele>330.6</ele>
        <time>2019-08-16T13:07:26Z</time>
      </trkpt>
      <trkpt lat="47.53277" lon="6.90481">
        <ele>330.5</ele>
        <time>2019-08-16T13:07:27Z</time>
      </trkpt>
      <trkpt lat="47.53273" lon="6.90476">
        <ele>330.4</ele>
        <time>2019-08-16T13:07:28Z</time>
      </trkpt>
      <trkpt lat="47.53269" lon="6.90472">
        <ele>330.4</ele>
        <time>2019-08-16T13:07:29Z</time>
      </trkpt>
      <trkpt lat="47.53265" lon="6.90468">
        <ele>330.3</ele>
        <time>2019-08-16T13:07:30Z</time>
      </trkpt>
      <trkpt lat="47.5326" lon="6.90463">
        <ele>330.2</ele>
        <time>2019-08-16T13:07:31Z</time>
      </trkpt>
      <trkpt lat="47.53256" lon="6.90459">
        <ele>330</ele>
        <time>2019-08-16T13:07:32Z</time>
      </trkpt>
      <trkpt lat="47.53252" lon="6.90454">
        <ele>329.9</ele>
        <time>2019-08-16T13:07:33Z</time>
      </trkpt>
      <trkpt lat="47.53249" lon="6.90449">
        <ele>329.8</ele>
        <time>2019-08-16T13:07:34Z</time>
      </trkpt>
      <trkpt lat="47.53245" lon="6.90446">
        <ele>329.6</ele>
        <time>2019-08-16T13:07:35Z</time>
      </trkpt>
      <trkpt lat="47.53241" lon="6.90442">
        <ele>329.5</ele>
        <time>2019-08-16T13:07:36Z</time>
      </trkpt>
      <trkpt lat="47.53237" lon="6.90438">
        <ele>329.4</ele>
        <time>2019-08-16T13:07:37Z</time>
      </trkpt>
      <trkpt lat="47.53233" lon="6.90435">
        <ele>329.2</ele>
        <time>2019-08-16T13:07:38Z</time>
      </trkpt>
      <trkpt lat="47.5323" lon="6.90431">
        <ele>329.1</ele>
        <time>2019-08-16T13:07:39Z</time>
      </trkpt>
      <trkpt lat="47.53227" lon="6.90426">
        <ele>329</ele>
        <time>2019-08-16T13:07:40Z</time>
      </trkpt>
      <trkpt lat="47.53223" lon="6.90421">
        <ele>328.8</ele>
        <time>2019-08-16T13:07:41Z</time>
      </trkpt>
      <trkpt lat="47.53219" lon="6.90418">
        <ele>328.7</ele>
        <time>2019-08-16T13:07:42Z</time>
      </trkpt>
      <trkpt lat="47.53215" lon="6.90413">
        <ele>328.5</ele>
        <time>2019-08-16T13:07:43Z</time>
      </trkpt>
      <trkpt lat="47.53211" lon="6.90407">
        <ele>328.4</ele>
        <time>2019-08-16T13:07:44Z</time>
      </trkpt>
      <trkpt lat="47.53207" lon="6.90403">
        <ele>328.3</ele>
        <time>2019-08-16T13:07:45Z</time>
      </trkpt>
      <trkpt lat="47.53204" lon="6.90397">
        <ele>328.2</ele>
        <time>2019-08-16T13:07:46Z</time>
      </trkpt>
      <trkpt lat="47.53201" lon="6.90391">
        <ele>328.2</ele>
        <time>2019-08-16T13:07:47Z</time>
      </trkpt>
      <trkpt lat="47.53199" lon="6.90383">
        <ele>328.1</ele>
        <time>2019-08-16T13:07:48Z</time>
      </trkpt>
      <trkpt lat="47.53197" lon="6.90377">
        <ele>328.1</ele>
        <time>2019-08-16T13:07:49Z</time>
      </trkpt>
      <trkpt lat="47.53193" lon="6.90371">
        <ele>328</ele>
        <time>2019-08-16T13:07:50Z</time>
      </trkpt>
      <trkpt lat="47.53189" lon="6.90366">
        <ele>328</ele>
        <time>2019-08-16T13:07:51Z</time>
      </trkpt>
      <trkpt lat="47.53185" lon="6.90361">
        <ele>328</ele>
        <time>2019-08-16T13:07:52Z</time>
      </trkpt>
      <trkpt lat="47.53181" lon="6.90356">
        <ele>327.9</ele>
        <time>2019-08-16T13:07:53Z</time>
      </trkpt>
      <trkpt lat="47.53177" lon="6.9035">
        <ele>327.9</ele>
        <time>2019-08-16T13:07:54Z</time>
      </trkpt>
      <trkpt lat="47.53174" lon="6.90345">
        <ele>327.8</ele>
        <time>2019-08-16T13:07:55Z</time>
      </trkpt>
      <trkpt lat="47.5317" lon="6.9034">
        <ele>327.8</ele>
        <time>2019-08-16T13:07:56Z</time>
      </trkpt>
      <trkpt lat="47.53166" lon="6.90335">
        <ele>327.7</ele>
        <time>2019-08-16T13:07:57Z</time>
      </trkpt>
      <trkpt lat="47.53163" lon="6.90332">
        <ele>327.7</ele>
        <time>2019-08-16T13:07:58Z</time>
      </trkpt>
      <trkpt lat="47.5316" lon="6.90328">
        <ele>327.6</ele>
        <time>2019-08-16T13:07:59Z</time>
      </trkpt>
      <trkpt lat="47.53156" lon="6.90323">
        <ele>327.6</ele>
        <time>2019-08-16T13:08:00Z</time>
      </trkpt>
      <trkpt lat="47.53152" lon="6.90318">
        <ele>327.5</ele>
        <time>2019-08-16T13:08:01Z</time>
      </trkpt>
      <trkpt lat="47.53148" lon="6.90314">
        <ele>327.4</ele>
        <time>2019-08-16T13:08:02Z</time>
      </trkpt>
      <trkpt lat="47.53144" lon="6.90308">
        <ele>327.3</ele>
        <time>2019-08-16T13:08:03Z</time>
      </trkpt>
      <trkpt lat="47.53141" lon="6.90302">
        <ele>327.2</ele>
        <time>2019-08-16T13:08:04Z</time>
      </trkpt>
      <trkpt lat="47.53136" lon="6.90298">
        <ele>327</ele>
        <time>2019-08-16T13:08:05Z</time>
      </trkpt>
      <trkpt lat="47.53132" lon="6.90292">
        <ele>326.9</ele>
        <time>2019-08-16T13:08:06Z</time>
      </trkpt>
      <trkpt lat="47.53128" lon="6.90288">
        <ele>326.9</ele>
        <time>2019-08-16T13:08:07Z</time>
      </trkpt>
      <trkpt lat="47.53125" lon="6.90283">
        <ele>326.8</ele>
        <time>2019-08-16T13:08:08Z</time>
      </trkpt>
      <trkpt lat="47.53121" lon="6.90277">
        <ele>326.8</ele>
        <time>2019-08-16T13:08:09Z</time>
      </trkpt>
      <trkpt lat="47.53117" lon="6.90272">
        <ele>326.8</ele>
        <time>2019-08-16T13:08:10Z</time>
      </trkpt>
      <trkpt lat="47.53113" lon="6.90268">
        <ele>326.7</ele>
        <time>2019-08-16T13:08:11Z</time>
      </trkpt>
      <trkpt lat="47.53109" lon="6.90263">
        <ele>326.7</ele>
        <time>2019-08-16T13:08:12Z</time>
      </trkpt>
      <trkpt lat="47.53105" lon="6.90258">
        <ele>326.7</ele>
        <time>2019-08-16T13:08:13Z</time>
      </trkpt>
      <trkpt lat="47.53101" lon="6.90253">
        <ele>326.7</ele>
        <time>2019-08-16T13:08:14Z</time>
      </trkpt>
      <trkpt lat="47.53097" lon="6.90248">
        <ele>326.7</ele>
        <time>2019-08-16T13:08:15Z</time>
      </trkpt>
      <trkpt lat="47.53093" lon="6.90243">
        <ele>326.7</ele>
        <time>2019-08-16T13:08:16Z</time>
      </trkpt>
      <trkpt lat="47.5309" lon="6.90237">
        <ele>326.6</ele>
        <time>2019-08-16T13:08:17Z</time>
      </trkpt>
      <trkpt lat="47.53087" lon="6.90232">
        <ele>326.6</ele>
        <time>2019-08-16T13:08:18Z</time>
      </trkpt>
      <trkpt lat="47.53083" lon="6.90227">
        <ele>326.6</ele>
        <time>2019-08-16T13:08:19Z</time>
      </trkpt>
      <trkpt lat="47.53079" lon="6.90223">
        <ele>326.6</ele>
        <time>2019-08-16T13:08:20Z</time>
      </trkpt>
      <trkpt lat="47.53075" lon="6.90219">
        <ele>326.6</ele>
        <time>2019-08-16T13:08:21Z</time>
      </trkpt>
      <trkpt lat="47.53072" lon="6.90214">
        <ele>326.6</ele>
        <time>2019-08-16T13:08:22Z</time>
      </trkpt>
      <trkpt lat="47.53069" lon="6.90209">
        <ele>326.6</ele>
        <time>2019-08-16T13:08:23Z</time>
      </trkpt>
      <trkpt lat="47.53065" lon="6.90205">
        <ele>326.6</ele>
        <time>2019-08-16T13:08:24Z</time>
      </trkpt>
      <trkpt lat="47.53061" lon="6.902">
        <ele>326.7</ele>
        <time>2019-08-16T13:08:25Z</time>
      </trkpt>
      <trkpt lat="47.53057" lon="6.90195">
        <ele>326.8</ele>
        <time>2019-08-16T13:08:26Z</time>
      </trkpt>
      <trkpt lat="47.53053" lon="6.9019">
        <ele>326.9</ele>
        <time>2019-08-16T13:08:27Z</time>
      </trkpt>
      <trkpt lat="47.53048" lon="6.90185">
        <ele>327</ele>
        <time>2019-08-16T13:08:28Z</time>
      </trkpt>
      <trkpt lat="47.53045" lon="6.90179">
        <ele>327.1</ele>
        <time>2019-08-16T13:08:29Z</time>
      </trkpt>
      <trkpt lat="47.53042" lon="6.90173">
        <ele>327.2</ele>
        <time>2019-08-16T13:08:30Z</time>
      </trkpt>
      <trkpt lat="47.53038" lon="6.90168">
        <ele>327.3</ele>
        <time>2019-08-16T13:08:31Z</time>
      </trkpt>
      <trkpt lat="47.53035" lon="6.90162">
        <ele>327.3</ele>
        <time>2019-08-16T13:08:32Z</time>
      </trkpt>
      <trkpt lat="47.53032" lon="6.90157">
        <ele>327.3</ele>
        <time>2019-08-16T13:08:33Z</time>
      </trkpt>
      <trkpt lat="47.53028" lon="6.90153">
        <ele>327.3</ele>
        <time>2019-08-16T13:08:34Z</time>
      </trkpt>
      <trkpt lat="47.53025" lon="6.90148">
        <ele>327.3</ele>
        <time>2019-08-16T13:08:35Z</time>
      </trkpt>
      <trkpt lat="47.53022" lon="6.90143">
        <ele>327.3</ele>
        <time>2019-08-16T13:08:36Z</time>
      </trkpt>
      <trkpt lat="47.53018" lon="6.90138">
        <ele>327.3</ele>
        <time>2019-08-16T13:08:37Z</time>
      </trkpt>
      <trkpt lat="47.53016" lon="6.90132">
        <ele>327.3</ele>
        <time>2019-08-16T13:08:38Z</time>
      </trkpt>
      <trkpt lat="47.53012" lon="6.90126">
        <ele>327.3</ele>
        <time>2019-08-16T13:08:39Z</time>
      </trkpt>
      <trkpt lat="47.53008" lon="6.9012">
        <ele>327.3</ele>
        <time>2019-08-16T13:08:40Z</time>
      </trkpt>
      <trkpt lat="47.53005" lon="6.90113">
        <ele>327.2</ele>
        <time>2019-08-16T13:08:41Z</time>
      </trkpt>
      <trkpt lat="47.53001" lon="6.90108">
        <ele>327.2</ele>
        <time>2019-08-16T13:08:42Z</time>
      </trkpt>
      <trkpt lat="47.52997" lon="6.90102">
        <ele>327.2</ele>
        <time>2019-08-16T13:08:43Z</time>
      </trkpt>
      <trkpt lat="47.52993" lon="6.90096">
        <ele>327.2</ele>
        <time>2019-08-16T13:08:44Z</time>
      </trkpt>
      <trkpt lat="47.5299" lon="6.90091">
        <ele>327.2</ele>
        <time>2019-08-16T13:08:45Z</time>
      </trkpt>
      <trkpt lat="47.52986" lon="6.90086">
        <ele>327.2</ele>
        <time>2019-08-16T13:08:46Z</time>
      </trkpt>
      <trkpt lat="47.52982" lon="6.9008">
        <ele>327.1</ele>
        <time>2019-08-16T13:08:47Z</time>
      </trkpt>
      <trkpt lat="47.52978" lon="6.90076">
        <ele>327.1</ele>
        <time>2019-08-16T13:08:48Z</time>
      </trkpt>
      <trkpt lat="47.52974" lon="6.90071">
        <ele>327.1</ele>
        <time>2019-08-16T13:08:49Z</time>
      </trkpt>
      <trkpt lat="47.52969" lon="6.90067">
        <ele>327</ele>
        <time>2019-08-16T13:08:50Z</time>
      </trkpt>
      <trkpt lat="47.52966" lon="6.90062">
        <ele>327</ele>
        <time>2019-08-16T13:08:51Z</time>
      </trkpt>
      <trkpt lat="47.52962" lon="6.90057">
        <ele>326.9</ele>
        <time>2019-08-16T13:08:52Z</time>
      </trkpt>
      <trkpt lat="47.52958" lon="6.90051">
        <ele>326.9</ele>
        <time>2019-08-16T13:08:53Z</time>
      </trkpt>
      <trkpt lat="47.52954" lon="6.90047">
        <ele>326.8</ele>
        <time>2019-08-16T13:08:54Z</time>
      </trkpt>
      <trkpt lat="47.5295" lon="6.90042">
        <ele>326.6</ele>
        <time>2019-08-16T13:08:55Z</time>
      </trkpt>
      <trkpt lat="47.52946" lon="6.90037">
        <ele>326.5</ele>
        <time>2019-08-16T13:08:56Z</time>
      </trkpt>
      <trkpt lat="47.52942" lon="6.90032">
        <ele>326.4</ele>
        <time>2019-08-16T13:08:57Z</time>
      </trkpt>
      <trkpt lat="47.52938" lon="6.90027">
        <ele>326.2</ele>
        <time>2019-08-16T13:08:58Z</time>
      </trkpt>
      <trkpt lat="47.52934" lon="6.90022">
        <ele>326.1</ele>
        <time>2019-08-16T13:08:59Z</time>
      </trkpt>
      <trkpt lat="47.5293" lon="6.90017">
        <ele>326</ele>
        <time>2019-08-16T13:09:00Z</time>
      </trkpt>
      <trkpt lat="47.52926" lon="6.90012">
        <ele>326</ele>
        <time>2019-08-16T13:09:01Z</time>
      </trkpt>
      <trkpt lat="47.52922" lon="6.90008">
        <ele>325.9</ele>
        <time>2019-08-16T13:09:02Z</time>
      </trkpt>
      <trkpt lat="47.52919" lon="6.90003">
        <ele>325.9</ele>
        <time>2019-08-16T13:09:03Z</time>
      </trkpt>
      <trkpt lat="47.52916" lon="6.89998">
        <ele>325.8</ele>
        <time>2019-08-16T13:09:04Z</time>
      </trkpt>
      <trkpt lat="47.52912" lon="6.89994">
        <ele>325.7</ele>
        <time>2019-08-16T13:09:05Z</time>
      </trkpt>
      <trkpt lat="47.52909" lon="6.89989">
        <ele>325.7</ele>
        <time>2019-08-16T13:09:06Z</time>
      </trkpt>
      <trkpt lat="47.52906" lon="6.89984">
        <ele>325.6</ele>
        <time>2019-08-16T13:09:07Z</time>
      </trkpt>
      <trkpt lat="47.52902" lon="6.89979">
        <ele>325.5</ele>
        <time>2019-08-16T13:09:08Z</time>
      </trkpt>
      <trkpt lat="47.52899" lon="6.89974">
        <ele>325.4</ele>
        <time>2019-08-16T13:09:09Z</time>
      </trkpt>
      <trkpt lat="47.52895" lon="6.89969">
        <ele>325.2</ele>
        <time>2019-08-16T13:09:10Z</time>
      </trkpt>
      <trkpt lat="47.52891" lon="6.89965">
        <ele>325.1</ele>
        <time>2019-08-16T13:09:11Z</time>
      </trkpt>
      <trkpt lat="47.52887" lon="6.8996">
        <ele>325</ele>
        <time>2019-08-16T13:09:12Z</time>
      </trkpt>
      <trkpt lat="47.52884" lon="6.89955">
        <ele>324.9</ele>
        <time>2019-08-16T13:09:13Z</time>
      </trkpt>
      <trkpt lat="47.5288" lon="6.89951">
        <ele>324.8</ele>
        <time>2019-08-16T13:09:14Z</time>
      </trkpt>
      <trkpt lat="47.52877" lon="6.89945">
        <ele>324.7</ele>
        <time>2019-08-16T13:09:15Z</time>
      </trkpt>
      <trkpt lat="47.52873" lon="6.8994">
        <ele>324.7</ele>
        <time>2019-08-16T13:09:16Z</time>
      </trkpt>
      <trkpt lat="47.52869" lon="6.89935">
        <ele>324.6</ele>
        <time>2019-08-16T13:09:17Z</time>
      </trkpt>
      <trkpt lat="47.52865" lon="6.89929">
        <ele>324.5</ele>
        <time>2019-08-16T13:09:18Z</time>
      </trkpt>
      <trkpt lat="47.52862" lon="6.89923">
        <ele>324.5</ele>
        <time>2019-08-16T13:09:19Z</time>
      </trkpt>
      <trkpt lat="47.52858" lon="6.89916">
        <ele>324.4</ele>
        <time>2019-08-16T13:09:20Z</time>
      </trkpt>
      <trkpt lat="47.52855" lon="6.89909">
        <ele>324.2</ele>
        <time>2019-08-16T13:09:21Z</time>
      </trkpt>
      <trkpt lat="47.52852" lon="6.89902">
        <ele>324.1</ele>
        <time>2019-08-16T13:09:22Z</time>
      </trkpt>
      <trkpt lat="47.52849" lon="6.89896">
        <ele>323.9</ele>
        <time>2019-08-16T13:09:23Z</time>
      </trkpt>
      <trkpt lat="47.52845" lon="6.8989">
        <ele>323.8</ele>
        <time>2019-08-16T13:09:24Z</time>
      </trkpt>
      <trkpt lat="47.52842" lon="6.89885">
        <ele>323.7</ele>
        <time>2019-08-16T13:09:25Z</time>
      </trkpt>
      <trkpt lat="47.52837" lon="6.89879">
        <ele>323.6</ele>
        <time>2019-08-16T13:09:26Z</time>
      </trkpt>
      <trkpt lat="47.52833" lon="6.89872">
        <ele>323.5</ele>
        <time>2019-08-16T13:09:27Z</time>
      </trkpt>
      <trkpt lat="47.5283" lon="6.89864">
        <ele>323.5</ele>
        <time>2019-08-16T13:09:28Z</time>
      </trkpt>
      <trkpt lat="47.52827" lon="6.89857">
        <ele>323.5</ele>
        <time>2019-08-16T13:09:29Z</time>
      </trkpt>
      <trkpt lat="47.52825" lon="6.8985">
        <ele>323.4</ele>
        <time>2019-08-16T13:09:30Z</time>
      </trkpt>
      <trkpt lat="47.52822" lon="6.89843">
        <ele>323.4</ele>
        <time>2019-08-16T13:09:31Z</time>
      </trkpt>
      <trkpt lat="47.52819" lon="6.89835">
        <ele>323.4</ele>
        <time>2019-08-16T13:09:32Z</time>
      </trkpt>
      <trkpt lat="47.52816" lon="6.89829">
        <ele>323.4</ele>
        <time>2019-08-16T13:09:33Z</time>
      </trkpt>
      <trkpt lat="47.52813" lon="6.89822">
        <ele>323.4</ele>
        <time>2019-08-16T13:09:34Z</time>
      </trkpt>
      <trkpt lat="47.5281" lon="6.89816">
        <ele>323.4</ele>
        <time>2019-08-16T13:09:35Z</time>
      </trkpt>
      <trkpt lat="47.52808" lon="6.89809">
        <ele>323.4</ele>
        <time>2019-08-16T13:09:36Z</time>
      </trkpt>
      <trkpt lat="47.52806" lon="6.89802">
        <ele>323.4</ele>
        <time>2019-08-16T13:09:37Z</time>
      </trkpt>
      <trkpt lat="47.52803" lon="6.89795">
        <ele>323.4</ele>
        <time>2019-08-16T13:09:38Z</time>
      </trkpt>
      <trkpt lat="47.528" lon="6.89788">
        <ele>323.4</ele>
        <time>2019-08-16T13:09:39Z</time>
      </trkpt>
      <trkpt lat="47.52798" lon="6.8978">
        <ele>323.5</ele>
        <time>2019-08-16T13:09:40Z</time>
      </trkpt>
      <trkpt lat="47.52795" lon="6.89773">
        <ele>323.6</ele>
        <time>2019-08-16T13:09:41Z</time>
      </trkpt>
      <trkpt lat="47.52794" lon="6.89765">
        <ele>323.8</ele>
        <time>2019-08-16T13:09:42Z</time>
      </trkpt>
      <trkpt lat="47.52792" lon="6.89758">
        <ele>323.9</ele>
        <time>2019-08-16T13:09:43Z</time>
      </trkpt>
      <trkpt lat="47.52791" lon="6.8975">
        <ele>324</ele>
        <time>2019-08-16T13:09:44Z</time>
      </trkpt>
      <trkpt lat="47.52791" lon="6.89742">
        <ele>324.2</ele>
        <time>2019-08-16T13:09:45Z</time>
      </trkpt>
      <trkpt lat="47.5279" lon="6.89734">
        <ele>324.3</ele>
        <time>2019-08-16T13:09:46Z</time>
      </trkpt>
      <trkpt lat="47.5279" lon="6.89726">
        <ele>324.4</ele>
        <time>2019-08-16T13:09:47Z</time>
      </trkpt>
      <trkpt lat="47.52789" lon="6.89718">
        <ele>324.5</ele>
        <time>2019-08-16T13:09:48Z</time>
      </trkpt>
      <trkpt lat="47.52789" lon="6.8971">
        <ele>324.7</ele>
        <time>2019-08-16T13:09:49Z</time>
      </trkpt>
      <trkpt lat="47.52789" lon="6.89702">
        <ele>324.8</ele>
        <time>2019-08-16T13:09:50Z</time>
      </trkpt>
      <trkpt lat="47.52788" lon="6.89695">
        <ele>324.9</ele>
        <time>2019-08-16T13:09:51Z</time>
      </trkpt>
      <trkpt lat="47.52787" lon="6.89688">
        <ele>324.9</ele>
        <time>2019-08-16T13:09:52Z</time>
      </trkpt>
      <trkpt lat="47.52787" lon="6.8968">
        <ele>325</ele>
        <time>2019-08-16T13:09:53Z</time>
      </trkpt>
      <trkpt lat="47.52787" lon="6.89672">
        <ele>325</ele>
        <time>2019-08-16T13:09:54Z</time>
      </trkpt>
      <trkpt lat="47.52787" lon="6.89664">
        <ele>325</ele>
        <time>2019-08-16T13:09:55Z</time>
      </trkpt>
      <trkpt lat="47.52786" lon="6.89658">
        <ele>325</ele>
        <time>2019-08-16T13:09:56Z</time>
      </trkpt>
      <trkpt lat="47.52786" lon="6.89652">
        <ele>325</ele>
        <time>2019-08-16T13:09:57Z</time>
      </trkpt>
      <trkpt lat="47.52785" lon="6.89646">
        <ele>325</ele>
        <time>2019-08-16T13:09:58Z</time>
      </trkpt>
      <trkpt lat="47.52785" lon="6.89641">
        <ele>325</ele>
        <time>2019-08-16T13:09:59Z</time>
      </trkpt>
      <trkpt lat="47.52783" lon="6.89637">
        <ele>325</ele>
        <time>2019-08-16T13:10:00Z</time>
      </trkpt>
      <trkpt lat="47.52782" lon="6.89631">
        <ele>325</ele>
        <time>2019-08-16T13:10:01Z</time>
      </trkpt>
      <trkpt lat="47.52781" lon="6.89626">
        <ele>325</ele>
        <time>2019-08-16T13:10:02Z</time>
      </trkpt>
      <trkpt lat="47.52781" lon="6.8962">
        <ele>325</ele>
        <time>2019-08-16T13:10:03Z</time>
      </trkpt>
      <trkpt lat="47.52782" lon="6.89615">
        <ele>325</ele>
        <time>2019-08-16T13:10:04Z</time>
      </trkpt>
      <trkpt lat="47.52782" lon="6.89609">
        <ele>325</ele>
        <time>2019-08-16T13:10:05Z</time>
      </trkpt>
      <trkpt lat="47.52783" lon="6.89603">
        <ele>325</ele>
        <time>2019-08-16T13:10:06Z</time>
      </trkpt>
      <trkpt lat="47.52783" lon="6.89598">
        <ele>325</ele>
        <time>2019-08-16T13:10:07Z</time>
      </trkpt>
      <trkpt lat="47.52783" lon="6.89592">
        <ele>325</ele>
        <time>2019-08-16T13:10:08Z</time>
      </trkpt>
      <trkpt lat="47.52784" lon="6.89586">
        <ele>325</ele>
        <time>2019-08-16T13:10:09Z</time>
      </trkpt>
      <trkpt lat="47.52783" lon="6.8958">
        <ele>325</ele>
        <time>2019-08-16T13:10:10Z</time>
      </trkpt>
      <trkpt lat="47.52784" lon="6.89574">
        <ele>325</ele>
        <time>2019-08-16T13:10:11Z</time>
      </trkpt>
      <trkpt lat="47.52784" lon="6.89567">
        <ele>325</ele>
        <time>2019-08-16T13:10:12Z</time>
      </trkpt>
      <trkpt lat="47.52783" lon="6.89558">
        <ele>325</ele>
        <time>2019-08-16T13:10:13Z</time>
      </trkpt>
      <trkpt lat="47.52783" lon="6.89551">
        <ele>325</ele>
        <time>2019-08-16T13:10:14Z</time>
      </trkpt>
      <trkpt lat="47.52782" lon="6.89544">
        <ele>325</ele>
        <time>2019-08-16T13:10:15Z</time>
      </trkpt>
      <trkpt lat="47.52783" lon="6.89536">
        <ele>325.1</ele>
        <time>2019-08-16T13:10:16Z</time>
      </trkpt>
      <trkpt lat="47.52783" lon="6.8953">
        <ele>325.1</ele>
        <time>2019-08-16T13:10:17Z</time>
      </trkpt>
      <trkpt lat="47.52784" lon="6.89523">
        <ele>325.1</ele>
        <time>2019-08-16T13:10:18Z</time>
      </trkpt>
      <trkpt lat="47.52784" lon="6.89516">
        <ele>325.1</ele>
        <time>2019-08-16T13:10:19Z</time>
      </trkpt>
      <trkpt lat="47.52785" lon="6.8951">
        <ele>325.2</ele>
        <time>2019-08-16T13:10:20Z</time>
      </trkpt>
      <trkpt lat="47.52785" lon="6.89503">
        <ele>325.2</ele>
        <time>2019-08-16T13:10:21Z</time>
      </trkpt>
      <trkpt lat="47.52786" lon="6.89496">
        <ele>325.2</ele>
        <time>2019-08-16T13:10:22Z</time>
      </trkpt>
      <trkpt lat="47.52787" lon="6.89488">
        <ele>325.2</ele>
        <time>2019-08-16T13:10:23Z</time>
      </trkpt>
      <trkpt lat="47.52787" lon="6.89481">
        <ele>325.2</ele>
        <time>2019-08-16T13:10:24Z</time>
      </trkpt>
      <trkpt lat="47.52788" lon="6.89474">
        <ele>325.2</ele>
        <time>2019-08-16T13:10:25Z</time>
      </trkpt>
      <trkpt lat="47.52788" lon="6.89467">
        <ele>325.2</ele>
        <time>2019-08-16T13:10:26Z</time>
      </trkpt>
      <trkpt lat="47.52789" lon="6.89459">
        <ele>325.2</ele>
        <time>2019-08-16T13:10:27Z</time>
      </trkpt>
      <trkpt lat="47.52789" lon="6.89452">
        <ele>325.2</ele>
        <time>2019-08-16T13:10:28Z</time>
      </trkpt>
      <trkpt lat="47.5279" lon="6.89445">
        <ele>325.2</ele>
        <time>2019-08-16T13:10:29Z</time>
      </trkpt>
      <trkpt lat="47.5279" lon="6.89439">
        <ele>325.2</ele>
        <time>2019-08-16T13:10:30Z</time>
      </trkpt>
      <trkpt lat="47.5279" lon="6.89432">
        <ele>325.2</ele>
        <time>2019-08-16T13:10:31Z</time>
      </trkpt>
      <trkpt lat="47.5279" lon="6.89426">
        <ele>325.2</ele>
        <time>2019-08-16T13:10:32Z</time>
      </trkpt>
      <trkpt lat="47.52789" lon="6.89417">
        <ele>325.2</ele>
        <time>2019-08-16T13:10:33Z</time>
      </trkpt>
      <trkpt lat="47.52789" lon="6.8941">
        <ele>325.2</ele>
        <time>2019-08-16T13:10:34Z</time>
      </trkpt>
      <trkpt lat="47.52789" lon="6.89403">
        <ele>325.2</ele>
        <time>2019-08-16T13:10:35Z</time>
      </trkpt>
      <trkpt lat="47.52789" lon="6.89396">
        <ele>325.2</ele>
        <time>2019-08-16T13:10:36Z</time>
      </trkpt>
      <trkpt lat="47.52789" lon="6.89389">
        <ele>325.2</ele>
        <time>2019-08-16T13:10:37Z</time>
      </trkpt>
      <trkpt lat="47.52789" lon="6.89382">
        <ele>325.2</ele>
        <time>2019-08-16T13:10:38Z</time>
      </trkpt>
      <trkpt lat="47.52789" lon="6.89376">
        <ele>325.2</ele>
        <time>2019-08-16T13:10:39Z</time>
      </trkpt>
      <trkpt lat="47.52789" lon="6.89368">
        <ele>325.3</ele>
        <time>2019-08-16T13:10:40Z</time>
      </trkpt>
      <trkpt lat="47.5279" lon="6.8936">
        <ele>325.3</ele>
        <time>2019-08-16T13:10:41Z</time>
      </trkpt>
      <trkpt lat="47.52791" lon="6.89352">
        <ele>325.3</ele>
        <time>2019-08-16T13:10:42Z</time>
      </trkpt>
      <trkpt lat="47.52791" lon="6.89344">
        <ele>325.3</ele>
        <time>2019-08-16T13:10:43Z</time>
      </trkpt>
      <trkpt lat="47.52791" lon="6.89337">
        <ele>325.4</ele>
        <time>2019-08-16T13:10:44Z</time>
      </trkpt>
      <trkpt lat="47.5279" lon="6.8933">
        <ele>325.4</ele>
        <time>2019-08-16T13:10:45Z</time>
      </trkpt>
      <trkpt lat="47.5279" lon="6.89323">
        <ele>325.4</ele>
        <time>2019-08-16T13:10:46Z</time>
      </trkpt>
      <trkpt lat="47.52791" lon="6.89315">
        <ele>325.4</ele>
        <time>2019-08-16T13:10:47Z</time>
      </trkpt>
      <trkpt lat="47.52792" lon="6.89307">
        <ele>325.4</ele>
        <time>2019-08-16T13:10:48Z</time>
      </trkpt>
      <trkpt lat="47.52793" lon="6.893">
        <ele>325.4</ele>
        <time>2019-08-16T13:10:49Z</time>
      </trkpt>
      <trkpt lat="47.52794" lon="6.89293">
        <ele>325.4</ele>
        <time>2019-08-16T13:10:50Z</time>
      </trkpt>
      <trkpt lat="47.52794" lon="6.89287">
        <ele>325.4</ele>
        <time>2019-08-16T13:10:51Z</time>
      </trkpt>
      <trkpt lat="47.52794" lon="6.8928">
        <ele>325.4</ele>
        <time>2019-08-16T13:10:52Z</time>
      </trkpt>
      <trkpt lat="47.52794" lon="6.89274">
        <ele>325.4</ele>
        <time>2019-08-16T13:10:53Z</time>
      </trkpt>
      <trkpt lat="47.52795" lon="6.89267">
        <ele>325.4</ele>
        <time>2019-08-16T13:10:54Z</time>
      </trkpt>
      <trkpt lat="47.52795" lon="6.8926">
        <ele>325.4</ele>
        <time>2019-08-16T13:10:55Z</time>
      </trkpt>
      <trkpt lat="47.52796" lon="6.89254">
        <ele>325.4</ele>
        <time>2019-08-16T13:10:56Z</time>
      </trkpt>
      <trkpt lat="47.52798" lon="6.89247">
        <ele>325.4</ele>
        <time>2019-08-16T13:10:57Z</time>
      </trkpt>
      <trkpt lat="47.52799" lon="6.89239">
        <ele>325.4</ele>
        <time>2019-08-16T13:10:58Z</time>
      </trkpt>
      <trkpt lat="47.528" lon="6.89231">
        <ele>325.4</ele>
        <time>2019-08-16T13:10:59Z</time>
      </trkpt>
      <trkpt lat="47.528" lon="6.89224">
        <ele>325.4</ele>
        <time>2019-08-16T13:11:00Z</time>
      </trkpt>
      <trkpt lat="47.52801" lon="6.89217">
        <ele>325.4</ele>
        <time>2019-08-16T13:11:01Z</time>
      </trkpt>
      <trkpt lat="47.52803" lon="6.89211">
        <ele>325.4</ele>
        <time>2019-08-16T13:11:02Z</time>
      </trkpt>
      <trkpt lat="47.52804" lon="6.89205">
        <ele>325.4</ele>
        <time>2019-08-16T13:11:03Z</time>
      </trkpt>
      <trkpt lat="47.52805" lon="6.89199">
        <ele>325.3</ele>
        <time>2019-08-16T13:11:04Z</time>
      </trkpt>
      <trkpt lat="47.52805" lon="6.89193">
        <ele>325.3</ele>
        <time>2019-08-16T13:11:05Z</time>
      </trkpt>
      <trkpt lat="47.52806" lon="6.89188">
        <ele>325.3</ele>
        <time>2019-08-16T13:11:06Z</time>
      </trkpt>
      <trkpt lat="47.52807" lon="6.89182">
        <ele>325.3</ele>
        <time>2019-08-16T13:11:07Z</time>
      </trkpt>
      <trkpt lat="47.52808" lon="6.89176">
        <ele>325.3</ele>
        <time>2019-08-16T13:11:08Z</time>
      </trkpt>
      <trkpt lat="47.52808" lon="6.89169">
        <ele>325.3</ele>
        <time>2019-08-16T13:11:09Z</time>
      </trkpt>
      <trkpt lat="47.52807" lon="6.89162">
        <ele>325.3</ele>
        <time>2019-08-16T13:11:10Z</time>
      </trkpt>
      <trkpt lat="47.52807" lon="6.89155">
        <ele>325.3</ele>
        <time>2019-08-16T13:11:11Z</time>
      </trkpt>
      <trkpt lat="47.52806" lon="6.89149">
        <ele>325.2</ele>
        <time>2019-08-16T13:11:12Z</time>
      </trkpt>
      <trkpt lat="47.52807" lon="6.89143">
        <ele>325.2</ele>
        <time>2019-08-16T13:11:13Z</time>
      </trkpt>
      <trkpt lat="47.52807" lon="6.89136">
        <ele>325.2</ele>
        <time>2019-08-16T13:11:14Z</time>
      </trkpt>
      <trkpt lat="47.52807" lon="6.89131">
        <ele>325.2</ele>
        <time>2019-08-16T13:11:15Z</time>
      </trkpt>
      <trkpt lat="47.52807" lon="6.89124">
        <ele>325.1</ele>
        <time>2019-08-16T13:11:16Z</time>
      </trkpt>
      <trkpt lat="47.52807" lon="6.89117">
        <ele>325.1</ele>
        <time>2019-08-16T13:11:17Z</time>
      </trkpt>
      <trkpt lat="47.52808" lon="6.89109">
        <ele>325.1</ele>
        <time>2019-08-16T13:11:18Z</time>
      </trkpt>
      <trkpt lat="47.52809" lon="6.89102">
        <ele>325.1</ele>
        <time>2019-08-16T13:11:19Z</time>
      </trkpt>
      <trkpt lat="47.5281" lon="6.89096">
        <ele>325.1</ele>
        <time>2019-08-16T13:11:20Z</time>
      </trkpt>
      <trkpt lat="47.52811" lon="6.89089">
        <ele>325.1</ele>
        <time>2019-08-16T13:11:21Z</time>
      </trkpt>
      <trkpt lat="47.52812" lon="6.89082">
        <ele>325.1</ele>
        <time>2019-08-16T13:11:22Z</time>
      </trkpt>
      <trkpt lat="47.52812" lon="6.89075">
        <ele>325.1</ele>
        <time>2019-08-16T13:11:23Z</time>
      </trkpt>
      <trkpt lat="47.52812" lon="6.89068">
        <ele>325.1</ele>
        <time>2019-08-16T13:11:24Z</time>
      </trkpt>
      <trkpt lat="47.52813" lon="6.8906">
        <ele>325.1</ele>
        <time>2019-08-16T13:11:25Z</time>
      </trkpt>
      <trkpt lat="47.52814" lon="6.89053">
        <ele>325.1</ele>
        <time>2019-08-16T13:11:26Z</time>
      </trkpt>
      <trkpt lat="47.52814" lon="6.89045">
        <ele>325.1</ele>
        <time>2019-08-16T13:11:27Z</time>
      </trkpt>
      <trkpt lat="47.52815" lon="6.89037">
        <ele>325.1</ele>
        <time>2019-08-16T13:11:28Z</time>
      </trkpt>
      <trkpt lat="47.52815" lon="6.8903">
        <ele>325.1</ele>
        <time>2019-08-16T13:11:29Z</time>
      </trkpt>
      <trkpt lat="47.52815" lon="6.89022">
        <ele>325.1</ele>
        <time>2019-08-16T13:11:30Z</time>
      </trkpt>
      <trkpt lat="47.52816" lon="6.89014">
        <ele>325.1</ele>
        <time>2019-08-16T13:11:31Z</time>
      </trkpt>
      <trkpt lat="47.52817" lon="6.89007">
        <ele>325.2</ele>
        <time>2019-08-16T13:11:32Z</time>
      </trkpt>
      <trkpt lat="47.52817" lon="6.88999">
        <ele>325.2</ele>
        <time>2019-08-16T13:11:33Z</time>
      </trkpt>
      <trkpt lat="47.52817" lon="6.88992">
        <ele>325.2</ele>
        <time>2019-08-16T13:11:34Z</time>
      </trkpt>
      <trkpt lat="47.52818" lon="6.88984">
        <ele>325.3</ele>
        <time>2019-08-16T13:11:35Z</time>
      </trkpt>
      <trkpt lat="47.52818" lon="6.88976">
        <ele>325.4</ele>
        <time>2019-08-16T13:11:36Z</time>
      </trkpt>
      <trkpt lat="47.52818" lon="6.88967">
        <ele>325.5</ele>
        <time>2019-08-16T13:11:37Z</time>
      </trkpt>
      <trkpt lat="47.52818" lon="6.88957">
        <ele>325.6</ele>
        <time>2019-08-16T13:11:38Z</time>
      </trkpt>
      <trkpt lat="47.52817" lon="6.88949">
        <ele>325.8</ele>
        <time>2019-08-16T13:11:39Z</time>
      </trkpt>
      <trkpt lat="47.52817" lon="6.88942">
        <ele>325.9</ele>
        <time>2019-08-16T13:11:40Z</time>
      </trkpt>
      <trkpt lat="47.52816" lon="6.88933">
        <ele>326.2</ele>
        <time>2019-08-16T13:11:41Z</time>
      </trkpt>
      <trkpt lat="47.52815" lon="6.88926">
        <ele>326.4</ele>
        <time>2019-08-16T13:11:42Z</time>
      </trkpt>
      <trkpt lat="47.52813" lon="6.88919">
        <ele>326.6</ele>
        <time>2019-08-16T13:11:43Z</time>
      </trkpt>
      <trkpt lat="47.52812" lon="6.88911">
        <ele>326.9</ele>
        <time>2019-08-16T13:11:44Z</time>
      </trkpt>
      <trkpt lat="47.5281" lon="6.88906">
        <ele>327</ele>
        <time>2019-08-16T13:11:45Z</time>
      </trkpt>
      <trkpt lat="47.52809" lon="6.88899">
        <ele>327.3</ele>
        <time>2019-08-16T13:11:46Z</time>
      </trkpt>
      <trkpt lat="47.52808" lon="6.88892">
        <ele>327.4</ele>
        <time>2019-08-16T13:11:47Z</time>
      </trkpt>
      <trkpt lat="47.52807" lon="6.88886">
        <ele>327.6</ele>
        <time>2019-08-16T13:11:48Z</time>
      </trkpt>
      <trkpt lat="47.52805" lon="6.88878">
        <ele>327.8</ele>
        <time>2019-08-16T13:11:49Z</time>
      </trkpt>
      <trkpt lat="47.52804" lon="6.8887">
        <ele>328</ele>
        <time>2019-08-16T13:11:50Z</time>
      </trkpt>
      <trkpt lat="47.52803" lon="6.88863">
        <ele>328.2</ele>
        <time>2019-08-16T13:11:51Z</time>
      </trkpt>
      <trkpt lat="47.52802" lon="6.88856">
        <ele>328.3</ele>
        <time>2019-08-16T13:11:52Z</time>
      </trkpt>
      <trkpt lat="47.52802" lon="6.8885">
        <ele>328.4</ele>
        <time>2019-08-16T13:11:53Z</time>
      </trkpt>
      <trkpt lat="47.52801" lon="6.88845">
        <ele>328.5</ele>
        <time>2019-08-16T13:11:54Z</time>
      </trkpt>
      <trkpt lat="47.52806" lon="6.88842">
        <ele>328.6</ele>
        <time>2019-08-16T13:11:56Z</time>
      </trkpt>
      <trkpt lat="47.52809" lon="6.88839">
        <ele>328.6</ele>
        <time>2019-08-16T13:11:58Z</time>
      </trkpt>
      <trkpt lat="47.5281" lon="6.88833">
        <ele>328.7</ele>
        <time>2019-08-16T13:12:00Z</time>
      </trkpt>
      <trkpt lat="47.5281" lon="6.88829">
        <ele>328.8</ele>
        <time>2019-08-16T13:12:02Z</time>
      </trkpt>
      <trkpt lat="47.52806" lon="6.88826">
        <ele>328.8</ele>
        <time>2019-08-16T13:12:04Z</time>
      </trkpt>
      <trkpt lat="47.52802" lon="6.88823">
        <ele>328.9</ele>
        <time>2019-08-16T13:12:06Z</time>
      </trkpt>
      <trkpt lat="47.52796" lon="6.88825">
        <ele>328.9</ele>
        <time>2019-08-16T13:12:08Z</time>
      </trkpt>
      <trkpt lat="47.52792" lon="6.88827">
        <ele>328.8</ele>
        <time>2019-08-16T13:12:10Z</time>
      </trkpt>
      <trkpt lat="47.52788" lon="6.88826">
        <ele>328.5</ele>
        <time>2019-08-16T13:12:11Z</time>
      </trkpt>
      <trkpt lat="47.52784" lon="6.88829">
        <ele>328.3</ele>
        <time>2019-08-16T13:12:13Z</time>
      </trkpt>
      <trkpt lat="47.52779" lon="6.8883">
        <ele>328.2</ele>
        <time>2019-08-16T13:12:15Z</time>
      </trkpt>
      <trkpt lat="47.52776" lon="6.88831">
        <ele>328</ele>
        <time>2019-08-16T13:12:16Z</time>
      </trkpt>
      <trkpt lat="47.52773" lon="6.88834">
        <ele>327.9</ele>
        <time>2019-08-16T13:12:17Z</time>
      </trkpt>
      <trkpt lat="47.52771" lon="6.88836">
        <ele>327.8</ele>
        <time>2019-08-16T13:12:18Z</time>
      </trkpt>
      <trkpt lat="47.52768" lon="6.88836">
        <ele>327.7</ele>
        <time>2019-08-16T13:12:19Z</time>
      </trkpt>
      <trkpt lat="47.52765" lon="6.88834">
        <ele>327.6</ele>
        <time>2019-08-16T13:12:20Z</time>
      </trkpt>
      <trkpt lat="47.52762" lon="6.88826">
        <ele>327.7</ele>
        <time>2019-08-16T13:12:21Z</time>
      </trkpt>
      <trkpt lat="47.52759" lon="6.88818">
        <ele>328.1</ele>
        <time>2019-08-16T13:12:22Z</time>
      </trkpt>
      <trkpt lat="47.52756" lon="6.8881">
        <ele>328.7</ele>
        <time>2019-08-16T13:12:23Z</time>
      </trkpt>
      <trkpt lat="47.52753" lon="6.88801">
        <ele>329.1</ele>
        <time>2019-08-16T13:12:24Z</time>
      </trkpt>
      <trkpt lat="47.52751" lon="6.88793">
        <ele>329.5</ele>
        <time>2019-08-16T13:12:25Z</time>
      </trkpt>
      <trkpt lat="47.52748" lon="6.88785">
        <ele>330</ele>
        <time>2019-08-16T13:12:26Z</time>
      </trkpt>
      <trkpt lat="47.52746" lon="6.88776">
        <ele>330.7</ele>
        <time>2019-08-16T13:12:27Z</time>
      </trkpt>
      <trkpt lat="47.52744" lon="6.88767">
        <ele>331</ele>
        <time>2019-08-16T13:12:28Z</time>
      </trkpt>
      <trkpt lat="47.52742" lon="6.88758">
        <ele>331.3</ele>
        <time>2019-08-16T13:12:29Z</time>
      </trkpt>
      <trkpt lat="47.52741" lon="6.88748">
        <ele>331.7</ele>
        <time>2019-08-16T13:12:30Z</time>
      </trkpt>
      <trkpt lat="47.52741" lon="6.88736">
        <ele>330.9</ele>
        <time>2019-08-16T13:12:31Z</time>
      </trkpt>
      <trkpt lat="47.52741" lon="6.88725">
        <ele>330.5</ele>
        <time>2019-08-16T13:12:32Z</time>
      </trkpt>
      <trkpt lat="47.5274" lon="6.88715">
        <ele>330.1</ele>
        <time>2019-08-16T13:12:33Z</time>
      </trkpt>
      <trkpt lat="47.52736" lon="6.88708">
        <ele>329.8</ele>
        <time>2019-08-16T13:12:34Z</time>
      </trkpt>
      <trkpt lat="47.52733" lon="6.88701">
        <ele>329.4</ele>
        <time>2019-08-16T13:12:35Z</time>
      </trkpt>
      <trkpt lat="47.5273" lon="6.88694">
        <ele>329.1</ele>
        <time>2019-08-16T13:12:36Z</time>
      </trkpt>
      <trkpt lat="47.52728" lon="6.88688">
        <ele>328.9</ele>
        <time>2019-08-16T13:12:37Z</time>
      </trkpt>
      <trkpt lat="47.52726" lon="6.88681">
        <ele>328.7</ele>
        <time>2019-08-16T13:12:38Z</time>
      </trkpt>
      <trkpt lat="47.52723" lon="6.88675">
        <ele>328.4</ele>
        <time>2019-08-16T13:12:39Z</time>
      </trkpt>
      <trkpt lat="47.52721" lon="6.88669">
        <ele>328.3</ele>
        <time>2019-08-16T13:12:40Z</time>
      </trkpt>
      <trkpt lat="47.52717" lon="6.88662">
        <ele>328.1</ele>
        <time>2019-08-16T13:12:41Z</time>
      </trkpt>
      <trkpt lat="47.52714" lon="6.88656">
        <ele>328</ele>
        <time>2019-08-16T13:12:42Z</time>
      </trkpt>
      <trkpt lat="47.52712" lon="6.8865">
        <ele>327.9</ele>
        <time>2019-08-16T13:12:43Z</time>
      </trkpt>
      <trkpt lat="47.5271" lon="6.88644">
        <ele>327.8</ele>
        <time>2019-08-16T13:12:44Z</time>
      </trkpt>
      <trkpt lat="47.52707" lon="6.88637">
        <ele>327.8</ele>
        <time>2019-08-16T13:12:45Z</time>
      </trkpt>
      <trkpt lat="47.52705" lon="6.8863">
        <ele>327.7</ele>
        <time>2019-08-16T13:12:46Z</time>
      </trkpt>
      <trkpt lat="47.52702" lon="6.88624">
        <ele>327.7</ele>
        <time>2019-08-16T13:12:47Z</time>
      </trkpt>
      <trkpt lat="47.52699" lon="6.88619">
        <ele>327.7</ele>
        <time>2019-08-16T13:12:48Z</time>
      </trkpt>
      <trkpt lat="47.52697" lon="6.88613">
        <ele>327.7</ele>
        <time>2019-08-16T13:12:49Z</time>
      </trkpt>
      <trkpt lat="47.52695" lon="6.88607">
        <ele>327.7</ele>
        <time>2019-08-16T13:12:50Z</time>
      </trkpt>
      <trkpt lat="47.52692" lon="6.88603">
        <ele>327.6</ele>
        <time>2019-08-16T13:12:51Z</time>
      </trkpt>
      <trkpt lat="47.52688" lon="6.88596">
        <ele>327.6</ele>
        <time>2019-08-16T13:12:52Z</time>
      </trkpt>
      <trkpt lat="47.52685" lon="6.88591">
        <ele>327.6</ele>
        <time>2019-08-16T13:12:53Z</time>
      </trkpt>
      <trkpt lat="47.52682" lon="6.88584">
        <ele>327.6</ele>
        <time>2019-08-16T13:12:54Z</time>
      </trkpt>
      <trkpt lat="47.52679" lon="6.88578">
        <ele>327.6</ele>
        <time>2019-08-16T13:12:55Z</time>
      </trkpt>
      <trkpt lat="47.52676" lon="6.88572">
        <ele>327.6</ele>
        <time>2019-08-16T13:12:56Z</time>
      </trkpt>
      <trkpt lat="47.52673" lon="6.88566">
        <ele>327.5</ele>
        <time>2019-08-16T13:12:57Z</time>
      </trkpt>
      <trkpt lat="47.52669" lon="6.88561">
        <ele>327.5</ele>
        <time>2019-08-16T13:12:58Z</time>
      </trkpt>
      <trkpt lat="47.52665" lon="6.88556">
        <ele>327.5</ele>
        <time>2019-08-16T13:12:59Z</time>
      </trkpt>
      <trkpt lat="47.52662" lon="6.88552">
        <ele>327.5</ele>
        <time>2019-08-16T13:13:00Z</time>
      </trkpt>
      <trkpt lat="47.52658" lon="6.88547">
        <ele>327.5</ele>
        <time>2019-08-16T13:13:01Z</time>
      </trkpt>
      <trkpt lat="47.52654" lon="6.88542">
        <ele>327.5</ele>
        <time>2019-08-16T13:13:02Z</time>
      </trkpt>
      <trkpt lat="47.52651" lon="6.88536">
        <ele>327.5</ele>
        <time>2019-08-16T13:13:03Z</time>
      </trkpt>
      <trkpt lat="47.52647" lon="6.8853">
        <ele>327.5</ele>
        <time>2019-08-16T13:13:04Z</time>
      </trkpt>
      <trkpt lat="47.52643" lon="6.88524">
        <ele>327.5</ele>
        <time>2019-08-16T13:13:05Z</time>
      </trkpt>
      <trkpt lat="47.52639" lon="6.88519">
        <ele>327.5</ele>
        <time>2019-08-16T13:13:06Z</time>
      </trkpt>
      <trkpt lat="47.52635" lon="6.88514">
        <ele>327.5</ele>
        <time>2019-08-16T13:13:07Z</time>
      </trkpt>
      <trkpt lat="47.5263" lon="6.8851">
        <ele>327.5</ele>
        <time>2019-08-16T13:13:08Z</time>
      </trkpt>
      <trkpt lat="47.52626" lon="6.88504">
        <ele>327.5</ele>
        <time>2019-08-16T13:13:09Z</time>
      </trkpt>
      <trkpt lat="47.52622" lon="6.88498">
        <ele>327.5</ele>
        <time>2019-08-16T13:13:10Z</time>
      </trkpt>
      <trkpt lat="47.52619" lon="6.88493">
        <ele>327.5</ele>
        <time>2019-08-16T13:13:11Z</time>
      </trkpt>
      <trkpt lat="47.52615" lon="6.88487">
        <ele>327.5</ele>
        <time>2019-08-16T13:13:12Z</time>
      </trkpt>
      <trkpt lat="47.52611" lon="6.88482">
        <ele>327.4</ele>
        <time>2019-08-16T13:13:13Z</time>
      </trkpt>
      <trkpt lat="47.52608" lon="6.88477">
        <ele>327.4</ele>
        <time>2019-08-16T13:13:14Z</time>
      </trkpt>
      <trkpt lat="47.52604" lon="6.88473">
        <ele>327.4</ele>
        <time>2019-08-16T13:13:15Z</time>
      </trkpt>
      <trkpt lat="47.52601" lon="6.88468">
        <ele>327.4</ele>
        <time>2019-08-16T13:13:16Z</time>
      </trkpt>
      <trkpt lat="47.52598" lon="6.88463">
        <ele>327.4</ele>
        <time>2019-08-16T13:13:17Z</time>
      </trkpt>
      <trkpt lat="47.52595" lon="6.88458">
        <ele>327.4</ele>
        <time>2019-08-16T13:13:18Z</time>
      </trkpt>
      <trkpt lat="47.52592" lon="6.88453">
        <ele>327.3</ele>
        <time>2019-08-16T13:13:19Z</time>
      </trkpt>
      <trkpt lat="47.5259" lon="6.88447">
        <ele>327.3</ele>
        <time>2019-08-16T13:13:20Z</time>
      </trkpt>
      <trkpt lat="47.52587" lon="6.88443">
        <ele>327.3</ele>
        <time>2019-08-16T13:13:21Z</time>
      </trkpt>
      <trkpt lat="47.52585" lon="6.8844">
        <ele>327.3</ele>
        <time>2019-08-16T13:13:22Z</time>
      </trkpt>
      <trkpt lat="47.52582" lon="6.88436">
        <ele>327.3</ele>
        <time>2019-08-16T13:13:23Z</time>
      </trkpt>
      <trkpt lat="47.52579" lon="6.88433">
        <ele>327.3</ele>
        <time>2019-08-16T13:13:24Z</time>
      </trkpt>
      <trkpt lat="47.52576" lon="6.88429">
        <ele>327.3</ele>
        <time>2019-08-16T13:13:25Z</time>
      </trkpt>
      <trkpt lat="47.52573" lon="6.88425">
        <ele>327.3</ele>
        <time>2019-08-16T13:13:26Z</time>
      </trkpt>
      <trkpt lat="47.52569" lon="6.88421">
        <ele>327.3</ele>
        <time>2019-08-16T13:13:27Z</time>
      </trkpt>
      <trkpt lat="47.52566" lon="6.88419">
        <ele>327.3</ele>
        <time>2019-08-16T13:13:28Z</time>
      </trkpt>
      <trkpt lat="47.52563" lon="6.88415">
        <ele>327.3</ele>
        <time>2019-08-16T13:13:29Z</time>
      </trkpt>
      <trkpt lat="47.5256" lon="6.88411">
        <ele>327.3</ele>
        <time>2019-08-16T13:13:30Z</time>
      </trkpt>
      <trkpt lat="47.52556" lon="6.88406">
        <ele>327.3</ele>
        <time>2019-08-16T13:13:31Z</time>
      </trkpt>
      <trkpt lat="47.52553" lon="6.884">
        <ele>327.3</ele>
        <time>2019-08-16T13:13:32Z</time>
      </trkpt>
      <trkpt lat="47.52549" lon="6.88394">
        <ele>327.3</ele>
        <time>2019-08-16T13:13:33Z</time>
      </trkpt>
      <trkpt lat="47.52545" lon="6.8839">
        <ele>327.3</ele>
        <time>2019-08-16T13:13:34Z</time>
      </trkpt>
      <trkpt lat="47.52542" lon="6.88385">
        <ele>327.3</ele>
        <time>2019-08-16T13:13:35Z</time>
      </trkpt>
      <trkpt lat="47.52539" lon="6.88381">
        <ele>327.3</ele>
        <time>2019-08-16T13:13:36Z</time>
      </trkpt>
      <trkpt lat="47.52537" lon="6.88377">
        <ele>327.3</ele>
        <time>2019-08-16T13:13:37Z</time>
      </trkpt>
      <trkpt lat="47.52534" lon="6.88373">
        <ele>327.3</ele>
        <time>2019-08-16T13:13:38Z</time>
      </trkpt>
      <trkpt lat="47.5253" lon="6.8837">
        <ele>327.3</ele>
        <time>2019-08-16T13:13:39Z</time>
      </trkpt>
      <trkpt lat="47.52527" lon="6.88365">
        <ele>327.3</ele>
        <time>2019-08-16T13:13:40Z</time>
      </trkpt>
      <trkpt lat="47.52524" lon="6.8836">
        <ele>327.4</ele>
        <time>2019-08-16T13:13:41Z</time>
      </trkpt>
      <trkpt lat="47.52521" lon="6.88355">
        <ele>327.4</ele>
        <time>2019-08-16T13:13:42Z</time>
      </trkpt>
      <trkpt lat="47.52517" lon="6.88349">
        <ele>327.4</ele>
        <time>2019-08-16T13:13:43Z</time>
      </trkpt>
      <trkpt lat="47.52513" lon="6.88343">
        <ele>327.4</ele>
        <time>2019-08-16T13:13:44Z</time>
      </trkpt>
      <trkpt lat="47.52509" lon="6.88336">
        <ele>327.4</ele>
        <time>2019-08-16T13:13:45Z</time>
      </trkpt>
      <trkpt lat="47.52505" lon="6.8833">
        <ele>327.5</ele>
        <time>2019-08-16T13:13:46Z</time>
      </trkpt>
      <trkpt lat="47.52501" lon="6.88326">
        <ele>327.5</ele>
        <time>2019-08-16T13:13:47Z</time>
      </trkpt>
      <trkpt lat="47.52497" lon="6.88321">
        <ele>327.5</ele>
        <time>2019-08-16T13:13:48Z</time>
      </trkpt>
      <trkpt lat="47.52492" lon="6.88317">
        <ele>327.5</ele>
        <time>2019-08-16T13:13:49Z</time>
      </trkpt>
      <trkpt lat="47.52488" lon="6.88313">
        <ele>327.5</ele>
        <time>2019-08-16T13:13:50Z</time>
      </trkpt>
      <trkpt lat="47.52483" lon="6.88309">
        <ele>327.5</ele>
        <time>2019-08-16T13:13:51Z</time>
      </trkpt>
      <trkpt lat="47.5248" lon="6.88304">
        <ele>327.5</ele>
        <time>2019-08-16T13:13:52Z</time>
      </trkpt>
      <trkpt lat="47.52476" lon="6.88298">
        <ele>327.5</ele>
        <time>2019-08-16T13:13:53Z</time>
      </trkpt>
      <trkpt lat="47.52472" lon="6.88292">
        <ele>327.5</ele>
        <time>2019-08-16T13:13:54Z</time>
      </trkpt>
      <trkpt lat="47.52468" lon="6.88286">
        <ele>327.5</ele>
        <time>2019-08-16T13:13:55Z</time>
      </trkpt>
      <trkpt lat="47.52464" lon="6.88281">
        <ele>327.5</ele>
        <time>2019-08-16T13:13:56Z</time>
      </trkpt>
      <trkpt lat="47.5246" lon="6.88276">
        <ele>327.5</ele>
        <time>2019-08-16T13:13:57Z</time>
      </trkpt>
      <trkpt lat="47.52456" lon="6.88272">
        <ele>327.5</ele>
        <time>2019-08-16T13:13:58Z</time>
      </trkpt>
      <trkpt lat="47.52453" lon="6.88266">
        <ele>327.5</ele>
        <time>2019-08-16T13:13:59Z</time>
      </trkpt>
      <trkpt lat="47.52449" lon="6.88261">
        <ele>327.6</ele>
        <time>2019-08-16T13:14:00Z</time>
      </trkpt>
      <trkpt lat="47.52446" lon="6.88256">
        <ele>327.6</ele>
        <time>2019-08-16T13:14:01Z</time>
      </trkpt>
      <trkpt lat="47.52444" lon="6.88252">
        <ele>327.6</ele>
        <time>2019-08-16T13:14:02Z</time>
      </trkpt>
      <trkpt lat="47.52441" lon="6.88247">
        <ele>327.6</ele>
        <time>2019-08-16T13:14:03Z</time>
      </trkpt>
      <trkpt lat="47.52438" lon="6.88241">
        <ele>327.6</ele>
        <time>2019-08-16T13:14:04Z</time>
      </trkpt>
      <trkpt lat="47.52435" lon="6.88235">
        <ele>327.7</ele>
        <time>2019-08-16T13:14:05Z</time>
      </trkpt>
      <trkpt lat="47.52432" lon="6.88228">
        <ele>327.7</ele>
        <time>2019-08-16T13:14:06Z</time>
      </trkpt>
      <trkpt lat="47.5243" lon="6.88221">
        <ele>327.7</ele>
        <time>2019-08-16T13:14:07Z</time>
      </trkpt>
      <trkpt lat="47.52428" lon="6.88214">
        <ele>327.7</ele>
        <time>2019-08-16T13:14:08Z</time>
      </trkpt>
      <trkpt lat="47.52425" lon="6.88205">
        <ele>327.7</ele>
        <time>2019-08-16T13:14:09Z</time>
      </trkpt>
      <trkpt lat="47.52423" lon="6.88197">
        <ele>327.8</ele>
        <time>2019-08-16T13:14:10Z</time>
      </trkpt>
      <trkpt lat="47.52422" lon="6.88189">
        <ele>327.8</ele>
        <time>2019-08-16T13:14:11Z</time>
      </trkpt>
      <trkpt lat="47.52421" lon="6.88183">
        <ele>327.8</ele>
        <time>2019-08-16T13:14:12Z</time>
      </trkpt>
      <trkpt lat="47.5242" lon="6.88177">
        <ele>327.9</ele>
        <time>2019-08-16T13:14:13Z</time>
      </trkpt>
      <trkpt lat="47.52419" lon="6.88171">
        <ele>327.9</ele>
        <time>2019-08-16T13:14:14Z</time>
      </trkpt>
      <trkpt lat="47.52418" lon="6.88164">
        <ele>327.9</ele>
        <time>2019-08-16T13:14:15Z</time>
      </trkpt>
      <trkpt lat="47.52417" lon="6.88157">
        <ele>328</ele>
        <time>2019-08-16T13:14:16Z</time>
      </trkpt>
      <trkpt lat="47.52416" lon="6.8815">
        <ele>328</ele>
        <time>2019-08-16T13:14:17Z</time>
      </trkpt>
      <trkpt lat="47.52413" lon="6.88144">
        <ele>328</ele>
        <time>2019-08-16T13:14:18Z</time>
      </trkpt>
      <trkpt lat="47.52411" lon="6.88138">
        <ele>328.1</ele>
        <time>2019-08-16T13:14:19Z</time>
      </trkpt>
      <trkpt lat="47.52408" lon="6.8813">
        <ele>328.1</ele>
        <time>2019-08-16T13:14:20Z</time>
      </trkpt>
      <trkpt lat="47.52406" lon="6.88122">
        <ele>328.1</ele>
        <time>2019-08-16T13:14:21Z</time>
      </trkpt>
      <trkpt lat="47.52404" lon="6.88114">
        <ele>328.1</ele>
        <time>2019-08-16T13:14:22Z</time>
      </trkpt>
      <trkpt lat="47.52402" lon="6.88106">
        <ele>328.2</ele>
        <time>2019-08-16T13:14:23Z</time>
      </trkpt>
      <trkpt lat="47.52401" lon="6.88099">
        <ele>328.2</ele>
        <time>2019-08-16T13:14:24Z</time>
      </trkpt>
      <trkpt lat="47.52399" lon="6.88092">
        <ele>328.2</ele>
        <time>2019-08-16T13:14:25Z</time>
      </trkpt>
      <trkpt lat="47.52398" lon="6.88085">
        <ele>328.2</ele>
        <time>2019-08-16T13:14:26Z</time>
      </trkpt>
      <trkpt lat="47.52397" lon="6.88079">
        <ele>328.2</ele>
        <time>2019-08-16T13:14:27Z</time>
      </trkpt>
      <trkpt lat="47.52396" lon="6.88071">
        <ele>328.3</ele>
        <time>2019-08-16T13:14:28Z</time>
      </trkpt>
      <trkpt lat="47.52395" lon="6.88064">
        <ele>328.3</ele>
        <time>2019-08-16T13:14:29Z</time>
      </trkpt>
      <trkpt lat="47.52394" lon="6.88057">
        <ele>328.3</ele>
        <time>2019-08-16T13:14:30Z</time>
      </trkpt>
      <trkpt lat="47.52393" lon="6.8805">
        <ele>328.3</ele>
        <time>2019-08-16T13:14:31Z</time>
      </trkpt>
      <trkpt lat="47.52392" lon="6.88045">
        <ele>328.3</ele>
        <time>2019-08-16T13:14:32Z</time>
      </trkpt>
      <trkpt lat="47.52389" lon="6.8804">
        <ele>328.3</ele>
        <time>2019-08-16T13:14:33Z</time>
      </trkpt>
      <trkpt lat="47.52384" lon="6.88035">
        <ele>328.3</ele>
        <time>2019-08-16T13:14:34Z</time>
      </trkpt>
      <trkpt lat="47.52377" lon="6.88031">
        <ele>328.3</ele>
        <time>2019-08-16T13:14:35Z</time>
      </trkpt>
      <trkpt lat="47.52371" lon="6.88029">
        <ele>328.3</ele>
        <time>2019-08-16T13:14:36Z</time>
      </trkpt>
      <trkpt lat="47.52365" lon="6.88029">
        <ele>328.3</ele>
        <time>2019-08-16T13:14:37Z</time>
      </trkpt>
      <trkpt lat="47.5236" lon="6.8803">
        <ele>328.4</ele>
        <time>2019-08-16T13:14:38Z</time>
      </trkpt>
      <trkpt lat="47.52355" lon="6.88031">
        <ele>328.4</ele>
        <time>2019-08-16T13:14:39Z</time>
      </trkpt>
      <trkpt lat="47.52351" lon="6.88032">
        <ele>328.4</ele>
        <time>2019-08-16T13:14:40Z</time>
      </trkpt>
      <trkpt lat="47.52347" lon="6.88031">
        <ele>328.4</ele>
        <time>2019-08-16T13:14:41Z</time>
      </trkpt>
      <trkpt lat="47.52344" lon="6.88032">
        <ele>328.4</ele>
        <time>2019-08-16T13:14:42Z</time>
      </trkpt>
      <trkpt lat="47.5234" lon="6.88033">
        <ele>328.4</ele>
        <time>2019-08-16T13:14:43Z</time>
      </trkpt>
      <trkpt lat="47.52337" lon="6.88035">
        <ele>328.5</ele>
        <time>2019-08-16T13:14:44Z</time>
      </trkpt>
      <trkpt lat="47.52333" lon="6.88034">
        <ele>328.5</ele>
        <time>2019-08-16T13:14:45Z</time>
      </trkpt>
      <trkpt lat="47.52328" lon="6.88035">
        <ele>328.5</ele>
        <time>2019-08-16T13:14:46Z</time>
      </trkpt>
      <trkpt lat="47.52326" lon="6.8804">
        <ele>328.5</ele>
        <time>2019-08-16T13:14:47Z</time>
      </trkpt>
      <trkpt lat="47.52323" lon="6.88044">
        <ele>328.1</ele>
        <time>2019-08-16T13:14:48Z</time>
      </trkpt>
      <trkpt lat="47.52321" lon="6.88047">
        <ele>327.7</ele>
        <time>2019-08-16T13:14:49Z</time>
      </trkpt>
      <trkpt lat="47.52317" lon="6.88048">
        <ele>327.3</ele>
        <time>2019-08-16T13:14:50Z</time>
      </trkpt>
      <trkpt lat="47.52315" lon="6.88051">
        <ele>326.9</ele>
        <time>2019-08-16T13:14:51Z</time>
      </trkpt>
      <trkpt lat="47.52312" lon="6.88054">
        <ele>326.5</ele>
        <time>2019-08-16T13:14:52Z</time>
      </trkpt>
      <trkpt lat="47.52309" lon="6.88056">
        <ele>326.1</ele>
        <time>2019-08-16T13:14:53Z</time>
      </trkpt>
      <trkpt lat="47.52306" lon="6.8806">
        <ele>325.7</ele>
        <time>2019-08-16T13:14:54Z</time>
      </trkpt>
      <trkpt lat="47.52303" lon="6.88064">
        <ele>325.3</ele>
        <time>2019-08-16T13:14:55Z</time>
      </trkpt>
      <trkpt lat="47.52301" lon="6.88068">
        <ele>324.8</ele>
        <time>2019-08-16T13:14:56Z</time>
      </trkpt>
      <trkpt lat="47.52299" lon="6.88072">
        <ele>324.5</ele>
        <time>2019-08-16T13:14:57Z</time>
      </trkpt>
      <trkpt lat="47.52297" lon="6.88076">
        <ele>324.1</ele>
        <time>2019-08-16T13:14:58Z</time>
      </trkpt>
      <trkpt lat="47.52294" lon="6.88079">
        <ele>323.6</ele>
        <time>2019-08-16T13:14:59Z</time>
      </trkpt>
      <trkpt lat="47.52292" lon="6.88084">
        <ele>323.5</ele>
        <time>2019-08-16T13:15:00Z</time>
      </trkpt>
      <trkpt lat="47.5229" lon="6.88087">
        <ele>323.5</ele>
        <time>2019-08-16T13:15:01Z</time>
      </trkpt>
      <trkpt lat="47.52288" lon="6.88089">
        <ele>323.4</ele>
        <time>2019-08-16T13:15:02Z</time>
      </trkpt>
      <trkpt lat="47.52286" lon="6.88092">
        <ele>323.4</ele>
        <time>2019-08-16T13:15:03Z</time>
      </trkpt>
      <trkpt lat="47.52284" lon="6.88095">
        <ele>323.4</ele>
        <time>2019-08-16T13:15:04Z</time>
      </trkpt>
      <trkpt lat="47.52282" lon="6.88099">
        <ele>323.4</ele>
        <time>2019-08-16T13:15:05Z</time>
      </trkpt>
      <trkpt lat="47.5228" lon="6.88104">
        <ele>323.3</ele>
        <time>2019-08-16T13:15:06Z</time>
      </trkpt>
      <trkpt lat="47.52278" lon="6.88109">
        <ele>323.3</ele>
        <time>2019-08-16T13:15:07Z</time>
      </trkpt>
      <trkpt lat="47.52275" lon="6.88114">
        <ele>323.2</ele>
        <time>2019-08-16T13:15:08Z</time>
      </trkpt>
      <trkpt lat="47.52272" lon="6.88119">
        <ele>323.2</ele>
        <time>2019-08-16T13:15:09Z</time>
      </trkpt>
      <trkpt lat="47.5227" lon="6.88123">
        <ele>323.2</ele>
        <time>2019-08-16T13:15:10Z</time>
      </trkpt>
      <trkpt lat="47.52266" lon="6.88129">
        <ele>323.1</ele>
        <time>2019-08-16T13:15:11Z</time>
      </trkpt>
      <trkpt lat="47.52264" lon="6.88133">
        <ele>323.1</ele>
        <time>2019-08-16T13:15:12Z</time>
      </trkpt>
      <trkpt lat="47.52262" lon="6.88137">
        <ele>323.1</ele>
        <time>2019-08-16T13:15:13Z</time>
      </trkpt>
      <trkpt lat="47.5226" lon="6.8814">
        <ele>323</ele>
        <time>2019-08-16T13:15:14Z</time>
      </trkpt>
      <trkpt lat="47.52256" lon="6.8814">
        <ele>322.8</ele>
        <time>2019-08-16T13:15:16Z</time>
      </trkpt>
      <trkpt lat="47.52255" lon="6.88137">
        <ele>322.7</ele>
        <time>2019-08-16T13:15:17Z</time>
      </trkpt>
      <trkpt lat="47.52253" lon="6.88134">
        <ele>322.5</ele>
        <time>2019-08-16T13:15:18Z</time>
      </trkpt>
      <trkpt lat="47.52251" lon="6.88129">
        <ele>322.3</ele>
        <time>2019-08-16T13:15:19Z</time>
      </trkpt>
      <trkpt lat="47.52249" lon="6.88126">
        <ele>322.2</ele>
        <time>2019-08-16T13:15:20Z</time>
      </trkpt>
      <trkpt lat="47.52247" lon="6.88122">
        <ele>322.1</ele>
        <time>2019-08-16T13:15:21Z</time>
      </trkpt>
      <trkpt lat="47.52243" lon="6.88116">
        <ele>322</ele>
        <time>2019-08-16T13:15:23Z</time>
      </trkpt>
      <trkpt lat="47.52241" lon="6.88112">
        <ele>322</ele>
        <time>2019-08-16T13:15:24Z</time>
      </trkpt>
      <trkpt lat="47.52238" lon="6.88109">
        <ele>322</ele>
        <time>2019-08-16T13:15:26Z</time>
      </trkpt>
      <trkpt lat="47.52234" lon="6.8811">
        <ele>322</ele>
        <time>2019-08-16T13:15:28Z</time>
      </trkpt>
      <trkpt lat="47.52231" lon="6.88112">
        <ele>322</ele>
        <time>2019-08-16T13:15:29Z</time>
      </trkpt>
      <trkpt lat="47.52228" lon="6.88116">
        <ele>322</ele>
        <time>2019-08-16T13:15:30Z</time>
      </trkpt>
      <trkpt lat="47.52224" lon="6.8812">
        <ele>322</ele>
        <time>2019-08-16T13:15:31Z</time>
      </trkpt>
      <trkpt lat="47.52222" lon="6.88127">
        <ele>322</ele>
        <time>2019-08-16T13:15:32Z</time>
      </trkpt>
      <trkpt lat="47.52218" lon="6.88132">
        <ele>322.1</ele>
        <time>2019-08-16T13:15:33Z</time>
      </trkpt>
      <trkpt lat="47.52214" lon="6.88138">
        <ele>322.1</ele>
        <time>2019-08-16T13:15:34Z</time>
      </trkpt>
      <trkpt lat="47.5221" lon="6.88143">
        <ele>322.1</ele>
        <time>2019-08-16T13:15:35Z</time>
      </trkpt>
      <trkpt lat="47.52206" lon="6.88149">
        <ele>322.1</ele>
        <time>2019-08-16T13:15:36Z</time>
      </trkpt>
      <trkpt lat="47.52202" lon="6.88152">
        <ele>322.2</ele>
        <time>2019-08-16T13:15:37Z</time>
      </trkpt>
      <trkpt lat="47.52198" lon="6.88158">
        <ele>322.2</ele>
        <time>2019-08-16T13:15:38Z</time>
      </trkpt>
      <trkpt lat="47.52193" lon="6.88163">
        <ele>322.2</ele>
        <time>2019-08-16T13:15:39Z</time>
      </trkpt>
      <trkpt lat="47.52189" lon="6.88168">
        <ele>322.2</ele>
        <time>2019-08-16T13:15:40Z</time>
      </trkpt>
      <trkpt lat="47.52186" lon="6.88172">
        <ele>322.2</ele>
        <time>2019-08-16T13:15:41Z</time>
      </trkpt>
      <trkpt lat="47.52183" lon="6.88176">
        <ele>322.2</ele>
        <time>2019-08-16T13:15:42Z</time>
      </trkpt>
      <trkpt lat="47.5218" lon="6.88179">
        <ele>322.2</ele>
        <time>2019-08-16T13:15:43Z</time>
      </trkpt>
      <trkpt lat="47.52175" lon="6.88182">
        <ele>322.2</ele>
        <time>2019-08-16T13:15:44Z</time>
      </trkpt>
      <trkpt lat="47.52172" lon="6.88185">
        <ele>322.2</ele>
        <time>2019-08-16T13:15:45Z</time>
      </trkpt>
      <trkpt lat="47.52167" lon="6.88188">
        <ele>322.2</ele>
        <time>2019-08-16T13:15:46Z</time>
      </trkpt>
      <trkpt lat="47.52162" lon="6.8819">
        <ele>322.3</ele>
        <time>2019-08-16T13:15:47Z</time>
      </trkpt>
      <trkpt lat="47.52159" lon="6.88194">
        <ele>322.3</ele>
        <time>2019-08-16T13:15:48Z</time>
      </trkpt>
      <trkpt lat="47.52154" lon="6.88197">
        <ele>322.3</ele>
        <time>2019-08-16T13:15:49Z</time>
      </trkpt>
      <trkpt lat="47.5215" lon="6.88199">
        <ele>322.3</ele>
        <time>2019-08-16T13:15:50Z</time>
      </trkpt>
      <trkpt lat="47.52145" lon="6.88202">
        <ele>322.3</ele>
        <time>2019-08-16T13:15:51Z</time>
      </trkpt>
      <trkpt lat="47.52141" lon="6.88203">
        <ele>322.3</ele>
        <time>2019-08-16T13:15:52Z</time>
      </trkpt>
      <trkpt lat="47.52135" lon="6.88205">
        <ele>322.4</ele>
        <time>2019-08-16T13:15:53Z</time>
      </trkpt>
      <trkpt lat="47.5213" lon="6.88205">
        <ele>322.4</ele>
        <time>2019-08-16T13:15:54Z</time>
      </trkpt>
      <trkpt lat="47.52126" lon="6.88208">
        <ele>322.3</ele>
        <time>2019-08-16T13:15:55Z</time>
      </trkpt>
      <trkpt lat="47.52121" lon="6.8821">
        <ele>322.3</ele>
        <time>2019-08-16T13:15:56Z</time>
      </trkpt>
      <trkpt lat="47.52115" lon="6.88212">
        <ele>322.3</ele>
        <time>2019-08-16T13:15:57Z</time>
      </trkpt>
      <trkpt lat="47.52109" lon="6.88213">
        <ele>322.3</ele>
        <time>2019-08-16T13:15:58Z</time>
      </trkpt>
      <trkpt lat="47.52104" lon="6.88215">
        <ele>322.2</ele>
        <time>2019-08-16T13:15:59Z</time>
      </trkpt>
      <trkpt lat="47.52099" lon="6.88217">
        <ele>322.2</ele>
        <time>2019-08-16T13:16:00Z</time>
      </trkpt>
      <trkpt lat="47.52093" lon="6.88216">
        <ele>322.2</ele>
        <time>2019-08-16T13:16:01Z</time>
      </trkpt>
      <trkpt lat="47.52088" lon="6.88216">
        <ele>322.1</ele>
        <time>2019-08-16T13:16:02Z</time>
      </trkpt>
      <trkpt lat="47.52084" lon="6.88217">
        <ele>322.1</ele>
        <time>2019-08-16T13:16:03Z</time>
      </trkpt>
      <trkpt lat="47.52078" lon="6.88216">
        <ele>322</ele>
        <time>2019-08-16T13:16:04Z</time>
      </trkpt>
      <trkpt lat="47.52074" lon="6.88216">
        <ele>322</ele>
        <time>2019-08-16T13:16:05Z</time>
      </trkpt>
      <trkpt lat="47.52068" lon="6.88215">
        <ele>321.9</ele>
        <time>2019-08-16T13:16:06Z</time>
      </trkpt>
      <trkpt lat="47.52063" lon="6.88214">
        <ele>321.8</ele>
        <time>2019-08-16T13:16:07Z</time>
      </trkpt>
      <trkpt lat="47.52059" lon="6.88213">
        <ele>321.7</ele>
        <time>2019-08-16T13:16:08Z</time>
      </trkpt>
      <trkpt lat="47.52055" lon="6.88212">
        <ele>321.6</ele>
        <time>2019-08-16T13:16:09Z</time>
      </trkpt>
      <trkpt lat="47.52051" lon="6.88208">
        <ele>321.5</ele>
        <time>2019-08-16T13:16:10Z</time>
      </trkpt>
      <trkpt lat="47.52046" lon="6.88203">
        <ele>321.5</ele>
        <time>2019-08-16T13:16:11Z</time>
      </trkpt>
      <trkpt lat="47.52042" lon="6.88197">
        <ele>321.4</ele>
        <time>2019-08-16T13:16:12Z</time>
      </trkpt>
      <trkpt lat="47.52036" lon="6.8819">
        <ele>321.4</ele>
        <time>2019-08-16T13:16:13Z</time>
      </trkpt>
      <trkpt lat="47.52031" lon="6.88182">
        <ele>321.4</ele>
        <time>2019-08-16T13:16:14Z</time>
      </trkpt>
      <trkpt lat="47.52027" lon="6.88174">
        <ele>321.4</ele>
        <time>2019-08-16T13:16:15Z</time>
      </trkpt>
      <trkpt lat="47.52023" lon="6.88168">
        <ele>321.4</ele>
        <time>2019-08-16T13:16:16Z</time>
      </trkpt>
      <trkpt lat="47.52019" lon="6.88162">
        <ele>321.5</ele>
        <time>2019-08-16T13:16:17Z</time>
      </trkpt>
      <trkpt lat="47.52014" lon="6.88155">
        <ele>321.6</ele>
        <time>2019-08-16T13:16:18Z</time>
      </trkpt>
      <trkpt lat="47.5201" lon="6.88147">
        <ele>321.8</ele>
        <time>2019-08-16T13:16:19Z</time>
      </trkpt>
      <trkpt lat="47.52006" lon="6.88138">
        <ele>321.7</ele>
        <time>2019-08-16T13:16:20Z</time>
      </trkpt>
      <trkpt lat="47.52003" lon="6.88129">
        <ele>321.7</ele>
        <time>2019-08-16T13:16:21Z</time>
      </trkpt>
      <trkpt lat="47.52" lon="6.88121">
        <ele>321.7</ele>
        <time>2019-08-16T13:16:22Z</time>
      </trkpt>
      <trkpt lat="47.51997" lon="6.88113">
        <ele>321.6</ele>
        <time>2019-08-16T13:16:23Z</time>
      </trkpt>
      <trkpt lat="47.51995" lon="6.88106">
        <ele>321.6</ele>
        <time>2019-08-16T13:16:24Z</time>
      </trkpt>
      <trkpt lat="47.51993" lon="6.88098">
        <ele>321.5</ele>
        <time>2019-08-16T13:16:25Z</time>
      </trkpt>
      <trkpt lat="47.5199" lon="6.88092">
        <ele>321.5</ele>
        <time>2019-08-16T13:16:26Z</time>
      </trkpt>
      <trkpt lat="47.51988" lon="6.88085">
        <ele>321.5</ele>
        <time>2019-08-16T13:16:27Z</time>
      </trkpt>
      <trkpt lat="47.51986" lon="6.88078">
        <ele>321.4</ele>
        <time>2019-08-16T13:16:28Z</time>
      </trkpt>
      <trkpt lat="47.51984" lon="6.88072">
        <ele>321.4</ele>
        <time>2019-08-16T13:16:29Z</time>
      </trkpt>
      <trkpt lat="47.51982" lon="6.88066">
        <ele>321.4</ele>
        <time>2019-08-16T13:16:30Z</time>
      </trkpt>
      <trkpt lat="47.5198" lon="6.88059">
        <ele>321.4</ele>
        <time>2019-08-16T13:16:31Z</time>
      </trkpt>
      <trkpt lat="47.51979" lon="6.88052">
        <ele>321.4</ele>
        <time>2019-08-16T13:16:32Z</time>
      </trkpt>
      <trkpt lat="47.51977" lon="6.88044">
        <ele>321.4</ele>
        <time>2019-08-16T13:16:33Z</time>
      </trkpt>
      <trkpt lat="47.51975" lon="6.88037">
        <ele>321.4</ele>
        <time>2019-08-16T13:16:34Z</time>
      </trkpt>
      <trkpt lat="47.51973" lon="6.8803">
        <ele>321.4</ele>
        <time>2019-08-16T13:16:35Z</time>
      </trkpt>
      <trkpt lat="47.5197" lon="6.88026">
        <ele>321.4</ele>
        <time>2019-08-16T13:16:36Z</time>
      </trkpt>
      <trkpt lat="47.51968" lon="6.8802">
        <ele>321.4</ele>
        <time>2019-08-16T13:16:37Z</time>
      </trkpt>
      <trkpt lat="47.51967" lon="6.88015">
        <ele>321.3</ele>
        <time>2019-08-16T13:16:38Z</time>
      </trkpt>
      <trkpt lat="47.51965" lon="6.88009">
        <ele>321.3</ele>
        <time>2019-08-16T13:16:39Z</time>
      </trkpt>
      <trkpt lat="47.51962" lon="6.88001">
        <ele>321.3</ele>
        <time>2019-08-16T13:16:40Z</time>
      </trkpt>
      <trkpt lat="47.5196" lon="6.87993">
        <ele>321.3</ele>
        <time>2019-08-16T13:16:41Z</time>
      </trkpt>
      <trkpt lat="47.51957" lon="6.87982">
        <ele>321.3</ele>
        <time>2019-08-16T13:16:42Z</time>
      </trkpt>
      <trkpt lat="47.51954" lon="6.8797">
        <ele>321.3</ele>
        <time>2019-08-16T13:16:43Z</time>
      </trkpt>
      <trkpt lat="47.51951" lon="6.87958">
        <ele>321.3</ele>
        <time>2019-08-16T13:16:44Z</time>
      </trkpt>
      <trkpt lat="47.51948" lon="6.87944">
        <ele>321.3</ele>
        <time>2019-08-16T13:16:45Z</time>
      </trkpt>
      <trkpt lat="47.51945" lon="6.87934">
        <ele>321.2</ele>
        <time>2019-08-16T13:16:46Z</time>
      </trkpt>
      <trkpt lat="47.51941" lon="6.87925">
        <ele>321.2</ele>
        <time>2019-08-16T13:16:47Z</time>
      </trkpt>
      <trkpt lat="47.51938" lon="6.87915">
        <ele>321.2</ele>
        <time>2019-08-16T13:16:48Z</time>
      </trkpt>
      <trkpt lat="47.51935" lon="6.87905">
        <ele>321.1</ele>
        <time>2019-08-16T13:16:49Z</time>
      </trkpt>
      <trkpt lat="47.51932" lon="6.87895">
        <ele>321.1</ele>
        <time>2019-08-16T13:16:50Z</time>
      </trkpt>
      <trkpt lat="47.51929" lon="6.87885">
        <ele>321.1</ele>
        <time>2019-08-16T13:16:51Z</time>
      </trkpt>
      <trkpt lat="47.51926" lon="6.87876">
        <ele>321</ele>
        <time>2019-08-16T13:16:52Z</time>
      </trkpt>
      <trkpt lat="47.51923" lon="6.87866">
        <ele>321</ele>
        <time>2019-08-16T13:16:53Z</time>
      </trkpt>
      <trkpt lat="47.5192" lon="6.87857">
        <ele>320.9</ele>
        <time>2019-08-16T13:16:54Z</time>
      </trkpt>
      <trkpt lat="47.51917" lon="6.87849">
        <ele>320.9</ele>
        <time>2019-08-16T13:16:55Z</time>
      </trkpt>
      <trkpt lat="47.51915" lon="6.87841">
        <ele>320.9</ele>
        <time>2019-08-16T13:16:56Z</time>
      </trkpt>
      <trkpt lat="47.51913" lon="6.87834">
        <ele>320.9</ele>
        <time>2019-08-16T13:16:57Z</time>
      </trkpt>
      <trkpt lat="47.5191" lon="6.87826">
        <ele>320.8</ele>
        <time>2019-08-16T13:16:58Z</time>
      </trkpt>
      <trkpt lat="47.51908" lon="6.87819">
        <ele>320.8</ele>
        <time>2019-08-16T13:16:59Z</time>
      </trkpt>
      <trkpt lat="47.51906" lon="6.87812">
        <ele>320.8</ele>
        <time>2019-08-16T13:17:00Z</time>
      </trkpt>
      <trkpt lat="47.51903" lon="6.87804">
        <ele>320.8</ele>
        <time>2019-08-16T13:17:01Z</time>
      </trkpt>
      <trkpt lat="47.51901" lon="6.87796">
        <ele>320.8</ele>
        <time>2019-08-16T13:17:02Z</time>
      </trkpt>
      <trkpt lat="47.51899" lon="6.87788">
        <ele>320.8</ele>
        <time>2019-08-16T13:17:03Z</time>
      </trkpt>
      <trkpt lat="47.51897" lon="6.87781">
        <ele>320.8</ele>
        <time>2019-08-16T13:17:04Z</time>
      </trkpt>
      <trkpt lat="47.51894" lon="6.87774">
        <ele>320.8</ele>
        <time>2019-08-16T13:17:05Z</time>
      </trkpt>
      <trkpt lat="47.51892" lon="6.8777">
        <ele>320.8</ele>
        <time>2019-08-16T13:17:06Z</time>
      </trkpt>
      <trkpt lat="47.51889" lon="6.87762">
        <ele>320.8</ele>
        <time>2019-08-16T13:17:07Z</time>
      </trkpt>
      <trkpt lat="47.51887" lon="6.87754">
        <ele>320.8</ele>
        <time>2019-08-16T13:17:08Z</time>
      </trkpt>
      <trkpt lat="47.51885" lon="6.87746">
        <ele>320.8</ele>
        <time>2019-08-16T13:17:09Z</time>
      </trkpt>
      <trkpt lat="47.51882" lon="6.87738">
        <ele>320.8</ele>
        <time>2019-08-16T13:17:10Z</time>
      </trkpt>
      <trkpt lat="47.51879" lon="6.87731">
        <ele>320.8</ele>
        <time>2019-08-16T13:17:11Z</time>
      </trkpt>
      <trkpt lat="47.51877" lon="6.87722">
        <ele>320.8</ele>
        <time>2019-08-16T13:17:12Z</time>
      </trkpt>
      <trkpt lat="47.51874" lon="6.87715">
        <ele>320.8</ele>
        <time>2019-08-16T13:17:13Z</time>
      </trkpt>
      <trkpt lat="47.51872" lon="6.87707">
        <ele>320.8</ele>
        <time>2019-08-16T13:17:14Z</time>
      </trkpt>
      <trkpt lat="47.5187" lon="6.87701">
        <ele>320.8</ele>
        <time>2019-08-16T13:17:15Z</time>
      </trkpt>
      <trkpt lat="47.51868" lon="6.87695">
        <ele>320.8</ele>
        <time>2019-08-16T13:17:16Z</time>
      </trkpt>
      <trkpt lat="47.51866" lon="6.87689">
        <ele>320.8</ele>
        <time>2019-08-16T13:17:17Z</time>
      </trkpt>
      <trkpt lat="47.51864" lon="6.87683">
        <ele>320.8</ele>
        <time>2019-08-16T13:17:18Z</time>
      </trkpt>
      <trkpt lat="47.51862" lon="6.87675">
        <ele>320.8</ele>
        <time>2019-08-16T13:17:19Z</time>
      </trkpt>
      <trkpt lat="47.5186" lon="6.87669">
        <ele>320.8</ele>
        <time>2019-08-16T13:17:20Z</time>
      </trkpt>
      <trkpt lat="47.51858" lon="6.87663">
        <ele>320.8</ele>
        <time>2019-08-16T13:17:21Z</time>
      </trkpt>
      <trkpt lat="47.51855" lon="6.87656">
        <ele>320.8</ele>
        <time>2019-08-16T13:17:22Z</time>
      </trkpt>
      <trkpt lat="47.51853" lon="6.87648">
        <ele>320.8</ele>
        <time>2019-08-16T13:17:23Z</time>
      </trkpt>
      <trkpt lat="47.51851" lon="6.87642">
        <ele>320.9</ele>
        <time>2019-08-16T13:17:24Z</time>
      </trkpt>
      <trkpt lat="47.51849" lon="6.87633">
        <ele>320.9</ele>
        <time>2019-08-16T13:17:25Z</time>
      </trkpt>
      <trkpt lat="47.51847" lon="6.87626">
        <ele>320.9</ele>
        <time>2019-08-16T13:17:26Z</time>
      </trkpt>
      <trkpt lat="47.51844" lon="6.87619">
        <ele>320.9</ele>
        <time>2019-08-16T13:17:27Z</time>
      </trkpt>
      <trkpt lat="47.51842" lon="6.87612">
        <ele>320.9</ele>
        <time>2019-08-16T13:17:28Z</time>
      </trkpt>
      <trkpt lat="47.5184" lon="6.87605">
        <ele>321</ele>
        <time>2019-08-16T13:17:29Z</time>
      </trkpt>
      <trkpt lat="47.51838" lon="6.87599">
        <ele>321</ele>
        <time>2019-08-16T13:17:30Z</time>
      </trkpt>
      <trkpt lat="47.51836" lon="6.87592">
        <ele>321</ele>
        <time>2019-08-16T13:17:31Z</time>
      </trkpt>
      <trkpt lat="47.51835" lon="6.87585">
        <ele>321</ele>
        <time>2019-08-16T13:17:32Z</time>
      </trkpt>
      <trkpt lat="47.51833" lon="6.87578">
        <ele>321</ele>
        <time>2019-08-16T13:17:33Z</time>
      </trkpt>
      <trkpt lat="47.51831" lon="6.87573">
        <ele>321</ele>
        <time>2019-08-16T13:17:34Z</time>
      </trkpt>
      <trkpt lat="47.51829" lon="6.87567">
        <ele>321</ele>
        <time>2019-08-16T13:17:35Z</time>
      </trkpt>
      <trkpt lat="47.51827" lon="6.8756">
        <ele>321</ele>
        <time>2019-08-16T13:17:36Z</time>
      </trkpt>
      <trkpt lat="47.51825" lon="6.87553">
        <ele>321</ele>
        <time>2019-08-16T13:17:37Z</time>
      </trkpt>
      <trkpt lat="47.51822" lon="6.87547">
        <ele>321</ele>
        <time>2019-08-16T13:17:38Z</time>
      </trkpt>
      <trkpt lat="47.5182" lon="6.87539">
        <ele>321</ele>
        <time>2019-08-16T13:17:39Z</time>
      </trkpt>
      <trkpt lat="47.51818" lon="6.87534">
        <ele>321</ele>
        <time>2019-08-16T13:17:40Z</time>
      </trkpt>
      <trkpt lat="47.51816" lon="6.87528">
        <ele>321</ele>
        <time>2019-08-16T13:17:41Z</time>
      </trkpt>
      <trkpt lat="47.51814" lon="6.87521">
        <ele>321</ele>
        <time>2019-08-16T13:17:42Z</time>
      </trkpt>
      <trkpt lat="47.51812" lon="6.87514">
        <ele>321</ele>
        <time>2019-08-16T13:17:43Z</time>
      </trkpt>
      <trkpt lat="47.5181" lon="6.87506">
        <ele>321</ele>
        <time>2019-08-16T13:17:44Z</time>
      </trkpt>
      <trkpt lat="47.51808" lon="6.87501">
        <ele>321</ele>
        <time>2019-08-16T13:17:45Z</time>
      </trkpt>
      <trkpt lat="47.51806" lon="6.87494">
        <ele>321</ele>
        <time>2019-08-16T13:17:46Z</time>
      </trkpt>
      <trkpt lat="47.51804" lon="6.87486">
        <ele>321</ele>
        <time>2019-08-16T13:17:47Z</time>
      </trkpt>
      <trkpt lat="47.51802" lon="6.87479">
        <ele>321</ele>
        <time>2019-08-16T13:17:48Z</time>
      </trkpt>
      <trkpt lat="47.518" lon="6.87472">
        <ele>321</ele>
        <time>2019-08-16T13:17:49Z</time>
      </trkpt>
      <trkpt lat="47.51799" lon="6.87466">
        <ele>321</ele>
        <time>2019-08-16T13:17:50Z</time>
      </trkpt>
      <trkpt lat="47.51797" lon="6.87461">
        <ele>321</ele>
        <time>2019-08-16T13:17:51Z</time>
      </trkpt>
      <trkpt lat="47.51795" lon="6.87454">
        <ele>321</ele>
        <time>2019-08-16T13:17:52Z</time>
      </trkpt>
      <trkpt lat="47.51794" lon="6.87449">
        <ele>321</ele>
        <time>2019-08-16T13:17:53Z</time>
      </trkpt>
      <trkpt lat="47.51792" lon="6.87443">
        <ele>321</ele>
        <time>2019-08-16T13:17:54Z</time>
      </trkpt>
      <trkpt lat="47.51789" lon="6.87437">
        <ele>321</ele>
        <time>2019-08-16T13:17:55Z</time>
      </trkpt>
      <trkpt lat="47.51787" lon="6.87432">
        <ele>321</ele>
        <time>2019-08-16T13:17:56Z</time>
      </trkpt>
      <trkpt lat="47.51785" lon="6.87425">
        <ele>321</ele>
        <time>2019-08-16T13:17:57Z</time>
      </trkpt>
      <trkpt lat="47.51782" lon="6.87419">
        <ele>321</ele>
        <time>2019-08-16T13:17:58Z</time>
      </trkpt>
      <trkpt lat="47.5178" lon="6.87413">
        <ele>321</ele>
        <time>2019-08-16T13:17:59Z</time>
      </trkpt>
      <trkpt lat="47.51778" lon="6.87407">
        <ele>321</ele>
        <time>2019-08-16T13:18:00Z</time>
      </trkpt>
      <trkpt lat="47.51776" lon="6.87401">
        <ele>321</ele>
        <time>2019-08-16T13:18:01Z</time>
      </trkpt>
      <trkpt lat="47.51774" lon="6.87395">
        <ele>321</ele>
        <time>2019-08-16T13:18:02Z</time>
      </trkpt>
      <trkpt lat="47.51773" lon="6.87389">
        <ele>321</ele>
        <time>2019-08-16T13:18:03Z</time>
      </trkpt>
      <trkpt lat="47.51771" lon="6.87383">
        <ele>321</ele>
        <time>2019-08-16T13:18:04Z</time>
      </trkpt>
      <trkpt lat="47.51769" lon="6.87377">
        <ele>321</ele>
        <time>2019-08-16T13:18:05Z</time>
      </trkpt>
      <trkpt lat="47.51767" lon="6.87371">
        <ele>321</ele>
        <time>2019-08-16T13:18:06Z</time>
      </trkpt>
      <trkpt lat="47.51764" lon="6.87365">
        <ele>321</ele>
        <time>2019-08-16T13:18:07Z</time>
      </trkpt>
      <trkpt lat="47.51762" lon="6.8736">
        <ele>321</ele>
        <time>2019-08-16T13:18:08Z</time>
      </trkpt>
      <trkpt lat="47.5176" lon="6.87353">
        <ele>321</ele>
        <time>2019-08-16T13:18:09Z</time>
      </trkpt>
      <trkpt lat="47.51758" lon="6.87346">
        <ele>321</ele>
        <time>2019-08-16T13:18:10Z</time>
      </trkpt>
      <trkpt lat="47.51757" lon="6.87339">
        <ele>321</ele>
        <time>2019-08-16T13:18:11Z</time>
      </trkpt>
      <trkpt lat="47.51755" lon="6.87331">
        <ele>321</ele>
        <time>2019-08-16T13:18:12Z</time>
      </trkpt>
      <trkpt lat="47.51753" lon="6.87325">
        <ele>321</ele>
        <time>2019-08-16T13:18:13Z</time>
      </trkpt>
      <trkpt lat="47.51751" lon="6.87319">
        <ele>321</ele>
        <time>2019-08-16T13:18:14Z</time>
      </trkpt>
      <trkpt lat="47.51749" lon="6.87311">
        <ele>321</ele>
        <time>2019-08-16T13:18:15Z</time>
      </trkpt>
      <trkpt lat="47.51747" lon="6.87303">
        <ele>321</ele>
        <time>2019-08-16T13:18:16Z</time>
      </trkpt>
      <trkpt lat="47.51745" lon="6.87296">
        <ele>321.1</ele>
        <time>2019-08-16T13:18:17Z</time>
      </trkpt>
      <trkpt lat="47.51744" lon="6.8729">
        <ele>321.1</ele>
        <time>2019-08-16T13:18:18Z</time>
      </trkpt>
      <trkpt lat="47.51742" lon="6.87284">
        <ele>321.1</ele>
        <time>2019-08-16T13:18:19Z</time>
      </trkpt>
      <trkpt lat="47.5174" lon="6.87278">
        <ele>321.1</ele>
        <time>2019-08-16T13:18:20Z</time>
      </trkpt>
      <trkpt lat="47.51738" lon="6.87273">
        <ele>321.1</ele>
        <time>2019-08-16T13:18:21Z</time>
      </trkpt>
      <trkpt lat="47.51735" lon="6.87267">
        <ele>321.1</ele>
        <time>2019-08-16T13:18:22Z</time>
      </trkpt>
      <trkpt lat="47.51733" lon="6.87262">
        <ele>321.1</ele>
        <time>2019-08-16T13:18:23Z</time>
      </trkpt>
      <trkpt lat="47.51731" lon="6.87257">
        <ele>321.2</ele>
        <time>2019-08-16T13:18:24Z</time>
      </trkpt>
      <trkpt lat="47.51729" lon="6.8725">
        <ele>321.2</ele>
        <time>2019-08-16T13:18:25Z</time>
      </trkpt>
      <trkpt lat="47.51727" lon="6.87243">
        <ele>321.2</ele>
        <time>2019-08-16T13:18:26Z</time>
      </trkpt>
      <trkpt lat="47.51725" lon="6.87236">
        <ele>321.2</ele>
        <time>2019-08-16T13:18:27Z</time>
      </trkpt>
      <trkpt lat="47.51723" lon="6.87229">
        <ele>321.2</ele>
        <time>2019-08-16T13:18:28Z</time>
      </trkpt>
      <trkpt lat="47.51721" lon="6.87221">
        <ele>321.2</ele>
        <time>2019-08-16T13:18:29Z</time>
      </trkpt>
      <trkpt lat="47.5172" lon="6.87214">
        <ele>321.2</ele>
        <time>2019-08-16T13:18:30Z</time>
      </trkpt>
      <trkpt lat="47.51718" lon="6.87207">
        <ele>321.2</ele>
        <time>2019-08-16T13:18:31Z</time>
      </trkpt>
      <trkpt lat="47.51716" lon="6.87202">
        <ele>321.2</ele>
        <time>2019-08-16T13:18:32Z</time>
      </trkpt>
      <trkpt lat="47.51715" lon="6.87195">
        <ele>321.2</ele>
        <time>2019-08-16T13:18:33Z</time>
      </trkpt>
      <trkpt lat="47.51713" lon="6.87188">
        <ele>321.2</ele>
        <time>2019-08-16T13:18:34Z</time>
      </trkpt>
      <trkpt lat="47.51711" lon="6.8718">
        <ele>321.2</ele>
        <time>2019-08-16T13:18:35Z</time>
      </trkpt>
      <trkpt lat="47.51709" lon="6.87172">
        <ele>321.2</ele>
        <time>2019-08-16T13:18:36Z</time>
      </trkpt>
      <trkpt lat="47.51707" lon="6.87164">
        <ele>321.1</ele>
        <time>2019-08-16T13:18:37Z</time>
      </trkpt>
      <trkpt lat="47.51705" lon="6.87158">
        <ele>321</ele>
        <time>2019-08-16T13:18:38Z</time>
      </trkpt>
      <trkpt lat="47.51703" lon="6.87151">
        <ele>320.9</ele>
        <time>2019-08-16T13:18:39Z</time>
      </trkpt>
      <trkpt lat="47.51701" lon="6.87145">
        <ele>320.9</ele>
        <time>2019-08-16T13:18:40Z</time>
      </trkpt>
      <trkpt lat="47.51699" lon="6.8714">
        <ele>320.8</ele>
        <time>2019-08-16T13:18:41Z</time>
      </trkpt>
      <trkpt lat="47.51697" lon="6.87134">
        <ele>320.7</ele>
        <time>2019-08-16T13:18:42Z</time>
      </trkpt>
      <trkpt lat="47.51695" lon="6.87129">
        <ele>320.7</ele>
        <time>2019-08-16T13:18:43Z</time>
      </trkpt>
      <trkpt lat="47.51694" lon="6.87124">
        <ele>320.6</ele>
        <time>2019-08-16T13:18:44Z</time>
      </trkpt>
      <trkpt lat="47.51693" lon="6.87118">
        <ele>320.5</ele>
        <time>2019-08-16T13:18:45Z</time>
      </trkpt>
      <trkpt lat="47.51692" lon="6.87112">
        <ele>320.5</ele>
        <time>2019-08-16T13:18:46Z</time>
      </trkpt>
      <trkpt lat="47.5169" lon="6.87106">
        <ele>320.4</ele>
        <time>2019-08-16T13:18:47Z</time>
      </trkpt>
      <trkpt lat="47.51689" lon="6.871">
        <ele>320.3</ele>
        <time>2019-08-16T13:18:48Z</time>
      </trkpt>
      <trkpt lat="47.51687" lon="6.87094">
        <ele>320.3</ele>
        <time>2019-08-16T13:18:49Z</time>
      </trkpt>
      <trkpt lat="47.51684" lon="6.87089">
        <ele>320.3</ele>
        <time>2019-08-16T13:18:50Z</time>
      </trkpt>
      <trkpt lat="47.51682" lon="6.87083">
        <ele>320.2</ele>
        <time>2019-08-16T13:18:51Z</time>
      </trkpt>
      <trkpt lat="47.51681" lon="6.87077">
        <ele>320.2</ele>
        <time>2019-08-16T13:18:52Z</time>
      </trkpt>
      <trkpt lat="47.51679" lon="6.87072">
        <ele>320.2</ele>
        <time>2019-08-16T13:18:53Z</time>
      </trkpt>
      <trkpt lat="47.51677" lon="6.87065">
        <ele>320.2</ele>
        <time>2019-08-16T13:18:54Z</time>
      </trkpt>
      <trkpt lat="47.51675" lon="6.87059">
        <ele>320.2</ele>
        <time>2019-08-16T13:18:55Z</time>
      </trkpt>
      <trkpt lat="47.51673" lon="6.87054">
        <ele>320.2</ele>
        <time>2019-08-16T13:18:56Z</time>
      </trkpt>
      <trkpt lat="47.51671" lon="6.87046">
        <ele>320.2</ele>
        <time>2019-08-16T13:18:57Z</time>
      </trkpt>
      <trkpt lat="47.51669" lon="6.87039">
        <ele>320.2</ele>
        <time>2019-08-16T13:18:58Z</time>
      </trkpt>
      <trkpt lat="47.51667" lon="6.87031">
        <ele>320.2</ele>
        <time>2019-08-16T13:18:59Z</time>
      </trkpt>
      <trkpt lat="47.51664" lon="6.87023">
        <ele>320.2</ele>
        <time>2019-08-16T13:19:00Z</time>
      </trkpt>
      <trkpt lat="47.51661" lon="6.87016">
        <ele>320.2</ele>
        <time>2019-08-16T13:19:01Z</time>
      </trkpt>
      <trkpt lat="47.51658" lon="6.87009">
        <ele>320.2</ele>
        <time>2019-08-16T13:19:02Z</time>
      </trkpt>
      <trkpt lat="47.51656" lon="6.87003">
        <ele>320.2</ele>
        <time>2019-08-16T13:19:03Z</time>
      </trkpt>
      <trkpt lat="47.51654" lon="6.86998">
        <ele>320.2</ele>
        <time>2019-08-16T13:19:04Z</time>
      </trkpt>
      <trkpt lat="47.51652" lon="6.86994">
        <ele>320.2</ele>
        <time>2019-08-16T13:19:05Z</time>
      </trkpt>
      <trkpt lat="47.51651" lon="6.86989">
        <ele>320.2</ele>
        <time>2019-08-16T13:19:06Z</time>
      </trkpt>
      <trkpt lat="47.51649" lon="6.86983">
        <ele>320.2</ele>
        <time>2019-08-16T13:19:07Z</time>
      </trkpt>
      <trkpt lat="47.51648" lon="6.86977">
        <ele>320.2</ele>
        <time>2019-08-16T13:19:08Z</time>
      </trkpt>
      <trkpt lat="47.51646" lon="6.86971">
        <ele>320.2</ele>
        <time>2019-08-16T13:19:09Z</time>
      </trkpt>
      <trkpt lat="47.51643" lon="6.86966">
        <ele>320.2</ele>
        <time>2019-08-16T13:19:10Z</time>
      </trkpt>
      <trkpt lat="47.51641" lon="6.86961">
        <ele>320.2</ele>
        <time>2019-08-16T13:19:11Z</time>
      </trkpt>
      <trkpt lat="47.51638" lon="6.86955">
        <ele>320.2</ele>
        <time>2019-08-16T13:19:12Z</time>
      </trkpt>
      <trkpt lat="47.51636" lon="6.86948">
        <ele>320.2</ele>
        <time>2019-08-16T13:19:13Z</time>
      </trkpt>
      <trkpt lat="47.51633" lon="6.86943">
        <ele>320.2</ele>
        <time>2019-08-16T13:19:14Z</time>
      </trkpt>
      <trkpt lat="47.51631" lon="6.86938">
        <ele>320.2</ele>
        <time>2019-08-16T13:19:15Z</time>
      </trkpt>
      <trkpt lat="47.51629" lon="6.86932">
        <ele>320.2</ele>
        <time>2019-08-16T13:19:16Z</time>
      </trkpt>
      <trkpt lat="47.51627" lon="6.86925">
        <ele>320.2</ele>
        <time>2019-08-16T13:19:17Z</time>
      </trkpt>
      <trkpt lat="47.51625" lon="6.86919">
        <ele>320.2</ele>
        <time>2019-08-16T13:19:18Z</time>
      </trkpt>
      <trkpt lat="47.51623" lon="6.86913">
        <ele>320.2</ele>
        <time>2019-08-16T13:19:19Z</time>
      </trkpt>
      <trkpt lat="47.51621" lon="6.86907">
        <ele>320.2</ele>
        <time>2019-08-16T13:19:20Z</time>
      </trkpt>
      <trkpt lat="47.5162" lon="6.86902">
        <ele>320.2</ele>
        <time>2019-08-16T13:19:21Z</time>
      </trkpt>
      <trkpt lat="47.51618" lon="6.86898">
        <ele>320.2</ele>
        <time>2019-08-16T13:19:22Z</time>
      </trkpt>
      <trkpt lat="47.51616" lon="6.86892">
        <ele>320.2</ele>
        <time>2019-08-16T13:19:23Z</time>
      </trkpt>
      <trkpt lat="47.51614" lon="6.86887">
        <ele>320.2</ele>
        <time>2019-08-16T13:19:24Z</time>
      </trkpt>
      <trkpt lat="47.51612" lon="6.8688">
        <ele>320.2</ele>
        <time>2019-08-16T13:19:25Z</time>
      </trkpt>
      <trkpt lat="47.5161" lon="6.86874">
        <ele>320.2</ele>
        <time>2019-08-16T13:19:26Z</time>
      </trkpt>
      <trkpt lat="47.51608" lon="6.86868">
        <ele>320.2</ele>
        <time>2019-08-16T13:19:27Z</time>
      </trkpt>
      <trkpt lat="47.51606" lon="6.86862">
        <ele>320.2</ele>
        <time>2019-08-16T13:19:28Z</time>
      </trkpt>
      <trkpt lat="47.51604" lon="6.86856">
        <ele>320.2</ele>
        <time>2019-08-16T13:19:29Z</time>
      </trkpt>
      <trkpt lat="47.51602" lon="6.8685">
        <ele>320.2</ele>
        <time>2019-08-16T13:19:30Z</time>
      </trkpt>
      <trkpt lat="47.516" lon="6.86843">
        <ele>320.2</ele>
        <time>2019-08-16T13:19:31Z</time>
      </trkpt>
      <trkpt lat="47.51598" lon="6.86837">
        <ele>320.2</ele>
        <time>2019-08-16T13:19:32Z</time>
      </trkpt>
      <trkpt lat="47.51596" lon="6.86829">
        <ele>320.2</ele>
        <time>2019-08-16T13:19:33Z</time>
      </trkpt>
      <trkpt lat="47.51595" lon="6.86822">
        <ele>320.2</ele>
        <time>2019-08-16T13:19:34Z</time>
      </trkpt>
      <trkpt lat="47.51594" lon="6.86815">
        <ele>320.2</ele>
        <time>2019-08-16T13:19:35Z</time>
      </trkpt>
      <trkpt lat="47.51592" lon="6.86808">
        <ele>320.2</ele>
        <time>2019-08-16T13:19:36Z</time>
      </trkpt>
      <trkpt lat="47.51591" lon="6.868">
        <ele>320.2</ele>
        <time>2019-08-16T13:19:37Z</time>
      </trkpt>
      <trkpt lat="47.51589" lon="6.86793">
        <ele>320.2</ele>
        <time>2019-08-16T13:19:38Z</time>
      </trkpt>
      <trkpt lat="47.51587" lon="6.86786">
        <ele>320.2</ele>
        <time>2019-08-16T13:19:39Z</time>
      </trkpt>
      <trkpt lat="47.51585" lon="6.8678">
        <ele>320.2</ele>
        <time>2019-08-16T13:19:40Z</time>
      </trkpt>
      <trkpt lat="47.51582" lon="6.86772">
        <ele>320.2</ele>
        <time>2019-08-16T13:19:41Z</time>
      </trkpt>
      <trkpt lat="47.51579" lon="6.86766">
        <ele>320.2</ele>
        <time>2019-08-16T13:19:42Z</time>
      </trkpt>
      <trkpt lat="47.51576" lon="6.86759">
        <ele>320.2</ele>
        <time>2019-08-16T13:19:43Z</time>
      </trkpt>
      <trkpt lat="47.51573" lon="6.86752">
        <ele>320.2</ele>
        <time>2019-08-16T13:19:44Z</time>
      </trkpt>
      <trkpt lat="47.5157" lon="6.86745">
        <ele>320.2</ele>
        <time>2019-08-16T13:19:45Z</time>
      </trkpt>
      <trkpt lat="47.51568" lon="6.86736">
        <ele>320.2</ele>
        <time>2019-08-16T13:19:46Z</time>
      </trkpt>
      <trkpt lat="47.51566" lon="6.8673">
        <ele>320.2</ele>
        <time>2019-08-16T13:19:47Z</time>
      </trkpt>
      <trkpt lat="47.51564" lon="6.86724">
        <ele>320.2</ele>
        <time>2019-08-16T13:19:48Z</time>
      </trkpt>
      <trkpt lat="47.51562" lon="6.86716">
        <ele>320.3</ele>
        <time>2019-08-16T13:19:49Z</time>
      </trkpt>
      <trkpt lat="47.51559" lon="6.86709">
        <ele>320.3</ele>
        <time>2019-08-16T13:19:50Z</time>
      </trkpt>
      <trkpt lat="47.51557" lon="6.86701">
        <ele>320.3</ele>
        <time>2019-08-16T13:19:51Z</time>
      </trkpt>
      <trkpt lat="47.51555" lon="6.86694">
        <ele>320.3</ele>
        <time>2019-08-16T13:19:52Z</time>
      </trkpt>
      <trkpt lat="47.51552" lon="6.86687">
        <ele>320.3</ele>
        <time>2019-08-16T13:19:53Z</time>
      </trkpt>
      <trkpt lat="47.5155" lon="6.8668">
        <ele>320.3</ele>
        <time>2019-08-16T13:19:54Z</time>
      </trkpt>
      <trkpt lat="47.51548" lon="6.8667">
        <ele>320.3</ele>
        <time>2019-08-16T13:19:55Z</time>
      </trkpt>
      <trkpt lat="47.51546" lon="6.86663">
        <ele>320.3</ele>
        <time>2019-08-16T13:19:56Z</time>
      </trkpt>
      <trkpt lat="47.51545" lon="6.86657">
        <ele>320.3</ele>
        <time>2019-08-16T13:19:57Z</time>
      </trkpt>
      <trkpt lat="47.51543" lon="6.86652">
        <ele>320.3</ele>
        <time>2019-08-16T13:19:58Z</time>
      </trkpt>
      <trkpt lat="47.51541" lon="6.86646">
        <ele>320.3</ele>
        <time>2019-08-16T13:19:59Z</time>
      </trkpt>
      <trkpt lat="47.51539" lon="6.86641">
        <ele>320.3</ele>
        <time>2019-08-16T13:20:00Z</time>
      </trkpt>
      <trkpt lat="47.51538" lon="6.86636">
        <ele>320.3</ele>
        <time>2019-08-16T13:20:01Z</time>
      </trkpt>
      <trkpt lat="47.51536" lon="6.8663">
        <ele>320.3</ele>
        <time>2019-08-16T13:20:02Z</time>
      </trkpt>
      <trkpt lat="47.51535" lon="6.86622">
        <ele>320.3</ele>
        <time>2019-08-16T13:20:03Z</time>
      </trkpt>
      <trkpt lat="47.51533" lon="6.86614">
        <ele>320.3</ele>
        <time>2019-08-16T13:20:04Z</time>
      </trkpt>
      <trkpt lat="47.51531" lon="6.86605">
        <ele>320.3</ele>
        <time>2019-08-16T13:20:05Z</time>
      </trkpt>
      <trkpt lat="47.51529" lon="6.86599">
        <ele>320.3</ele>
        <time>2019-08-16T13:20:06Z</time>
      </trkpt>
      <trkpt lat="47.51527" lon="6.86591">
        <ele>320.3</ele>
        <time>2019-08-16T13:20:07Z</time>
      </trkpt>
      <trkpt lat="47.51525" lon="6.86584">
        <ele>320.3</ele>
        <time>2019-08-16T13:20:08Z</time>
      </trkpt>
      <trkpt lat="47.51523" lon="6.86577">
        <ele>320.3</ele>
        <time>2019-08-16T13:20:09Z</time>
      </trkpt>
      <trkpt lat="47.5152" lon="6.8657">
        <ele>320.3</ele>
        <time>2019-08-16T13:20:10Z</time>
      </trkpt>
      <trkpt lat="47.51517" lon="6.86563">
        <ele>320.3</ele>
        <time>2019-08-16T13:20:11Z</time>
      </trkpt>
      <trkpt lat="47.51515" lon="6.86556">
        <ele>320.3</ele>
        <time>2019-08-16T13:20:12Z</time>
      </trkpt>
      <trkpt lat="47.51513" lon="6.86549">
        <ele>320.3</ele>
        <time>2019-08-16T13:20:13Z</time>
      </trkpt>
      <trkpt lat="47.51511" lon="6.86543">
        <ele>320.3</ele>
        <time>2019-08-16T13:20:14Z</time>
      </trkpt>
      <trkpt lat="47.51509" lon="6.86535">
        <ele>320.3</ele>
        <time>2019-08-16T13:20:15Z</time>
      </trkpt>
      <trkpt lat="47.51506" lon="6.86528">
        <ele>320.3</ele>
        <time>2019-08-16T13:20:16Z</time>
      </trkpt>
      <trkpt lat="47.51504" lon="6.86521">
        <ele>320.3</ele>
        <time>2019-08-16T13:20:17Z</time>
      </trkpt>
      <trkpt lat="47.51502" lon="6.86513">
        <ele>320.3</ele>
        <time>2019-08-16T13:20:18Z</time>
      </trkpt>
      <trkpt lat="47.515" lon="6.86508">
        <ele>320.3</ele>
        <time>2019-08-16T13:20:19Z</time>
      </trkpt>
      <trkpt lat="47.51498" lon="6.86501">
        <ele>320.3</ele>
        <time>2019-08-16T13:20:20Z</time>
      </trkpt>
      <trkpt lat="47.51495" lon="6.86494">
        <ele>320.3</ele>
        <time>2019-08-16T13:20:21Z</time>
      </trkpt>
      <trkpt lat="47.51493" lon="6.86486">
        <ele>320.3</ele>
        <time>2019-08-16T13:20:22Z</time>
      </trkpt>
      <trkpt lat="47.5149" lon="6.86479">
        <ele>320.3</ele>
        <time>2019-08-16T13:20:23Z</time>
      </trkpt>
      <trkpt lat="47.51488" lon="6.86472">
        <ele>320.3</ele>
        <time>2019-08-16T13:20:24Z</time>
      </trkpt>
      <trkpt lat="47.51487" lon="6.86465">
        <ele>320.3</ele>
        <time>2019-08-16T13:20:25Z</time>
      </trkpt>
      <trkpt lat="47.51486" lon="6.86458">
        <ele>320.3</ele>
        <time>2019-08-16T13:20:26Z</time>
      </trkpt>
      <trkpt lat="47.51484" lon="6.86451">
        <ele>320.3</ele>
        <time>2019-08-16T13:20:27Z</time>
      </trkpt>
      <trkpt lat="47.51483" lon="6.86444">
        <ele>320.3</ele>
        <time>2019-08-16T13:20:28Z</time>
      </trkpt>
      <trkpt lat="47.51482" lon="6.86437">
        <ele>320.3</ele>
        <time>2019-08-16T13:20:29Z</time>
      </trkpt>
      <trkpt lat="47.5148" lon="6.8643">
        <ele>320.3</ele>
        <time>2019-08-16T13:20:30Z</time>
      </trkpt>
      <trkpt lat="47.51479" lon="6.86423">
        <ele>320.3</ele>
        <time>2019-08-16T13:20:31Z</time>
      </trkpt>
      <trkpt lat="47.51477" lon="6.86416">
        <ele>320.3</ele>
        <time>2019-08-16T13:20:32Z</time>
      </trkpt>
      <trkpt lat="47.51475" lon="6.8641">
        <ele>320.3</ele>
        <time>2019-08-16T13:20:33Z</time>
      </trkpt>
      <trkpt lat="47.51472" lon="6.86403">
        <ele>320.3</ele>
        <time>2019-08-16T13:20:34Z</time>
      </trkpt>
      <trkpt lat="47.5147" lon="6.86396">
        <ele>320.3</ele>
        <time>2019-08-16T13:20:35Z</time>
      </trkpt>
      <trkpt lat="47.51468" lon="6.86389">
        <ele>320.3</ele>
        <time>2019-08-16T13:20:36Z</time>
      </trkpt>
      <trkpt lat="47.51464" lon="6.86383">
        <ele>320.3</ele>
        <time>2019-08-16T13:20:37Z</time>
      </trkpt>
      <trkpt lat="47.51462" lon="6.86376">
        <ele>320.3</ele>
        <time>2019-08-16T13:20:38Z</time>
      </trkpt>
      <trkpt lat="47.5146" lon="6.86368">
        <ele>320.3</ele>
        <time>2019-08-16T13:20:39Z</time>
      </trkpt>
      <trkpt lat="47.51457" lon="6.86361">
        <ele>320.3</ele>
        <time>2019-08-16T13:20:40Z</time>
      </trkpt>
      <trkpt lat="47.51455" lon="6.86353">
        <ele>320.3</ele>
        <time>2019-08-16T13:20:41Z</time>
      </trkpt>
      <trkpt lat="47.51452" lon="6.86347">
        <ele>320.3</ele>
        <time>2019-08-16T13:20:42Z</time>
      </trkpt>
      <trkpt lat="47.5145" lon="6.86339">
        <ele>320.3</ele>
        <time>2019-08-16T13:20:43Z</time>
      </trkpt>
      <trkpt lat="47.51448" lon="6.86333">
        <ele>320.3</ele>
        <time>2019-08-16T13:20:44Z</time>
      </trkpt>
      <trkpt lat="47.51445" lon="6.86326">
        <ele>320.3</ele>
        <time>2019-08-16T13:20:45Z</time>
      </trkpt>
      <trkpt lat="47.51443" lon="6.8632">
        <ele>320.3</ele>
        <time>2019-08-16T13:20:46Z</time>
      </trkpt>
      <trkpt lat="47.51441" lon="6.86313">
        <ele>320.3</ele>
        <time>2019-08-16T13:20:47Z</time>
      </trkpt>
      <trkpt lat="47.51438" lon="6.86307">
        <ele>320.3</ele>
        <time>2019-08-16T13:20:48Z</time>
      </trkpt>
      <trkpt lat="47.51436" lon="6.86302">
        <ele>320.3</ele>
        <time>2019-08-16T13:20:49Z</time>
      </trkpt>
      <trkpt lat="47.51434" lon="6.86296">
        <ele>320.3</ele>
        <time>2019-08-16T13:20:50Z</time>
      </trkpt>
      <trkpt lat="47.51431" lon="6.8629">
        <ele>320.3</ele>
        <time>2019-08-16T13:20:51Z</time>
      </trkpt>
      <trkpt lat="47.51429" lon="6.86284">
        <ele>320.2</ele>
        <time>2019-08-16T13:20:52Z</time>
      </trkpt>
      <trkpt lat="47.51427" lon="6.86278">
        <ele>320.2</ele>
        <time>2019-08-16T13:20:53Z</time>
      </trkpt>
      <trkpt lat="47.51426" lon="6.86272">
        <ele>320.2</ele>
        <time>2019-08-16T13:20:54Z</time>
      </trkpt>
      <trkpt lat="47.51424" lon="6.86265">
        <ele>320.1</ele>
        <time>2019-08-16T13:20:55Z</time>
      </trkpt>
      <trkpt lat="47.51421" lon="6.86261">
        <ele>320.1</ele>
        <time>2019-08-16T13:20:56Z</time>
      </trkpt>
      <trkpt lat="47.51419" lon="6.86255">
        <ele>320</ele>
        <time>2019-08-16T13:20:57Z</time>
      </trkpt>
      <trkpt lat="47.51417" lon="6.86249">
        <ele>319.9</ele>
        <time>2019-08-16T13:20:58Z</time>
      </trkpt>
      <trkpt lat="47.51415" lon="6.86243">
        <ele>319.8</ele>
        <time>2019-08-16T13:20:59Z</time>
      </trkpt>
      <trkpt lat="47.51413" lon="6.86236">
        <ele>319.7</ele>
        <time>2019-08-16T13:21:00Z</time>
      </trkpt>
      <trkpt lat="47.5141" lon="6.86229">
        <ele>319.6</ele>
        <time>2019-08-16T13:21:01Z</time>
      </trkpt>
      <trkpt lat="47.51408" lon="6.86223">
        <ele>319.5</ele>
        <time>2019-08-16T13:21:02Z</time>
      </trkpt>
      <trkpt lat="47.51405" lon="6.86216">
        <ele>319.5</ele>
        <time>2019-08-16T13:21:03Z</time>
      </trkpt>
      <trkpt lat="47.51403" lon="6.8621">
        <ele>319.5</ele>
        <time>2019-08-16T13:21:04Z</time>
      </trkpt>
      <trkpt lat="47.51401" lon="6.86203">
        <ele>319.5</ele>
        <time>2019-08-16T13:21:05Z</time>
      </trkpt>
      <trkpt lat="47.51399" lon="6.86196">
        <ele>319.5</ele>
        <time>2019-08-16T13:21:06Z</time>
      </trkpt>
      <trkpt lat="47.51397" lon="6.86191">
        <ele>319.5</ele>
        <time>2019-08-16T13:21:07Z</time>
      </trkpt>
      <trkpt lat="47.51394" lon="6.86185">
        <ele>319.5</ele>
        <time>2019-08-16T13:21:08Z</time>
      </trkpt>
      <trkpt lat="47.51392" lon="6.86179">
        <ele>319.6</ele>
        <time>2019-08-16T13:21:09Z</time>
      </trkpt>
      <trkpt lat="47.51389" lon="6.86173">
        <ele>319.6</ele>
        <time>2019-08-16T13:21:10Z</time>
      </trkpt>
      <trkpt lat="47.51387" lon="6.86167">
        <ele>319.7</ele>
        <time>2019-08-16T13:21:11Z</time>
      </trkpt>
      <trkpt lat="47.51383" lon="6.86161">
        <ele>319.8</ele>
        <time>2019-08-16T13:21:12Z</time>
      </trkpt>
      <trkpt lat="47.51382" lon="6.86155">
        <ele>319.9</ele>
        <time>2019-08-16T13:21:13Z</time>
      </trkpt>
      <trkpt lat="47.5138" lon="6.86148">
        <ele>320</ele>
        <time>2019-08-16T13:21:14Z</time>
      </trkpt>
      <trkpt lat="47.51378" lon="6.8614">
        <ele>320.1</ele>
        <time>2019-08-16T13:21:15Z</time>
      </trkpt>
      <trkpt lat="47.51376" lon="6.86133">
        <ele>320.1</ele>
        <time>2019-08-16T13:21:16Z</time>
      </trkpt>
      <trkpt lat="47.51374" lon="6.86126">
        <ele>320.2</ele>
        <time>2019-08-16T13:21:17Z</time>
      </trkpt>
      <trkpt lat="47.51372" lon="6.86119">
        <ele>320.3</ele>
        <time>2019-08-16T13:21:18Z</time>
      </trkpt>
      <trkpt lat="47.5137" lon="6.86113">
        <ele>320.3</ele>
        <time>2019-08-16T13:21:19Z</time>
      </trkpt>
      <trkpt lat="47.51368" lon="6.86107">
        <ele>320.3</ele>
        <time>2019-08-16T13:21:20Z</time>
      </trkpt>
      <trkpt lat="47.51367" lon="6.861">
        <ele>320.3</ele>
        <time>2019-08-16T13:21:21Z</time>
      </trkpt>
      <trkpt lat="47.51365" lon="6.86094">
        <ele>320.3</ele>
        <time>2019-08-16T13:21:22Z</time>
      </trkpt>
      <trkpt lat="47.51363" lon="6.86089">
        <ele>320.3</ele>
        <time>2019-08-16T13:21:23Z</time>
      </trkpt>
      <trkpt lat="47.51362" lon="6.86084">
        <ele>320.3</ele>
        <time>2019-08-16T13:21:24Z</time>
      </trkpt>
      <trkpt lat="47.5136" lon="6.86078">
        <ele>320.3</ele>
        <time>2019-08-16T13:21:25Z</time>
      </trkpt>
      <trkpt lat="47.51359" lon="6.86072">
        <ele>320.3</ele>
        <time>2019-08-16T13:21:26Z</time>
      </trkpt>
      <trkpt lat="47.51357" lon="6.86065">
        <ele>320.3</ele>
        <time>2019-08-16T13:21:27Z</time>
      </trkpt>
      <trkpt lat="47.51355" lon="6.86058">
        <ele>320.3</ele>
        <time>2019-08-16T13:21:28Z</time>
      </trkpt>
      <trkpt lat="47.51354" lon="6.86052">
        <ele>320.3</ele>
        <time>2019-08-16T13:21:29Z</time>
      </trkpt>
      <trkpt lat="47.51352" lon="6.86044">
        <ele>320.3</ele>
        <time>2019-08-16T13:21:30Z</time>
      </trkpt>
      <trkpt lat="47.5135" lon="6.86037">
        <ele>320.3</ele>
        <time>2019-08-16T13:21:31Z</time>
      </trkpt>
      <trkpt lat="47.51349" lon="6.8603">
        <ele>320.3</ele>
        <time>2019-08-16T13:21:32Z</time>
      </trkpt>
      <trkpt lat="47.51347" lon="6.86024">
        <ele>320.3</ele>
        <time>2019-08-16T13:21:33Z</time>
      </trkpt>
      <trkpt lat="47.51344" lon="6.86018">
        <ele>320.4</ele>
        <time>2019-08-16T13:21:34Z</time>
      </trkpt>
      <trkpt lat="47.51341" lon="6.86011">
        <ele>320.4</ele>
        <time>2019-08-16T13:21:35Z</time>
      </trkpt>
      <trkpt lat="47.51339" lon="6.86002">
        <ele>320.4</ele>
        <time>2019-08-16T13:21:36Z</time>
      </trkpt>
      <trkpt lat="47.51337" lon="6.85996">
        <ele>320.4</ele>
        <time>2019-08-16T13:21:37Z</time>
      </trkpt>
      <trkpt lat="47.51335" lon="6.85987">
        <ele>320.4</ele>
        <time>2019-08-16T13:21:38Z</time>
      </trkpt>
      <trkpt lat="47.51332" lon="6.8598">
        <ele>320.4</ele>
        <time>2019-08-16T13:21:39Z</time>
      </trkpt>
      <trkpt lat="47.5133" lon="6.85973">
        <ele>320.4</ele>
        <time>2019-08-16T13:21:40Z</time>
      </trkpt>
      <trkpt lat="47.51328" lon="6.85967">
        <ele>320.4</ele>
        <time>2019-08-16T13:21:41Z</time>
      </trkpt>
      <trkpt lat="47.51325" lon="6.8596">
        <ele>320.4</ele>
        <time>2019-08-16T13:21:42Z</time>
      </trkpt>
      <trkpt lat="47.51323" lon="6.85953">
        <ele>320.4</ele>
        <time>2019-08-16T13:21:43Z</time>
      </trkpt>
      <trkpt lat="47.51321" lon="6.85946">
        <ele>320.4</ele>
        <time>2019-08-16T13:21:44Z</time>
      </trkpt>
      <trkpt lat="47.51318" lon="6.8594">
        <ele>320.4</ele>
        <time>2019-08-16T13:21:45Z</time>
      </trkpt>
      <trkpt lat="47.51316" lon="6.85933">
        <ele>320.4</ele>
        <time>2019-08-16T13:21:46Z</time>
      </trkpt>
      <trkpt lat="47.51313" lon="6.85925">
        <ele>320.4</ele>
        <time>2019-08-16T13:21:47Z</time>
      </trkpt>
      <trkpt lat="47.51312" lon="6.85918">
        <ele>320.4</ele>
        <time>2019-08-16T13:21:48Z</time>
      </trkpt>
      <trkpt lat="47.51311" lon="6.85911">
        <ele>320.4</ele>
        <time>2019-08-16T13:21:49Z</time>
      </trkpt>
      <trkpt lat="47.51309" lon="6.85904">
        <ele>320.4</ele>
        <time>2019-08-16T13:21:50Z</time>
      </trkpt>
      <trkpt lat="47.51306" lon="6.85897">
        <ele>320.4</ele>
        <time>2019-08-16T13:21:51Z</time>
      </trkpt>
      <trkpt lat="47.51304" lon="6.8589">
        <ele>320.4</ele>
        <time>2019-08-16T13:21:52Z</time>
      </trkpt>
      <trkpt lat="47.51302" lon="6.85883">
        <ele>320.4</ele>
        <time>2019-08-16T13:21:53Z</time>
      </trkpt>
      <trkpt lat="47.513" lon="6.85876">
        <ele>320.4</ele>
        <time>2019-08-16T13:21:54Z</time>
      </trkpt>
      <trkpt lat="47.51298" lon="6.85869">
        <ele>320.4</ele>
        <time>2019-08-16T13:21:55Z</time>
      </trkpt>
      <trkpt lat="47.51297" lon="6.85864">
        <ele>320.4</ele>
        <time>2019-08-16T13:21:56Z</time>
      </trkpt>
      <trkpt lat="47.51296" lon="6.85859">
        <ele>320.4</ele>
        <time>2019-08-16T13:21:57Z</time>
      </trkpt>
      <trkpt lat="47.51294" lon="6.85851">
        <ele>320.4</ele>
        <time>2019-08-16T13:21:59Z</time>
      </trkpt>
      <trkpt lat="47.5129" lon="6.85849">
        <ele>320.4</ele>
        <time>2019-08-16T13:22:01Z</time>
      </trkpt>
      <trkpt lat="47.51287" lon="6.85851">
        <ele>320.4</ele>
        <time>2019-08-16T13:22:05Z</time>
      </trkpt>
      <trkpt lat="47.51285" lon="6.85852">
        <ele>320.6</ele>
        <time>2019-08-16T13:22:06Z</time>
      </trkpt>
      <trkpt lat="47.51282" lon="6.85856">
        <ele>320.7</ele>
        <time>2019-08-16T13:22:07Z</time>
      </trkpt>
      <trkpt lat="47.51278" lon="6.8586">
        <ele>320.7</ele>
        <time>2019-08-16T13:22:08Z</time>
      </trkpt>
      <trkpt lat="47.51275" lon="6.85863">
        <ele>320.8</ele>
        <time>2019-08-16T13:22:09Z</time>
      </trkpt>
      <trkpt lat="47.51273" lon="6.85866">
        <ele>320.9</ele>
        <time>2019-08-16T13:22:10Z</time>
      </trkpt>
      <trkpt lat="47.5127" lon="6.8587">
        <ele>321</ele>
        <time>2019-08-16T13:22:11Z</time>
      </trkpt>
      <trkpt lat="47.51267" lon="6.85873">
        <ele>321</ele>
        <time>2019-08-16T13:22:12Z</time>
      </trkpt>
      <trkpt lat="47.51264" lon="6.85876">
        <ele>321</ele>
        <time>2019-08-16T13:22:13Z</time>
      </trkpt>
      <trkpt lat="47.51262" lon="6.85879">
        <ele>321.1</ele>
        <time>2019-08-16T13:22:14Z</time>
      </trkpt>
      <trkpt lat="47.51259" lon="6.85881">
        <ele>321.1</ele>
        <time>2019-08-16T13:22:15Z</time>
      </trkpt>
      <trkpt lat="47.51255" lon="6.85884">
        <ele>321.1</ele>
        <time>2019-08-16T13:22:16Z</time>
      </trkpt>
      <trkpt lat="47.51253" lon="6.85886">
        <ele>321.1</ele>
        <time>2019-08-16T13:22:17Z</time>
      </trkpt>
      <trkpt lat="47.5125" lon="6.85891">
        <ele>321.1</ele>
        <time>2019-08-16T13:22:19Z</time>
      </trkpt>
      <trkpt lat="47.51247" lon="6.85885">
        <ele>321.2</ele>
        <time>2019-08-16T13:22:23Z</time>
      </trkpt>
      <trkpt lat="47.51249" lon="6.85879">
        <ele>321.2</ele>
        <time>2019-08-16T13:22:25Z</time>
      </trkpt>
      <trkpt lat="47.51251" lon="6.85875">
        <ele>321.2</ele>
        <time>2019-08-16T13:22:26Z</time>
      </trkpt>
      <trkpt lat="47.51254" lon="6.8587">
        <ele>321.2</ele>
        <time>2019-08-16T13:22:27Z</time>
      </trkpt>
      <trkpt lat="47.51257" lon="6.85862">
        <ele>321.2</ele>
        <time>2019-08-16T13:22:28Z</time>
      </trkpt>
      <trkpt lat="47.5126" lon="6.8585">
        <ele>321.1</ele>
        <time>2019-08-16T13:22:29Z</time>
      </trkpt>
      <trkpt lat="47.51262" lon="6.85842">
        <ele>321</ele>
        <time>2019-08-16T13:22:30Z</time>
      </trkpt>
      <trkpt lat="47.51262" lon="6.85835">
        <ele>320.9</ele>
        <time>2019-08-16T13:22:31Z</time>
      </trkpt>
      <trkpt lat="47.51262" lon="6.85827">
        <ele>320.8</ele>
        <time>2019-08-16T13:22:32Z</time>
      </trkpt>
      <trkpt lat="47.51261" lon="6.85821">
        <ele>320.7</ele>
        <time>2019-08-16T13:22:33Z</time>
      </trkpt>
      <trkpt lat="47.51259" lon="6.85814">
        <ele>320.5</ele>
        <time>2019-08-16T13:22:34Z</time>
      </trkpt>
      <trkpt lat="47.51257" lon="6.85808">
        <ele>320.4</ele>
        <time>2019-08-16T13:22:35Z</time>
      </trkpt>
      <trkpt lat="47.51254" lon="6.85802">
        <ele>320.2</ele>
        <time>2019-08-16T13:22:36Z</time>
      </trkpt>
      <trkpt lat="47.51252" lon="6.85796">
        <ele>320</ele>
        <time>2019-08-16T13:22:37Z</time>
      </trkpt>
      <trkpt lat="47.5125" lon="6.85791">
        <ele>319.9</ele>
        <time>2019-08-16T13:22:38Z</time>
      </trkpt>
      <trkpt lat="47.51247" lon="6.85785">
        <ele>319.7</ele>
        <time>2019-08-16T13:22:39Z</time>
      </trkpt>
      <trkpt lat="47.51246" lon="6.85778">
        <ele>319.5</ele>
        <time>2019-08-16T13:22:40Z</time>
      </trkpt>
      <trkpt lat="47.51244" lon="6.85772">
        <ele>319.3</ele>
        <time>2019-08-16T13:22:41Z</time>
      </trkpt>
      <trkpt lat="47.51242" lon="6.85765">
        <ele>319.2</ele>
        <time>2019-08-16T13:22:42Z</time>
      </trkpt>
      <trkpt lat="47.5124" lon="6.85758">
        <ele>319.1</ele>
        <time>2019-08-16T13:22:43Z</time>
      </trkpt>
      <trkpt lat="47.51239" lon="6.85752">
        <ele>318.9</ele>
        <time>2019-08-16T13:22:44Z</time>
      </trkpt>
      <trkpt lat="47.51237" lon="6.85745">
        <ele>318.8</ele>
        <time>2019-08-16T13:22:45Z</time>
      </trkpt>
      <trkpt lat="47.51235" lon="6.85739">
        <ele>318.8</ele>
        <time>2019-08-16T13:22:46Z</time>
      </trkpt>
      <trkpt lat="47.51233" lon="6.85733">
        <ele>318.7</ele>
        <time>2019-08-16T13:22:47Z</time>
      </trkpt>
      <trkpt lat="47.51231" lon="6.85727">
        <ele>318.6</ele>
        <time>2019-08-16T13:22:48Z</time>
      </trkpt>
      <trkpt lat="47.5123" lon="6.85719">
        <ele>318.6</ele>
        <time>2019-08-16T13:22:49Z</time>
      </trkpt>
      <trkpt lat="47.51228" lon="6.85713">
        <ele>318.5</ele>
        <time>2019-08-16T13:22:50Z</time>
      </trkpt>
      <trkpt lat="47.51227" lon="6.85706">
        <ele>318.5</ele>
        <time>2019-08-16T13:22:51Z</time>
      </trkpt>
      <trkpt lat="47.51225" lon="6.85699">
        <ele>318.4</ele>
        <time>2019-08-16T13:22:52Z</time>
      </trkpt>
      <trkpt lat="47.51223" lon="6.85693">
        <ele>318.4</ele>
        <time>2019-08-16T13:22:53Z</time>
      </trkpt>
      <trkpt lat="47.51221" lon="6.85686">
        <ele>318.4</ele>
        <time>2019-08-16T13:22:54Z</time>
      </trkpt>
      <trkpt lat="47.51218" lon="6.85679">
        <ele>318.4</ele>
        <time>2019-08-16T13:22:55Z</time>
      </trkpt>
      <trkpt lat="47.51217" lon="6.85672">
        <ele>318.3</ele>
        <time>2019-08-16T13:22:56Z</time>
      </trkpt>
      <trkpt lat="47.51216" lon="6.85665">
        <ele>318.3</ele>
        <time>2019-08-16T13:22:57Z</time>
      </trkpt>
      <trkpt lat="47.51214" lon="6.85658">
        <ele>318.3</ele>
        <time>2019-08-16T13:22:58Z</time>
      </trkpt>
      <trkpt lat="47.51211" lon="6.85652">
        <ele>318.3</ele>
        <time>2019-08-16T13:22:59Z</time>
      </trkpt>
      <trkpt lat="47.51209" lon="6.85646">
        <ele>318.3</ele>
        <time>2019-08-16T13:23:00Z</time>
      </trkpt>
      <trkpt lat="47.51207" lon="6.8564">
        <ele>318.3</ele>
        <time>2019-08-16T13:23:01Z</time>
      </trkpt>
      <trkpt lat="47.51205" lon="6.85634">
        <ele>318.3</ele>
        <time>2019-08-16T13:23:02Z</time>
      </trkpt>
      <trkpt lat="47.51203" lon="6.85628">
        <ele>318.3</ele>
        <time>2019-08-16T13:23:03Z</time>
      </trkpt>
      <trkpt lat="47.512" lon="6.85622">
        <ele>318.3</ele>
        <time>2019-08-16T13:23:04Z</time>
      </trkpt>
      <trkpt lat="47.51198" lon="6.85615">
        <ele>318.3</ele>
        <time>2019-08-16T13:23:05Z</time>
      </trkpt>
      <trkpt lat="47.51197" lon="6.85609">
        <ele>318.3</ele>
        <time>2019-08-16T13:23:06Z</time>
      </trkpt>
      <trkpt lat="47.51195" lon="6.85602">
        <ele>318.3</ele>
        <time>2019-08-16T13:23:07Z</time>
      </trkpt>
      <trkpt lat="47.51193" lon="6.85595">
        <ele>318.3</ele>
        <time>2019-08-16T13:23:08Z</time>
      </trkpt>
      <trkpt lat="47.51192" lon="6.85587">
        <ele>318.3</ele>
        <time>2019-08-16T13:23:09Z</time>
      </trkpt>
      <trkpt lat="47.51191" lon="6.85579">
        <ele>318.3</ele>
        <time>2019-08-16T13:23:10Z</time>
      </trkpt>
      <trkpt lat="47.51189" lon="6.85572">
        <ele>318.3</ele>
        <time>2019-08-16T13:23:11Z</time>
      </trkpt>
      <trkpt lat="47.51188" lon="6.85565">
        <ele>318.3</ele>
        <time>2019-08-16T13:23:12Z</time>
      </trkpt>
      <trkpt lat="47.51186" lon="6.85558">
        <ele>318.3</ele>
        <time>2019-08-16T13:23:13Z</time>
      </trkpt>
      <trkpt lat="47.51184" lon="6.85551">
        <ele>318.2</ele>
        <time>2019-08-16T13:23:14Z</time>
      </trkpt>
      <trkpt lat="47.51183" lon="6.85543">
        <ele>318.2</ele>
        <time>2019-08-16T13:23:15Z</time>
      </trkpt>
      <trkpt lat="47.51181" lon="6.85535">
        <ele>318.1</ele>
        <time>2019-08-16T13:23:16Z</time>
      </trkpt>
      <trkpt lat="47.51178" lon="6.8553">
        <ele>318.1</ele>
        <time>2019-08-16T13:23:17Z</time>
      </trkpt>
      <trkpt lat="47.51176" lon="6.85523">
        <ele>318</ele>
        <time>2019-08-16T13:23:18Z</time>
      </trkpt>
      <trkpt lat="47.51174" lon="6.85515">
        <ele>318</ele>
        <time>2019-08-16T13:23:19Z</time>
      </trkpt>
      <trkpt lat="47.51171" lon="6.85507">
        <ele>317.9</ele>
        <time>2019-08-16T13:23:20Z</time>
      </trkpt>
      <trkpt lat="47.51169" lon="6.85499">
        <ele>317.8</ele>
        <time>2019-08-16T13:23:21Z</time>
      </trkpt>
      <trkpt lat="47.51168" lon="6.85492">
        <ele>317.8</ele>
        <time>2019-08-16T13:23:22Z</time>
      </trkpt>
      <trkpt lat="47.51165" lon="6.85487">
        <ele>317.8</ele>
        <time>2019-08-16T13:23:23Z</time>
      </trkpt>
      <trkpt lat="47.51162" lon="6.8548">
        <ele>317.7</ele>
        <time>2019-08-16T13:23:24Z</time>
      </trkpt>
      <trkpt lat="47.5116" lon="6.85473">
        <ele>317.7</ele>
        <time>2019-08-16T13:23:25Z</time>
      </trkpt>
      <trkpt lat="47.51158" lon="6.85466">
        <ele>317.7</ele>
        <time>2019-08-16T13:23:26Z</time>
      </trkpt>
      <trkpt lat="47.51156" lon="6.8546">
        <ele>317.6</ele>
        <time>2019-08-16T13:23:27Z</time>
      </trkpt>
      <trkpt lat="47.51154" lon="6.85452">
        <ele>317.6</ele>
        <time>2019-08-16T13:23:28Z</time>
      </trkpt>
      <trkpt lat="47.51153" lon="6.85445">
        <ele>317.6</ele>
        <time>2019-08-16T13:23:29Z</time>
      </trkpt>
      <trkpt lat="47.51151" lon="6.85439">
        <ele>317.6</ele>
        <time>2019-08-16T13:23:30Z</time>
      </trkpt>
      <trkpt lat="47.51149" lon="6.85432">
        <ele>317.5</ele>
        <time>2019-08-16T13:23:31Z</time>
      </trkpt>
      <trkpt lat="47.51146" lon="6.85425">
        <ele>317.5</ele>
        <time>2019-08-16T13:23:32Z</time>
      </trkpt>
      <trkpt lat="47.51144" lon="6.85418">
        <ele>317.5</ele>
        <time>2019-08-16T13:23:33Z</time>
      </trkpt>
      <trkpt lat="47.51141" lon="6.8541">
        <ele>317.5</ele>
        <time>2019-08-16T13:23:34Z</time>
      </trkpt>
      <trkpt lat="47.51139" lon="6.85403">
        <ele>317.4</ele>
        <time>2019-08-16T13:23:35Z</time>
      </trkpt>
      <trkpt lat="47.51137" lon="6.85395">
        <ele>317.4</ele>
        <time>2019-08-16T13:23:36Z</time>
      </trkpt>
      <trkpt lat="47.51135" lon="6.85387">
        <ele>317.4</ele>
        <time>2019-08-16T13:23:37Z</time>
      </trkpt>
      <trkpt lat="47.51131" lon="6.85381">
        <ele>317.4</ele>
        <time>2019-08-16T13:23:38Z</time>
      </trkpt>
      <trkpt lat="47.51129" lon="6.85372">
        <ele>317.4</ele>
        <time>2019-08-16T13:23:39Z</time>
      </trkpt>
      <trkpt lat="47.51126" lon="6.85364">
        <ele>317.4</ele>
        <time>2019-08-16T13:23:40Z</time>
      </trkpt>
      <trkpt lat="47.51123" lon="6.85356">
        <ele>317.4</ele>
        <time>2019-08-16T13:23:41Z</time>
      </trkpt>
      <trkpt lat="47.51121" lon="6.8535">
        <ele>317.4</ele>
        <time>2019-08-16T13:23:42Z</time>
      </trkpt>
      <trkpt lat="47.51118" lon="6.85343">
        <ele>317.4</ele>
        <time>2019-08-16T13:23:43Z</time>
      </trkpt>
      <trkpt lat="47.51117" lon="6.85336">
        <ele>317.4</ele>
        <time>2019-08-16T13:23:44Z</time>
      </trkpt>
      <trkpt lat="47.51114" lon="6.85329">
        <ele>317.4</ele>
        <time>2019-08-16T13:23:45Z</time>
      </trkpt>
      <trkpt lat="47.51112" lon="6.85322">
        <ele>317.4</ele>
        <time>2019-08-16T13:23:46Z</time>
      </trkpt>
      <trkpt lat="47.5111" lon="6.85315">
        <ele>317.4</ele>
        <time>2019-08-16T13:23:47Z</time>
      </trkpt>
      <trkpt lat="47.51107" lon="6.85309">
        <ele>317.5</ele>
        <time>2019-08-16T13:23:48Z</time>
      </trkpt>
      <trkpt lat="47.51104" lon="6.85304">
        <ele>317.5</ele>
        <time>2019-08-16T13:23:49Z</time>
      </trkpt>
      <trkpt lat="47.51101" lon="6.85297">
        <ele>317.5</ele>
        <time>2019-08-16T13:23:50Z</time>
      </trkpt>
      <trkpt lat="47.51098" lon="6.85291">
        <ele>317.5</ele>
        <time>2019-08-16T13:23:51Z</time>
      </trkpt>
      <trkpt lat="47.51096" lon="6.85285">
        <ele>317.6</ele>
        <time>2019-08-16T13:23:52Z</time>
      </trkpt>
      <trkpt lat="47.51093" lon="6.85278">
        <ele>317.6</ele>
        <time>2019-08-16T13:23:53Z</time>
      </trkpt>
      <trkpt lat="47.51092" lon="6.85272">
        <ele>317.6</ele>
        <time>2019-08-16T13:23:54Z</time>
      </trkpt>
      <trkpt lat="47.5109" lon="6.85264">
        <ele>317.6</ele>
        <time>2019-08-16T13:23:55Z</time>
      </trkpt>
      <trkpt lat="47.51088" lon="6.85257">
        <ele>317.7</ele>
        <time>2019-08-16T13:23:56Z</time>
      </trkpt>
      <trkpt lat="47.51086" lon="6.8525">
        <ele>317.7</ele>
        <time>2019-08-16T13:23:57Z</time>
      </trkpt>
      <trkpt lat="47.51084" lon="6.85243">
        <ele>317.7</ele>
        <time>2019-08-16T13:23:58Z</time>
      </trkpt>
      <trkpt lat="47.51083" lon="6.85235">
        <ele>317.7</ele>
        <time>2019-08-16T13:23:59Z</time>
      </trkpt>
      <trkpt lat="47.51081" lon="6.85228">
        <ele>317.8</ele>
        <time>2019-08-16T13:24:00Z</time>
      </trkpt>
      <trkpt lat="47.5108" lon="6.85221">
        <ele>317.8</ele>
        <time>2019-08-16T13:24:01Z</time>
      </trkpt>
      <trkpt lat="47.51078" lon="6.85213">
        <ele>317.8</ele>
        <time>2019-08-16T13:24:02Z</time>
      </trkpt>
      <trkpt lat="47.51076" lon="6.85205">
        <ele>317.8</ele>
        <time>2019-08-16T13:24:03Z</time>
      </trkpt>
      <trkpt lat="47.51073" lon="6.85198">
        <ele>317.8</ele>
        <time>2019-08-16T13:24:04Z</time>
      </trkpt>
      <trkpt lat="47.51071" lon="6.8519">
        <ele>317.8</ele>
        <time>2019-08-16T13:24:05Z</time>
      </trkpt>
      <trkpt lat="47.5107" lon="6.85184">
        <ele>317.8</ele>
        <time>2019-08-16T13:24:06Z</time>
      </trkpt>
      <trkpt lat="47.51068" lon="6.85176">
        <ele>317.8</ele>
        <time>2019-08-16T13:24:07Z</time>
      </trkpt>
      <trkpt lat="47.51066" lon="6.8517">
        <ele>317.8</ele>
        <time>2019-08-16T13:24:08Z</time>
      </trkpt>
      <trkpt lat="47.51064" lon="6.85164">
        <ele>317.8</ele>
        <time>2019-08-16T13:24:09Z</time>
      </trkpt>
      <trkpt lat="47.51062" lon="6.85157">
        <ele>317.8</ele>
        <time>2019-08-16T13:24:10Z</time>
      </trkpt>
      <trkpt lat="47.5106" lon="6.85151">
        <ele>317.8</ele>
        <time>2019-08-16T13:24:11Z</time>
      </trkpt>
      <trkpt lat="47.51058" lon="6.85144">
        <ele>317.8</ele>
        <time>2019-08-16T13:24:12Z</time>
      </trkpt>
      <trkpt lat="47.51056" lon="6.85138">
        <ele>317.8</ele>
        <time>2019-08-16T13:24:13Z</time>
      </trkpt>
      <trkpt lat="47.51054" lon="6.85131">
        <ele>317.8</ele>
        <time>2019-08-16T13:24:14Z</time>
      </trkpt>
      <trkpt lat="47.51052" lon="6.85125">
        <ele>317.8</ele>
        <time>2019-08-16T13:24:15Z</time>
      </trkpt>
      <trkpt lat="47.5105" lon="6.85117">
        <ele>317.8</ele>
        <time>2019-08-16T13:24:16Z</time>
      </trkpt>
      <trkpt lat="47.51049" lon="6.85111">
        <ele>317.8</ele>
        <time>2019-08-16T13:24:17Z</time>
      </trkpt>
      <trkpt lat="47.51047" lon="6.85104">
        <ele>317.8</ele>
        <time>2019-08-16T13:24:18Z</time>
      </trkpt>
      <trkpt lat="47.51046" lon="6.85098">
        <ele>317.7</ele>
        <time>2019-08-16T13:24:19Z</time>
      </trkpt>
      <trkpt lat="47.51044" lon="6.85093">
        <ele>317.7</ele>
        <time>2019-08-16T13:24:20Z</time>
      </trkpt>
      <trkpt lat="47.51043" lon="6.85087">
        <ele>317.7</ele>
        <time>2019-08-16T13:24:21Z</time>
      </trkpt>
      <trkpt lat="47.51041" lon="6.85083">
        <ele>317.7</ele>
        <time>2019-08-16T13:24:22Z</time>
      </trkpt>
      <trkpt lat="47.51039" lon="6.85079">
        <ele>317.6</ele>
        <time>2019-08-16T13:24:23Z</time>
      </trkpt>
      <trkpt lat="47.51035" lon="6.85077">
        <ele>317.7</ele>
        <time>2019-08-16T13:24:25Z</time>
      </trkpt>
      <trkpt lat="47.51032" lon="6.85077">
        <ele>317.7</ele>
        <time>2019-08-16T13:24:26Z</time>
      </trkpt>
      <trkpt lat="47.51028" lon="6.8508">
        <ele>317.8</ele>
        <time>2019-08-16T13:24:28Z</time>
      </trkpt>
      <trkpt lat="47.51025" lon="6.85081">
        <ele>317.8</ele>
        <time>2019-08-16T13:24:29Z</time>
      </trkpt>
      <trkpt lat="47.51019" lon="6.85078">
        <ele>318.2</ele>
        <time>2019-08-16T13:24:31Z</time>
      </trkpt>
      <trkpt lat="47.51017" lon="6.85073">
        <ele>318.2</ele>
        <time>2019-08-16T13:24:32Z</time>
      </trkpt>
      <trkpt lat="47.51015" lon="6.85066">
        <ele>318.2</ele>
        <time>2019-08-16T13:24:33Z</time>
      </trkpt>
      <trkpt lat="47.51013" lon="6.85061">
        <ele>318.2</ele>
        <time>2019-08-16T13:24:34Z</time>
      </trkpt>
      <trkpt lat="47.51012" lon="6.85055">
        <ele>318.2</ele>
        <time>2019-08-16T13:24:35Z</time>
      </trkpt>
      <trkpt lat="47.5101" lon="6.85049">
        <ele>318.3</ele>
        <time>2019-08-16T13:24:36Z</time>
      </trkpt>
      <trkpt lat="47.51008" lon="6.85043">
        <ele>318.3</ele>
        <time>2019-08-16T13:24:37Z</time>
      </trkpt>
      <trkpt lat="47.51006" lon="6.85037">
        <ele>318.3</ele>
        <time>2019-08-16T13:24:38Z</time>
      </trkpt>
      <trkpt lat="47.51004" lon="6.85031">
        <ele>318.3</ele>
        <time>2019-08-16T13:24:39Z</time>
      </trkpt>
      <trkpt lat="47.51002" lon="6.85024">
        <ele>318.3</ele>
        <time>2019-08-16T13:24:40Z</time>
      </trkpt>
      <trkpt lat="47.51" lon="6.85019">
        <ele>318.4</ele>
        <time>2019-08-16T13:24:41Z</time>
      </trkpt>
      <trkpt lat="47.50998" lon="6.85012">
        <ele>318.4</ele>
        <time>2019-08-16T13:24:42Z</time>
      </trkpt>
      <trkpt lat="47.50996" lon="6.85005">
        <ele>318.4</ele>
        <time>2019-08-16T13:24:43Z</time>
      </trkpt>
      <trkpt lat="47.50994" lon="6.84998">
        <ele>318.5</ele>
        <time>2019-08-16T13:24:44Z</time>
      </trkpt>
      <trkpt lat="47.50992" lon="6.84991">
        <ele>318.5</ele>
        <time>2019-08-16T13:24:45Z</time>
      </trkpt>
      <trkpt lat="47.50989" lon="6.84984">
        <ele>318.5</ele>
        <time>2019-08-16T13:24:46Z</time>
      </trkpt>
      <trkpt lat="47.50987" lon="6.84977">
        <ele>318.6</ele>
        <time>2019-08-16T13:24:47Z</time>
      </trkpt>
      <trkpt lat="47.50985" lon="6.84971">
        <ele>318.6</ele>
        <time>2019-08-16T13:24:48Z</time>
      </trkpt>
      <trkpt lat="47.50984" lon="6.84966">
        <ele>318.7</ele>
        <time>2019-08-16T13:24:49Z</time>
      </trkpt>
      <trkpt lat="47.50982" lon="6.84958">
        <ele>318.7</ele>
        <time>2019-08-16T13:24:50Z</time>
      </trkpt>
      <trkpt lat="47.5098" lon="6.8495">
        <ele>318.7</ele>
        <time>2019-08-16T13:24:51Z</time>
      </trkpt>
      <trkpt lat="47.5098" lon="6.84942">
        <ele>318.8</ele>
        <time>2019-08-16T13:24:52Z</time>
      </trkpt>
      <trkpt lat="47.50978" lon="6.84936">
        <ele>318.8</ele>
        <time>2019-08-16T13:24:53Z</time>
      </trkpt>
      <trkpt lat="47.50977" lon="6.84928">
        <ele>318.9</ele>
        <time>2019-08-16T13:24:54Z</time>
      </trkpt>
      <trkpt lat="47.50976" lon="6.8492">
        <ele>318.9</ele>
        <time>2019-08-16T13:24:55Z</time>
      </trkpt>
      <trkpt lat="47.50976" lon="6.84911">
        <ele>319</ele>
        <time>2019-08-16T13:24:56Z</time>
      </trkpt>
      <trkpt lat="47.50976" lon="6.84904">
        <ele>319</ele>
        <time>2019-08-16T13:24:57Z</time>
      </trkpt>
      <trkpt lat="47.50976" lon="6.84896">
        <ele>319</ele>
        <time>2019-08-16T13:24:58Z</time>
      </trkpt>
      <trkpt lat="47.50976" lon="6.84889">
        <ele>319.1</ele>
        <time>2019-08-16T13:24:59Z</time>
      </trkpt>
      <trkpt lat="47.50974" lon="6.84882">
        <ele>319.1</ele>
        <time>2019-08-16T13:25:00Z</time>
      </trkpt>
      <trkpt lat="47.50973" lon="6.84876">
        <ele>319.1</ele>
        <time>2019-08-16T13:25:01Z</time>
      </trkpt>
      <trkpt lat="47.50971" lon="6.84869">
        <ele>319.1</ele>
        <time>2019-08-16T13:25:02Z</time>
      </trkpt>
      <trkpt lat="47.5097" lon="6.84863">
        <ele>319.2</ele>
        <time>2019-08-16T13:25:03Z</time>
      </trkpt>
      <trkpt lat="47.50968" lon="6.84855">
        <ele>319.2</ele>
        <time>2019-08-16T13:25:04Z</time>
      </trkpt>
      <trkpt lat="47.50967" lon="6.84848">
        <ele>319.2</ele>
        <time>2019-08-16T13:25:05Z</time>
      </trkpt>
      <trkpt lat="47.50965" lon="6.84842">
        <ele>319.2</ele>
        <time>2019-08-16T13:25:06Z</time>
      </trkpt>
      <trkpt lat="47.50963" lon="6.84836">
        <ele>319.2</ele>
        <time>2019-08-16T13:25:07Z</time>
      </trkpt>
      <trkpt lat="47.50962" lon="6.84829">
        <ele>319.3</ele>
        <time>2019-08-16T13:25:08Z</time>
      </trkpt>
      <trkpt lat="47.5096" lon="6.84823">
        <ele>319.3</ele>
        <time>2019-08-16T13:25:09Z</time>
      </trkpt>
      <trkpt lat="47.5096" lon="6.84817">
        <ele>319.3</ele>
        <time>2019-08-16T13:25:10Z</time>
      </trkpt>
      <trkpt lat="47.50958" lon="6.84811">
        <ele>319.3</ele>
        <time>2019-08-16T13:25:11Z</time>
      </trkpt>
      <trkpt lat="47.50957" lon="6.84805">
        <ele>319.3</ele>
        <time>2019-08-16T13:25:12Z</time>
      </trkpt>
      <trkpt lat="47.50955" lon="6.84799">
        <ele>319.3</ele>
        <time>2019-08-16T13:25:13Z</time>
      </trkpt>
      <trkpt lat="47.50953" lon="6.84793">
        <ele>319.3</ele>
        <time>2019-08-16T13:25:14Z</time>
      </trkpt>
      <trkpt lat="47.5095" lon="6.84787">
        <ele>319.4</ele>
        <time>2019-08-16T13:25:15Z</time>
      </trkpt>
      <trkpt lat="47.50947" lon="6.8478">
        <ele>319.4</ele>
        <time>2019-08-16T13:25:16Z</time>
      </trkpt>
      <trkpt lat="47.50945" lon="6.84774">
        <ele>319.4</ele>
        <time>2019-08-16T13:25:17Z</time>
      </trkpt>
      <trkpt lat="47.50942" lon="6.84768">
        <ele>319.4</ele>
        <time>2019-08-16T13:25:18Z</time>
      </trkpt>
      <trkpt lat="47.5094" lon="6.84762">
        <ele>319.4</ele>
        <time>2019-08-16T13:25:19Z</time>
      </trkpt>
      <trkpt lat="47.50938" lon="6.84756">
        <ele>319.4</ele>
        <time>2019-08-16T13:25:20Z</time>
      </trkpt>
      <trkpt lat="47.50936" lon="6.8475">
        <ele>319.4</ele>
        <time>2019-08-16T13:25:21Z</time>
      </trkpt>
      <trkpt lat="47.50934" lon="6.84743">
        <ele>318.9</ele>
        <time>2019-08-16T13:25:22Z</time>
      </trkpt>
      <trkpt lat="47.50933" lon="6.84736">
        <ele>318.7</ele>
        <time>2019-08-16T13:25:23Z</time>
      </trkpt>
      <trkpt lat="47.50932" lon="6.84729">
        <ele>318.5</ele>
        <time>2019-08-16T13:25:24Z</time>
      </trkpt>
      <trkpt lat="47.5093" lon="6.84723">
        <ele>318.3</ele>
        <time>2019-08-16T13:25:25Z</time>
      </trkpt>
      <trkpt lat="47.50929" lon="6.84716">
        <ele>318.1</ele>
        <time>2019-08-16T13:25:26Z</time>
      </trkpt>
      <trkpt lat="47.50927" lon="6.8471">
        <ele>318</ele>
        <time>2019-08-16T13:25:27Z</time>
      </trkpt>
      <trkpt lat="47.50925" lon="6.84703">
        <ele>317.8</ele>
        <time>2019-08-16T13:25:28Z</time>
      </trkpt>
      <trkpt lat="47.50923" lon="6.84695">
        <ele>317.6</ele>
        <time>2019-08-16T13:25:29Z</time>
      </trkpt>
      <trkpt lat="47.50922" lon="6.84687">
        <ele>317.4</ele>
        <time>2019-08-16T13:25:30Z</time>
      </trkpt>
      <trkpt lat="47.50919" lon="6.84678">
        <ele>317.2</ele>
        <time>2019-08-16T13:25:31Z</time>
      </trkpt>
      <trkpt lat="47.50916" lon="6.84669">
        <ele>317.1</ele>
        <time>2019-08-16T13:25:32Z</time>
      </trkpt>
      <trkpt lat="47.50913" lon="6.84661">
        <ele>316.9</ele>
        <time>2019-08-16T13:25:33Z</time>
      </trkpt>
      <trkpt lat="47.5091" lon="6.84654">
        <ele>316.9</ele>
        <time>2019-08-16T13:25:34Z</time>
      </trkpt>
      <trkpt lat="47.50907" lon="6.84647">
        <ele>316.8</ele>
        <time>2019-08-16T13:25:35Z</time>
      </trkpt>
      <trkpt lat="47.50902" lon="6.8464">
        <ele>316.7</ele>
        <time>2019-08-16T13:25:36Z</time>
      </trkpt>
      <trkpt lat="47.50898" lon="6.84632">
        <ele>316.6</ele>
        <time>2019-08-16T13:25:37Z</time>
      </trkpt>
      <trkpt lat="47.50893" lon="6.84625">
        <ele>316.6</ele>
        <time>2019-08-16T13:25:38Z</time>
      </trkpt>
      <trkpt lat="47.50887" lon="6.8462">
        <ele>316.5</ele>
        <time>2019-08-16T13:25:39Z</time>
      </trkpt>
      <trkpt lat="47.50882" lon="6.84614">
        <ele>316.5</ele>
        <time>2019-08-16T13:25:40Z</time>
      </trkpt>
      <trkpt lat="47.50878" lon="6.84608">
        <ele>316.5</ele>
        <time>2019-08-16T13:25:41Z</time>
      </trkpt>
      <trkpt lat="47.50874" lon="6.84601">
        <ele>316.5</ele>
        <time>2019-08-16T13:25:42Z</time>
      </trkpt>
      <trkpt lat="47.5087" lon="6.84594">
        <ele>316.5</ele>
        <time>2019-08-16T13:25:43Z</time>
      </trkpt>
      <trkpt lat="47.50866" lon="6.84589">
        <ele>316.5</ele>
        <time>2019-08-16T13:25:44Z</time>
      </trkpt>
      <trkpt lat="47.50862" lon="6.84582">
        <ele>316.5</ele>
        <time>2019-08-16T13:25:45Z</time>
      </trkpt>
      <trkpt lat="47.50859" lon="6.84575">
        <ele>316.5</ele>
        <time>2019-08-16T13:25:46Z</time>
      </trkpt>
      <trkpt lat="47.50856" lon="6.84568">
        <ele>316.4</ele>
        <time>2019-08-16T13:25:47Z</time>
      </trkpt>
      <trkpt lat="47.50852" lon="6.84561">
        <ele>316.4</ele>
        <time>2019-08-16T13:25:48Z</time>
      </trkpt>
      <trkpt lat="47.50848" lon="6.84554">
        <ele>316.4</ele>
        <time>2019-08-16T13:25:49Z</time>
      </trkpt>
      <trkpt lat="47.50845" lon="6.84547">
        <ele>316.4</ele>
        <time>2019-08-16T13:25:50Z</time>
      </trkpt>
      <trkpt lat="47.50841" lon="6.84541">
        <ele>316.3</ele>
        <time>2019-08-16T13:25:51Z</time>
      </trkpt>
      <trkpt lat="47.50838" lon="6.84534">
        <ele>316.3</ele>
        <time>2019-08-16T13:25:52Z</time>
      </trkpt>
      <trkpt lat="47.50834" lon="6.84527">
        <ele>316.2</ele>
        <time>2019-08-16T13:25:53Z</time>
      </trkpt>
      <trkpt lat="47.5083" lon="6.8452">
        <ele>316.2</ele>
        <time>2019-08-16T13:25:54Z</time>
      </trkpt>
      <trkpt lat="47.50827" lon="6.84513">
        <ele>316.1</ele>
        <time>2019-08-16T13:25:55Z</time>
      </trkpt>
      <trkpt lat="47.50823" lon="6.84505">
        <ele>316</ele>
        <time>2019-08-16T13:25:56Z</time>
      </trkpt>
      <trkpt lat="47.5082" lon="6.84498">
        <ele>315.9</ele>
        <time>2019-08-16T13:25:57Z</time>
      </trkpt>
      <trkpt lat="47.50816" lon="6.84491">
        <ele>315.8</ele>
        <time>2019-08-16T13:25:58Z</time>
      </trkpt>
      <trkpt lat="47.50812" lon="6.84484">
        <ele>315.8</ele>
        <time>2019-08-16T13:25:59Z</time>
      </trkpt>
      <trkpt lat="47.50808" lon="6.84476">
        <ele>315.7</ele>
        <time>2019-08-16T13:26:00Z</time>
      </trkpt>
      <trkpt lat="47.50805" lon="6.84469">
        <ele>315.6</ele>
        <time>2019-08-16T13:26:01Z</time>
      </trkpt>
      <trkpt lat="47.50801" lon="6.84461">
        <ele>315.5</ele>
        <time>2019-08-16T13:26:02Z</time>
      </trkpt>
      <trkpt lat="47.50798" lon="6.84452">
        <ele>315.5</ele>
        <time>2019-08-16T13:26:03Z</time>
      </trkpt>
      <trkpt lat="47.50794" lon="6.84442">
        <ele>315.4</ele>
        <time>2019-08-16T13:26:04Z</time>
      </trkpt>
      <trkpt lat="47.50791" lon="6.84433">
        <ele>315.4</ele>
        <time>2019-08-16T13:26:05Z</time>
      </trkpt>
      <trkpt lat="47.50787" lon="6.84426">
        <ele>315.3</ele>
        <time>2019-08-16T13:26:06Z</time>
      </trkpt>
      <trkpt lat="47.50783" lon="6.84419">
        <ele>315.3</ele>
        <time>2019-08-16T13:26:07Z</time>
      </trkpt>
      <trkpt lat="47.50778" lon="6.84411">
        <ele>315.3</ele>
        <time>2019-08-16T13:26:08Z</time>
      </trkpt>
      <trkpt lat="47.50774" lon="6.84403">
        <ele>315.2</ele>
        <time>2019-08-16T13:26:09Z</time>
      </trkpt>
      <trkpt lat="47.5077" lon="6.84396">
        <ele>315.2</ele>
        <time>2019-08-16T13:26:10Z</time>
      </trkpt>
      <trkpt lat="47.50766" lon="6.84389">
        <ele>315.2</ele>
        <time>2019-08-16T13:26:11Z</time>
      </trkpt>
      <trkpt lat="47.50763" lon="6.84382">
        <ele>315.1</ele>
        <time>2019-08-16T13:26:12Z</time>
      </trkpt>
      <trkpt lat="47.5076" lon="6.84375">
        <ele>315.1</ele>
        <time>2019-08-16T13:26:13Z</time>
      </trkpt>
      <trkpt lat="47.50757" lon="6.84368">
        <ele>315.1</ele>
        <time>2019-08-16T13:26:14Z</time>
      </trkpt>
      <trkpt lat="47.50754" lon="6.84362">
        <ele>315.1</ele>
        <time>2019-08-16T13:26:15Z</time>
      </trkpt>
      <trkpt lat="47.50752" lon="6.84354">
        <ele>315.1</ele>
        <time>2019-08-16T13:26:16Z</time>
      </trkpt>
      <trkpt lat="47.50749" lon="6.84347">
        <ele>315</ele>
        <time>2019-08-16T13:26:17Z</time>
      </trkpt>
      <trkpt lat="47.50746" lon="6.84341">
        <ele>315</ele>
        <time>2019-08-16T13:26:18Z</time>
      </trkpt>
      <trkpt lat="47.50743" lon="6.84334">
        <ele>315</ele>
        <time>2019-08-16T13:26:19Z</time>
      </trkpt>
      <trkpt lat="47.50741" lon="6.84329">
        <ele>315</ele>
        <time>2019-08-16T13:26:20Z</time>
      </trkpt>
      <trkpt lat="47.50739" lon="6.84324">
        <ele>315</ele>
        <time>2019-08-16T13:26:21Z</time>
      </trkpt>
      <trkpt lat="47.50737" lon="6.84319">
        <ele>314.9</ele>
        <time>2019-08-16T13:26:22Z</time>
      </trkpt>
      <trkpt lat="47.50735" lon="6.84314">
        <ele>314.9</ele>
        <time>2019-08-16T13:26:23Z</time>
      </trkpt>
      <trkpt lat="47.50732" lon="6.84309">
        <ele>314.9</ele>
        <time>2019-08-16T13:26:24Z</time>
      </trkpt>
      <trkpt lat="47.5073" lon="6.84303">
        <ele>314.9</ele>
        <time>2019-08-16T13:26:25Z</time>
      </trkpt>
      <trkpt lat="47.50728" lon="6.84297">
        <ele>314.9</ele>
        <time>2019-08-16T13:26:26Z</time>
      </trkpt>
      <trkpt lat="47.50725" lon="6.84292">
        <ele>314.8</ele>
        <time>2019-08-16T13:26:27Z</time>
      </trkpt>
      <trkpt lat="47.50723" lon="6.84287">
        <ele>314.8</ele>
        <time>2019-08-16T13:26:28Z</time>
      </trkpt>
      <trkpt lat="47.50721" lon="6.84282">
        <ele>314.8</ele>
        <time>2019-08-16T13:26:29Z</time>
      </trkpt>
      <trkpt lat="47.50719" lon="6.84276">
        <ele>314.8</ele>
        <time>2019-08-16T13:26:30Z</time>
      </trkpt>
      <trkpt lat="47.50717" lon="6.84271">
        <ele>314.8</ele>
        <time>2019-08-16T13:26:31Z</time>
      </trkpt>
      <trkpt lat="47.50715" lon="6.84266">
        <ele>314.7</ele>
        <time>2019-08-16T13:26:32Z</time>
      </trkpt>
      <trkpt lat="47.50712" lon="6.8426">
        <ele>314.7</ele>
        <time>2019-08-16T13:26:33Z</time>
      </trkpt>
      <trkpt lat="47.5071" lon="6.84254">
        <ele>314.7</ele>
        <time>2019-08-16T13:26:34Z</time>
      </trkpt>
      <trkpt lat="47.50708" lon="6.84249">
        <ele>314.7</ele>
        <time>2019-08-16T13:26:35Z</time>
      </trkpt>
      <trkpt lat="47.50706" lon="6.84246">
        <ele>314.6</ele>
        <time>2019-08-16T13:26:36Z</time>
      </trkpt>
      <trkpt lat="47.50703" lon="6.84241">
        <ele>314.6</ele>
        <time>2019-08-16T13:26:37Z</time>
      </trkpt>
      <trkpt lat="47.50701" lon="6.84235">
        <ele>314.5</ele>
        <time>2019-08-16T13:26:38Z</time>
      </trkpt>
      <trkpt lat="47.50698" lon="6.8423">
        <ele>314.4</ele>
        <time>2019-08-16T13:26:39Z</time>
      </trkpt>
      <trkpt lat="47.50696" lon="6.84225">
        <ele>314.4</ele>
        <time>2019-08-16T13:26:40Z</time>
      </trkpt>
      <trkpt lat="47.50694" lon="6.84219">
        <ele>314.3</ele>
        <time>2019-08-16T13:26:41Z</time>
      </trkpt>
      <trkpt lat="47.50692" lon="6.84214">
        <ele>314.2</ele>
        <time>2019-08-16T13:26:42Z</time>
      </trkpt>
      <trkpt lat="47.50691" lon="6.84209">
        <ele>314.1</ele>
        <time>2019-08-16T13:26:43Z</time>
      </trkpt>
      <trkpt lat="47.50689" lon="6.84204">
        <ele>314</ele>
        <time>2019-08-16T13:26:44Z</time>
      </trkpt>
      <trkpt lat="47.50688" lon="6.84197">
        <ele>313.9</ele>
        <time>2019-08-16T13:26:45Z</time>
      </trkpt>
      <trkpt lat="47.50689" lon="6.8419">
        <ele>313.8</ele>
        <time>2019-08-16T13:26:46Z</time>
      </trkpt>
      <trkpt lat="47.50691" lon="6.84181">
        <ele>313.6</ele>
        <time>2019-08-16T13:26:47Z</time>
      </trkpt>
      <trkpt lat="47.50693" lon="6.84173">
        <ele>313.4</ele>
        <time>2019-08-16T13:26:48Z</time>
      </trkpt>
      <trkpt lat="47.50693" lon="6.84165">
        <ele>313.2</ele>
        <time>2019-08-16T13:26:49Z</time>
      </trkpt>
      <trkpt lat="47.5069" lon="6.84159">
        <ele>313.1</ele>
        <time>2019-08-16T13:26:50Z</time>
      </trkpt>
      <trkpt lat="47.50687" lon="6.84154">
        <ele>313</ele>
        <time>2019-08-16T13:26:51Z</time>
      </trkpt>
      <trkpt lat="47.50685" lon="6.84149">
        <ele>312.8</ele>
        <time>2019-08-16T13:26:52Z</time>
      </trkpt>
      <trkpt lat="47.50683" lon="6.84146">
        <ele>312.8</ele>
        <time>2019-08-16T13:26:53Z</time>
      </trkpt>
      <trkpt lat="47.50681" lon="6.84141">
        <ele>312.7</ele>
        <time>2019-08-16T13:26:54Z</time>
      </trkpt>
      <trkpt lat="47.50678" lon="6.84136">
        <ele>312.6</ele>
        <time>2019-08-16T13:26:55Z</time>
      </trkpt>
      <trkpt lat="47.50675" lon="6.84133">
        <ele>312.6</ele>
        <time>2019-08-16T13:26:56Z</time>
      </trkpt>
      <trkpt lat="47.50671" lon="6.8413">
        <ele>312.5</ele>
        <time>2019-08-16T13:26:58Z</time>
      </trkpt>
      <trkpt lat="47.50666" lon="6.84127">
        <ele>312.5</ele>
        <time>2019-08-16T13:27:00Z</time>
      </trkpt>
      <trkpt lat="47.50663" lon="6.84124">
        <ele>312.4</ele>
        <time>2019-08-16T13:27:02Z</time>
      </trkpt>
      <trkpt lat="47.50659" lon="6.84122">
        <ele>312.4</ele>
        <time>2019-08-16T13:27:05Z</time>
      </trkpt>
      <trkpt lat="47.50655" lon="6.84117">
        <ele>312.3</ele>
        <time>2019-08-16T13:27:07Z</time>
      </trkpt>
      <trkpt lat="47.50654" lon="6.84108">
        <ele>312.5</ele>
        <time>2019-08-16T13:27:09Z</time>
      </trkpt>
      <trkpt lat="47.50652" lon="6.84101">
        <ele>312.7</ele>
        <time>2019-08-16T13:27:11Z</time>
      </trkpt>
      <trkpt lat="47.50649" lon="6.84093">
        <ele>312.9</ele>
        <time>2019-08-16T13:27:13Z</time>
      </trkpt>
      <trkpt lat="47.50648" lon="6.84088">
        <ele>313</ele>
        <time>2019-08-16T13:27:14Z</time>
      </trkpt>
      <trkpt lat="47.50648" lon="6.84082">
        <ele>313.1</ele>
        <time>2019-08-16T13:27:15Z</time>
      </trkpt>
      <trkpt lat="47.50647" lon="6.84075">
        <ele>313.3</ele>
        <time>2019-08-16T13:27:17Z</time>
      </trkpt>
      <trkpt lat="47.50646" lon="6.84071">
        <ele>313.4</ele>
        <time>2019-08-16T13:27:18Z</time>
      </trkpt>
      <trkpt lat="47.50644" lon="6.84066">
        <ele>313.5</ele>
        <time>2019-08-16T13:27:19Z</time>
      </trkpt>
      <trkpt lat="47.50643" lon="6.84061">
        <ele>313.5</ele>
        <time>2019-08-16T13:27:20Z</time>
      </trkpt>
      <trkpt lat="47.50642" lon="6.84056">
        <ele>313.6</ele>
        <time>2019-08-16T13:27:21Z</time>
      </trkpt>
      <trkpt lat="47.50641" lon="6.84051">
        <ele>313.6</ele>
        <time>2019-08-16T13:27:22Z</time>
      </trkpt>
      <trkpt lat="47.5064" lon="6.84046">
        <ele>313.6</ele>
        <time>2019-08-16T13:27:23Z</time>
      </trkpt>
      <trkpt lat="47.5064" lon="6.8404">
        <ele>313.7</ele>
        <time>2019-08-16T13:27:24Z</time>
      </trkpt>
      <trkpt lat="47.50639" lon="6.84034">
        <ele>313.7</ele>
        <time>2019-08-16T13:27:25Z</time>
      </trkpt>
      <trkpt lat="47.50638" lon="6.84027">
        <ele>313.7</ele>
        <time>2019-08-16T13:27:26Z</time>
      </trkpt>
      <trkpt lat="47.50637" lon="6.84022">
        <ele>313.7</ele>
        <time>2019-08-16T13:27:27Z</time>
      </trkpt>
      <trkpt lat="47.50636" lon="6.84017">
        <ele>313.7</ele>
        <time>2019-08-16T13:27:28Z</time>
      </trkpt>
      <trkpt lat="47.50636" lon="6.84009">
        <ele>313.7</ele>
        <time>2019-08-16T13:27:29Z</time>
      </trkpt>
      <trkpt lat="47.50635" lon="6.84003">
        <ele>313.7</ele>
        <time>2019-08-16T13:27:30Z</time>
      </trkpt>
      <trkpt lat="47.50633" lon="6.83997">
        <ele>313.7</ele>
        <time>2019-08-16T13:27:31Z</time>
      </trkpt>
      <trkpt lat="47.50632" lon="6.83992">
        <ele>313.7</ele>
        <time>2019-08-16T13:27:32Z</time>
      </trkpt>
      <trkpt lat="47.5063" lon="6.83986">
        <ele>313.8</ele>
        <time>2019-08-16T13:27:33Z</time>
      </trkpt>
      <trkpt lat="47.50629" lon="6.83981">
        <ele>313.8</ele>
        <time>2019-08-16T13:27:34Z</time>
      </trkpt>
      <trkpt lat="47.50627" lon="6.83975">
        <ele>313.8</ele>
        <time>2019-08-16T13:27:35Z</time>
      </trkpt>
      <trkpt lat="47.50626" lon="6.83969">
        <ele>313.8</ele>
        <time>2019-08-16T13:27:36Z</time>
      </trkpt>
      <trkpt lat="47.50625" lon="6.83964">
        <ele>313.8</ele>
        <time>2019-08-16T13:27:37Z</time>
      </trkpt>
      <trkpt lat="47.50623" lon="6.83959">
        <ele>313.9</ele>
        <time>2019-08-16T13:27:38Z</time>
      </trkpt>
      <trkpt lat="47.50621" lon="6.83954">
        <ele>313.9</ele>
        <time>2019-08-16T13:27:39Z</time>
      </trkpt>
      <trkpt lat="47.50619" lon="6.83949">
        <ele>313.9</ele>
        <time>2019-08-16T13:27:40Z</time>
      </trkpt>
      <trkpt lat="47.50618" lon="6.83945">
        <ele>313.9</ele>
        <time>2019-08-16T13:27:41Z</time>
      </trkpt>
      <trkpt lat="47.50616" lon="6.83941">
        <ele>314</ele>
        <time>2019-08-16T13:27:42Z</time>
      </trkpt>
      <trkpt lat="47.50614" lon="6.83936">
        <ele>314</ele>
        <time>2019-08-16T13:27:43Z</time>
      </trkpt>
      <trkpt lat="47.50613" lon="6.83931">
        <ele>314</ele>
        <time>2019-08-16T13:27:44Z</time>
      </trkpt>
      <trkpt lat="47.50612" lon="6.83927">
        <ele>314</ele>
        <time>2019-08-16T13:27:45Z</time>
      </trkpt>
      <trkpt lat="47.5061" lon="6.83922">
        <ele>314</ele>
        <time>2019-08-16T13:27:46Z</time>
      </trkpt>
      <trkpt lat="47.50607" lon="6.83916">
        <ele>314.1</ele>
        <time>2019-08-16T13:27:47Z</time>
      </trkpt>
      <trkpt lat="47.50603" lon="6.8391">
        <ele>314.1</ele>
        <time>2019-08-16T13:27:48Z</time>
      </trkpt>
      <trkpt lat="47.506" lon="6.83904">
        <ele>314.1</ele>
        <time>2019-08-16T13:27:49Z</time>
      </trkpt>
      <trkpt lat="47.50598" lon="6.83899">
        <ele>314.2</ele>
        <time>2019-08-16T13:27:50Z</time>
      </trkpt>
      <trkpt lat="47.50596" lon="6.83894">
        <ele>314.2</ele>
        <time>2019-08-16T13:27:51Z</time>
      </trkpt>
      <trkpt lat="47.50594" lon="6.83889">
        <ele>314.2</ele>
        <time>2019-08-16T13:27:52Z</time>
      </trkpt>
      <trkpt lat="47.50591" lon="6.83885">
        <ele>314.2</ele>
        <time>2019-08-16T13:27:53Z</time>
      </trkpt>
      <trkpt lat="47.5059" lon="6.83881">
        <ele>314.2</ele>
        <time>2019-08-16T13:27:54Z</time>
      </trkpt>
      <trkpt lat="47.50589" lon="6.83877">
        <ele>314.3</ele>
        <time>2019-08-16T13:27:55Z</time>
      </trkpt>
      <trkpt lat="47.50588" lon="6.83872">
        <ele>314.3</ele>
        <time>2019-08-16T13:27:56Z</time>
      </trkpt>
      <trkpt lat="47.50587" lon="6.83866">
        <ele>314.3</ele>
        <time>2019-08-16T13:27:57Z</time>
      </trkpt>
      <trkpt lat="47.50586" lon="6.83859">
        <ele>314.3</ele>
        <time>2019-08-16T13:27:58Z</time>
      </trkpt>
      <trkpt lat="47.50585" lon="6.83853">
        <ele>314.3</ele>
        <time>2019-08-16T13:27:59Z</time>
      </trkpt>
      <trkpt lat="47.50584" lon="6.83847">
        <ele>314.3</ele>
        <time>2019-08-16T13:28:00Z</time>
      </trkpt>
      <trkpt lat="47.50583" lon="6.83841">
        <ele>314.3</ele>
        <time>2019-08-16T13:28:01Z</time>
      </trkpt>
      <trkpt lat="47.50581" lon="6.83836">
        <ele>314.3</ele>
        <time>2019-08-16T13:28:02Z</time>
      </trkpt>
      <trkpt lat="47.50579" lon="6.8383">
        <ele>314.4</ele>
        <time>2019-08-16T13:28:03Z</time>
      </trkpt>
      <trkpt lat="47.50578" lon="6.83824">
        <ele>314.4</ele>
        <time>2019-08-16T13:28:04Z</time>
      </trkpt>
      <trkpt lat="47.50576" lon="6.83818">
        <ele>314.4</ele>
        <time>2019-08-16T13:28:05Z</time>
      </trkpt>
      <trkpt lat="47.50575" lon="6.83811">
        <ele>314.4</ele>
        <time>2019-08-16T13:28:06Z</time>
      </trkpt>
      <trkpt lat="47.50573" lon="6.83804">
        <ele>314.4</ele>
        <time>2019-08-16T13:28:07Z</time>
      </trkpt>
      <trkpt lat="47.50572" lon="6.83797">
        <ele>314.4</ele>
        <time>2019-08-16T13:28:08Z</time>
      </trkpt>
      <trkpt lat="47.5057" lon="6.83791">
        <ele>314.4</ele>
        <time>2019-08-16T13:28:09Z</time>
      </trkpt>
      <trkpt lat="47.50568" lon="6.83785">
        <ele>314.5</ele>
        <time>2019-08-16T13:28:10Z</time>
      </trkpt>
      <trkpt lat="47.50567" lon="6.83779">
        <ele>314.5</ele>
        <time>2019-08-16T13:28:11Z</time>
      </trkpt>
      <trkpt lat="47.50565" lon="6.83771">
        <ele>314.5</ele>
        <time>2019-08-16T13:28:12Z</time>
      </trkpt>
      <trkpt lat="47.50564" lon="6.83764">
        <ele>314.5</ele>
        <time>2019-08-16T13:28:13Z</time>
      </trkpt>
      <trkpt lat="47.50562" lon="6.83756">
        <ele>314.5</ele>
        <time>2019-08-16T13:28:14Z</time>
      </trkpt>
      <trkpt lat="47.50561" lon="6.83748">
        <ele>314.5</ele>
        <time>2019-08-16T13:28:15Z</time>
      </trkpt>
      <trkpt lat="47.50559" lon="6.83742">
        <ele>314.5</ele>
        <time>2019-08-16T13:28:16Z</time>
      </trkpt>
      <trkpt lat="47.50557" lon="6.83735">
        <ele>314.5</ele>
        <time>2019-08-16T13:28:17Z</time>
      </trkpt>
      <trkpt lat="47.50556" lon="6.83728">
        <ele>314.5</ele>
        <time>2019-08-16T13:28:18Z</time>
      </trkpt>
      <trkpt lat="47.50554" lon="6.83723">
        <ele>314.5</ele>
        <time>2019-08-16T13:28:19Z</time>
      </trkpt>
      <trkpt lat="47.50553" lon="6.83718">
        <ele>314.4</ele>
        <time>2019-08-16T13:28:20Z</time>
      </trkpt>
      <trkpt lat="47.50552" lon="6.83713">
        <ele>314.4</ele>
        <time>2019-08-16T13:28:21Z</time>
      </trkpt>
      <trkpt lat="47.50551" lon="6.83707">
        <ele>314.4</ele>
        <time>2019-08-16T13:28:22Z</time>
      </trkpt>
      <trkpt lat="47.5055" lon="6.83702">
        <ele>314.4</ele>
        <time>2019-08-16T13:28:23Z</time>
      </trkpt>
      <trkpt lat="47.5055" lon="6.83694">
        <ele>314.4</ele>
        <time>2019-08-16T13:28:24Z</time>
      </trkpt>
      <trkpt lat="47.50548" lon="6.83688">
        <ele>314.4</ele>
        <time>2019-08-16T13:28:25Z</time>
      </trkpt>
      <trkpt lat="47.50547" lon="6.83681">
        <ele>314.4</ele>
        <time>2019-08-16T13:28:26Z</time>
      </trkpt>
      <trkpt lat="47.50545" lon="6.83674">
        <ele>314.3</ele>
        <time>2019-08-16T13:28:27Z</time>
      </trkpt>
      <trkpt lat="47.50543" lon="6.83666">
        <ele>314.3</ele>
        <time>2019-08-16T13:28:28Z</time>
      </trkpt>
      <trkpt lat="47.50541" lon="6.8366">
        <ele>314.3</ele>
        <time>2019-08-16T13:28:29Z</time>
      </trkpt>
      <trkpt lat="47.5054" lon="6.83653">
        <ele>314.3</ele>
        <time>2019-08-16T13:28:30Z</time>
      </trkpt>
      <trkpt lat="47.50537" lon="6.83646">
        <ele>314.3</ele>
        <time>2019-08-16T13:28:31Z</time>
      </trkpt>
      <trkpt lat="47.50535" lon="6.83639">
        <ele>314.3</ele>
        <time>2019-08-16T13:28:32Z</time>
      </trkpt>
      <trkpt lat="47.50533" lon="6.83633">
        <ele>314.2</ele>
        <time>2019-08-16T13:28:33Z</time>
      </trkpt>
      <trkpt lat="47.50531" lon="6.83627">
        <ele>314.2</ele>
        <time>2019-08-16T13:28:34Z</time>
      </trkpt>
      <trkpt lat="47.5053" lon="6.8362">
        <ele>314.2</ele>
        <time>2019-08-16T13:28:35Z</time>
      </trkpt>
      <trkpt lat="47.50529" lon="6.83614">
        <ele>314.2</ele>
        <time>2019-08-16T13:28:36Z</time>
      </trkpt>
      <trkpt lat="47.50527" lon="6.83607">
        <ele>314.2</ele>
        <time>2019-08-16T13:28:37Z</time>
      </trkpt>
      <trkpt lat="47.50526" lon="6.83601">
        <ele>314.2</ele>
        <time>2019-08-16T13:28:38Z</time>
      </trkpt>
      <trkpt lat="47.50525" lon="6.83595">
        <ele>314.2</ele>
        <time>2019-08-16T13:28:39Z</time>
      </trkpt>
      <trkpt lat="47.50523" lon="6.83589">
        <ele>314.2</ele>
        <time>2019-08-16T13:28:40Z</time>
      </trkpt>
      <trkpt lat="47.50522" lon="6.83583">
        <ele>314.2</ele>
        <time>2019-08-16T13:28:41Z</time>
      </trkpt>
      <trkpt lat="47.50519" lon="6.83577">
        <ele>314.2</ele>
        <time>2019-08-16T13:28:42Z</time>
      </trkpt>
      <trkpt lat="47.50517" lon="6.83571">
        <ele>314.2</ele>
        <time>2019-08-16T13:28:43Z</time>
      </trkpt>
      <trkpt lat="47.50515" lon="6.83566">
        <ele>314.2</ele>
        <time>2019-08-16T13:28:44Z</time>
      </trkpt>
      <trkpt lat="47.50513" lon="6.8356">
        <ele>314.2</ele>
        <time>2019-08-16T13:28:45Z</time>
      </trkpt>
      <trkpt lat="47.50511" lon="6.83555">
        <ele>314.2</ele>
        <time>2019-08-16T13:28:46Z</time>
      </trkpt>
      <trkpt lat="47.50508" lon="6.83549">
        <ele>314.2</ele>
        <time>2019-08-16T13:28:47Z</time>
      </trkpt>
      <trkpt lat="47.50505" lon="6.83543">
        <ele>314.2</ele>
        <time>2019-08-16T13:28:48Z</time>
      </trkpt>
      <trkpt lat="47.50503" lon="6.83536">
        <ele>314.2</ele>
        <time>2019-08-16T13:28:49Z</time>
      </trkpt>
      <trkpt lat="47.505" lon="6.83529">
        <ele>314.2</ele>
        <time>2019-08-16T13:28:50Z</time>
      </trkpt>
      <trkpt lat="47.50497" lon="6.83523">
        <ele>314.2</ele>
        <time>2019-08-16T13:28:51Z</time>
      </trkpt>
      <trkpt lat="47.50495" lon="6.83516">
        <ele>314.2</ele>
        <time>2019-08-16T13:28:52Z</time>
      </trkpt>
      <trkpt lat="47.50492" lon="6.83509">
        <ele>314.2</ele>
        <time>2019-08-16T13:28:53Z</time>
      </trkpt>
      <trkpt lat="47.5049" lon="6.83503">
        <ele>314.2</ele>
        <time>2019-08-16T13:28:54Z</time>
      </trkpt>
      <trkpt lat="47.50487" lon="6.83495">
        <ele>314.2</ele>
        <time>2019-08-16T13:28:55Z</time>
      </trkpt>
      <trkpt lat="47.50484" lon="6.83487">
        <ele>314.2</ele>
        <time>2019-08-16T13:28:56Z</time>
      </trkpt>
      <trkpt lat="47.50481" lon="6.83479">
        <ele>314.2</ele>
        <time>2019-08-16T13:28:57Z</time>
      </trkpt>
      <trkpt lat="47.50478" lon="6.83472">
        <ele>314.2</ele>
        <time>2019-08-16T13:28:58Z</time>
      </trkpt>
      <trkpt lat="47.50476" lon="6.83465">
        <ele>314.2</ele>
        <time>2019-08-16T13:28:59Z</time>
      </trkpt>
      <trkpt lat="47.50474" lon="6.83458">
        <ele>314.2</ele>
        <time>2019-08-16T13:29:00Z</time>
      </trkpt>
      <trkpt lat="47.50472" lon="6.83452">
        <ele>314.2</ele>
        <time>2019-08-16T13:29:01Z</time>
      </trkpt>
      <trkpt lat="47.5047" lon="6.83445">
        <ele>314.2</ele>
        <time>2019-08-16T13:29:02Z</time>
      </trkpt>
      <trkpt lat="47.50468" lon="6.83439">
        <ele>314.2</ele>
        <time>2019-08-16T13:29:03Z</time>
      </trkpt>
      <trkpt lat="47.50467" lon="6.83433">
        <ele>314.1</ele>
        <time>2019-08-16T13:29:04Z</time>
      </trkpt>
      <trkpt lat="47.50466" lon="6.83427">
        <ele>314.1</ele>
        <time>2019-08-16T13:29:05Z</time>
      </trkpt>
      <trkpt lat="47.50464" lon="6.83422">
        <ele>314.1</ele>
        <time>2019-08-16T13:29:06Z</time>
      </trkpt>
      <trkpt lat="47.50463" lon="6.83416">
        <ele>314.1</ele>
        <time>2019-08-16T13:29:07Z</time>
      </trkpt>
      <trkpt lat="47.50463" lon="6.83409">
        <ele>314</ele>
        <time>2019-08-16T13:29:08Z</time>
      </trkpt>
      <trkpt lat="47.50462" lon="6.83404">
        <ele>314</ele>
        <time>2019-08-16T13:29:09Z</time>
      </trkpt>
      <trkpt lat="47.50462" lon="6.83398">
        <ele>314</ele>
        <time>2019-08-16T13:29:10Z</time>
      </trkpt>
      <trkpt lat="47.50461" lon="6.83392">
        <ele>314</ele>
        <time>2019-08-16T13:29:11Z</time>
      </trkpt>
      <trkpt lat="47.50459" lon="6.83385">
        <ele>314</ele>
        <time>2019-08-16T13:29:12Z</time>
      </trkpt>
      <trkpt lat="47.50459" lon="6.83378">
        <ele>314</ele>
        <time>2019-08-16T13:29:13Z</time>
      </trkpt>
      <trkpt lat="47.50459" lon="6.83372">
        <ele>313.9</ele>
        <time>2019-08-16T13:29:14Z</time>
      </trkpt>
      <trkpt lat="47.50459" lon="6.83368">
        <ele>313.9</ele>
        <time>2019-08-16T13:29:15Z</time>
      </trkpt>
      <trkpt lat="47.50459" lon="6.83364">
        <ele>313.9</ele>
        <time>2019-08-16T13:29:16Z</time>
      </trkpt>
      <trkpt lat="47.50458" lon="6.83358">
        <ele>313.7</ele>
        <time>2019-08-16T13:29:17Z</time>
      </trkpt>
      <trkpt lat="47.50459" lon="6.83352">
        <ele>313.6</ele>
        <time>2019-08-16T13:29:18Z</time>
      </trkpt>
      <trkpt lat="47.5046" lon="6.83345">
        <ele>313.4</ele>
        <time>2019-08-16T13:29:19Z</time>
      </trkpt>
      <trkpt lat="47.50462" lon="6.83338">
        <ele>313.1</ele>
        <time>2019-08-16T13:29:20Z</time>
      </trkpt>
      <trkpt lat="47.50464" lon="6.8333">
        <ele>312.9</ele>
        <time>2019-08-16T13:29:21Z</time>
      </trkpt>
      <trkpt lat="47.50465" lon="6.83324">
        <ele>312.7</ele>
        <time>2019-08-16T13:29:22Z</time>
      </trkpt>
      <trkpt lat="47.50467" lon="6.83319">
        <ele>312.5</ele>
        <time>2019-08-16T13:29:23Z</time>
      </trkpt>
      <trkpt lat="47.50467" lon="6.83314">
        <ele>312.4</ele>
        <time>2019-08-16T13:29:24Z</time>
      </trkpt>
      <trkpt lat="47.50466" lon="6.83306">
        <ele>312.3</ele>
        <time>2019-08-16T13:29:26Z</time>
      </trkpt>
      <trkpt lat="47.50463" lon="6.83303">
        <ele>312.2</ele>
        <time>2019-08-16T13:29:27Z</time>
      </trkpt>
      <trkpt lat="47.5046" lon="6.833">
        <ele>312.2</ele>
        <time>2019-08-16T13:29:28Z</time>
      </trkpt>
      <trkpt lat="47.50456" lon="6.83297">
        <ele>312.2</ele>
        <time>2019-08-16T13:29:29Z</time>
      </trkpt>
      <trkpt lat="47.50452" lon="6.83294">
        <ele>312.1</ele>
        <time>2019-08-16T13:29:30Z</time>
      </trkpt>
      <trkpt lat="47.5045" lon="6.83288">
        <ele>312.1</ele>
        <time>2019-08-16T13:29:31Z</time>
      </trkpt>
      <trkpt lat="47.50447" lon="6.83282">
        <ele>312.1</ele>
        <time>2019-08-16T13:29:32Z</time>
      </trkpt>
      <trkpt lat="47.50444" lon="6.83276">
        <ele>312.1</ele>
        <time>2019-08-16T13:29:33Z</time>
      </trkpt>
      <trkpt lat="47.50441" lon="6.83273">
        <ele>312.1</ele>
        <time>2019-08-16T13:29:34Z</time>
      </trkpt>
      <trkpt lat="47.50439" lon="6.83269">
        <ele>312.1</ele>
        <time>2019-08-16T13:29:35Z</time>
      </trkpt>
      <trkpt lat="47.50437" lon="6.83265">
        <ele>312.1</ele>
        <time>2019-08-16T13:29:36Z</time>
      </trkpt>
      <trkpt lat="47.50435" lon="6.83258">
        <ele>312.1</ele>
        <time>2019-08-16T13:29:38Z</time>
      </trkpt>
      <trkpt lat="47.50433" lon="6.83251">
        <ele>312.3</ele>
        <time>2019-08-16T13:29:40Z</time>
      </trkpt>
      <trkpt lat="47.50432" lon="6.83247">
        <ele>312.4</ele>
        <time>2019-08-16T13:29:41Z</time>
      </trkpt>
      <trkpt lat="47.5043" lon="6.83242">
        <ele>312.5</ele>
        <time>2019-08-16T13:29:42Z</time>
      </trkpt>
      <trkpt lat="47.5043" lon="6.83237">
        <ele>312.7</ele>
        <time>2019-08-16T13:29:43Z</time>
      </trkpt>
      <trkpt lat="47.50429" lon="6.83231">
        <ele>312.8</ele>
        <time>2019-08-16T13:29:44Z</time>
      </trkpt>
      <trkpt lat="47.50429" lon="6.83225">
        <ele>312.8</ele>
        <time>2019-08-16T13:29:45Z</time>
      </trkpt>
      <trkpt lat="47.50429" lon="6.8322">
        <ele>312.9</ele>
        <time>2019-08-16T13:29:46Z</time>
      </trkpt>
      <trkpt lat="47.50428" lon="6.83214">
        <ele>313</ele>
        <time>2019-08-16T13:29:47Z</time>
      </trkpt>
      <trkpt lat="47.50427" lon="6.83208">
        <ele>313</ele>
        <time>2019-08-16T13:29:48Z</time>
      </trkpt>
      <trkpt lat="47.50426" lon="6.83203">
        <ele>313</ele>
        <time>2019-08-16T13:29:49Z</time>
      </trkpt>
      <trkpt lat="47.50425" lon="6.83197">
        <ele>313</ele>
        <time>2019-08-16T13:29:50Z</time>
      </trkpt>
      <trkpt lat="47.50424" lon="6.83192">
        <ele>313</ele>
        <time>2019-08-16T13:29:51Z</time>
      </trkpt>
      <trkpt lat="47.50422" lon="6.83187">
        <ele>313</ele>
        <time>2019-08-16T13:29:52Z</time>
      </trkpt>
      <trkpt lat="47.50421" lon="6.83182">
        <ele>313</ele>
        <time>2019-08-16T13:29:53Z</time>
      </trkpt>
      <trkpt lat="47.50419" lon="6.83176">
        <ele>313</ele>
        <time>2019-08-16T13:29:54Z</time>
      </trkpt>
      <trkpt lat="47.50417" lon="6.83171">
        <ele>313</ele>
        <time>2019-08-16T13:29:55Z</time>
      </trkpt>
      <trkpt lat="47.50416" lon="6.83165">
        <ele>313</ele>
        <time>2019-08-16T13:29:56Z</time>
      </trkpt>
      <trkpt lat="47.50415" lon="6.83158">
        <ele>313</ele>
        <time>2019-08-16T13:29:57Z</time>
      </trkpt>
      <trkpt lat="47.50414" lon="6.8315">
        <ele>313.1</ele>
        <time>2019-08-16T13:29:58Z</time>
      </trkpt>
      <trkpt lat="47.50413" lon="6.83144">
        <ele>313.1</ele>
        <time>2019-08-16T13:29:59Z</time>
      </trkpt>
      <trkpt lat="47.50413" lon="6.83137">
        <ele>313.1</ele>
        <time>2019-08-16T13:30:00Z</time>
      </trkpt>
      <trkpt lat="47.50413" lon="6.83129">
        <ele>313.1</ele>
        <time>2019-08-16T13:30:01Z</time>
      </trkpt>
      <trkpt lat="47.50413" lon="6.83123">
        <ele>313.1</ele>
        <time>2019-08-16T13:30:02Z</time>
      </trkpt>
      <trkpt lat="47.50411" lon="6.83117">
        <ele>313.2</ele>
        <time>2019-08-16T13:30:03Z</time>
      </trkpt>
      <trkpt lat="47.5041" lon="6.83111">
        <ele>313.2</ele>
        <time>2019-08-16T13:30:04Z</time>
      </trkpt>
      <trkpt lat="47.50409" lon="6.83105">
        <ele>313.2</ele>
        <time>2019-08-16T13:30:05Z</time>
      </trkpt>
      <trkpt lat="47.50408" lon="6.83099">
        <ele>313.2</ele>
        <time>2019-08-16T13:30:06Z</time>
      </trkpt>
      <trkpt lat="47.50407" lon="6.83091">
        <ele>313.2</ele>
        <time>2019-08-16T13:30:07Z</time>
      </trkpt>
      <trkpt lat="47.50406" lon="6.83085">
        <ele>313.3</ele>
        <time>2019-08-16T13:30:08Z</time>
      </trkpt>
      <trkpt lat="47.50405" lon="6.8308">
        <ele>313.3</ele>
        <time>2019-08-16T13:30:09Z</time>
      </trkpt>
      <trkpt lat="47.50404" lon="6.83074">
        <ele>313.3</ele>
        <time>2019-08-16T13:30:10Z</time>
      </trkpt>
      <trkpt lat="47.50403" lon="6.83068">
        <ele>313.3</ele>
        <time>2019-08-16T13:30:11Z</time>
      </trkpt>
      <trkpt lat="47.50403" lon="6.83062">
        <ele>313.3</ele>
        <time>2019-08-16T13:30:12Z</time>
      </trkpt>
      <trkpt lat="47.50401" lon="6.83056">
        <ele>313.3</ele>
        <time>2019-08-16T13:30:13Z</time>
      </trkpt>
      <trkpt lat="47.50399" lon="6.8305">
        <ele>313.3</ele>
        <time>2019-08-16T13:30:14Z</time>
      </trkpt>
      <trkpt lat="47.50398" lon="6.83043">
        <ele>313.4</ele>
        <time>2019-08-16T13:30:15Z</time>
      </trkpt>
      <trkpt lat="47.50396" lon="6.83036">
        <ele>313.4</ele>
        <time>2019-08-16T13:30:16Z</time>
      </trkpt>
      <trkpt lat="47.50395" lon="6.83031">
        <ele>313.4</ele>
        <time>2019-08-16T13:30:17Z</time>
      </trkpt>
      <trkpt lat="47.50395" lon="6.83025">
        <ele>313.4</ele>
        <time>2019-08-16T13:30:18Z</time>
      </trkpt>
      <trkpt lat="47.50395" lon="6.8302">
        <ele>313.4</ele>
        <time>2019-08-16T13:30:19Z</time>
      </trkpt>
      <trkpt lat="47.50394" lon="6.83015">
        <ele>313.4</ele>
        <time>2019-08-16T13:30:20Z</time>
      </trkpt>
      <trkpt lat="47.50393" lon="6.83007">
        <ele>313.5</ele>
        <time>2019-08-16T13:30:21Z</time>
      </trkpt>
      <trkpt lat="47.50392" lon="6.82999">
        <ele>313.5</ele>
        <time>2019-08-16T13:30:22Z</time>
      </trkpt>
      <trkpt lat="47.50391" lon="6.82992">
        <ele>313.5</ele>
        <time>2019-08-16T13:30:23Z</time>
      </trkpt>
      <trkpt lat="47.5039" lon="6.82984">
        <ele>313.5</ele>
        <time>2019-08-16T13:30:24Z</time>
      </trkpt>
      <trkpt lat="47.50388" lon="6.82977">
        <ele>313.5</ele>
        <time>2019-08-16T13:30:25Z</time>
      </trkpt>
      <trkpt lat="47.50386" lon="6.82969">
        <ele>313.5</ele>
        <time>2019-08-16T13:30:26Z</time>
      </trkpt>
      <trkpt lat="47.50383" lon="6.82962">
        <ele>313.6</ele>
        <time>2019-08-16T13:30:27Z</time>
      </trkpt>
      <trkpt lat="47.5038" lon="6.82958">
        <ele>313.6</ele>
        <time>2019-08-16T13:30:28Z</time>
      </trkpt>
      <trkpt lat="47.50378" lon="6.82952">
        <ele>313.6</ele>
        <time>2019-08-16T13:30:29Z</time>
      </trkpt>
      <trkpt lat="47.50378" lon="6.82946">
        <ele>313.6</ele>
        <time>2019-08-16T13:30:30Z</time>
      </trkpt>
      <trkpt lat="47.50377" lon="6.82941">
        <ele>313.6</ele>
        <time>2019-08-16T13:30:31Z</time>
      </trkpt>
      <trkpt lat="47.50376" lon="6.82934">
        <ele>313.6</ele>
        <time>2019-08-16T13:30:32Z</time>
      </trkpt>
      <trkpt lat="47.50376" lon="6.82926">
        <ele>313.6</ele>
        <time>2019-08-16T13:30:33Z</time>
      </trkpt>
      <trkpt lat="47.50375" lon="6.82918">
        <ele>313.7</ele>
        <time>2019-08-16T13:30:34Z</time>
      </trkpt>
      <trkpt lat="47.50374" lon="6.82911">
        <ele>313.7</ele>
        <time>2019-08-16T13:30:35Z</time>
      </trkpt>
      <trkpt lat="47.50373" lon="6.82904">
        <ele>313.7</ele>
        <time>2019-08-16T13:30:36Z</time>
      </trkpt>
      <trkpt lat="47.50372" lon="6.82895">
        <ele>313.7</ele>
        <time>2019-08-16T13:30:37Z</time>
      </trkpt>
      <trkpt lat="47.5037" lon="6.82887">
        <ele>313.7</ele>
        <time>2019-08-16T13:30:38Z</time>
      </trkpt>
      <trkpt lat="47.50369" lon="6.82879">
        <ele>313.8</ele>
        <time>2019-08-16T13:30:39Z</time>
      </trkpt>
      <trkpt lat="47.50368" lon="6.82871">
        <ele>313.8</ele>
        <time>2019-08-16T13:30:40Z</time>
      </trkpt>
      <trkpt lat="47.50367" lon="6.82864">
        <ele>313.8</ele>
        <time>2019-08-16T13:30:41Z</time>
      </trkpt>
      <trkpt lat="47.50365" lon="6.82857">
        <ele>313.8</ele>
        <time>2019-08-16T13:30:42Z</time>
      </trkpt>
      <trkpt lat="47.50365" lon="6.82851">
        <ele>313.8</ele>
        <time>2019-08-16T13:30:43Z</time>
      </trkpt>
      <trkpt lat="47.50364" lon="6.82844">
        <ele>313.9</ele>
        <time>2019-08-16T13:30:44Z</time>
      </trkpt>
      <trkpt lat="47.50362" lon="6.82839">
        <ele>313.9</ele>
        <time>2019-08-16T13:30:45Z</time>
      </trkpt>
      <trkpt lat="47.5036" lon="6.82833">
        <ele>313.9</ele>
        <time>2019-08-16T13:30:46Z</time>
      </trkpt>
      <trkpt lat="47.50358" lon="6.82828">
        <ele>313.9</ele>
        <time>2019-08-16T13:30:47Z</time>
      </trkpt>
      <trkpt lat="47.50356" lon="6.82822">
        <ele>313.9</ele>
        <time>2019-08-16T13:30:48Z</time>
      </trkpt>
      <trkpt lat="47.50355" lon="6.82815">
        <ele>313.9</ele>
        <time>2019-08-16T13:30:49Z</time>
      </trkpt>
      <trkpt lat="47.50353" lon="6.82809">
        <ele>313.9</ele>
        <time>2019-08-16T13:30:50Z</time>
      </trkpt>
      <trkpt lat="47.50352" lon="6.82802">
        <ele>313.9</ele>
        <time>2019-08-16T13:30:51Z</time>
      </trkpt>
      <trkpt lat="47.5035" lon="6.82795">
        <ele>313.8</ele>
        <time>2019-08-16T13:30:52Z</time>
      </trkpt>
      <trkpt lat="47.50348" lon="6.82787">
        <ele>313.8</ele>
        <time>2019-08-16T13:30:53Z</time>
      </trkpt>
      <trkpt lat="47.50347" lon="6.82781">
        <ele>313.8</ele>
        <time>2019-08-16T13:30:54Z</time>
      </trkpt>
      <trkpt lat="47.50346" lon="6.82775">
        <ele>313.8</ele>
        <time>2019-08-16T13:30:55Z</time>
      </trkpt>
      <trkpt lat="47.50345" lon="6.82769">
        <ele>313.8</ele>
        <time>2019-08-16T13:30:56Z</time>
      </trkpt>
      <trkpt lat="47.50345" lon="6.82764">
        <ele>313.8</ele>
        <time>2019-08-16T13:30:57Z</time>
      </trkpt>
      <trkpt lat="47.50344" lon="6.82759">
        <ele>313.8</ele>
        <time>2019-08-16T13:30:58Z</time>
      </trkpt>
      <trkpt lat="47.50343" lon="6.82754">
        <ele>313.8</ele>
        <time>2019-08-16T13:30:59Z</time>
      </trkpt>
      <trkpt lat="47.50342" lon="6.82744">
        <ele>313.8</ele>
        <time>2019-08-16T13:31:01Z</time>
      </trkpt>
      <trkpt lat="47.50342" lon="6.82738">
        <ele>313.8</ele>
        <time>2019-08-16T13:31:02Z</time>
      </trkpt>
      <trkpt lat="47.50342" lon="6.82729">
        <ele>313.8</ele>
        <time>2019-08-16T13:31:03Z</time>
      </trkpt>
      <trkpt lat="47.50342" lon="6.82721">
        <ele>313.8</ele>
        <time>2019-08-16T13:31:04Z</time>
      </trkpt>
      <trkpt lat="47.50342" lon="6.82714">
        <ele>313.7</ele>
        <time>2019-08-16T13:31:05Z</time>
      </trkpt>
      <trkpt lat="47.50343" lon="6.82707">
        <ele>313.7</ele>
        <time>2019-08-16T13:31:06Z</time>
      </trkpt>
      <trkpt lat="47.50343" lon="6.82699">
        <ele>313.7</ele>
        <time>2019-08-16T13:31:07Z</time>
      </trkpt>
      <trkpt lat="47.50344" lon="6.82691">
        <ele>313.7</ele>
        <time>2019-08-16T13:31:08Z</time>
      </trkpt>
      <trkpt lat="47.50345" lon="6.82684">
        <ele>313.7</ele>
        <time>2019-08-16T13:31:09Z</time>
      </trkpt>
      <trkpt lat="47.50347" lon="6.82677">
        <ele>313.7</ele>
        <time>2019-08-16T13:31:10Z</time>
      </trkpt>
      <trkpt lat="47.50347" lon="6.8267">
        <ele>313.7</ele>
        <time>2019-08-16T13:31:11Z</time>
      </trkpt>
      <trkpt lat="47.50348" lon="6.82662">
        <ele>313.6</ele>
        <time>2019-08-16T13:31:12Z</time>
      </trkpt>
      <trkpt lat="47.50348" lon="6.82654">
        <ele>313.6</ele>
        <time>2019-08-16T13:31:13Z</time>
      </trkpt>
      <trkpt lat="47.50347" lon="6.82646">
        <ele>313.6</ele>
        <time>2019-08-16T13:31:14Z</time>
      </trkpt>
      <trkpt lat="47.50347" lon="6.82638">
        <ele>313.5</ele>
        <time>2019-08-16T13:31:15Z</time>
      </trkpt>
      <trkpt lat="47.50347" lon="6.82631">
        <ele>313.5</ele>
        <time>2019-08-16T13:31:16Z</time>
      </trkpt>
      <trkpt lat="47.50348" lon="6.82624">
        <ele>313.4</ele>
        <time>2019-08-16T13:31:17Z</time>
      </trkpt>
      <trkpt lat="47.50348" lon="6.82617">
        <ele>313.4</ele>
        <time>2019-08-16T13:31:18Z</time>
      </trkpt>
      <trkpt lat="47.50349" lon="6.82611">
        <ele>313.3</ele>
        <time>2019-08-16T13:31:19Z</time>
      </trkpt>
      <trkpt lat="47.5035" lon="6.82605">
        <ele>313.2</ele>
        <time>2019-08-16T13:31:20Z</time>
      </trkpt>
      <trkpt lat="47.50352" lon="6.82598">
        <ele>313.1</ele>
        <time>2019-08-16T13:31:21Z</time>
      </trkpt>
      <trkpt lat="47.50353" lon="6.82591">
        <ele>312.9</ele>
        <time>2019-08-16T13:31:22Z</time>
      </trkpt>
      <trkpt lat="47.50355" lon="6.82585">
        <ele>312.8</ele>
        <time>2019-08-16T13:31:23Z</time>
      </trkpt>
      <trkpt lat="47.50356" lon="6.82578">
        <ele>312.6</ele>
        <time>2019-08-16T13:31:24Z</time>
      </trkpt>
      <trkpt lat="47.50356" lon="6.82573">
        <ele>312.5</ele>
        <time>2019-08-16T13:31:25Z</time>
      </trkpt>
      <trkpt lat="47.50356" lon="6.82567">
        <ele>312.6</ele>
        <time>2019-08-16T13:31:27Z</time>
      </trkpt>
      <trkpt lat="47.50356" lon="6.82562">
        <ele>312.6</ele>
        <time>2019-08-16T13:31:29Z</time>
      </trkpt>
      <trkpt lat="47.50359" lon="6.82556">
        <ele>312.6</ele>
        <time>2019-08-16T13:31:31Z</time>
      </trkpt>
      <trkpt lat="47.50362" lon="6.82548">
        <ele>312.7</ele>
        <time>2019-08-16T13:31:33Z</time>
      </trkpt>
      <trkpt lat="47.50364" lon="6.82544">
        <ele>312.7</ele>
        <time>2019-08-16T13:31:34Z</time>
      </trkpt>
      <trkpt lat="47.50367" lon="6.82544">
        <ele>312.8</ele>
        <time>2019-08-16T13:31:37Z</time>
      </trkpt>
      <trkpt lat="47.50371" lon="6.82545">
        <ele>312.8</ele>
        <time>2019-08-16T13:31:41Z</time>
      </trkpt>
      <trkpt lat="47.50373" lon="6.82542">
        <ele>312.9</ele>
        <time>2019-08-16T13:31:45Z</time>
      </trkpt>
      <trkpt lat="47.50376" lon="6.82538">
        <ele>312.9</ele>
        <time>2019-08-16T13:31:48Z</time>
      </trkpt>
      <trkpt lat="47.50382" lon="6.82529">
        <ele>313</ele>
        <time>2019-08-16T13:31:51Z</time>
      </trkpt>
      <trkpt lat="47.50386" lon="6.82521">
        <ele>313.1</ele>
        <time>2019-08-16T13:31:53Z</time>
      </trkpt>
      <trkpt lat="47.50392" lon="6.82513">
        <ele>313.2</ele>
        <time>2019-08-16T13:31:56Z</time>
      </trkpt>
      <trkpt lat="47.50395" lon="6.82505">
        <ele>313.3</ele>
        <time>2019-08-16T13:31:59Z</time>
      </trkpt>
      <trkpt lat="47.50398" lon="6.82496">
        <ele>313.3</ele>
        <time>2019-08-16T13:32:00Z</time>
      </trkpt>
      <trkpt lat="47.504" lon="6.82484">
        <ele>313.4</ele>
        <time>2019-08-16T13:32:01Z</time>
      </trkpt>
      <trkpt lat="47.50401" lon="6.82477">
        <ele>313.5</ele>
        <time>2019-08-16T13:32:02Z</time>
      </trkpt>
      <trkpt lat="47.50398" lon="6.82465">
        <ele>313.6</ele>
        <time>2019-08-16T13:32:03Z</time>
      </trkpt>
      <trkpt lat="47.50396" lon="6.82461">
        <ele>313.6</ele>
        <time>2019-08-16T13:32:04Z</time>
      </trkpt>
      <trkpt lat="47.50396" lon="6.82457">
        <ele>313.6</ele>
        <time>2019-08-16T13:32:05Z</time>
      </trkpt>
      <trkpt lat="47.50394" lon="6.82449">
        <ele>313.7</ele>
        <time>2019-08-16T13:32:06Z</time>
      </trkpt>
      <trkpt lat="47.50392" lon="6.82442">
        <ele>313.7</ele>
        <time>2019-08-16T13:32:07Z</time>
      </trkpt>
      <trkpt lat="47.50391" lon="6.82436">
        <ele>313.8</ele>
        <time>2019-08-16T13:32:08Z</time>
      </trkpt>
      <trkpt lat="47.5039" lon="6.82432">
        <ele>313.8</ele>
        <time>2019-08-16T13:32:09Z</time>
      </trkpt>
      <trkpt lat="47.50386" lon="6.82428">
        <ele>313.9</ele>
        <time>2019-08-16T13:32:10Z</time>
      </trkpt>
      <trkpt lat="47.50383" lon="6.82423">
        <ele>313.9</ele>
        <time>2019-08-16T13:32:11Z</time>
      </trkpt>
      <trkpt lat="47.50379" lon="6.82419">
        <ele>314</ele>
        <time>2019-08-16T13:32:12Z</time>
      </trkpt>
      <trkpt lat="47.50374" lon="6.82414">
        <ele>314.1</ele>
        <time>2019-08-16T13:32:13Z</time>
      </trkpt>
      <trkpt lat="47.5037" lon="6.82409">
        <ele>314.2</ele>
        <time>2019-08-16T13:32:14Z</time>
      </trkpt>
      <trkpt lat="47.50367" lon="6.82404">
        <ele>314.4</ele>
        <time>2019-08-16T13:32:15Z</time>
      </trkpt>
      <trkpt lat="47.50365" lon="6.82398">
        <ele>314.5</ele>
        <time>2019-08-16T13:32:16Z</time>
      </trkpt>
      <trkpt lat="47.50362" lon="6.8239">
        <ele>314.9</ele>
        <time>2019-08-16T13:32:17Z</time>
      </trkpt>
      <trkpt lat="47.5036" lon="6.82382">
        <ele>315.3</ele>
        <time>2019-08-16T13:32:18Z</time>
      </trkpt>
      <trkpt lat="47.50358" lon="6.82373">
        <ele>316.3</ele>
        <time>2019-08-16T13:32:19Z</time>
      </trkpt>
      <trkpt lat="47.50357" lon="6.82362">
        <ele>316.2</ele>
        <time>2019-08-16T13:32:20Z</time>
      </trkpt>
      <trkpt lat="47.50356" lon="6.82354">
        <ele>316.1</ele>
        <time>2019-08-16T13:32:21Z</time>
      </trkpt>
      <trkpt lat="47.50355" lon="6.82346">
        <ele>316.1</ele>
        <time>2019-08-16T13:32:22Z</time>
      </trkpt>
      <trkpt lat="47.50355" lon="6.82339">
        <ele>316</ele>
        <time>2019-08-16T13:32:23Z</time>
      </trkpt>
      <trkpt lat="47.50354" lon="6.82331">
        <ele>315.9</ele>
        <time>2019-08-16T13:32:24Z</time>
      </trkpt>
      <trkpt lat="47.50354" lon="6.82321">
        <ele>315.8</ele>
        <time>2019-08-16T13:32:25Z</time>
      </trkpt>
      <trkpt lat="47.50354" lon="6.82311">
        <ele>315.7</ele>
        <time>2019-08-16T13:32:26Z</time>
      </trkpt>
      <trkpt lat="47.50354" lon="6.82301">
        <ele>315.6</ele>
        <time>2019-08-16T13:32:27Z</time>
      </trkpt>
      <trkpt lat="47.50354" lon="6.82291">
        <ele>315.5</ele>
        <time>2019-08-16T13:32:28Z</time>
      </trkpt>
      <trkpt lat="47.50355" lon="6.82281">
        <ele>315.4</ele>
        <time>2019-08-16T13:32:29Z</time>
      </trkpt>
      <trkpt lat="47.50355" lon="6.82272">
        <ele>315.3</ele>
        <time>2019-08-16T13:32:30Z</time>
      </trkpt>
      <trkpt lat="47.50355" lon="6.82263">
        <ele>315.2</ele>
        <time>2019-08-16T13:32:31Z</time>
      </trkpt>
      <trkpt lat="47.50356" lon="6.82254">
        <ele>315.1</ele>
        <time>2019-08-16T13:32:32Z</time>
      </trkpt>
      <trkpt lat="47.50356" lon="6.82246">
        <ele>315</ele>
        <time>2019-08-16T13:32:33Z</time>
      </trkpt>
      <trkpt lat="47.50356" lon="6.82238">
        <ele>314.9</ele>
        <time>2019-08-16T13:32:34Z</time>
      </trkpt>
      <trkpt lat="47.50356" lon="6.8223">
        <ele>314.9</ele>
        <time>2019-08-16T13:32:35Z</time>
      </trkpt>
      <trkpt lat="47.50356" lon="6.82222">
        <ele>314.8</ele>
        <time>2019-08-16T13:32:36Z</time>
      </trkpt>
      <trkpt lat="47.50356" lon="6.82214">
        <ele>314.8</ele>
        <time>2019-08-16T13:32:37Z</time>
      </trkpt>
      <trkpt lat="47.50356" lon="6.82205">
        <ele>314.7</ele>
        <time>2019-08-16T13:32:38Z</time>
      </trkpt>
      <trkpt lat="47.50357" lon="6.82197">
        <ele>314.7</ele>
        <time>2019-08-16T13:32:39Z</time>
      </trkpt>
      <trkpt lat="47.50358" lon="6.82189">
        <ele>314.7</ele>
        <time>2019-08-16T13:32:40Z</time>
      </trkpt>
      <trkpt lat="47.50358" lon="6.82181">
        <ele>314.7</ele>
        <time>2019-08-16T13:32:41Z</time>
      </trkpt>
      <trkpt lat="47.50358" lon="6.82172">
        <ele>314.7</ele>
        <time>2019-08-16T13:32:42Z</time>
      </trkpt>
      <trkpt lat="47.50359" lon="6.82164">
        <ele>314.7</ele>
        <time>2019-08-16T13:32:43Z</time>
      </trkpt>
      <trkpt lat="47.50359" lon="6.82157">
        <ele>314.7</ele>
        <time>2019-08-16T13:32:44Z</time>
      </trkpt>
      <trkpt lat="47.5036" lon="6.8215">
        <ele>314.7</ele>
        <time>2019-08-16T13:32:45Z</time>
      </trkpt>
      <trkpt lat="47.5036" lon="6.82142">
        <ele>314.7</ele>
        <time>2019-08-16T13:32:46Z</time>
      </trkpt>
      <trkpt lat="47.50361" lon="6.82135">
        <ele>314.6</ele>
        <time>2019-08-16T13:32:47Z</time>
      </trkpt>
      <trkpt lat="47.50362" lon="6.82128">
        <ele>314.6</ele>
        <time>2019-08-16T13:32:48Z</time>
      </trkpt>
      <trkpt lat="47.50363" lon="6.82121">
        <ele>314.6</ele>
        <time>2019-08-16T13:32:49Z</time>
      </trkpt>
      <trkpt lat="47.50364" lon="6.82114">
        <ele>314.6</ele>
        <time>2019-08-16T13:32:50Z</time>
      </trkpt>
      <trkpt lat="47.50364" lon="6.82107">
        <ele>314.6</ele>
        <time>2019-08-16T13:32:51Z</time>
      </trkpt>
      <trkpt lat="47.50365" lon="6.821">
        <ele>314.5</ele>
        <time>2019-08-16T13:32:52Z</time>
      </trkpt>
      <trkpt lat="47.50365" lon="6.82093">
        <ele>314.5</ele>
        <time>2019-08-16T13:32:53Z</time>
      </trkpt>
      <trkpt lat="47.50366" lon="6.82085">
        <ele>314.5</ele>
        <time>2019-08-16T13:32:54Z</time>
      </trkpt>
      <trkpt lat="47.50367" lon="6.82078">
        <ele>314.5</ele>
        <time>2019-08-16T13:32:55Z</time>
      </trkpt>
      <trkpt lat="47.50367" lon="6.8207">
        <ele>314.4</ele>
        <time>2019-08-16T13:32:56Z</time>
      </trkpt>
      <trkpt lat="47.50368" lon="6.82063">
        <ele>314.4</ele>
        <time>2019-08-16T13:32:57Z</time>
      </trkpt>
      <trkpt lat="47.50368" lon="6.82056">
        <ele>314.3</ele>
        <time>2019-08-16T13:32:58Z</time>
      </trkpt>
      <trkpt lat="47.50369" lon="6.82049">
        <ele>314.3</ele>
        <time>2019-08-16T13:32:59Z</time>
      </trkpt>
      <trkpt lat="47.50371" lon="6.82042">
        <ele>314.3</ele>
        <time>2019-08-16T13:33:00Z</time>
      </trkpt>
      <trkpt lat="47.50372" lon="6.82034">
        <ele>314.2</ele>
        <time>2019-08-16T13:33:01Z</time>
      </trkpt>
      <trkpt lat="47.50373" lon="6.82027">
        <ele>314.2</ele>
        <time>2019-08-16T13:33:02Z</time>
      </trkpt>
      <trkpt lat="47.50374" lon="6.8202">
        <ele>314.2</ele>
        <time>2019-08-16T13:33:03Z</time>
      </trkpt>
      <trkpt lat="47.50374" lon="6.82012">
        <ele>314.1</ele>
        <time>2019-08-16T13:33:04Z</time>
      </trkpt>
      <trkpt lat="47.50375" lon="6.82004">
        <ele>314.1</ele>
        <time>2019-08-16T13:33:05Z</time>
      </trkpt>
      <trkpt lat="47.50375" lon="6.81997">
        <ele>314</ele>
        <time>2019-08-16T13:33:06Z</time>
      </trkpt>
      <trkpt lat="47.50375" lon="6.81991">
        <ele>314</ele>
        <time>2019-08-16T13:33:07Z</time>
      </trkpt>
      <trkpt lat="47.50376" lon="6.81984">
        <ele>313.9</ele>
        <time>2019-08-16T13:33:08Z</time>
      </trkpt>
      <trkpt lat="47.50376" lon="6.81978">
        <ele>313.9</ele>
        <time>2019-08-16T13:33:09Z</time>
      </trkpt>
      <trkpt lat="47.50377" lon="6.81971">
        <ele>313.9</ele>
        <time>2019-08-16T13:33:10Z</time>
      </trkpt>
      <trkpt lat="47.50377" lon="6.81965">
        <ele>313.8</ele>
        <time>2019-08-16T13:33:11Z</time>
      </trkpt>
      <trkpt lat="47.50378" lon="6.81959">
        <ele>313.8</ele>
        <time>2019-08-16T13:33:12Z</time>
      </trkpt>
      <trkpt lat="47.50379" lon="6.81953">
        <ele>313.8</ele>
        <time>2019-08-16T13:33:13Z</time>
      </trkpt>
      <trkpt lat="47.50379" lon="6.81947">
        <ele>313.7</ele>
        <time>2019-08-16T13:33:14Z</time>
      </trkpt>
      <trkpt lat="47.5038" lon="6.81941">
        <ele>313.7</ele>
        <time>2019-08-16T13:33:15Z</time>
      </trkpt>
      <trkpt lat="47.50381" lon="6.81935">
        <ele>313.7</ele>
        <time>2019-08-16T13:33:16Z</time>
      </trkpt>
      <trkpt lat="47.50383" lon="6.81928">
        <ele>313.6</ele>
        <time>2019-08-16T13:33:17Z</time>
      </trkpt>
      <trkpt lat="47.50384" lon="6.81922">
        <ele>313.6</ele>
        <time>2019-08-16T13:33:18Z</time>
      </trkpt>
      <trkpt lat="47.50385" lon="6.81915">
        <ele>313.6</ele>
        <time>2019-08-16T13:33:19Z</time>
      </trkpt>
      <trkpt lat="47.50385" lon="6.81909">
        <ele>313.5</ele>
        <time>2019-08-16T13:33:20Z</time>
      </trkpt>
      <trkpt lat="47.50386" lon="6.81903">
        <ele>313.5</ele>
        <time>2019-08-16T13:33:21Z</time>
      </trkpt>
      <trkpt lat="47.50386" lon="6.81896">
        <ele>313.5</ele>
        <time>2019-08-16T13:33:22Z</time>
      </trkpt>
      <trkpt lat="47.50387" lon="6.81889">
        <ele>313.4</ele>
        <time>2019-08-16T13:33:23Z</time>
      </trkpt>
      <trkpt lat="47.50387" lon="6.81883">
        <ele>313.4</ele>
        <time>2019-08-16T13:33:24Z</time>
      </trkpt>
      <trkpt lat="47.50387" lon="6.81877">
        <ele>313.4</ele>
        <time>2019-08-16T13:33:25Z</time>
      </trkpt>
      <trkpt lat="47.50388" lon="6.8187">
        <ele>313.4</ele>
        <time>2019-08-16T13:33:26Z</time>
      </trkpt>
      <trkpt lat="47.50389" lon="6.81864">
        <ele>313.4</ele>
        <time>2019-08-16T13:33:27Z</time>
      </trkpt>
      <trkpt lat="47.50389" lon="6.81856">
        <ele>313.3</ele>
        <time>2019-08-16T13:33:28Z</time>
      </trkpt>
      <trkpt lat="47.5039" lon="6.81849">
        <ele>313.3</ele>
        <time>2019-08-16T13:33:29Z</time>
      </trkpt>
      <trkpt lat="47.50391" lon="6.81843">
        <ele>313.3</ele>
        <time>2019-08-16T13:33:30Z</time>
      </trkpt>
      <trkpt lat="47.50391" lon="6.81835">
        <ele>313.3</ele>
        <time>2019-08-16T13:33:31Z</time>
      </trkpt>
      <trkpt lat="47.50391" lon="6.8183">
        <ele>313.3</ele>
        <time>2019-08-16T13:33:32Z</time>
      </trkpt>
      <trkpt lat="47.5039" lon="6.81823">
        <ele>313.2</ele>
        <time>2019-08-16T13:33:33Z</time>
      </trkpt>
      <trkpt lat="47.5039" lon="6.81817">
        <ele>313.2</ele>
        <time>2019-08-16T13:33:34Z</time>
      </trkpt>
      <trkpt lat="47.5039" lon="6.81812">
        <ele>313.2</ele>
        <time>2019-08-16T13:33:35Z</time>
      </trkpt>
      <trkpt lat="47.50392" lon="6.81807">
        <ele>313.2</ele>
        <time>2019-08-16T13:33:36Z</time>
      </trkpt>
      <trkpt lat="47.50392" lon="6.818">
        <ele>313.2</ele>
        <time>2019-08-16T13:33:37Z</time>
      </trkpt>
      <trkpt lat="47.50393" lon="6.81792">
        <ele>313.1</ele>
        <time>2019-08-16T13:33:38Z</time>
      </trkpt>
      <trkpt lat="47.50393" lon="6.81784">
        <ele>313.1</ele>
        <time>2019-08-16T13:33:39Z</time>
      </trkpt>
      <trkpt lat="47.50394" lon="6.81777">
        <ele>313.1</ele>
        <time>2019-08-16T13:33:40Z</time>
      </trkpt>
      <trkpt lat="47.50394" lon="6.8177">
        <ele>313.1</ele>
        <time>2019-08-16T13:33:41Z</time>
      </trkpt>
      <trkpt lat="47.50395" lon="6.81763">
        <ele>313</ele>
        <time>2019-08-16T13:33:42Z</time>
      </trkpt>
      <trkpt lat="47.50395" lon="6.81756">
        <ele>313</ele>
        <time>2019-08-16T13:33:43Z</time>
      </trkpt>
      <trkpt lat="47.50396" lon="6.8175">
        <ele>313</ele>
        <time>2019-08-16T13:33:44Z</time>
      </trkpt>
      <trkpt lat="47.50397" lon="6.81745">
        <ele>313</ele>
        <time>2019-08-16T13:33:45Z</time>
      </trkpt>
      <trkpt lat="47.50398" lon="6.81738">
        <ele>313</ele>
        <time>2019-08-16T13:33:46Z</time>
      </trkpt>
      <trkpt lat="47.50399" lon="6.81731">
        <ele>312.9</ele>
        <time>2019-08-16T13:33:47Z</time>
      </trkpt>
      <trkpt lat="47.504" lon="6.81724">
        <ele>312.9</ele>
        <time>2019-08-16T13:33:48Z</time>
      </trkpt>
      <trkpt lat="47.50401" lon="6.81717">
        <ele>312.9</ele>
        <time>2019-08-16T13:33:49Z</time>
      </trkpt>
      <trkpt lat="47.50401" lon="6.8171">
        <ele>312.9</ele>
        <time>2019-08-16T13:33:50Z</time>
      </trkpt>
      <trkpt lat="47.50401" lon="6.81701">
        <ele>312.8</ele>
        <time>2019-08-16T13:33:51Z</time>
      </trkpt>
      <trkpt lat="47.50402" lon="6.81694">
        <ele>312.8</ele>
        <time>2019-08-16T13:33:52Z</time>
      </trkpt>
      <trkpt lat="47.50403" lon="6.81686">
        <ele>312.8</ele>
        <time>2019-08-16T13:33:53Z</time>
      </trkpt>
      <trkpt lat="47.50405" lon="6.81678">
        <ele>312.8</ele>
        <time>2019-08-16T13:33:54Z</time>
      </trkpt>
      <trkpt lat="47.50405" lon="6.8167">
        <ele>312.7</ele>
        <time>2019-08-16T13:33:55Z</time>
      </trkpt>
      <trkpt lat="47.50406" lon="6.81664">
        <ele>312.7</ele>
        <time>2019-08-16T13:33:56Z</time>
      </trkpt>
      <trkpt lat="47.50407" lon="6.81657">
        <ele>312.7</ele>
        <time>2019-08-16T13:33:57Z</time>
      </trkpt>
      <trkpt lat="47.50406" lon="6.8165">
        <ele>312.7</ele>
        <time>2019-08-16T13:33:58Z</time>
      </trkpt>
      <trkpt lat="47.50407" lon="6.81643">
        <ele>312.6</ele>
        <time>2019-08-16T13:33:59Z</time>
      </trkpt>
      <trkpt lat="47.50408" lon="6.81636">
        <ele>312.6</ele>
        <time>2019-08-16T13:34:00Z</time>
      </trkpt>
      <trkpt lat="47.50409" lon="6.81629">
        <ele>312.6</ele>
        <time>2019-08-16T13:34:01Z</time>
      </trkpt>
      <trkpt lat="47.50409" lon="6.81621">
        <ele>312.6</ele>
        <time>2019-08-16T13:34:02Z</time>
      </trkpt>
      <trkpt lat="47.5041" lon="6.81612">
        <ele>312.5</ele>
        <time>2019-08-16T13:34:03Z</time>
      </trkpt>
      <trkpt lat="47.50411" lon="6.81604">
        <ele>312.5</ele>
        <time>2019-08-16T13:34:04Z</time>
      </trkpt>
      <trkpt lat="47.50411" lon="6.81595">
        <ele>312.5</ele>
        <time>2019-08-16T13:34:05Z</time>
      </trkpt>
      <trkpt lat="47.50411" lon="6.81588">
        <ele>312.4</ele>
        <time>2019-08-16T13:34:06Z</time>
      </trkpt>
      <trkpt lat="47.50411" lon="6.8158">
        <ele>312.4</ele>
        <time>2019-08-16T13:34:07Z</time>
      </trkpt>
      <trkpt lat="47.50411" lon="6.81573">
        <ele>312.4</ele>
        <time>2019-08-16T13:34:08Z</time>
      </trkpt>
      <trkpt lat="47.50411" lon="6.81566">
        <ele>312.4</ele>
        <time>2019-08-16T13:34:09Z</time>
      </trkpt>
      <trkpt lat="47.50412" lon="6.81558">
        <ele>312.3</ele>
        <time>2019-08-16T13:34:10Z</time>
      </trkpt>
      <trkpt lat="47.50413" lon="6.8155">
        <ele>312.3</ele>
        <time>2019-08-16T13:34:11Z</time>
      </trkpt>
      <trkpt lat="47.50413" lon="6.81542">
        <ele>312.3</ele>
        <time>2019-08-16T13:34:12Z</time>
      </trkpt>
      <trkpt lat="47.50414" lon="6.81534">
        <ele>312.3</ele>
        <time>2019-08-16T13:34:13Z</time>
      </trkpt>
      <trkpt lat="47.50414" lon="6.81527">
        <ele>312.3</ele>
        <time>2019-08-16T13:34:14Z</time>
      </trkpt>
      <trkpt lat="47.50414" lon="6.8152">
        <ele>312.3</ele>
        <time>2019-08-16T13:34:15Z</time>
      </trkpt>
      <trkpt lat="47.50414" lon="6.81513">
        <ele>312.3</ele>
        <time>2019-08-16T13:34:16Z</time>
      </trkpt>
      <trkpt lat="47.50414" lon="6.81508">
        <ele>312.3</ele>
        <time>2019-08-16T13:34:17Z</time>
      </trkpt>
      <trkpt lat="47.50414" lon="6.81501">
        <ele>312.3</ele>
        <time>2019-08-16T13:34:18Z</time>
      </trkpt>
      <trkpt lat="47.50413" lon="6.81494">
        <ele>312.3</ele>
        <time>2019-08-16T13:34:19Z</time>
      </trkpt>
      <trkpt lat="47.50414" lon="6.81487">
        <ele>312.3</ele>
        <time>2019-08-16T13:34:20Z</time>
      </trkpt>
      <trkpt lat="47.50414" lon="6.81479">
        <ele>312.3</ele>
        <time>2019-08-16T13:34:21Z</time>
      </trkpt>
      <trkpt lat="47.50415" lon="6.81472">
        <ele>312.3</ele>
        <time>2019-08-16T13:34:22Z</time>
      </trkpt>
      <trkpt lat="47.50415" lon="6.81466">
        <ele>312.3</ele>
        <time>2019-08-16T13:34:23Z</time>
      </trkpt>
      <trkpt lat="47.50415" lon="6.81459">
        <ele>312.3</ele>
        <time>2019-08-16T13:34:24Z</time>
      </trkpt>
      <trkpt lat="47.50415" lon="6.81453">
        <ele>312.3</ele>
        <time>2019-08-16T13:34:25Z</time>
      </trkpt>
      <trkpt lat="47.50415" lon="6.81447">
        <ele>312.3</ele>
        <time>2019-08-16T13:34:26Z</time>
      </trkpt>
      <trkpt lat="47.50414" lon="6.8144">
        <ele>312.3</ele>
        <time>2019-08-16T13:34:27Z</time>
      </trkpt>
      <trkpt lat="47.50414" lon="6.81433">
        <ele>312.3</ele>
        <time>2019-08-16T13:34:28Z</time>
      </trkpt>
      <trkpt lat="47.50415" lon="6.81426">
        <ele>312.3</ele>
        <time>2019-08-16T13:34:29Z</time>
      </trkpt>
      <trkpt lat="47.50415" lon="6.81418">
        <ele>312.3</ele>
        <time>2019-08-16T13:34:30Z</time>
      </trkpt>
      <trkpt lat="47.50414" lon="6.81412">
        <ele>312.3</ele>
        <time>2019-08-16T13:34:31Z</time>
      </trkpt>
      <trkpt lat="47.50414" lon="6.81406">
        <ele>312.3</ele>
        <time>2019-08-16T13:34:32Z</time>
      </trkpt>
      <trkpt lat="47.50414" lon="6.81398">
        <ele>312.3</ele>
        <time>2019-08-16T13:34:33Z</time>
      </trkpt>
      <trkpt lat="47.50414" lon="6.81391">
        <ele>312.3</ele>
        <time>2019-08-16T13:34:34Z</time>
      </trkpt>
      <trkpt lat="47.50415" lon="6.81384">
        <ele>312.3</ele>
        <time>2019-08-16T13:34:35Z</time>
      </trkpt>
      <trkpt lat="47.50415" lon="6.81377">
        <ele>312.3</ele>
        <time>2019-08-16T13:34:36Z</time>
      </trkpt>
      <trkpt lat="47.50415" lon="6.81371">
        <ele>312.3</ele>
        <time>2019-08-16T13:34:37Z</time>
      </trkpt>
      <trkpt lat="47.50415" lon="6.81363">
        <ele>312.4</ele>
        <time>2019-08-16T13:34:38Z</time>
      </trkpt>
      <trkpt lat="47.50414" lon="6.81357">
        <ele>312.4</ele>
        <time>2019-08-16T13:34:39Z</time>
      </trkpt>
      <trkpt lat="47.50415" lon="6.8135">
        <ele>312.4</ele>
        <time>2019-08-16T13:34:40Z</time>
      </trkpt>
      <trkpt lat="47.50414" lon="6.81343">
        <ele>312.4</ele>
        <time>2019-08-16T13:34:41Z</time>
      </trkpt>
      <trkpt lat="47.50414" lon="6.81335">
        <ele>312.4</ele>
        <time>2019-08-16T13:34:42Z</time>
      </trkpt>
      <trkpt lat="47.50414" lon="6.81329">
        <ele>312.4</ele>
        <time>2019-08-16T13:34:43Z</time>
      </trkpt>
      <trkpt lat="47.50414" lon="6.81322">
        <ele>312.5</ele>
        <time>2019-08-16T13:34:44Z</time>
      </trkpt>
      <trkpt lat="47.50415" lon="6.81315">
        <ele>312.5</ele>
        <time>2019-08-16T13:34:45Z</time>
      </trkpt>
      <trkpt lat="47.50416" lon="6.81308">
        <ele>312.5</ele>
        <time>2019-08-16T13:34:46Z</time>
      </trkpt>
      <trkpt lat="47.50416" lon="6.813">
        <ele>312.5</ele>
        <time>2019-08-16T13:34:47Z</time>
      </trkpt>
      <trkpt lat="47.50416" lon="6.81294">
        <ele>312.6</ele>
        <time>2019-08-16T13:34:48Z</time>
      </trkpt>
      <trkpt lat="47.50417" lon="6.81286">
        <ele>312.6</ele>
        <time>2019-08-16T13:34:49Z</time>
      </trkpt>
      <trkpt lat="47.50418" lon="6.81279">
        <ele>312.6</ele>
        <time>2019-08-16T13:34:50Z</time>
      </trkpt>
      <trkpt lat="47.50419" lon="6.81272">
        <ele>312.7</ele>
        <time>2019-08-16T13:34:51Z</time>
      </trkpt>
      <trkpt lat="47.5042" lon="6.81266">
        <ele>312.7</ele>
        <time>2019-08-16T13:34:52Z</time>
      </trkpt>
      <trkpt lat="47.50421" lon="6.81261">
        <ele>312.7</ele>
        <time>2019-08-16T13:34:53Z</time>
      </trkpt>
      <trkpt lat="47.50422" lon="6.81256">
        <ele>312.7</ele>
        <time>2019-08-16T13:34:54Z</time>
      </trkpt>
      <trkpt lat="47.50424" lon="6.81252">
        <ele>312.7</ele>
        <time>2019-08-16T13:34:55Z</time>
      </trkpt>
      <trkpt lat="47.50425" lon="6.81248">
        <ele>312.8</ele>
        <time>2019-08-16T13:34:56Z</time>
      </trkpt>
      <trkpt lat="47.50427" lon="6.81242">
        <ele>312.8</ele>
        <time>2019-08-16T13:34:57Z</time>
      </trkpt>
      <trkpt lat="47.50428" lon="6.81236">
        <ele>312.8</ele>
        <time>2019-08-16T13:34:58Z</time>
      </trkpt>
      <trkpt lat="47.50431" lon="6.8123">
        <ele>312.8</ele>
        <time>2019-08-16T13:34:59Z</time>
      </trkpt>
      <trkpt lat="47.50433" lon="6.81224">
        <ele>312.8</ele>
        <time>2019-08-16T13:35:00Z</time>
      </trkpt>
      <trkpt lat="47.50436" lon="6.81217">
        <ele>312.8</ele>
        <time>2019-08-16T13:35:01Z</time>
      </trkpt>
      <trkpt lat="47.50436" lon="6.8121">
        <ele>312.8</ele>
        <time>2019-08-16T13:35:02Z</time>
      </trkpt>
      <trkpt lat="47.50437" lon="6.81203">
        <ele>312.8</ele>
        <time>2019-08-16T13:35:03Z</time>
      </trkpt>
      <trkpt lat="47.50438" lon="6.81196">
        <ele>312.8</ele>
        <time>2019-08-16T13:35:04Z</time>
      </trkpt>
      <trkpt lat="47.5044" lon="6.81189">
        <ele>312.8</ele>
        <time>2019-08-16T13:35:05Z</time>
      </trkpt>
      <trkpt lat="47.5044" lon="6.81182">
        <ele>312.7</ele>
        <time>2019-08-16T13:35:06Z</time>
      </trkpt>
      <trkpt lat="47.50441" lon="6.81174">
        <ele>312.6</ele>
        <time>2019-08-16T13:35:07Z</time>
      </trkpt>
      <trkpt lat="47.50442" lon="6.81167">
        <ele>312.6</ele>
        <time>2019-08-16T13:35:08Z</time>
      </trkpt>
      <trkpt lat="47.50443" lon="6.81159">
        <ele>312.6</ele>
        <time>2019-08-16T13:35:09Z</time>
      </trkpt>
      <trkpt lat="47.50444" lon="6.8115">
        <ele>312.6</ele>
        <time>2019-08-16T13:35:10Z</time>
      </trkpt>
      <trkpt lat="47.50444" lon="6.81141">
        <ele>312.6</ele>
        <time>2019-08-16T13:35:11Z</time>
      </trkpt>
      <trkpt lat="47.50445" lon="6.81133">
        <ele>312.6</ele>
        <time>2019-08-16T13:35:12Z</time>
      </trkpt>
      <trkpt lat="47.50446" lon="6.81124">
        <ele>312.6</ele>
        <time>2019-08-16T13:35:13Z</time>
      </trkpt>
      <trkpt lat="47.50446" lon="6.81116">
        <ele>312.6</ele>
        <time>2019-08-16T13:35:14Z</time>
      </trkpt>
      <trkpt lat="47.50447" lon="6.81108">
        <ele>312.6</ele>
        <time>2019-08-16T13:35:15Z</time>
      </trkpt>
      <trkpt lat="47.50448" lon="6.811">
        <ele>312.6</ele>
        <time>2019-08-16T13:35:16Z</time>
      </trkpt>
      <trkpt lat="47.50447" lon="6.81091">
        <ele>312.6</ele>
        <time>2019-08-16T13:35:17Z</time>
      </trkpt>
      <trkpt lat="47.50448" lon="6.8108">
        <ele>312.6</ele>
        <time>2019-08-16T13:35:18Z</time>
      </trkpt>
      <trkpt lat="47.50448" lon="6.81072">
        <ele>312.6</ele>
        <time>2019-08-16T13:35:19Z</time>
      </trkpt>
      <trkpt lat="47.50448" lon="6.81063">
        <ele>312.6</ele>
        <time>2019-08-16T13:35:20Z</time>
      </trkpt>
      <trkpt lat="47.50447" lon="6.81056">
        <ele>312.6</ele>
        <time>2019-08-16T13:35:21Z</time>
      </trkpt>
      <trkpt lat="47.50447" lon="6.81049">
        <ele>312.6</ele>
        <time>2019-08-16T13:35:22Z</time>
      </trkpt>
      <trkpt lat="47.50447" lon="6.81042">
        <ele>312.6</ele>
        <time>2019-08-16T13:35:23Z</time>
      </trkpt>
      <trkpt lat="47.50447" lon="6.81033">
        <ele>312.6</ele>
        <time>2019-08-16T13:35:24Z</time>
      </trkpt>
      <trkpt lat="47.50447" lon="6.81024">
        <ele>312.6</ele>
        <time>2019-08-16T13:35:25Z</time>
      </trkpt>
      <trkpt lat="47.50449" lon="6.81016">
        <ele>312.6</ele>
        <time>2019-08-16T13:35:26Z</time>
      </trkpt>
      <trkpt lat="47.50449" lon="6.81008">
        <ele>312.6</ele>
        <time>2019-08-16T13:35:27Z</time>
      </trkpt>
      <trkpt lat="47.5045" lon="6.80999">
        <ele>312.6</ele>
        <time>2019-08-16T13:35:28Z</time>
      </trkpt>
      <trkpt lat="47.5045" lon="6.80991">
        <ele>312.6</ele>
        <time>2019-08-16T13:35:29Z</time>
      </trkpt>
      <trkpt lat="47.5045" lon="6.80983">
        <ele>312.6</ele>
        <time>2019-08-16T13:35:30Z</time>
      </trkpt>
      <trkpt lat="47.5045" lon="6.80975">
        <ele>312.6</ele>
        <time>2019-08-16T13:35:31Z</time>
      </trkpt>
      <trkpt lat="47.50451" lon="6.80967">
        <ele>312.6</ele>
        <time>2019-08-16T13:35:32Z</time>
      </trkpt>
      <trkpt lat="47.50452" lon="6.80959">
        <ele>312.6</ele>
        <time>2019-08-16T13:35:33Z</time>
      </trkpt>
      <trkpt lat="47.50453" lon="6.80952">
        <ele>312.6</ele>
        <time>2019-08-16T13:35:34Z</time>
      </trkpt>
      <trkpt lat="47.50453" lon="6.80944">
        <ele>312.6</ele>
        <time>2019-08-16T13:35:35Z</time>
      </trkpt>
      <trkpt lat="47.50454" lon="6.80936">
        <ele>312.6</ele>
        <time>2019-08-16T13:35:36Z</time>
      </trkpt>
      <trkpt lat="47.50455" lon="6.80929">
        <ele>312.6</ele>
        <time>2019-08-16T13:35:37Z</time>
      </trkpt>
      <trkpt lat="47.50455" lon="6.80923">
        <ele>312.6</ele>
        <time>2019-08-16T13:35:38Z</time>
      </trkpt>
      <trkpt lat="47.50455" lon="6.80914">
        <ele>312.6</ele>
        <time>2019-08-16T13:35:39Z</time>
      </trkpt>
      <trkpt lat="47.50455" lon="6.80907">
        <ele>312.7</ele>
        <time>2019-08-16T13:35:40Z</time>
      </trkpt>
      <trkpt lat="47.50455" lon="6.80899">
        <ele>312.7</ele>
        <time>2019-08-16T13:35:41Z</time>
      </trkpt>
      <trkpt lat="47.50454" lon="6.80892">
        <ele>312.7</ele>
        <time>2019-08-16T13:35:42Z</time>
      </trkpt>
      <trkpt lat="47.50454" lon="6.80885">
        <ele>312.7</ele>
        <time>2019-08-16T13:35:43Z</time>
      </trkpt>
      <trkpt lat="47.50454" lon="6.80877">
        <ele>312.7</ele>
        <time>2019-08-16T13:35:44Z</time>
      </trkpt>
      <trkpt lat="47.50454" lon="6.80869">
        <ele>312.7</ele>
        <time>2019-08-16T13:35:45Z</time>
      </trkpt>
      <trkpt lat="47.50454" lon="6.80861">
        <ele>312.7</ele>
        <time>2019-08-16T13:35:46Z</time>
      </trkpt>
      <trkpt lat="47.50455" lon="6.80854">
        <ele>312.7</ele>
        <time>2019-08-16T13:35:47Z</time>
      </trkpt>
      <trkpt lat="47.50454" lon="6.80846">
        <ele>312.7</ele>
        <time>2019-08-16T13:35:48Z</time>
      </trkpt>
      <trkpt lat="47.50454" lon="6.80839">
        <ele>312.7</ele>
        <time>2019-08-16T13:35:49Z</time>
      </trkpt>
      <trkpt lat="47.50454" lon="6.80832">
        <ele>312.7</ele>
        <time>2019-08-16T13:35:50Z</time>
      </trkpt>
      <trkpt lat="47.50453" lon="6.80825">
        <ele>312.7</ele>
        <time>2019-08-16T13:35:51Z</time>
      </trkpt>
      <trkpt lat="47.50452" lon="6.80818">
        <ele>312.7</ele>
        <time>2019-08-16T13:35:52Z</time>
      </trkpt>
      <trkpt lat="47.50451" lon="6.80813">
        <ele>312.7</ele>
        <time>2019-08-16T13:35:53Z</time>
      </trkpt>
      <trkpt lat="47.5045" lon="6.80807">
        <ele>312.7</ele>
        <time>2019-08-16T13:35:54Z</time>
      </trkpt>
      <trkpt lat="47.5045" lon="6.80802">
        <ele>312.7</ele>
        <time>2019-08-16T13:35:55Z</time>
      </trkpt>
      <trkpt lat="47.50451" lon="6.80797">
        <ele>312.7</ele>
        <time>2019-08-16T13:35:56Z</time>
      </trkpt>
      <trkpt lat="47.50452" lon="6.8079">
        <ele>312.7</ele>
        <time>2019-08-16T13:35:57Z</time>
      </trkpt>
      <trkpt lat="47.50452" lon="6.80783">
        <ele>312.7</ele>
        <time>2019-08-16T13:35:58Z</time>
      </trkpt>
      <trkpt lat="47.50452" lon="6.80773">
        <ele>312.7</ele>
        <time>2019-08-16T13:35:59Z</time>
      </trkpt>
      <trkpt lat="47.50453" lon="6.80764">
        <ele>312.7</ele>
        <time>2019-08-16T13:36:00Z</time>
      </trkpt>
      <trkpt lat="47.50454" lon="6.80754">
        <ele>312.7</ele>
        <time>2019-08-16T13:36:01Z</time>
      </trkpt>
      <trkpt lat="47.50456" lon="6.80744">
        <ele>312.7</ele>
        <time>2019-08-16T13:36:02Z</time>
      </trkpt>
      <trkpt lat="47.50457" lon="6.80735">
        <ele>312.7</ele>
        <time>2019-08-16T13:36:03Z</time>
      </trkpt>
      <trkpt lat="47.50458" lon="6.80726">
        <ele>312.7</ele>
        <time>2019-08-16T13:36:04Z</time>
      </trkpt>
      <trkpt lat="47.5046" lon="6.80718">
        <ele>312.7</ele>
        <time>2019-08-16T13:36:05Z</time>
      </trkpt>
      <trkpt lat="47.50461" lon="6.80712">
        <ele>312.7</ele>
        <time>2019-08-16T13:36:06Z</time>
      </trkpt>
      <trkpt lat="47.5046" lon="6.80707">
        <ele>312.7</ele>
        <time>2019-08-16T13:36:07Z</time>
      </trkpt>
      <trkpt lat="47.5046" lon="6.807">
        <ele>312.7</ele>
        <time>2019-08-16T13:36:08Z</time>
      </trkpt>
      <trkpt lat="47.5046" lon="6.80692">
        <ele>312.6</ele>
        <time>2019-08-16T13:36:09Z</time>
      </trkpt>
      <trkpt lat="47.5046" lon="6.80685">
        <ele>312.6</ele>
        <time>2019-08-16T13:36:10Z</time>
      </trkpt>
      <trkpt lat="47.5046" lon="6.80678">
        <ele>312.6</ele>
        <time>2019-08-16T13:36:11Z</time>
      </trkpt>
      <trkpt lat="47.50461" lon="6.80671">
        <ele>312.6</ele>
        <time>2019-08-16T13:36:12Z</time>
      </trkpt>
      <trkpt lat="47.50461" lon="6.80666">
        <ele>312.6</ele>
        <time>2019-08-16T13:36:13Z</time>
      </trkpt>
      <trkpt lat="47.50461" lon="6.8066">
        <ele>312.6</ele>
        <time>2019-08-16T13:36:14Z</time>
      </trkpt>
      <trkpt lat="47.50462" lon="6.80654">
        <ele>312.6</ele>
        <time>2019-08-16T13:36:15Z</time>
      </trkpt>
      <trkpt lat="47.50463" lon="6.80648">
        <ele>312.6</ele>
        <time>2019-08-16T13:36:16Z</time>
      </trkpt>
      <trkpt lat="47.50464" lon="6.80642">
        <ele>312.7</ele>
        <time>2019-08-16T13:36:17Z</time>
      </trkpt>
      <trkpt lat="47.50465" lon="6.80634">
        <ele>312.7</ele>
        <time>2019-08-16T13:36:18Z</time>
      </trkpt>
      <trkpt lat="47.50467" lon="6.80626">
        <ele>312.7</ele>
        <time>2019-08-16T13:36:19Z</time>
      </trkpt>
      <trkpt lat="47.50467" lon="6.80619">
        <ele>312.7</ele>
        <time>2019-08-16T13:36:20Z</time>
      </trkpt>
      <trkpt lat="47.50468" lon="6.80612">
        <ele>312.8</ele>
        <time>2019-08-16T13:36:21Z</time>
      </trkpt>
      <trkpt lat="47.50468" lon="6.80606">
        <ele>312.8</ele>
        <time>2019-08-16T13:36:22Z</time>
      </trkpt>
      <trkpt lat="47.50469" lon="6.80599">
        <ele>312.9</ele>
        <time>2019-08-16T13:36:23Z</time>
      </trkpt>
      <trkpt lat="47.50469" lon="6.80593">
        <ele>312.9</ele>
        <time>2019-08-16T13:36:24Z</time>
      </trkpt>
      <trkpt lat="47.5047" lon="6.80586">
        <ele>313</ele>
        <time>2019-08-16T13:36:25Z</time>
      </trkpt>
      <trkpt lat="47.50471" lon="6.80579">
        <ele>313.2</ele>
        <time>2019-08-16T13:36:26Z</time>
      </trkpt>
      <trkpt lat="47.50472" lon="6.80572">
        <ele>313.3</ele>
        <time>2019-08-16T13:36:27Z</time>
      </trkpt>
      <trkpt lat="47.50473" lon="6.80566">
        <ele>313.5</ele>
        <time>2019-08-16T13:36:28Z</time>
      </trkpt>
      <trkpt lat="47.50474" lon="6.80559">
        <ele>313.7</ele>
        <time>2019-08-16T13:36:29Z</time>
      </trkpt>
      <trkpt lat="47.50475" lon="6.80552">
        <ele>313.9</ele>
        <time>2019-08-16T13:36:30Z</time>
      </trkpt>
      <trkpt lat="47.50474" lon="6.80545">
        <ele>314.1</ele>
        <time>2019-08-16T13:36:31Z</time>
      </trkpt>
      <trkpt lat="47.50474" lon="6.80538">
        <ele>314.4</ele>
        <time>2019-08-16T13:36:32Z</time>
      </trkpt>
      <trkpt lat="47.50474" lon="6.8053">
        <ele>314.6</ele>
        <time>2019-08-16T13:36:33Z</time>
      </trkpt>
      <trkpt lat="47.50474" lon="6.80523">
        <ele>314.9</ele>
        <time>2019-08-16T13:36:34Z</time>
      </trkpt>
      <trkpt lat="47.50474" lon="6.80516">
        <ele>315.2</ele>
        <time>2019-08-16T13:36:35Z</time>
      </trkpt>
      <trkpt lat="47.50474" lon="6.80509">
        <ele>315.4</ele>
        <time>2019-08-16T13:36:36Z</time>
      </trkpt>
      <trkpt lat="47.50474" lon="6.80502">
        <ele>315.6</ele>
        <time>2019-08-16T13:36:37Z</time>
      </trkpt>
      <trkpt lat="47.50475" lon="6.80495">
        <ele>315.8</ele>
        <time>2019-08-16T13:36:38Z</time>
      </trkpt>
      <trkpt lat="47.50476" lon="6.80488">
        <ele>316</ele>
        <time>2019-08-16T13:36:39Z</time>
      </trkpt>
      <trkpt lat="47.50476" lon="6.80481">
        <ele>316.2</ele>
        <time>2019-08-16T13:36:40Z</time>
      </trkpt>
      <trkpt lat="47.50476" lon="6.80474">
        <ele>316.4</ele>
        <time>2019-08-16T13:36:41Z</time>
      </trkpt>
      <trkpt lat="47.50476" lon="6.80468">
        <ele>316.4</ele>
        <time>2019-08-16T13:36:42Z</time>
      </trkpt>
      <trkpt lat="47.50476" lon="6.80461">
        <ele>316.4</ele>
        <time>2019-08-16T13:36:43Z</time>
      </trkpt>
      <trkpt lat="47.50475" lon="6.80456">
        <ele>316.5</ele>
        <time>2019-08-16T13:36:44Z</time>
      </trkpt>
      <trkpt lat="47.50475" lon="6.8045">
        <ele>316.5</ele>
        <time>2019-08-16T13:36:45Z</time>
      </trkpt>
      <trkpt lat="47.50475" lon="6.80442">
        <ele>316.5</ele>
        <time>2019-08-16T13:36:47Z</time>
      </trkpt>
      <trkpt lat="47.50476" lon="6.80438">
        <ele>316.5</ele>
        <time>2019-08-16T13:36:48Z</time>
      </trkpt>
      <trkpt lat="47.50476" lon="6.80433">
        <ele>316.5</ele>
        <time>2019-08-16T13:36:49Z</time>
      </trkpt>
      <trkpt lat="47.50476" lon="6.80429">
        <ele>316.5</ele>
        <time>2019-08-16T13:36:50Z</time>
      </trkpt>
      <trkpt lat="47.50475" lon="6.80424">
        <ele>316.5</ele>
        <time>2019-08-16T13:36:51Z</time>
      </trkpt>
      <trkpt lat="47.50473" lon="6.80419">
        <ele>316.6</ele>
        <time>2019-08-16T13:36:53Z</time>
      </trkpt>
      <trkpt lat="47.50469" lon="6.80419">
        <ele>316.6</ele>
        <time>2019-08-16T13:36:54Z</time>
      </trkpt>
      <trkpt lat="47.50466" lon="6.8042">
        <ele>316.6</ele>
        <time>2019-08-16T13:36:56Z</time>
      </trkpt>
      <trkpt lat="47.50464" lon="6.80424">
        <ele>316.6</ele>
        <time>2019-08-16T13:37:02Z</time>
      </trkpt>
      <trkpt lat="47.50461" lon="6.80425">
        <ele>316.7</ele>
        <time>2019-08-16T13:37:04Z</time>
      </trkpt>
      <trkpt lat="47.50458" lon="6.80427">
        <ele>316.7</ele>
        <time>2019-08-16T13:37:07Z</time>
      </trkpt>
      <trkpt lat="47.50454" lon="6.80426">
        <ele>316.7</ele>
        <time>2019-08-16T13:37:29Z</time>
      </trkpt>
      <trkpt lat="47.5045" lon="6.80426">
        <ele>316.7</ele>
        <time>2019-08-16T13:37:32Z</time>
      </trkpt>
      <trkpt lat="47.50446" lon="6.80428">
        <ele>316.7</ele>
        <time>2019-08-16T13:37:34Z</time>
      </trkpt>
      <trkpt lat="47.50444" lon="6.80431">
        <ele>316.6</ele>
        <time>2019-08-16T13:37:35Z</time>
      </trkpt>
      <trkpt lat="47.50441" lon="6.80437">
        <ele>316.6</ele>
        <time>2019-08-16T13:37:37Z</time>
      </trkpt>
      <trkpt lat="47.50439" lon="6.80444">
        <ele>316.6</ele>
        <time>2019-08-16T13:37:39Z</time>
      </trkpt>
      <trkpt lat="47.50438" lon="6.8045">
        <ele>316.6</ele>
        <time>2019-08-16T13:37:41Z</time>
      </trkpt>
      <trkpt lat="47.5044" lon="6.80454">
        <ele>316.6</ele>
        <time>2019-08-16T13:37:43Z</time>
      </trkpt>
      <trkpt lat="47.50445" lon="6.80457">
        <ele>316.6</ele>
        <time>2019-08-16T13:37:45Z</time>
      </trkpt>
      <trkpt lat="47.50447" lon="6.80459">
        <ele>316.6</ele>
        <time>2019-08-16T13:37:46Z</time>
      </trkpt>
      <trkpt lat="47.50452" lon="6.80462">
        <ele>316.6</ele>
        <time>2019-08-16T13:37:48Z</time>
      </trkpt>
      <trkpt lat="47.50455" lon="6.80463">
        <ele>316.5</ele>
        <time>2019-08-16T13:37:49Z</time>
      </trkpt>
      <trkpt lat="47.50458" lon="6.80463">
        <ele>316.5</ele>
        <time>2019-08-16T13:37:50Z</time>
      </trkpt>
      <trkpt lat="47.50462" lon="6.80464">
        <ele>316.5</ele>
        <time>2019-08-16T13:37:51Z</time>
      </trkpt>
      <trkpt lat="47.50466" lon="6.80463">
        <ele>316.5</ele>
        <time>2019-08-16T13:37:52Z</time>
      </trkpt>
      <trkpt lat="47.50469" lon="6.80462">
        <ele>316.5</ele>
        <time>2019-08-16T13:37:53Z</time>
      </trkpt>
      <trkpt lat="47.50473" lon="6.80461">
        <ele>316.5</ele>
        <time>2019-08-16T13:37:54Z</time>
      </trkpt>
      <trkpt lat="47.50476" lon="6.80461">
        <ele>316.4</ele>
        <time>2019-08-16T13:37:55Z</time>
      </trkpt>
      <trkpt lat="47.5048" lon="6.80461">
        <ele>316.4</ele>
        <time>2019-08-16T13:37:56Z</time>
      </trkpt>
      <trkpt lat="47.50484" lon="6.80461">
        <ele>316.3</ele>
        <time>2019-08-16T13:37:57Z</time>
      </trkpt>
      <trkpt lat="47.50488" lon="6.80461">
        <ele>316.3</ele>
        <time>2019-08-16T13:37:58Z</time>
      </trkpt>
      <trkpt lat="47.50491" lon="6.80461">
        <ele>316.3</ele>
        <time>2019-08-16T13:37:59Z</time>
      </trkpt>
      <trkpt lat="47.50495" lon="6.80461">
        <ele>316.2</ele>
        <time>2019-08-16T13:38:00Z</time>
      </trkpt>
      <trkpt lat="47.50499" lon="6.8046">
        <ele>316.2</ele>
        <time>2019-08-16T13:38:01Z</time>
      </trkpt>
      <trkpt lat="47.50503" lon="6.80459">
        <ele>316.3</ele>
        <time>2019-08-16T13:38:02Z</time>
      </trkpt>
      <trkpt lat="47.50508" lon="6.80458">
        <ele>316.3</ele>
        <time>2019-08-16T13:38:03Z</time>
      </trkpt>
      <trkpt lat="47.50512" lon="6.80458">
        <ele>316.3</ele>
        <time>2019-08-16T13:38:04Z</time>
      </trkpt>
      <trkpt lat="47.50516" lon="6.80458">
        <ele>316.4</ele>
        <time>2019-08-16T13:38:05Z</time>
      </trkpt>
      <trkpt lat="47.5052" lon="6.80459">
        <ele>316.4</ele>
        <time>2019-08-16T13:38:06Z</time>
      </trkpt>
      <trkpt lat="47.50524" lon="6.80459">
        <ele>316.4</ele>
        <time>2019-08-16T13:38:07Z</time>
      </trkpt>
      <trkpt lat="47.50528" lon="6.8046">
        <ele>316.4</ele>
        <time>2019-08-16T13:38:08Z</time>
      </trkpt>
      <trkpt lat="47.50532" lon="6.80461">
        <ele>316.5</ele>
        <time>2019-08-16T13:38:09Z</time>
      </trkpt>
      <trkpt lat="47.50537" lon="6.80462">
        <ele>316.5</ele>
        <time>2019-08-16T13:38:11Z</time>
      </trkpt>
      <trkpt lat="47.5054" lon="6.80462">
        <ele>316.5</ele>
        <time>2019-08-16T13:38:13Z</time>
      </trkpt>
      <trkpt lat="47.50542" lon="6.80461">
        <ele>316.6</ele>
        <time>2019-08-16T13:38:24Z</time>
      </trkpt>
      <trkpt lat="47.50547" lon="6.80459">
        <ele>316.7</ele>
        <time>2019-08-16T13:41:44Z</time>
      </trkpt>
      <trkpt lat="47.50551" lon="6.8046">
        <ele>316.7</ele>
        <time>2019-08-16T13:41:46Z</time>
      </trkpt>
      <trkpt lat="47.50556" lon="6.80461">
        <ele>316.8</ele>
        <time>2019-08-16T13:41:48Z</time>
      </trkpt>
      <trkpt lat="47.5056" lon="6.80462">
        <ele>316.9</ele>
        <time>2019-08-16T13:41:50Z</time>
      </trkpt>
      <trkpt lat="47.50563" lon="6.80463">
        <ele>316.9</ele>
        <time>2019-08-16T13:41:52Z</time>
      </trkpt>
      <trkpt lat="47.50566" lon="6.80464">
        <ele>317</ele>
        <time>2019-08-16T13:41:54Z</time>
      </trkpt>
      <trkpt lat="47.50567" lon="6.80469">
        <ele>317</ele>
        <time>2019-08-16T13:42:11Z</time>
      </trkpt>
      <trkpt lat="47.50567" lon="6.80476">
        <ele>316.9</ele>
        <time>2019-08-16T13:42:13Z</time>
      </trkpt>
      <trkpt lat="47.50571" lon="6.80476">
        <ele>316.9</ele>
        <time>2019-08-16T13:42:15Z</time>
      </trkpt>
      <trkpt lat="47.50575" lon="6.80477">
        <ele>315.9</ele>
        <time>2019-08-16T13:42:17Z</time>
      </trkpt>
      <trkpt lat="47.5058" lon="6.80477">
        <ele>315.4</ele>
        <time>2019-08-16T13:42:19Z</time>
      </trkpt>
      <trkpt lat="47.50584" lon="6.80482">
        <ele>314.7</ele>
        <time>2019-08-16T13:43:01Z</time>
      </trkpt>
      <trkpt lat="47.50588" lon="6.80481">
        <ele>314.1</ele>
        <time>2019-08-16T13:43:03Z</time>
      </trkpt>
      <trkpt lat="47.50592" lon="6.80481">
        <ele>313.7</ele>
        <time>2019-08-16T13:43:05Z</time>
      </trkpt>
      <trkpt lat="47.50595" lon="6.8048">
        <ele>313.7</ele>
        <time>2019-08-16T13:43:07Z</time>
      </trkpt>
      <trkpt lat="47.50599" lon="6.8048">
        <ele>313.8</ele>
        <time>2019-08-16T13:43:09Z</time>
      </trkpt>
      <trkpt lat="47.50602" lon="6.80479">
        <ele>313.8</ele>
        <time>2019-08-16T13:43:10Z</time>
      </trkpt>
      <trkpt lat="47.50605" lon="6.80477">
        <ele>313.8</ele>
        <time>2019-08-16T13:43:11Z</time>
      </trkpt>
      <trkpt lat="47.50608" lon="6.80476">
        <ele>313.9</ele>
        <time>2019-08-16T13:43:12Z</time>
      </trkpt>
      <trkpt lat="47.50611" lon="6.80474">
        <ele>314</ele>
        <time>2019-08-16T13:43:13Z</time>
      </trkpt>
      <trkpt lat="47.50613" lon="6.80473">
        <ele>314</ele>
        <time>2019-08-16T13:43:14Z</time>
      </trkpt>
      <trkpt lat="47.50616" lon="6.80471">
        <ele>314.1</ele>
        <time>2019-08-16T13:43:15Z</time>
      </trkpt>
      <trkpt lat="47.50621" lon="6.80468">
        <ele>314.2</ele>
        <time>2019-08-16T13:43:17Z</time>
      </trkpt>
      <trkpt lat="47.50624" lon="6.80467">
        <ele>314.3</ele>
        <time>2019-08-16T13:43:18Z</time>
      </trkpt>
      <trkpt lat="47.50627" lon="6.80465">
        <ele>314.4</ele>
        <time>2019-08-16T13:43:19Z</time>
      </trkpt>
      <trkpt lat="47.5063" lon="6.80464">
        <ele>314.5</ele>
        <time>2019-08-16T13:43:20Z</time>
      </trkpt>
      <trkpt lat="47.50634" lon="6.80462">
        <ele>314.6</ele>
        <time>2019-08-16T13:43:21Z</time>
      </trkpt>
      <trkpt lat="47.50638" lon="6.8046">
        <ele>314.6</ele>
        <time>2019-08-16T13:43:22Z</time>
      </trkpt>
      <trkpt lat="47.50642" lon="6.80459">
        <ele>314.6</ele>
        <time>2019-08-16T13:43:23Z</time>
      </trkpt>
      <trkpt lat="47.50645" lon="6.80458">
        <ele>314.6</ele>
        <time>2019-08-16T13:43:24Z</time>
      </trkpt>
      <trkpt lat="47.50648" lon="6.80457">
        <ele>314.6</ele>
        <time>2019-08-16T13:43:25Z</time>
      </trkpt>
      <trkpt lat="47.50651" lon="6.80455">
        <ele>314.5</ele>
        <time>2019-08-16T13:43:26Z</time>
      </trkpt>
      <trkpt lat="47.50654" lon="6.80454">
        <ele>314.4</ele>
        <time>2019-08-16T13:43:27Z</time>
      </trkpt>
      <trkpt lat="47.50657" lon="6.80452">
        <ele>314.4</ele>
        <time>2019-08-16T13:43:28Z</time>
      </trkpt>
      <trkpt lat="47.50661" lon="6.8045">
        <ele>314.2</ele>
        <time>2019-08-16T13:43:30Z</time>
      </trkpt>
      <trkpt lat="47.50663" lon="6.80447">
        <ele>314</ele>
        <time>2019-08-16T13:43:31Z</time>
      </trkpt>
      <trkpt lat="47.50666" lon="6.80443">
        <ele>314</ele>
        <time>2019-08-16T13:43:32Z</time>
      </trkpt>
      <trkpt lat="47.50671" lon="6.80439">
        <ele>314.1</ele>
        <time>2019-08-16T13:43:33Z</time>
      </trkpt>
      <trkpt lat="47.50678" lon="6.80435">
        <ele>314.1</ele>
        <time>2019-08-16T13:43:34Z</time>
      </trkpt>
      <trkpt lat="47.50685" lon="6.80431">
        <ele>314.1</ele>
        <time>2019-08-16T13:43:35Z</time>
      </trkpt>
      <trkpt lat="47.50691" lon="6.80427">
        <ele>314.1</ele>
        <time>2019-08-16T13:43:36Z</time>
      </trkpt>
      <trkpt lat="47.50697" lon="6.80422">
        <ele>314.1</ele>
        <time>2019-08-16T13:43:37Z</time>
      </trkpt>
      <trkpt lat="47.50703" lon="6.80416">
        <ele>314.2</ele>
        <time>2019-08-16T13:43:38Z</time>
      </trkpt>
      <trkpt lat="47.50708" lon="6.80411">
        <ele>314.2</ele>
        <time>2019-08-16T13:43:39Z</time>
      </trkpt>
      <trkpt lat="47.50713" lon="6.80407">
        <ele>314.2</ele>
        <time>2019-08-16T13:43:40Z</time>
      </trkpt>
      <trkpt lat="47.5072" lon="6.80402">
        <ele>314.2</ele>
        <time>2019-08-16T13:43:41Z</time>
      </trkpt>
      <trkpt lat="47.50726" lon="6.80398">
        <ele>314.2</ele>
        <time>2019-08-16T13:43:42Z</time>
      </trkpt>
      <trkpt lat="47.50733" lon="6.80393">
        <ele>314.3</ele>
        <time>2019-08-16T13:43:43Z</time>
      </trkpt>
      <trkpt lat="47.50738" lon="6.80389">
        <ele>314.3</ele>
        <time>2019-08-16T13:43:44Z</time>
      </trkpt>
      <trkpt lat="47.50742" lon="6.80386">
        <ele>314.3</ele>
        <time>2019-08-16T13:43:45Z</time>
      </trkpt>
      <trkpt lat="47.50747" lon="6.80383">
        <ele>314.3</ele>
        <time>2019-08-16T13:43:46Z</time>
      </trkpt>
      <trkpt lat="47.50752" lon="6.8038">
        <ele>314.3</ele>
        <time>2019-08-16T13:43:47Z</time>
      </trkpt>
      <trkpt lat="47.50756" lon="6.80377">
        <ele>314.4</ele>
        <time>2019-08-16T13:43:48Z</time>
      </trkpt>
      <trkpt lat="47.5076" lon="6.80373">
        <ele>314.4</ele>
        <time>2019-08-16T13:43:49Z</time>
      </trkpt>
      <trkpt lat="47.50764" lon="6.80371">
        <ele>314.4</ele>
        <time>2019-08-16T13:43:50Z</time>
      </trkpt>
      <trkpt lat="47.50769" lon="6.80368">
        <ele>314.5</ele>
        <time>2019-08-16T13:43:51Z</time>
      </trkpt>
      <trkpt lat="47.50773" lon="6.80365">
        <ele>314.6</ele>
        <time>2019-08-16T13:43:52Z</time>
      </trkpt>
      <trkpt lat="47.50778" lon="6.80362">
        <ele>314.7</ele>
        <time>2019-08-16T13:43:53Z</time>
      </trkpt>
      <trkpt lat="47.50782" lon="6.80359">
        <ele>314.9</ele>
        <time>2019-08-16T13:43:54Z</time>
      </trkpt>
      <trkpt lat="47.50787" lon="6.80355">
        <ele>315.1</ele>
        <time>2019-08-16T13:43:55Z</time>
      </trkpt>
      <trkpt lat="47.50794" lon="6.80352">
        <ele>315.5</ele>
        <time>2019-08-16T13:43:56Z</time>
      </trkpt>
      <trkpt lat="47.50799" lon="6.80348">
        <ele>315.9</ele>
        <time>2019-08-16T13:43:57Z</time>
      </trkpt>
      <trkpt lat="47.50803" lon="6.80345">
        <ele>316.2</ele>
        <time>2019-08-16T13:43:58Z</time>
      </trkpt>
      <trkpt lat="47.50809" lon="6.80341">
        <ele>316.5</ele>
        <time>2019-08-16T13:43:59Z</time>
      </trkpt>
      <trkpt lat="47.50814" lon="6.80338">
        <ele>316.8</ele>
        <time>2019-08-16T13:44:00Z</time>
      </trkpt>
      <trkpt lat="47.50819" lon="6.80335">
        <ele>317</ele>
        <time>2019-08-16T13:44:01Z</time>
      </trkpt>
      <trkpt lat="47.50822" lon="6.80333">
        <ele>317.2</ele>
        <time>2019-08-16T13:44:02Z</time>
      </trkpt>
      <trkpt lat="47.50825" lon="6.8033">
        <ele>317.3</ele>
        <time>2019-08-16T13:44:03Z</time>
      </trkpt>
      <trkpt lat="47.50828" lon="6.80327">
        <ele>317.5</ele>
        <time>2019-08-16T13:44:05Z</time>
      </trkpt>
      <trkpt lat="47.50832" lon="6.80323">
        <ele>317.6</ele>
        <time>2019-08-16T13:44:07Z</time>
      </trkpt>
      <trkpt lat="47.50835" lon="6.80321">
        <ele>317.6</ele>
        <time>2019-08-16T13:44:09Z</time>
      </trkpt>
      <trkpt lat="47.50838" lon="6.80319">
        <ele>317.7</ele>
        <time>2019-08-16T13:44:12Z</time>
      </trkpt>
      <trkpt lat="47.50841" lon="6.80316">
        <ele>317.8</ele>
        <time>2019-08-16T13:44:14Z</time>
      </trkpt>
      <trkpt lat="47.5085" lon="6.80317">
        <ele>317.9</ele>
        <time>2019-08-16T13:44:39Z</time>
      </trkpt>
      <trkpt lat="47.50853" lon="6.80316">
        <ele>317.9</ele>
        <time>2019-08-16T13:44:41Z</time>
      </trkpt>
      <trkpt lat="47.50856" lon="6.80315">
        <ele>318</ele>
        <time>2019-08-16T13:44:43Z</time>
      </trkpt>
      <trkpt lat="47.50858" lon="6.80311">
        <ele>318</ele>
        <time>2019-08-16T13:44:47Z</time>
      </trkpt>
      <trkpt lat="47.50854" lon="6.80308">
        <ele>318.1</ele>
        <time>2019-08-16T13:45:17Z</time>
      </trkpt>
      <trkpt lat="47.5085" lon="6.80309">
        <ele>318.1</ele>
        <time>2019-08-16T13:45:19Z</time>
      </trkpt>
      <trkpt lat="47.50846" lon="6.80312">
        <ele>318.1</ele>
        <time>2019-08-16T13:45:21Z</time>
      </trkpt>
      <trkpt lat="47.50843" lon="6.80315">
        <ele>318.2</ele>
        <time>2019-08-16T13:45:22Z</time>
      </trkpt>
      <trkpt lat="47.5084" lon="6.80317">
        <ele>318.2</ele>
        <time>2019-08-16T13:45:23Z</time>
      </trkpt>
      <trkpt lat="47.50836" lon="6.80314">
        <ele>318.2</ele>
        <time>2019-08-16T13:45:25Z</time>
      </trkpt>
      <trkpt lat="47.50835" lon="6.8031">
        <ele>318.2</ele>
        <time>2019-08-16T13:45:26Z</time>
      </trkpt>
      <trkpt lat="47.50834" lon="6.80304">
        <ele>318.2</ele>
        <time>2019-08-16T13:45:27Z</time>
      </trkpt>
      <trkpt lat="47.50834" lon="6.80298">
        <ele>318.2</ele>
        <time>2019-08-16T13:45:28Z</time>
      </trkpt>
      <trkpt lat="47.50834" lon="6.80293">
        <ele>318.1</ele>
        <time>2019-08-16T13:45:29Z</time>
      </trkpt>
      <trkpt lat="47.50834" lon="6.80288">
        <ele>318.1</ele>
        <time>2019-08-16T13:45:30Z</time>
      </trkpt>
      <trkpt lat="47.50834" lon="6.80282">
        <ele>318.1</ele>
        <time>2019-08-16T13:45:31Z</time>
      </trkpt>
      <trkpt lat="47.50834" lon="6.80275">
        <ele>318</ele>
        <time>2019-08-16T13:45:32Z</time>
      </trkpt>
      <trkpt lat="47.50833" lon="6.80269">
        <ele>317.9</ele>
        <time>2019-08-16T13:45:33Z</time>
      </trkpt>
      <trkpt lat="47.50834" lon="6.80262">
        <ele>317.9</ele>
        <time>2019-08-16T13:45:34Z</time>
      </trkpt>
      <trkpt lat="47.50834" lon="6.80256">
        <ele>317.8</ele>
        <time>2019-08-16T13:45:35Z</time>
      </trkpt>
      <trkpt lat="47.50833" lon="6.8025">
        <ele>317.8</ele>
        <time>2019-08-16T13:45:36Z</time>
      </trkpt>
      <trkpt lat="47.50833" lon="6.80244">
        <ele>317.7</ele>
        <time>2019-08-16T13:45:37Z</time>
      </trkpt>
      <trkpt lat="47.50833" lon="6.80237">
        <ele>317.6</ele>
        <time>2019-08-16T13:45:38Z</time>
      </trkpt>
      <trkpt lat="47.50834" lon="6.80232">
        <ele>317.6</ele>
        <time>2019-08-16T13:45:39Z</time>
      </trkpt>
      <trkpt lat="47.50834" lon="6.80226">
        <ele>317.6</ele>
        <time>2019-08-16T13:45:40Z</time>
      </trkpt>
      <trkpt lat="47.50834" lon="6.80222">
        <ele>317.6</ele>
        <time>2019-08-16T13:45:41Z</time>
      </trkpt>
      <trkpt lat="47.50833" lon="6.80217">
        <ele>318.1</ele>
        <time>2019-08-16T13:45:42Z</time>
      </trkpt>
      <trkpt lat="47.50833" lon="6.80212">
        <ele>318.1</ele>
        <time>2019-08-16T13:45:43Z</time>
      </trkpt>
      <trkpt lat="47.50836" lon="6.80212">
        <ele>318.1</ele>
        <time>2019-08-16T13:45:45Z</time>
      </trkpt>
      <trkpt lat="47.50837" lon="6.80218">
        <ele>318</ele>
        <time>2019-08-16T13:45:47Z</time>
      </trkpt>
      <trkpt lat="47.50838" lon="6.80223">
        <ele>317.9</ele>
        <time>2019-08-16T13:45:48Z</time>
      </trkpt>
      <trkpt lat="47.50839" lon="6.80228">
        <ele>317.8</ele>
        <time>2019-08-16T13:45:49Z</time>
      </trkpt>
      <trkpt lat="47.5084" lon="6.80234">
        <ele>317.7</ele>
        <time>2019-08-16T13:45:50Z</time>
      </trkpt>
      <trkpt lat="47.50843" lon="6.80238">
        <ele>317.7</ele>
        <time>2019-08-16T13:45:51Z</time>
      </trkpt>
      <trkpt lat="47.50846" lon="6.80242">
        <ele>317.6</ele>
        <time>2019-08-16T13:45:52Z</time>
      </trkpt>
      <trkpt lat="47.50848" lon="6.80246">
        <ele>317.5</ele>
        <time>2019-08-16T13:45:53Z</time>
      </trkpt>
      <trkpt lat="47.50849" lon="6.8025">
        <ele>317.4</ele>
        <time>2019-08-16T13:45:54Z</time>
      </trkpt>
      <trkpt lat="47.50852" lon="6.80256">
        <ele>317.4</ele>
        <time>2019-08-16T13:45:56Z</time>
      </trkpt>
      <trkpt lat="47.50854" lon="6.80262">
        <ele>317.3</ele>
        <time>2019-08-16T13:45:58Z</time>
      </trkpt>
      <trkpt lat="47.50857" lon="6.80269">
        <ele>317.2</ele>
        <time>2019-08-16T13:46:00Z</time>
      </trkpt>
      <trkpt lat="47.50858" lon="6.80273">
        <ele>317.2</ele>
        <time>2019-08-16T13:46:01Z</time>
      </trkpt>
      <trkpt lat="47.5086" lon="6.80278">
        <ele>317.2</ele>
        <time>2019-08-16T13:46:02Z</time>
      </trkpt>
      <trkpt lat="47.50861" lon="6.80283">
        <ele>317.2</ele>
        <time>2019-08-16T13:46:03Z</time>
      </trkpt>
      <trkpt lat="47.50861" lon="6.80288">
        <ele>317.2</ele>
        <time>2019-08-16T13:46:05Z</time>
      </trkpt>
      <trkpt lat="47.50867" lon="6.80284">
        <ele>317.1</ele>
        <time>2019-08-16T13:46:07Z</time>
      </trkpt>
      <trkpt lat="47.50871" lon="6.80281">
        <ele>317.1</ele>
        <time>2019-08-16T13:46:08Z</time>
      </trkpt>
      <trkpt lat="47.50874" lon="6.80278">
        <ele>317.1</ele>
        <time>2019-08-16T13:46:09Z</time>
      </trkpt>
      <trkpt lat="47.50877" lon="6.80275">
        <ele>317.3</ele>
        <time>2019-08-16T13:46:10Z</time>
      </trkpt>
      <trkpt lat="47.5088" lon="6.80272">
        <ele>317.3</ele>
        <time>2019-08-16T13:46:11Z</time>
      </trkpt>
      <trkpt lat="47.50883" lon="6.8027">
        <ele>317.4</ele>
        <time>2019-08-16T13:46:12Z</time>
      </trkpt>
      <trkpt lat="47.50886" lon="6.80268">
        <ele>317.5</ele>
        <time>2019-08-16T13:46:13Z</time>
      </trkpt>
      <trkpt lat="47.50889" lon="6.80266">
        <ele>317.5</ele>
        <time>2019-08-16T13:46:14Z</time>
      </trkpt>
      <trkpt lat="47.50892" lon="6.80263">
        <ele>317.6</ele>
        <time>2019-08-16T13:46:15Z</time>
      </trkpt>
      <trkpt lat="47.50895" lon="6.80262">
        <ele>317.7</ele>
        <time>2019-08-16T13:46:16Z</time>
      </trkpt>
      <trkpt lat="47.50898" lon="6.8026">
        <ele>317.7</ele>
        <time>2019-08-16T13:46:17Z</time>
      </trkpt>
      <trkpt lat="47.50902" lon="6.8026">
        <ele>317.8</ele>
        <time>2019-08-16T13:46:18Z</time>
      </trkpt>
      <trkpt lat="47.50905" lon="6.80256">
        <ele>318</ele>
        <time>2019-08-16T13:46:20Z</time>
      </trkpt>
      <trkpt lat="47.50909" lon="6.80252">
        <ele>318.1</ele>
        <time>2019-08-16T13:46:22Z</time>
      </trkpt>
      <trkpt lat="47.50914" lon="6.8025">
        <ele>318.3</ele>
        <time>2019-08-16T13:46:24Z</time>
      </trkpt>
      <trkpt lat="47.50917" lon="6.80252">
        <ele>318.4</ele>
        <time>2019-08-16T13:46:25Z</time>
      </trkpt>
      <trkpt lat="47.50921" lon="6.80253">
        <ele>318.5</ele>
        <time>2019-08-16T13:46:27Z</time>
      </trkpt>
      <trkpt lat="47.50925" lon="6.80254">
        <ele>318.6</ele>
        <time>2019-08-16T13:46:29Z</time>
      </trkpt>
      <trkpt lat="47.50928" lon="6.80255">
        <ele>318.7</ele>
        <time>2019-08-16T13:46:31Z</time>
      </trkpt>
      <trkpt lat="47.50929" lon="6.80251">
        <ele>318.8</ele>
        <time>2019-08-16T13:46:37Z</time>
      </trkpt>
      <trkpt lat="47.50931" lon="6.80245">
        <ele>319</ele>
        <time>2019-08-16T13:46:47Z</time>
      </trkpt>
      <trkpt lat="47.50935" lon="6.80242">
        <ele>319.1</ele>
        <time>2019-08-16T13:46:51Z</time>
      </trkpt>
      <trkpt lat="47.50938" lon="6.80238">
        <ele>319.2</ele>
        <time>2019-08-16T13:46:53Z</time>
      </trkpt>
      <trkpt lat="47.50941" lon="6.80235">
        <ele>319.7</ele>
        <time>2019-08-16T13:46:54Z</time>
      </trkpt>
      <trkpt lat="47.50945" lon="6.80234">
        <ele>319.8</ele>
        <time>2019-08-16T13:46:55Z</time>
      </trkpt>
      <trkpt lat="47.50949" lon="6.8023">
        <ele>319.9</ele>
        <time>2019-08-16T13:46:56Z</time>
      </trkpt>
      <trkpt lat="47.50952" lon="6.80227">
        <ele>320</ele>
        <time>2019-08-16T13:46:57Z</time>
      </trkpt>
      <trkpt lat="47.50955" lon="6.80223">
        <ele>320.1</ele>
        <time>2019-08-16T13:46:58Z</time>
      </trkpt>
      <trkpt lat="47.50958" lon="6.8022">
        <ele>320.2</ele>
        <time>2019-08-16T13:46:59Z</time>
      </trkpt>
      <trkpt lat="47.50962" lon="6.80218">
        <ele>320.4</ele>
        <time>2019-08-16T13:47:00Z</time>
      </trkpt>
      <trkpt lat="47.50966" lon="6.80215">
        <ele>320.5</ele>
        <time>2019-08-16T13:47:01Z</time>
      </trkpt>
      <trkpt lat="47.50971" lon="6.80212">
        <ele>320.7</ele>
        <time>2019-08-16T13:47:02Z</time>
      </trkpt>
      <trkpt lat="47.50974" lon="6.80209">
        <ele>320.8</ele>
        <time>2019-08-16T13:47:03Z</time>
      </trkpt>
      <trkpt lat="47.50979" lon="6.80206">
        <ele>320.9</ele>
        <time>2019-08-16T13:47:04Z</time>
      </trkpt>
      <trkpt lat="47.50983" lon="6.80203">
        <ele>321</ele>
        <time>2019-08-16T13:47:05Z</time>
      </trkpt>
      <trkpt lat="47.50987" lon="6.80201">
        <ele>321.1</ele>
        <time>2019-08-16T13:47:06Z</time>
      </trkpt>
      <trkpt lat="47.5099" lon="6.80199">
        <ele>321.3</ele>
        <time>2019-08-16T13:47:07Z</time>
      </trkpt>
      <trkpt lat="47.50993" lon="6.80197">
        <ele>321.4</ele>
        <time>2019-08-16T13:47:08Z</time>
      </trkpt>
      <trkpt lat="47.50996" lon="6.80196">
        <ele>321.5</ele>
        <time>2019-08-16T13:47:09Z</time>
      </trkpt>
      <trkpt lat="47.50998" lon="6.80194">
        <ele>321.6</ele>
        <time>2019-08-16T13:47:10Z</time>
      </trkpt>
      <trkpt lat="47.51003" lon="6.80192">
        <ele>321.8</ele>
        <time>2019-08-16T13:47:12Z</time>
      </trkpt>
      <trkpt lat="47.51006" lon="6.80189">
        <ele>321.8</ele>
        <time>2019-08-16T13:47:14Z</time>
      </trkpt>
      <trkpt lat="47.51008" lon="6.8019">
        <ele>321.9</ele>
        <time>2019-08-16T13:47:18Z</time>
      </trkpt>
      <trkpt lat="47.51011" lon="6.80189">
        <ele>321.9</ele>
        <time>2019-08-16T13:47:21Z</time>
      </trkpt>
      <trkpt lat="47.51013" lon="6.80185">
        <ele>321.9</ele>
        <time>2019-08-16T13:47:43Z</time>
      </trkpt>
      <trkpt lat="47.51016" lon="6.80182">
        <ele>321.9</ele>
        <time>2019-08-16T13:47:45Z</time>
      </trkpt>
      <trkpt lat="47.51019" lon="6.80177">
        <ele>321.9</ele>
        <time>2019-08-16T13:47:47Z</time>
      </trkpt>
      <trkpt lat="47.51021" lon="6.80173">
        <ele>321.9</ele>
        <time>2019-08-16T13:47:48Z</time>
      </trkpt>
      <trkpt lat="47.51021" lon="6.80168">
        <ele>321.9</ele>
        <time>2019-08-16T13:47:49Z</time>
      </trkpt>
      <trkpt lat="47.51023" lon="6.80163">
        <ele>321.9</ele>
        <time>2019-08-16T13:47:53Z</time>
      </trkpt>
      <trkpt lat="47.51024" lon="6.80154">
        <ele>321.9</ele>
        <time>2019-08-16T13:49:50Z</time>
      </trkpt>
      <trkpt lat="47.51021" lon="6.80153">
        <ele>321.9</ele>
        <time>2019-08-16T13:49:51Z</time>
      </trkpt>
      <trkpt lat="47.51016" lon="6.80152">
        <ele>321.9</ele>
        <time>2019-08-16T13:49:53Z</time>
      </trkpt>
      <trkpt lat="47.51013" lon="6.80149">
        <ele>321.9</ele>
        <time>2019-08-16T13:49:55Z</time>
      </trkpt>
      <trkpt lat="47.51011" lon="6.80145">
        <ele>321.9</ele>
        <time>2019-08-16T13:49:59Z</time>
      </trkpt>
      <trkpt lat="47.5101" lon="6.80141">
        <ele>321.9</ele>
        <time>2019-08-16T13:50:06Z</time>
      </trkpt>
      <trkpt lat="47.51012" lon="6.80137">
        <ele>321.9</ele>
        <time>2019-08-16T13:50:12Z</time>
      </trkpt>
      <trkpt lat="47.51012" lon="6.80132">
        <ele>321.9</ele>
        <time>2019-08-16T13:50:14Z</time>
      </trkpt>
      <trkpt lat="47.51011" lon="6.80128">
        <ele>321.9</ele>
        <time>2019-08-16T13:50:16Z</time>
      </trkpt>
      <trkpt lat="47.51007" lon="6.80129">
        <ele>321.9</ele>
        <time>2019-08-16T13:50:22Z</time>
      </trkpt>
      <trkpt lat="47.51003" lon="6.80131">
        <ele>321.9</ele>
        <time>2019-08-16T13:50:24Z</time>
      </trkpt>
      <trkpt lat="47.50999" lon="6.80133">
        <ele>321.9</ele>
        <time>2019-08-16T13:50:26Z</time>
      </trkpt>
      <trkpt lat="47.50995" lon="6.8013">
        <ele>321.9</ele>
        <time>2019-08-16T13:50:28Z</time>
      </trkpt>
      <trkpt lat="47.50992" lon="6.80126">
        <ele>322.3</ele>
        <time>2019-08-16T13:50:30Z</time>
      </trkpt>
      <trkpt lat="47.50988" lon="6.80123">
        <ele>322.3</ele>
        <time>2019-08-16T13:50:32Z</time>
      </trkpt>
      <trkpt lat="47.50985" lon="6.80123">
        <ele>322.3</ele>
        <time>2019-08-16T13:50:34Z</time>
      </trkpt>
      <trkpt lat="47.50982" lon="6.80126">
        <ele>322.3</ele>
        <time>2019-08-16T13:50:36Z</time>
      </trkpt>
      <trkpt lat="47.5098" lon="6.8013">
        <ele>322.4</ele>
        <time>2019-08-16T13:50:38Z</time>
      </trkpt>
      <trkpt lat="47.50974" lon="6.80134">
        <ele>322.4</ele>
        <time>2019-08-16T13:50:40Z</time>
      </trkpt>
      <trkpt lat="47.50971" lon="6.80136">
        <ele>322.4</ele>
        <time>2019-08-16T13:50:41Z</time>
      </trkpt>
      <trkpt lat="47.50968" lon="6.80138">
        <ele>322.4</ele>
        <time>2019-08-16T13:50:42Z</time>
      </trkpt>
      <trkpt lat="47.50966" lon="6.80141">
        <ele>322.4</ele>
        <time>2019-08-16T13:50:43Z</time>
      </trkpt>
      <trkpt lat="47.50963" lon="6.80143">
        <ele>322.4</ele>
        <time>2019-08-16T13:50:44Z</time>
      </trkpt>
      <trkpt lat="47.50958" lon="6.80147">
        <ele>322.4</ele>
        <time>2019-08-16T13:50:46Z</time>
      </trkpt>
      <trkpt lat="47.50954" lon="6.80149">
        <ele>322.4</ele>
        <time>2019-08-16T13:50:48Z</time>
      </trkpt>
      <trkpt lat="47.5095" lon="6.80148">
        <ele>322.7</ele>
        <time>2019-08-16T13:50:50Z</time>
      </trkpt>
      <trkpt lat="47.50947" lon="6.80148">
        <ele>322.8</ele>
        <time>2019-08-16T13:50:52Z</time>
      </trkpt>
      <trkpt lat="47.50942" lon="6.8015">
        <ele>322.9</ele>
        <time>2019-08-16T13:50:54Z</time>
      </trkpt>
      <trkpt lat="47.50937" lon="6.8015">
        <ele>323</ele>
        <time>2019-08-16T13:50:56Z</time>
      </trkpt>
      <trkpt lat="47.50932" lon="6.8015">
        <ele>323.1</ele>
        <time>2019-08-16T13:50:58Z</time>
      </trkpt>
      <trkpt lat="47.50929" lon="6.80148">
        <ele>323.2</ele>
        <time>2019-08-16T13:51:00Z</time>
      </trkpt>
      <trkpt lat="47.50925" lon="6.80145">
        <ele>323.3</ele>
        <time>2019-08-16T13:51:02Z</time>
      </trkpt>
      <trkpt lat="47.50922" lon="6.8014">
        <ele>323.6</ele>
        <time>2019-08-16T13:51:04Z</time>
      </trkpt>
      <trkpt lat="47.50921" lon="6.80136">
        <ele>323.7</ele>
        <time>2019-08-16T13:51:05Z</time>
      </trkpt>
      <trkpt lat="47.5092" lon="6.80131">
        <ele>323.9</ele>
        <time>2019-08-16T13:51:06Z</time>
      </trkpt>
      <trkpt lat="47.50919" lon="6.80126">
        <ele>324</ele>
        <time>2019-08-16T13:51:07Z</time>
      </trkpt>
      <trkpt lat="47.50916" lon="6.80119">
        <ele>324.3</ele>
        <time>2019-08-16T13:51:09Z</time>
      </trkpt>
      <trkpt lat="47.50916" lon="6.80112">
        <ele>324.4</ele>
        <time>2019-08-16T13:51:11Z</time>
      </trkpt>
      <trkpt lat="47.50914" lon="6.80105">
        <ele>324.6</ele>
        <time>2019-08-16T13:51:13Z</time>
      </trkpt>
      <trkpt lat="47.5091" lon="6.80098">
        <ele>324.8</ele>
        <time>2019-08-16T13:51:15Z</time>
      </trkpt>
      <trkpt lat="47.50908" lon="6.80093">
        <ele>324.9</ele>
        <time>2019-08-16T13:51:16Z</time>
      </trkpt>
      <trkpt lat="47.50906" lon="6.80089">
        <ele>325</ele>
        <time>2019-08-16T13:51:17Z</time>
      </trkpt>
      <trkpt lat="47.50904" lon="6.80084">
        <ele>325.1</ele>
        <time>2019-08-16T13:51:18Z</time>
      </trkpt>
      <trkpt lat="47.50902" lon="6.80078">
        <ele>325.2</ele>
        <time>2019-08-16T13:51:19Z</time>
      </trkpt>
      <trkpt lat="47.509" lon="6.80074">
        <ele>325.3</ele>
        <time>2019-08-16T13:51:20Z</time>
      </trkpt>
      <trkpt lat="47.50898" lon="6.8007">
        <ele>325.4</ele>
        <time>2019-08-16T13:51:21Z</time>
      </trkpt>
      <trkpt lat="47.50896" lon="6.80065">
        <ele>325.5</ele>
        <time>2019-08-16T13:51:22Z</time>
      </trkpt>
      <trkpt lat="47.50893" lon="6.8006">
        <ele>325.7</ele>
        <time>2019-08-16T13:51:23Z</time>
      </trkpt>
      <trkpt lat="47.50891" lon="6.80055">
        <ele>325.8</ele>
        <time>2019-08-16T13:51:24Z</time>
      </trkpt>
      <trkpt lat="47.50888" lon="6.8005">
        <ele>325.9</ele>
        <time>2019-08-16T13:51:25Z</time>
      </trkpt>
      <trkpt lat="47.50886" lon="6.80045">
        <ele>326</ele>
        <time>2019-08-16T13:51:26Z</time>
      </trkpt>
      <trkpt lat="47.50884" lon="6.80039">
        <ele>326.1</ele>
        <time>2019-08-16T13:51:27Z</time>
      </trkpt>
      <trkpt lat="47.50881" lon="6.80034">
        <ele>326.2</ele>
        <time>2019-08-16T13:51:28Z</time>
      </trkpt>
      <trkpt lat="47.50879" lon="6.80029">
        <ele>326.3</ele>
        <time>2019-08-16T13:51:29Z</time>
      </trkpt>
      <trkpt lat="47.50877" lon="6.80024">
        <ele>326.4</ele>
        <time>2019-08-16T13:51:30Z</time>
      </trkpt>
      <trkpt lat="47.50876" lon="6.80019">
        <ele>326.5</ele>
        <time>2019-08-16T13:51:31Z</time>
      </trkpt>
      <trkpt lat="47.50874" lon="6.80016">
        <ele>326.6</ele>
        <time>2019-08-16T13:51:32Z</time>
      </trkpt>
      <trkpt lat="47.50871" lon="6.80015">
        <ele>326.7</ele>
        <time>2019-08-16T13:51:34Z</time>
      </trkpt>
      <trkpt lat="47.50867" lon="6.80017">
        <ele>325.8</ele>
        <time>2019-08-16T13:51:36Z</time>
      </trkpt>
      <trkpt lat="47.50863" lon="6.80018">
        <ele>325.8</ele>
        <time>2019-08-16T13:51:38Z</time>
      </trkpt>
      <trkpt lat="47.50861" lon="6.80017">
        <ele>325.7</ele>
        <time>2019-08-16T13:51:39Z</time>
      </trkpt>
      <trkpt lat="47.50857" lon="6.80015">
        <ele>325.5</ele>
        <time>2019-08-16T13:51:41Z</time>
      </trkpt>
      <trkpt lat="47.50854" lon="6.80013">
        <ele>325.2</ele>
        <time>2019-08-16T13:51:43Z</time>
      </trkpt>
      <trkpt lat="47.50851" lon="6.80011">
        <ele>324.9</ele>
        <time>2019-08-16T13:51:45Z</time>
      </trkpt>
      <trkpt lat="47.50847" lon="6.80013">
        <ele>324.4</ele>
        <time>2019-08-16T13:51:47Z</time>
      </trkpt>
      <trkpt lat="47.50843" lon="6.80011">
        <ele>324.1</ele>
        <time>2019-08-16T13:51:49Z</time>
      </trkpt>
      <trkpt lat="47.50839" lon="6.80011">
        <ele>323.8</ele>
        <time>2019-08-16T13:51:50Z</time>
      </trkpt>
      <trkpt lat="47.50836" lon="6.80009">
        <ele>323.5</ele>
        <time>2019-08-16T13:51:51Z</time>
      </trkpt>
      <trkpt lat="47.50833" lon="6.80009">
        <ele>322.8</ele>
        <time>2019-08-16T13:51:52Z</time>
      </trkpt>
      <trkpt lat="47.50827" lon="6.80009">
        <ele>322.5</ele>
        <time>2019-08-16T13:51:54Z</time>
      </trkpt>
      <trkpt lat="47.50822" lon="6.80011">
        <ele>321.7</ele>
        <time>2019-08-16T13:51:56Z</time>
      </trkpt>
      <trkpt lat="47.50819" lon="6.80013">
        <ele>321.4</ele>
        <time>2019-08-16T13:51:57Z</time>
      </trkpt>
      <trkpt lat="47.50814" lon="6.80013">
        <ele>320.9</ele>
        <time>2019-08-16T13:51:59Z</time>
      </trkpt>
      <trkpt lat="47.50811" lon="6.80018">
        <ele>320.5</ele>
        <time>2019-08-16T13:52:01Z</time>
      </trkpt>
      <trkpt lat="47.50809" lon="6.80021">
        <ele>320.1</ele>
        <time>2019-08-16T13:52:03Z</time>
      </trkpt>
      <trkpt lat="47.50799" lon="6.80033">
        <ele>318.9</ele>
        <time>2019-08-16T14:11:08Z</time>
      </trkpt>
      <trkpt lat="47.50799" lon="6.80038">
        <ele>318.8</ele>
        <time>2019-08-16T14:11:11Z</time>
      </trkpt>
      <trkpt lat="47.50799" lon="6.80032">
        <ele>319.1</ele>
        <time>2019-08-16T14:11:23Z</time>
      </trkpt>
      <trkpt lat="47.50805" lon="6.80032">
        <ele>319.5</ele>
        <time>2019-08-16T14:13:17Z</time>
      </trkpt>
      <trkpt lat="47.50803" lon="6.80035">
        <ele>319.2</ele>
        <time>2019-08-16T14:13:22Z</time>
      </trkpt>
      <trkpt lat="47.50804" lon="6.8004">
        <ele>319.1</ele>
        <time>2019-08-16T14:13:26Z</time>
      </trkpt>
      <trkpt lat="47.50807" lon="6.80037">
        <ele>319.4</ele>
        <time>2019-08-16T14:13:29Z</time>
      </trkpt>
      <trkpt lat="47.50807" lon="6.8003">
        <ele>319.9</ele>
        <time>2019-08-16T14:13:31Z</time>
      </trkpt>
      <trkpt lat="47.50806" lon="6.80024">
        <ele>319.7</ele>
        <time>2019-08-16T14:13:33Z</time>
      </trkpt>
      <trkpt lat="47.50805" lon="6.80019">
        <ele>319.9</ele>
        <time>2019-08-16T14:13:35Z</time>
      </trkpt>
      <trkpt lat="47.50803" lon="6.80015">
        <ele>319.7</ele>
        <time>2019-08-16T14:13:38Z</time>
      </trkpt>
      <trkpt lat="47.508" lon="6.80013">
        <ele>319.5</ele>
        <time>2019-08-16T14:13:44Z</time>
      </trkpt>
      <trkpt lat="47.50798" lon="6.80017">
        <ele>319.2</ele>
        <time>2019-08-16T14:13:47Z</time>
      </trkpt>
      <trkpt lat="47.50795" lon="6.80019">
        <ele>318.9</ele>
        <time>2019-08-16T14:13:50Z</time>
      </trkpt>
      <trkpt lat="47.50792" lon="6.8002">
        <ele>318.6</ele>
        <time>2019-08-16T14:13:52Z</time>
      </trkpt>
      <trkpt lat="47.50789" lon="6.8002">
        <ele>318.4</ele>
        <time>2019-08-16T14:13:54Z</time>
      </trkpt>
      <trkpt lat="47.50785" lon="6.80019">
        <ele>318.4</ele>
        <time>2019-08-16T14:13:57Z</time>
      </trkpt>
      <trkpt lat="47.50782" lon="6.80023">
        <ele>318</ele>
        <time>2019-08-16T14:14:24Z</time>
      </trkpt>
      <trkpt lat="47.50781" lon="6.80029">
        <ele>317.8</ele>
        <time>2019-08-16T14:14:26Z</time>
      </trkpt>
      <trkpt lat="47.50782" lon="6.80036">
        <ele>317.6</ele>
        <time>2019-08-16T14:14:28Z</time>
      </trkpt>
      <trkpt lat="47.50784" lon="6.80041">
        <ele>317.6</ele>
        <time>2019-08-16T14:14:30Z</time>
      </trkpt>
      <trkpt lat="47.50786" lon="6.80045">
        <ele>317.6</ele>
        <time>2019-08-16T14:14:32Z</time>
      </trkpt>
      <trkpt lat="47.5079" lon="6.80051">
        <ele>317.5</ele>
        <time>2019-08-16T14:14:34Z</time>
      </trkpt>
      <trkpt lat="47.50791" lon="6.80056">
        <ele>317.4</ele>
        <time>2019-08-16T14:14:36Z</time>
      </trkpt>
      <trkpt lat="47.50789" lon="6.80059">
        <ele>317.3</ele>
        <time>2019-08-16T14:14:38Z</time>
      </trkpt>
      <trkpt lat="47.50786" lon="6.80064">
        <ele>317.1</ele>
        <time>2019-08-16T14:14:40Z</time>
      </trkpt>
      <trkpt lat="47.50783" lon="6.80067">
        <ele>317</ele>
        <time>2019-08-16T14:14:42Z</time>
      </trkpt>
      <trkpt lat="47.50777" lon="6.8007">
        <ele>316.8</ele>
        <time>2019-08-16T14:14:44Z</time>
      </trkpt>
      <trkpt lat="47.50774" lon="6.80073">
        <ele>316.7</ele>
        <time>2019-08-16T14:14:45Z</time>
      </trkpt>
      <trkpt lat="47.50771" lon="6.80076">
        <ele>316.6</ele>
        <time>2019-08-16T14:14:46Z</time>
      </trkpt>
      <trkpt lat="47.50768" lon="6.80079">
        <ele>316.6</ele>
        <time>2019-08-16T14:14:47Z</time>
      </trkpt>
      <trkpt lat="47.50765" lon="6.80081">
        <ele>316.6</ele>
        <time>2019-08-16T14:14:48Z</time>
      </trkpt>
      <trkpt lat="47.50763" lon="6.80083">
        <ele>316.5</ele>
        <time>2019-08-16T14:14:49Z</time>
      </trkpt>
      <trkpt lat="47.50758" lon="6.80087">
        <ele>316.5</ele>
        <time>2019-08-16T14:14:51Z</time>
      </trkpt>
      <trkpt lat="47.50756" lon="6.8009">
        <ele>316.4</ele>
        <time>2019-08-16T14:14:52Z</time>
      </trkpt>
      <trkpt lat="47.50754" lon="6.80092">
        <ele>316.4</ele>
        <time>2019-08-16T14:14:53Z</time>
      </trkpt>
      <trkpt lat="47.5075" lon="6.80092">
        <ele>316.4</ele>
        <time>2019-08-16T14:14:54Z</time>
      </trkpt>
      <trkpt lat="47.50747" lon="6.80094">
        <ele>316.3</ele>
        <time>2019-08-16T14:14:55Z</time>
      </trkpt>
      <trkpt lat="47.50744" lon="6.80097">
        <ele>316.3</ele>
        <time>2019-08-16T14:14:56Z</time>
      </trkpt>
      <trkpt lat="47.5074" lon="6.80099">
        <ele>316.3</ele>
        <time>2019-08-16T14:14:57Z</time>
      </trkpt>
      <trkpt lat="47.50736" lon="6.80102">
        <ele>316.2</ele>
        <time>2019-08-16T14:14:58Z</time>
      </trkpt>
      <trkpt lat="47.50733" lon="6.80106">
        <ele>316.2</ele>
        <time>2019-08-16T14:14:59Z</time>
      </trkpt>
      <trkpt lat="47.5073" lon="6.80108">
        <ele>316.2</ele>
        <time>2019-08-16T14:15:00Z</time>
      </trkpt>
      <trkpt lat="47.50728" lon="6.8011">
        <ele>316.2</ele>
        <time>2019-08-16T14:15:01Z</time>
      </trkpt>
      <trkpt lat="47.50725" lon="6.80113">
        <ele>316.2</ele>
        <time>2019-08-16T14:15:02Z</time>
      </trkpt>
      <trkpt lat="47.50722" lon="6.80114">
        <ele>316.2</ele>
        <time>2019-08-16T14:15:03Z</time>
      </trkpt>
      <trkpt lat="47.50717" lon="6.80116">
        <ele>316.4</ele>
        <time>2019-08-16T14:15:05Z</time>
      </trkpt>
      <trkpt lat="47.50713" lon="6.80117">
        <ele>316.5</ele>
        <time>2019-08-16T14:15:07Z</time>
      </trkpt>
      <trkpt lat="47.5071" lon="6.80118">
        <ele>316.6</ele>
        <time>2019-08-16T14:15:08Z</time>
      </trkpt>
      <trkpt lat="47.50707" lon="6.8012">
        <ele>316.7</ele>
        <time>2019-08-16T14:15:09Z</time>
      </trkpt>
      <trkpt lat="47.50703" lon="6.80121">
        <ele>316.8</ele>
        <time>2019-08-16T14:15:10Z</time>
      </trkpt>
      <trkpt lat="47.507" lon="6.80122">
        <ele>316.9</ele>
        <time>2019-08-16T14:15:11Z</time>
      </trkpt>
      <trkpt lat="47.50698" lon="6.80124">
        <ele>317</ele>
        <time>2019-08-16T14:15:12Z</time>
      </trkpt>
      <trkpt lat="47.50695" lon="6.80129">
        <ele>317.1</ele>
        <time>2019-08-16T14:15:14Z</time>
      </trkpt>
      <trkpt lat="47.50692" lon="6.80131">
        <ele>317.2</ele>
        <time>2019-08-16T14:15:15Z</time>
      </trkpt>
      <trkpt lat="47.50687" lon="6.80133">
        <ele>317.3</ele>
        <time>2019-08-16T14:15:18Z</time>
      </trkpt>
      <trkpt lat="47.50682" lon="6.80136">
        <ele>317.3</ele>
        <time>2019-08-16T14:15:20Z</time>
      </trkpt>
      <trkpt lat="47.50681" lon="6.8014">
        <ele>317.3</ele>
        <time>2019-08-16T14:15:22Z</time>
      </trkpt>
      <trkpt lat="47.50681" lon="6.80143">
        <ele>317.3</ele>
        <time>2019-08-16T14:15:24Z</time>
      </trkpt>
      <trkpt lat="47.50679" lon="6.80148">
        <ele>317.3</ele>
        <time>2019-08-16T14:15:27Z</time>
      </trkpt>
      <trkpt lat="47.50678" lon="6.80153">
        <ele>317.2</ele>
        <time>2019-08-16T14:15:30Z</time>
      </trkpt>
      <trkpt lat="47.50677" lon="6.80157">
        <ele>316.4</ele>
        <time>2019-08-16T14:15:33Z</time>
      </trkpt>
      <trkpt lat="47.50674" lon="6.80156">
        <ele>316</ele>
        <time>2019-08-16T14:15:38Z</time>
      </trkpt>
      <trkpt lat="47.50672" lon="6.80159">
        <ele>315.6</ele>
        <time>2019-08-16T14:15:41Z</time>
      </trkpt>
      <trkpt lat="47.50669" lon="6.8016">
        <ele>315.3</ele>
        <time>2019-08-16T14:15:43Z</time>
      </trkpt>
      <trkpt lat="47.50665" lon="6.80161">
        <ele>314.9</ele>
        <time>2019-08-16T14:15:45Z</time>
      </trkpt>
      <trkpt lat="47.5066" lon="6.80164">
        <ele>314.2</ele>
        <time>2019-08-16T14:15:47Z</time>
      </trkpt>
      <trkpt lat="47.50657" lon="6.80166">
        <ele>313.8</ele>
        <time>2019-08-16T14:15:48Z</time>
      </trkpt>
      <trkpt lat="47.50654" lon="6.80168">
        <ele>313.4</ele>
        <time>2019-08-16T14:15:49Z</time>
      </trkpt>
      <trkpt lat="47.50651" lon="6.80169">
        <ele>313</ele>
        <time>2019-08-16T14:15:50Z</time>
      </trkpt>
      <trkpt lat="47.50648" lon="6.8017">
        <ele>312.7</ele>
        <time>2019-08-16T14:15:51Z</time>
      </trkpt>
      <trkpt lat="47.50645" lon="6.80171">
        <ele>312.3</ele>
        <time>2019-08-16T14:15:52Z</time>
      </trkpt>
      <trkpt lat="47.50641" lon="6.80173">
        <ele>311.8</ele>
        <time>2019-08-16T14:15:53Z</time>
      </trkpt>
      <trkpt lat="47.50638" lon="6.80176">
        <ele>311.4</ele>
        <time>2019-08-16T14:15:54Z</time>
      </trkpt>
      <trkpt lat="47.50634" lon="6.80177">
        <ele>310.7</ele>
        <time>2019-08-16T14:15:55Z</time>
      </trkpt>
      <trkpt lat="47.50631" lon="6.80179">
        <ele>311.4</ele>
        <time>2019-08-16T14:15:57Z</time>
      </trkpt>
      <trkpt lat="47.50626" lon="6.80181">
        <ele>312.3</ele>
        <time>2019-08-16T14:15:59Z</time>
      </trkpt>
      <trkpt lat="47.50621" lon="6.80184">
        <ele>313.4</ele>
        <time>2019-08-16T14:16:01Z</time>
      </trkpt>
      <trkpt lat="47.50618" lon="6.80186">
        <ele>314</ele>
        <time>2019-08-16T14:16:03Z</time>
      </trkpt>
      <trkpt lat="47.50615" lon="6.80189">
        <ele>315.6</ele>
        <time>2019-08-16T14:16:06Z</time>
      </trkpt>
      <trkpt lat="47.50614" lon="6.80196">
        <ele>315.7</ele>
        <time>2019-08-16T14:16:08Z</time>
      </trkpt>
      <trkpt lat="47.50614" lon="6.80203">
        <ele>315.9</ele>
        <time>2019-08-16T14:16:10Z</time>
      </trkpt>
      <trkpt lat="47.50613" lon="6.80211">
        <ele>316</ele>
        <time>2019-08-16T14:16:12Z</time>
      </trkpt>
      <trkpt lat="47.50612" lon="6.80217">
        <ele>316.2</ele>
        <time>2019-08-16T14:16:14Z</time>
      </trkpt>
      <trkpt lat="47.50612" lon="6.80222">
        <ele>316.3</ele>
        <time>2019-08-16T14:16:15Z</time>
      </trkpt>
      <trkpt lat="47.50611" lon="6.80229">
        <ele>316.5</ele>
        <time>2019-08-16T14:16:17Z</time>
      </trkpt>
      <trkpt lat="47.50612" lon="6.80234">
        <ele>316.6</ele>
        <time>2019-08-16T14:16:18Z</time>
      </trkpt>
      <trkpt lat="47.50612" lon="6.80238">
        <ele>316.7</ele>
        <time>2019-08-16T14:16:19Z</time>
      </trkpt>
      <trkpt lat="47.50613" lon="6.80241">
        <ele>316.8</ele>
        <time>2019-08-16T14:16:20Z</time>
      </trkpt>
      <trkpt lat="47.50614" lon="6.80245">
        <ele>316.9</ele>
        <time>2019-08-16T14:16:21Z</time>
      </trkpt>
      <trkpt lat="47.50618" lon="6.8025">
        <ele>317</ele>
        <time>2019-08-16T14:16:23Z</time>
      </trkpt>
      <trkpt lat="47.50621" lon="6.80253">
        <ele>317.2</ele>
        <time>2019-08-16T14:16:24Z</time>
      </trkpt>
      <trkpt lat="47.50624" lon="6.80257">
        <ele>317.2</ele>
        <time>2019-08-16T14:16:25Z</time>
      </trkpt>
      <trkpt lat="47.50626" lon="6.8026">
        <ele>317.2</ele>
        <time>2019-08-16T14:16:26Z</time>
      </trkpt>
      <trkpt lat="47.50628" lon="6.80264">
        <ele>317.3</ele>
        <time>2019-08-16T14:16:27Z</time>
      </trkpt>
      <trkpt lat="47.5063" lon="6.80267">
        <ele>317.3</ele>
        <time>2019-08-16T14:16:28Z</time>
      </trkpt>
      <trkpt lat="47.50633" lon="6.80271">
        <ele>317.3</ele>
        <time>2019-08-16T14:16:29Z</time>
      </trkpt>
      <trkpt lat="47.50634" lon="6.80277">
        <ele>317.3</ele>
        <time>2019-08-16T14:16:30Z</time>
      </trkpt>
      <trkpt lat="47.50633" lon="6.80281">
        <ele>317.2</ele>
        <time>2019-08-16T14:16:36Z</time>
      </trkpt>
      <trkpt lat="47.50624" lon="6.80284">
        <ele>316.9</ele>
        <time>2019-08-16T14:17:01Z</time>
      </trkpt>
      <trkpt lat="47.50622" lon="6.80287">
        <ele>316.3</ele>
        <time>2019-08-16T14:17:03Z</time>
      </trkpt>
      <trkpt lat="47.5062" lon="6.80293">
        <ele>316</ele>
        <time>2019-08-16T14:17:06Z</time>
      </trkpt>
      <trkpt lat="47.50617" lon="6.80293">
        <ele>315.8</ele>
        <time>2019-08-16T14:17:09Z</time>
      </trkpt>
      <trkpt lat="47.50614" lon="6.80292">
        <ele>315.6</ele>
        <time>2019-08-16T14:17:11Z</time>
      </trkpt>
      <trkpt lat="47.50611" lon="6.80293">
        <ele>314.2</ele>
        <time>2019-08-16T14:17:13Z</time>
      </trkpt>
      <trkpt lat="47.50607" lon="6.80296">
        <ele>314.7</ele>
        <time>2019-08-16T14:17:16Z</time>
      </trkpt>
      <trkpt lat="47.50606" lon="6.803">
        <ele>315</ele>
        <time>2019-08-16T14:17:17Z</time>
      </trkpt>
      <trkpt lat="47.50604" lon="6.80304">
        <ele>315.5</ele>
        <time>2019-08-16T14:17:18Z</time>
      </trkpt>
      <trkpt lat="47.506" lon="6.8031">
        <ele>316.4</ele>
        <time>2019-08-16T14:17:20Z</time>
      </trkpt>
      <trkpt lat="47.50597" lon="6.80314">
        <ele>316.4</ele>
        <time>2019-08-16T14:17:22Z</time>
      </trkpt>
      <trkpt lat="47.50593" lon="6.80318">
        <ele>316.4</ele>
        <time>2019-08-16T14:17:24Z</time>
      </trkpt>
      <trkpt lat="47.5059" lon="6.80322">
        <ele>317</ele>
        <time>2019-08-16T14:17:26Z</time>
      </trkpt>
      <trkpt lat="47.50585" lon="6.80324">
        <ele>316.8</ele>
        <time>2019-08-16T14:17:28Z</time>
      </trkpt>
      <trkpt lat="47.50579" lon="6.80329">
        <ele>316.7</ele>
        <time>2019-08-16T14:17:30Z</time>
      </trkpt>
      <trkpt lat="47.50574" lon="6.80333">
        <ele>316.3</ele>
        <time>2019-08-16T14:17:31Z</time>
      </trkpt>
      <trkpt lat="47.5057" lon="6.80339">
        <ele>316.3</ele>
        <time>2019-08-16T14:17:32Z</time>
      </trkpt>
      <trkpt lat="47.50565" lon="6.80345">
        <ele>316.2</ele>
        <time>2019-08-16T14:17:33Z</time>
      </trkpt>
      <trkpt lat="47.50561" lon="6.80348">
        <ele>316.2</ele>
        <time>2019-08-16T14:17:34Z</time>
      </trkpt>
      <trkpt lat="47.50558" lon="6.80351">
        <ele>316.2</ele>
        <time>2019-08-16T14:17:35Z</time>
      </trkpt>
      <trkpt lat="47.50555" lon="6.80353">
        <ele>316.2</ele>
        <time>2019-08-16T14:17:36Z</time>
      </trkpt>
      <trkpt lat="47.50551" lon="6.80353">
        <ele>316.2</ele>
        <time>2019-08-16T14:17:37Z</time>
      </trkpt>
      <trkpt lat="47.50548" lon="6.80356">
        <ele>316.2</ele>
        <time>2019-08-16T14:17:38Z</time>
      </trkpt>
      <trkpt lat="47.50545" lon="6.80359">
        <ele>316.2</ele>
        <time>2019-08-16T14:17:39Z</time>
      </trkpt>
      <trkpt lat="47.50543" lon="6.80362">
        <ele>316.2</ele>
        <time>2019-08-16T14:17:40Z</time>
      </trkpt>
      <trkpt lat="47.50541" lon="6.80365">
        <ele>316.2</ele>
        <time>2019-08-16T14:17:41Z</time>
      </trkpt>
      <trkpt lat="47.50539" lon="6.8037">
        <ele>316.2</ele>
        <time>2019-08-16T14:17:43Z</time>
      </trkpt>
      <trkpt lat="47.50535" lon="6.80374">
        <ele>316.2</ele>
        <time>2019-08-16T14:17:45Z</time>
      </trkpt>
      <trkpt lat="47.50531" lon="6.80379">
        <ele>316.2</ele>
        <time>2019-08-16T14:17:47Z</time>
      </trkpt>
      <trkpt lat="47.50528" lon="6.80382">
        <ele>316.2</ele>
        <time>2019-08-16T14:17:49Z</time>
      </trkpt>
      <trkpt lat="47.50526" lon="6.80385">
        <ele>316.2</ele>
        <time>2019-08-16T14:17:51Z</time>
      </trkpt>
      <trkpt lat="47.50524" lon="6.80391">
        <ele>316</ele>
        <time>2019-08-16T14:17:55Z</time>
      </trkpt>
      <trkpt lat="47.50523" lon="6.80395">
        <ele>315.9</ele>
        <time>2019-08-16T14:17:56Z</time>
      </trkpt>
      <trkpt lat="47.5052" lon="6.80401">
        <ele>315.9</ele>
        <time>2019-08-16T14:17:58Z</time>
      </trkpt>
      <trkpt lat="47.50517" lon="6.80402">
        <ele>315.9</ele>
        <time>2019-08-16T14:17:59Z</time>
      </trkpt>
      <trkpt lat="47.50514" lon="6.80403">
        <ele>315.8</ele>
        <time>2019-08-16T14:18:01Z</time>
      </trkpt>
      <trkpt lat="47.50511" lon="6.804">
        <ele>315.8</ele>
        <time>2019-08-16T14:18:04Z</time>
      </trkpt>
      <trkpt lat="47.5051" lon="6.80395">
        <ele>315.8</ele>
        <time>2019-08-16T14:18:07Z</time>
      </trkpt>
      <trkpt lat="47.50509" lon="6.8039">
        <ele>315.7</ele>
        <time>2019-08-16T14:18:09Z</time>
      </trkpt>
      <trkpt lat="47.5051" lon="6.80387">
        <ele>315.7</ele>
        <time>2019-08-16T14:18:10Z</time>
      </trkpt>
      <trkpt lat="47.50509" lon="6.8038">
        <ele>315.7</ele>
        <time>2019-08-16T14:18:12Z</time>
      </trkpt>
      <trkpt lat="47.50506" lon="6.8038">
        <ele>315.8</ele>
        <time>2019-08-16T14:18:15Z</time>
      </trkpt>
      <trkpt lat="47.50505" lon="6.80386">
        <ele>315.8</ele>
        <time>2019-08-16T14:18:17Z</time>
      </trkpt>
      <trkpt lat="47.50505" lon="6.80393">
        <ele>315.9</ele>
        <time>2019-08-16T14:18:19Z</time>
      </trkpt>
      <trkpt lat="47.50505" lon="6.80401">
        <ele>316</ele>
        <time>2019-08-16T14:18:21Z</time>
      </trkpt>
      <trkpt lat="47.50504" lon="6.80406">
        <ele>316</ele>
        <time>2019-08-16T14:18:23Z</time>
      </trkpt>
      <trkpt lat="47.50503" lon="6.8041">
        <ele>316</ele>
        <time>2019-08-16T14:18:25Z</time>
      </trkpt>
      <trkpt lat="47.50504" lon="6.80414">
        <ele>315.9</ele>
        <time>2019-08-16T14:18:27Z</time>
      </trkpt>
      <trkpt lat="47.50506" lon="6.80411">
        <ele>315.9</ele>
        <time>2019-08-16T14:18:31Z</time>
      </trkpt>
      <trkpt lat="47.50507" lon="6.80407">
        <ele>315.9</ele>
        <time>2019-08-16T14:18:32Z</time>
      </trkpt>
      <trkpt lat="47.50507" lon="6.80399">
        <ele>315.8</ele>
        <time>2019-08-16T14:18:34Z</time>
      </trkpt>
      <trkpt lat="47.50507" lon="6.80395">
        <ele>315.8</ele>
        <time>2019-08-16T14:18:35Z</time>
      </trkpt>
      <trkpt lat="47.50509" lon="6.80389">
        <ele>315.8</ele>
        <time>2019-08-16T14:18:37Z</time>
      </trkpt>
      <trkpt lat="47.50511" lon="6.80383">
        <ele>315.7</ele>
        <time>2019-08-16T14:18:39Z</time>
      </trkpt>
      <trkpt lat="47.50511" lon="6.80378">
        <ele>315.7</ele>
        <time>2019-08-16T14:18:41Z</time>
      </trkpt>
      <trkpt lat="47.50512" lon="6.80372">
        <ele>315.6</ele>
        <time>2019-08-16T14:18:43Z</time>
      </trkpt>
      <trkpt lat="47.50513" lon="6.80365">
        <ele>315.6</ele>
        <time>2019-08-16T14:18:45Z</time>
      </trkpt>
      <trkpt lat="47.50513" lon="6.80358">
        <ele>315.5</ele>
        <time>2019-08-16T14:18:47Z</time>
      </trkpt>
      <trkpt lat="47.50512" lon="6.80353">
        <ele>315.5</ele>
        <time>2019-08-16T14:18:48Z</time>
      </trkpt>
      <trkpt lat="47.50512" lon="6.80349">
        <ele>315.5</ele>
        <time>2019-08-16T14:18:49Z</time>
      </trkpt>
      <trkpt lat="47.50512" lon="6.80344">
        <ele>315.5</ele>
        <time>2019-08-16T14:18:50Z</time>
      </trkpt>
      <trkpt lat="47.50512" lon="6.8034">
        <ele>315.5</ele>
        <time>2019-08-16T14:18:51Z</time>
      </trkpt>
      <trkpt lat="47.5051" lon="6.80335">
        <ele>315.5</ele>
        <time>2019-08-16T14:18:52Z</time>
      </trkpt>
      <trkpt lat="47.50509" lon="6.80331">
        <ele>315.5</ele>
        <time>2019-08-16T14:18:53Z</time>
      </trkpt>
      <trkpt lat="47.50509" lon="6.80327">
        <ele>315.5</ele>
        <time>2019-08-16T14:18:54Z</time>
      </trkpt>
      <trkpt lat="47.50508" lon="6.80322">
        <ele>315.6</ele>
        <time>2019-08-16T14:18:55Z</time>
      </trkpt>
      <trkpt lat="47.50507" lon="6.80317">
        <ele>315.6</ele>
        <time>2019-08-16T14:18:56Z</time>
      </trkpt>
      <trkpt lat="47.50508" lon="6.80313">
        <ele>315.6</ele>
        <time>2019-08-16T14:18:57Z</time>
      </trkpt>
      <trkpt lat="47.50508" lon="6.80308">
        <ele>315.6</ele>
        <time>2019-08-16T14:18:58Z</time>
      </trkpt>
      <trkpt lat="47.50508" lon="6.80303">
        <ele>315.6</ele>
        <time>2019-08-16T14:18:59Z</time>
      </trkpt>
      <trkpt lat="47.50508" lon="6.80299">
        <ele>315.7</ele>
        <time>2019-08-16T14:19:00Z</time>
      </trkpt>
      <trkpt lat="47.50507" lon="6.80295">
        <ele>315.7</ele>
        <time>2019-08-16T14:19:01Z</time>
      </trkpt>
      <trkpt lat="47.50507" lon="6.80291">
        <ele>315.7</ele>
        <time>2019-08-16T14:19:02Z</time>
      </trkpt>
      <trkpt lat="47.50507" lon="6.80286">
        <ele>315.7</ele>
        <time>2019-08-16T14:19:03Z</time>
      </trkpt>
      <trkpt lat="47.50508" lon="6.80282">
        <ele>315.7</ele>
        <time>2019-08-16T14:19:04Z</time>
      </trkpt>
      <trkpt lat="47.50508" lon="6.80277">
        <ele>315.7</ele>
        <time>2019-08-16T14:19:05Z</time>
      </trkpt>
      <trkpt lat="47.50508" lon="6.80272">
        <ele>315.7</ele>
        <time>2019-08-16T14:19:06Z</time>
      </trkpt>
      <trkpt lat="47.50508" lon="6.80267">
        <ele>315.8</ele>
        <time>2019-08-16T14:19:07Z</time>
      </trkpt>
      <trkpt lat="47.50508" lon="6.80262">
        <ele>315.8</ele>
        <time>2019-08-16T14:19:08Z</time>
      </trkpt>
      <trkpt lat="47.50508" lon="6.80257">
        <ele>315.8</ele>
        <time>2019-08-16T14:19:09Z</time>
      </trkpt>
      <trkpt lat="47.50508" lon="6.80252">
        <ele>315.8</ele>
        <time>2019-08-16T14:19:10Z</time>
      </trkpt>
      <trkpt lat="47.50508" lon="6.80248">
        <ele>315.8</ele>
        <time>2019-08-16T14:19:11Z</time>
      </trkpt>
      <trkpt lat="47.50506" lon="6.80241">
        <ele>315.8</ele>
        <time>2019-08-16T14:19:13Z</time>
      </trkpt>
      <trkpt lat="47.50506" lon="6.80236">
        <ele>315.8</ele>
        <time>2019-08-16T14:19:14Z</time>
      </trkpt>
      <trkpt lat="47.50507" lon="6.80231">
        <ele>315.8</ele>
        <time>2019-08-16T14:19:15Z</time>
      </trkpt>
      <trkpt lat="47.50507" lon="6.80226">
        <ele>315.8</ele>
        <time>2019-08-16T14:19:16Z</time>
      </trkpt>
      <trkpt lat="47.50508" lon="6.80221">
        <ele>315.9</ele>
        <time>2019-08-16T14:19:17Z</time>
      </trkpt>
      <trkpt lat="47.50508" lon="6.80216">
        <ele>315.9</ele>
        <time>2019-08-16T14:19:18Z</time>
      </trkpt>
      <trkpt lat="47.50509" lon="6.80212">
        <ele>315.9</ele>
        <time>2019-08-16T14:19:19Z</time>
      </trkpt>
      <trkpt lat="47.50509" lon="6.80207">
        <ele>315.9</ele>
        <time>2019-08-16T14:19:20Z</time>
      </trkpt>
      <trkpt lat="47.5051" lon="6.80201">
        <ele>315.9</ele>
        <time>2019-08-16T14:19:21Z</time>
      </trkpt>
      <trkpt lat="47.5051" lon="6.80195">
        <ele>315.9</ele>
        <time>2019-08-16T14:19:22Z</time>
      </trkpt>
      <trkpt lat="47.5051" lon="6.80189">
        <ele>315.9</ele>
        <time>2019-08-16T14:19:23Z</time>
      </trkpt>
      <trkpt lat="47.5051" lon="6.80183">
        <ele>315.9</ele>
        <time>2019-08-16T14:19:24Z</time>
      </trkpt>
      <trkpt lat="47.5051" lon="6.80178">
        <ele>315.9</ele>
        <time>2019-08-16T14:19:25Z</time>
      </trkpt>
      <trkpt lat="47.50511" lon="6.80172">
        <ele>315.9</ele>
        <time>2019-08-16T14:19:26Z</time>
      </trkpt>
      <trkpt lat="47.50511" lon="6.80167">
        <ele>315.9</ele>
        <time>2019-08-16T14:19:27Z</time>
      </trkpt>
      <trkpt lat="47.50511" lon="6.80162">
        <ele>315.9</ele>
        <time>2019-08-16T14:19:28Z</time>
      </trkpt>
      <trkpt lat="47.5051" lon="6.80158">
        <ele>315.9</ele>
        <time>2019-08-16T14:19:29Z</time>
      </trkpt>
      <trkpt lat="47.50511" lon="6.80152">
        <ele>315.9</ele>
        <time>2019-08-16T14:19:30Z</time>
      </trkpt>
      <trkpt lat="47.50511" lon="6.80146">
        <ele>315.9</ele>
        <time>2019-08-16T14:19:31Z</time>
      </trkpt>
      <trkpt lat="47.50512" lon="6.80141">
        <ele>315.8</ele>
        <time>2019-08-16T14:19:32Z</time>
      </trkpt>
      <trkpt lat="47.50511" lon="6.80136">
        <ele>315.8</ele>
        <time>2019-08-16T14:19:33Z</time>
      </trkpt>
      <trkpt lat="47.50512" lon="6.8013">
        <ele>315.8</ele>
        <time>2019-08-16T14:19:34Z</time>
      </trkpt>
      <trkpt lat="47.50512" lon="6.80125">
        <ele>315.8</ele>
        <time>2019-08-16T14:19:35Z</time>
      </trkpt>
      <trkpt lat="47.50512" lon="6.8012">
        <ele>315.8</ele>
        <time>2019-08-16T14:19:36Z</time>
      </trkpt>
      <trkpt lat="47.50511" lon="6.80115">
        <ele>315.8</ele>
        <time>2019-08-16T14:19:37Z</time>
      </trkpt>
      <trkpt lat="47.50511" lon="6.80111">
        <ele>315.7</ele>
        <time>2019-08-16T14:19:38Z</time>
      </trkpt>
      <trkpt lat="47.50511" lon="6.80105">
        <ele>315.7</ele>
        <time>2019-08-16T14:19:39Z</time>
      </trkpt>
      <trkpt lat="47.50511" lon="6.80099">
        <ele>315.7</ele>
        <time>2019-08-16T14:19:40Z</time>
      </trkpt>
      <trkpt lat="47.5051" lon="6.80094">
        <ele>315.7</ele>
        <time>2019-08-16T14:19:41Z</time>
      </trkpt>
      <trkpt lat="47.50511" lon="6.80088">
        <ele>315.7</ele>
        <time>2019-08-16T14:19:42Z</time>
      </trkpt>
      <trkpt lat="47.50512" lon="6.80082">
        <ele>315.7</ele>
        <time>2019-08-16T14:19:43Z</time>
      </trkpt>
      <trkpt lat="47.50511" lon="6.80075">
        <ele>315.7</ele>
        <time>2019-08-16T14:19:44Z</time>
      </trkpt>
      <trkpt lat="47.50511" lon="6.80069">
        <ele>315.7</ele>
        <time>2019-08-16T14:19:45Z</time>
      </trkpt>
      <trkpt lat="47.5051" lon="6.80063">
        <ele>315.7</ele>
        <time>2019-08-16T14:19:46Z</time>
      </trkpt>
      <trkpt lat="47.5051" lon="6.80058">
        <ele>315.7</ele>
        <time>2019-08-16T14:19:47Z</time>
      </trkpt>
      <trkpt lat="47.5051" lon="6.80052">
        <ele>315.7</ele>
        <time>2019-08-16T14:19:48Z</time>
      </trkpt>
      <trkpt lat="47.5051" lon="6.80046">
        <ele>315.7</ele>
        <time>2019-08-16T14:19:49Z</time>
      </trkpt>
      <trkpt lat="47.50511" lon="6.8004">
        <ele>315.7</ele>
        <time>2019-08-16T14:19:50Z</time>
      </trkpt>
      <trkpt lat="47.50511" lon="6.80035">
        <ele>315.7</ele>
        <time>2019-08-16T14:19:51Z</time>
      </trkpt>
      <trkpt lat="47.50511" lon="6.8003">
        <ele>315.7</ele>
        <time>2019-08-16T14:19:52Z</time>
      </trkpt>
      <trkpt lat="47.50512" lon="6.80024">
        <ele>315.7</ele>
        <time>2019-08-16T14:19:53Z</time>
      </trkpt>
      <trkpt lat="47.50513" lon="6.80019">
        <ele>315.7</ele>
        <time>2019-08-16T14:19:54Z</time>
      </trkpt>
      <trkpt lat="47.50513" lon="6.80014">
        <ele>315.7</ele>
        <time>2019-08-16T14:19:55Z</time>
      </trkpt>
      <trkpt lat="47.50514" lon="6.80008">
        <ele>315.7</ele>
        <time>2019-08-16T14:19:56Z</time>
      </trkpt>
      <trkpt lat="47.50515" lon="6.80003">
        <ele>315.7</ele>
        <time>2019-08-16T14:19:57Z</time>
      </trkpt>
      <trkpt lat="47.50515" lon="6.79997">
        <ele>315.7</ele>
        <time>2019-08-16T14:19:58Z</time>
      </trkpt>
      <trkpt lat="47.50515" lon="6.79992">
        <ele>315.7</ele>
        <time>2019-08-16T14:19:59Z</time>
      </trkpt>
      <trkpt lat="47.50516" lon="6.79987">
        <ele>315.7</ele>
        <time>2019-08-16T14:20:00Z</time>
      </trkpt>
      <trkpt lat="47.50516" lon="6.79981">
        <ele>315.7</ele>
        <time>2019-08-16T14:20:01Z</time>
      </trkpt>
      <trkpt lat="47.50516" lon="6.79976">
        <ele>315.8</ele>
        <time>2019-08-16T14:20:02Z</time>
      </trkpt>
      <trkpt lat="47.50518" lon="6.79969">
        <ele>315.8</ele>
        <time>2019-08-16T14:20:03Z</time>
      </trkpt>
      <trkpt lat="47.50518" lon="6.79963">
        <ele>315.8</ele>
        <time>2019-08-16T14:20:04Z</time>
      </trkpt>
      <trkpt lat="47.5052" lon="6.79957">
        <ele>315.8</ele>
        <time>2019-08-16T14:20:05Z</time>
      </trkpt>
      <trkpt lat="47.50521" lon="6.7995">
        <ele>315.8</ele>
        <time>2019-08-16T14:20:06Z</time>
      </trkpt>
      <trkpt lat="47.50522" lon="6.79944">
        <ele>315.8</ele>
        <time>2019-08-16T14:20:07Z</time>
      </trkpt>
      <trkpt lat="47.50522" lon="6.79938">
        <ele>315.8</ele>
        <time>2019-08-16T14:20:08Z</time>
      </trkpt>
      <trkpt lat="47.50522" lon="6.79932">
        <ele>315.8</ele>
        <time>2019-08-16T14:20:09Z</time>
      </trkpt>
      <trkpt lat="47.50522" lon="6.79926">
        <ele>315.8</ele>
        <time>2019-08-16T14:20:10Z</time>
      </trkpt>
      <trkpt lat="47.50522" lon="6.7992">
        <ele>315.8</ele>
        <time>2019-08-16T14:20:11Z</time>
      </trkpt>
      <trkpt lat="47.50523" lon="6.79914">
        <ele>315.8</ele>
        <time>2019-08-16T14:20:12Z</time>
      </trkpt>
      <trkpt lat="47.50524" lon="6.79908">
        <ele>315.8</ele>
        <time>2019-08-16T14:20:13Z</time>
      </trkpt>
      <trkpt lat="47.50524" lon="6.79902">
        <ele>315.8</ele>
        <time>2019-08-16T14:20:14Z</time>
      </trkpt>
      <trkpt lat="47.50524" lon="6.79896">
        <ele>315.8</ele>
        <time>2019-08-16T14:20:15Z</time>
      </trkpt>
      <trkpt lat="47.50524" lon="6.7989">
        <ele>315.8</ele>
        <time>2019-08-16T14:20:16Z</time>
      </trkpt>
      <trkpt lat="47.50523" lon="6.79884">
        <ele>315.8</ele>
        <time>2019-08-16T14:20:17Z</time>
      </trkpt>
      <trkpt lat="47.50524" lon="6.79877">
        <ele>315.8</ele>
        <time>2019-08-16T14:20:18Z</time>
      </trkpt>
      <trkpt lat="47.50524" lon="6.79871">
        <ele>315.8</ele>
        <time>2019-08-16T14:20:19Z</time>
      </trkpt>
      <trkpt lat="47.50524" lon="6.79865">
        <ele>315.7</ele>
        <time>2019-08-16T14:20:20Z</time>
      </trkpt>
      <trkpt lat="47.50524" lon="6.79858">
        <ele>315.7</ele>
        <time>2019-08-16T14:20:21Z</time>
      </trkpt>
      <trkpt lat="47.50524" lon="6.79851">
        <ele>315.7</ele>
        <time>2019-08-16T14:20:22Z</time>
      </trkpt>
      <trkpt lat="47.50525" lon="6.79843">
        <ele>315.7</ele>
        <time>2019-08-16T14:20:23Z</time>
      </trkpt>
      <trkpt lat="47.50526" lon="6.79835">
        <ele>315.6</ele>
        <time>2019-08-16T14:20:24Z</time>
      </trkpt>
      <trkpt lat="47.50528" lon="6.79824">
        <ele>315.6</ele>
        <time>2019-08-16T14:20:25Z</time>
      </trkpt>
      <trkpt lat="47.50528" lon="6.79817">
        <ele>315.6</ele>
        <time>2019-08-16T14:20:26Z</time>
      </trkpt>
      <trkpt lat="47.50528" lon="6.7981">
        <ele>315.5</ele>
        <time>2019-08-16T14:20:27Z</time>
      </trkpt>
      <trkpt lat="47.50526" lon="6.79803">
        <ele>315.5</ele>
        <time>2019-08-16T14:20:28Z</time>
      </trkpt>
      <trkpt lat="47.50525" lon="6.79795">
        <ele>315.4</ele>
        <time>2019-08-16T14:20:29Z</time>
      </trkpt>
      <trkpt lat="47.50525" lon="6.79788">
        <ele>315.4</ele>
        <time>2019-08-16T14:20:30Z</time>
      </trkpt>
      <trkpt lat="47.50525" lon="6.7978">
        <ele>315.3</ele>
        <time>2019-08-16T14:20:31Z</time>
      </trkpt>
      <trkpt lat="47.50525" lon="6.79772">
        <ele>315.3</ele>
        <time>2019-08-16T14:20:32Z</time>
      </trkpt>
      <trkpt lat="47.50525" lon="6.79764">
        <ele>315.2</ele>
        <time>2019-08-16T14:20:33Z</time>
      </trkpt>
      <trkpt lat="47.50524" lon="6.79758">
        <ele>315.2</ele>
        <time>2019-08-16T14:20:34Z</time>
      </trkpt>
      <trkpt lat="47.50524" lon="6.7975">
        <ele>315.1</ele>
        <time>2019-08-16T14:20:35Z</time>
      </trkpt>
      <trkpt lat="47.50524" lon="6.79742">
        <ele>315</ele>
        <time>2019-08-16T14:20:36Z</time>
      </trkpt>
      <trkpt lat="47.50523" lon="6.79735">
        <ele>315</ele>
        <time>2019-08-16T14:20:37Z</time>
      </trkpt>
      <trkpt lat="47.50522" lon="6.79728">
        <ele>314.9</ele>
        <time>2019-08-16T14:20:38Z</time>
      </trkpt>
      <trkpt lat="47.50522" lon="6.79721">
        <ele>314.9</ele>
        <time>2019-08-16T14:20:39Z</time>
      </trkpt>
      <trkpt lat="47.5052" lon="6.79714">
        <ele>314.8</ele>
        <time>2019-08-16T14:20:40Z</time>
      </trkpt>
      <trkpt lat="47.50519" lon="6.79707">
        <ele>314.8</ele>
        <time>2019-08-16T14:20:41Z</time>
      </trkpt>
      <trkpt lat="47.50518" lon="6.79699">
        <ele>314.7</ele>
        <time>2019-08-16T14:20:42Z</time>
      </trkpt>
      <trkpt lat="47.50517" lon="6.79692">
        <ele>314.7</ele>
        <time>2019-08-16T14:20:43Z</time>
      </trkpt>
      <trkpt lat="47.50516" lon="6.79685">
        <ele>314.7</ele>
        <time>2019-08-16T14:20:44Z</time>
      </trkpt>
      <trkpt lat="47.50514" lon="6.79679">
        <ele>314.6</ele>
        <time>2019-08-16T14:20:45Z</time>
      </trkpt>
      <trkpt lat="47.50513" lon="6.79672">
        <ele>314.6</ele>
        <time>2019-08-16T14:20:46Z</time>
      </trkpt>
      <trkpt lat="47.50512" lon="6.79665">
        <ele>314.6</ele>
        <time>2019-08-16T14:20:47Z</time>
      </trkpt>
      <trkpt lat="47.50511" lon="6.79659">
        <ele>314.6</ele>
        <time>2019-08-16T14:20:48Z</time>
      </trkpt>
      <trkpt lat="47.5051" lon="6.79652">
        <ele>314.6</ele>
        <time>2019-08-16T14:20:49Z</time>
      </trkpt>
      <trkpt lat="47.50509" lon="6.79646">
        <ele>314.6</ele>
        <time>2019-08-16T14:20:50Z</time>
      </trkpt>
      <trkpt lat="47.50508" lon="6.79639">
        <ele>314.6</ele>
        <time>2019-08-16T14:20:51Z</time>
      </trkpt>
      <trkpt lat="47.50507" lon="6.79633">
        <ele>314.6</ele>
        <time>2019-08-16T14:20:52Z</time>
      </trkpt>
      <trkpt lat="47.50506" lon="6.79627">
        <ele>314.6</ele>
        <time>2019-08-16T14:20:53Z</time>
      </trkpt>
      <trkpt lat="47.50505" lon="6.79622">
        <ele>314.6</ele>
        <time>2019-08-16T14:20:54Z</time>
      </trkpt>
      <trkpt lat="47.50505" lon="6.79616">
        <ele>314.6</ele>
        <time>2019-08-16T14:20:55Z</time>
      </trkpt>
      <trkpt lat="47.50504" lon="6.7961">
        <ele>314.6</ele>
        <time>2019-08-16T14:20:56Z</time>
      </trkpt>
      <trkpt lat="47.50504" lon="6.79604">
        <ele>314.6</ele>
        <time>2019-08-16T14:20:57Z</time>
      </trkpt>
      <trkpt lat="47.50503" lon="6.79597">
        <ele>314.7</ele>
        <time>2019-08-16T14:20:58Z</time>
      </trkpt>
      <trkpt lat="47.50502" lon="6.79591">
        <ele>314.7</ele>
        <time>2019-08-16T14:20:59Z</time>
      </trkpt>
      <trkpt lat="47.505" lon="6.79585">
        <ele>314.7</ele>
        <time>2019-08-16T14:21:00Z</time>
      </trkpt>
      <trkpt lat="47.50499" lon="6.79579">
        <ele>314.7</ele>
        <time>2019-08-16T14:21:01Z</time>
      </trkpt>
      <trkpt lat="47.50498" lon="6.79573">
        <ele>314.7</ele>
        <time>2019-08-16T14:21:02Z</time>
      </trkpt>
      <trkpt lat="47.50496" lon="6.79566">
        <ele>314.8</ele>
        <time>2019-08-16T14:21:03Z</time>
      </trkpt>
      <trkpt lat="47.50495" lon="6.79561">
        <ele>314.8</ele>
        <time>2019-08-16T14:21:04Z</time>
      </trkpt>
      <trkpt lat="47.50493" lon="6.79555">
        <ele>314.8</ele>
        <time>2019-08-16T14:21:05Z</time>
      </trkpt>
      <trkpt lat="47.50492" lon="6.79549">
        <ele>314.8</ele>
        <time>2019-08-16T14:21:06Z</time>
      </trkpt>
      <trkpt lat="47.50492" lon="6.79542">
        <ele>314.8</ele>
        <time>2019-08-16T14:21:07Z</time>
      </trkpt>
      <trkpt lat="47.50492" lon="6.79537">
        <ele>314.8</ele>
        <time>2019-08-16T14:21:08Z</time>
      </trkpt>
      <trkpt lat="47.50491" lon="6.79531">
        <ele>314.8</ele>
        <time>2019-08-16T14:21:09Z</time>
      </trkpt>
      <trkpt lat="47.5049" lon="6.79525">
        <ele>314.8</ele>
        <time>2019-08-16T14:21:10Z</time>
      </trkpt>
      <trkpt lat="47.50488" lon="6.79521">
        <ele>314.8</ele>
        <time>2019-08-16T14:21:11Z</time>
      </trkpt>
      <trkpt lat="47.50486" lon="6.79516">
        <ele>314.8</ele>
        <time>2019-08-16T14:21:12Z</time>
      </trkpt>
      <trkpt lat="47.50485" lon="6.79511">
        <ele>314.8</ele>
        <time>2019-08-16T14:21:13Z</time>
      </trkpt>
      <trkpt lat="47.50484" lon="6.79508">
        <ele>314.8</ele>
        <time>2019-08-16T14:21:14Z</time>
      </trkpt>
      <trkpt lat="47.50483" lon="6.79498">
        <ele>314.8</ele>
        <time>2019-08-16T14:21:15Z</time>
      </trkpt>
      <trkpt lat="47.50484" lon="6.79493">
        <ele>314.8</ele>
        <time>2019-08-16T14:21:16Z</time>
      </trkpt>
      <trkpt lat="47.50481" lon="6.79486">
        <ele>314.8</ele>
        <time>2019-08-16T14:21:17Z</time>
      </trkpt>
      <trkpt lat="47.50482" lon="6.79478">
        <ele>314.8</ele>
        <time>2019-08-16T14:21:18Z</time>
      </trkpt>
      <trkpt lat="47.50481" lon="6.79472">
        <ele>314.8</ele>
        <time>2019-08-16T14:21:19Z</time>
      </trkpt>
      <trkpt lat="47.5048" lon="6.79465">
        <ele>314.8</ele>
        <time>2019-08-16T14:21:20Z</time>
      </trkpt>
      <trkpt lat="47.50481" lon="6.79459">
        <ele>314.8</ele>
        <time>2019-08-16T14:21:21Z</time>
      </trkpt>
      <trkpt lat="47.50479" lon="6.79455">
        <ele>314.8</ele>
        <time>2019-08-16T14:21:22Z</time>
      </trkpt>
      <trkpt lat="47.50478" lon="6.7945">
        <ele>314.8</ele>
        <time>2019-08-16T14:21:23Z</time>
      </trkpt>
      <trkpt lat="47.50478" lon="6.79445">
        <ele>314.8</ele>
        <time>2019-08-16T14:21:24Z</time>
      </trkpt>
      <trkpt lat="47.50478" lon="6.79439">
        <ele>314.8</ele>
        <time>2019-08-16T14:21:25Z</time>
      </trkpt>
      <trkpt lat="47.50478" lon="6.79433">
        <ele>314.8</ele>
        <time>2019-08-16T14:21:26Z</time>
      </trkpt>
      <trkpt lat="47.50478" lon="6.79428">
        <ele>314.8</ele>
        <time>2019-08-16T14:21:27Z</time>
      </trkpt>
      <trkpt lat="47.50479" lon="6.79421">
        <ele>314.8</ele>
        <time>2019-08-16T14:21:28Z</time>
      </trkpt>
      <trkpt lat="47.50479" lon="6.79415">
        <ele>314.9</ele>
        <time>2019-08-16T14:21:29Z</time>
      </trkpt>
      <trkpt lat="47.50478" lon="6.79408">
        <ele>314.9</ele>
        <time>2019-08-16T14:21:30Z</time>
      </trkpt>
      <trkpt lat="47.50478" lon="6.79401">
        <ele>315</ele>
        <time>2019-08-16T14:21:31Z</time>
      </trkpt>
      <trkpt lat="47.50477" lon="6.79395">
        <ele>315</ele>
        <time>2019-08-16T14:21:32Z</time>
      </trkpt>
      <trkpt lat="47.50477" lon="6.79388">
        <ele>315.1</ele>
        <time>2019-08-16T14:21:33Z</time>
      </trkpt>
      <trkpt lat="47.50476" lon="6.79382">
        <ele>315.1</ele>
        <time>2019-08-16T14:21:34Z</time>
      </trkpt>
      <trkpt lat="47.50475" lon="6.79376">
        <ele>315.2</ele>
        <time>2019-08-16T14:21:35Z</time>
      </trkpt>
      <trkpt lat="47.50474" lon="6.7937">
        <ele>315.2</ele>
        <time>2019-08-16T14:21:36Z</time>
      </trkpt>
      <trkpt lat="47.50473" lon="6.79365">
        <ele>315.3</ele>
        <time>2019-08-16T14:21:37Z</time>
      </trkpt>
      <trkpt lat="47.50471" lon="6.7936">
        <ele>315.3</ele>
        <time>2019-08-16T14:21:38Z</time>
      </trkpt>
      <trkpt lat="47.5047" lon="6.79355">
        <ele>315.4</ele>
        <time>2019-08-16T14:21:39Z</time>
      </trkpt>
      <trkpt lat="47.50468" lon="6.7935">
        <ele>315.4</ele>
        <time>2019-08-16T14:21:40Z</time>
      </trkpt>
      <trkpt lat="47.50467" lon="6.79346">
        <ele>315.4</ele>
        <time>2019-08-16T14:21:41Z</time>
      </trkpt>
      <trkpt lat="47.50467" lon="6.79341">
        <ele>315.5</ele>
        <time>2019-08-16T14:21:42Z</time>
      </trkpt>
      <trkpt lat="47.50466" lon="6.79336">
        <ele>315.5</ele>
        <time>2019-08-16T14:21:43Z</time>
      </trkpt>
      <trkpt lat="47.50465" lon="6.79332">
        <ele>315.5</ele>
        <time>2019-08-16T14:21:44Z</time>
      </trkpt>
      <trkpt lat="47.50464" lon="6.79327">
        <ele>315.5</ele>
        <time>2019-08-16T14:21:45Z</time>
      </trkpt>
      <trkpt lat="47.50463" lon="6.79322">
        <ele>315.6</ele>
        <time>2019-08-16T14:21:46Z</time>
      </trkpt>
      <trkpt lat="47.50462" lon="6.79316">
        <ele>315.6</ele>
        <time>2019-08-16T14:21:47Z</time>
      </trkpt>
      <trkpt lat="47.50462" lon="6.79312">
        <ele>315.6</ele>
        <time>2019-08-16T14:21:48Z</time>
      </trkpt>
      <trkpt lat="47.50461" lon="6.79306">
        <ele>315.6</ele>
        <time>2019-08-16T14:21:49Z</time>
      </trkpt>
      <trkpt lat="47.50461" lon="6.79301">
        <ele>315.7</ele>
        <time>2019-08-16T14:21:50Z</time>
      </trkpt>
      <trkpt lat="47.5046" lon="6.79295">
        <ele>315.7</ele>
        <time>2019-08-16T14:21:51Z</time>
      </trkpt>
      <trkpt lat="47.50459" lon="6.7929">
        <ele>315.7</ele>
        <time>2019-08-16T14:21:52Z</time>
      </trkpt>
      <trkpt lat="47.50458" lon="6.79285">
        <ele>315.7</ele>
        <time>2019-08-16T14:21:53Z</time>
      </trkpt>
      <trkpt lat="47.50458" lon="6.7928">
        <ele>315.7</ele>
        <time>2019-08-16T14:21:54Z</time>
      </trkpt>
      <trkpt lat="47.50457" lon="6.79275">
        <ele>315.7</ele>
        <time>2019-08-16T14:21:55Z</time>
      </trkpt>
      <trkpt lat="47.50457" lon="6.79271">
        <ele>315.7</ele>
        <time>2019-08-16T14:21:56Z</time>
      </trkpt>
      <trkpt lat="47.50457" lon="6.79267">
        <ele>315.7</ele>
        <time>2019-08-16T14:21:57Z</time>
      </trkpt>
      <trkpt lat="47.50457" lon="6.79262">
        <ele>315.7</ele>
        <time>2019-08-16T14:21:58Z</time>
      </trkpt>
      <trkpt lat="47.50456" lon="6.79258">
        <ele>315.7</ele>
        <time>2019-08-16T14:21:59Z</time>
      </trkpt>
      <trkpt lat="47.50455" lon="6.79253">
        <ele>315.6</ele>
        <time>2019-08-16T14:22:00Z</time>
      </trkpt>
      <trkpt lat="47.50455" lon="6.79249">
        <ele>315.6</ele>
        <time>2019-08-16T14:22:01Z</time>
      </trkpt>
      <trkpt lat="47.50454" lon="6.79244">
        <ele>315.6</ele>
        <time>2019-08-16T14:22:02Z</time>
      </trkpt>
      <trkpt lat="47.50452" lon="6.79239">
        <ele>315.5</ele>
        <time>2019-08-16T14:22:03Z</time>
      </trkpt>
      <trkpt lat="47.50451" lon="6.79232">
        <ele>315.5</ele>
        <time>2019-08-16T14:22:04Z</time>
      </trkpt>
      <trkpt lat="47.50451" lon="6.79226">
        <ele>315.4</ele>
        <time>2019-08-16T14:22:05Z</time>
      </trkpt>
      <trkpt lat="47.5045" lon="6.7922">
        <ele>315.3</ele>
        <time>2019-08-16T14:22:06Z</time>
      </trkpt>
      <trkpt lat="47.5045" lon="6.79215">
        <ele>315.2</ele>
        <time>2019-08-16T14:22:07Z</time>
      </trkpt>
      <trkpt lat="47.5045" lon="6.79209">
        <ele>315.1</ele>
        <time>2019-08-16T14:22:08Z</time>
      </trkpt>
      <trkpt lat="47.5045" lon="6.79203">
        <ele>315.1</ele>
        <time>2019-08-16T14:22:09Z</time>
      </trkpt>
      <trkpt lat="47.5045" lon="6.79197">
        <ele>315.1</ele>
        <time>2019-08-16T14:22:10Z</time>
      </trkpt>
      <trkpt lat="47.5045" lon="6.79191">
        <ele>315.1</ele>
        <time>2019-08-16T14:22:11Z</time>
      </trkpt>
      <trkpt lat="47.5045" lon="6.79185">
        <ele>315</ele>
        <time>2019-08-16T14:22:12Z</time>
      </trkpt>
      <trkpt lat="47.50449" lon="6.79178">
        <ele>315</ele>
        <time>2019-08-16T14:22:13Z</time>
      </trkpt>
      <trkpt lat="47.50448" lon="6.79171">
        <ele>315</ele>
        <time>2019-08-16T14:22:14Z</time>
      </trkpt>
      <trkpt lat="47.50447" lon="6.79164">
        <ele>315</ele>
        <time>2019-08-16T14:22:15Z</time>
      </trkpt>
      <trkpt lat="47.50446" lon="6.79157">
        <ele>315</ele>
        <time>2019-08-16T14:22:16Z</time>
      </trkpt>
      <trkpt lat="47.50442" lon="6.79154">
        <ele>315</ele>
        <time>2019-08-16T14:22:17Z</time>
      </trkpt>
      <trkpt lat="47.50439" lon="6.79151">
        <ele>315.1</ele>
        <time>2019-08-16T14:22:18Z</time>
      </trkpt>
      <trkpt lat="47.50436" lon="6.79145">
        <ele>315.1</ele>
        <time>2019-08-16T14:22:19Z</time>
      </trkpt>
      <trkpt lat="47.50433" lon="6.7914">
        <ele>315.1</ele>
        <time>2019-08-16T14:22:20Z</time>
      </trkpt>
      <trkpt lat="47.50431" lon="6.79135">
        <ele>315.1</ele>
        <time>2019-08-16T14:22:21Z</time>
      </trkpt>
      <trkpt lat="47.50428" lon="6.79129">
        <ele>315.2</ele>
        <time>2019-08-16T14:22:22Z</time>
      </trkpt>
      <trkpt lat="47.50426" lon="6.79124">
        <ele>315.2</ele>
        <time>2019-08-16T14:22:23Z</time>
      </trkpt>
      <trkpt lat="47.50423" lon="6.79118">
        <ele>315.3</ele>
        <time>2019-08-16T14:22:24Z</time>
      </trkpt>
      <trkpt lat="47.50421" lon="6.79114">
        <ele>315.3</ele>
        <time>2019-08-16T14:22:25Z</time>
      </trkpt>
      <trkpt lat="47.50418" lon="6.79109">
        <ele>315.3</ele>
        <time>2019-08-16T14:22:26Z</time>
      </trkpt>
      <trkpt lat="47.50417" lon="6.79104">
        <ele>315.3</ele>
        <time>2019-08-16T14:22:27Z</time>
      </trkpt>
      <trkpt lat="47.50416" lon="6.79098">
        <ele>315.4</ele>
        <time>2019-08-16T14:22:28Z</time>
      </trkpt>
      <trkpt lat="47.50416" lon="6.79092">
        <ele>315.4</ele>
        <time>2019-08-16T14:22:29Z</time>
      </trkpt>
      <trkpt lat="47.50415" lon="6.79085">
        <ele>315.5</ele>
        <time>2019-08-16T14:22:30Z</time>
      </trkpt>
      <trkpt lat="47.50413" lon="6.7908">
        <ele>315.5</ele>
        <time>2019-08-16T14:22:31Z</time>
      </trkpt>
      <trkpt lat="47.50412" lon="6.79075">
        <ele>315.6</ele>
        <time>2019-08-16T14:22:32Z</time>
      </trkpt>
      <trkpt lat="47.50411" lon="6.79069">
        <ele>315.7</ele>
        <time>2019-08-16T14:22:33Z</time>
      </trkpt>
      <trkpt lat="47.50409" lon="6.79063">
        <ele>315.7</ele>
        <time>2019-08-16T14:22:34Z</time>
      </trkpt>
      <trkpt lat="47.50409" lon="6.79057">
        <ele>315.8</ele>
        <time>2019-08-16T14:22:35Z</time>
      </trkpt>
      <trkpt lat="47.50407" lon="6.79051">
        <ele>316</ele>
        <time>2019-08-16T14:22:36Z</time>
      </trkpt>
      <trkpt lat="47.50406" lon="6.79045">
        <ele>316.1</ele>
        <time>2019-08-16T14:22:37Z</time>
      </trkpt>
      <trkpt lat="47.50405" lon="6.79039">
        <ele>316.3</ele>
        <time>2019-08-16T14:22:38Z</time>
      </trkpt>
      <trkpt lat="47.50403" lon="6.79033">
        <ele>316.5</ele>
        <time>2019-08-16T14:22:39Z</time>
      </trkpt>
      <trkpt lat="47.50402" lon="6.79026">
        <ele>316.6</ele>
        <time>2019-08-16T14:22:40Z</time>
      </trkpt>
      <trkpt lat="47.50401" lon="6.7902">
        <ele>316.7</ele>
        <time>2019-08-16T14:22:41Z</time>
      </trkpt>
      <trkpt lat="47.50399" lon="6.79013">
        <ele>316.8</ele>
        <time>2019-08-16T14:22:42Z</time>
      </trkpt>
      <trkpt lat="47.50398" lon="6.79007">
        <ele>316.9</ele>
        <time>2019-08-16T14:22:43Z</time>
      </trkpt>
      <trkpt lat="47.50398" lon="6.79001">
        <ele>316.9</ele>
        <time>2019-08-16T14:22:44Z</time>
      </trkpt>
      <trkpt lat="47.50397" lon="6.78995">
        <ele>316.9</ele>
        <time>2019-08-16T14:22:45Z</time>
      </trkpt>
      <trkpt lat="47.50396" lon="6.78988">
        <ele>317</ele>
        <time>2019-08-16T14:22:46Z</time>
      </trkpt>
      <trkpt lat="47.50395" lon="6.78982">
        <ele>317</ele>
        <time>2019-08-16T14:22:47Z</time>
      </trkpt>
      <trkpt lat="47.50394" lon="6.78976">
        <ele>317</ele>
        <time>2019-08-16T14:22:48Z</time>
      </trkpt>
      <trkpt lat="47.50393" lon="6.7897">
        <ele>317.1</ele>
        <time>2019-08-16T14:22:49Z</time>
      </trkpt>
      <trkpt lat="47.50392" lon="6.78964">
        <ele>317.1</ele>
        <time>2019-08-16T14:22:50Z</time>
      </trkpt>
      <trkpt lat="47.50391" lon="6.78958">
        <ele>317.1</ele>
        <time>2019-08-16T14:22:51Z</time>
      </trkpt>
      <trkpt lat="47.5039" lon="6.78952">
        <ele>317.2</ele>
        <time>2019-08-16T14:22:52Z</time>
      </trkpt>
      <trkpt lat="47.5039" lon="6.78945">
        <ele>317.2</ele>
        <time>2019-08-16T14:22:53Z</time>
      </trkpt>
      <trkpt lat="47.5039" lon="6.7894">
        <ele>317.2</ele>
        <time>2019-08-16T14:22:54Z</time>
      </trkpt>
      <trkpt lat="47.5039" lon="6.78933">
        <ele>317.3</ele>
        <time>2019-08-16T14:22:55Z</time>
      </trkpt>
      <trkpt lat="47.50391" lon="6.78926">
        <ele>317.4</ele>
        <time>2019-08-16T14:22:56Z</time>
      </trkpt>
      <trkpt lat="47.50391" lon="6.78919">
        <ele>317.5</ele>
        <time>2019-08-16T14:22:57Z</time>
      </trkpt>
      <trkpt lat="47.5039" lon="6.78912">
        <ele>317.5</ele>
        <time>2019-08-16T14:22:58Z</time>
      </trkpt>
      <trkpt lat="47.5039" lon="6.78904">
        <ele>317.7</ele>
        <time>2019-08-16T14:22:59Z</time>
      </trkpt>
      <trkpt lat="47.50391" lon="6.78896">
        <ele>317.9</ele>
        <time>2019-08-16T14:23:00Z</time>
      </trkpt>
      <trkpt lat="47.50391" lon="6.78889">
        <ele>318</ele>
        <time>2019-08-16T14:23:01Z</time>
      </trkpt>
      <trkpt lat="47.50392" lon="6.78882">
        <ele>318.2</ele>
        <time>2019-08-16T14:23:02Z</time>
      </trkpt>
      <trkpt lat="47.50392" lon="6.78876">
        <ele>318.4</ele>
        <time>2019-08-16T14:23:03Z</time>
      </trkpt>
      <trkpt lat="47.50392" lon="6.7887">
        <ele>318.5</ele>
        <time>2019-08-16T14:23:04Z</time>
      </trkpt>
      <trkpt lat="47.50392" lon="6.78864">
        <ele>318.5</ele>
        <time>2019-08-16T14:23:05Z</time>
      </trkpt>
      <trkpt lat="47.50392" lon="6.78858">
        <ele>318.6</ele>
        <time>2019-08-16T14:23:06Z</time>
      </trkpt>
      <trkpt lat="47.50393" lon="6.78852">
        <ele>318.6</ele>
        <time>2019-08-16T14:23:07Z</time>
      </trkpt>
      <trkpt lat="47.50394" lon="6.78845">
        <ele>318.7</ele>
        <time>2019-08-16T14:23:08Z</time>
      </trkpt>
      <trkpt lat="47.50395" lon="6.78839">
        <ele>318.7</ele>
        <time>2019-08-16T14:23:09Z</time>
      </trkpt>
      <trkpt lat="47.50395" lon="6.78833">
        <ele>318.7</ele>
        <time>2019-08-16T14:23:10Z</time>
      </trkpt>
      <trkpt lat="47.50396" lon="6.78826">
        <ele>318.7</ele>
        <time>2019-08-16T14:23:11Z</time>
      </trkpt>
      <trkpt lat="47.50396" lon="6.78819">
        <ele>318.7</ele>
        <time>2019-08-16T14:23:12Z</time>
      </trkpt>
      <trkpt lat="47.50395" lon="6.78811">
        <ele>318.7</ele>
        <time>2019-08-16T14:23:13Z</time>
      </trkpt>
      <trkpt lat="47.50396" lon="6.78803">
        <ele>318.7</ele>
        <time>2019-08-16T14:23:14Z</time>
      </trkpt>
      <trkpt lat="47.50396" lon="6.78795">
        <ele>318.9</ele>
        <time>2019-08-16T14:23:15Z</time>
      </trkpt>
      <trkpt lat="47.50397" lon="6.78786">
        <ele>319.1</ele>
        <time>2019-08-16T14:23:16Z</time>
      </trkpt>
      <trkpt lat="47.50399" lon="6.78778">
        <ele>319.4</ele>
        <time>2019-08-16T14:23:17Z</time>
      </trkpt>
      <trkpt lat="47.50399" lon="6.7877">
        <ele>319.7</ele>
        <time>2019-08-16T14:23:18Z</time>
      </trkpt>
      <trkpt lat="47.50399" lon="6.78763">
        <ele>320</ele>
        <time>2019-08-16T14:23:19Z</time>
      </trkpt>
      <trkpt lat="47.50399" lon="6.78755">
        <ele>320.2</ele>
        <time>2019-08-16T14:23:20Z</time>
      </trkpt>
      <trkpt lat="47.50399" lon="6.78748">
        <ele>320.2</ele>
        <time>2019-08-16T14:23:21Z</time>
      </trkpt>
      <trkpt lat="47.504" lon="6.78742">
        <ele>320.2</ele>
        <time>2019-08-16T14:23:22Z</time>
      </trkpt>
      <trkpt lat="47.50402" lon="6.78737">
        <ele>320.3</ele>
        <time>2019-08-16T14:23:23Z</time>
      </trkpt>
      <trkpt lat="47.50403" lon="6.78731">
        <ele>320.3</ele>
        <time>2019-08-16T14:23:24Z</time>
      </trkpt>
      <trkpt lat="47.50404" lon="6.78725">
        <ele>320.3</ele>
        <time>2019-08-16T14:23:25Z</time>
      </trkpt>
      <trkpt lat="47.50405" lon="6.78719">
        <ele>320.3</ele>
        <time>2019-08-16T14:23:26Z</time>
      </trkpt>
      <trkpt lat="47.50406" lon="6.78712">
        <ele>320.3</ele>
        <time>2019-08-16T14:23:27Z</time>
      </trkpt>
      <trkpt lat="47.50407" lon="6.78705">
        <ele>320.2</ele>
        <time>2019-08-16T14:23:28Z</time>
      </trkpt>
      <trkpt lat="47.50408" lon="6.78698">
        <ele>320.2</ele>
        <time>2019-08-16T14:23:29Z</time>
      </trkpt>
      <trkpt lat="47.50409" lon="6.78692">
        <ele>320.2</ele>
        <time>2019-08-16T14:23:30Z</time>
      </trkpt>
      <trkpt lat="47.5041" lon="6.78686">
        <ele>320.1</ele>
        <time>2019-08-16T14:23:31Z</time>
      </trkpt>
      <trkpt lat="47.50411" lon="6.78681">
        <ele>320.1</ele>
        <time>2019-08-16T14:23:32Z</time>
      </trkpt>
      <trkpt lat="47.50413" lon="6.78675">
        <ele>320.1</ele>
        <time>2019-08-16T14:23:33Z</time>
      </trkpt>
      <trkpt lat="47.50414" lon="6.7867">
        <ele>320.1</ele>
        <time>2019-08-16T14:23:34Z</time>
      </trkpt>
      <trkpt lat="47.50416" lon="6.78664">
        <ele>320.1</ele>
        <time>2019-08-16T14:23:35Z</time>
      </trkpt>
      <trkpt lat="47.50417" lon="6.78658">
        <ele>320.2</ele>
        <time>2019-08-16T14:23:36Z</time>
      </trkpt>
      <trkpt lat="47.50419" lon="6.78652">
        <ele>320.2</ele>
        <time>2019-08-16T14:23:37Z</time>
      </trkpt>
      <trkpt lat="47.50421" lon="6.78646">
        <ele>320.3</ele>
        <time>2019-08-16T14:23:38Z</time>
      </trkpt>
      <trkpt lat="47.50422" lon="6.7864">
        <ele>320.3</ele>
        <time>2019-08-16T14:23:39Z</time>
      </trkpt>
      <trkpt lat="47.50424" lon="6.78634">
        <ele>320.4</ele>
        <time>2019-08-16T14:23:40Z</time>
      </trkpt>
      <trkpt lat="47.50425" lon="6.78629">
        <ele>320.4</ele>
        <time>2019-08-16T14:23:41Z</time>
      </trkpt>
      <trkpt lat="47.50426" lon="6.78624">
        <ele>320.5</ele>
        <time>2019-08-16T14:23:42Z</time>
      </trkpt>
      <trkpt lat="47.50427" lon="6.78619">
        <ele>320.5</ele>
        <time>2019-08-16T14:23:43Z</time>
      </trkpt>
      <trkpt lat="47.50428" lon="6.78615">
        <ele>320.5</ele>
        <time>2019-08-16T14:23:44Z</time>
      </trkpt>
      <trkpt lat="47.50429" lon="6.78609">
        <ele>320.5</ele>
        <time>2019-08-16T14:23:45Z</time>
      </trkpt>
      <trkpt lat="47.50429" lon="6.78603">
        <ele>320.6</ele>
        <time>2019-08-16T14:23:46Z</time>
      </trkpt>
      <trkpt lat="47.5043" lon="6.78597">
        <ele>320.6</ele>
        <time>2019-08-16T14:23:47Z</time>
      </trkpt>
      <trkpt lat="47.50432" lon="6.78591">
        <ele>320.6</ele>
        <time>2019-08-16T14:23:48Z</time>
      </trkpt>
      <trkpt lat="47.50433" lon="6.78584">
        <ele>320.6</ele>
        <time>2019-08-16T14:23:49Z</time>
      </trkpt>
      <trkpt lat="47.50435" lon="6.78576">
        <ele>320.6</ele>
        <time>2019-08-16T14:23:50Z</time>
      </trkpt>
      <trkpt lat="47.50437" lon="6.78568">
        <ele>320.6</ele>
        <time>2019-08-16T14:23:51Z</time>
      </trkpt>
      <trkpt lat="47.50438" lon="6.7856">
        <ele>320.6</ele>
        <time>2019-08-16T14:23:52Z</time>
      </trkpt>
      <trkpt lat="47.50438" lon="6.78552">
        <ele>320.6</ele>
        <time>2019-08-16T14:23:53Z</time>
      </trkpt>
      <trkpt lat="47.5044" lon="6.78545">
        <ele>320.6</ele>
        <time>2019-08-16T14:23:54Z</time>
      </trkpt>
      <trkpt lat="47.5044" lon="6.78539">
        <ele>320.5</ele>
        <time>2019-08-16T14:23:55Z</time>
      </trkpt>
      <trkpt lat="47.50441" lon="6.78532">
        <ele>320.5</ele>
        <time>2019-08-16T14:23:56Z</time>
      </trkpt>
      <trkpt lat="47.50441" lon="6.78525">
        <ele>320.5</ele>
        <time>2019-08-16T14:23:57Z</time>
      </trkpt>
      <trkpt lat="47.50442" lon="6.78518">
        <ele>320.5</ele>
        <time>2019-08-16T14:23:58Z</time>
      </trkpt>
      <trkpt lat="47.50443" lon="6.78511">
        <ele>320.5</ele>
        <time>2019-08-16T14:23:59Z</time>
      </trkpt>
      <trkpt lat="47.50443" lon="6.78502">
        <ele>320.5</ele>
        <time>2019-08-16T14:24:00Z</time>
      </trkpt>
      <trkpt lat="47.50445" lon="6.78495">
        <ele>320.5</ele>
        <time>2019-08-16T14:24:01Z</time>
      </trkpt>
      <trkpt lat="47.50446" lon="6.78488">
        <ele>320.5</ele>
        <time>2019-08-16T14:24:02Z</time>
      </trkpt>
      <trkpt lat="47.50447" lon="6.78482">
        <ele>320.4</ele>
        <time>2019-08-16T14:24:03Z</time>
      </trkpt>
      <trkpt lat="47.50448" lon="6.78476">
        <ele>320.4</ele>
        <time>2019-08-16T14:24:04Z</time>
      </trkpt>
      <trkpt lat="47.50449" lon="6.7847">
        <ele>320.3</ele>
        <time>2019-08-16T14:24:05Z</time>
      </trkpt>
      <trkpt lat="47.5045" lon="6.78464">
        <ele>320.2</ele>
        <time>2019-08-16T14:24:06Z</time>
      </trkpt>
      <trkpt lat="47.50451" lon="6.78456">
        <ele>320.1</ele>
        <time>2019-08-16T14:24:07Z</time>
      </trkpt>
      <trkpt lat="47.50453" lon="6.78447">
        <ele>320</ele>
        <time>2019-08-16T14:24:08Z</time>
      </trkpt>
      <trkpt lat="47.50455" lon="6.78438">
        <ele>319.9</ele>
        <time>2019-08-16T14:24:09Z</time>
      </trkpt>
      <trkpt lat="47.50457" lon="6.78429">
        <ele>319.9</ele>
        <time>2019-08-16T14:24:10Z</time>
      </trkpt>
      <trkpt lat="47.50458" lon="6.78421">
        <ele>319.8</ele>
        <time>2019-08-16T14:24:11Z</time>
      </trkpt>
      <trkpt lat="47.5046" lon="6.78414">
        <ele>319.8</ele>
        <time>2019-08-16T14:24:12Z</time>
      </trkpt>
      <trkpt lat="47.50463" lon="6.78407">
        <ele>319.8</ele>
        <time>2019-08-16T14:24:13Z</time>
      </trkpt>
      <trkpt lat="47.50465" lon="6.78399">
        <ele>319.7</ele>
        <time>2019-08-16T14:24:14Z</time>
      </trkpt>
      <trkpt lat="47.50467" lon="6.78392">
        <ele>319.7</ele>
        <time>2019-08-16T14:24:15Z</time>
      </trkpt>
      <trkpt lat="47.5047" lon="6.78385">
        <ele>319.7</ele>
        <time>2019-08-16T14:24:16Z</time>
      </trkpt>
      <trkpt lat="47.50471" lon="6.78378">
        <ele>319.7</ele>
        <time>2019-08-16T14:24:17Z</time>
      </trkpt>
      <trkpt lat="47.50473" lon="6.7837">
        <ele>319.7</ele>
        <time>2019-08-16T14:24:18Z</time>
      </trkpt>
      <trkpt lat="47.50475" lon="6.78363">
        <ele>319.7</ele>
        <time>2019-08-16T14:24:19Z</time>
      </trkpt>
      <trkpt lat="47.50477" lon="6.78356">
        <ele>319.6</ele>
        <time>2019-08-16T14:24:20Z</time>
      </trkpt>
      <trkpt lat="47.50479" lon="6.78349">
        <ele>319.6</ele>
        <time>2019-08-16T14:24:21Z</time>
      </trkpt>
      <trkpt lat="47.50483" lon="6.78338">
        <ele>319.6</ele>
        <time>2019-08-16T14:24:22Z</time>
      </trkpt>
      <trkpt lat="47.50485" lon="6.7833">
        <ele>319.5</ele>
        <time>2019-08-16T14:24:23Z</time>
      </trkpt>
      <trkpt lat="47.50487" lon="6.78322">
        <ele>319.5</ele>
        <time>2019-08-16T14:24:24Z</time>
      </trkpt>
      <trkpt lat="47.50489" lon="6.78315">
        <ele>319.5</ele>
        <time>2019-08-16T14:24:25Z</time>
      </trkpt>
      <trkpt lat="47.50489" lon="6.78308">
        <ele>319.5</ele>
        <time>2019-08-16T14:24:26Z</time>
      </trkpt>
      <trkpt lat="47.5049" lon="6.783">
        <ele>319.5</ele>
        <time>2019-08-16T14:24:27Z</time>
      </trkpt>
      <trkpt lat="47.50491" lon="6.78293">
        <ele>319.5</ele>
        <time>2019-08-16T14:24:28Z</time>
      </trkpt>
      <trkpt lat="47.50492" lon="6.78286">
        <ele>319.5</ele>
        <time>2019-08-16T14:24:29Z</time>
      </trkpt>
      <trkpt lat="47.50493" lon="6.78279">
        <ele>319.5</ele>
        <time>2019-08-16T14:24:30Z</time>
      </trkpt>
      <trkpt lat="47.50494" lon="6.78271">
        <ele>319.4</ele>
        <time>2019-08-16T14:24:31Z</time>
      </trkpt>
      <trkpt lat="47.50497" lon="6.78262">
        <ele>319.4</ele>
        <time>2019-08-16T14:24:32Z</time>
      </trkpt>
      <trkpt lat="47.50499" lon="6.78254">
        <ele>319.4</ele>
        <time>2019-08-16T14:24:33Z</time>
      </trkpt>
      <trkpt lat="47.50501" lon="6.78247">
        <ele>319.4</ele>
        <time>2019-08-16T14:24:34Z</time>
      </trkpt>
      <trkpt lat="47.50503" lon="6.7824">
        <ele>319.3</ele>
        <time>2019-08-16T14:24:35Z</time>
      </trkpt>
      <trkpt lat="47.50504" lon="6.78232">
        <ele>319.3</ele>
        <time>2019-08-16T14:24:36Z</time>
      </trkpt>
      <trkpt lat="47.50506" lon="6.78226">
        <ele>319.3</ele>
        <time>2019-08-16T14:24:37Z</time>
      </trkpt>
      <trkpt lat="47.50507" lon="6.78218">
        <ele>319.3</ele>
        <time>2019-08-16T14:24:38Z</time>
      </trkpt>
      <trkpt lat="47.50508" lon="6.78211">
        <ele>319.2</ele>
        <time>2019-08-16T14:24:39Z</time>
      </trkpt>
      <trkpt lat="47.50509" lon="6.78205">
        <ele>319.2</ele>
        <time>2019-08-16T14:24:40Z</time>
      </trkpt>
      <trkpt lat="47.5051" lon="6.78198">
        <ele>319.2</ele>
        <time>2019-08-16T14:24:41Z</time>
      </trkpt>
      <trkpt lat="47.50512" lon="6.78191">
        <ele>319.2</ele>
        <time>2019-08-16T14:24:42Z</time>
      </trkpt>
      <trkpt lat="47.50513" lon="6.78184">
        <ele>319.1</ele>
        <time>2019-08-16T14:24:43Z</time>
      </trkpt>
      <trkpt lat="47.50515" lon="6.78177">
        <ele>319.1</ele>
        <time>2019-08-16T14:24:44Z</time>
      </trkpt>
      <trkpt lat="47.50516" lon="6.7817">
        <ele>319.1</ele>
        <time>2019-08-16T14:24:45Z</time>
      </trkpt>
      <trkpt lat="47.50517" lon="6.78163">
        <ele>319.1</ele>
        <time>2019-08-16T14:24:46Z</time>
      </trkpt>
      <trkpt lat="47.50518" lon="6.78156">
        <ele>319.1</ele>
        <time>2019-08-16T14:24:47Z</time>
      </trkpt>
      <trkpt lat="47.50519" lon="6.78149">
        <ele>319</ele>
        <time>2019-08-16T14:24:48Z</time>
      </trkpt>
      <trkpt lat="47.5052" lon="6.78143">
        <ele>319</ele>
        <time>2019-08-16T14:24:49Z</time>
      </trkpt>
      <trkpt lat="47.50521" lon="6.78138">
        <ele>319</ele>
        <time>2019-08-16T14:24:50Z</time>
      </trkpt>
      <trkpt lat="47.50523" lon="6.78132">
        <ele>319</ele>
        <time>2019-08-16T14:24:51Z</time>
      </trkpt>
      <trkpt lat="47.50524" lon="6.78125">
        <ele>319</ele>
        <time>2019-08-16T14:24:52Z</time>
      </trkpt>
      <trkpt lat="47.50526" lon="6.78117">
        <ele>318.9</ele>
        <time>2019-08-16T14:24:53Z</time>
      </trkpt>
      <trkpt lat="47.50527" lon="6.78109">
        <ele>318.9</ele>
        <time>2019-08-16T14:24:54Z</time>
      </trkpt>
      <trkpt lat="47.50529" lon="6.78101">
        <ele>318.9</ele>
        <time>2019-08-16T14:24:55Z</time>
      </trkpt>
      <trkpt lat="47.5053" lon="6.78093">
        <ele>318.9</ele>
        <time>2019-08-16T14:24:56Z</time>
      </trkpt>
      <trkpt lat="47.50532" lon="6.78086">
        <ele>318.9</ele>
        <time>2019-08-16T14:24:57Z</time>
      </trkpt>
      <trkpt lat="47.50533" lon="6.78078">
        <ele>318.8</ele>
        <time>2019-08-16T14:24:58Z</time>
      </trkpt>
      <trkpt lat="47.50535" lon="6.7807">
        <ele>318.8</ele>
        <time>2019-08-16T14:24:59Z</time>
      </trkpt>
      <trkpt lat="47.50536" lon="6.78062">
        <ele>318.8</ele>
        <time>2019-08-16T14:25:00Z</time>
      </trkpt>
      <trkpt lat="47.50537" lon="6.78054">
        <ele>318.8</ele>
        <time>2019-08-16T14:25:01Z</time>
      </trkpt>
      <trkpt lat="47.50538" lon="6.78046">
        <ele>318.7</ele>
        <time>2019-08-16T14:25:02Z</time>
      </trkpt>
      <trkpt lat="47.50539" lon="6.78039">
        <ele>318.7</ele>
        <time>2019-08-16T14:25:03Z</time>
      </trkpt>
      <trkpt lat="47.5054" lon="6.78032">
        <ele>318.7</ele>
        <time>2019-08-16T14:25:04Z</time>
      </trkpt>
      <trkpt lat="47.5054" lon="6.78024">
        <ele>318.7</ele>
        <time>2019-08-16T14:25:05Z</time>
      </trkpt>
      <trkpt lat="47.5054" lon="6.78017">
        <ele>318.7</ele>
        <time>2019-08-16T14:25:06Z</time>
      </trkpt>
      <trkpt lat="47.5054" lon="6.7801">
        <ele>318.6</ele>
        <time>2019-08-16T14:25:07Z</time>
      </trkpt>
      <trkpt lat="47.5054" lon="6.78003">
        <ele>318.6</ele>
        <time>2019-08-16T14:25:08Z</time>
      </trkpt>
      <trkpt lat="47.50539" lon="6.77996">
        <ele>318.6</ele>
        <time>2019-08-16T14:25:09Z</time>
      </trkpt>
      <trkpt lat="47.50538" lon="6.77989">
        <ele>318.6</ele>
        <time>2019-08-16T14:25:10Z</time>
      </trkpt>
      <trkpt lat="47.50538" lon="6.77982">
        <ele>318.6</ele>
        <time>2019-08-16T14:25:11Z</time>
      </trkpt>
      <trkpt lat="47.50537" lon="6.77976">
        <ele>318.5</ele>
        <time>2019-08-16T14:25:12Z</time>
      </trkpt>
      <trkpt lat="47.50536" lon="6.7797">
        <ele>318.5</ele>
        <time>2019-08-16T14:25:13Z</time>
      </trkpt>
      <trkpt lat="47.50536" lon="6.77964">
        <ele>318.5</ele>
        <time>2019-08-16T14:25:14Z</time>
      </trkpt>
      <trkpt lat="47.50536" lon="6.77958">
        <ele>318.5</ele>
        <time>2019-08-16T14:25:15Z</time>
      </trkpt>
      <trkpt lat="47.50535" lon="6.77952">
        <ele>318.5</ele>
        <time>2019-08-16T14:25:16Z</time>
      </trkpt>
      <trkpt lat="47.50535" lon="6.77945">
        <ele>318.5</ele>
        <time>2019-08-16T14:25:17Z</time>
      </trkpt>
      <trkpt lat="47.50537" lon="6.77938">
        <ele>318.4</ele>
        <time>2019-08-16T14:25:18Z</time>
      </trkpt>
      <trkpt lat="47.50538" lon="6.77932">
        <ele>318.4</ele>
        <time>2019-08-16T14:25:19Z</time>
      </trkpt>
      <trkpt lat="47.50538" lon="6.77926">
        <ele>318.4</ele>
        <time>2019-08-16T14:25:20Z</time>
      </trkpt>
      <trkpt lat="47.50538" lon="6.7792">
        <ele>318.4</ele>
        <time>2019-08-16T14:25:21Z</time>
      </trkpt>
      <trkpt lat="47.50537" lon="6.77913">
        <ele>318.4</ele>
        <time>2019-08-16T14:25:22Z</time>
      </trkpt>
      <trkpt lat="47.50537" lon="6.77907">
        <ele>318.4</ele>
        <time>2019-08-16T14:25:23Z</time>
      </trkpt>
      <trkpt lat="47.50535" lon="6.77899">
        <ele>318.3</ele>
        <time>2019-08-16T14:25:24Z</time>
      </trkpt>
      <trkpt lat="47.50533" lon="6.77893">
        <ele>318.3</ele>
        <time>2019-08-16T14:25:25Z</time>
      </trkpt>
      <trkpt lat="47.5053" lon="6.77886">
        <ele>318.3</ele>
        <time>2019-08-16T14:25:26Z</time>
      </trkpt>
      <trkpt lat="47.50528" lon="6.77878">
        <ele>318.3</ele>
        <time>2019-08-16T14:25:27Z</time>
      </trkpt>
      <trkpt lat="47.50526" lon="6.7787">
        <ele>318.2</ele>
        <time>2019-08-16T14:25:28Z</time>
      </trkpt>
      <trkpt lat="47.50524" lon="6.77862">
        <ele>318.2</ele>
        <time>2019-08-16T14:25:29Z</time>
      </trkpt>
      <trkpt lat="47.50522" lon="6.77854">
        <ele>318.2</ele>
        <time>2019-08-16T14:25:30Z</time>
      </trkpt>
      <trkpt lat="47.5052" lon="6.77847">
        <ele>318.2</ele>
        <time>2019-08-16T14:25:31Z</time>
      </trkpt>
      <trkpt lat="47.50517" lon="6.77839">
        <ele>318.1</ele>
        <time>2019-08-16T14:25:32Z</time>
      </trkpt>
      <trkpt lat="47.50516" lon="6.77832">
        <ele>318.1</ele>
        <time>2019-08-16T14:25:33Z</time>
      </trkpt>
      <trkpt lat="47.50514" lon="6.77825">
        <ele>318.1</ele>
        <time>2019-08-16T14:25:34Z</time>
      </trkpt>
      <trkpt lat="47.50513" lon="6.77819">
        <ele>318.1</ele>
        <time>2019-08-16T14:25:35Z</time>
      </trkpt>
      <trkpt lat="47.50511" lon="6.77812">
        <ele>318</ele>
        <time>2019-08-16T14:25:36Z</time>
      </trkpt>
      <trkpt lat="47.50509" lon="6.77807">
        <ele>318</ele>
        <time>2019-08-16T14:25:37Z</time>
      </trkpt>
      <trkpt lat="47.50508" lon="6.77802">
        <ele>318</ele>
        <time>2019-08-16T14:25:38Z</time>
      </trkpt>
      <trkpt lat="47.50506" lon="6.77796">
        <ele>318</ele>
        <time>2019-08-16T14:25:39Z</time>
      </trkpt>
      <trkpt lat="47.50504" lon="6.77791">
        <ele>317.9</ele>
        <time>2019-08-16T14:25:40Z</time>
      </trkpt>
      <trkpt lat="47.50502" lon="6.77786">
        <ele>317.9</ele>
        <time>2019-08-16T14:25:41Z</time>
      </trkpt>
      <trkpt lat="47.505" lon="6.77779">
        <ele>317.9</ele>
        <time>2019-08-16T14:25:42Z</time>
      </trkpt>
      <trkpt lat="47.50497" lon="6.77772">
        <ele>317.8</ele>
        <time>2019-08-16T14:25:43Z</time>
      </trkpt>
      <trkpt lat="47.50495" lon="6.77765">
        <ele>317.8</ele>
        <time>2019-08-16T14:25:44Z</time>
      </trkpt>
      <trkpt lat="47.50493" lon="6.77757">
        <ele>317.7</ele>
        <time>2019-08-16T14:25:45Z</time>
      </trkpt>
      <trkpt lat="47.50491" lon="6.7775">
        <ele>317.7</ele>
        <time>2019-08-16T14:25:46Z</time>
      </trkpt>
      <trkpt lat="47.50489" lon="6.77743">
        <ele>317.6</ele>
        <time>2019-08-16T14:25:47Z</time>
      </trkpt>
      <trkpt lat="47.50487" lon="6.77736">
        <ele>317.6</ele>
        <time>2019-08-16T14:25:48Z</time>
      </trkpt>
      <trkpt lat="47.50485" lon="6.77731">
        <ele>317.5</ele>
        <time>2019-08-16T14:25:49Z</time>
      </trkpt>
      <trkpt lat="47.50483" lon="6.77726">
        <ele>317.5</ele>
        <time>2019-08-16T14:25:50Z</time>
      </trkpt>
      <trkpt lat="47.50481" lon="6.77721">
        <ele>317.5</ele>
        <time>2019-08-16T14:25:51Z</time>
      </trkpt>
      <trkpt lat="47.50479" lon="6.77716">
        <ele>317.4</ele>
        <time>2019-08-16T14:25:52Z</time>
      </trkpt>
      <trkpt lat="47.50477" lon="6.77712">
        <ele>317.4</ele>
        <time>2019-08-16T14:25:53Z</time>
      </trkpt>
      <trkpt lat="47.50475" lon="6.77708">
        <ele>317.3</ele>
        <time>2019-08-16T14:25:54Z</time>
      </trkpt>
      <trkpt lat="47.50472" lon="6.77702">
        <ele>317.3</ele>
        <time>2019-08-16T14:25:55Z</time>
      </trkpt>
      <trkpt lat="47.5047" lon="6.77697">
        <ele>317.2</ele>
        <time>2019-08-16T14:25:56Z</time>
      </trkpt>
      <trkpt lat="47.50468" lon="6.77691">
        <ele>317.2</ele>
        <time>2019-08-16T14:25:57Z</time>
      </trkpt>
      <trkpt lat="47.50466" lon="6.77685">
        <ele>317.1</ele>
        <time>2019-08-16T14:25:58Z</time>
      </trkpt>
      <trkpt lat="47.50464" lon="6.77679">
        <ele>317.1</ele>
        <time>2019-08-16T14:25:59Z</time>
      </trkpt>
      <trkpt lat="47.50461" lon="6.77671">
        <ele>317</ele>
        <time>2019-08-16T14:26:00Z</time>
      </trkpt>
      <trkpt lat="47.50458" lon="6.77665">
        <ele>316.9</ele>
        <time>2019-08-16T14:26:01Z</time>
      </trkpt>
      <trkpt lat="47.50455" lon="6.7766">
        <ele>316.8</ele>
        <time>2019-08-16T14:26:02Z</time>
      </trkpt>
      <trkpt lat="47.50451" lon="6.77654">
        <ele>316.7</ele>
        <time>2019-08-16T14:26:03Z</time>
      </trkpt>
      <trkpt lat="47.50448" lon="6.7765">
        <ele>316.7</ele>
        <time>2019-08-16T14:26:04Z</time>
      </trkpt>
      <trkpt lat="47.50445" lon="6.77642">
        <ele>316.6</ele>
        <time>2019-08-16T14:26:05Z</time>
      </trkpt>
      <trkpt lat="47.50442" lon="6.77636">
        <ele>316.5</ele>
        <time>2019-08-16T14:26:06Z</time>
      </trkpt>
      <trkpt lat="47.50439" lon="6.7763">
        <ele>316.4</ele>
        <time>2019-08-16T14:26:07Z</time>
      </trkpt>
      <trkpt lat="47.50435" lon="6.77622">
        <ele>316.2</ele>
        <time>2019-08-16T14:26:08Z</time>
      </trkpt>
      <trkpt lat="47.50431" lon="6.77616">
        <ele>316.1</ele>
        <time>2019-08-16T14:26:09Z</time>
      </trkpt>
      <trkpt lat="47.50427" lon="6.77611">
        <ele>316</ele>
        <time>2019-08-16T14:26:10Z</time>
      </trkpt>
      <trkpt lat="47.50423" lon="6.77606">
        <ele>315.9</ele>
        <time>2019-08-16T14:26:11Z</time>
      </trkpt>
      <trkpt lat="47.50419" lon="6.77601">
        <ele>315.7</ele>
        <time>2019-08-16T14:26:12Z</time>
      </trkpt>
      <trkpt lat="47.50414" lon="6.77596">
        <ele>315.5</ele>
        <time>2019-08-16T14:26:13Z</time>
      </trkpt>
      <trkpt lat="47.50411" lon="6.77592">
        <ele>315.4</ele>
        <time>2019-08-16T14:26:14Z</time>
      </trkpt>
      <trkpt lat="47.50407" lon="6.77588">
        <ele>315.3</ele>
        <time>2019-08-16T14:26:15Z</time>
      </trkpt>
      <trkpt lat="47.50404" lon="6.77584">
        <ele>315.1</ele>
        <time>2019-08-16T14:26:16Z</time>
      </trkpt>
      <trkpt lat="47.50399" lon="6.7758">
        <ele>315</ele>
        <time>2019-08-16T14:26:17Z</time>
      </trkpt>
      <trkpt lat="47.50395" lon="6.77576">
        <ele>314.8</ele>
        <time>2019-08-16T14:26:18Z</time>
      </trkpt>
      <trkpt lat="47.50392" lon="6.77571">
        <ele>314.7</ele>
        <time>2019-08-16T14:26:19Z</time>
      </trkpt>
      <trkpt lat="47.50388" lon="6.77567">
        <ele>314.5</ele>
        <time>2019-08-16T14:26:20Z</time>
      </trkpt>
      <trkpt lat="47.50383" lon="6.77563">
        <ele>314.4</ele>
        <time>2019-08-16T14:26:21Z</time>
      </trkpt>
      <trkpt lat="47.50379" lon="6.7756">
        <ele>314.2</ele>
        <time>2019-08-16T14:26:22Z</time>
      </trkpt>
      <trkpt lat="47.50374" lon="6.77557">
        <ele>314.1</ele>
        <time>2019-08-16T14:26:23Z</time>
      </trkpt>
      <trkpt lat="47.50369" lon="6.77556">
        <ele>314</ele>
        <time>2019-08-16T14:26:24Z</time>
      </trkpt>
      <trkpt lat="47.50365" lon="6.77554">
        <ele>313.8</ele>
        <time>2019-08-16T14:26:25Z</time>
      </trkpt>
      <trkpt lat="47.5036" lon="6.77552">
        <ele>313.7</ele>
        <time>2019-08-16T14:26:26Z</time>
      </trkpt>
      <trkpt lat="47.50356" lon="6.77549">
        <ele>313.6</ele>
        <time>2019-08-16T14:26:27Z</time>
      </trkpt>
      <trkpt lat="47.50352" lon="6.77547">
        <ele>313.5</ele>
        <time>2019-08-16T14:26:28Z</time>
      </trkpt>
      <trkpt lat="47.50348" lon="6.77544">
        <ele>313.4</ele>
        <time>2019-08-16T14:26:29Z</time>
      </trkpt>
      <trkpt lat="47.50344" lon="6.7754">
        <ele>313.3</ele>
        <time>2019-08-16T14:26:30Z</time>
      </trkpt>
      <trkpt lat="47.50339" lon="6.77535">
        <ele>313.2</ele>
        <time>2019-08-16T14:26:31Z</time>
      </trkpt>
      <trkpt lat="47.50333" lon="6.7753">
        <ele>313.1</ele>
        <time>2019-08-16T14:26:32Z</time>
      </trkpt>
      <trkpt lat="47.50327" lon="6.77525">
        <ele>313</ele>
        <time>2019-08-16T14:26:33Z</time>
      </trkpt>
      <trkpt lat="47.5032" lon="6.7752">
        <ele>312.9</ele>
        <time>2019-08-16T14:26:34Z</time>
      </trkpt>
      <trkpt lat="47.50314" lon="6.77514">
        <ele>312.8</ele>
        <time>2019-08-16T14:26:35Z</time>
      </trkpt>
      <trkpt lat="47.50308" lon="6.77508">
        <ele>312.7</ele>
        <time>2019-08-16T14:26:36Z</time>
      </trkpt>
      <trkpt lat="47.50303" lon="6.77502">
        <ele>312.6</ele>
        <time>2019-08-16T14:26:37Z</time>
      </trkpt>
      <trkpt lat="47.50297" lon="6.77498">
        <ele>312.5</ele>
        <time>2019-08-16T14:26:38Z</time>
      </trkpt>
      <trkpt lat="47.50293" lon="6.77493">
        <ele>312.5</ele>
        <time>2019-08-16T14:26:39Z</time>
      </trkpt>
      <trkpt lat="47.50287" lon="6.77489">
        <ele>312.4</ele>
        <time>2019-08-16T14:26:40Z</time>
      </trkpt>
      <trkpt lat="47.50283" lon="6.77484">
        <ele>312.4</ele>
        <time>2019-08-16T14:26:41Z</time>
      </trkpt>
      <trkpt lat="47.50278" lon="6.7748">
        <ele>312.3</ele>
        <time>2019-08-16T14:26:42Z</time>
      </trkpt>
      <trkpt lat="47.50274" lon="6.77476">
        <ele>312.3</ele>
        <time>2019-08-16T14:26:43Z</time>
      </trkpt>
      <trkpt lat="47.5027" lon="6.77472">
        <ele>312.2</ele>
        <time>2019-08-16T14:26:44Z</time>
      </trkpt>
      <trkpt lat="47.50265" lon="6.77467">
        <ele>312.1</ele>
        <time>2019-08-16T14:26:45Z</time>
      </trkpt>
      <trkpt lat="47.5026" lon="6.77462">
        <ele>312.1</ele>
        <time>2019-08-16T14:26:46Z</time>
      </trkpt>
      <trkpt lat="47.50256" lon="6.77458">
        <ele>312</ele>
        <time>2019-08-16T14:26:47Z</time>
      </trkpt>
      <trkpt lat="47.50251" lon="6.77455">
        <ele>312</ele>
        <time>2019-08-16T14:26:48Z</time>
      </trkpt>
      <trkpt lat="47.50247" lon="6.77451">
        <ele>311.9</ele>
        <time>2019-08-16T14:26:49Z</time>
      </trkpt>
      <trkpt lat="47.50242" lon="6.77448">
        <ele>311.9</ele>
        <time>2019-08-16T14:26:50Z</time>
      </trkpt>
      <trkpt lat="47.50236" lon="6.77443">
        <ele>311.8</ele>
        <time>2019-08-16T14:26:51Z</time>
      </trkpt>
      <trkpt lat="47.50232" lon="6.77438">
        <ele>311.7</ele>
        <time>2019-08-16T14:26:52Z</time>
      </trkpt>
      <trkpt lat="47.50229" lon="6.77432">
        <ele>311.7</ele>
        <time>2019-08-16T14:26:53Z</time>
      </trkpt>
      <trkpt lat="47.50226" lon="6.77426">
        <ele>311.6</ele>
        <time>2019-08-16T14:26:54Z</time>
      </trkpt>
      <trkpt lat="47.50223" lon="6.77422">
        <ele>311.6</ele>
        <time>2019-08-16T14:26:55Z</time>
      </trkpt>
      <trkpt lat="47.50219" lon="6.77418">
        <ele>311.5</ele>
        <time>2019-08-16T14:26:56Z</time>
      </trkpt>
      <trkpt lat="47.50215" lon="6.77415">
        <ele>311.5</ele>
        <time>2019-08-16T14:26:57Z</time>
      </trkpt>
      <trkpt lat="47.50212" lon="6.77412">
        <ele>311.4</ele>
        <time>2019-08-16T14:26:58Z</time>
      </trkpt>
      <trkpt lat="47.50208" lon="6.77409">
        <ele>311.4</ele>
        <time>2019-08-16T14:26:59Z</time>
      </trkpt>
      <trkpt lat="47.50203" lon="6.77407">
        <ele>311.3</ele>
        <time>2019-08-16T14:27:00Z</time>
      </trkpt>
      <trkpt lat="47.502" lon="6.77404">
        <ele>311.3</ele>
        <time>2019-08-16T14:27:01Z</time>
      </trkpt>
      <trkpt lat="47.50196" lon="6.77402">
        <ele>311.2</ele>
        <time>2019-08-16T14:27:02Z</time>
      </trkpt>
      <trkpt lat="47.50192" lon="6.774">
        <ele>311.2</ele>
        <time>2019-08-16T14:27:03Z</time>
      </trkpt>
      <trkpt lat="47.50187" lon="6.77396">
        <ele>311.1</ele>
        <time>2019-08-16T14:27:04Z</time>
      </trkpt>
      <trkpt lat="47.50182" lon="6.77393">
        <ele>311.1</ele>
        <time>2019-08-16T14:27:05Z</time>
      </trkpt>
      <trkpt lat="47.50177" lon="6.77391">
        <ele>311</ele>
        <time>2019-08-16T14:27:06Z</time>
      </trkpt>
      <trkpt lat="47.50172" lon="6.77389">
        <ele>310.9</ele>
        <time>2019-08-16T14:27:07Z</time>
      </trkpt>
      <trkpt lat="47.50169" lon="6.77388">
        <ele>310.9</ele>
        <time>2019-08-16T14:27:08Z</time>
      </trkpt>
      <trkpt lat="47.50165" lon="6.77387">
        <ele>310.8</ele>
        <time>2019-08-16T14:27:09Z</time>
      </trkpt>
      <trkpt lat="47.50161" lon="6.77384">
        <ele>310.8</ele>
        <time>2019-08-16T14:27:10Z</time>
      </trkpt>
      <trkpt lat="47.50155" lon="6.77378">
        <ele>310.7</ele>
        <time>2019-08-16T14:27:12Z</time>
      </trkpt>
      <trkpt lat="47.5015" lon="6.77375">
        <ele>310.7</ele>
        <time>2019-08-16T14:27:13Z</time>
      </trkpt>
      <trkpt lat="47.50146" lon="6.77374">
        <ele>310.6</ele>
        <time>2019-08-16T14:27:14Z</time>
      </trkpt>
      <trkpt lat="47.50141" lon="6.77373">
        <ele>310.5</ele>
        <time>2019-08-16T14:27:15Z</time>
      </trkpt>
      <trkpt lat="47.50136" lon="6.77373">
        <ele>310.5</ele>
        <time>2019-08-16T14:27:16Z</time>
      </trkpt>
      <trkpt lat="47.50132" lon="6.77372">
        <ele>310.4</ele>
        <time>2019-08-16T14:27:17Z</time>
      </trkpt>
      <trkpt lat="47.50127" lon="6.77372">
        <ele>310.4</ele>
        <time>2019-08-16T14:27:18Z</time>
      </trkpt>
      <trkpt lat="47.50123" lon="6.77373">
        <ele>310.3</ele>
        <time>2019-08-16T14:27:19Z</time>
      </trkpt>
      <trkpt lat="47.50119" lon="6.77372">
        <ele>310.2</ele>
        <time>2019-08-16T14:27:21Z</time>
      </trkpt>
      <trkpt lat="47.50116" lon="6.77372">
        <ele>310.2</ele>
        <time>2019-08-16T14:27:22Z</time>
      </trkpt>
      <trkpt lat="47.50113" lon="6.77371">
        <ele>310.1</ele>
        <time>2019-08-16T14:27:27Z</time>
      </trkpt>
      <trkpt lat="47.50113" lon="6.77367">
        <ele>310.1</ele>
        <time>2019-08-16T14:27:34Z</time>
      </trkpt>
      <trkpt lat="47.5011" lon="6.7737">
        <ele>310.1</ele>
        <time>2019-08-16T14:27:41Z</time>
      </trkpt>
      <trkpt lat="47.50107" lon="6.77371">
        <ele>310.1</ele>
        <time>2019-08-16T14:27:42Z</time>
      </trkpt>
      <trkpt lat="47.50104" lon="6.77371">
        <ele>310.1</ele>
        <time>2019-08-16T14:27:43Z</time>
      </trkpt>
      <trkpt lat="47.50101" lon="6.77372">
        <ele>310.1</ele>
        <time>2019-08-16T14:27:44Z</time>
      </trkpt>
      <trkpt lat="47.50097" lon="6.77373">
        <ele>310</ele>
        <time>2019-08-16T14:27:45Z</time>
      </trkpt>
      <trkpt lat="47.50093" lon="6.77374">
        <ele>310</ele>
        <time>2019-08-16T14:27:46Z</time>
      </trkpt>
      <trkpt lat="47.50089" lon="6.77376">
        <ele>310</ele>
        <time>2019-08-16T14:27:47Z</time>
      </trkpt>
      <trkpt lat="47.50085" lon="6.77377">
        <ele>310</ele>
        <time>2019-08-16T14:27:48Z</time>
      </trkpt>
      <trkpt lat="47.5008" lon="6.7738">
        <ele>310</ele>
        <time>2019-08-16T14:27:49Z</time>
      </trkpt>
      <trkpt lat="47.50077" lon="6.77381">
        <ele>310.1</ele>
        <time>2019-08-16T14:27:50Z</time>
      </trkpt>
      <trkpt lat="47.50073" lon="6.77383">
        <ele>310.1</ele>
        <time>2019-08-16T14:27:51Z</time>
      </trkpt>
      <trkpt lat="47.50069" lon="6.77385">
        <ele>310.1</ele>
        <time>2019-08-16T14:27:52Z</time>
      </trkpt>
      <trkpt lat="47.50066" lon="6.77386">
        <ele>310.1</ele>
        <time>2019-08-16T14:27:53Z</time>
      </trkpt>
      <trkpt lat="47.50062" lon="6.77388">
        <ele>310.2</ele>
        <time>2019-08-16T14:27:55Z</time>
      </trkpt>
      <trkpt lat="47.50059" lon="6.77386">
        <ele>310.2</ele>
        <time>2019-08-16T14:27:56Z</time>
      </trkpt>
      <trkpt lat="47.50058" lon="6.77382">
        <ele>310.2</ele>
        <time>2019-08-16T14:27:57Z</time>
      </trkpt>
      <trkpt lat="47.50058" lon="6.77376">
        <ele>310.3</ele>
        <time>2019-08-16T14:27:58Z</time>
      </trkpt>
      <trkpt lat="47.50055" lon="6.77372">
        <ele>310.3</ele>
        <time>2019-08-16T14:27:59Z</time>
      </trkpt>
      <trkpt lat="47.50053" lon="6.77368">
        <ele>310.3</ele>
        <time>2019-08-16T14:28:00Z</time>
      </trkpt>
      <trkpt lat="47.50049" lon="6.77365">
        <ele>310.3</ele>
        <time>2019-08-16T14:28:01Z</time>
      </trkpt>
      <trkpt lat="47.50047" lon="6.7736">
        <ele>310.3</ele>
        <time>2019-08-16T14:28:02Z</time>
      </trkpt>
      <trkpt lat="47.50042" lon="6.77355">
        <ele>310.2</ele>
        <time>2019-08-16T14:28:04Z</time>
      </trkpt>
      <trkpt lat="47.5004" lon="6.77352">
        <ele>310.2</ele>
        <time>2019-08-16T14:28:05Z</time>
      </trkpt>
      <trkpt lat="47.50038" lon="6.77349">
        <ele>310.2</ele>
        <time>2019-08-16T14:28:06Z</time>
      </trkpt>
      <trkpt lat="47.50036" lon="6.77344">
        <ele>310.2</ele>
        <time>2019-08-16T14:28:07Z</time>
      </trkpt>
      <trkpt lat="47.50033" lon="6.77338">
        <ele>310.1</ele>
        <time>2019-08-16T14:28:08Z</time>
      </trkpt>
      <trkpt lat="47.50033" lon="6.77332">
        <ele>310.7</ele>
        <time>2019-08-16T14:28:09Z</time>
      </trkpt>
      <trkpt lat="47.50033" lon="6.77327">
        <ele>311.6</ele>
        <time>2019-08-16T14:28:10Z</time>
      </trkpt>
      <trkpt lat="47.50032" lon="6.77321">
        <ele>312.5</ele>
        <time>2019-08-16T14:28:11Z</time>
      </trkpt>
      <trkpt lat="47.50031" lon="6.77315">
        <ele>313.5</ele>
        <time>2019-08-16T14:28:12Z</time>
      </trkpt>
      <trkpt lat="47.5003" lon="6.77311">
        <ele>314.3</ele>
        <time>2019-08-16T14:28:13Z</time>
      </trkpt>
      <trkpt lat="47.50028" lon="6.77306">
        <ele>315.1</ele>
        <time>2019-08-16T14:28:14Z</time>
      </trkpt>
      <trkpt lat="47.50028" lon="6.77301">
        <ele>315.8</ele>
        <time>2019-08-16T14:28:15Z</time>
      </trkpt>
      <trkpt lat="47.50027" lon="6.77297">
        <ele>316.5</ele>
        <time>2019-08-16T14:28:16Z</time>
      </trkpt>
      <trkpt lat="47.50026" lon="6.77292">
        <ele>317.3</ele>
        <time>2019-08-16T14:28:17Z</time>
      </trkpt>
      <trkpt lat="47.50026" lon="6.77286">
        <ele>318.2</ele>
        <time>2019-08-16T14:28:18Z</time>
      </trkpt>
      <trkpt lat="47.50025" lon="6.7728">
        <ele>319.2</ele>
        <time>2019-08-16T14:28:19Z</time>
      </trkpt>
      <trkpt lat="47.50024" lon="6.77274">
        <ele>320.2</ele>
        <time>2019-08-16T14:28:20Z</time>
      </trkpt>
      <trkpt lat="47.50023" lon="6.77268">
        <ele>321.1</ele>
        <time>2019-08-16T14:28:21Z</time>
      </trkpt>
      <trkpt lat="47.50022" lon="6.77262">
        <ele>322.1</ele>
        <time>2019-08-16T14:28:22Z</time>
      </trkpt>
      <trkpt lat="47.50021" lon="6.77256">
        <ele>323</ele>
        <time>2019-08-16T14:28:23Z</time>
      </trkpt>
      <trkpt lat="47.5002" lon="6.77251">
        <ele>323.7</ele>
        <time>2019-08-16T14:28:24Z</time>
      </trkpt>
      <trkpt lat="47.50019" lon="6.77247">
        <ele>324.4</ele>
        <time>2019-08-16T14:28:25Z</time>
      </trkpt>
      <trkpt lat="47.50018" lon="6.77241">
        <ele>325.3</ele>
        <time>2019-08-16T14:28:27Z</time>
      </trkpt>
      <trkpt lat="47.50016" lon="6.77235">
        <ele>328.4</ele>
        <time>2019-08-16T14:28:29Z</time>
      </trkpt>
      <trkpt lat="47.50012" lon="6.77232">
        <ele>328.3</ele>
        <time>2019-08-16T14:28:31Z</time>
      </trkpt>
      <trkpt lat="47.50009" lon="6.77233">
        <ele>328.2</ele>
        <time>2019-08-16T14:28:32Z</time>
      </trkpt>
      <trkpt lat="47.50006" lon="6.77234">
        <ele>328.1</ele>
        <time>2019-08-16T14:28:33Z</time>
      </trkpt>
      <trkpt lat="47.50003" lon="6.77234">
        <ele>328</ele>
        <time>2019-08-16T14:28:34Z</time>
      </trkpt>
      <trkpt lat="47.5" lon="6.77233">
        <ele>327.9</ele>
        <time>2019-08-16T14:28:35Z</time>
      </trkpt>
      <trkpt lat="47.49996" lon="6.77232">
        <ele>327.7</ele>
        <time>2019-08-16T14:28:36Z</time>
      </trkpt>
      <trkpt lat="47.49993" lon="6.77233">
        <ele>327.6</ele>
        <time>2019-08-16T14:28:37Z</time>
      </trkpt>
      <trkpt lat="47.4999" lon="6.77235">
        <ele>327.4</ele>
        <time>2019-08-16T14:28:38Z</time>
      </trkpt>
      <trkpt lat="47.49987" lon="6.77237">
        <ele>327.3</ele>
        <time>2019-08-16T14:28:39Z</time>
      </trkpt>
      <trkpt lat="47.49983" lon="6.77238">
        <ele>327.1</ele>
        <time>2019-08-16T14:28:40Z</time>
      </trkpt>
      <trkpt lat="47.49979" lon="6.7724">
        <ele>326.9</ele>
        <time>2019-08-16T14:28:41Z</time>
      </trkpt>
      <trkpt lat="47.49975" lon="6.77243">
        <ele>326.7</ele>
        <time>2019-08-16T14:28:42Z</time>
      </trkpt>
      <trkpt lat="47.49971" lon="6.77246">
        <ele>326.4</ele>
        <time>2019-08-16T14:28:43Z</time>
      </trkpt>
      <trkpt lat="47.49967" lon="6.77249">
        <ele>326.1</ele>
        <time>2019-08-16T14:28:44Z</time>
      </trkpt>
      <trkpt lat="47.49963" lon="6.77252">
        <ele>325.8</ele>
        <time>2019-08-16T14:28:45Z</time>
      </trkpt>
      <trkpt lat="47.49959" lon="6.77254">
        <ele>325.5</ele>
        <time>2019-08-16T14:28:46Z</time>
      </trkpt>
      <trkpt lat="47.49955" lon="6.77256">
        <ele>325.3</ele>
        <time>2019-08-16T14:28:47Z</time>
      </trkpt>
      <trkpt lat="47.49951" lon="6.77258">
        <ele>325</ele>
        <time>2019-08-16T14:28:48Z</time>
      </trkpt>
      <trkpt lat="47.49946" lon="6.77261">
        <ele>324.7</ele>
        <time>2019-08-16T14:28:49Z</time>
      </trkpt>
      <trkpt lat="47.49941" lon="6.77263">
        <ele>324.4</ele>
        <time>2019-08-16T14:28:50Z</time>
      </trkpt>
      <trkpt lat="47.49937" lon="6.77268">
        <ele>324.2</ele>
        <time>2019-08-16T14:28:51Z</time>
      </trkpt>
      <trkpt lat="47.49932" lon="6.7727">
        <ele>324</ele>
        <time>2019-08-16T14:28:52Z</time>
      </trkpt>
      <trkpt lat="47.49926" lon="6.77272">
        <ele>323.9</ele>
        <time>2019-08-16T14:28:53Z</time>
      </trkpt>
      <trkpt lat="47.49922" lon="6.77275">
        <ele>323.8</ele>
        <time>2019-08-16T14:28:54Z</time>
      </trkpt>
      <trkpt lat="47.49918" lon="6.77279">
        <ele>323.7</ele>
        <time>2019-08-16T14:28:55Z</time>
      </trkpt>
      <trkpt lat="47.49914" lon="6.77282">
        <ele>323.6</ele>
        <time>2019-08-16T14:28:56Z</time>
      </trkpt>
      <trkpt lat="47.49911" lon="6.77285">
        <ele>323.6</ele>
        <time>2019-08-16T14:28:57Z</time>
      </trkpt>
      <trkpt lat="47.49908" lon="6.77287">
        <ele>323.5</ele>
        <time>2019-08-16T14:28:58Z</time>
      </trkpt>
      <trkpt lat="47.49904" lon="6.77287">
        <ele>323.5</ele>
        <time>2019-08-16T14:28:59Z</time>
      </trkpt>
      <trkpt lat="47.499" lon="6.77287">
        <ele>323.4</ele>
        <time>2019-08-16T14:29:00Z</time>
      </trkpt>
      <trkpt lat="47.49896" lon="6.7729">
        <ele>323.3</ele>
        <time>2019-08-16T14:29:01Z</time>
      </trkpt>
      <trkpt lat="47.49892" lon="6.77291">
        <ele>323.2</ele>
        <time>2019-08-16T14:29:02Z</time>
      </trkpt>
      <trkpt lat="47.49887" lon="6.77292">
        <ele>323.1</ele>
        <time>2019-08-16T14:29:03Z</time>
      </trkpt>
      <trkpt lat="47.49883" lon="6.77295">
        <ele>323</ele>
        <time>2019-08-16T14:29:04Z</time>
      </trkpt>
      <trkpt lat="47.49878" lon="6.77296">
        <ele>322.8</ele>
        <time>2019-08-16T14:29:05Z</time>
      </trkpt>
      <trkpt lat="47.49874" lon="6.77297">
        <ele>322.7</ele>
        <time>2019-08-16T14:29:06Z</time>
      </trkpt>
      <trkpt lat="47.49869" lon="6.77298">
        <ele>322.5</ele>
        <time>2019-08-16T14:29:07Z</time>
      </trkpt>
      <trkpt lat="47.49864" lon="6.77299">
        <ele>322.3</ele>
        <time>2019-08-16T14:29:08Z</time>
      </trkpt>
      <trkpt lat="47.49859" lon="6.77301">
        <ele>322.1</ele>
        <time>2019-08-16T14:29:09Z</time>
      </trkpt>
      <trkpt lat="47.49854" lon="6.77302">
        <ele>321.9</ele>
        <time>2019-08-16T14:29:10Z</time>
      </trkpt>
      <trkpt lat="47.49849" lon="6.77302">
        <ele>321.6</ele>
        <time>2019-08-16T14:29:11Z</time>
      </trkpt>
      <trkpt lat="47.49845" lon="6.77302">
        <ele>321.4</ele>
        <time>2019-08-16T14:29:12Z</time>
      </trkpt>
      <trkpt lat="47.49841" lon="6.77302">
        <ele>321.2</ele>
        <time>2019-08-16T14:29:13Z</time>
      </trkpt>
      <trkpt lat="47.49837" lon="6.77302">
        <ele>321.1</ele>
        <time>2019-08-16T14:29:14Z</time>
      </trkpt>
      <trkpt lat="47.49834" lon="6.77303">
        <ele>320.9</ele>
        <time>2019-08-16T14:29:15Z</time>
      </trkpt>
      <trkpt lat="47.4983" lon="6.77304">
        <ele>320.7</ele>
        <time>2019-08-16T14:29:16Z</time>
      </trkpt>
      <trkpt lat="47.49826" lon="6.77304">
        <ele>320.5</ele>
        <time>2019-08-16T14:29:17Z</time>
      </trkpt>
      <trkpt lat="47.49822" lon="6.77304">
        <ele>320.4</ele>
        <time>2019-08-16T14:29:18Z</time>
      </trkpt>
      <trkpt lat="47.49819" lon="6.77305">
        <ele>320.3</ele>
        <time>2019-08-16T14:29:19Z</time>
      </trkpt>
      <trkpt lat="47.49815" lon="6.77306">
        <ele>320.2</ele>
        <time>2019-08-16T14:29:20Z</time>
      </trkpt>
      <trkpt lat="47.49811" lon="6.77307">
        <ele>320.1</ele>
        <time>2019-08-16T14:29:21Z</time>
      </trkpt>
      <trkpt lat="47.49808" lon="6.77308">
        <ele>320</ele>
        <time>2019-08-16T14:29:22Z</time>
      </trkpt>
      <trkpt lat="47.49805" lon="6.77309">
        <ele>319.9</ele>
        <time>2019-08-16T14:29:23Z</time>
      </trkpt>
      <trkpt lat="47.49801" lon="6.77309">
        <ele>319.9</ele>
        <time>2019-08-16T14:29:24Z</time>
      </trkpt>
      <trkpt lat="47.49797" lon="6.7731">
        <ele>319.8</ele>
        <time>2019-08-16T14:29:25Z</time>
      </trkpt>
      <trkpt lat="47.49791" lon="6.7731">
        <ele>319.7</ele>
        <time>2019-08-16T14:29:26Z</time>
      </trkpt>
      <trkpt lat="47.49786" lon="6.77311">
        <ele>319.6</ele>
        <time>2019-08-16T14:29:27Z</time>
      </trkpt>
      <trkpt lat="47.4978" lon="6.77312">
        <ele>319.5</ele>
        <time>2019-08-16T14:29:28Z</time>
      </trkpt>
      <trkpt lat="47.49773" lon="6.77313">
        <ele>319.4</ele>
        <time>2019-08-16T14:29:29Z</time>
      </trkpt>
      <trkpt lat="47.49767" lon="6.77315">
        <ele>319.3</ele>
        <time>2019-08-16T14:29:30Z</time>
      </trkpt>
      <trkpt lat="47.49761" lon="6.77317">
        <ele>319.2</ele>
        <time>2019-08-16T14:29:31Z</time>
      </trkpt>
      <trkpt lat="47.49756" lon="6.77318">
        <ele>319.1</ele>
        <time>2019-08-16T14:29:32Z</time>
      </trkpt>
      <trkpt lat="47.4975" lon="6.77319">
        <ele>319.1</ele>
        <time>2019-08-16T14:29:33Z</time>
      </trkpt>
      <trkpt lat="47.49745" lon="6.77321">
        <ele>319</ele>
        <time>2019-08-16T14:29:34Z</time>
      </trkpt>
      <trkpt lat="47.4974" lon="6.77323">
        <ele>319</ele>
        <time>2019-08-16T14:29:35Z</time>
      </trkpt>
      <trkpt lat="47.49735" lon="6.77325">
        <ele>318.9</ele>
        <time>2019-08-16T14:29:36Z</time>
      </trkpt>
      <trkpt lat="47.49731" lon="6.77327">
        <ele>318.9</ele>
        <time>2019-08-16T14:29:37Z</time>
      </trkpt>
      <trkpt lat="47.49727" lon="6.77329">
        <ele>318.8</ele>
        <time>2019-08-16T14:29:38Z</time>
      </trkpt>
      <trkpt lat="47.49722" lon="6.77331">
        <ele>318.7</ele>
        <time>2019-08-16T14:29:39Z</time>
      </trkpt>
      <trkpt lat="47.49717" lon="6.77334">
        <ele>318.5</ele>
        <time>2019-08-16T14:29:40Z</time>
      </trkpt>
      <trkpt lat="47.49713" lon="6.77335">
        <ele>318.4</ele>
        <time>2019-08-16T14:29:41Z</time>
      </trkpt>
      <trkpt lat="47.49707" lon="6.77333">
        <ele>318.2</ele>
        <time>2019-08-16T14:29:42Z</time>
      </trkpt>
      <trkpt lat="47.49702" lon="6.77334">
        <ele>317.9</ele>
        <time>2019-08-16T14:29:43Z</time>
      </trkpt>
      <trkpt lat="47.49697" lon="6.77334">
        <ele>317.7</ele>
        <time>2019-08-16T14:29:44Z</time>
      </trkpt>
      <trkpt lat="47.49692" lon="6.77337">
        <ele>317.5</ele>
        <time>2019-08-16T14:29:45Z</time>
      </trkpt>
      <trkpt lat="47.49687" lon="6.77339">
        <ele>317.2</ele>
        <time>2019-08-16T14:29:46Z</time>
      </trkpt>
      <trkpt lat="47.49682" lon="6.77341">
        <ele>317.1</ele>
        <time>2019-08-16T14:29:47Z</time>
      </trkpt>
      <trkpt lat="47.49678" lon="6.77342">
        <ele>316.9</ele>
        <time>2019-08-16T14:29:48Z</time>
      </trkpt>
      <trkpt lat="47.49673" lon="6.77343">
        <ele>316.8</ele>
        <time>2019-08-16T14:29:49Z</time>
      </trkpt>
      <trkpt lat="47.49668" lon="6.77345">
        <ele>316.7</ele>
        <time>2019-08-16T14:29:50Z</time>
      </trkpt>
      <trkpt lat="47.49664" lon="6.77347">
        <ele>316.6</ele>
        <time>2019-08-16T14:29:51Z</time>
      </trkpt>
      <trkpt lat="47.4966" lon="6.77347">
        <ele>316.6</ele>
        <time>2019-08-16T14:29:52Z</time>
      </trkpt>
      <trkpt lat="47.49656" lon="6.77348">
        <ele>316.5</ele>
        <time>2019-08-16T14:29:53Z</time>
      </trkpt>
      <trkpt lat="47.49652" lon="6.77349">
        <ele>316.4</ele>
        <time>2019-08-16T14:29:54Z</time>
      </trkpt>
      <trkpt lat="47.49647" lon="6.7735">
        <ele>316.3</ele>
        <time>2019-08-16T14:29:55Z</time>
      </trkpt>
      <trkpt lat="47.49642" lon="6.77351">
        <ele>316.2</ele>
        <time>2019-08-16T14:29:56Z</time>
      </trkpt>
      <trkpt lat="47.49638" lon="6.77352">
        <ele>316.2</ele>
        <time>2019-08-16T14:29:57Z</time>
      </trkpt>
      <trkpt lat="47.49633" lon="6.77354">
        <ele>316</ele>
        <time>2019-08-16T14:29:58Z</time>
      </trkpt>
      <trkpt lat="47.49628" lon="6.77356">
        <ele>315.9</ele>
        <time>2019-08-16T14:29:59Z</time>
      </trkpt>
      <trkpt lat="47.49623" lon="6.77357">
        <ele>315.7</ele>
        <time>2019-08-16T14:30:00Z</time>
      </trkpt>
      <trkpt lat="47.49617" lon="6.77359">
        <ele>315.5</ele>
        <time>2019-08-16T14:30:01Z</time>
      </trkpt>
      <trkpt lat="47.49611" lon="6.7736">
        <ele>315.3</ele>
        <time>2019-08-16T14:30:02Z</time>
      </trkpt>
      <trkpt lat="47.49606" lon="6.77361">
        <ele>315.1</ele>
        <time>2019-08-16T14:30:03Z</time>
      </trkpt>
      <trkpt lat="47.49601" lon="6.77362">
        <ele>314.9</ele>
        <time>2019-08-16T14:30:04Z</time>
      </trkpt>
      <trkpt lat="47.49596" lon="6.77363">
        <ele>314.9</ele>
        <time>2019-08-16T14:30:05Z</time>
      </trkpt>
      <trkpt lat="47.49592" lon="6.77364">
        <ele>314.9</ele>
        <time>2019-08-16T14:30:06Z</time>
      </trkpt>
      <trkpt lat="47.49586" lon="6.77365">
        <ele>314.9</ele>
        <time>2019-08-16T14:30:07Z</time>
      </trkpt>
      <trkpt lat="47.49581" lon="6.77366">
        <ele>315.1</ele>
        <time>2019-08-16T14:30:08Z</time>
      </trkpt>
      <trkpt lat="47.49576" lon="6.77367">
        <ele>315.2</ele>
        <time>2019-08-16T14:30:09Z</time>
      </trkpt>
      <trkpt lat="47.49572" lon="6.77367">
        <ele>315.4</ele>
        <time>2019-08-16T14:30:10Z</time>
      </trkpt>
      <trkpt lat="47.49567" lon="6.77368">
        <ele>315.5</ele>
        <time>2019-08-16T14:30:11Z</time>
      </trkpt>
      <trkpt lat="47.49562" lon="6.77368">
        <ele>315.6</ele>
        <time>2019-08-16T14:30:12Z</time>
      </trkpt>
      <trkpt lat="47.49557" lon="6.77367">
        <ele>315.7</ele>
        <time>2019-08-16T14:30:13Z</time>
      </trkpt>
      <trkpt lat="47.49551" lon="6.77366">
        <ele>315.7</ele>
        <time>2019-08-16T14:30:14Z</time>
      </trkpt>
      <trkpt lat="47.49545" lon="6.77366">
        <ele>315.6</ele>
        <time>2019-08-16T14:30:15Z</time>
      </trkpt>
      <trkpt lat="47.4954" lon="6.77366">
        <ele>315.5</ele>
        <time>2019-08-16T14:30:16Z</time>
      </trkpt>
      <trkpt lat="47.49535" lon="6.77366">
        <ele>315.4</ele>
        <time>2019-08-16T14:30:17Z</time>
      </trkpt>
      <trkpt lat="47.4953" lon="6.77365">
        <ele>315.2</ele>
        <time>2019-08-16T14:30:18Z</time>
      </trkpt>
      <trkpt lat="47.49524" lon="6.77364">
        <ele>314.9</ele>
        <time>2019-08-16T14:30:19Z</time>
      </trkpt>
      <trkpt lat="47.49519" lon="6.77363">
        <ele>314.6</ele>
        <time>2019-08-16T14:30:20Z</time>
      </trkpt>
      <trkpt lat="47.49514" lon="6.77363">
        <ele>314.2</ele>
        <time>2019-08-16T14:30:21Z</time>
      </trkpt>
      <trkpt lat="47.4951" lon="6.77362">
        <ele>313.9</ele>
        <time>2019-08-16T14:30:22Z</time>
      </trkpt>
      <trkpt lat="47.49505" lon="6.77361">
        <ele>313.6</ele>
        <time>2019-08-16T14:30:23Z</time>
      </trkpt>
      <trkpt lat="47.49501" lon="6.77361">
        <ele>313.4</ele>
        <time>2019-08-16T14:30:24Z</time>
      </trkpt>
      <trkpt lat="47.49496" lon="6.77361">
        <ele>313.2</ele>
        <time>2019-08-16T14:30:25Z</time>
      </trkpt>
      <trkpt lat="47.49491" lon="6.77361">
        <ele>313</ele>
        <time>2019-08-16T14:30:26Z</time>
      </trkpt>
      <trkpt lat="47.49486" lon="6.77361">
        <ele>312.8</ele>
        <time>2019-08-16T14:30:27Z</time>
      </trkpt>
      <trkpt lat="47.4948" lon="6.77361">
        <ele>312.7</ele>
        <time>2019-08-16T14:30:28Z</time>
      </trkpt>
      <trkpt lat="47.49476" lon="6.77361">
        <ele>312.6</ele>
        <time>2019-08-16T14:30:29Z</time>
      </trkpt>
      <trkpt lat="47.49471" lon="6.77361">
        <ele>312.5</ele>
        <time>2019-08-16T14:30:30Z</time>
      </trkpt>
      <trkpt lat="47.49466" lon="6.77361">
        <ele>312.4</ele>
        <time>2019-08-16T14:30:31Z</time>
      </trkpt>
      <trkpt lat="47.49462" lon="6.7736">
        <ele>312.4</ele>
        <time>2019-08-16T14:30:32Z</time>
      </trkpt>
      <trkpt lat="47.49457" lon="6.77361">
        <ele>312.3</ele>
        <time>2019-08-16T14:30:33Z</time>
      </trkpt>
      <trkpt lat="47.49452" lon="6.77361">
        <ele>312.2</ele>
        <time>2019-08-16T14:30:34Z</time>
      </trkpt>
      <trkpt lat="47.49447" lon="6.7736">
        <ele>312.1</ele>
        <time>2019-08-16T14:30:35Z</time>
      </trkpt>
      <trkpt lat="47.49441" lon="6.77359">
        <ele>312</ele>
        <time>2019-08-16T14:30:36Z</time>
      </trkpt>
      <trkpt lat="47.49436" lon="6.77358">
        <ele>311.9</ele>
        <time>2019-08-16T14:30:37Z</time>
      </trkpt>
      <trkpt lat="47.49432" lon="6.77357">
        <ele>311.9</ele>
        <time>2019-08-16T14:30:38Z</time>
      </trkpt>
      <trkpt lat="47.49427" lon="6.77356">
        <ele>311.8</ele>
        <time>2019-08-16T14:30:39Z</time>
      </trkpt>
      <trkpt lat="47.49422" lon="6.77355">
        <ele>311.8</ele>
        <time>2019-08-16T14:30:40Z</time>
      </trkpt>
      <trkpt lat="47.49417" lon="6.77354">
        <ele>311.7</ele>
        <time>2019-08-16T14:30:41Z</time>
      </trkpt>
      <trkpt lat="47.49412" lon="6.77353">
        <ele>311.7</ele>
        <time>2019-08-16T14:30:42Z</time>
      </trkpt>
      <trkpt lat="47.49406" lon="6.77352">
        <ele>311.7</ele>
        <time>2019-08-16T14:30:43Z</time>
      </trkpt>
      <trkpt lat="47.49401" lon="6.77352">
        <ele>311.8</ele>
        <time>2019-08-16T14:30:44Z</time>
      </trkpt>
      <trkpt lat="47.49397" lon="6.77352">
        <ele>311.8</ele>
        <time>2019-08-16T14:30:45Z</time>
      </trkpt>
      <trkpt lat="47.49392" lon="6.77352">
        <ele>311.9</ele>
        <time>2019-08-16T14:30:46Z</time>
      </trkpt>
      <trkpt lat="47.49388" lon="6.77352">
        <ele>311.9</ele>
        <time>2019-08-16T14:30:47Z</time>
      </trkpt>
      <trkpt lat="47.49383" lon="6.77352">
        <ele>311.9</ele>
        <time>2019-08-16T14:30:48Z</time>
      </trkpt>
      <trkpt lat="47.49379" lon="6.77352">
        <ele>311.9</ele>
        <time>2019-08-16T14:30:49Z</time>
      </trkpt>
      <trkpt lat="47.49374" lon="6.77351">
        <ele>311.9</ele>
        <time>2019-08-16T14:30:50Z</time>
      </trkpt>
      <trkpt lat="47.49369" lon="6.7735">
        <ele>311.8</ele>
        <time>2019-08-16T14:30:51Z</time>
      </trkpt>
      <trkpt lat="47.49364" lon="6.7735">
        <ele>311.8</ele>
        <time>2019-08-16T14:30:52Z</time>
      </trkpt>
      <trkpt lat="47.49359" lon="6.7735">
        <ele>311.7</ele>
        <time>2019-08-16T14:30:53Z</time>
      </trkpt>
      <trkpt lat="47.49355" lon="6.7735">
        <ele>311.5</ele>
        <time>2019-08-16T14:30:54Z</time>
      </trkpt>
      <trkpt lat="47.4935" lon="6.7735">
        <ele>311.3</ele>
        <time>2019-08-16T14:30:55Z</time>
      </trkpt>
      <trkpt lat="47.49345" lon="6.7735">
        <ele>311.1</ele>
        <time>2019-08-16T14:30:56Z</time>
      </trkpt>
      <trkpt lat="47.4934" lon="6.7735">
        <ele>310.8</ele>
        <time>2019-08-16T14:30:57Z</time>
      </trkpt>
      <trkpt lat="47.49336" lon="6.77351">
        <ele>310.4</ele>
        <time>2019-08-16T14:30:58Z</time>
      </trkpt>
      <trkpt lat="47.49331" lon="6.77351">
        <ele>310.3</ele>
        <time>2019-08-16T14:30:59Z</time>
      </trkpt>
      <trkpt lat="47.49327" lon="6.7735">
        <ele>310.3</ele>
        <time>2019-08-16T14:31:00Z</time>
      </trkpt>
      <trkpt lat="47.49322" lon="6.77347">
        <ele>310.2</ele>
        <time>2019-08-16T14:31:01Z</time>
      </trkpt>
      <trkpt lat="47.49318" lon="6.77345">
        <ele>310.2</ele>
        <time>2019-08-16T14:31:02Z</time>
      </trkpt>
      <trkpt lat="47.49314" lon="6.77344">
        <ele>310.2</ele>
        <time>2019-08-16T14:31:03Z</time>
      </trkpt>
      <trkpt lat="47.49309" lon="6.77343">
        <ele>310.1</ele>
        <time>2019-08-16T14:31:04Z</time>
      </trkpt>
      <trkpt lat="47.49303" lon="6.77341">
        <ele>310.1</ele>
        <time>2019-08-16T14:31:05Z</time>
      </trkpt>
      <trkpt lat="47.49298" lon="6.7734">
        <ele>310</ele>
        <time>2019-08-16T14:31:06Z</time>
      </trkpt>
      <trkpt lat="47.49291" lon="6.7734">
        <ele>310</ele>
        <time>2019-08-16T14:31:07Z</time>
      </trkpt>
      <trkpt lat="47.49286" lon="6.77339">
        <ele>310</ele>
        <time>2019-08-16T14:31:08Z</time>
      </trkpt>
      <trkpt lat="47.4928" lon="6.7734">
        <ele>310.1</ele>
        <time>2019-08-16T14:31:09Z</time>
      </trkpt>
      <trkpt lat="47.49274" lon="6.77339">
        <ele>310.1</ele>
        <time>2019-08-16T14:31:10Z</time>
      </trkpt>
      <trkpt lat="47.49269" lon="6.77337">
        <ele>310.1</ele>
        <time>2019-08-16T14:31:11Z</time>
      </trkpt>
      <trkpt lat="47.49265" lon="6.77335">
        <ele>310.1</ele>
        <time>2019-08-16T14:31:12Z</time>
      </trkpt>
      <trkpt lat="47.4926" lon="6.77334">
        <ele>310</ele>
        <time>2019-08-16T14:31:13Z</time>
      </trkpt>
      <trkpt lat="47.49257" lon="6.77333">
        <ele>310</ele>
        <time>2019-08-16T14:31:14Z</time>
      </trkpt>
      <trkpt lat="47.49254" lon="6.77332">
        <ele>310</ele>
        <time>2019-08-16T14:31:15Z</time>
      </trkpt>
      <trkpt lat="47.49251" lon="6.77334">
        <ele>310</ele>
        <time>2019-08-16T14:31:16Z</time>
      </trkpt>
      <trkpt lat="47.49248" lon="6.77336">
        <ele>310</ele>
        <time>2019-08-16T14:31:17Z</time>
      </trkpt>
      <trkpt lat="47.49245" lon="6.77338">
        <ele>310</ele>
        <time>2019-08-16T14:31:18Z</time>
      </trkpt>
      <trkpt lat="47.4924" lon="6.77338">
        <ele>310.1</ele>
        <time>2019-08-16T14:31:19Z</time>
      </trkpt>
      <trkpt lat="47.49235" lon="6.77338">
        <ele>310.1</ele>
        <time>2019-08-16T14:31:20Z</time>
      </trkpt>
      <trkpt lat="47.4923" lon="6.77338">
        <ele>310.1</ele>
        <time>2019-08-16T14:31:21Z</time>
      </trkpt>
      <trkpt lat="47.49225" lon="6.77337">
        <ele>310.1</ele>
        <time>2019-08-16T14:31:22Z</time>
      </trkpt>
      <trkpt lat="47.4922" lon="6.77337">
        <ele>310.1</ele>
        <time>2019-08-16T14:31:23Z</time>
      </trkpt>
      <trkpt lat="47.49216" lon="6.77336">
        <ele>310.1</ele>
        <time>2019-08-16T14:31:24Z</time>
      </trkpt>
      <trkpt lat="47.49211" lon="6.77335">
        <ele>310.1</ele>
        <time>2019-08-16T14:31:25Z</time>
      </trkpt>
      <trkpt lat="47.49207" lon="6.77335">
        <ele>310.1</ele>
        <time>2019-08-16T14:31:26Z</time>
      </trkpt>
      <trkpt lat="47.49203" lon="6.77335">
        <ele>310.2</ele>
        <time>2019-08-16T14:31:27Z</time>
      </trkpt>
      <trkpt lat="47.49199" lon="6.77334">
        <ele>310.2</ele>
        <time>2019-08-16T14:31:28Z</time>
      </trkpt>
      <trkpt lat="47.49194" lon="6.77333">
        <ele>310.2</ele>
        <time>2019-08-16T14:31:29Z</time>
      </trkpt>
      <trkpt lat="47.4919" lon="6.77333">
        <ele>310.2</ele>
        <time>2019-08-16T14:31:30Z</time>
      </trkpt>
      <trkpt lat="47.49186" lon="6.77333">
        <ele>310.2</ele>
        <time>2019-08-16T14:31:31Z</time>
      </trkpt>
      <trkpt lat="47.49182" lon="6.77333">
        <ele>310.2</ele>
        <time>2019-08-16T14:31:32Z</time>
      </trkpt>
      <trkpt lat="47.49178" lon="6.77333">
        <ele>310.2</ele>
        <time>2019-08-16T14:31:33Z</time>
      </trkpt>
      <trkpt lat="47.49173" lon="6.77334">
        <ele>310.3</ele>
        <time>2019-08-16T14:31:34Z</time>
      </trkpt>
      <trkpt lat="47.49168" lon="6.77334">
        <ele>310.3</ele>
        <time>2019-08-16T14:31:35Z</time>
      </trkpt>
      <trkpt lat="47.49163" lon="6.77335">
        <ele>310.3</ele>
        <time>2019-08-16T14:31:36Z</time>
      </trkpt>
      <trkpt lat="47.49158" lon="6.77334">
        <ele>310.3</ele>
        <time>2019-08-16T14:31:37Z</time>
      </trkpt>
      <trkpt lat="47.49154" lon="6.77333">
        <ele>310.3</ele>
        <time>2019-08-16T14:31:38Z</time>
      </trkpt>
      <trkpt lat="47.49149" lon="6.77332">
        <ele>310.4</ele>
        <time>2019-08-16T14:31:39Z</time>
      </trkpt>
      <trkpt lat="47.49143" lon="6.77331">
        <ele>310.4</ele>
        <time>2019-08-16T14:31:40Z</time>
      </trkpt>
      <trkpt lat="47.49138" lon="6.77331">
        <ele>310.5</ele>
        <time>2019-08-16T14:31:41Z</time>
      </trkpt>
      <trkpt lat="47.49133" lon="6.77332">
        <ele>310.5</ele>
        <time>2019-08-16T14:31:42Z</time>
      </trkpt>
      <trkpt lat="47.49128" lon="6.77332">
        <ele>310.6</ele>
        <time>2019-08-16T14:31:43Z</time>
      </trkpt>
      <trkpt lat="47.49122" lon="6.77332">
        <ele>310.6</ele>
        <time>2019-08-16T14:31:44Z</time>
      </trkpt>
      <trkpt lat="47.49117" lon="6.77332">
        <ele>310.7</ele>
        <time>2019-08-16T14:31:45Z</time>
      </trkpt>
      <trkpt lat="47.49112" lon="6.77332">
        <ele>310.8</ele>
        <time>2019-08-16T14:31:46Z</time>
      </trkpt>
      <trkpt lat="47.49107" lon="6.77333">
        <ele>310.8</ele>
        <time>2019-08-16T14:31:47Z</time>
      </trkpt>
      <trkpt lat="47.49102" lon="6.77333">
        <ele>310.9</ele>
        <time>2019-08-16T14:31:48Z</time>
      </trkpt>
      <trkpt lat="47.49098" lon="6.77334">
        <ele>310.9</ele>
        <time>2019-08-16T14:31:49Z</time>
      </trkpt>
      <trkpt lat="47.49092" lon="6.77334">
        <ele>310.9</ele>
        <time>2019-08-16T14:31:50Z</time>
      </trkpt>
      <trkpt lat="47.49087" lon="6.77333">
        <ele>310.9</ele>
        <time>2019-08-16T14:31:51Z</time>
      </trkpt>
      <trkpt lat="47.49082" lon="6.77333">
        <ele>310.9</ele>
        <time>2019-08-16T14:31:52Z</time>
      </trkpt>
      <trkpt lat="47.49078" lon="6.77333">
        <ele>310.9</ele>
        <time>2019-08-16T14:31:53Z</time>
      </trkpt>
      <trkpt lat="47.49073" lon="6.77333">
        <ele>310.9</ele>
        <time>2019-08-16T14:31:54Z</time>
      </trkpt>
      <trkpt lat="47.49069" lon="6.77332">
        <ele>310.9</ele>
        <time>2019-08-16T14:31:55Z</time>
      </trkpt>
      <trkpt lat="47.49064" lon="6.77332">
        <ele>310.9</ele>
        <time>2019-08-16T14:31:56Z</time>
      </trkpt>
      <trkpt lat="47.49058" lon="6.77333">
        <ele>311</ele>
        <time>2019-08-16T14:31:57Z</time>
      </trkpt>
      <trkpt lat="47.49053" lon="6.77332">
        <ele>311</ele>
        <time>2019-08-16T14:31:58Z</time>
      </trkpt>
      <trkpt lat="47.49049" lon="6.77332">
        <ele>311</ele>
        <time>2019-08-16T14:31:59Z</time>
      </trkpt>
      <trkpt lat="47.49044" lon="6.77331">
        <ele>311</ele>
        <time>2019-08-16T14:32:00Z</time>
      </trkpt>
      <trkpt lat="47.49039" lon="6.7733">
        <ele>311</ele>
        <time>2019-08-16T14:32:01Z</time>
      </trkpt>
      <trkpt lat="47.49035" lon="6.7733">
        <ele>311</ele>
        <time>2019-08-16T14:32:02Z</time>
      </trkpt>
      <trkpt lat="47.4903" lon="6.7733">
        <ele>311</ele>
        <time>2019-08-16T14:32:03Z</time>
      </trkpt>
      <trkpt lat="47.49024" lon="6.77329">
        <ele>311</ele>
        <time>2019-08-16T14:32:04Z</time>
      </trkpt>
      <trkpt lat="47.49019" lon="6.77329">
        <ele>311</ele>
        <time>2019-08-16T14:32:05Z</time>
      </trkpt>
      <trkpt lat="47.49015" lon="6.77329">
        <ele>311</ele>
        <time>2019-08-16T14:32:06Z</time>
      </trkpt>
      <trkpt lat="47.4901" lon="6.77328">
        <ele>311</ele>
        <time>2019-08-16T14:32:07Z</time>
      </trkpt>
      <trkpt lat="47.49006" lon="6.77327">
        <ele>311</ele>
        <time>2019-08-16T14:32:08Z</time>
      </trkpt>
      <trkpt lat="47.49001" lon="6.77326">
        <ele>311</ele>
        <time>2019-08-16T14:32:09Z</time>
      </trkpt>
      <trkpt lat="47.48997" lon="6.77328">
        <ele>311</ele>
        <time>2019-08-16T14:32:10Z</time>
      </trkpt>
      <trkpt lat="47.48992" lon="6.77327">
        <ele>311</ele>
        <time>2019-08-16T14:32:11Z</time>
      </trkpt>
      <trkpt lat="47.48988" lon="6.77325">
        <ele>311</ele>
        <time>2019-08-16T14:32:12Z</time>
      </trkpt>
      <trkpt lat="47.48983" lon="6.77324">
        <ele>311</ele>
        <time>2019-08-16T14:32:13Z</time>
      </trkpt>
      <trkpt lat="47.48979" lon="6.77324">
        <ele>311</ele>
        <time>2019-08-16T14:32:14Z</time>
      </trkpt>
      <trkpt lat="47.48975" lon="6.77323">
        <ele>311</ele>
        <time>2019-08-16T14:32:15Z</time>
      </trkpt>
      <trkpt lat="47.4897" lon="6.77323">
        <ele>311</ele>
        <time>2019-08-16T14:32:16Z</time>
      </trkpt>
      <trkpt lat="47.48965" lon="6.77323">
        <ele>311</ele>
        <time>2019-08-16T14:32:17Z</time>
      </trkpt>
      <trkpt lat="47.4896" lon="6.77322">
        <ele>311</ele>
        <time>2019-08-16T14:32:18Z</time>
      </trkpt>
      <trkpt lat="47.48955" lon="6.7732">
        <ele>311</ele>
        <time>2019-08-16T14:32:19Z</time>
      </trkpt>
      <trkpt lat="47.4895" lon="6.77318">
        <ele>310.9</ele>
        <time>2019-08-16T14:32:20Z</time>
      </trkpt>
      <trkpt lat="47.48945" lon="6.77316">
        <ele>310.9</ele>
        <time>2019-08-16T14:32:21Z</time>
      </trkpt>
      <trkpt lat="47.4894" lon="6.77315">
        <ele>310.9</ele>
        <time>2019-08-16T14:32:22Z</time>
      </trkpt>
      <trkpt lat="47.48935" lon="6.77313">
        <ele>310.9</ele>
        <time>2019-08-16T14:32:23Z</time>
      </trkpt>
      <trkpt lat="47.48931" lon="6.7731">
        <ele>310.9</ele>
        <time>2019-08-16T14:32:24Z</time>
      </trkpt>
      <trkpt lat="47.48926" lon="6.77308">
        <ele>310.9</ele>
        <time>2019-08-16T14:32:25Z</time>
      </trkpt>
      <trkpt lat="47.48921" lon="6.77307">
        <ele>310.9</ele>
        <time>2019-08-16T14:32:26Z</time>
      </trkpt>
      <trkpt lat="47.48917" lon="6.77305">
        <ele>310.9</ele>
        <time>2019-08-16T14:32:27Z</time>
      </trkpt>
      <trkpt lat="47.48913" lon="6.77304">
        <ele>310.9</ele>
        <time>2019-08-16T14:32:28Z</time>
      </trkpt>
      <trkpt lat="47.48909" lon="6.77302">
        <ele>310.9</ele>
        <time>2019-08-16T14:32:29Z</time>
      </trkpt>
      <trkpt lat="47.48904" lon="6.773">
        <ele>310.9</ele>
        <time>2019-08-16T14:32:30Z</time>
      </trkpt>
      <trkpt lat="47.489" lon="6.77298">
        <ele>310.9</ele>
        <time>2019-08-16T14:32:31Z</time>
      </trkpt>
      <trkpt lat="47.48895" lon="6.77296">
        <ele>310.9</ele>
        <time>2019-08-16T14:32:32Z</time>
      </trkpt>
      <trkpt lat="47.4889" lon="6.77294">
        <ele>310.9</ele>
        <time>2019-08-16T14:32:33Z</time>
      </trkpt>
      <trkpt lat="47.48885" lon="6.77292">
        <ele>310.9</ele>
        <time>2019-08-16T14:32:34Z</time>
      </trkpt>
      <trkpt lat="47.4888" lon="6.77291">
        <ele>311</ele>
        <time>2019-08-16T14:32:35Z</time>
      </trkpt>
      <trkpt lat="47.48874" lon="6.77289">
        <ele>311</ele>
        <time>2019-08-16T14:32:36Z</time>
      </trkpt>
      <trkpt lat="47.48869" lon="6.77287">
        <ele>311</ele>
        <time>2019-08-16T14:32:37Z</time>
      </trkpt>
      <trkpt lat="47.48864" lon="6.77285">
        <ele>311</ele>
        <time>2019-08-16T14:32:38Z</time>
      </trkpt>
      <trkpt lat="47.48859" lon="6.77283">
        <ele>311.1</ele>
        <time>2019-08-16T14:32:39Z</time>
      </trkpt>
      <trkpt lat="47.48854" lon="6.77281">
        <ele>311.1</ele>
        <time>2019-08-16T14:32:40Z</time>
      </trkpt>
      <trkpt lat="47.4885" lon="6.77279">
        <ele>311.1</ele>
        <time>2019-08-16T14:32:41Z</time>
      </trkpt>
      <trkpt lat="47.48845" lon="6.77277">
        <ele>311.1</ele>
        <time>2019-08-16T14:32:42Z</time>
      </trkpt>
      <trkpt lat="47.48841" lon="6.77276">
        <ele>311.2</ele>
        <time>2019-08-16T14:32:43Z</time>
      </trkpt>
      <trkpt lat="47.48836" lon="6.77274">
        <ele>311.2</ele>
        <time>2019-08-16T14:32:44Z</time>
      </trkpt>
      <trkpt lat="47.48831" lon="6.77272">
        <ele>311.2</ele>
        <time>2019-08-16T14:32:45Z</time>
      </trkpt>
      <trkpt lat="47.48826" lon="6.77267">
        <ele>311.2</ele>
        <time>2019-08-16T14:32:46Z</time>
      </trkpt>
      <trkpt lat="47.48822" lon="6.77264">
        <ele>311.3</ele>
        <time>2019-08-16T14:32:47Z</time>
      </trkpt>
      <trkpt lat="47.48817" lon="6.7726">
        <ele>311.3</ele>
        <time>2019-08-16T14:32:48Z</time>
      </trkpt>
      <trkpt lat="47.48812" lon="6.77257">
        <ele>311.3</ele>
        <time>2019-08-16T14:32:49Z</time>
      </trkpt>
      <trkpt lat="47.48808" lon="6.77254">
        <ele>311.3</ele>
        <time>2019-08-16T14:32:50Z</time>
      </trkpt>
      <trkpt lat="47.48804" lon="6.7725">
        <ele>311.3</ele>
        <time>2019-08-16T14:32:51Z</time>
      </trkpt>
      <trkpt lat="47.488" lon="6.77247">
        <ele>311.3</ele>
        <time>2019-08-16T14:32:52Z</time>
      </trkpt>
      <trkpt lat="47.48795" lon="6.77244">
        <ele>311.3</ele>
        <time>2019-08-16T14:32:53Z</time>
      </trkpt>
      <trkpt lat="47.4879" lon="6.7724">
        <ele>311.3</ele>
        <time>2019-08-16T14:32:54Z</time>
      </trkpt>
      <trkpt lat="47.48786" lon="6.77236">
        <ele>311.3</ele>
        <time>2019-08-16T14:32:55Z</time>
      </trkpt>
      <trkpt lat="47.48782" lon="6.77233">
        <ele>311.3</ele>
        <time>2019-08-16T14:32:56Z</time>
      </trkpt>
      <trkpt lat="47.48777" lon="6.77229">
        <ele>311.4</ele>
        <time>2019-08-16T14:32:57Z</time>
      </trkpt>
      <trkpt lat="47.48772" lon="6.77226">
        <ele>311.4</ele>
        <time>2019-08-16T14:32:58Z</time>
      </trkpt>
      <trkpt lat="47.4877" lon="6.77223">
        <ele>311.4</ele>
        <time>2019-08-16T14:32:59Z</time>
      </trkpt>
      <trkpt lat="47.48765" lon="6.77218">
        <ele>311.4</ele>
        <time>2019-08-16T14:33:00Z</time>
      </trkpt>
      <trkpt lat="47.48762" lon="6.77215">
        <ele>311.4</ele>
        <time>2019-08-16T14:33:01Z</time>
      </trkpt>
      <trkpt lat="47.48757" lon="6.77212">
        <ele>311.4</ele>
        <time>2019-08-16T14:33:02Z</time>
      </trkpt>
      <trkpt lat="47.48753" lon="6.77208">
        <ele>311.4</ele>
        <time>2019-08-16T14:33:03Z</time>
      </trkpt>
      <trkpt lat="47.48748" lon="6.77205">
        <ele>311.4</ele>
        <time>2019-08-16T14:33:04Z</time>
      </trkpt>
      <trkpt lat="47.48743" lon="6.77202">
        <ele>311.4</ele>
        <time>2019-08-16T14:33:05Z</time>
      </trkpt>
      <trkpt lat="47.48739" lon="6.77199">
        <ele>311.4</ele>
        <time>2019-08-16T14:33:06Z</time>
      </trkpt>
      <trkpt lat="47.48734" lon="6.77195">
        <ele>311.4</ele>
        <time>2019-08-16T14:33:07Z</time>
      </trkpt>
      <trkpt lat="47.48729" lon="6.77191">
        <ele>311.4</ele>
        <time>2019-08-16T14:33:08Z</time>
      </trkpt>
      <trkpt lat="47.48725" lon="6.77188">
        <ele>311.4</ele>
        <time>2019-08-16T14:33:09Z</time>
      </trkpt>
      <trkpt lat="47.48721" lon="6.77184">
        <ele>311.4</ele>
        <time>2019-08-16T14:33:10Z</time>
      </trkpt>
      <trkpt lat="47.48718" lon="6.77181">
        <ele>311.4</ele>
        <time>2019-08-16T14:33:11Z</time>
      </trkpt>
      <trkpt lat="47.48713" lon="6.77176">
        <ele>311.4</ele>
        <time>2019-08-16T14:33:12Z</time>
      </trkpt>
      <trkpt lat="47.48709" lon="6.77172">
        <ele>311.4</ele>
        <time>2019-08-16T14:33:13Z</time>
      </trkpt>
      <trkpt lat="47.48705" lon="6.77168">
        <ele>311.4</ele>
        <time>2019-08-16T14:33:14Z</time>
      </trkpt>
      <trkpt lat="47.48701" lon="6.77165">
        <ele>311.5</ele>
        <time>2019-08-16T14:33:15Z</time>
      </trkpt>
      <trkpt lat="47.48697" lon="6.77162">
        <ele>311.5</ele>
        <time>2019-08-16T14:33:16Z</time>
      </trkpt>
      <trkpt lat="47.48694" lon="6.77162">
        <ele>311.5</ele>
        <time>2019-08-16T14:33:17Z</time>
      </trkpt>
      <trkpt lat="47.4869" lon="6.77159">
        <ele>311.5</ele>
        <time>2019-08-16T14:33:18Z</time>
      </trkpt>
      <trkpt lat="47.48687" lon="6.77156">
        <ele>311.5</ele>
        <time>2019-08-16T14:33:19Z</time>
      </trkpt>
      <trkpt lat="47.48683" lon="6.77153">
        <ele>311.5</ele>
        <time>2019-08-16T14:33:20Z</time>
      </trkpt>
      <trkpt lat="47.4868" lon="6.7715">
        <ele>311.6</ele>
        <time>2019-08-16T14:33:21Z</time>
      </trkpt>
      <trkpt lat="47.48677" lon="6.77146">
        <ele>311.6</ele>
        <time>2019-08-16T14:33:22Z</time>
      </trkpt>
      <trkpt lat="47.48673" lon="6.77143">
        <ele>311.6</ele>
        <time>2019-08-16T14:33:23Z</time>
      </trkpt>
      <trkpt lat="47.4867" lon="6.7714">
        <ele>311.6</ele>
        <time>2019-08-16T14:33:24Z</time>
      </trkpt>
      <trkpt lat="47.48666" lon="6.77136">
        <ele>311.7</ele>
        <time>2019-08-16T14:33:25Z</time>
      </trkpt>
      <trkpt lat="47.48662" lon="6.77132">
        <ele>311.7</ele>
        <time>2019-08-16T14:33:26Z</time>
      </trkpt>
      <trkpt lat="47.48659" lon="6.77128">
        <ele>311.8</ele>
        <time>2019-08-16T14:33:27Z</time>
      </trkpt>
      <trkpt lat="47.48655" lon="6.77124">
        <ele>311.8</ele>
        <time>2019-08-16T14:33:28Z</time>
      </trkpt>
      <trkpt lat="47.48651" lon="6.7712">
        <ele>311.9</ele>
        <time>2019-08-16T14:33:29Z</time>
      </trkpt>
      <trkpt lat="47.48648" lon="6.77116">
        <ele>311.9</ele>
        <time>2019-08-16T14:33:30Z</time>
      </trkpt>
      <trkpt lat="47.48644" lon="6.77113">
        <ele>312</ele>
        <time>2019-08-16T14:33:31Z</time>
      </trkpt>
      <trkpt lat="47.4864" lon="6.77108">
        <ele>312.1</ele>
        <time>2019-08-16T14:33:32Z</time>
      </trkpt>
      <trkpt lat="47.48637" lon="6.77103">
        <ele>312.2</ele>
        <time>2019-08-16T14:33:33Z</time>
      </trkpt>
      <trkpt lat="47.48633" lon="6.77099">
        <ele>312.3</ele>
        <time>2019-08-16T14:33:34Z</time>
      </trkpt>
      <trkpt lat="47.48629" lon="6.77095">
        <ele>312.4</ele>
        <time>2019-08-16T14:33:35Z</time>
      </trkpt>
      <trkpt lat="47.48626" lon="6.77092">
        <ele>312.5</ele>
        <time>2019-08-16T14:33:36Z</time>
      </trkpt>
      <trkpt lat="47.48622" lon="6.77089">
        <ele>312.7</ele>
        <time>2019-08-16T14:33:37Z</time>
      </trkpt>
      <trkpt lat="47.48618" lon="6.77088">
        <ele>312.9</ele>
        <time>2019-08-16T14:33:38Z</time>
      </trkpt>
      <trkpt lat="47.48616" lon="6.77085">
        <ele>313.1</ele>
        <time>2019-08-16T14:33:39Z</time>
      </trkpt>
      <trkpt lat="47.48613" lon="6.77083">
        <ele>313.2</ele>
        <time>2019-08-16T14:33:40Z</time>
      </trkpt>
      <trkpt lat="47.4861" lon="6.7708">
        <ele>313.4</ele>
        <time>2019-08-16T14:33:41Z</time>
      </trkpt>
      <trkpt lat="47.48605" lon="6.77076">
        <ele>313.6</ele>
        <time>2019-08-16T14:33:43Z</time>
      </trkpt>
      <trkpt lat="47.48602" lon="6.77072">
        <ele>313.7</ele>
        <time>2019-08-16T14:33:44Z</time>
      </trkpt>
      <trkpt lat="47.48599" lon="6.77069">
        <ele>313.9</ele>
        <time>2019-08-16T14:33:45Z</time>
      </trkpt>
      <trkpt lat="47.48596" lon="6.77064">
        <ele>314</ele>
        <time>2019-08-16T14:33:46Z</time>
      </trkpt>
      <trkpt lat="47.48592" lon="6.7706">
        <ele>314.1</ele>
        <time>2019-08-16T14:33:47Z</time>
      </trkpt>
      <trkpt lat="47.48589" lon="6.77059">
        <ele>314.1</ele>
        <time>2019-08-16T14:33:48Z</time>
      </trkpt>
      <trkpt lat="47.48584" lon="6.77058">
        <ele>314.2</ele>
        <time>2019-08-16T14:33:49Z</time>
      </trkpt>
      <trkpt lat="47.4858" lon="6.77057">
        <ele>314.2</ele>
        <time>2019-08-16T14:33:50Z</time>
      </trkpt>
      <trkpt lat="47.48576" lon="6.77056">
        <ele>314.2</ele>
        <time>2019-08-16T14:33:51Z</time>
      </trkpt>
      <trkpt lat="47.48571" lon="6.77055">
        <ele>314.1</ele>
        <time>2019-08-16T14:33:52Z</time>
      </trkpt>
      <trkpt lat="47.48567" lon="6.77054">
        <ele>314.1</ele>
        <time>2019-08-16T14:33:53Z</time>
      </trkpt>
      <trkpt lat="47.48562" lon="6.77052">
        <ele>314</ele>
        <time>2019-08-16T14:33:54Z</time>
      </trkpt>
      <trkpt lat="47.48557" lon="6.77049">
        <ele>313.9</ele>
        <time>2019-08-16T14:33:55Z</time>
      </trkpt>
      <trkpt lat="47.48552" lon="6.77048">
        <ele>313.7</ele>
        <time>2019-08-16T14:33:56Z</time>
      </trkpt>
      <trkpt lat="47.48547" lon="6.77046">
        <ele>313.6</ele>
        <time>2019-08-16T14:33:57Z</time>
      </trkpt>
      <trkpt lat="47.48542" lon="6.77043">
        <ele>313.5</ele>
        <time>2019-08-16T14:33:58Z</time>
      </trkpt>
      <trkpt lat="47.48535" lon="6.7704">
        <ele>313.4</ele>
        <time>2019-08-16T14:33:59Z</time>
      </trkpt>
      <trkpt lat="47.4853" lon="6.77035">
        <ele>313.2</ele>
        <time>2019-08-16T14:34:00Z</time>
      </trkpt>
      <trkpt lat="47.48524" lon="6.7703">
        <ele>313.1</ele>
        <time>2019-08-16T14:34:01Z</time>
      </trkpt>
      <trkpt lat="47.48519" lon="6.77024">
        <ele>313</ele>
        <time>2019-08-16T14:34:02Z</time>
      </trkpt>
      <trkpt lat="47.48514" lon="6.7702">
        <ele>312.9</ele>
        <time>2019-08-16T14:34:03Z</time>
      </trkpt>
      <trkpt lat="47.48509" lon="6.77016">
        <ele>312.9</ele>
        <time>2019-08-16T14:34:04Z</time>
      </trkpt>
      <trkpt lat="47.48504" lon="6.77012">
        <ele>312.8</ele>
        <time>2019-08-16T14:34:05Z</time>
      </trkpt>
      <trkpt lat="47.48498" lon="6.77008">
        <ele>312.6</ele>
        <time>2019-08-16T14:34:06Z</time>
      </trkpt>
      <trkpt lat="47.48492" lon="6.77004">
        <ele>312.5</ele>
        <time>2019-08-16T14:34:07Z</time>
      </trkpt>
      <trkpt lat="47.48487" lon="6.77">
        <ele>312.5</ele>
        <time>2019-08-16T14:34:08Z</time>
      </trkpt>
      <trkpt lat="47.48481" lon="6.76995">
        <ele>312.5</ele>
        <time>2019-08-16T14:34:09Z</time>
      </trkpt>
      <trkpt lat="47.48476" lon="6.76992">
        <ele>312.5</ele>
        <time>2019-08-16T14:34:10Z</time>
      </trkpt>
      <trkpt lat="47.48471" lon="6.76987">
        <ele>312.6</ele>
        <time>2019-08-16T14:34:11Z</time>
      </trkpt>
      <trkpt lat="47.48467" lon="6.76983">
        <ele>312.8</ele>
        <time>2019-08-16T14:34:12Z</time>
      </trkpt>
      <trkpt lat="47.48463" lon="6.76979">
        <ele>312.9</ele>
        <time>2019-08-16T14:34:13Z</time>
      </trkpt>
      <trkpt lat="47.48458" lon="6.76976">
        <ele>313</ele>
        <time>2019-08-16T14:34:14Z</time>
      </trkpt>
      <trkpt lat="47.48453" lon="6.76972">
        <ele>313.1</ele>
        <time>2019-08-16T14:34:15Z</time>
      </trkpt>
      <trkpt lat="47.48449" lon="6.76968">
        <ele>313.1</ele>
        <time>2019-08-16T14:34:16Z</time>
      </trkpt>
      <trkpt lat="47.48445" lon="6.76966">
        <ele>313.1</ele>
        <time>2019-08-16T14:34:17Z</time>
      </trkpt>
      <trkpt lat="47.4844" lon="6.76964">
        <ele>313</ele>
        <time>2019-08-16T14:34:18Z</time>
      </trkpt>
      <trkpt lat="47.48436" lon="6.76962">
        <ele>313</ele>
        <time>2019-08-16T14:34:19Z</time>
      </trkpt>
      <trkpt lat="47.48432" lon="6.76959">
        <ele>313</ele>
        <time>2019-08-16T14:34:20Z</time>
      </trkpt>
      <trkpt lat="47.48427" lon="6.76957">
        <ele>313</ele>
        <time>2019-08-16T14:34:21Z</time>
      </trkpt>
      <trkpt lat="47.48422" lon="6.76956">
        <ele>313</ele>
        <time>2019-08-16T14:34:22Z</time>
      </trkpt>
      <trkpt lat="47.48417" lon="6.76953">
        <ele>313</ele>
        <time>2019-08-16T14:34:23Z</time>
      </trkpt>
      <trkpt lat="47.48412" lon="6.76951">
        <ele>313</ele>
        <time>2019-08-16T14:34:24Z</time>
      </trkpt>
      <trkpt lat="47.48407" lon="6.76949">
        <ele>313</ele>
        <time>2019-08-16T14:34:25Z</time>
      </trkpt>
      <trkpt lat="47.48403" lon="6.76946">
        <ele>313.1</ele>
        <time>2019-08-16T14:34:26Z</time>
      </trkpt>
      <trkpt lat="47.48398" lon="6.76943">
        <ele>313.1</ele>
        <time>2019-08-16T14:34:27Z</time>
      </trkpt>
      <trkpt lat="47.48393" lon="6.7694">
        <ele>313.2</ele>
        <time>2019-08-16T14:34:28Z</time>
      </trkpt>
      <trkpt lat="47.48389" lon="6.76938">
        <ele>313.2</ele>
        <time>2019-08-16T14:34:29Z</time>
      </trkpt>
      <trkpt lat="47.48385" lon="6.76936">
        <ele>313.2</ele>
        <time>2019-08-16T14:34:30Z</time>
      </trkpt>
      <trkpt lat="47.4838" lon="6.76934">
        <ele>313.3</ele>
        <time>2019-08-16T14:34:31Z</time>
      </trkpt>
      <trkpt lat="47.48375" lon="6.76932">
        <ele>313.3</ele>
        <time>2019-08-16T14:34:32Z</time>
      </trkpt>
      <trkpt lat="47.4837" lon="6.7693">
        <ele>313.4</ele>
        <time>2019-08-16T14:34:33Z</time>
      </trkpt>
      <trkpt lat="47.48365" lon="6.76927">
        <ele>313.4</ele>
        <time>2019-08-16T14:34:34Z</time>
      </trkpt>
      <trkpt lat="47.48361" lon="6.76925">
        <ele>313.5</ele>
        <time>2019-08-16T14:34:35Z</time>
      </trkpt>
      <trkpt lat="47.48356" lon="6.76922">
        <ele>313.5</ele>
        <time>2019-08-16T14:34:36Z</time>
      </trkpt>
      <trkpt lat="47.48351" lon="6.7692">
        <ele>313.5</ele>
        <time>2019-08-16T14:34:37Z</time>
      </trkpt>
      <trkpt lat="47.48346" lon="6.76917">
        <ele>313.6</ele>
        <time>2019-08-16T14:34:38Z</time>
      </trkpt>
      <trkpt lat="47.48342" lon="6.76915">
        <ele>313.6</ele>
        <time>2019-08-16T14:34:39Z</time>
      </trkpt>
      <trkpt lat="47.48338" lon="6.76911">
        <ele>313.7</ele>
        <time>2019-08-16T14:34:40Z</time>
      </trkpt>
      <trkpt lat="47.48334" lon="6.7691">
        <ele>313.7</ele>
        <time>2019-08-16T14:34:41Z</time>
      </trkpt>
      <trkpt lat="47.4833" lon="6.76907">
        <ele>313.8</ele>
        <time>2019-08-16T14:34:42Z</time>
      </trkpt>
      <trkpt lat="47.48326" lon="6.76904">
        <ele>313.8</ele>
        <time>2019-08-16T14:34:43Z</time>
      </trkpt>
      <trkpt lat="47.48322" lon="6.769">
        <ele>313.8</ele>
        <time>2019-08-16T14:34:44Z</time>
      </trkpt>
      <trkpt lat="47.48318" lon="6.76898">
        <ele>313.9</ele>
        <time>2019-08-16T14:34:45Z</time>
      </trkpt>
      <trkpt lat="47.48315" lon="6.76894">
        <ele>313.9</ele>
        <time>2019-08-16T14:34:46Z</time>
      </trkpt>
      <trkpt lat="47.48311" lon="6.7689">
        <ele>314</ele>
        <time>2019-08-16T14:34:47Z</time>
      </trkpt>
      <trkpt lat="47.48308" lon="6.76886">
        <ele>314.1</ele>
        <time>2019-08-16T14:34:48Z</time>
      </trkpt>
      <trkpt lat="47.48304" lon="6.76882">
        <ele>314.1</ele>
        <time>2019-08-16T14:34:49Z</time>
      </trkpt>
      <trkpt lat="47.48301" lon="6.76879">
        <ele>314.2</ele>
        <time>2019-08-16T14:34:50Z</time>
      </trkpt>
      <trkpt lat="47.48297" lon="6.76875">
        <ele>314.4</ele>
        <time>2019-08-16T14:34:51Z</time>
      </trkpt>
      <trkpt lat="47.48293" lon="6.76872">
        <ele>314.5</ele>
        <time>2019-08-16T14:34:52Z</time>
      </trkpt>
      <trkpt lat="47.4829" lon="6.76869">
        <ele>314.6</ele>
        <time>2019-08-16T14:34:53Z</time>
      </trkpt>
      <trkpt lat="47.48285" lon="6.76867">
        <ele>314.8</ele>
        <time>2019-08-16T14:34:54Z</time>
      </trkpt>
      <trkpt lat="47.48281" lon="6.76863">
        <ele>315</ele>
        <time>2019-08-16T14:34:55Z</time>
      </trkpt>
      <trkpt lat="47.48277" lon="6.76859">
        <ele>315.1</ele>
        <time>2019-08-16T14:34:56Z</time>
      </trkpt>
      <trkpt lat="47.48273" lon="6.76854">
        <ele>315.2</ele>
        <time>2019-08-16T14:34:57Z</time>
      </trkpt>
      <trkpt lat="47.4827" lon="6.76849">
        <ele>315.3</ele>
        <time>2019-08-16T14:34:58Z</time>
      </trkpt>
      <trkpt lat="47.48266" lon="6.76845">
        <ele>315.4</ele>
        <time>2019-08-16T14:34:59Z</time>
      </trkpt>
      <trkpt lat="47.48262" lon="6.7684">
        <ele>315.5</ele>
        <time>2019-08-16T14:35:00Z</time>
      </trkpt>
      <trkpt lat="47.48258" lon="6.76834">
        <ele>315.5</ele>
        <time>2019-08-16T14:35:01Z</time>
      </trkpt>
      <trkpt lat="47.48255" lon="6.76829">
        <ele>315.6</ele>
        <time>2019-08-16T14:35:02Z</time>
      </trkpt>
      <trkpt lat="47.48251" lon="6.76823">
        <ele>315.6</ele>
        <time>2019-08-16T14:35:03Z</time>
      </trkpt>
      <trkpt lat="47.48248" lon="6.76818">
        <ele>315.6</ele>
        <time>2019-08-16T14:35:04Z</time>
      </trkpt>
      <trkpt lat="47.48245" lon="6.76812">
        <ele>315.7</ele>
        <time>2019-08-16T14:35:05Z</time>
      </trkpt>
      <trkpt lat="47.48241" lon="6.76807">
        <ele>315.7</ele>
        <time>2019-08-16T14:35:06Z</time>
      </trkpt>
      <trkpt lat="47.48237" lon="6.76803">
        <ele>315.8</ele>
        <time>2019-08-16T14:35:07Z</time>
      </trkpt>
      <trkpt lat="47.48233" lon="6.768">
        <ele>315.8</ele>
        <time>2019-08-16T14:35:08Z</time>
      </trkpt>
      <trkpt lat="47.48228" lon="6.76799">
        <ele>315.9</ele>
        <time>2019-08-16T14:35:09Z</time>
      </trkpt>
      <trkpt lat="47.48224" lon="6.76797">
        <ele>315.9</ele>
        <time>2019-08-16T14:35:10Z</time>
      </trkpt>
      <trkpt lat="47.4822" lon="6.76795">
        <ele>315.9</ele>
        <time>2019-08-16T14:35:11Z</time>
      </trkpt>
      <trkpt lat="47.48215" lon="6.76792">
        <ele>316</ele>
        <time>2019-08-16T14:35:12Z</time>
      </trkpt>
      <trkpt lat="47.48211" lon="6.76789">
        <ele>316</ele>
        <time>2019-08-16T14:35:13Z</time>
      </trkpt>
      <trkpt lat="47.48207" lon="6.76786">
        <ele>316.1</ele>
        <time>2019-08-16T14:35:14Z</time>
      </trkpt>
      <trkpt lat="47.48203" lon="6.76783">
        <ele>316.1</ele>
        <time>2019-08-16T14:35:15Z</time>
      </trkpt>
      <trkpt lat="47.48198" lon="6.76781">
        <ele>316.2</ele>
        <time>2019-08-16T14:35:16Z</time>
      </trkpt>
      <trkpt lat="47.48194" lon="6.76779">
        <ele>316.2</ele>
        <time>2019-08-16T14:35:17Z</time>
      </trkpt>
      <trkpt lat="47.48189" lon="6.76777">
        <ele>316.2</ele>
        <time>2019-08-16T14:35:18Z</time>
      </trkpt>
      <trkpt lat="47.48185" lon="6.76775">
        <ele>316.3</ele>
        <time>2019-08-16T14:35:19Z</time>
      </trkpt>
      <trkpt lat="47.48181" lon="6.76771">
        <ele>316.3</ele>
        <time>2019-08-16T14:35:20Z</time>
      </trkpt>
      <trkpt lat="47.48177" lon="6.76767">
        <ele>316.4</ele>
        <time>2019-08-16T14:35:21Z</time>
      </trkpt>
      <trkpt lat="47.48173" lon="6.76762">
        <ele>316.4</ele>
        <time>2019-08-16T14:35:22Z</time>
      </trkpt>
      <trkpt lat="47.48169" lon="6.76756">
        <ele>316.4</ele>
        <time>2019-08-16T14:35:23Z</time>
      </trkpt>
      <trkpt lat="47.48164" lon="6.76751">
        <ele>316.5</ele>
        <time>2019-08-16T14:35:24Z</time>
      </trkpt>
      <trkpt lat="47.4816" lon="6.76746">
        <ele>316.5</ele>
        <time>2019-08-16T14:35:25Z</time>
      </trkpt>
      <trkpt lat="47.48156" lon="6.76741">
        <ele>316.6</ele>
        <time>2019-08-16T14:35:26Z</time>
      </trkpt>
      <trkpt lat="47.48152" lon="6.76736">
        <ele>316.6</ele>
        <time>2019-08-16T14:35:27Z</time>
      </trkpt>
      <trkpt lat="47.48148" lon="6.76731">
        <ele>316.6</ele>
        <time>2019-08-16T14:35:28Z</time>
      </trkpt>
      <trkpt lat="47.48145" lon="6.76725">
        <ele>316.6</ele>
        <time>2019-08-16T14:35:29Z</time>
      </trkpt>
      <trkpt lat="47.48143" lon="6.76718">
        <ele>316.5</ele>
        <time>2019-08-16T14:35:30Z</time>
      </trkpt>
      <trkpt lat="47.4814" lon="6.76711">
        <ele>316.4</ele>
        <time>2019-08-16T14:35:31Z</time>
      </trkpt>
      <trkpt lat="47.48137" lon="6.76705">
        <ele>316.4</ele>
        <time>2019-08-16T14:35:32Z</time>
      </trkpt>
      <trkpt lat="47.48135" lon="6.767">
        <ele>316.3</ele>
        <time>2019-08-16T14:35:33Z</time>
      </trkpt>
      <trkpt lat="47.48132" lon="6.76694">
        <ele>316.3</ele>
        <time>2019-08-16T14:35:34Z</time>
      </trkpt>
      <trkpt lat="47.4813" lon="6.76689">
        <ele>316.4</ele>
        <time>2019-08-16T14:35:35Z</time>
      </trkpt>
      <trkpt lat="47.48127" lon="6.76683">
        <ele>316.4</ele>
        <time>2019-08-16T14:35:36Z</time>
      </trkpt>
      <trkpt lat="47.48125" lon="6.76677">
        <ele>316.6</ele>
        <time>2019-08-16T14:35:37Z</time>
      </trkpt>
      <trkpt lat="47.4812" lon="6.76675">
        <ele>316.8</ele>
        <time>2019-08-16T14:35:38Z</time>
      </trkpt>
      <trkpt lat="47.48116" lon="6.76671">
        <ele>317</ele>
        <time>2019-08-16T14:35:39Z</time>
      </trkpt>
      <trkpt lat="47.48113" lon="6.76667">
        <ele>317.3</ele>
        <time>2019-08-16T14:35:40Z</time>
      </trkpt>
      <trkpt lat="47.4811" lon="6.76662">
        <ele>317.6</ele>
        <time>2019-08-16T14:35:41Z</time>
      </trkpt>
      <trkpt lat="47.48106" lon="6.76658">
        <ele>317.9</ele>
        <time>2019-08-16T14:35:42Z</time>
      </trkpt>
      <trkpt lat="47.48103" lon="6.76654">
        <ele>318.2</ele>
        <time>2019-08-16T14:35:43Z</time>
      </trkpt>
      <trkpt lat="47.481" lon="6.76651">
        <ele>318.5</ele>
        <time>2019-08-16T14:35:44Z</time>
      </trkpt>
      <trkpt lat="47.48097" lon="6.76647">
        <ele>318.8</ele>
        <time>2019-08-16T14:35:45Z</time>
      </trkpt>
      <trkpt lat="47.48095" lon="6.76644">
        <ele>319</ele>
        <time>2019-08-16T14:35:46Z</time>
      </trkpt>
      <trkpt lat="47.48093" lon="6.76637">
        <ele>319.4</ele>
        <time>2019-08-16T14:35:48Z</time>
      </trkpt>
      <trkpt lat="47.48091" lon="6.76633">
        <ele>319.6</ele>
        <time>2019-08-16T14:35:49Z</time>
      </trkpt>
      <trkpt lat="47.4809" lon="6.76627">
        <ele>319.9</ele>
        <time>2019-08-16T14:35:50Z</time>
      </trkpt>
      <trkpt lat="47.4809" lon="6.7662">
        <ele>320.1</ele>
        <time>2019-08-16T14:35:51Z</time>
      </trkpt>
      <trkpt lat="47.48089" lon="6.76613">
        <ele>320.2</ele>
        <time>2019-08-16T14:35:52Z</time>
      </trkpt>
      <trkpt lat="47.48089" lon="6.76607">
        <ele>320.3</ele>
        <time>2019-08-16T14:35:53Z</time>
      </trkpt>
      <trkpt lat="47.48091" lon="6.76602">
        <ele>320.4</ele>
        <time>2019-08-16T14:35:54Z</time>
      </trkpt>
      <trkpt lat="47.48095" lon="6.76596">
        <ele>320.3</ele>
        <time>2019-08-16T14:35:55Z</time>
      </trkpt>
      <trkpt lat="47.48098" lon="6.76591">
        <ele>320.3</ele>
        <time>2019-08-16T14:35:56Z</time>
      </trkpt>
      <trkpt lat="47.48102" lon="6.76586">
        <ele>320.2</ele>
        <time>2019-08-16T14:35:57Z</time>
      </trkpt>
      <trkpt lat="47.48105" lon="6.76582">
        <ele>320.1</ele>
        <time>2019-08-16T14:35:58Z</time>
      </trkpt>
      <trkpt lat="47.48109" lon="6.76578">
        <ele>320.1</ele>
        <time>2019-08-16T14:35:59Z</time>
      </trkpt>
      <trkpt lat="47.48113" lon="6.76574">
        <ele>320</ele>
        <time>2019-08-16T14:36:00Z</time>
      </trkpt>
      <trkpt lat="47.48116" lon="6.7657">
        <ele>320</ele>
        <time>2019-08-16T14:36:01Z</time>
      </trkpt>
      <trkpt lat="47.48118" lon="6.76566">
        <ele>320</ele>
        <time>2019-08-16T14:36:02Z</time>
      </trkpt>
      <trkpt lat="47.4812" lon="6.76563">
        <ele>320</ele>
        <time>2019-08-16T14:36:03Z</time>
      </trkpt>
      <trkpt lat="47.48122" lon="6.76557">
        <ele>320.1</ele>
        <time>2019-08-16T14:36:05Z</time>
      </trkpt>
      <trkpt lat="47.48123" lon="6.76551">
        <ele>319.2</ele>
        <time>2019-08-16T14:36:07Z</time>
      </trkpt>
      <trkpt lat="47.48124" lon="6.76547">
        <ele>318.7</ele>
        <time>2019-08-16T14:36:08Z</time>
      </trkpt>
      <trkpt lat="47.48125" lon="6.76543">
        <ele>318.1</ele>
        <time>2019-08-16T14:36:09Z</time>
      </trkpt>
      <trkpt lat="47.48125" lon="6.76539">
        <ele>317.6</ele>
        <time>2019-08-16T14:36:10Z</time>
      </trkpt>
      <trkpt lat="47.48125" lon="6.7653">
        <ele>316.5</ele>
        <time>2019-08-16T14:36:12Z</time>
      </trkpt>
      <trkpt lat="47.48124" lon="6.76525">
        <ele>315.8</ele>
        <time>2019-08-16T14:36:13Z</time>
      </trkpt>
      <trkpt lat="47.48124" lon="6.7652">
        <ele>315.2</ele>
        <time>2019-08-16T14:36:14Z</time>
      </trkpt>
      <trkpt lat="47.48122" lon="6.76514">
        <ele>314.3</ele>
        <time>2019-08-16T14:36:16Z</time>
      </trkpt>
      <trkpt lat="47.4812" lon="6.76511">
        <ele>313.7</ele>
        <time>2019-08-16T14:36:18Z</time>
      </trkpt>
      <trkpt lat="47.48117" lon="6.76505">
        <ele>312.8</ele>
        <time>2019-08-16T14:36:24Z</time>
      </trkpt>
      <trkpt lat="47.48112" lon="6.76503">
        <ele>311.8</ele>
        <time>2019-08-16T14:36:26Z</time>
      </trkpt>
      <trkpt lat="47.48108" lon="6.76502">
        <ele>311.5</ele>
        <time>2019-08-16T14:36:27Z</time>
      </trkpt>
      <trkpt lat="47.48104" lon="6.76505">
        <ele>311.3</ele>
        <time>2019-08-16T14:36:28Z</time>
      </trkpt>
      <trkpt lat="47.481" lon="6.76508">
        <ele>310.9</ele>
        <time>2019-08-16T14:36:29Z</time>
      </trkpt>
      <trkpt lat="47.48095" lon="6.76508">
        <ele>310.7</ele>
        <time>2019-08-16T14:36:30Z</time>
      </trkpt>
      <trkpt lat="47.48093" lon="6.76511">
        <ele>310.5</ele>
        <time>2019-08-16T14:36:31Z</time>
      </trkpt>
      <trkpt lat="47.4809" lon="6.76515">
        <ele>310.3</ele>
        <time>2019-08-16T14:36:32Z</time>
      </trkpt>
      <trkpt lat="47.48087" lon="6.76516">
        <ele>310.1</ele>
        <time>2019-08-16T14:36:33Z</time>
      </trkpt>
      <trkpt lat="47.48081" lon="6.76521">
        <ele>309.7</ele>
        <time>2019-08-16T14:36:34Z</time>
      </trkpt>
      <trkpt lat="47.48077" lon="6.76524">
        <ele>309.5</ele>
        <time>2019-08-16T14:36:35Z</time>
      </trkpt>
      <trkpt lat="47.48074" lon="6.76528">
        <ele>309.3</ele>
        <time>2019-08-16T14:36:36Z</time>
      </trkpt>
      <trkpt lat="47.48071" lon="6.76531">
        <ele>309.1</ele>
        <time>2019-08-16T14:36:37Z</time>
      </trkpt>
      <trkpt lat="47.48067" lon="6.76534">
        <ele>309</ele>
        <time>2019-08-16T14:36:38Z</time>
      </trkpt>
      <trkpt lat="47.48065" lon="6.76537">
        <ele>308.8</ele>
        <time>2019-08-16T14:36:39Z</time>
      </trkpt>
      <trkpt lat="47.48062" lon="6.7654">
        <ele>308.6</ele>
        <time>2019-08-16T14:36:40Z</time>
      </trkpt>
      <trkpt lat="47.48057" lon="6.76544">
        <ele>308.4</ele>
        <time>2019-08-16T14:36:42Z</time>
      </trkpt>
      <trkpt lat="47.48053" lon="6.76547">
        <ele>308.1</ele>
        <time>2019-08-16T14:36:44Z</time>
      </trkpt>
      <trkpt lat="47.4805" lon="6.76549">
        <ele>308</ele>
        <time>2019-08-16T14:36:45Z</time>
      </trkpt>
      <trkpt lat="47.48047" lon="6.76552">
        <ele>308</ele>
        <time>2019-08-16T14:36:46Z</time>
      </trkpt>
      <trkpt lat="47.48044" lon="6.76553">
        <ele>308.3</ele>
        <time>2019-08-16T14:36:47Z</time>
      </trkpt>
      <trkpt lat="47.48041" lon="6.76555">
        <ele>308.5</ele>
        <time>2019-08-16T14:36:48Z</time>
      </trkpt>
      <trkpt lat="47.48037" lon="6.76558">
        <ele>308.7</ele>
        <time>2019-08-16T14:36:49Z</time>
      </trkpt>
      <trkpt lat="47.48034" lon="6.76561">
        <ele>308.9</ele>
        <time>2019-08-16T14:36:50Z</time>
      </trkpt>
      <trkpt lat="47.4803" lon="6.76564">
        <ele>309</ele>
        <time>2019-08-16T14:36:51Z</time>
      </trkpt>
      <trkpt lat="47.48026" lon="6.76568">
        <ele>309.1</ele>
        <time>2019-08-16T14:36:52Z</time>
      </trkpt>
      <trkpt lat="47.48022" lon="6.76571">
        <ele>309.2</ele>
        <time>2019-08-16T14:36:53Z</time>
      </trkpt>
      <trkpt lat="47.48019" lon="6.76574">
        <ele>309.4</ele>
        <time>2019-08-16T14:36:54Z</time>
      </trkpt>
      <trkpt lat="47.48015" lon="6.76577">
        <ele>309.5</ele>
        <time>2019-08-16T14:36:55Z</time>
      </trkpt>
      <trkpt lat="47.48012" lon="6.7658">
        <ele>309.6</ele>
        <time>2019-08-16T14:36:56Z</time>
      </trkpt>
      <trkpt lat="47.48009" lon="6.76582">
        <ele>309.8</ele>
        <time>2019-08-16T14:36:57Z</time>
      </trkpt>
      <trkpt lat="47.48006" lon="6.76586">
        <ele>309.9</ele>
        <time>2019-08-16T14:36:58Z</time>
      </trkpt>
      <trkpt lat="47.48003" lon="6.7659">
        <ele>310.1</ele>
        <time>2019-08-16T14:36:59Z</time>
      </trkpt>
      <trkpt lat="47.48" lon="6.76593">
        <ele>310.3</ele>
        <time>2019-08-16T14:37:00Z</time>
      </trkpt>
      <trkpt lat="47.47997" lon="6.76596">
        <ele>310.5</ele>
        <time>2019-08-16T14:37:01Z</time>
      </trkpt>
      <trkpt lat="47.47995" lon="6.76598">
        <ele>310.8</ele>
        <time>2019-08-16T14:37:02Z</time>
      </trkpt>
      <trkpt lat="47.47991" lon="6.766">
        <ele>311</ele>
        <time>2019-08-16T14:37:03Z</time>
      </trkpt>
      <trkpt lat="47.47987" lon="6.76601">
        <ele>311.3</ele>
        <time>2019-08-16T14:37:04Z</time>
      </trkpt>
      <trkpt lat="47.47984" lon="6.76603">
        <ele>311.4</ele>
        <time>2019-08-16T14:37:05Z</time>
      </trkpt>
      <trkpt lat="47.47981" lon="6.76604">
        <ele>311.6</ele>
        <time>2019-08-16T14:37:06Z</time>
      </trkpt>
      <trkpt lat="47.47978" lon="6.76606">
        <ele>311.7</ele>
        <time>2019-08-16T14:37:07Z</time>
      </trkpt>
      <trkpt lat="47.47976" lon="6.76608">
        <ele>311.6</ele>
        <time>2019-08-16T14:37:08Z</time>
      </trkpt>
      <trkpt lat="47.47972" lon="6.76609">
        <ele>311.6</ele>
        <time>2019-08-16T14:37:09Z</time>
      </trkpt>
      <trkpt lat="47.4797" lon="6.7661">
        <ele>311.6</ele>
        <time>2019-08-16T14:37:10Z</time>
      </trkpt>
      <trkpt lat="47.47967" lon="6.76613">
        <ele>311.5</ele>
        <time>2019-08-16T14:37:11Z</time>
      </trkpt>
      <trkpt lat="47.47963" lon="6.76616">
        <ele>311.5</ele>
        <time>2019-08-16T14:37:13Z</time>
      </trkpt>
      <trkpt lat="47.4796" lon="6.7662">
        <ele>311.5</ele>
        <time>2019-08-16T14:37:15Z</time>
      </trkpt>
      <trkpt lat="47.4796" lon="6.76625">
        <ele>311.5</ele>
        <time>2019-08-16T14:37:17Z</time>
      </trkpt>
      <trkpt lat="47.47961" lon="6.76629">
        <ele>311.5</ele>
        <time>2019-08-16T14:37:18Z</time>
      </trkpt>
      <trkpt lat="47.47963" lon="6.76634">
        <ele>311.6</ele>
        <time>2019-08-16T14:37:19Z</time>
      </trkpt>
      <trkpt lat="47.47965" lon="6.76639">
        <ele>311.6</ele>
        <time>2019-08-16T14:37:20Z</time>
      </trkpt>
      <trkpt lat="47.47966" lon="6.76645">
        <ele>311.6</ele>
        <time>2019-08-16T14:37:21Z</time>
      </trkpt>
      <trkpt lat="47.47968" lon="6.7665">
        <ele>311.7</ele>
        <time>2019-08-16T14:37:22Z</time>
      </trkpt>
      <trkpt lat="47.47969" lon="6.76654">
        <ele>311.7</ele>
        <time>2019-08-16T14:37:23Z</time>
      </trkpt>
      <trkpt lat="47.4797" lon="6.76658">
        <ele>311.7</ele>
        <time>2019-08-16T14:37:24Z</time>
      </trkpt>
      <trkpt lat="47.47974" lon="6.76663">
        <ele>311.8</ele>
        <time>2019-08-16T14:37:25Z</time>
      </trkpt>
      <trkpt lat="47.47977" lon="6.76663">
        <ele>311.7</ele>
        <time>2019-08-16T14:37:28Z</time>
      </trkpt>
      <trkpt lat="47.47976" lon="6.76656">
        <ele>311.7</ele>
        <time>2019-08-16T14:37:30Z</time>
      </trkpt>
      <trkpt lat="47.47975" lon="6.76652">
        <ele>311.7</ele>
        <time>2019-08-16T14:37:31Z</time>
      </trkpt>
      <trkpt lat="47.47974" lon="6.76648">
        <ele>311.7</ele>
        <time>2019-08-16T14:37:32Z</time>
      </trkpt>
      <trkpt lat="47.47972" lon="6.76643">
        <ele>311.7</ele>
        <time>2019-08-16T14:37:33Z</time>
      </trkpt>
      <trkpt lat="47.4797" lon="6.76637">
        <ele>311.7</ele>
        <time>2019-08-16T14:37:34Z</time>
      </trkpt>
      <trkpt lat="47.47968" lon="6.76632">
        <ele>311.6</ele>
        <time>2019-08-16T14:37:35Z</time>
      </trkpt>
      <trkpt lat="47.47966" lon="6.76627">
        <ele>311.6</ele>
        <time>2019-08-16T14:37:36Z</time>
      </trkpt>
      <trkpt lat="47.47966" lon="6.7662">
        <ele>311.5</ele>
        <time>2019-08-16T14:37:37Z</time>
      </trkpt>
      <trkpt lat="47.47965" lon="6.76613">
        <ele>311.5</ele>
        <time>2019-08-16T14:37:38Z</time>
      </trkpt>
      <trkpt lat="47.47963" lon="6.76606">
        <ele>311.5</ele>
        <time>2019-08-16T14:37:39Z</time>
      </trkpt>
      <trkpt lat="47.47961" lon="6.766">
        <ele>311.4</ele>
        <time>2019-08-16T14:37:40Z</time>
      </trkpt>
      <trkpt lat="47.47957" lon="6.76595">
        <ele>311.3</ele>
        <time>2019-08-16T14:37:42Z</time>
      </trkpt>
      <trkpt lat="47.47954" lon="6.76593">
        <ele>311.2</ele>
        <time>2019-08-16T14:37:43Z</time>
      </trkpt>
      <trkpt lat="47.4795" lon="6.76589">
        <ele>311</ele>
        <time>2019-08-16T14:37:45Z</time>
      </trkpt>
      <trkpt lat="47.47947" lon="6.76585">
        <ele>311</ele>
        <time>2019-08-16T14:37:47Z</time>
      </trkpt>
      <trkpt lat="47.47945" lon="6.7658">
        <ele>311</ele>
        <time>2019-08-16T14:37:49Z</time>
      </trkpt>
      <trkpt lat="47.47944" lon="6.76575">
        <ele>311</ele>
        <time>2019-08-16T14:37:50Z</time>
      </trkpt>
      <trkpt lat="47.47944" lon="6.76571">
        <ele>311</ele>
        <time>2019-08-16T14:37:51Z</time>
      </trkpt>
      <trkpt lat="47.47943" lon="6.76567">
        <ele>311.1</ele>
        <time>2019-08-16T14:37:52Z</time>
      </trkpt>
      <trkpt lat="47.47942" lon="6.76563">
        <ele>311.1</ele>
        <time>2019-08-16T14:37:53Z</time>
      </trkpt>
      <trkpt lat="47.47942" lon="6.76558">
        <ele>311.1</ele>
        <time>2019-08-16T14:37:54Z</time>
      </trkpt>
      <trkpt lat="47.47941" lon="6.76554">
        <ele>311.1</ele>
        <time>2019-08-16T14:37:55Z</time>
      </trkpt>
      <trkpt lat="47.4794" lon="6.76549">
        <ele>311.1</ele>
        <time>2019-08-16T14:37:56Z</time>
      </trkpt>
      <trkpt lat="47.47938" lon="6.76544">
        <ele>311.1</ele>
        <time>2019-08-16T14:37:57Z</time>
      </trkpt>
      <trkpt lat="47.47938" lon="6.76537">
        <ele>311.1</ele>
        <time>2019-08-16T14:37:58Z</time>
      </trkpt>
      <trkpt lat="47.47936" lon="6.76531">
        <ele>311.2</ele>
        <time>2019-08-16T14:37:59Z</time>
      </trkpt>
      <trkpt lat="47.47935" lon="6.76526">
        <ele>311.2</ele>
        <time>2019-08-16T14:38:00Z</time>
      </trkpt>
      <trkpt lat="47.47934" lon="6.76521">
        <ele>311.2</ele>
        <time>2019-08-16T14:38:01Z</time>
      </trkpt>
      <trkpt lat="47.47932" lon="6.76516">
        <ele>311.2</ele>
        <time>2019-08-16T14:38:02Z</time>
      </trkpt>
      <trkpt lat="47.47931" lon="6.76511">
        <ele>311.2</ele>
        <time>2019-08-16T14:38:03Z</time>
      </trkpt>
      <trkpt lat="47.47929" lon="6.76506">
        <ele>311.2</ele>
        <time>2019-08-16T14:38:04Z</time>
      </trkpt>
      <trkpt lat="47.47928" lon="6.765">
        <ele>311.3</ele>
        <time>2019-08-16T14:38:05Z</time>
      </trkpt>
      <trkpt lat="47.47926" lon="6.76495">
        <ele>311.3</ele>
        <time>2019-08-16T14:38:06Z</time>
      </trkpt>
      <trkpt lat="47.47924" lon="6.76491">
        <ele>311.3</ele>
        <time>2019-08-16T14:38:07Z</time>
      </trkpt>
      <trkpt lat="47.47922" lon="6.76486">
        <ele>311.3</ele>
        <time>2019-08-16T14:38:08Z</time>
      </trkpt>
      <trkpt lat="47.47921" lon="6.76481">
        <ele>311.3</ele>
        <time>2019-08-16T14:38:09Z</time>
      </trkpt>
      <trkpt lat="47.4792" lon="6.76475">
        <ele>311.3</ele>
        <time>2019-08-16T14:38:10Z</time>
      </trkpt>
      <trkpt lat="47.47919" lon="6.76469">
        <ele>311.2</ele>
        <time>2019-08-16T14:38:11Z</time>
      </trkpt>
      <trkpt lat="47.47917" lon="6.76463">
        <ele>311.2</ele>
        <time>2019-08-16T14:38:12Z</time>
      </trkpt>
      <trkpt lat="47.47915" lon="6.76457">
        <ele>311.2</ele>
        <time>2019-08-16T14:38:13Z</time>
      </trkpt>
      <trkpt lat="47.47913" lon="6.76452">
        <ele>311.2</ele>
        <time>2019-08-16T14:38:14Z</time>
      </trkpt>
      <trkpt lat="47.47912" lon="6.76446">
        <ele>311.1</ele>
        <time>2019-08-16T14:38:15Z</time>
      </trkpt>
      <trkpt lat="47.47911" lon="6.76441">
        <ele>311</ele>
        <time>2019-08-16T14:38:16Z</time>
      </trkpt>
      <trkpt lat="47.47909" lon="6.76436">
        <ele>311</ele>
        <time>2019-08-16T14:38:17Z</time>
      </trkpt>
      <trkpt lat="47.47907" lon="6.76431">
        <ele>310.9</ele>
        <time>2019-08-16T14:38:18Z</time>
      </trkpt>
      <trkpt lat="47.47906" lon="6.76425">
        <ele>310.9</ele>
        <time>2019-08-16T14:38:19Z</time>
      </trkpt>
      <trkpt lat="47.47904" lon="6.76419">
        <ele>310.8</ele>
        <time>2019-08-16T14:38:20Z</time>
      </trkpt>
      <trkpt lat="47.47902" lon="6.76414">
        <ele>310.7</ele>
        <time>2019-08-16T14:38:21Z</time>
      </trkpt>
      <trkpt lat="47.479" lon="6.76409">
        <ele>310.6</ele>
        <time>2019-08-16T14:38:22Z</time>
      </trkpt>
      <trkpt lat="47.47897" lon="6.76404">
        <ele>310.6</ele>
        <time>2019-08-16T14:38:23Z</time>
      </trkpt>
      <trkpt lat="47.47894" lon="6.76399">
        <ele>310.5</ele>
        <time>2019-08-16T14:38:24Z</time>
      </trkpt>
      <trkpt lat="47.47891" lon="6.76394">
        <ele>310.4</ele>
        <time>2019-08-16T14:38:25Z</time>
      </trkpt>
      <trkpt lat="47.47889" lon="6.76388">
        <ele>310.3</ele>
        <time>2019-08-16T14:38:26Z</time>
      </trkpt>
      <trkpt lat="47.47887" lon="6.76381">
        <ele>310.2</ele>
        <time>2019-08-16T14:38:27Z</time>
      </trkpt>
      <trkpt lat="47.47886" lon="6.76375">
        <ele>310.1</ele>
        <time>2019-08-16T14:38:28Z</time>
      </trkpt>
      <trkpt lat="47.47883" lon="6.76371">
        <ele>310</ele>
        <time>2019-08-16T14:38:29Z</time>
      </trkpt>
      <trkpt lat="47.47881" lon="6.76366">
        <ele>309.9</ele>
        <time>2019-08-16T14:38:30Z</time>
      </trkpt>
      <trkpt lat="47.47878" lon="6.76361">
        <ele>309.8</ele>
        <time>2019-08-16T14:38:31Z</time>
      </trkpt>
      <trkpt lat="47.47875" lon="6.76357">
        <ele>309.7</ele>
        <time>2019-08-16T14:38:32Z</time>
      </trkpt>
      <trkpt lat="47.47872" lon="6.76351">
        <ele>309.6</ele>
        <time>2019-08-16T14:38:33Z</time>
      </trkpt>
      <trkpt lat="47.47869" lon="6.76346">
        <ele>309.5</ele>
        <time>2019-08-16T14:38:34Z</time>
      </trkpt>
      <trkpt lat="47.47866" lon="6.76341">
        <ele>309.4</ele>
        <time>2019-08-16T14:38:35Z</time>
      </trkpt>
      <trkpt lat="47.47864" lon="6.76335">
        <ele>309.3</ele>
        <time>2019-08-16T14:38:36Z</time>
      </trkpt>
      <trkpt lat="47.47861" lon="6.76331">
        <ele>309.2</ele>
        <time>2019-08-16T14:38:37Z</time>
      </trkpt>
      <trkpt lat="47.47858" lon="6.76326">
        <ele>309.2</ele>
        <time>2019-08-16T14:38:38Z</time>
      </trkpt>
      <trkpt lat="47.47855" lon="6.76322">
        <ele>309.1</ele>
        <time>2019-08-16T14:38:39Z</time>
      </trkpt>
      <trkpt lat="47.47852" lon="6.76317">
        <ele>309</ele>
        <time>2019-08-16T14:38:40Z</time>
      </trkpt>
      <trkpt lat="47.47849" lon="6.76312">
        <ele>308.9</ele>
        <time>2019-08-16T14:38:41Z</time>
      </trkpt>
      <trkpt lat="47.47847" lon="6.76307">
        <ele>308.9</ele>
        <time>2019-08-16T14:38:42Z</time>
      </trkpt>
      <trkpt lat="47.47844" lon="6.76302">
        <ele>308.8</ele>
        <time>2019-08-16T14:38:43Z</time>
      </trkpt>
      <trkpt lat="47.47841" lon="6.76297">
        <ele>308.7</ele>
        <time>2019-08-16T14:38:44Z</time>
      </trkpt>
      <trkpt lat="47.47839" lon="6.76292">
        <ele>308.7</ele>
        <time>2019-08-16T14:38:45Z</time>
      </trkpt>
      <trkpt lat="47.47836" lon="6.76287">
        <ele>308.6</ele>
        <time>2019-08-16T14:38:46Z</time>
      </trkpt>
      <trkpt lat="47.47832" lon="6.76283">
        <ele>308.6</ele>
        <time>2019-08-16T14:38:47Z</time>
      </trkpt>
      <trkpt lat="47.47828" lon="6.76279">
        <ele>308.5</ele>
        <time>2019-08-16T14:38:48Z</time>
      </trkpt>
      <trkpt lat="47.47824" lon="6.76276">
        <ele>308.5</ele>
        <time>2019-08-16T14:38:49Z</time>
      </trkpt>
      <trkpt lat="47.4782" lon="6.76273">
        <ele>308.4</ele>
        <time>2019-08-16T14:38:50Z</time>
      </trkpt>
      <trkpt lat="47.47815" lon="6.76271">
        <ele>308.4</ele>
        <time>2019-08-16T14:38:51Z</time>
      </trkpt>
      <trkpt lat="47.47812" lon="6.76268">
        <ele>308.3</ele>
        <time>2019-08-16T14:38:52Z</time>
      </trkpt>
      <trkpt lat="47.47808" lon="6.76265">
        <ele>308.3</ele>
        <time>2019-08-16T14:38:53Z</time>
      </trkpt>
      <trkpt lat="47.47804" lon="6.76262">
        <ele>308.3</ele>
        <time>2019-08-16T14:38:54Z</time>
      </trkpt>
      <trkpt lat="47.478" lon="6.76259">
        <ele>308.2</ele>
        <time>2019-08-16T14:38:55Z</time>
      </trkpt>
      <trkpt lat="47.47796" lon="6.76257">
        <ele>308.2</ele>
        <time>2019-08-16T14:38:56Z</time>
      </trkpt>
      <trkpt lat="47.47792" lon="6.76256">
        <ele>308.2</ele>
        <time>2019-08-16T14:38:57Z</time>
      </trkpt>
      <trkpt lat="47.47788" lon="6.76254">
        <ele>308.2</ele>
        <time>2019-08-16T14:38:58Z</time>
      </trkpt>
      <trkpt lat="47.47783" lon="6.76253">
        <ele>308.1</ele>
        <time>2019-08-16T14:38:59Z</time>
      </trkpt>
      <trkpt lat="47.47779" lon="6.7625">
        <ele>308.1</ele>
        <time>2019-08-16T14:39:00Z</time>
      </trkpt>
      <trkpt lat="47.47776" lon="6.76247">
        <ele>308.1</ele>
        <time>2019-08-16T14:39:01Z</time>
      </trkpt>
      <trkpt lat="47.47772" lon="6.76243">
        <ele>308.1</ele>
        <time>2019-08-16T14:39:02Z</time>
      </trkpt>
      <trkpt lat="47.47769" lon="6.76239">
        <ele>308</ele>
        <time>2019-08-16T14:39:03Z</time>
      </trkpt>
      <trkpt lat="47.47766" lon="6.76234">
        <ele>308</ele>
        <time>2019-08-16T14:39:04Z</time>
      </trkpt>
      <trkpt lat="47.47763" lon="6.76229">
        <ele>308</ele>
        <time>2019-08-16T14:39:05Z</time>
      </trkpt>
      <trkpt lat="47.47759" lon="6.76224">
        <ele>308</ele>
        <time>2019-08-16T14:39:06Z</time>
      </trkpt>
      <trkpt lat="47.47755" lon="6.76219">
        <ele>307.9</ele>
        <time>2019-08-16T14:39:07Z</time>
      </trkpt>
      <trkpt lat="47.47752" lon="6.76213">
        <ele>307.9</ele>
        <time>2019-08-16T14:39:08Z</time>
      </trkpt>
      <trkpt lat="47.47749" lon="6.76207">
        <ele>308</ele>
        <time>2019-08-16T14:39:09Z</time>
      </trkpt>
      <trkpt lat="47.47746" lon="6.76202">
        <ele>308.1</ele>
        <time>2019-08-16T14:39:10Z</time>
      </trkpt>
      <trkpt lat="47.47743" lon="6.76197">
        <ele>308.1</ele>
        <time>2019-08-16T14:39:11Z</time>
      </trkpt>
      <trkpt lat="47.47739" lon="6.76193">
        <ele>308.2</ele>
        <time>2019-08-16T14:39:12Z</time>
      </trkpt>
      <trkpt lat="47.47736" lon="6.76189">
        <ele>308.2</ele>
        <time>2019-08-16T14:39:13Z</time>
      </trkpt>
      <trkpt lat="47.47733" lon="6.76185">
        <ele>308.2</ele>
        <time>2019-08-16T14:39:14Z</time>
      </trkpt>
      <trkpt lat="47.4773" lon="6.7618">
        <ele>308.2</ele>
        <time>2019-08-16T14:39:15Z</time>
      </trkpt>
      <trkpt lat="47.47727" lon="6.76174">
        <ele>308.3</ele>
        <time>2019-08-16T14:39:16Z</time>
      </trkpt>
      <trkpt lat="47.47724" lon="6.76169">
        <ele>308.3</ele>
        <time>2019-08-16T14:39:17Z</time>
      </trkpt>
      <trkpt lat="47.47721" lon="6.76163">
        <ele>308.3</ele>
        <time>2019-08-16T14:39:18Z</time>
      </trkpt>
      <trkpt lat="47.47718" lon="6.76158">
        <ele>308.3</ele>
        <time>2019-08-16T14:39:19Z</time>
      </trkpt>
      <trkpt lat="47.47715" lon="6.76152">
        <ele>308.3</ele>
        <time>2019-08-16T14:39:20Z</time>
      </trkpt>
      <trkpt lat="47.47713" lon="6.76148">
        <ele>308.3</ele>
        <time>2019-08-16T14:39:21Z</time>
      </trkpt>
      <trkpt lat="47.4771" lon="6.76143">
        <ele>308.3</ele>
        <time>2019-08-16T14:39:22Z</time>
      </trkpt>
      <trkpt lat="47.47707" lon="6.76138">
        <ele>308.3</ele>
        <time>2019-08-16T14:39:23Z</time>
      </trkpt>
      <trkpt lat="47.47704" lon="6.76133">
        <ele>308.3</ele>
        <time>2019-08-16T14:39:24Z</time>
      </trkpt>
      <trkpt lat="47.47701" lon="6.76129">
        <ele>308.3</ele>
        <time>2019-08-16T14:39:25Z</time>
      </trkpt>
      <trkpt lat="47.47698" lon="6.76125">
        <ele>308.6</ele>
        <time>2019-08-16T14:39:26Z</time>
      </trkpt>
      <trkpt lat="47.47695" lon="6.7612">
        <ele>308.8</ele>
        <time>2019-08-16T14:39:27Z</time>
      </trkpt>
      <trkpt lat="47.47691" lon="6.76116">
        <ele>309</ele>
        <time>2019-08-16T14:39:28Z</time>
      </trkpt>
      <trkpt lat="47.47688" lon="6.7611">
        <ele>309.3</ele>
        <time>2019-08-16T14:39:29Z</time>
      </trkpt>
      <trkpt lat="47.47685" lon="6.76105">
        <ele>309.5</ele>
        <time>2019-08-16T14:39:30Z</time>
      </trkpt>
      <trkpt lat="47.47681" lon="6.761">
        <ele>309.8</ele>
        <time>2019-08-16T14:39:31Z</time>
      </trkpt>
      <trkpt lat="47.47677" lon="6.76095">
        <ele>310.1</ele>
        <time>2019-08-16T14:39:32Z</time>
      </trkpt>
      <trkpt lat="47.47673" lon="6.7609">
        <ele>310.3</ele>
        <time>2019-08-16T14:39:33Z</time>
      </trkpt>
      <trkpt lat="47.4767" lon="6.76084">
        <ele>310.6</ele>
        <time>2019-08-16T14:39:34Z</time>
      </trkpt>
      <trkpt lat="47.47667" lon="6.7608">
        <ele>310.6</ele>
        <time>2019-08-16T14:39:35Z</time>
      </trkpt>
      <trkpt lat="47.47664" lon="6.76074">
        <ele>310.6</ele>
        <time>2019-08-16T14:39:36Z</time>
      </trkpt>
      <trkpt lat="47.47662" lon="6.76068">
        <ele>310.6</ele>
        <time>2019-08-16T14:39:37Z</time>
      </trkpt>
      <trkpt lat="47.4766" lon="6.76061">
        <ele>310.6</ele>
        <time>2019-08-16T14:39:38Z</time>
      </trkpt>
      <trkpt lat="47.47658" lon="6.76053">
        <ele>310.6</ele>
        <time>2019-08-16T14:39:39Z</time>
      </trkpt>
      <trkpt lat="47.47657" lon="6.76046">
        <ele>310.6</ele>
        <time>2019-08-16T14:39:40Z</time>
      </trkpt>
      <trkpt lat="47.47656" lon="6.76039">
        <ele>310.6</ele>
        <time>2019-08-16T14:39:41Z</time>
      </trkpt>
      <trkpt lat="47.47654" lon="6.76031">
        <ele>310.6</ele>
        <time>2019-08-16T14:39:42Z</time>
      </trkpt>
      <trkpt lat="47.47653" lon="6.76023">
        <ele>310.7</ele>
        <time>2019-08-16T14:39:43Z</time>
      </trkpt>
      <trkpt lat="47.47653" lon="6.76015">
        <ele>310.7</ele>
        <time>2019-08-16T14:39:44Z</time>
      </trkpt>
      <trkpt lat="47.47654" lon="6.76008">
        <ele>310.7</ele>
        <time>2019-08-16T14:39:45Z</time>
      </trkpt>
      <trkpt lat="47.47655" lon="6.76002">
        <ele>310.8</ele>
        <time>2019-08-16T14:39:46Z</time>
      </trkpt>
      <trkpt lat="47.47658" lon="6.75996">
        <ele>310.8</ele>
        <time>2019-08-16T14:39:47Z</time>
      </trkpt>
      <trkpt lat="47.47659" lon="6.7599">
        <ele>310.8</ele>
        <time>2019-08-16T14:39:48Z</time>
      </trkpt>
      <trkpt lat="47.47662" lon="6.75984">
        <ele>310.8</ele>
        <time>2019-08-16T14:39:49Z</time>
      </trkpt>
      <trkpt lat="47.47663" lon="6.75976">
        <ele>310.8</ele>
        <time>2019-08-16T14:39:50Z</time>
      </trkpt>
      <trkpt lat="47.47666" lon="6.7597">
        <ele>310.8</ele>
        <time>2019-08-16T14:39:51Z</time>
      </trkpt>
      <trkpt lat="47.47668" lon="6.75963">
        <ele>310.7</ele>
        <time>2019-08-16T14:39:52Z</time>
      </trkpt>
      <trkpt lat="47.47672" lon="6.75957">
        <ele>310.7</ele>
        <time>2019-08-16T14:39:53Z</time>
      </trkpt>
      <trkpt lat="47.47675" lon="6.75952">
        <ele>310.6</ele>
        <time>2019-08-16T14:39:54Z</time>
      </trkpt>
      <trkpt lat="47.47678" lon="6.75945">
        <ele>310.6</ele>
        <time>2019-08-16T14:39:55Z</time>
      </trkpt>
      <trkpt lat="47.47681" lon="6.75938">
        <ele>310.5</ele>
        <time>2019-08-16T14:39:56Z</time>
      </trkpt>
      <trkpt lat="47.47683" lon="6.75931">
        <ele>310.5</ele>
        <time>2019-08-16T14:39:57Z</time>
      </trkpt>
      <trkpt lat="47.47685" lon="6.75924">
        <ele>310.4</ele>
        <time>2019-08-16T14:39:58Z</time>
      </trkpt>
      <trkpt lat="47.47686" lon="6.75916">
        <ele>310.3</ele>
        <time>2019-08-16T14:39:59Z</time>
      </trkpt>
      <trkpt lat="47.47686" lon="6.75908">
        <ele>310.2</ele>
        <time>2019-08-16T14:40:00Z</time>
      </trkpt>
      <trkpt lat="47.47686" lon="6.759">
        <ele>310.2</ele>
        <time>2019-08-16T14:40:01Z</time>
      </trkpt>
      <trkpt lat="47.47686" lon="6.75892">
        <ele>310.1</ele>
        <time>2019-08-16T14:40:02Z</time>
      </trkpt>
      <trkpt lat="47.47686" lon="6.75885">
        <ele>310.1</ele>
        <time>2019-08-16T14:40:03Z</time>
      </trkpt>
      <trkpt lat="47.47687" lon="6.75876">
        <ele>310</ele>
        <time>2019-08-16T14:40:04Z</time>
      </trkpt>
      <trkpt lat="47.47687" lon="6.75868">
        <ele>310</ele>
        <time>2019-08-16T14:40:05Z</time>
      </trkpt>
      <trkpt lat="47.47687" lon="6.75861">
        <ele>310</ele>
        <time>2019-08-16T14:40:06Z</time>
      </trkpt>
      <trkpt lat="47.47688" lon="6.75853">
        <ele>310</ele>
        <time>2019-08-16T14:40:07Z</time>
      </trkpt>
      <trkpt lat="47.47688" lon="6.75846">
        <ele>310</ele>
        <time>2019-08-16T14:40:08Z</time>
      </trkpt>
      <trkpt lat="47.47688" lon="6.75839">
        <ele>310</ele>
        <time>2019-08-16T14:40:09Z</time>
      </trkpt>
      <trkpt lat="47.47688" lon="6.75831">
        <ele>310</ele>
        <time>2019-08-16T14:40:10Z</time>
      </trkpt>
      <trkpt lat="47.47688" lon="6.75824">
        <ele>310</ele>
        <time>2019-08-16T14:40:11Z</time>
      </trkpt>
      <trkpt lat="47.47688" lon="6.75817">
        <ele>310</ele>
        <time>2019-08-16T14:40:12Z</time>
      </trkpt>
      <trkpt lat="47.47688" lon="6.7581">
        <ele>310</ele>
        <time>2019-08-16T14:40:13Z</time>
      </trkpt>
      <trkpt lat="47.47688" lon="6.75803">
        <ele>310</ele>
        <time>2019-08-16T14:40:14Z</time>
      </trkpt>
      <trkpt lat="47.47688" lon="6.75795">
        <ele>310</ele>
        <time>2019-08-16T14:40:15Z</time>
      </trkpt>
      <trkpt lat="47.47688" lon="6.75786">
        <ele>309.9</ele>
        <time>2019-08-16T14:40:16Z</time>
      </trkpt>
      <trkpt lat="47.47688" lon="6.75777">
        <ele>309.9</ele>
        <time>2019-08-16T14:40:17Z</time>
      </trkpt>
      <trkpt lat="47.47688" lon="6.75769">
        <ele>309.8</ele>
        <time>2019-08-16T14:40:18Z</time>
      </trkpt>
      <trkpt lat="47.47688" lon="6.75761">
        <ele>309.7</ele>
        <time>2019-08-16T14:40:19Z</time>
      </trkpt>
      <trkpt lat="47.47688" lon="6.75754">
        <ele>309.6</ele>
        <time>2019-08-16T14:40:20Z</time>
      </trkpt>
      <trkpt lat="47.47689" lon="6.75747">
        <ele>309.6</ele>
        <time>2019-08-16T14:40:21Z</time>
      </trkpt>
      <trkpt lat="47.4769" lon="6.75741">
        <ele>309.6</ele>
        <time>2019-08-16T14:40:22Z</time>
      </trkpt>
      <trkpt lat="47.47689" lon="6.75734">
        <ele>309.6</ele>
        <time>2019-08-16T14:40:23Z</time>
      </trkpt>
      <trkpt lat="47.47689" lon="6.75729">
        <ele>309.6</ele>
        <time>2019-08-16T14:40:24Z</time>
      </trkpt>
      <trkpt lat="47.4769" lon="6.75725">
        <ele>309.6</ele>
        <time>2019-08-16T14:40:25Z</time>
      </trkpt>
      <trkpt lat="47.47691" lon="6.75719">
        <ele>309.7</ele>
        <time>2019-08-16T14:40:27Z</time>
      </trkpt>
      <trkpt lat="47.47693" lon="6.75713">
        <ele>309.7</ele>
        <time>2019-08-16T14:40:29Z</time>
      </trkpt>
      <trkpt lat="47.47694" lon="6.75704">
        <ele>309.7</ele>
        <time>2019-08-16T14:40:31Z</time>
      </trkpt>
      <trkpt lat="47.47695" lon="6.75697">
        <ele>309.6</ele>
        <time>2019-08-16T14:40:32Z</time>
      </trkpt>
      <trkpt lat="47.47695" lon="6.7569">
        <ele>309.5</ele>
        <time>2019-08-16T14:40:33Z</time>
      </trkpt>
      <trkpt lat="47.47695" lon="6.75683">
        <ele>309.5</ele>
        <time>2019-08-16T14:40:34Z</time>
      </trkpt>
      <trkpt lat="47.47696" lon="6.75675">
        <ele>309.4</ele>
        <time>2019-08-16T14:40:35Z</time>
      </trkpt>
      <trkpt lat="47.47697" lon="6.75666">
        <ele>309.3</ele>
        <time>2019-08-16T14:40:36Z</time>
      </trkpt>
      <trkpt lat="47.47698" lon="6.75658">
        <ele>309.2</ele>
        <time>2019-08-16T14:40:37Z</time>
      </trkpt>
      <trkpt lat="47.47699" lon="6.7565">
        <ele>309.1</ele>
        <time>2019-08-16T14:40:38Z</time>
      </trkpt>
      <trkpt lat="47.477" lon="6.75641">
        <ele>309</ele>
        <time>2019-08-16T14:40:39Z</time>
      </trkpt>
      <trkpt lat="47.47701" lon="6.75632">
        <ele>308.9</ele>
        <time>2019-08-16T14:40:40Z</time>
      </trkpt>
      <trkpt lat="47.47701" lon="6.75624">
        <ele>308.8</ele>
        <time>2019-08-16T14:40:41Z</time>
      </trkpt>
      <trkpt lat="47.47702" lon="6.75615">
        <ele>308.7</ele>
        <time>2019-08-16T14:40:42Z</time>
      </trkpt>
      <trkpt lat="47.47702" lon="6.75606">
        <ele>308.6</ele>
        <time>2019-08-16T14:40:43Z</time>
      </trkpt>
      <trkpt lat="47.47703" lon="6.75598">
        <ele>308.5</ele>
        <time>2019-08-16T14:40:44Z</time>
      </trkpt>
      <trkpt lat="47.47703" lon="6.75592">
        <ele>308.5</ele>
        <time>2019-08-16T14:40:45Z</time>
      </trkpt>
      <trkpt lat="47.47704" lon="6.75584">
        <ele>308.5</ele>
        <time>2019-08-16T14:40:46Z</time>
      </trkpt>
      <trkpt lat="47.47705" lon="6.75576">
        <ele>308.4</ele>
        <time>2019-08-16T14:40:47Z</time>
      </trkpt>
      <trkpt lat="47.47706" lon="6.75569">
        <ele>308.4</ele>
        <time>2019-08-16T14:40:48Z</time>
      </trkpt>
      <trkpt lat="47.47706" lon="6.75561">
        <ele>308.4</ele>
        <time>2019-08-16T14:40:49Z</time>
      </trkpt>
      <trkpt lat="47.47706" lon="6.75554">
        <ele>308.4</ele>
        <time>2019-08-16T14:40:50Z</time>
      </trkpt>
      <trkpt lat="47.47706" lon="6.75548">
        <ele>308.4</ele>
        <time>2019-08-16T14:40:51Z</time>
      </trkpt>
      <trkpt lat="47.47706" lon="6.75542">
        <ele>308.4</ele>
        <time>2019-08-16T14:40:52Z</time>
      </trkpt>
      <trkpt lat="47.47705" lon="6.75536">
        <ele>308.4</ele>
        <time>2019-08-16T14:40:53Z</time>
      </trkpt>
      <trkpt lat="47.47705" lon="6.7553">
        <ele>308.4</ele>
        <time>2019-08-16T14:40:54Z</time>
      </trkpt>
      <trkpt lat="47.47705" lon="6.75524">
        <ele>308.4</ele>
        <time>2019-08-16T14:40:55Z</time>
      </trkpt>
      <trkpt lat="47.47705" lon="6.75517">
        <ele>308.4</ele>
        <time>2019-08-16T14:40:56Z</time>
      </trkpt>
      <trkpt lat="47.47706" lon="6.7551">
        <ele>308.4</ele>
        <time>2019-08-16T14:40:57Z</time>
      </trkpt>
      <trkpt lat="47.47706" lon="6.75502">
        <ele>308.4</ele>
        <time>2019-08-16T14:40:58Z</time>
      </trkpt>
      <trkpt lat="47.47708" lon="6.75495">
        <ele>308.4</ele>
        <time>2019-08-16T14:40:59Z</time>
      </trkpt>
      <trkpt lat="47.47709" lon="6.75487">
        <ele>308.4</ele>
        <time>2019-08-16T14:41:00Z</time>
      </trkpt>
      <trkpt lat="47.47709" lon="6.75481">
        <ele>308.4</ele>
        <time>2019-08-16T14:41:01Z</time>
      </trkpt>
      <trkpt lat="47.4771" lon="6.75475">
        <ele>308.4</ele>
        <time>2019-08-16T14:41:02Z</time>
      </trkpt>
      <trkpt lat="47.47709" lon="6.75469">
        <ele>308.4</ele>
        <time>2019-08-16T14:41:03Z</time>
      </trkpt>
      <trkpt lat="47.4771" lon="6.75462">
        <ele>308.4</ele>
        <time>2019-08-16T14:41:04Z</time>
      </trkpt>
      <trkpt lat="47.4771" lon="6.75455">
        <ele>308.4</ele>
        <time>2019-08-16T14:41:05Z</time>
      </trkpt>
      <trkpt lat="47.47711" lon="6.75447">
        <ele>308.4</ele>
        <time>2019-08-16T14:41:06Z</time>
      </trkpt>
      <trkpt lat="47.47712" lon="6.75439">
        <ele>308.4</ele>
        <time>2019-08-16T14:41:07Z</time>
      </trkpt>
      <trkpt lat="47.47712" lon="6.75432">
        <ele>308.4</ele>
        <time>2019-08-16T14:41:08Z</time>
      </trkpt>
      <trkpt lat="47.47712" lon="6.75424">
        <ele>308.4</ele>
        <time>2019-08-16T14:41:09Z</time>
      </trkpt>
      <trkpt lat="47.47712" lon="6.75417">
        <ele>308.5</ele>
        <time>2019-08-16T14:41:10Z</time>
      </trkpt>
      <trkpt lat="47.47712" lon="6.7541">
        <ele>308.5</ele>
        <time>2019-08-16T14:41:11Z</time>
      </trkpt>
      <trkpt lat="47.47712" lon="6.75403">
        <ele>308.5</ele>
        <time>2019-08-16T14:41:12Z</time>
      </trkpt>
      <trkpt lat="47.47712" lon="6.75395">
        <ele>308.6</ele>
        <time>2019-08-16T14:41:13Z</time>
      </trkpt>
      <trkpt lat="47.47712" lon="6.75387">
        <ele>308.6</ele>
        <time>2019-08-16T14:41:14Z</time>
      </trkpt>
      <trkpt lat="47.47711" lon="6.75381">
        <ele>308.7</ele>
        <time>2019-08-16T14:41:15Z</time>
      </trkpt>
      <trkpt lat="47.47712" lon="6.75373">
        <ele>308.8</ele>
        <time>2019-08-16T14:41:16Z</time>
      </trkpt>
      <trkpt lat="47.47711" lon="6.75365">
        <ele>308.8</ele>
        <time>2019-08-16T14:41:17Z</time>
      </trkpt>
      <trkpt lat="47.47711" lon="6.75357">
        <ele>308.9</ele>
        <time>2019-08-16T14:41:18Z</time>
      </trkpt>
      <trkpt lat="47.47712" lon="6.75349">
        <ele>309</ele>
        <time>2019-08-16T14:41:19Z</time>
      </trkpt>
      <trkpt lat="47.47712" lon="6.75341">
        <ele>309.1</ele>
        <time>2019-08-16T14:41:20Z</time>
      </trkpt>
      <trkpt lat="47.47712" lon="6.75334">
        <ele>309.2</ele>
        <time>2019-08-16T14:41:21Z</time>
      </trkpt>
      <trkpt lat="47.47711" lon="6.75327">
        <ele>309.3</ele>
        <time>2019-08-16T14:41:22Z</time>
      </trkpt>
      <trkpt lat="47.47711" lon="6.7532">
        <ele>309.5</ele>
        <time>2019-08-16T14:41:23Z</time>
      </trkpt>
      <trkpt lat="47.47711" lon="6.75314">
        <ele>309.6</ele>
        <time>2019-08-16T14:41:24Z</time>
      </trkpt>
      <trkpt lat="47.4771" lon="6.75307">
        <ele>309.7</ele>
        <time>2019-08-16T14:41:25Z</time>
      </trkpt>
      <trkpt lat="47.4771" lon="6.75299">
        <ele>309.9</ele>
        <time>2019-08-16T14:41:26Z</time>
      </trkpt>
      <trkpt lat="47.47711" lon="6.75292">
        <ele>310</ele>
        <time>2019-08-16T14:41:27Z</time>
      </trkpt>
      <trkpt lat="47.47712" lon="6.75285">
        <ele>310.1</ele>
        <time>2019-08-16T14:41:28Z</time>
      </trkpt>
      <trkpt lat="47.47711" lon="6.75276">
        <ele>310</ele>
        <time>2019-08-16T14:41:29Z</time>
      </trkpt>
      <trkpt lat="47.47711" lon="6.75269">
        <ele>310</ele>
        <time>2019-08-16T14:41:30Z</time>
      </trkpt>
      <trkpt lat="47.47712" lon="6.75262">
        <ele>309.9</ele>
        <time>2019-08-16T14:41:31Z</time>
      </trkpt>
      <trkpt lat="47.47712" lon="6.75256">
        <ele>309.9</ele>
        <time>2019-08-16T14:41:32Z</time>
      </trkpt>
      <trkpt lat="47.47712" lon="6.75249">
        <ele>309.9</ele>
        <time>2019-08-16T14:41:33Z</time>
      </trkpt>
      <trkpt lat="47.47712" lon="6.75242">
        <ele>309.8</ele>
        <time>2019-08-16T14:41:34Z</time>
      </trkpt>
      <trkpt lat="47.47712" lon="6.75235">
        <ele>309.8</ele>
        <time>2019-08-16T14:41:35Z</time>
      </trkpt>
      <trkpt lat="47.47712" lon="6.75228">
        <ele>309.7</ele>
        <time>2019-08-16T14:41:36Z</time>
      </trkpt>
      <trkpt lat="47.47712" lon="6.75221">
        <ele>309.7</ele>
        <time>2019-08-16T14:41:37Z</time>
      </trkpt>
      <trkpt lat="47.47713" lon="6.75214">
        <ele>309.7</ele>
        <time>2019-08-16T14:41:38Z</time>
      </trkpt>
      <trkpt lat="47.47713" lon="6.75207">
        <ele>309.6</ele>
        <time>2019-08-16T14:41:39Z</time>
      </trkpt>
      <trkpt lat="47.47713" lon="6.752">
        <ele>309.5</ele>
        <time>2019-08-16T14:41:40Z</time>
      </trkpt>
      <trkpt lat="47.47713" lon="6.75193">
        <ele>309.5</ele>
        <time>2019-08-16T14:41:41Z</time>
      </trkpt>
      <trkpt lat="47.47712" lon="6.75186">
        <ele>309.5</ele>
        <time>2019-08-16T14:41:42Z</time>
      </trkpt>
      <trkpt lat="47.47713" lon="6.75178">
        <ele>309.4</ele>
        <time>2019-08-16T14:41:43Z</time>
      </trkpt>
      <trkpt lat="47.47713" lon="6.75171">
        <ele>309.3</ele>
        <time>2019-08-16T14:41:44Z</time>
      </trkpt>
      <trkpt lat="47.47713" lon="6.75163">
        <ele>309.3</ele>
        <time>2019-08-16T14:41:45Z</time>
      </trkpt>
      <trkpt lat="47.47714" lon="6.75155">
        <ele>309.3</ele>
        <time>2019-08-16T14:41:46Z</time>
      </trkpt>
      <trkpt lat="47.47715" lon="6.75147">
        <ele>309.3</ele>
        <time>2019-08-16T14:41:47Z</time>
      </trkpt>
      <trkpt lat="47.47715" lon="6.75138">
        <ele>309.3</ele>
        <time>2019-08-16T14:41:48Z</time>
      </trkpt>
      <trkpt lat="47.47715" lon="6.7513">
        <ele>309.2</ele>
        <time>2019-08-16T14:41:49Z</time>
      </trkpt>
      <trkpt lat="47.47714" lon="6.75122">
        <ele>309.2</ele>
        <time>2019-08-16T14:41:50Z</time>
      </trkpt>
      <trkpt lat="47.47715" lon="6.75114">
        <ele>309.1</ele>
        <time>2019-08-16T14:41:51Z</time>
      </trkpt>
      <trkpt lat="47.47715" lon="6.75106">
        <ele>309.1</ele>
        <time>2019-08-16T14:41:52Z</time>
      </trkpt>
      <trkpt lat="47.47715" lon="6.75099">
        <ele>309.1</ele>
        <time>2019-08-16T14:41:53Z</time>
      </trkpt>
      <trkpt lat="47.47715" lon="6.75092">
        <ele>309.1</ele>
        <time>2019-08-16T14:41:54Z</time>
      </trkpt>
      <trkpt lat="47.47714" lon="6.75086">
        <ele>309.1</ele>
        <time>2019-08-16T14:41:55Z</time>
      </trkpt>
      <trkpt lat="47.47714" lon="6.75078">
        <ele>309.1</ele>
        <time>2019-08-16T14:41:56Z</time>
      </trkpt>
      <trkpt lat="47.47714" lon="6.75071">
        <ele>309.1</ele>
        <time>2019-08-16T14:41:57Z</time>
      </trkpt>
      <trkpt lat="47.47714" lon="6.75064">
        <ele>309.1</ele>
        <time>2019-08-16T14:41:58Z</time>
      </trkpt>
      <trkpt lat="47.47714" lon="6.75056">
        <ele>309.1</ele>
        <time>2019-08-16T14:41:59Z</time>
      </trkpt>
      <trkpt lat="47.47714" lon="6.75049">
        <ele>309.1</ele>
        <time>2019-08-16T14:42:00Z</time>
      </trkpt>
      <trkpt lat="47.47714" lon="6.75042">
        <ele>309.1</ele>
        <time>2019-08-16T14:42:01Z</time>
      </trkpt>
      <trkpt lat="47.47715" lon="6.75035">
        <ele>309.1</ele>
        <time>2019-08-16T14:42:02Z</time>
      </trkpt>
      <trkpt lat="47.47715" lon="6.75029">
        <ele>309.2</ele>
        <time>2019-08-16T14:42:03Z</time>
      </trkpt>
      <trkpt lat="47.47715" lon="6.75022">
        <ele>309.2</ele>
        <time>2019-08-16T14:42:04Z</time>
      </trkpt>
      <trkpt lat="47.47716" lon="6.75014">
        <ele>309.2</ele>
        <time>2019-08-16T14:42:05Z</time>
      </trkpt>
      <trkpt lat="47.47716" lon="6.75007">
        <ele>309.2</ele>
        <time>2019-08-16T14:42:06Z</time>
      </trkpt>
      <trkpt lat="47.47716" lon="6.74999">
        <ele>309.2</ele>
        <time>2019-08-16T14:42:07Z</time>
      </trkpt>
      <trkpt lat="47.47716" lon="6.74991">
        <ele>309.2</ele>
        <time>2019-08-16T14:42:08Z</time>
      </trkpt>
      <trkpt lat="47.47716" lon="6.74984">
        <ele>309.2</ele>
        <time>2019-08-16T14:42:09Z</time>
      </trkpt>
      <trkpt lat="47.47717" lon="6.74976">
        <ele>309.2</ele>
        <time>2019-08-16T14:42:10Z</time>
      </trkpt>
      <trkpt lat="47.47717" lon="6.74968">
        <ele>309.2</ele>
        <time>2019-08-16T14:42:11Z</time>
      </trkpt>
      <trkpt lat="47.47717" lon="6.74961">
        <ele>309.2</ele>
        <time>2019-08-16T14:42:12Z</time>
      </trkpt>
      <trkpt lat="47.47717" lon="6.74954">
        <ele>309.2</ele>
        <time>2019-08-16T14:42:13Z</time>
      </trkpt>
      <trkpt lat="47.47718" lon="6.74947">
        <ele>309.2</ele>
        <time>2019-08-16T14:42:14Z</time>
      </trkpt>
      <trkpt lat="47.47718" lon="6.7494">
        <ele>309.2</ele>
        <time>2019-08-16T14:42:15Z</time>
      </trkpt>
      <trkpt lat="47.47717" lon="6.74933">
        <ele>309.2</ele>
        <time>2019-08-16T14:42:16Z</time>
      </trkpt>
      <trkpt lat="47.47718" lon="6.74926">
        <ele>309.2</ele>
        <time>2019-08-16T14:42:17Z</time>
      </trkpt>
      <trkpt lat="47.47718" lon="6.74919">
        <ele>309.2</ele>
        <time>2019-08-16T14:42:18Z</time>
      </trkpt>
      <trkpt lat="47.47718" lon="6.74911">
        <ele>309.2</ele>
        <time>2019-08-16T14:42:19Z</time>
      </trkpt>
      <trkpt lat="47.47718" lon="6.74904">
        <ele>309.2</ele>
        <time>2019-08-16T14:42:20Z</time>
      </trkpt>
      <trkpt lat="47.47717" lon="6.74897">
        <ele>309.2</ele>
        <time>2019-08-16T14:42:21Z</time>
      </trkpt>
      <trkpt lat="47.47717" lon="6.7489">
        <ele>309.3</ele>
        <time>2019-08-16T14:42:22Z</time>
      </trkpt>
      <trkpt lat="47.47718" lon="6.74882">
        <ele>309.3</ele>
        <time>2019-08-16T14:42:23Z</time>
      </trkpt>
      <trkpt lat="47.47718" lon="6.74875">
        <ele>309.3</ele>
        <time>2019-08-16T14:42:24Z</time>
      </trkpt>
      <trkpt lat="47.47718" lon="6.74868">
        <ele>309.3</ele>
        <time>2019-08-16T14:42:25Z</time>
      </trkpt>
      <trkpt lat="47.47718" lon="6.74861">
        <ele>309.3</ele>
        <time>2019-08-16T14:42:26Z</time>
      </trkpt>
      <trkpt lat="47.47718" lon="6.74854">
        <ele>309.4</ele>
        <time>2019-08-16T14:42:27Z</time>
      </trkpt>
      <trkpt lat="47.47718" lon="6.74848">
        <ele>309.4</ele>
        <time>2019-08-16T14:42:28Z</time>
      </trkpt>
      <trkpt lat="47.47718" lon="6.74843">
        <ele>309.4</ele>
        <time>2019-08-16T14:42:29Z</time>
      </trkpt>
      <trkpt lat="47.47717" lon="6.74836">
        <ele>309.4</ele>
        <time>2019-08-16T14:42:30Z</time>
      </trkpt>
      <trkpt lat="47.47715" lon="6.74829">
        <ele>309.4</ele>
        <time>2019-08-16T14:42:31Z</time>
      </trkpt>
      <trkpt lat="47.47714" lon="6.74822">
        <ele>309.5</ele>
        <time>2019-08-16T14:42:32Z</time>
      </trkpt>
      <trkpt lat="47.47714" lon="6.74815">
        <ele>309.5</ele>
        <time>2019-08-16T14:42:33Z</time>
      </trkpt>
      <trkpt lat="47.47714" lon="6.74807">
        <ele>309.6</ele>
        <time>2019-08-16T14:42:34Z</time>
      </trkpt>
      <trkpt lat="47.47713" lon="6.748">
        <ele>309.6</ele>
        <time>2019-08-16T14:42:35Z</time>
      </trkpt>
      <trkpt lat="47.47714" lon="6.74792">
        <ele>309.6</ele>
        <time>2019-08-16T14:42:36Z</time>
      </trkpt>
      <trkpt lat="47.47714" lon="6.74785">
        <ele>309.7</ele>
        <time>2019-08-16T14:42:37Z</time>
      </trkpt>
      <trkpt lat="47.47715" lon="6.74778">
        <ele>309.7</ele>
        <time>2019-08-16T14:42:38Z</time>
      </trkpt>
      <trkpt lat="47.47715" lon="6.74771">
        <ele>309.7</ele>
        <time>2019-08-16T14:42:39Z</time>
      </trkpt>
      <trkpt lat="47.47716" lon="6.74763">
        <ele>309.8</ele>
        <time>2019-08-16T14:42:40Z</time>
      </trkpt>
      <trkpt lat="47.47717" lon="6.74757">
        <ele>309.8</ele>
        <time>2019-08-16T14:42:41Z</time>
      </trkpt>
      <trkpt lat="47.47717" lon="6.74749">
        <ele>309.8</ele>
        <time>2019-08-16T14:42:42Z</time>
      </trkpt>
      <trkpt lat="47.47717" lon="6.74742">
        <ele>309.8</ele>
        <time>2019-08-16T14:42:43Z</time>
      </trkpt>
      <trkpt lat="47.47718" lon="6.74735">
        <ele>309.8</ele>
        <time>2019-08-16T14:42:44Z</time>
      </trkpt>
      <trkpt lat="47.47718" lon="6.74729">
        <ele>309.8</ele>
        <time>2019-08-16T14:42:45Z</time>
      </trkpt>
      <trkpt lat="47.47719" lon="6.74722">
        <ele>309.8</ele>
        <time>2019-08-16T14:42:46Z</time>
      </trkpt>
      <trkpt lat="47.47719" lon="6.74714">
        <ele>309.8</ele>
        <time>2019-08-16T14:42:47Z</time>
      </trkpt>
      <trkpt lat="47.4772" lon="6.74707">
        <ele>309.8</ele>
        <time>2019-08-16T14:42:48Z</time>
      </trkpt>
      <trkpt lat="47.4772" lon="6.747">
        <ele>309.8</ele>
        <time>2019-08-16T14:42:49Z</time>
      </trkpt>
      <trkpt lat="47.4772" lon="6.74693">
        <ele>309.8</ele>
        <time>2019-08-16T14:42:50Z</time>
      </trkpt>
      <trkpt lat="47.47719" lon="6.74686">
        <ele>309.8</ele>
        <time>2019-08-16T14:42:51Z</time>
      </trkpt>
      <trkpt lat="47.4772" lon="6.74678">
        <ele>309.7</ele>
        <time>2019-08-16T14:42:52Z</time>
      </trkpt>
      <trkpt lat="47.47721" lon="6.74671">
        <ele>309.7</ele>
        <time>2019-08-16T14:42:53Z</time>
      </trkpt>
      <trkpt lat="47.47721" lon="6.74664">
        <ele>309.7</ele>
        <time>2019-08-16T14:42:54Z</time>
      </trkpt>
      <trkpt lat="47.4772" lon="6.74657">
        <ele>309.7</ele>
        <time>2019-08-16T14:42:55Z</time>
      </trkpt>
      <trkpt lat="47.47719" lon="6.74651">
        <ele>309.6</ele>
        <time>2019-08-16T14:42:56Z</time>
      </trkpt>
      <trkpt lat="47.47719" lon="6.74644">
        <ele>309.6</ele>
        <time>2019-08-16T14:42:57Z</time>
      </trkpt>
      <trkpt lat="47.47718" lon="6.74637">
        <ele>309.6</ele>
        <time>2019-08-16T14:42:58Z</time>
      </trkpt>
      <trkpt lat="47.47717" lon="6.74631">
        <ele>309.5</ele>
        <time>2019-08-16T14:42:59Z</time>
      </trkpt>
      <trkpt lat="47.47716" lon="6.74624">
        <ele>309.5</ele>
        <time>2019-08-16T14:43:00Z</time>
      </trkpt>
      <trkpt lat="47.47716" lon="6.74617">
        <ele>309.5</ele>
        <time>2019-08-16T14:43:01Z</time>
      </trkpt>
      <trkpt lat="47.47716" lon="6.7461">
        <ele>309.5</ele>
        <time>2019-08-16T14:43:02Z</time>
      </trkpt>
      <trkpt lat="47.47715" lon="6.74604">
        <ele>309.4</ele>
        <time>2019-08-16T14:43:03Z</time>
      </trkpt>
      <trkpt lat="47.47715" lon="6.74597">
        <ele>309.4</ele>
        <time>2019-08-16T14:43:04Z</time>
      </trkpt>
      <trkpt lat="47.47715" lon="6.7459">
        <ele>309.4</ele>
        <time>2019-08-16T14:43:05Z</time>
      </trkpt>
      <trkpt lat="47.47715" lon="6.74583">
        <ele>309.4</ele>
        <time>2019-08-16T14:43:06Z</time>
      </trkpt>
      <trkpt lat="47.47714" lon="6.74576">
        <ele>309.4</ele>
        <time>2019-08-16T14:43:07Z</time>
      </trkpt>
      <trkpt lat="47.47714" lon="6.74568">
        <ele>309.3</ele>
        <time>2019-08-16T14:43:08Z</time>
      </trkpt>
      <trkpt lat="47.47714" lon="6.7456">
        <ele>309.3</ele>
        <time>2019-08-16T14:43:09Z</time>
      </trkpt>
      <trkpt lat="47.47713" lon="6.74555">
        <ele>309.3</ele>
        <time>2019-08-16T14:43:10Z</time>
      </trkpt>
      <trkpt lat="47.47712" lon="6.74547">
        <ele>309.3</ele>
        <time>2019-08-16T14:43:11Z</time>
      </trkpt>
      <trkpt lat="47.4771" lon="6.74541">
        <ele>309.3</ele>
        <time>2019-08-16T14:43:12Z</time>
      </trkpt>
      <trkpt lat="47.47708" lon="6.74535">
        <ele>309.3</ele>
        <time>2019-08-16T14:43:13Z</time>
      </trkpt>
      <trkpt lat="47.47707" lon="6.74529">
        <ele>309.3</ele>
        <time>2019-08-16T14:43:14Z</time>
      </trkpt>
      <trkpt lat="47.47706" lon="6.74523">
        <ele>309.3</ele>
        <time>2019-08-16T14:43:15Z</time>
      </trkpt>
      <trkpt lat="47.47705" lon="6.74516">
        <ele>309.3</ele>
        <time>2019-08-16T14:43:16Z</time>
      </trkpt>
      <trkpt lat="47.47705" lon="6.74509">
        <ele>309.3</ele>
        <time>2019-08-16T14:43:17Z</time>
      </trkpt>
      <trkpt lat="47.47704" lon="6.74502">
        <ele>309.3</ele>
        <time>2019-08-16T14:43:18Z</time>
      </trkpt>
      <trkpt lat="47.47704" lon="6.74496">
        <ele>309.3</ele>
        <time>2019-08-16T14:43:19Z</time>
      </trkpt>
      <trkpt lat="47.47704" lon="6.7449">
        <ele>309.3</ele>
        <time>2019-08-16T14:43:20Z</time>
      </trkpt>
      <trkpt lat="47.47704" lon="6.74483">
        <ele>309.3</ele>
        <time>2019-08-16T14:43:21Z</time>
      </trkpt>
      <trkpt lat="47.47705" lon="6.74476">
        <ele>309.2</ele>
        <time>2019-08-16T14:43:22Z</time>
      </trkpt>
      <trkpt lat="47.47704" lon="6.74469">
        <ele>309.2</ele>
        <time>2019-08-16T14:43:23Z</time>
      </trkpt>
      <trkpt lat="47.47704" lon="6.74463">
        <ele>309.1</ele>
        <time>2019-08-16T14:43:24Z</time>
      </trkpt>
      <trkpt lat="47.47704" lon="6.74456">
        <ele>309.1</ele>
        <time>2019-08-16T14:43:25Z</time>
      </trkpt>
      <trkpt lat="47.47704" lon="6.7445">
        <ele>309</ele>
        <time>2019-08-16T14:43:26Z</time>
      </trkpt>
      <trkpt lat="47.47704" lon="6.74445">
        <ele>308.9</ele>
        <time>2019-08-16T14:43:27Z</time>
      </trkpt>
      <trkpt lat="47.47706" lon="6.7444">
        <ele>308.9</ele>
        <time>2019-08-16T14:43:28Z</time>
      </trkpt>
      <trkpt lat="47.47709" lon="6.74436">
        <ele>308.8</ele>
        <time>2019-08-16T14:43:29Z</time>
      </trkpt>
      <trkpt lat="47.4771" lon="6.7443">
        <ele>308.6</ele>
        <time>2019-08-16T14:43:30Z</time>
      </trkpt>
      <trkpt lat="47.47711" lon="6.74424">
        <ele>308.5</ele>
        <time>2019-08-16T14:43:31Z</time>
      </trkpt>
      <trkpt lat="47.47711" lon="6.74418">
        <ele>308.6</ele>
        <time>2019-08-16T14:43:32Z</time>
      </trkpt>
      <trkpt lat="47.4771" lon="6.74412">
        <ele>308.7</ele>
        <time>2019-08-16T14:43:33Z</time>
      </trkpt>
      <trkpt lat="47.47711" lon="6.74405">
        <ele>308.7</ele>
        <time>2019-08-16T14:43:34Z</time>
      </trkpt>
      <trkpt lat="47.4771" lon="6.74399">
        <ele>308.7</ele>
        <time>2019-08-16T14:43:35Z</time>
      </trkpt>
      <trkpt lat="47.4771" lon="6.74393">
        <ele>308.8</ele>
        <time>2019-08-16T14:43:36Z</time>
      </trkpt>
      <trkpt lat="47.4771" lon="6.74386">
        <ele>308.8</ele>
        <time>2019-08-16T14:43:37Z</time>
      </trkpt>
      <trkpt lat="47.47708" lon="6.74382">
        <ele>308.9</ele>
        <time>2019-08-16T14:43:38Z</time>
      </trkpt>
      <trkpt lat="47.47707" lon="6.74376">
        <ele>308.9</ele>
        <time>2019-08-16T14:43:39Z</time>
      </trkpt>
      <trkpt lat="47.47708" lon="6.74368">
        <ele>308.9</ele>
        <time>2019-08-16T14:43:40Z</time>
      </trkpt>
      <trkpt lat="47.47707" lon="6.74361">
        <ele>309</ele>
        <time>2019-08-16T14:43:41Z</time>
      </trkpt>
      <trkpt lat="47.47706" lon="6.74354">
        <ele>309</ele>
        <time>2019-08-16T14:43:42Z</time>
      </trkpt>
      <trkpt lat="47.47706" lon="6.74347">
        <ele>309</ele>
        <time>2019-08-16T14:43:43Z</time>
      </trkpt>
      <trkpt lat="47.47705" lon="6.7434">
        <ele>309.1</ele>
        <time>2019-08-16T14:43:44Z</time>
      </trkpt>
      <trkpt lat="47.47704" lon="6.74334">
        <ele>309.1</ele>
        <time>2019-08-16T14:43:45Z</time>
      </trkpt>
      <trkpt lat="47.47703" lon="6.74328">
        <ele>309.1</ele>
        <time>2019-08-16T14:43:46Z</time>
      </trkpt>
      <trkpt lat="47.47702" lon="6.74322">
        <ele>309.2</ele>
        <time>2019-08-16T14:43:47Z</time>
      </trkpt>
      <trkpt lat="47.47701" lon="6.74315">
        <ele>309.2</ele>
        <time>2019-08-16T14:43:48Z</time>
      </trkpt>
      <trkpt lat="47.477" lon="6.74309">
        <ele>309.2</ele>
        <time>2019-08-16T14:43:49Z</time>
      </trkpt>
      <trkpt lat="47.477" lon="6.74302">
        <ele>309.3</ele>
        <time>2019-08-16T14:43:50Z</time>
      </trkpt>
      <trkpt lat="47.47699" lon="6.74294">
        <ele>309.3</ele>
        <time>2019-08-16T14:43:51Z</time>
      </trkpt>
      <trkpt lat="47.47699" lon="6.74286">
        <ele>309.3</ele>
        <time>2019-08-16T14:43:52Z</time>
      </trkpt>
      <trkpt lat="47.47698" lon="6.74279">
        <ele>309.4</ele>
        <time>2019-08-16T14:43:53Z</time>
      </trkpt>
      <trkpt lat="47.47697" lon="6.74271">
        <ele>309.4</ele>
        <time>2019-08-16T14:43:54Z</time>
      </trkpt>
      <trkpt lat="47.47696" lon="6.74263">
        <ele>309.4</ele>
        <time>2019-08-16T14:43:55Z</time>
      </trkpt>
      <trkpt lat="47.47695" lon="6.74256">
        <ele>309.4</ele>
        <time>2019-08-16T14:43:56Z</time>
      </trkpt>
      <trkpt lat="47.47694" lon="6.74249">
        <ele>309.5</ele>
        <time>2019-08-16T14:43:57Z</time>
      </trkpt>
      <trkpt lat="47.47692" lon="6.74241">
        <ele>309.5</ele>
        <time>2019-08-16T14:43:58Z</time>
      </trkpt>
      <trkpt lat="47.47691" lon="6.74233">
        <ele>309.5</ele>
        <time>2019-08-16T14:43:59Z</time>
      </trkpt>
      <trkpt lat="47.47689" lon="6.74227">
        <ele>309.5</ele>
        <time>2019-08-16T14:44:00Z</time>
      </trkpt>
      <trkpt lat="47.47688" lon="6.7422">
        <ele>309.6</ele>
        <time>2019-08-16T14:44:01Z</time>
      </trkpt>
      <trkpt lat="47.47686" lon="6.74213">
        <ele>309.6</ele>
        <time>2019-08-16T14:44:02Z</time>
      </trkpt>
      <trkpt lat="47.47685" lon="6.74207">
        <ele>309.6</ele>
        <time>2019-08-16T14:44:03Z</time>
      </trkpt>
      <trkpt lat="47.47683" lon="6.742">
        <ele>309.6</ele>
        <time>2019-08-16T14:44:04Z</time>
      </trkpt>
      <trkpt lat="47.47682" lon="6.74193">
        <ele>309.7</ele>
        <time>2019-08-16T14:44:05Z</time>
      </trkpt>
      <trkpt lat="47.47681" lon="6.74186">
        <ele>309.7</ele>
        <time>2019-08-16T14:44:06Z</time>
      </trkpt>
      <trkpt lat="47.4768" lon="6.74179">
        <ele>309.7</ele>
        <time>2019-08-16T14:44:07Z</time>
      </trkpt>
      <trkpt lat="47.4768" lon="6.74172">
        <ele>309.8</ele>
        <time>2019-08-16T14:44:08Z</time>
      </trkpt>
      <trkpt lat="47.47678" lon="6.74166">
        <ele>309.8</ele>
        <time>2019-08-16T14:44:09Z</time>
      </trkpt>
      <trkpt lat="47.47677" lon="6.7416">
        <ele>309.8</ele>
        <time>2019-08-16T14:44:10Z</time>
      </trkpt>
      <trkpt lat="47.47676" lon="6.74153">
        <ele>309.8</ele>
        <time>2019-08-16T14:44:11Z</time>
      </trkpt>
      <trkpt lat="47.47675" lon="6.74147">
        <ele>309.9</ele>
        <time>2019-08-16T14:44:12Z</time>
      </trkpt>
      <trkpt lat="47.47674" lon="6.74142">
        <ele>309.9</ele>
        <time>2019-08-16T14:44:13Z</time>
      </trkpt>
      <trkpt lat="47.47674" lon="6.74137">
        <ele>309.9</ele>
        <time>2019-08-16T14:44:14Z</time>
      </trkpt>
      <trkpt lat="47.47673" lon="6.74131">
        <ele>309.9</ele>
        <time>2019-08-16T14:44:16Z</time>
      </trkpt>
      <trkpt lat="47.47672" lon="6.74126">
        <ele>309.9</ele>
        <time>2019-08-16T14:44:19Z</time>
      </trkpt>
      <trkpt lat="47.47671" lon="6.7412">
        <ele>310</ele>
        <time>2019-08-16T14:44:21Z</time>
      </trkpt>
      <trkpt lat="47.47669" lon="6.74116">
        <ele>310</ele>
        <time>2019-08-16T14:44:22Z</time>
      </trkpt>
      <trkpt lat="47.47667" lon="6.74113">
        <ele>310</ele>
        <time>2019-08-16T14:44:23Z</time>
      </trkpt>
      <trkpt lat="47.47667" lon="6.74109">
        <ele>310</ele>
        <time>2019-08-16T14:44:24Z</time>
      </trkpt>
      <trkpt lat="47.47665" lon="6.74105">
        <ele>310</ele>
        <time>2019-08-16T14:44:26Z</time>
      </trkpt>
      <trkpt lat="47.47663" lon="6.74095">
        <ele>310</ele>
        <time>2019-08-16T14:44:28Z</time>
      </trkpt>
      <trkpt lat="47.47663" lon="6.7409">
        <ele>310</ele>
        <time>2019-08-16T14:44:29Z</time>
      </trkpt>
      <trkpt lat="47.47662" lon="6.74084">
        <ele>310</ele>
        <time>2019-08-16T14:44:30Z</time>
      </trkpt>
      <trkpt lat="47.47662" lon="6.74079">
        <ele>310</ele>
        <time>2019-08-16T14:44:31Z</time>
      </trkpt>
      <trkpt lat="47.47661" lon="6.74076">
        <ele>309.9</ele>
        <time>2019-08-16T14:44:32Z</time>
      </trkpt>
      <trkpt lat="47.47659" lon="6.7407">
        <ele>309.9</ele>
        <time>2019-08-16T14:44:33Z</time>
      </trkpt>
      <trkpt lat="47.47658" lon="6.74063">
        <ele>309.9</ele>
        <time>2019-08-16T14:44:34Z</time>
      </trkpt>
      <trkpt lat="47.47656" lon="6.74057">
        <ele>309.9</ele>
        <time>2019-08-16T14:44:35Z</time>
      </trkpt>
      <trkpt lat="47.47654" lon="6.7405">
        <ele>309.8</ele>
        <time>2019-08-16T14:44:36Z</time>
      </trkpt>
      <trkpt lat="47.47653" lon="6.74044">
        <ele>309.8</ele>
        <time>2019-08-16T14:44:37Z</time>
      </trkpt>
      <trkpt lat="47.47651" lon="6.74037">
        <ele>309.8</ele>
        <time>2019-08-16T14:44:38Z</time>
      </trkpt>
      <trkpt lat="47.47649" lon="6.7403">
        <ele>309.7</ele>
        <time>2019-08-16T14:44:39Z</time>
      </trkpt>
      <trkpt lat="47.47648" lon="6.74024">
        <ele>309.7</ele>
        <time>2019-08-16T14:44:40Z</time>
      </trkpt>
      <trkpt lat="47.47646" lon="6.74017">
        <ele>309.6</ele>
        <time>2019-08-16T14:44:41Z</time>
      </trkpt>
      <trkpt lat="47.47645" lon="6.7401">
        <ele>309.6</ele>
        <time>2019-08-16T14:44:42Z</time>
      </trkpt>
      <trkpt lat="47.47644" lon="6.74003">
        <ele>309.6</ele>
        <time>2019-08-16T14:44:43Z</time>
      </trkpt>
      <trkpt lat="47.47642" lon="6.73997">
        <ele>309.5</ele>
        <time>2019-08-16T14:44:44Z</time>
      </trkpt>
      <trkpt lat="47.4764" lon="6.73991">
        <ele>309.5</ele>
        <time>2019-08-16T14:44:45Z</time>
      </trkpt>
      <trkpt lat="47.47639" lon="6.73984">
        <ele>309.5</ele>
        <time>2019-08-16T14:44:46Z</time>
      </trkpt>
      <trkpt lat="47.47638" lon="6.73976">
        <ele>309.4</ele>
        <time>2019-08-16T14:44:47Z</time>
      </trkpt>
      <trkpt lat="47.47637" lon="6.73968">
        <ele>309.4</ele>
        <time>2019-08-16T14:44:48Z</time>
      </trkpt>
      <trkpt lat="47.47636" lon="6.7396">
        <ele>309.4</ele>
        <time>2019-08-16T14:44:49Z</time>
      </trkpt>
      <trkpt lat="47.47634" lon="6.73953">
        <ele>309.3</ele>
        <time>2019-08-16T14:44:50Z</time>
      </trkpt>
      <trkpt lat="47.47632" lon="6.73945">
        <ele>309.3</ele>
        <time>2019-08-16T14:44:51Z</time>
      </trkpt>
      <trkpt lat="47.47631" lon="6.73938">
        <ele>309.2</ele>
        <time>2019-08-16T14:44:52Z</time>
      </trkpt>
      <trkpt lat="47.47629" lon="6.73931">
        <ele>309.2</ele>
        <time>2019-08-16T14:44:53Z</time>
      </trkpt>
      <trkpt lat="47.47627" lon="6.73924">
        <ele>309.2</ele>
        <time>2019-08-16T14:44:54Z</time>
      </trkpt>
      <trkpt lat="47.47625" lon="6.73917">
        <ele>309.2</ele>
        <time>2019-08-16T14:44:55Z</time>
      </trkpt>
      <trkpt lat="47.47623" lon="6.73909">
        <ele>309.1</ele>
        <time>2019-08-16T14:44:56Z</time>
      </trkpt>
      <trkpt lat="47.47622" lon="6.73902">
        <ele>309.1</ele>
        <time>2019-08-16T14:44:57Z</time>
      </trkpt>
      <trkpt lat="47.47621" lon="6.73894">
        <ele>309.1</ele>
        <time>2019-08-16T14:44:58Z</time>
      </trkpt>
      <trkpt lat="47.4762" lon="6.73887">
        <ele>309</ele>
        <time>2019-08-16T14:44:59Z</time>
      </trkpt>
      <trkpt lat="47.47619" lon="6.7388">
        <ele>309</ele>
        <time>2019-08-16T14:45:00Z</time>
      </trkpt>
      <trkpt lat="47.47618" lon="6.73873">
        <ele>309</ele>
        <time>2019-08-16T14:45:01Z</time>
      </trkpt>
      <trkpt lat="47.47617" lon="6.73866">
        <ele>309</ele>
        <time>2019-08-16T14:45:02Z</time>
      </trkpt>
      <trkpt lat="47.47616" lon="6.73859">
        <ele>308.9</ele>
        <time>2019-08-16T14:45:03Z</time>
      </trkpt>
      <trkpt lat="47.47615" lon="6.73853">
        <ele>308.9</ele>
        <time>2019-08-16T14:45:04Z</time>
      </trkpt>
      <trkpt lat="47.47614" lon="6.73845">
        <ele>308.9</ele>
        <time>2019-08-16T14:45:05Z</time>
      </trkpt>
      <trkpt lat="47.47613" lon="6.73837">
        <ele>308.9</ele>
        <time>2019-08-16T14:45:06Z</time>
      </trkpt>
      <trkpt lat="47.47611" lon="6.73829">
        <ele>308.8</ele>
        <time>2019-08-16T14:45:07Z</time>
      </trkpt>
      <trkpt lat="47.47609" lon="6.73822">
        <ele>308.8</ele>
        <time>2019-08-16T14:45:08Z</time>
      </trkpt>
      <trkpt lat="47.47607" lon="6.73814">
        <ele>308.8</ele>
        <time>2019-08-16T14:45:09Z</time>
      </trkpt>
      <trkpt lat="47.47606" lon="6.73808">
        <ele>308.8</ele>
        <time>2019-08-16T14:45:10Z</time>
      </trkpt>
      <trkpt lat="47.47604" lon="6.73801">
        <ele>308.7</ele>
        <time>2019-08-16T14:45:11Z</time>
      </trkpt>
      <trkpt lat="47.47602" lon="6.73795">
        <ele>308.7</ele>
        <time>2019-08-16T14:45:12Z</time>
      </trkpt>
      <trkpt lat="47.47601" lon="6.73788">
        <ele>308.7</ele>
        <time>2019-08-16T14:45:13Z</time>
      </trkpt>
      <trkpt lat="47.476" lon="6.73781">
        <ele>308.7</ele>
        <time>2019-08-16T14:45:14Z</time>
      </trkpt>
      <trkpt lat="47.47599" lon="6.73774">
        <ele>308.7</ele>
        <time>2019-08-16T14:45:15Z</time>
      </trkpt>
      <trkpt lat="47.47597" lon="6.73768">
        <ele>308.7</ele>
        <time>2019-08-16T14:45:16Z</time>
      </trkpt>
      <trkpt lat="47.47596" lon="6.73762">
        <ele>308.7</ele>
        <time>2019-08-16T14:45:17Z</time>
      </trkpt>
      <trkpt lat="47.47595" lon="6.73755">
        <ele>308.7</ele>
        <time>2019-08-16T14:45:18Z</time>
      </trkpt>
      <trkpt lat="47.47594" lon="6.73749">
        <ele>308.6</ele>
        <time>2019-08-16T14:45:19Z</time>
      </trkpt>
      <trkpt lat="47.47593" lon="6.73743">
        <ele>308.6</ele>
        <time>2019-08-16T14:45:20Z</time>
      </trkpt>
      <trkpt lat="47.47592" lon="6.73736">
        <ele>308.6</ele>
        <time>2019-08-16T14:45:21Z</time>
      </trkpt>
      <trkpt lat="47.4759" lon="6.7373">
        <ele>308.6</ele>
        <time>2019-08-16T14:45:22Z</time>
      </trkpt>
      <trkpt lat="47.47588" lon="6.73724">
        <ele>308.6</ele>
        <time>2019-08-16T14:45:23Z</time>
      </trkpt>
      <trkpt lat="47.47586" lon="6.73718">
        <ele>308.6</ele>
        <time>2019-08-16T14:45:24Z</time>
      </trkpt>
      <trkpt lat="47.47584" lon="6.73712">
        <ele>308.6</ele>
        <time>2019-08-16T14:45:25Z</time>
      </trkpt>
      <trkpt lat="47.47582" lon="6.73705">
        <ele>308.6</ele>
        <time>2019-08-16T14:45:26Z</time>
      </trkpt>
      <trkpt lat="47.4758" lon="6.73699">
        <ele>308.6</ele>
        <time>2019-08-16T14:45:27Z</time>
      </trkpt>
      <trkpt lat="47.47578" lon="6.73692">
        <ele>308.6</ele>
        <time>2019-08-16T14:45:28Z</time>
      </trkpt>
      <trkpt lat="47.47578" lon="6.73684">
        <ele>308.6</ele>
        <time>2019-08-16T14:45:29Z</time>
      </trkpt>
      <trkpt lat="47.47577" lon="6.73677">
        <ele>308.6</ele>
        <time>2019-08-16T14:45:30Z</time>
      </trkpt>
      <trkpt lat="47.47576" lon="6.7367">
        <ele>308.5</ele>
        <time>2019-08-16T14:45:31Z</time>
      </trkpt>
      <trkpt lat="47.47575" lon="6.73664">
        <ele>308.5</ele>
        <time>2019-08-16T14:45:32Z</time>
      </trkpt>
      <trkpt lat="47.47573" lon="6.73658">
        <ele>308.5</ele>
        <time>2019-08-16T14:45:33Z</time>
      </trkpt>
      <trkpt lat="47.47572" lon="6.73651">
        <ele>308.5</ele>
        <time>2019-08-16T14:45:34Z</time>
      </trkpt>
      <trkpt lat="47.4757" lon="6.73643">
        <ele>308.4</ele>
        <time>2019-08-16T14:45:35Z</time>
      </trkpt>
      <trkpt lat="47.47569" lon="6.73635">
        <ele>308.4</ele>
        <time>2019-08-16T14:45:36Z</time>
      </trkpt>
      <trkpt lat="47.47568" lon="6.73627">
        <ele>308.3</ele>
        <time>2019-08-16T14:45:37Z</time>
      </trkpt>
      <trkpt lat="47.47567" lon="6.73619">
        <ele>308.2</ele>
        <time>2019-08-16T14:45:38Z</time>
      </trkpt>
      <trkpt lat="47.47566" lon="6.73612">
        <ele>308.2</ele>
        <time>2019-08-16T14:45:39Z</time>
      </trkpt>
      <trkpt lat="47.47566" lon="6.73605">
        <ele>308.1</ele>
        <time>2019-08-16T14:45:40Z</time>
      </trkpt>
      <trkpt lat="47.47566" lon="6.73599">
        <ele>308</ele>
        <time>2019-08-16T14:45:41Z</time>
      </trkpt>
      <trkpt lat="47.47566" lon="6.73594">
        <ele>308</ele>
        <time>2019-08-16T14:45:42Z</time>
      </trkpt>
      <trkpt lat="47.47566" lon="6.73589">
        <ele>307.9</ele>
        <time>2019-08-16T14:45:43Z</time>
      </trkpt>
      <trkpt lat="47.47562" lon="6.73585">
        <ele>307.9</ele>
        <time>2019-08-16T14:45:45Z</time>
      </trkpt>
      <trkpt lat="47.47559" lon="6.73584">
        <ele>307.8</ele>
        <time>2019-08-16T14:45:46Z</time>
      </trkpt>
      <trkpt lat="47.47556" lon="6.73585">
        <ele>307.6</ele>
        <time>2019-08-16T14:45:47Z</time>
      </trkpt>
      <trkpt lat="47.47553" lon="6.73585">
        <ele>307.6</ele>
        <time>2019-08-16T14:45:48Z</time>
      </trkpt>
      <trkpt lat="47.4755" lon="6.73583">
        <ele>307.6</ele>
        <time>2019-08-16T14:45:50Z</time>
      </trkpt>
      <trkpt lat="47.47551" lon="6.73577">
        <ele>307.6</ele>
        <time>2019-08-16T14:45:52Z</time>
      </trkpt>
      <trkpt lat="47.47551" lon="6.73573">
        <ele>307.5</ele>
        <time>2019-08-16T14:45:53Z</time>
      </trkpt>
      <trkpt lat="47.47551" lon="6.73569">
        <ele>307.5</ele>
        <time>2019-08-16T14:45:54Z</time>
      </trkpt>
      <trkpt lat="47.47551" lon="6.73564">
        <ele>307.5</ele>
        <time>2019-08-16T14:45:55Z</time>
      </trkpt>
      <trkpt lat="47.4755" lon="6.73559">
        <ele>307.5</ele>
        <time>2019-08-16T14:45:56Z</time>
      </trkpt>
      <trkpt lat="47.4755" lon="6.73555">
        <ele>307.4</ele>
        <time>2019-08-16T14:45:57Z</time>
      </trkpt>
      <trkpt lat="47.4755" lon="6.73549">
        <ele>307.4</ele>
        <time>2019-08-16T14:45:58Z</time>
      </trkpt>
      <trkpt lat="47.47549" lon="6.73544">
        <ele>307.4</ele>
        <time>2019-08-16T14:45:59Z</time>
      </trkpt>
      <trkpt lat="47.47548" lon="6.73538">
        <ele>307.5</ele>
        <time>2019-08-16T14:46:00Z</time>
      </trkpt>
      <trkpt lat="47.47547" lon="6.73532">
        <ele>307.5</ele>
        <time>2019-08-16T14:46:01Z</time>
      </trkpt>
      <trkpt lat="47.47547" lon="6.73525">
        <ele>307.6</ele>
        <time>2019-08-16T14:46:02Z</time>
      </trkpt>
      <trkpt lat="47.47546" lon="6.73519">
        <ele>307.6</ele>
        <time>2019-08-16T14:46:03Z</time>
      </trkpt>
      <trkpt lat="47.47545" lon="6.73513">
        <ele>307.7</ele>
        <time>2019-08-16T14:46:04Z</time>
      </trkpt>
      <trkpt lat="47.47545" lon="6.73507">
        <ele>307.7</ele>
        <time>2019-08-16T14:46:05Z</time>
      </trkpt>
      <trkpt lat="47.47543" lon="6.735">
        <ele>307.8</ele>
        <time>2019-08-16T14:46:06Z</time>
      </trkpt>
      <trkpt lat="47.47542" lon="6.73494">
        <ele>307.8</ele>
        <time>2019-08-16T14:46:07Z</time>
      </trkpt>
      <trkpt lat="47.47541" lon="6.73488">
        <ele>307.9</ele>
        <time>2019-08-16T14:46:08Z</time>
      </trkpt>
      <trkpt lat="47.4754" lon="6.73482">
        <ele>307.9</ele>
        <time>2019-08-16T14:46:09Z</time>
      </trkpt>
      <trkpt lat="47.47538" lon="6.73476">
        <ele>308</ele>
        <time>2019-08-16T14:46:10Z</time>
      </trkpt>
      <trkpt lat="47.47537" lon="6.7347">
        <ele>308</ele>
        <time>2019-08-16T14:46:11Z</time>
      </trkpt>
      <trkpt lat="47.47536" lon="6.73465">
        <ele>308.1</ele>
        <time>2019-08-16T14:46:12Z</time>
      </trkpt>
      <trkpt lat="47.47535" lon="6.73459">
        <ele>308.1</ele>
        <time>2019-08-16T14:46:13Z</time>
      </trkpt>
      <trkpt lat="47.47534" lon="6.73454">
        <ele>308.1</ele>
        <time>2019-08-16T14:46:14Z</time>
      </trkpt>
      <trkpt lat="47.47533" lon="6.73449">
        <ele>308.2</ele>
        <time>2019-08-16T14:46:15Z</time>
      </trkpt>
      <trkpt lat="47.47533" lon="6.73444">
        <ele>308.2</ele>
        <time>2019-08-16T14:46:16Z</time>
      </trkpt>
      <trkpt lat="47.47532" lon="6.73438">
        <ele>308.2</ele>
        <time>2019-08-16T14:46:17Z</time>
      </trkpt>
      <trkpt lat="47.4753" lon="6.73434">
        <ele>308.3</ele>
        <time>2019-08-16T14:46:18Z</time>
      </trkpt>
      <trkpt lat="47.47528" lon="6.73428">
        <ele>308.3</ele>
        <time>2019-08-16T14:46:19Z</time>
      </trkpt>
      <trkpt lat="47.47527" lon="6.73423">
        <ele>308.4</ele>
        <time>2019-08-16T14:46:20Z</time>
      </trkpt>
      <trkpt lat="47.47526" lon="6.73418">
        <ele>308.4</ele>
        <time>2019-08-16T14:46:21Z</time>
      </trkpt>
      <trkpt lat="47.47524" lon="6.73414">
        <ele>308.4</ele>
        <time>2019-08-16T14:46:22Z</time>
      </trkpt>
      <trkpt lat="47.47523" lon="6.73409">
        <ele>308.5</ele>
        <time>2019-08-16T14:46:23Z</time>
      </trkpt>
      <trkpt lat="47.47521" lon="6.73404">
        <ele>308.5</ele>
        <time>2019-08-16T14:46:24Z</time>
      </trkpt>
      <trkpt lat="47.47519" lon="6.73399">
        <ele>308.5</ele>
        <time>2019-08-16T14:46:25Z</time>
      </trkpt>
      <trkpt lat="47.47517" lon="6.73393">
        <ele>308.6</ele>
        <time>2019-08-16T14:46:26Z</time>
      </trkpt>
      <trkpt lat="47.47516" lon="6.73388">
        <ele>308.6</ele>
        <time>2019-08-16T14:46:27Z</time>
      </trkpt>
      <trkpt lat="47.47515" lon="6.73382">
        <ele>308.7</ele>
        <time>2019-08-16T14:46:28Z</time>
      </trkpt>
      <trkpt lat="47.47514" lon="6.73377">
        <ele>308.7</ele>
        <time>2019-08-16T14:46:29Z</time>
      </trkpt>
      <trkpt lat="47.47513" lon="6.73373">
        <ele>308.7</ele>
        <time>2019-08-16T14:46:30Z</time>
      </trkpt>
      <trkpt lat="47.47511" lon="6.73366">
        <ele>308.8</ele>
        <time>2019-08-16T14:46:32Z</time>
      </trkpt>
      <trkpt lat="47.47505" lon="6.73363">
        <ele>308.9</ele>
        <time>2019-08-16T14:46:34Z</time>
      </trkpt>
      <trkpt lat="47.47501" lon="6.73364">
        <ele>308.9</ele>
        <time>2019-08-16T14:46:35Z</time>
      </trkpt>
      <trkpt lat="47.47497" lon="6.73365">
        <ele>309.1</ele>
        <time>2019-08-16T14:46:36Z</time>
      </trkpt>
      <trkpt lat="47.47492" lon="6.73365">
        <ele>309.2</ele>
        <time>2019-08-16T14:46:37Z</time>
      </trkpt>
      <trkpt lat="47.47489" lon="6.73365">
        <ele>309.3</ele>
        <time>2019-08-16T14:46:38Z</time>
      </trkpt>
      <trkpt lat="47.47485" lon="6.73363">
        <ele>309.4</ele>
        <time>2019-08-16T14:46:39Z</time>
      </trkpt>
      <trkpt lat="47.47482" lon="6.7336">
        <ele>309.5</ele>
        <time>2019-08-16T14:46:40Z</time>
      </trkpt>
      <trkpt lat="47.47479" lon="6.73356">
        <ele>309.5</ele>
        <time>2019-08-16T14:46:41Z</time>
      </trkpt>
      <trkpt lat="47.47477" lon="6.73352">
        <ele>309.8</ele>
        <time>2019-08-16T14:46:42Z</time>
      </trkpt>
      <trkpt lat="47.47475" lon="6.73347">
        <ele>309.9</ele>
        <time>2019-08-16T14:46:43Z</time>
      </trkpt>
      <trkpt lat="47.47473" lon="6.73342">
        <ele>310.1</ele>
        <time>2019-08-16T14:46:44Z</time>
      </trkpt>
      <trkpt lat="47.47472" lon="6.73337">
        <ele>310.2</ele>
        <time>2019-08-16T14:46:45Z</time>
      </trkpt>
      <trkpt lat="47.47469" lon="6.73333">
        <ele>310.3</ele>
        <time>2019-08-16T14:46:46Z</time>
      </trkpt>
      <trkpt lat="47.47467" lon="6.73327">
        <ele>310.4</ele>
        <time>2019-08-16T14:46:47Z</time>
      </trkpt>
      <trkpt lat="47.47465" lon="6.73321">
        <ele>310.6</ele>
        <time>2019-08-16T14:46:48Z</time>
      </trkpt>
      <trkpt lat="47.47464" lon="6.73315">
        <ele>310.6</ele>
        <time>2019-08-16T14:46:49Z</time>
      </trkpt>
      <trkpt lat="47.47462" lon="6.73309">
        <ele>310.7</ele>
        <time>2019-08-16T14:46:50Z</time>
      </trkpt>
      <trkpt lat="47.47461" lon="6.73303">
        <ele>310.8</ele>
        <time>2019-08-16T14:46:51Z</time>
      </trkpt>
      <trkpt lat="47.47461" lon="6.73297">
        <ele>310.9</ele>
        <time>2019-08-16T14:46:52Z</time>
      </trkpt>
      <trkpt lat="47.4746" lon="6.73291">
        <ele>311</ele>
        <time>2019-08-16T14:46:53Z</time>
      </trkpt>
      <trkpt lat="47.47459" lon="6.73286">
        <ele>311</ele>
        <time>2019-08-16T14:46:54Z</time>
      </trkpt>
      <trkpt lat="47.47458" lon="6.7328">
        <ele>311.1</ele>
        <time>2019-08-16T14:46:56Z</time>
      </trkpt>
      <trkpt lat="47.47457" lon="6.73276">
        <ele>311.1</ele>
        <time>2019-08-16T14:46:57Z</time>
      </trkpt>
      <trkpt lat="47.47456" lon="6.73272">
        <ele>311.2</ele>
        <time>2019-08-16T14:46:58Z</time>
      </trkpt>
      <trkpt lat="47.47455" lon="6.73268">
        <ele>311.2</ele>
        <time>2019-08-16T14:46:59Z</time>
      </trkpt>
      <trkpt lat="47.47454" lon="6.73264">
        <ele>311.3</ele>
        <time>2019-08-16T14:47:00Z</time>
      </trkpt>
      <trkpt lat="47.47453" lon="6.73259">
        <ele>311.3</ele>
        <time>2019-08-16T14:47:01Z</time>
      </trkpt>
      <trkpt lat="47.47453" lon="6.73254">
        <ele>311.4</ele>
        <time>2019-08-16T14:47:02Z</time>
      </trkpt>
      <trkpt lat="47.47452" lon="6.73248">
        <ele>311.5</ele>
        <time>2019-08-16T14:47:03Z</time>
      </trkpt>
      <trkpt lat="47.47451" lon="6.73244">
        <ele>311.5</ele>
        <time>2019-08-16T14:47:04Z</time>
      </trkpt>
      <trkpt lat="47.4745" lon="6.7324">
        <ele>311.6</ele>
        <time>2019-08-16T14:47:05Z</time>
      </trkpt>
      <trkpt lat="47.47449" lon="6.73236">
        <ele>311.6</ele>
        <time>2019-08-16T14:47:06Z</time>
      </trkpt>
      <trkpt lat="47.47448" lon="6.73231">
        <ele>311.7</ele>
        <time>2019-08-16T14:47:07Z</time>
      </trkpt>
      <trkpt lat="47.47449" lon="6.73225">
        <ele>311.7</ele>
        <time>2019-08-16T14:47:09Z</time>
      </trkpt>
      <trkpt lat="47.47451" lon="6.73221">
        <ele>311.7</ele>
        <time>2019-08-16T14:47:10Z</time>
      </trkpt>
      <trkpt lat="47.47455" lon="6.73215">
        <ele>311.7</ele>
        <time>2019-08-16T14:47:12Z</time>
      </trkpt>
      <trkpt lat="47.47458" lon="6.73212">
        <ele>311.7</ele>
        <time>2019-08-16T14:47:14Z</time>
      </trkpt>
      <trkpt lat="47.4746" lon="6.73203">
        <ele>311.7</ele>
        <time>2019-08-16T14:47:16Z</time>
      </trkpt>
      <trkpt lat="47.4746" lon="6.73199">
        <ele>311.7</ele>
        <time>2019-08-16T14:47:17Z</time>
      </trkpt>
      <trkpt lat="47.4746" lon="6.73195">
        <ele>311.7</ele>
        <time>2019-08-16T14:47:18Z</time>
      </trkpt>
      <trkpt lat="47.4746" lon="6.73191">
        <ele>311.6</ele>
        <time>2019-08-16T14:47:19Z</time>
      </trkpt>
      <trkpt lat="47.47461" lon="6.73186">
        <ele>311.6</ele>
        <time>2019-08-16T14:47:20Z</time>
      </trkpt>
      <trkpt lat="47.47461" lon="6.73181">
        <ele>311.6</ele>
        <time>2019-08-16T14:47:21Z</time>
      </trkpt>
      <trkpt lat="47.47461" lon="6.73177">
        <ele>311.6</ele>
        <time>2019-08-16T14:47:22Z</time>
      </trkpt>
      <trkpt lat="47.47463" lon="6.7317">
        <ele>311.6</ele>
        <time>2019-08-16T14:47:24Z</time>
      </trkpt>
      <trkpt lat="47.47463" lon="6.73165">
        <ele>311.6</ele>
        <time>2019-08-16T14:47:25Z</time>
      </trkpt>
      <trkpt lat="47.47463" lon="6.7316">
        <ele>311.6</ele>
        <time>2019-08-16T14:47:26Z</time>
      </trkpt>
      <trkpt lat="47.47463" lon="6.73152">
        <ele>311.4</ele>
        <time>2019-08-16T14:47:28Z</time>
      </trkpt>
      <trkpt lat="47.47463" lon="6.73147">
        <ele>311.4</ele>
        <time>2019-08-16T14:47:29Z</time>
      </trkpt>
      <trkpt lat="47.47463" lon="6.73143">
        <ele>311.3</ele>
        <time>2019-08-16T14:47:30Z</time>
      </trkpt>
      <trkpt lat="47.47464" lon="6.73139">
        <ele>311.2</ele>
        <time>2019-08-16T14:47:31Z</time>
      </trkpt>
      <trkpt lat="47.47464" lon="6.73134">
        <ele>311.1</ele>
        <time>2019-08-16T14:47:32Z</time>
      </trkpt>
      <trkpt lat="47.47464" lon="6.73129">
        <ele>311</ele>
        <time>2019-08-16T14:47:33Z</time>
      </trkpt>
      <trkpt lat="47.47464" lon="6.73124">
        <ele>310.8</ele>
        <time>2019-08-16T14:47:34Z</time>
      </trkpt>
      <trkpt lat="47.47464" lon="6.73119">
        <ele>310.5</ele>
        <time>2019-08-16T14:47:35Z</time>
      </trkpt>
      <trkpt lat="47.47466" lon="6.73111">
        <ele>310.3</ele>
        <time>2019-08-16T14:47:36Z</time>
      </trkpt>
      <trkpt lat="47.47467" lon="6.73105">
        <ele>310.1</ele>
        <time>2019-08-16T14:47:37Z</time>
      </trkpt>
      <trkpt lat="47.47467" lon="6.73099">
        <ele>309.8</ele>
        <time>2019-08-16T14:47:38Z</time>
      </trkpt>
      <trkpt lat="47.47467" lon="6.73093">
        <ele>309.6</ele>
        <time>2019-08-16T14:47:39Z</time>
      </trkpt>
      <trkpt lat="47.47467" lon="6.73088">
        <ele>309.5</ele>
        <time>2019-08-16T14:47:40Z</time>
      </trkpt>
      <trkpt lat="47.47465" lon="6.73082">
        <ele>309.4</ele>
        <time>2019-08-16T14:47:41Z</time>
      </trkpt>
      <trkpt lat="47.47463" lon="6.73077">
        <ele>309.3</ele>
        <time>2019-08-16T14:47:42Z</time>
      </trkpt>
      <trkpt lat="47.4746" lon="6.73073">
        <ele>309.3</ele>
        <time>2019-08-16T14:47:43Z</time>
      </trkpt>
      <trkpt lat="47.47457" lon="6.7307">
        <ele>309.3</ele>
        <time>2019-08-16T14:47:44Z</time>
      </trkpt>
      <trkpt lat="47.47455" lon="6.73067">
        <ele>309.4</ele>
        <time>2019-08-16T14:47:45Z</time>
      </trkpt>
      <trkpt lat="47.47453" lon="6.73064">
        <ele>309.4</ele>
        <time>2019-08-16T14:47:46Z</time>
      </trkpt>
      <trkpt lat="47.47451" lon="6.7306">
        <ele>309.5</ele>
        <time>2019-08-16T14:47:47Z</time>
      </trkpt>
      <trkpt lat="47.47449" lon="6.73054">
        <ele>309.6</ele>
        <time>2019-08-16T14:47:48Z</time>
      </trkpt>
      <trkpt lat="47.47446" lon="6.7305">
        <ele>309.7</ele>
        <time>2019-08-16T14:47:49Z</time>
      </trkpt>
      <trkpt lat="47.47444" lon="6.73046">
        <ele>309.8</ele>
        <time>2019-08-16T14:47:50Z</time>
      </trkpt>
      <trkpt lat="47.47441" lon="6.73042">
        <ele>309.9</ele>
        <time>2019-08-16T14:47:52Z</time>
      </trkpt>
      <trkpt lat="47.47441" lon="6.73046">
        <ele>310</ele>
        <time>2019-08-16T14:47:57Z</time>
      </trkpt>
      <trkpt lat="47.47438" lon="6.73046">
        <ele>310.1</ele>
        <time>2019-08-16T14:49:20Z</time>
      </trkpt>
      <trkpt lat="47.47435" lon="6.73047">
        <ele>310.2</ele>
        <time>2019-08-16T14:49:22Z</time>
      </trkpt>
      <trkpt lat="47.47432" lon="6.73048">
        <ele>310.3</ele>
        <time>2019-08-16T14:49:24Z</time>
      </trkpt>
      <trkpt lat="47.47428" lon="6.7305">
        <ele>310.5</ele>
        <time>2019-08-16T14:49:27Z</time>
      </trkpt>
      <trkpt lat="47.47425" lon="6.73053">
        <ele>310.6</ele>
        <time>2019-08-16T14:49:29Z</time>
      </trkpt>
      <trkpt lat="47.47421" lon="6.73051">
        <ele>310.7</ele>
        <time>2019-08-16T14:49:31Z</time>
      </trkpt>
      <trkpt lat="47.47418" lon="6.7305">
        <ele>310.8</ele>
        <time>2019-08-16T14:49:32Z</time>
      </trkpt>
      <trkpt lat="47.47416" lon="6.73047">
        <ele>310.9</ele>
        <time>2019-08-16T14:49:33Z</time>
      </trkpt>
      <trkpt lat="47.47413" lon="6.73045">
        <ele>311.1</ele>
        <time>2019-08-16T14:49:34Z</time>
      </trkpt>
      <trkpt lat="47.4741" lon="6.73044">
        <ele>311.2</ele>
        <time>2019-08-16T14:49:35Z</time>
      </trkpt>
      <trkpt lat="47.47405" lon="6.73041">
        <ele>311.4</ele>
        <time>2019-08-16T14:49:37Z</time>
      </trkpt>
      <trkpt lat="47.47402" lon="6.73038">
        <ele>311.6</ele>
        <time>2019-08-16T14:49:38Z</time>
      </trkpt>
      <trkpt lat="47.47399" lon="6.73036">
        <ele>311.7</ele>
        <time>2019-08-16T14:49:39Z</time>
      </trkpt>
      <trkpt lat="47.47397" lon="6.73035">
        <ele>311.8</ele>
        <time>2019-08-16T14:49:40Z</time>
      </trkpt>
      <trkpt lat="47.47391" lon="6.73032">
        <ele>312</ele>
        <time>2019-08-16T14:49:42Z</time>
      </trkpt>
      <trkpt lat="47.47387" lon="6.73029">
        <ele>312.1</ele>
        <time>2019-08-16T14:49:43Z</time>
      </trkpt>
      <trkpt lat="47.47385" lon="6.73028">
        <ele>312.2</ele>
        <time>2019-08-16T14:49:44Z</time>
      </trkpt>
      <trkpt lat="47.4738" lon="6.73027">
        <ele>312.2</ele>
        <time>2019-08-16T14:49:46Z</time>
      </trkpt>
      <trkpt lat="47.47377" lon="6.73025">
        <ele>312.2</ele>
        <time>2019-08-16T14:49:48Z</time>
      </trkpt>
      <trkpt lat="47.47373" lon="6.73023">
        <ele>312.3</ele>
        <time>2019-08-16T14:49:50Z</time>
      </trkpt>
      <trkpt lat="47.47369" lon="6.73022">
        <ele>312.3</ele>
        <time>2019-08-16T14:49:52Z</time>
      </trkpt>
      <trkpt lat="47.47363" lon="6.73022">
        <ele>312.4</ele>
        <time>2019-08-16T14:49:54Z</time>
      </trkpt>
      <trkpt lat="47.4736" lon="6.73022">
        <ele>312.5</ele>
        <time>2019-08-16T14:49:55Z</time>
      </trkpt>
      <trkpt lat="47.47357" lon="6.73021">
        <ele>312.6</ele>
        <time>2019-08-16T14:49:56Z</time>
      </trkpt>
      <trkpt lat="47.47354" lon="6.73021">
        <ele>312.7</ele>
        <time>2019-08-16T14:49:57Z</time>
      </trkpt>
      <trkpt lat="47.4735" lon="6.73021">
        <ele>312.8</ele>
        <time>2019-08-16T14:49:58Z</time>
      </trkpt>
      <trkpt lat="47.47347" lon="6.73022">
        <ele>312.9</ele>
        <time>2019-08-16T14:49:59Z</time>
      </trkpt>
      <trkpt lat="47.47343" lon="6.73022">
        <ele>313</ele>
        <time>2019-08-16T14:50:00Z</time>
      </trkpt>
      <trkpt lat="47.4734" lon="6.73021">
        <ele>313.1</ele>
        <time>2019-08-16T14:50:01Z</time>
      </trkpt>
      <trkpt lat="47.47337" lon="6.73019">
        <ele>313.3</ele>
        <time>2019-08-16T14:50:02Z</time>
      </trkpt>
      <trkpt lat="47.47335" lon="6.73017">
        <ele>313.4</ele>
        <time>2019-08-16T14:50:03Z</time>
      </trkpt>
      <trkpt lat="47.47332" lon="6.73015">
        <ele>313.6</ele>
        <time>2019-08-16T14:50:04Z</time>
      </trkpt>
      <trkpt lat="47.47329" lon="6.73012">
        <ele>313.8</ele>
        <time>2019-08-16T14:50:05Z</time>
      </trkpt>
      <trkpt lat="47.47327" lon="6.73009">
        <ele>314</ele>
        <time>2019-08-16T14:50:06Z</time>
      </trkpt>
      <trkpt lat="47.47325" lon="6.73006">
        <ele>314.2</ele>
        <time>2019-08-16T14:50:07Z</time>
      </trkpt>
      <trkpt lat="47.47323" lon="6.73003">
        <ele>314.3</ele>
        <time>2019-08-16T14:50:08Z</time>
      </trkpt>
      <trkpt lat="47.47322" lon="6.73">
        <ele>314.5</ele>
        <time>2019-08-16T14:50:09Z</time>
      </trkpt>
      <trkpt lat="47.47319" lon="6.72993">
        <ele>314.8</ele>
        <time>2019-08-16T14:50:11Z</time>
      </trkpt>
      <trkpt lat="47.47317" lon="6.7299">
        <ele>315</ele>
        <time>2019-08-16T14:50:12Z</time>
      </trkpt>
      <trkpt lat="47.47313" lon="6.72984">
        <ele>315.3</ele>
        <time>2019-08-16T14:50:14Z</time>
      </trkpt>
      <trkpt lat="47.4731" lon="6.72979">
        <ele>315.6</ele>
        <time>2019-08-16T14:50:16Z</time>
      </trkpt>
      <trkpt lat="47.47308" lon="6.72976">
        <ele>315.7</ele>
        <time>2019-08-16T14:50:17Z</time>
      </trkpt>
      <trkpt lat="47.47306" lon="6.72973">
        <ele>315.9</ele>
        <time>2019-08-16T14:50:18Z</time>
      </trkpt>
      <trkpt lat="47.47302" lon="6.72968">
        <ele>316.1</ele>
        <time>2019-08-16T14:50:20Z</time>
      </trkpt>
      <trkpt lat="47.473" lon="6.72964">
        <ele>316.2</ele>
        <time>2019-08-16T14:50:21Z</time>
      </trkpt>
      <trkpt lat="47.47298" lon="6.72961">
        <ele>316.3</ele>
        <time>2019-08-16T14:50:22Z</time>
      </trkpt>
      <trkpt lat="47.47297" lon="6.72958">
        <ele>316.4</ele>
        <time>2019-08-16T14:50:23Z</time>
      </trkpt>
      <trkpt lat="47.47295" lon="6.72954">
        <ele>316.5</ele>
        <time>2019-08-16T14:50:24Z</time>
      </trkpt>
      <trkpt lat="47.47293" lon="6.72951">
        <ele>316.6</ele>
        <time>2019-08-16T14:50:25Z</time>
      </trkpt>
      <trkpt lat="47.47291" lon="6.72948">
        <ele>316.7</ele>
        <time>2019-08-16T14:50:26Z</time>
      </trkpt>
      <trkpt lat="47.47289" lon="6.72946">
        <ele>316.8</ele>
        <time>2019-08-16T14:50:27Z</time>
      </trkpt>
      <trkpt lat="47.47286" lon="6.72943">
        <ele>316.9</ele>
        <time>2019-08-16T14:50:28Z</time>
      </trkpt>
      <trkpt lat="47.47283" lon="6.72937">
        <ele>317.1</ele>
        <time>2019-08-16T14:50:30Z</time>
      </trkpt>
      <trkpt lat="47.47281" lon="6.72934">
        <ele>317.2</ele>
        <time>2019-08-16T14:50:31Z</time>
      </trkpt>
      <trkpt lat="47.47279" lon="6.72932">
        <ele>317.3</ele>
        <time>2019-08-16T14:50:32Z</time>
      </trkpt>
      <trkpt lat="47.47276" lon="6.72929">
        <ele>317.4</ele>
        <time>2019-08-16T14:50:33Z</time>
      </trkpt>
      <trkpt lat="47.47272" lon="6.72924">
        <ele>317.7</ele>
        <time>2019-08-16T14:50:35Z</time>
      </trkpt>
      <trkpt lat="47.4727" lon="6.72921">
        <ele>317.8</ele>
        <time>2019-08-16T14:50:36Z</time>
      </trkpt>
      <trkpt lat="47.47265" lon="6.72916">
        <ele>318.1</ele>
        <time>2019-08-16T14:50:38Z</time>
      </trkpt>
      <trkpt lat="47.47263" lon="6.72914">
        <ele>318.3</ele>
        <time>2019-08-16T14:50:39Z</time>
      </trkpt>
      <trkpt lat="47.47261" lon="6.72911">
        <ele>318.4</ele>
        <time>2019-08-16T14:50:40Z</time>
      </trkpt>
      <trkpt lat="47.47257" lon="6.72907">
        <ele>318.7</ele>
        <time>2019-08-16T14:50:42Z</time>
      </trkpt>
      <trkpt lat="47.47253" lon="6.72901">
        <ele>318.9</ele>
        <time>2019-08-16T14:50:44Z</time>
      </trkpt>
      <trkpt lat="47.47249" lon="6.72897">
        <ele>319.2</ele>
        <time>2019-08-16T14:50:46Z</time>
      </trkpt>
      <trkpt lat="47.47247" lon="6.72894">
        <ele>319.3</ele>
        <time>2019-08-16T14:50:47Z</time>
      </trkpt>
      <trkpt lat="47.47243" lon="6.7289">
        <ele>319.6</ele>
        <time>2019-08-16T14:50:49Z</time>
      </trkpt>
      <trkpt lat="47.4724" lon="6.72888">
        <ele>319.7</ele>
        <time>2019-08-16T14:50:50Z</time>
      </trkpt>
      <trkpt lat="47.47236" lon="6.72887">
        <ele>319.8</ele>
        <time>2019-08-16T14:50:51Z</time>
      </trkpt>
      <trkpt lat="47.47233" lon="6.72886">
        <ele>320</ele>
        <time>2019-08-16T14:50:52Z</time>
      </trkpt>
      <trkpt lat="47.4723" lon="6.72886">
        <ele>320.1</ele>
        <time>2019-08-16T14:50:53Z</time>
      </trkpt>
      <trkpt lat="47.47226" lon="6.72885">
        <ele>320.2</ele>
        <time>2019-08-16T14:50:54Z</time>
      </trkpt>
      <trkpt lat="47.47222" lon="6.72885">
        <ele>320.4</ele>
        <time>2019-08-16T14:50:56Z</time>
      </trkpt>
      <trkpt lat="47.47217" lon="6.72884">
        <ele>320.6</ele>
        <time>2019-08-16T14:50:58Z</time>
      </trkpt>
      <trkpt lat="47.47212" lon="6.72883">
        <ele>320.9</ele>
        <time>2019-08-16T14:51:00Z</time>
      </trkpt>
      <trkpt lat="47.47209" lon="6.72883">
        <ele>321</ele>
        <time>2019-08-16T14:51:01Z</time>
      </trkpt>
      <trkpt lat="47.47206" lon="6.72884">
        <ele>321.2</ele>
        <time>2019-08-16T14:51:02Z</time>
      </trkpt>
      <trkpt lat="47.47203" lon="6.72884">
        <ele>321.4</ele>
        <time>2019-08-16T14:51:03Z</time>
      </trkpt>
      <trkpt lat="47.472" lon="6.72884">
        <ele>321.5</ele>
        <time>2019-08-16T14:51:04Z</time>
      </trkpt>
      <trkpt lat="47.47195" lon="6.72882">
        <ele>321.8</ele>
        <time>2019-08-16T14:51:06Z</time>
      </trkpt>
      <trkpt lat="47.4719" lon="6.72879">
        <ele>322.1</ele>
        <time>2019-08-16T14:51:08Z</time>
      </trkpt>
      <trkpt lat="47.47187" lon="6.72877">
        <ele>322.3</ele>
        <time>2019-08-16T14:51:09Z</time>
      </trkpt>
      <trkpt lat="47.47184" lon="6.72875">
        <ele>322.5</ele>
        <time>2019-08-16T14:51:10Z</time>
      </trkpt>
      <trkpt lat="47.47181" lon="6.72874">
        <ele>322.7</ele>
        <time>2019-08-16T14:51:11Z</time>
      </trkpt>
      <trkpt lat="47.47176" lon="6.72871">
        <ele>323</ele>
        <time>2019-08-16T14:51:13Z</time>
      </trkpt>
      <trkpt lat="47.47173" lon="6.7287">
        <ele>323.2</ele>
        <time>2019-08-16T14:51:14Z</time>
      </trkpt>
      <trkpt lat="47.4717" lon="6.72868">
        <ele>323.3</ele>
        <time>2019-08-16T14:51:15Z</time>
      </trkpt>
      <trkpt lat="47.47167" lon="6.72866">
        <ele>323.5</ele>
        <time>2019-08-16T14:51:16Z</time>
      </trkpt>
      <trkpt lat="47.47164" lon="6.72864">
        <ele>323.7</ele>
        <time>2019-08-16T14:51:17Z</time>
      </trkpt>
      <trkpt lat="47.47161" lon="6.72862">
        <ele>323.9</ele>
        <time>2019-08-16T14:51:18Z</time>
      </trkpt>
      <trkpt lat="47.47159" lon="6.7286">
        <ele>324.1</ele>
        <time>2019-08-16T14:51:19Z</time>
      </trkpt>
      <trkpt lat="47.47155" lon="6.72857">
        <ele>324.3</ele>
        <time>2019-08-16T14:51:20Z</time>
      </trkpt>
      <trkpt lat="47.47153" lon="6.72855">
        <ele>324.6</ele>
        <time>2019-08-16T14:51:21Z</time>
      </trkpt>
      <trkpt lat="47.4715" lon="6.72853">
        <ele>324.7</ele>
        <time>2019-08-16T14:51:22Z</time>
      </trkpt>
      <trkpt lat="47.47147" lon="6.7285">
        <ele>325</ele>
        <time>2019-08-16T14:51:23Z</time>
      </trkpt>
      <trkpt lat="47.47144" lon="6.72847">
        <ele>325.2</ele>
        <time>2019-08-16T14:51:24Z</time>
      </trkpt>
      <trkpt lat="47.47142" lon="6.72844">
        <ele>325.4</ele>
        <time>2019-08-16T14:51:25Z</time>
      </trkpt>
      <trkpt lat="47.47139" lon="6.72842">
        <ele>325.6</ele>
        <time>2019-08-16T14:51:26Z</time>
      </trkpt>
      <trkpt lat="47.47136" lon="6.7284">
        <ele>325.7</ele>
        <time>2019-08-16T14:51:27Z</time>
      </trkpt>
      <trkpt lat="47.47134" lon="6.72838">
        <ele>325.9</ele>
        <time>2019-08-16T14:51:28Z</time>
      </trkpt>
      <trkpt lat="47.47131" lon="6.72836">
        <ele>326.1</ele>
        <time>2019-08-16T14:51:29Z</time>
      </trkpt>
      <trkpt lat="47.47129" lon="6.72834">
        <ele>326.3</ele>
        <time>2019-08-16T14:51:30Z</time>
      </trkpt>
      <trkpt lat="47.47126" lon="6.72832">
        <ele>326.5</ele>
        <time>2019-08-16T14:51:31Z</time>
      </trkpt>
      <trkpt lat="47.47123" lon="6.7283">
        <ele>326.7</ele>
        <time>2019-08-16T14:51:32Z</time>
      </trkpt>
      <trkpt lat="47.4712" lon="6.72828">
        <ele>326.9</ele>
        <time>2019-08-16T14:51:33Z</time>
      </trkpt>
      <trkpt lat="47.47117" lon="6.72826">
        <ele>327.2</ele>
        <time>2019-08-16T14:51:34Z</time>
      </trkpt>
      <trkpt lat="47.47113" lon="6.72824">
        <ele>327.8</ele>
        <time>2019-08-16T14:51:36Z</time>
      </trkpt>
      <trkpt lat="47.47108" lon="6.7282">
        <ele>328.5</ele>
        <time>2019-08-16T14:51:38Z</time>
      </trkpt>
      <trkpt lat="47.47104" lon="6.72815">
        <ele>329.1</ele>
        <time>2019-08-16T14:51:40Z</time>
      </trkpt>
      <trkpt lat="47.471" lon="6.72811">
        <ele>329.7</ele>
        <time>2019-08-16T14:51:42Z</time>
      </trkpt>
      <trkpt lat="47.47096" lon="6.72806">
        <ele>330.3</ele>
        <time>2019-08-16T14:51:44Z</time>
      </trkpt>
      <trkpt lat="47.47094" lon="6.72804">
        <ele>330.5</ele>
        <time>2019-08-16T14:51:45Z</time>
      </trkpt>
      <trkpt lat="47.47089" lon="6.72801">
        <ele>331.1</ele>
        <time>2019-08-16T14:51:47Z</time>
      </trkpt>
      <trkpt lat="47.47086" lon="6.72798">
        <ele>331.5</ele>
        <time>2019-08-16T14:51:48Z</time>
      </trkpt>
      <trkpt lat="47.47084" lon="6.72795">
        <ele>331.8</ele>
        <time>2019-08-16T14:51:49Z</time>
      </trkpt>
      <trkpt lat="47.47082" lon="6.72792">
        <ele>332.1</ele>
        <time>2019-08-16T14:51:50Z</time>
      </trkpt>
      <trkpt lat="47.47078" lon="6.72788">
        <ele>332.6</ele>
        <time>2019-08-16T14:51:52Z</time>
      </trkpt>
      <trkpt lat="47.47075" lon="6.72783">
        <ele>333.1</ele>
        <time>2019-08-16T14:51:54Z</time>
      </trkpt>
      <trkpt lat="47.47071" lon="6.72777">
        <ele>333.7</ele>
        <time>2019-08-16T14:51:56Z</time>
      </trkpt>
      <trkpt lat="47.47068" lon="6.72775">
        <ele>334</ele>
        <time>2019-08-16T14:51:57Z</time>
      </trkpt>
      <trkpt lat="47.47065" lon="6.7277">
        <ele>334.4</ele>
        <time>2019-08-16T14:51:59Z</time>
      </trkpt>
      <trkpt lat="47.4706" lon="6.72765">
        <ele>334.9</ele>
        <time>2019-08-16T14:52:01Z</time>
      </trkpt>
      <trkpt lat="47.47058" lon="6.72763">
        <ele>335.2</ele>
        <time>2019-08-16T14:52:02Z</time>
      </trkpt>
      <trkpt lat="47.47054" lon="6.72761">
        <ele>335.6</ele>
        <time>2019-08-16T14:52:04Z</time>
      </trkpt>
      <trkpt lat="47.4705" lon="6.72756">
        <ele>336</ele>
        <time>2019-08-16T14:52:06Z</time>
      </trkpt>
      <trkpt lat="47.47046" lon="6.72753">
        <ele>336.5</ele>
        <time>2019-08-16T14:52:08Z</time>
      </trkpt>
      <trkpt lat="47.47043" lon="6.72749">
        <ele>336.8</ele>
        <time>2019-08-16T14:52:10Z</time>
      </trkpt>
      <trkpt lat="47.4704" lon="6.72744">
        <ele>337.2</ele>
        <time>2019-08-16T14:52:12Z</time>
      </trkpt>
      <trkpt lat="47.47036" lon="6.72739">
        <ele>337.7</ele>
        <time>2019-08-16T14:52:14Z</time>
      </trkpt>
      <trkpt lat="47.47033" lon="6.72735">
        <ele>338.1</ele>
        <time>2019-08-16T14:52:16Z</time>
      </trkpt>
      <trkpt lat="47.47029" lon="6.72729">
        <ele>338.5</ele>
        <time>2019-08-16T14:52:18Z</time>
      </trkpt>
      <trkpt lat="47.47025" lon="6.72724">
        <ele>339</ele>
        <time>2019-08-16T14:52:20Z</time>
      </trkpt>
      <trkpt lat="47.47024" lon="6.72718">
        <ele>339.3</ele>
        <time>2019-08-16T14:52:22Z</time>
      </trkpt>
      <trkpt lat="47.47022" lon="6.72713">
        <ele>340.9</ele>
        <time>2019-08-16T14:52:24Z</time>
      </trkpt>
      <trkpt lat="47.47021" lon="6.72709">
        <ele>341.3</ele>
        <time>2019-08-16T14:52:26Z</time>
      </trkpt>
      <trkpt lat="47.47019" lon="6.72704">
        <ele>341.9</ele>
        <time>2019-08-16T14:52:28Z</time>
      </trkpt>
      <trkpt lat="47.47016" lon="6.72699">
        <ele>342.5</ele>
        <time>2019-08-16T14:52:30Z</time>
      </trkpt>
      <trkpt lat="47.47013" lon="6.72694">
        <ele>343.2</ele>
        <time>2019-08-16T14:52:32Z</time>
      </trkpt>
      <trkpt lat="47.4701" lon="6.72689">
        <ele>343.9</ele>
        <time>2019-08-16T14:52:34Z</time>
      </trkpt>
      <trkpt lat="47.47007" lon="6.72685">
        <ele>344.6</ele>
        <time>2019-08-16T14:52:36Z</time>
      </trkpt>
      <trkpt lat="47.47005" lon="6.72681">
        <ele>345.2</ele>
        <time>2019-08-16T14:52:38Z</time>
      </trkpt>
      <trkpt lat="47.47001" lon="6.72676">
        <ele>345.9</ele>
        <time>2019-08-16T14:52:40Z</time>
      </trkpt>
      <trkpt lat="47.46998" lon="6.72671">
        <ele>346.6</ele>
        <time>2019-08-16T14:52:42Z</time>
      </trkpt>
      <trkpt lat="47.46994" lon="6.72668">
        <ele>347.4</ele>
        <time>2019-08-16T14:52:44Z</time>
      </trkpt>
      <trkpt lat="47.4699" lon="6.72664">
        <ele>348.1</ele>
        <time>2019-08-16T14:52:46Z</time>
      </trkpt>
      <trkpt lat="47.46987" lon="6.7266">
        <ele>348.5</ele>
        <time>2019-08-16T14:52:48Z</time>
      </trkpt>
      <trkpt lat="47.46983" lon="6.72656">
        <ele>349</ele>
        <time>2019-08-16T14:52:50Z</time>
      </trkpt>
      <trkpt lat="47.46979" lon="6.72652">
        <ele>349.4</ele>
        <time>2019-08-16T14:52:52Z</time>
      </trkpt>
      <trkpt lat="47.46975" lon="6.72648">
        <ele>349.9</ele>
        <time>2019-08-16T14:52:54Z</time>
      </trkpt>
      <trkpt lat="47.46972" lon="6.72644">
        <ele>350.4</ele>
        <time>2019-08-16T14:52:56Z</time>
      </trkpt>
      <trkpt lat="47.46968" lon="6.72641">
        <ele>350.8</ele>
        <time>2019-08-16T14:52:58Z</time>
      </trkpt>
      <trkpt lat="47.46965" lon="6.72638">
        <ele>351.2</ele>
        <time>2019-08-16T14:53:00Z</time>
      </trkpt>
      <trkpt lat="47.46963" lon="6.72635">
        <ele>351.4</ele>
        <time>2019-08-16T14:53:02Z</time>
      </trkpt>
      <trkpt lat="47.46962" lon="6.7263">
        <ele>351.8</ele>
        <time>2019-08-16T14:53:04Z</time>
      </trkpt>
      <trkpt lat="47.46961" lon="6.72626">
        <ele>352.1</ele>
        <time>2019-08-16T14:53:06Z</time>
      </trkpt>
      <trkpt lat="47.46959" lon="6.72624">
        <ele>352.4</ele>
        <time>2019-08-16T14:53:08Z</time>
      </trkpt>
      <trkpt lat="47.46956" lon="6.7262">
        <ele>352.7</ele>
        <time>2019-08-16T14:53:10Z</time>
      </trkpt>
      <trkpt lat="47.46953" lon="6.72616">
        <ele>353.1</ele>
        <time>2019-08-16T14:53:12Z</time>
      </trkpt>
      <trkpt lat="47.4695" lon="6.72614">
        <ele>353.5</ele>
        <time>2019-08-16T14:53:14Z</time>
      </trkpt>
      <trkpt lat="47.46947" lon="6.72612">
        <ele>353.8</ele>
        <time>2019-08-16T14:53:16Z</time>
      </trkpt>
      <trkpt lat="47.46944" lon="6.72609">
        <ele>354.2</ele>
        <time>2019-08-16T14:53:18Z</time>
      </trkpt>
      <trkpt lat="47.4694" lon="6.72604">
        <ele>354.7</ele>
        <time>2019-08-16T14:53:20Z</time>
      </trkpt>
      <trkpt lat="47.46938" lon="6.72601">
        <ele>355</ele>
        <time>2019-08-16T14:53:22Z</time>
      </trkpt>
      <trkpt lat="47.46934" lon="6.72597">
        <ele>355.5</ele>
        <time>2019-08-16T14:53:24Z</time>
      </trkpt>
      <trkpt lat="47.46931" lon="6.72594">
        <ele>355.8</ele>
        <time>2019-08-16T14:53:26Z</time>
      </trkpt>
      <trkpt lat="47.46928" lon="6.72589">
        <ele>356.3</ele>
        <time>2019-08-16T14:53:28Z</time>
      </trkpt>
      <trkpt lat="47.46924" lon="6.72587">
        <ele>356.7</ele>
        <time>2019-08-16T14:53:30Z</time>
      </trkpt>
      <trkpt lat="47.4692" lon="6.72585">
        <ele>357.2</ele>
        <time>2019-08-16T14:53:32Z</time>
      </trkpt>
      <trkpt lat="47.46915" lon="6.72581">
        <ele>357.7</ele>
        <time>2019-08-16T14:53:34Z</time>
      </trkpt>
      <trkpt lat="47.46913" lon="6.72578">
        <ele>358.1</ele>
        <time>2019-08-16T14:53:36Z</time>
      </trkpt>
      <trkpt lat="47.4691" lon="6.72577">
        <ele>358.4</ele>
        <time>2019-08-16T14:53:38Z</time>
      </trkpt>
      <trkpt lat="47.46907" lon="6.72573">
        <ele>358.8</ele>
        <time>2019-08-16T14:53:40Z</time>
      </trkpt>
      <trkpt lat="47.46904" lon="6.72571">
        <ele>359.2</ele>
        <time>2019-08-16T14:53:42Z</time>
      </trkpt>
      <trkpt lat="47.469" lon="6.72569">
        <ele>359.6</ele>
        <time>2019-08-16T14:53:44Z</time>
      </trkpt>
      <trkpt lat="47.46897" lon="6.72566">
        <ele>360</ele>
        <time>2019-08-16T14:53:46Z</time>
      </trkpt>
      <trkpt lat="47.46894" lon="6.72563">
        <ele>360.3</ele>
        <time>2019-08-16T14:53:48Z</time>
      </trkpt>
      <trkpt lat="47.46891" lon="6.7256">
        <ele>360.3</ele>
        <time>2019-08-16T14:53:50Z</time>
      </trkpt>
      <trkpt lat="47.46888" lon="6.72556">
        <ele>360.4</ele>
        <time>2019-08-16T14:53:52Z</time>
      </trkpt>
      <trkpt lat="47.46884" lon="6.72552">
        <ele>360.4</ele>
        <time>2019-08-16T14:53:54Z</time>
      </trkpt>
      <trkpt lat="47.46881" lon="6.72547">
        <ele>360.4</ele>
        <time>2019-08-16T14:53:56Z</time>
      </trkpt>
      <trkpt lat="47.46878" lon="6.72542">
        <ele>360.4</ele>
        <time>2019-08-16T14:53:58Z</time>
      </trkpt>
      <trkpt lat="47.46875" lon="6.72538">
        <ele>360.4</ele>
        <time>2019-08-16T14:54:00Z</time>
      </trkpt>
      <trkpt lat="47.46871" lon="6.72532">
        <ele>360.4</ele>
        <time>2019-08-16T14:54:02Z</time>
      </trkpt>
      <trkpt lat="47.46867" lon="6.72527">
        <ele>360.4</ele>
        <time>2019-08-16T14:54:04Z</time>
      </trkpt>
      <trkpt lat="47.46865" lon="6.72525">
        <ele>360.4</ele>
        <time>2019-08-16T14:54:05Z</time>
      </trkpt>
      <trkpt lat="47.46862" lon="6.72523">
        <ele>360.4</ele>
        <time>2019-08-16T14:54:06Z</time>
      </trkpt>
      <trkpt lat="47.46859" lon="6.7252">
        <ele>360.4</ele>
        <time>2019-08-16T14:54:07Z</time>
      </trkpt>
      <trkpt lat="47.46857" lon="6.72519">
        <ele>360.4</ele>
        <time>2019-08-16T14:54:08Z</time>
      </trkpt>
      <trkpt lat="47.46854" lon="6.72516">
        <ele>360.5</ele>
        <time>2019-08-16T14:54:09Z</time>
      </trkpt>
      <trkpt lat="47.46851" lon="6.72514">
        <ele>360.5</ele>
        <time>2019-08-16T14:54:10Z</time>
      </trkpt>
      <trkpt lat="47.46847" lon="6.72511">
        <ele>360.6</ele>
        <time>2019-08-16T14:54:12Z</time>
      </trkpt>
      <trkpt lat="47.46844" lon="6.72507">
        <ele>360.7</ele>
        <time>2019-08-16T14:54:14Z</time>
      </trkpt>
      <trkpt lat="47.46838" lon="6.72504">
        <ele>360.9</ele>
        <time>2019-08-16T14:54:16Z</time>
      </trkpt>
      <trkpt lat="47.46835" lon="6.72502">
        <ele>360.9</ele>
        <time>2019-08-16T14:54:17Z</time>
      </trkpt>
      <trkpt lat="47.46832" lon="6.725">
        <ele>361</ele>
        <time>2019-08-16T14:54:18Z</time>
      </trkpt>
      <trkpt lat="47.46828" lon="6.72495">
        <ele>361.1</ele>
        <time>2019-08-16T14:54:20Z</time>
      </trkpt>
      <trkpt lat="47.46825" lon="6.72492">
        <ele>361.2</ele>
        <time>2019-08-16T14:54:21Z</time>
      </trkpt>
      <trkpt lat="47.46822" lon="6.7249">
        <ele>361.3</ele>
        <time>2019-08-16T14:54:22Z</time>
      </trkpt>
      <trkpt lat="47.46819" lon="6.72489">
        <ele>361.4</ele>
        <time>2019-08-16T14:54:23Z</time>
      </trkpt>
      <trkpt lat="47.46815" lon="6.72489">
        <ele>361.5</ele>
        <time>2019-08-16T14:54:24Z</time>
      </trkpt>
      <trkpt lat="47.46812" lon="6.72489">
        <ele>361.6</ele>
        <time>2019-08-16T14:54:25Z</time>
      </trkpt>
      <trkpt lat="47.46809" lon="6.72488">
        <ele>361.7</ele>
        <time>2019-08-16T14:54:26Z</time>
      </trkpt>
      <trkpt lat="47.46805" lon="6.72483">
        <ele>361.9</ele>
        <time>2019-08-16T14:54:28Z</time>
      </trkpt>
      <trkpt lat="47.46802" lon="6.72481">
        <ele>361.9</ele>
        <time>2019-08-16T14:54:29Z</time>
      </trkpt>
      <trkpt lat="47.46797" lon="6.72478">
        <ele>362.2</ele>
        <time>2019-08-16T14:54:31Z</time>
      </trkpt>
      <trkpt lat="47.46794" lon="6.72475">
        <ele>362.3</ele>
        <time>2019-08-16T14:54:32Z</time>
      </trkpt>
      <trkpt lat="47.46792" lon="6.72474">
        <ele>362.4</ele>
        <time>2019-08-16T14:54:33Z</time>
      </trkpt>
      <trkpt lat="47.46788" lon="6.7247">
        <ele>362.6</ele>
        <time>2019-08-16T14:54:35Z</time>
      </trkpt>
      <trkpt lat="47.46782" lon="6.72468">
        <ele>362.9</ele>
        <time>2019-08-16T14:54:37Z</time>
      </trkpt>
      <trkpt lat="47.46778" lon="6.72466">
        <ele>363.1</ele>
        <time>2019-08-16T14:54:39Z</time>
      </trkpt>
      <trkpt lat="47.46775" lon="6.72466">
        <ele>363.3</ele>
        <time>2019-08-16T14:54:40Z</time>
      </trkpt>
      <trkpt lat="47.46772" lon="6.72465">
        <ele>363.4</ele>
        <time>2019-08-16T14:54:41Z</time>
      </trkpt>
      <trkpt lat="47.46769" lon="6.72464">
        <ele>363.6</ele>
        <time>2019-08-16T14:54:42Z</time>
      </trkpt>
      <trkpt lat="47.46764" lon="6.72462">
        <ele>363.8</ele>
        <time>2019-08-16T14:54:44Z</time>
      </trkpt>
      <trkpt lat="47.46761" lon="6.7246">
        <ele>364</ele>
        <time>2019-08-16T14:54:45Z</time>
      </trkpt>
      <trkpt lat="47.46758" lon="6.72459">
        <ele>364.1</ele>
        <time>2019-08-16T14:54:46Z</time>
      </trkpt>
      <trkpt lat="47.46755" lon="6.72457">
        <ele>364.2</ele>
        <time>2019-08-16T14:54:47Z</time>
      </trkpt>
      <trkpt lat="47.46753" lon="6.72455">
        <ele>364.3</ele>
        <time>2019-08-16T14:54:48Z</time>
      </trkpt>
      <trkpt lat="47.4675" lon="6.72452">
        <ele>364.4</ele>
        <time>2019-08-16T14:54:49Z</time>
      </trkpt>
      <trkpt lat="47.46746" lon="6.72449">
        <ele>364.6</ele>
        <time>2019-08-16T14:54:51Z</time>
      </trkpt>
      <trkpt lat="47.46741" lon="6.72446">
        <ele>364.9</ele>
        <time>2019-08-16T14:54:53Z</time>
      </trkpt>
      <trkpt lat="47.46737" lon="6.72443">
        <ele>365.1</ele>
        <time>2019-08-16T14:54:55Z</time>
      </trkpt>
      <trkpt lat="47.46735" lon="6.7244">
        <ele>365.2</ele>
        <time>2019-08-16T14:54:56Z</time>
      </trkpt>
      <trkpt lat="47.46732" lon="6.72437">
        <ele>365.4</ele>
        <time>2019-08-16T14:54:58Z</time>
      </trkpt>
      <trkpt lat="47.46727" lon="6.72433">
        <ele>365.6</ele>
        <time>2019-08-16T14:55:00Z</time>
      </trkpt>
      <trkpt lat="47.46723" lon="6.72427">
        <ele>365.8</ele>
        <time>2019-08-16T14:55:02Z</time>
      </trkpt>
      <trkpt lat="47.4672" lon="6.72422">
        <ele>366</ele>
        <time>2019-08-16T14:55:04Z</time>
      </trkpt>
      <trkpt lat="47.46716" lon="6.72418">
        <ele>366.1</ele>
        <time>2019-08-16T14:55:06Z</time>
      </trkpt>
      <trkpt lat="47.46714" lon="6.72415">
        <ele>366.1</ele>
        <time>2019-08-16T14:55:07Z</time>
      </trkpt>
      <trkpt lat="47.46712" lon="6.72412">
        <ele>366.2</ele>
        <time>2019-08-16T14:55:08Z</time>
      </trkpt>
      <trkpt lat="47.46711" lon="6.72409">
        <ele>366.3</ele>
        <time>2019-08-16T14:55:09Z</time>
      </trkpt>
      <trkpt lat="47.46708" lon="6.72406">
        <ele>366.3</ele>
        <time>2019-08-16T14:55:10Z</time>
      </trkpt>
      <trkpt lat="47.46707" lon="6.72402">
        <ele>366.4</ele>
        <time>2019-08-16T14:55:11Z</time>
      </trkpt>
      <trkpt lat="47.46704" lon="6.72395">
        <ele>366.5</ele>
        <time>2019-08-16T14:55:13Z</time>
      </trkpt>
      <trkpt lat="47.46701" lon="6.7239">
        <ele>366.6</ele>
        <time>2019-08-16T14:55:15Z</time>
      </trkpt>
      <trkpt lat="47.46697" lon="6.72385">
        <ele>366.8</ele>
        <time>2019-08-16T14:55:17Z</time>
      </trkpt>
      <trkpt lat="47.46695" lon="6.72382">
        <ele>366.9</ele>
        <time>2019-08-16T14:55:18Z</time>
      </trkpt>
      <trkpt lat="47.46693" lon="6.72379">
        <ele>367</ele>
        <time>2019-08-16T14:55:19Z</time>
      </trkpt>
      <trkpt lat="47.4669" lon="6.72377">
        <ele>367.1</ele>
        <time>2019-08-16T14:55:20Z</time>
      </trkpt>
      <trkpt lat="47.46688" lon="6.72374">
        <ele>367.1</ele>
        <time>2019-08-16T14:55:21Z</time>
      </trkpt>
      <trkpt lat="47.46685" lon="6.72372">
        <ele>367.2</ele>
        <time>2019-08-16T14:55:22Z</time>
      </trkpt>
      <trkpt lat="47.46683" lon="6.72369">
        <ele>367.2</ele>
        <time>2019-08-16T14:55:23Z</time>
      </trkpt>
      <trkpt lat="47.46681" lon="6.72362">
        <ele>367.2</ele>
        <time>2019-08-16T14:55:25Z</time>
      </trkpt>
      <trkpt lat="47.46679" lon="6.72359">
        <ele>367.2</ele>
        <time>2019-08-16T14:55:26Z</time>
      </trkpt>
      <trkpt lat="47.46677" lon="6.72356">
        <ele>367.3</ele>
        <time>2019-08-16T14:55:27Z</time>
      </trkpt>
      <trkpt lat="47.46673" lon="6.7235">
        <ele>367.3</ele>
        <time>2019-08-16T14:55:29Z</time>
      </trkpt>
      <trkpt lat="47.46671" lon="6.72346">
        <ele>367.3</ele>
        <time>2019-08-16T14:55:30Z</time>
      </trkpt>
      <trkpt lat="47.4667" lon="6.72343">
        <ele>367.3</ele>
        <time>2019-08-16T14:55:31Z</time>
      </trkpt>
      <trkpt lat="47.46667" lon="6.72338">
        <ele>367.4</ele>
        <time>2019-08-16T14:55:33Z</time>
      </trkpt>
      <trkpt lat="47.46663" lon="6.72334">
        <ele>367.5</ele>
        <time>2019-08-16T14:55:35Z</time>
      </trkpt>
      <trkpt lat="47.46661" lon="6.7233">
        <ele>367.6</ele>
        <time>2019-08-16T14:55:37Z</time>
      </trkpt>
      <trkpt lat="47.46659" lon="6.72322">
        <ele>367.7</ele>
        <time>2019-08-16T14:55:39Z</time>
      </trkpt>
      <trkpt lat="47.46658" lon="6.72318">
        <ele>367.8</ele>
        <time>2019-08-16T14:55:40Z</time>
      </trkpt>
      <trkpt lat="47.46657" lon="6.72314">
        <ele>367.9</ele>
        <time>2019-08-16T14:55:41Z</time>
      </trkpt>
      <trkpt lat="47.46655" lon="6.72311">
        <ele>368</ele>
        <time>2019-08-16T14:55:42Z</time>
      </trkpt>
      <trkpt lat="47.46652" lon="6.72304">
        <ele>368.1</ele>
        <time>2019-08-16T14:55:44Z</time>
      </trkpt>
      <trkpt lat="47.4665" lon="6.723">
        <ele>368.1</ele>
        <time>2019-08-16T14:55:45Z</time>
      </trkpt>
      <trkpt lat="47.46649" lon="6.72294">
        <ele>368.1</ele>
        <time>2019-08-16T14:55:46Z</time>
      </trkpt>
      <trkpt lat="47.46648" lon="6.72288">
        <ele>368.2</ele>
        <time>2019-08-16T14:55:47Z</time>
      </trkpt>
      <trkpt lat="47.46646" lon="6.72281">
        <ele>368.2</ele>
        <time>2019-08-16T14:55:49Z</time>
      </trkpt>
      <trkpt lat="47.46645" lon="6.72276">
        <ele>368.2</ele>
        <time>2019-08-16T14:55:50Z</time>
      </trkpt>
      <trkpt lat="47.46645" lon="6.72271">
        <ele>368.2</ele>
        <time>2019-08-16T14:55:51Z</time>
      </trkpt>
      <trkpt lat="47.46644" lon="6.72267">
        <ele>368.2</ele>
        <time>2019-08-16T14:55:52Z</time>
      </trkpt>
      <trkpt lat="47.46643" lon="6.7226">
        <ele>368.1</ele>
        <time>2019-08-16T14:55:54Z</time>
      </trkpt>
      <trkpt lat="47.46643" lon="6.72253">
        <ele>368.1</ele>
        <time>2019-08-16T14:55:56Z</time>
      </trkpt>
      <trkpt lat="47.46642" lon="6.72246">
        <ele>368</ele>
        <time>2019-08-16T14:55:58Z</time>
      </trkpt>
      <trkpt lat="47.46642" lon="6.72242">
        <ele>368</ele>
        <time>2019-08-16T14:55:59Z</time>
      </trkpt>
      <trkpt lat="47.46642" lon="6.72237">
        <ele>367.9</ele>
        <time>2019-08-16T14:56:00Z</time>
      </trkpt>
      <trkpt lat="47.46642" lon="6.7223">
        <ele>367.8</ele>
        <time>2019-08-16T14:56:02Z</time>
      </trkpt>
      <trkpt lat="47.46641" lon="6.72223">
        <ele>367.7</ele>
        <time>2019-08-16T14:56:04Z</time>
      </trkpt>
      <trkpt lat="47.4664" lon="6.72219">
        <ele>367.6</ele>
        <time>2019-08-16T14:56:05Z</time>
      </trkpt>
      <trkpt lat="47.46638" lon="6.72214">
        <ele>367.5</ele>
        <time>2019-08-16T14:56:06Z</time>
      </trkpt>
      <trkpt lat="47.46637" lon="6.72209">
        <ele>367.5</ele>
        <time>2019-08-16T14:56:07Z</time>
      </trkpt>
      <trkpt lat="47.46635" lon="6.72204">
        <ele>367.4</ele>
        <time>2019-08-16T14:56:08Z</time>
      </trkpt>
      <trkpt lat="47.46633" lon="6.72199">
        <ele>367.4</ele>
        <time>2019-08-16T14:56:09Z</time>
      </trkpt>
      <trkpt lat="47.46633" lon="6.72193">
        <ele>367.3</ele>
        <time>2019-08-16T14:56:10Z</time>
      </trkpt>
      <trkpt lat="47.46631" lon="6.72188">
        <ele>367.3</ele>
        <time>2019-08-16T14:56:11Z</time>
      </trkpt>
      <trkpt lat="47.46629" lon="6.72184">
        <ele>367.3</ele>
        <time>2019-08-16T14:56:12Z</time>
      </trkpt>
      <trkpt lat="47.46626" lon="6.72179">
        <ele>367.2</ele>
        <time>2019-08-16T14:56:13Z</time>
      </trkpt>
      <trkpt lat="47.46624" lon="6.72173">
        <ele>367.2</ele>
        <time>2019-08-16T14:56:14Z</time>
      </trkpt>
      <trkpt lat="47.46622" lon="6.72167">
        <ele>367.1</ele>
        <time>2019-08-16T14:56:15Z</time>
      </trkpt>
      <trkpt lat="47.4662" lon="6.72161">
        <ele>367</ele>
        <time>2019-08-16T14:56:16Z</time>
      </trkpt>
      <trkpt lat="47.46618" lon="6.72155">
        <ele>366.9</ele>
        <time>2019-08-16T14:56:17Z</time>
      </trkpt>
      <trkpt lat="47.46615" lon="6.7215">
        <ele>366.7</ele>
        <time>2019-08-16T14:56:18Z</time>
      </trkpt>
      <trkpt lat="47.46613" lon="6.72143">
        <ele>366.4</ele>
        <time>2019-08-16T14:56:19Z</time>
      </trkpt>
      <trkpt lat="47.4661" lon="6.72136">
        <ele>366.1</ele>
        <time>2019-08-16T14:56:20Z</time>
      </trkpt>
      <trkpt lat="47.4661" lon="6.72129">
        <ele>366</ele>
        <time>2019-08-16T14:56:21Z</time>
      </trkpt>
      <trkpt lat="47.46609" lon="6.72123">
        <ele>365.9</ele>
        <time>2019-08-16T14:56:22Z</time>
      </trkpt>
      <trkpt lat="47.46609" lon="6.72118">
        <ele>365.8</ele>
        <time>2019-08-16T14:56:23Z</time>
      </trkpt>
      <trkpt lat="47.46609" lon="6.72113">
        <ele>365.7</ele>
        <time>2019-08-16T14:56:24Z</time>
      </trkpt>
      <trkpt lat="47.46608" lon="6.72108">
        <ele>365.6</ele>
        <time>2019-08-16T14:56:25Z</time>
      </trkpt>
      <trkpt lat="47.46607" lon="6.72104">
        <ele>365.6</ele>
        <time>2019-08-16T14:56:26Z</time>
      </trkpt>
      <trkpt lat="47.46605" lon="6.72099">
        <ele>365.5</ele>
        <time>2019-08-16T14:56:27Z</time>
      </trkpt>
      <trkpt lat="47.46604" lon="6.72094">
        <ele>365.3</ele>
        <time>2019-08-16T14:56:28Z</time>
      </trkpt>
      <trkpt lat="47.46602" lon="6.72088">
        <ele>365.1</ele>
        <time>2019-08-16T14:56:29Z</time>
      </trkpt>
      <trkpt lat="47.46601" lon="6.72082">
        <ele>365</ele>
        <time>2019-08-16T14:56:30Z</time>
      </trkpt>
      <trkpt lat="47.466" lon="6.72077">
        <ele>364.9</ele>
        <time>2019-08-16T14:56:31Z</time>
      </trkpt>
      <trkpt lat="47.46599" lon="6.72073">
        <ele>364.9</ele>
        <time>2019-08-16T14:56:32Z</time>
      </trkpt>
      <trkpt lat="47.46597" lon="6.72068">
        <ele>364.8</ele>
        <time>2019-08-16T14:56:33Z</time>
      </trkpt>
      <trkpt lat="47.46596" lon="6.72063">
        <ele>364.7</ele>
        <time>2019-08-16T14:56:34Z</time>
      </trkpt>
      <trkpt lat="47.46594" lon="6.72059">
        <ele>364.6</ele>
        <time>2019-08-16T14:56:35Z</time>
      </trkpt>
      <trkpt lat="47.46593" lon="6.72054">
        <ele>364.5</ele>
        <time>2019-08-16T14:56:36Z</time>
      </trkpt>
      <trkpt lat="47.46591" lon="6.72048">
        <ele>364.5</ele>
        <time>2019-08-16T14:56:37Z</time>
      </trkpt>
      <trkpt lat="47.46589" lon="6.72042">
        <ele>364.4</ele>
        <time>2019-08-16T14:56:38Z</time>
      </trkpt>
      <trkpt lat="47.46588" lon="6.72036">
        <ele>364.3</ele>
        <time>2019-08-16T14:56:39Z</time>
      </trkpt>
      <trkpt lat="47.46587" lon="6.72031">
        <ele>364.3</ele>
        <time>2019-08-16T14:56:40Z</time>
      </trkpt>
      <trkpt lat="47.46586" lon="6.72024">
        <ele>364.3</ele>
        <time>2019-08-16T14:56:41Z</time>
      </trkpt>
      <trkpt lat="47.46584" lon="6.72019">
        <ele>364.3</ele>
        <time>2019-08-16T14:56:42Z</time>
      </trkpt>
      <trkpt lat="47.46583" lon="6.72013">
        <ele>364.2</ele>
        <time>2019-08-16T14:56:43Z</time>
      </trkpt>
      <trkpt lat="47.46582" lon="6.72006">
        <ele>364.2</ele>
        <time>2019-08-16T14:56:44Z</time>
      </trkpt>
      <trkpt lat="47.46581" lon="6.72">
        <ele>364.2</ele>
        <time>2019-08-16T14:56:45Z</time>
      </trkpt>
      <trkpt lat="47.4658" lon="6.71994">
        <ele>364.2</ele>
        <time>2019-08-16T14:56:46Z</time>
      </trkpt>
      <trkpt lat="47.46579" lon="6.71988">
        <ele>364.1</ele>
        <time>2019-08-16T14:56:47Z</time>
      </trkpt>
      <trkpt lat="47.46577" lon="6.71982">
        <ele>364.1</ele>
        <time>2019-08-16T14:56:48Z</time>
      </trkpt>
      <trkpt lat="47.46576" lon="6.71975">
        <ele>364</ele>
        <time>2019-08-16T14:56:49Z</time>
      </trkpt>
      <trkpt lat="47.46575" lon="6.71968">
        <ele>364</ele>
        <time>2019-08-16T14:56:50Z</time>
      </trkpt>
      <trkpt lat="47.46571" lon="6.71963">
        <ele>363.9</ele>
        <time>2019-08-16T14:56:51Z</time>
      </trkpt>
      <trkpt lat="47.46569" lon="6.71956">
        <ele>363.8</ele>
        <time>2019-08-16T14:56:52Z</time>
      </trkpt>
      <trkpt lat="47.46566" lon="6.7195">
        <ele>363.6</ele>
        <time>2019-08-16T14:56:53Z</time>
      </trkpt>
      <trkpt lat="47.46563" lon="6.71943">
        <ele>363.5</ele>
        <time>2019-08-16T14:56:54Z</time>
      </trkpt>
      <trkpt lat="47.46559" lon="6.71937">
        <ele>363.3</ele>
        <time>2019-08-16T14:56:55Z</time>
      </trkpt>
      <trkpt lat="47.46556" lon="6.71931">
        <ele>363.1</ele>
        <time>2019-08-16T14:56:56Z</time>
      </trkpt>
      <trkpt lat="47.46553" lon="6.71925">
        <ele>362.9</ele>
        <time>2019-08-16T14:56:57Z</time>
      </trkpt>
      <trkpt lat="47.46551" lon="6.7192">
        <ele>362.7</ele>
        <time>2019-08-16T14:56:58Z</time>
      </trkpt>
      <trkpt lat="47.46548" lon="6.71915">
        <ele>362.4</ele>
        <time>2019-08-16T14:56:59Z</time>
      </trkpt>
      <trkpt lat="47.46545" lon="6.71911">
        <ele>362.1</ele>
        <time>2019-08-16T14:57:00Z</time>
      </trkpt>
      <trkpt lat="47.46543" lon="6.71908">
        <ele>361.9</ele>
        <time>2019-08-16T14:57:01Z</time>
      </trkpt>
      <trkpt lat="47.46541" lon="6.71905">
        <ele>361.7</ele>
        <time>2019-08-16T14:57:02Z</time>
      </trkpt>
      <trkpt lat="47.46538" lon="6.719">
        <ele>361.3</ele>
        <time>2019-08-16T14:57:04Z</time>
      </trkpt>
      <trkpt lat="47.46537" lon="6.71894">
        <ele>360.9</ele>
        <time>2019-08-16T14:57:06Z</time>
      </trkpt>
      <trkpt lat="47.46538" lon="6.7189">
        <ele>360.6</ele>
        <time>2019-08-16T14:57:09Z</time>
      </trkpt>
      <trkpt lat="47.46541" lon="6.71889">
        <ele>360.2</ele>
        <time>2019-08-16T14:57:15Z</time>
      </trkpt>
      <trkpt lat="47.46531" lon="6.71884">
        <ele>359.7</ele>
        <time>2019-08-16T14:58:31Z</time>
      </trkpt>
      <trkpt lat="47.46529" lon="6.71877">
        <ele>359.5</ele>
        <time>2019-08-16T14:58:33Z</time>
      </trkpt>
      <trkpt lat="47.46528" lon="6.71873">
        <ele>359.3</ele>
        <time>2019-08-16T14:58:34Z</time>
      </trkpt>
      <trkpt lat="47.46527" lon="6.71869">
        <ele>359.1</ele>
        <time>2019-08-16T14:58:35Z</time>
      </trkpt>
      <trkpt lat="47.46527" lon="6.71865">
        <ele>358.9</ele>
        <time>2019-08-16T14:58:36Z</time>
      </trkpt>
      <trkpt lat="47.46525" lon="6.71861">
        <ele>358.7</ele>
        <time>2019-08-16T14:58:37Z</time>
      </trkpt>
      <trkpt lat="47.46523" lon="6.71856">
        <ele>358.4</ele>
        <time>2019-08-16T14:58:38Z</time>
      </trkpt>
      <trkpt lat="47.46521" lon="6.7185">
        <ele>358.1</ele>
        <time>2019-08-16T14:58:39Z</time>
      </trkpt>
      <trkpt lat="47.4652" lon="6.71843">
        <ele>357.9</ele>
        <time>2019-08-16T14:58:40Z</time>
      </trkpt>
      <trkpt lat="47.46518" lon="6.71837">
        <ele>357.7</ele>
        <time>2019-08-16T14:58:41Z</time>
      </trkpt>
      <trkpt lat="47.46517" lon="6.7183">
        <ele>357.6</ele>
        <time>2019-08-16T14:58:42Z</time>
      </trkpt>
      <trkpt lat="47.46514" lon="6.71821">
        <ele>357.4</ele>
        <time>2019-08-16T14:58:43Z</time>
      </trkpt>
      <trkpt lat="47.46512" lon="6.71813">
        <ele>357.2</ele>
        <time>2019-08-16T14:58:44Z</time>
      </trkpt>
      <trkpt lat="47.46511" lon="6.71803">
        <ele>356.9</ele>
        <time>2019-08-16T14:58:45Z</time>
      </trkpt>
      <trkpt lat="47.46509" lon="6.71794">
        <ele>356.7</ele>
        <time>2019-08-16T14:58:46Z</time>
      </trkpt>
      <trkpt lat="47.46506" lon="6.71787">
        <ele>356.5</ele>
        <time>2019-08-16T14:58:47Z</time>
      </trkpt>
      <trkpt lat="47.46503" lon="6.71778">
        <ele>356.2</ele>
        <time>2019-08-16T14:58:48Z</time>
      </trkpt>
      <trkpt lat="47.465" lon="6.71768">
        <ele>355.9</ele>
        <time>2019-08-16T14:58:49Z</time>
      </trkpt>
      <trkpt lat="47.46496" lon="6.71758">
        <ele>355.5</ele>
        <time>2019-08-16T14:58:50Z</time>
      </trkpt>
      <trkpt lat="47.46492" lon="6.71749">
        <ele>355.2</ele>
        <time>2019-08-16T14:58:51Z</time>
      </trkpt>
      <trkpt lat="47.46488" lon="6.71741">
        <ele>354.9</ele>
        <time>2019-08-16T14:58:52Z</time>
      </trkpt>
      <trkpt lat="47.46483" lon="6.71732">
        <ele>354.4</ele>
        <time>2019-08-16T14:58:53Z</time>
      </trkpt>
      <trkpt lat="47.46478" lon="6.71724">
        <ele>353.9</ele>
        <time>2019-08-16T14:58:54Z</time>
      </trkpt>
      <trkpt lat="47.46473" lon="6.71716">
        <ele>353.4</ele>
        <time>2019-08-16T14:58:55Z</time>
      </trkpt>
      <trkpt lat="47.46469" lon="6.71707">
        <ele>352.8</ele>
        <time>2019-08-16T14:58:56Z</time>
      </trkpt>
      <trkpt lat="47.46465" lon="6.71698">
        <ele>352.3</ele>
        <time>2019-08-16T14:58:57Z</time>
      </trkpt>
      <trkpt lat="47.46461" lon="6.71689">
        <ele>351.7</ele>
        <time>2019-08-16T14:58:58Z</time>
      </trkpt>
      <trkpt lat="47.46457" lon="6.71682">
        <ele>351.2</ele>
        <time>2019-08-16T14:58:59Z</time>
      </trkpt>
      <trkpt lat="47.46453" lon="6.71673">
        <ele>350.7</ele>
        <time>2019-08-16T14:59:00Z</time>
      </trkpt>
      <trkpt lat="47.4645" lon="6.71664">
        <ele>349.3</ele>
        <time>2019-08-16T14:59:01Z</time>
      </trkpt>
      <trkpt lat="47.46447" lon="6.71655">
        <ele>349.1</ele>
        <time>2019-08-16T14:59:02Z</time>
      </trkpt>
      <trkpt lat="47.46443" lon="6.71647">
        <ele>348.9</ele>
        <time>2019-08-16T14:59:03Z</time>
      </trkpt>
      <trkpt lat="47.46438" lon="6.71641">
        <ele>348.8</ele>
        <time>2019-08-16T14:59:04Z</time>
      </trkpt>
      <trkpt lat="47.46434" lon="6.71635">
        <ele>348.7</ele>
        <time>2019-08-16T14:59:05Z</time>
      </trkpt>
      <trkpt lat="47.4643" lon="6.7163">
        <ele>348.6</ele>
        <time>2019-08-16T14:59:06Z</time>
      </trkpt>
      <trkpt lat="47.46427" lon="6.71624">
        <ele>348.2</ele>
        <time>2019-08-16T14:59:07Z</time>
      </trkpt>
      <trkpt lat="47.46423" lon="6.71618">
        <ele>347.8</ele>
        <time>2019-08-16T14:59:08Z</time>
      </trkpt>
      <trkpt lat="47.4642" lon="6.71613">
        <ele>347.5</ele>
        <time>2019-08-16T14:59:09Z</time>
      </trkpt>
      <trkpt lat="47.46417" lon="6.7161">
        <ele>347.3</ele>
        <time>2019-08-16T14:59:10Z</time>
      </trkpt>
      <trkpt lat="47.46414" lon="6.71605">
        <ele>347.1</ele>
        <time>2019-08-16T14:59:11Z</time>
      </trkpt>
      <trkpt lat="47.46411" lon="6.71601">
        <ele>347</ele>
        <time>2019-08-16T14:59:12Z</time>
      </trkpt>
      <trkpt lat="47.46409" lon="6.71596">
        <ele>347</ele>
        <time>2019-08-16T14:59:13Z</time>
      </trkpt>
      <trkpt lat="47.46406" lon="6.71592">
        <ele>346.9</ele>
        <time>2019-08-16T14:59:14Z</time>
      </trkpt>
      <trkpt lat="47.46403" lon="6.71587">
        <ele>347</ele>
        <time>2019-08-16T14:59:15Z</time>
      </trkpt>
      <trkpt lat="47.464" lon="6.71584">
        <ele>347.1</ele>
        <time>2019-08-16T14:59:16Z</time>
      </trkpt>
      <trkpt lat="47.46398" lon="6.7158">
        <ele>347.1</ele>
        <time>2019-08-16T14:59:17Z</time>
      </trkpt>
      <trkpt lat="47.46395" lon="6.71577">
        <ele>347.2</ele>
        <time>2019-08-16T14:59:18Z</time>
      </trkpt>
      <trkpt lat="47.46393" lon="6.71575">
        <ele>347.3</ele>
        <time>2019-08-16T14:59:19Z</time>
      </trkpt>
      <trkpt lat="47.4639" lon="6.71573">
        <ele>347.4</ele>
        <time>2019-08-16T14:59:20Z</time>
      </trkpt>
      <trkpt lat="47.46388" lon="6.71571">
        <ele>347.5</ele>
        <time>2019-08-16T14:59:21Z</time>
      </trkpt>
      <trkpt lat="47.46386" lon="6.71567">
        <ele>347.6</ele>
        <time>2019-08-16T14:59:22Z</time>
      </trkpt>
      <trkpt lat="47.46383" lon="6.71564">
        <ele>347.7</ele>
        <time>2019-08-16T14:59:23Z</time>
      </trkpt>
      <trkpt lat="47.46381" lon="6.71558">
        <ele>347.9</ele>
        <time>2019-08-16T14:59:25Z</time>
      </trkpt>
      <trkpt lat="47.46379" lon="6.71555">
        <ele>348</ele>
        <time>2019-08-16T14:59:26Z</time>
      </trkpt>
      <trkpt lat="47.46377" lon="6.71547">
        <ele>348.2</ele>
        <time>2019-08-16T14:59:28Z</time>
      </trkpt>
      <trkpt lat="47.46376" lon="6.71543">
        <ele>348.4</ele>
        <time>2019-08-16T14:59:29Z</time>
      </trkpt>
      <trkpt lat="47.46374" lon="6.7154">
        <ele>348.5</ele>
        <time>2019-08-16T14:59:30Z</time>
      </trkpt>
      <trkpt lat="47.46373" lon="6.71533">
        <ele>348.7</ele>
        <time>2019-08-16T14:59:32Z</time>
      </trkpt>
      <trkpt lat="47.46372" lon="6.71529">
        <ele>348.8</ele>
        <time>2019-08-16T14:59:33Z</time>
      </trkpt>
      <trkpt lat="47.4637" lon="6.71526">
        <ele>349</ele>
        <time>2019-08-16T14:59:34Z</time>
      </trkpt>
      <trkpt lat="47.46369" lon="6.7152">
        <ele>349.2</ele>
        <time>2019-08-16T14:59:35Z</time>
      </trkpt>
      <trkpt lat="47.46368" lon="6.71515">
        <ele>349.4</ele>
        <time>2019-08-16T14:59:36Z</time>
      </trkpt>
      <trkpt lat="47.46367" lon="6.71511">
        <ele>349.6</ele>
        <time>2019-08-16T14:59:37Z</time>
      </trkpt>
      <trkpt lat="47.46365" lon="6.71504">
        <ele>349.8</ele>
        <time>2019-08-16T14:59:39Z</time>
      </trkpt>
      <trkpt lat="47.46363" lon="6.715">
        <ele>350</ele>
        <time>2019-08-16T14:59:40Z</time>
      </trkpt>
      <trkpt lat="47.46361" lon="6.71496">
        <ele>350.2</ele>
        <time>2019-08-16T14:59:41Z</time>
      </trkpt>
      <trkpt lat="47.46359" lon="6.71491">
        <ele>350.5</ele>
        <time>2019-08-16T14:59:42Z</time>
      </trkpt>
      <trkpt lat="47.46358" lon="6.71487">
        <ele>350.7</ele>
        <time>2019-08-16T14:59:43Z</time>
      </trkpt>
      <trkpt lat="47.46356" lon="6.71482">
        <ele>351</ele>
        <time>2019-08-16T14:59:44Z</time>
      </trkpt>
      <trkpt lat="47.46354" lon="6.71478">
        <ele>351.2</ele>
        <time>2019-08-16T14:59:45Z</time>
      </trkpt>
      <trkpt lat="47.46353" lon="6.71473">
        <ele>351.5</ele>
        <time>2019-08-16T14:59:46Z</time>
      </trkpt>
      <trkpt lat="47.46349" lon="6.71469">
        <ele>351.9</ele>
        <time>2019-08-16T14:59:48Z</time>
      </trkpt>
      <trkpt lat="47.46347" lon="6.71467">
        <ele>352.1</ele>
        <time>2019-08-16T14:59:49Z</time>
      </trkpt>
      <trkpt lat="47.46344" lon="6.71464">
        <ele>352.3</ele>
        <time>2019-08-16T14:59:50Z</time>
      </trkpt>
      <trkpt lat="47.46341" lon="6.71462">
        <ele>352.6</ele>
        <time>2019-08-16T14:59:51Z</time>
      </trkpt>
      <trkpt lat="47.46338" lon="6.71461">
        <ele>352.7</ele>
        <time>2019-08-16T14:59:52Z</time>
      </trkpt>
      <trkpt lat="47.46336" lon="6.71458">
        <ele>352.9</ele>
        <time>2019-08-16T14:59:53Z</time>
      </trkpt>
      <trkpt lat="47.46332" lon="6.71456">
        <ele>353.2</ele>
        <time>2019-08-16T14:59:54Z</time>
      </trkpt>
      <trkpt lat="47.4633" lon="6.71452">
        <ele>353.3</ele>
        <time>2019-08-16T14:59:55Z</time>
      </trkpt>
      <trkpt lat="47.46327" lon="6.7145">
        <ele>353.5</ele>
        <time>2019-08-16T14:59:56Z</time>
      </trkpt>
      <trkpt lat="47.46324" lon="6.71448">
        <ele>353.7</ele>
        <time>2019-08-16T14:59:57Z</time>
      </trkpt>
      <trkpt lat="47.46322" lon="6.71445">
        <ele>353.8</ele>
        <time>2019-08-16T14:59:58Z</time>
      </trkpt>
      <trkpt lat="47.46319" lon="6.71442">
        <ele>354</ele>
        <time>2019-08-16T14:59:59Z</time>
      </trkpt>
      <trkpt lat="47.46317" lon="6.71439">
        <ele>354.2</ele>
        <time>2019-08-16T15:00:00Z</time>
      </trkpt>
      <trkpt lat="47.46314" lon="6.71436">
        <ele>354.3</ele>
        <time>2019-08-16T15:00:01Z</time>
      </trkpt>
      <trkpt lat="47.46312" lon="6.71432">
        <ele>354.4</ele>
        <time>2019-08-16T15:00:02Z</time>
      </trkpt>
      <trkpt lat="47.46308" lon="6.71427">
        <ele>354.6</ele>
        <time>2019-08-16T15:00:04Z</time>
      </trkpt>
      <trkpt lat="47.46305" lon="6.71422">
        <ele>354.8</ele>
        <time>2019-08-16T15:00:06Z</time>
      </trkpt>
      <trkpt lat="47.46302" lon="6.71417">
        <ele>355</ele>
        <time>2019-08-16T15:00:08Z</time>
      </trkpt>
      <trkpt lat="47.46298" lon="6.71412">
        <ele>355.3</ele>
        <time>2019-08-16T15:00:10Z</time>
      </trkpt>
      <trkpt lat="47.46296" lon="6.71408">
        <ele>355.5</ele>
        <time>2019-08-16T15:00:11Z</time>
      </trkpt>
      <trkpt lat="47.46293" lon="6.71405">
        <ele>355.6</ele>
        <time>2019-08-16T15:00:12Z</time>
      </trkpt>
      <trkpt lat="47.46291" lon="6.71401">
        <ele>355.7</ele>
        <time>2019-08-16T15:00:13Z</time>
      </trkpt>
      <trkpt lat="47.46289" lon="6.71398">
        <ele>355.8</ele>
        <time>2019-08-16T15:00:14Z</time>
      </trkpt>
      <trkpt lat="47.46287" lon="6.71394">
        <ele>355.9</ele>
        <time>2019-08-16T15:00:15Z</time>
      </trkpt>
      <trkpt lat="47.46286" lon="6.7139">
        <ele>356</ele>
        <time>2019-08-16T15:00:16Z</time>
      </trkpt>
      <trkpt lat="47.46285" lon="6.71384">
        <ele>356.1</ele>
        <time>2019-08-16T15:00:17Z</time>
      </trkpt>
      <trkpt lat="47.46281" lon="6.71379">
        <ele>356.2</ele>
        <time>2019-08-16T15:00:19Z</time>
      </trkpt>
      <trkpt lat="47.46279" lon="6.71373">
        <ele>356.3</ele>
        <time>2019-08-16T15:00:21Z</time>
      </trkpt>
      <trkpt lat="47.46276" lon="6.7137">
        <ele>356.4</ele>
        <time>2019-08-16T15:00:23Z</time>
      </trkpt>
      <trkpt lat="47.46273" lon="6.7137">
        <ele>356.5</ele>
        <time>2019-08-16T15:00:24Z</time>
      </trkpt>
      <trkpt lat="47.4627" lon="6.71366">
        <ele>356.6</ele>
        <time>2019-08-16T15:00:26Z</time>
      </trkpt>
      <trkpt lat="47.46268" lon="6.71361">
        <ele>356.7</ele>
        <time>2019-08-16T15:00:27Z</time>
      </trkpt>
      <trkpt lat="47.46267" lon="6.71357">
        <ele>356.7</ele>
        <time>2019-08-16T15:00:28Z</time>
      </trkpt>
      <trkpt lat="47.46267" lon="6.71352">
        <ele>356.7</ele>
        <time>2019-08-16T15:00:29Z</time>
      </trkpt>
      <trkpt lat="47.46266" lon="6.71347">
        <ele>356.3</ele>
        <time>2019-08-16T15:00:30Z</time>
      </trkpt>
      <trkpt lat="47.46265" lon="6.71342">
        <ele>356.1</ele>
        <time>2019-08-16T15:00:31Z</time>
      </trkpt>
      <trkpt lat="47.46264" lon="6.71338">
        <ele>355.9</ele>
        <time>2019-08-16T15:00:32Z</time>
      </trkpt>
      <trkpt lat="47.46262" lon="6.71336">
        <ele>355.7</ele>
        <time>2019-08-16T15:00:34Z</time>
      </trkpt>
      <trkpt lat="47.4626" lon="6.71331">
        <ele>355.5</ele>
        <time>2019-08-16T15:00:36Z</time>
      </trkpt>
      <trkpt lat="47.46258" lon="6.71325">
        <ele>355.3</ele>
        <time>2019-08-16T15:00:38Z</time>
      </trkpt>
      <trkpt lat="47.46257" lon="6.71319">
        <ele>355</ele>
        <time>2019-08-16T15:00:40Z</time>
      </trkpt>
      <trkpt lat="47.46254" lon="6.71312">
        <ele>354.8</ele>
        <time>2019-08-16T15:00:42Z</time>
      </trkpt>
      <trkpt lat="47.46251" lon="6.71307">
        <ele>354.6</ele>
        <time>2019-08-16T15:00:43Z</time>
      </trkpt>
      <trkpt lat="47.46249" lon="6.71303">
        <ele>354.4</ele>
        <time>2019-08-16T15:00:44Z</time>
      </trkpt>
      <trkpt lat="47.46246" lon="6.71297">
        <ele>354.2</ele>
        <time>2019-08-16T15:00:45Z</time>
      </trkpt>
      <trkpt lat="47.46243" lon="6.7129">
        <ele>353.9</ele>
        <time>2019-08-16T15:00:46Z</time>
      </trkpt>
      <trkpt lat="47.4624" lon="6.71283">
        <ele>353.7</ele>
        <time>2019-08-16T15:00:47Z</time>
      </trkpt>
      <trkpt lat="47.46236" lon="6.71276">
        <ele>353.4</ele>
        <time>2019-08-16T15:00:48Z</time>
      </trkpt>
      <trkpt lat="47.46232" lon="6.71269">
        <ele>353.2</ele>
        <time>2019-08-16T15:00:49Z</time>
      </trkpt>
      <trkpt lat="47.46227" lon="6.71262">
        <ele>352.9</ele>
        <time>2019-08-16T15:00:50Z</time>
      </trkpt>
      <trkpt lat="47.46223" lon="6.71254">
        <ele>352.6</ele>
        <time>2019-08-16T15:00:51Z</time>
      </trkpt>
      <trkpt lat="47.46217" lon="6.71245">
        <ele>352.3</ele>
        <time>2019-08-16T15:00:52Z</time>
      </trkpt>
      <trkpt lat="47.46212" lon="6.71235">
        <ele>352</ele>
        <time>2019-08-16T15:00:53Z</time>
      </trkpt>
      <trkpt lat="47.46207" lon="6.71225">
        <ele>351.7</ele>
        <time>2019-08-16T15:00:54Z</time>
      </trkpt>
      <trkpt lat="47.46202" lon="6.71214">
        <ele>351.4</ele>
        <time>2019-08-16T15:00:55Z</time>
      </trkpt>
      <trkpt lat="47.46197" lon="6.71203">
        <ele>351.1</ele>
        <time>2019-08-16T15:00:56Z</time>
      </trkpt>
      <trkpt lat="47.46192" lon="6.71194">
        <ele>350.8</ele>
        <time>2019-08-16T15:00:57Z</time>
      </trkpt>
      <trkpt lat="47.46186" lon="6.71182">
        <ele>350.4</ele>
        <time>2019-08-16T15:00:58Z</time>
      </trkpt>
      <trkpt lat="47.4618" lon="6.7117">
        <ele>350.1</ele>
        <time>2019-08-16T15:00:59Z</time>
      </trkpt>
      <trkpt lat="47.46174" lon="6.71159">
        <ele>349.8</ele>
        <time>2019-08-16T15:01:00Z</time>
      </trkpt>
      <trkpt lat="47.46168" lon="6.71147">
        <ele>349.4</ele>
        <time>2019-08-16T15:01:01Z</time>
      </trkpt>
      <trkpt lat="47.46162" lon="6.71136">
        <ele>349.1</ele>
        <time>2019-08-16T15:01:02Z</time>
      </trkpt>
      <trkpt lat="47.46157" lon="6.71125">
        <ele>348.9</ele>
        <time>2019-08-16T15:01:03Z</time>
      </trkpt>
      <trkpt lat="47.46153" lon="6.71115">
        <ele>348.6</ele>
        <time>2019-08-16T15:01:04Z</time>
      </trkpt>
      <trkpt lat="47.46149" lon="6.71106">
        <ele>348.4</ele>
        <time>2019-08-16T15:01:05Z</time>
      </trkpt>
      <trkpt lat="47.46145" lon="6.71097">
        <ele>348.1</ele>
        <time>2019-08-16T15:01:06Z</time>
      </trkpt>
      <trkpt lat="47.46141" lon="6.71089">
        <ele>347.8</ele>
        <time>2019-08-16T15:01:07Z</time>
      </trkpt>
      <trkpt lat="47.46136" lon="6.7108">
        <ele>347.4</ele>
        <time>2019-08-16T15:01:08Z</time>
      </trkpt>
      <trkpt lat="47.46131" lon="6.71071">
        <ele>347.1</ele>
        <time>2019-08-16T15:01:09Z</time>
      </trkpt>
      <trkpt lat="47.46126" lon="6.71062">
        <ele>346.8</ele>
        <time>2019-08-16T15:01:10Z</time>
      </trkpt>
      <trkpt lat="47.46122" lon="6.71053">
        <ele>346.4</ele>
        <time>2019-08-16T15:01:11Z</time>
      </trkpt>
      <trkpt lat="47.46117" lon="6.71044">
        <ele>345.8</ele>
        <time>2019-08-16T15:01:12Z</time>
      </trkpt>
      <trkpt lat="47.46112" lon="6.71034">
        <ele>345.1</ele>
        <time>2019-08-16T15:01:13Z</time>
      </trkpt>
      <trkpt lat="47.46107" lon="6.71025">
        <ele>344.6</ele>
        <time>2019-08-16T15:01:14Z</time>
      </trkpt>
      <trkpt lat="47.46102" lon="6.71015">
        <ele>344</ele>
        <time>2019-08-16T15:01:15Z</time>
      </trkpt>
      <trkpt lat="47.46098" lon="6.71005">
        <ele>343.5</ele>
        <time>2019-08-16T15:01:16Z</time>
      </trkpt>
      <trkpt lat="47.46094" lon="6.70995">
        <ele>343</ele>
        <time>2019-08-16T15:01:17Z</time>
      </trkpt>
      <trkpt lat="47.46089" lon="6.70984">
        <ele>342.6</ele>
        <time>2019-08-16T15:01:18Z</time>
      </trkpt>
      <trkpt lat="47.46085" lon="6.70973">
        <ele>342.1</ele>
        <time>2019-08-16T15:01:19Z</time>
      </trkpt>
      <trkpt lat="47.46081" lon="6.70962">
        <ele>341.6</ele>
        <time>2019-08-16T15:01:20Z</time>
      </trkpt>
      <trkpt lat="47.46078" lon="6.7095">
        <ele>341.2</ele>
        <time>2019-08-16T15:01:21Z</time>
      </trkpt>
      <trkpt lat="47.46074" lon="6.70937">
        <ele>340.7</ele>
        <time>2019-08-16T15:01:22Z</time>
      </trkpt>
      <trkpt lat="47.46071" lon="6.70924">
        <ele>340.3</ele>
        <time>2019-08-16T15:01:23Z</time>
      </trkpt>
      <trkpt lat="47.46068" lon="6.70912">
        <ele>340</ele>
        <time>2019-08-16T15:01:24Z</time>
      </trkpt>
      <trkpt lat="47.46064" lon="6.70899">
        <ele>339.6</ele>
        <time>2019-08-16T15:01:25Z</time>
      </trkpt>
      <trkpt lat="47.46062" lon="6.70886">
        <ele>339.4</ele>
        <time>2019-08-16T15:01:26Z</time>
      </trkpt>
      <trkpt lat="47.46059" lon="6.70874">
        <ele>339.1</ele>
        <time>2019-08-16T15:01:27Z</time>
      </trkpt>
      <trkpt lat="47.46056" lon="6.70861">
        <ele>338.9</ele>
        <time>2019-08-16T15:01:28Z</time>
      </trkpt>
      <trkpt lat="47.46053" lon="6.70849">
        <ele>338.7</ele>
        <time>2019-08-16T15:01:29Z</time>
      </trkpt>
      <trkpt lat="47.46052" lon="6.70836">
        <ele>338.5</ele>
        <time>2019-08-16T15:01:30Z</time>
      </trkpt>
      <trkpt lat="47.46051" lon="6.70823">
        <ele>338.4</ele>
        <time>2019-08-16T15:01:31Z</time>
      </trkpt>
      <trkpt lat="47.46052" lon="6.70811">
        <ele>338.2</ele>
        <time>2019-08-16T15:01:32Z</time>
      </trkpt>
      <trkpt lat="47.46052" lon="6.708">
        <ele>338.1</ele>
        <time>2019-08-16T15:01:33Z</time>
      </trkpt>
      <trkpt lat="47.46053" lon="6.70789">
        <ele>338</ele>
        <time>2019-08-16T15:01:34Z</time>
      </trkpt>
      <trkpt lat="47.46054" lon="6.70778">
        <ele>337.9</ele>
        <time>2019-08-16T15:01:35Z</time>
      </trkpt>
      <trkpt lat="47.46055" lon="6.70768">
        <ele>337.8</ele>
        <time>2019-08-16T15:01:36Z</time>
      </trkpt>
      <trkpt lat="47.46056" lon="6.70758">
        <ele>337.7</ele>
        <time>2019-08-16T15:01:37Z</time>
      </trkpt>
      <trkpt lat="47.46058" lon="6.70749">
        <ele>337.6</ele>
        <time>2019-08-16T15:01:38Z</time>
      </trkpt>
      <trkpt lat="47.46059" lon="6.70739">
        <ele>337.5</ele>
        <time>2019-08-16T15:01:39Z</time>
      </trkpt>
      <trkpt lat="47.46061" lon="6.7073">
        <ele>337.4</ele>
        <time>2019-08-16T15:01:40Z</time>
      </trkpt>
      <trkpt lat="47.46063" lon="6.70721">
        <ele>337.3</ele>
        <time>2019-08-16T15:01:41Z</time>
      </trkpt>
      <trkpt lat="47.46064" lon="6.70713">
        <ele>337.2</ele>
        <time>2019-08-16T15:01:42Z</time>
      </trkpt>
      <trkpt lat="47.46065" lon="6.70705">
        <ele>337.1</ele>
        <time>2019-08-16T15:01:43Z</time>
      </trkpt>
      <trkpt lat="47.46066" lon="6.70697">
        <ele>337.1</ele>
        <time>2019-08-16T15:01:44Z</time>
      </trkpt>
      <trkpt lat="47.46066" lon="6.70689">
        <ele>337</ele>
        <time>2019-08-16T15:01:45Z</time>
      </trkpt>
      <trkpt lat="47.46067" lon="6.70682">
        <ele>336.9</ele>
        <time>2019-08-16T15:01:46Z</time>
      </trkpt>
      <trkpt lat="47.46067" lon="6.70674">
        <ele>336.8</ele>
        <time>2019-08-16T15:01:47Z</time>
      </trkpt>
      <trkpt lat="47.46068" lon="6.70667">
        <ele>336.7</ele>
        <time>2019-08-16T15:01:48Z</time>
      </trkpt>
      <trkpt lat="47.46068" lon="6.70659">
        <ele>336.7</ele>
        <time>2019-08-16T15:01:49Z</time>
      </trkpt>
      <trkpt lat="47.46068" lon="6.70652">
        <ele>336.6</ele>
        <time>2019-08-16T15:01:50Z</time>
      </trkpt>
      <trkpt lat="47.46068" lon="6.70644">
        <ele>336.5</ele>
        <time>2019-08-16T15:01:51Z</time>
      </trkpt>
      <trkpt lat="47.46068" lon="6.70637">
        <ele>336.4</ele>
        <time>2019-08-16T15:01:52Z</time>
      </trkpt>
      <trkpt lat="47.46067" lon="6.7063">
        <ele>336.3</ele>
        <time>2019-08-16T15:01:53Z</time>
      </trkpt>
      <trkpt lat="47.46066" lon="6.70623">
        <ele>336.2</ele>
        <time>2019-08-16T15:01:54Z</time>
      </trkpt>
      <trkpt lat="47.46065" lon="6.70616">
        <ele>336.1</ele>
        <time>2019-08-16T15:01:55Z</time>
      </trkpt>
      <trkpt lat="47.46064" lon="6.70608">
        <ele>336</ele>
        <time>2019-08-16T15:01:56Z</time>
      </trkpt>
      <trkpt lat="47.46063" lon="6.70601">
        <ele>335.9</ele>
        <time>2019-08-16T15:01:57Z</time>
      </trkpt>
      <trkpt lat="47.46062" lon="6.70594">
        <ele>335.8</ele>
        <time>2019-08-16T15:01:58Z</time>
      </trkpt>
      <trkpt lat="47.46061" lon="6.70586">
        <ele>335.7</ele>
        <time>2019-08-16T15:01:59Z</time>
      </trkpt>
      <trkpt lat="47.4606" lon="6.70579">
        <ele>335.6</ele>
        <time>2019-08-16T15:02:00Z</time>
      </trkpt>
      <trkpt lat="47.46059" lon="6.70572">
        <ele>335.5</ele>
        <time>2019-08-16T15:02:01Z</time>
      </trkpt>
      <trkpt lat="47.46059" lon="6.70566">
        <ele>335.4</ele>
        <time>2019-08-16T15:02:02Z</time>
      </trkpt>
      <trkpt lat="47.46058" lon="6.7056">
        <ele>335.2</ele>
        <time>2019-08-16T15:02:03Z</time>
      </trkpt>
      <trkpt lat="47.46057" lon="6.70554">
        <ele>335.1</ele>
        <time>2019-08-16T15:02:04Z</time>
      </trkpt>
      <trkpt lat="47.46055" lon="6.70547">
        <ele>335</ele>
        <time>2019-08-16T15:02:05Z</time>
      </trkpt>
      <trkpt lat="47.46054" lon="6.7054">
        <ele>334.9</ele>
        <time>2019-08-16T15:02:06Z</time>
      </trkpt>
      <trkpt lat="47.46051" lon="6.70533">
        <ele>334.7</ele>
        <time>2019-08-16T15:02:07Z</time>
      </trkpt>
      <trkpt lat="47.46049" lon="6.70525">
        <ele>334.6</ele>
        <time>2019-08-16T15:02:08Z</time>
      </trkpt>
      <trkpt lat="47.46047" lon="6.70516">
        <ele>334.4</ele>
        <time>2019-08-16T15:02:09Z</time>
      </trkpt>
      <trkpt lat="47.46045" lon="6.70507">
        <ele>334.2</ele>
        <time>2019-08-16T15:02:10Z</time>
      </trkpt>
      <trkpt lat="47.46044" lon="6.70498">
        <ele>334</ele>
        <time>2019-08-16T15:02:11Z</time>
      </trkpt>
      <trkpt lat="47.46042" lon="6.7049">
        <ele>333.9</ele>
        <time>2019-08-16T15:02:12Z</time>
      </trkpt>
      <trkpt lat="47.46039" lon="6.70482">
        <ele>333.7</ele>
        <time>2019-08-16T15:02:13Z</time>
      </trkpt>
      <trkpt lat="47.46036" lon="6.70474">
        <ele>333.5</ele>
        <time>2019-08-16T15:02:14Z</time>
      </trkpt>
      <trkpt lat="47.46034" lon="6.70465">
        <ele>333.3</ele>
        <time>2019-08-16T15:02:15Z</time>
      </trkpt>
      <trkpt lat="47.46033" lon="6.70455">
        <ele>333</ele>
        <time>2019-08-16T15:02:16Z</time>
      </trkpt>
      <trkpt lat="47.4603" lon="6.70446">
        <ele>332.8</ele>
        <time>2019-08-16T15:02:17Z</time>
      </trkpt>
      <trkpt lat="47.46026" lon="6.70436">
        <ele>332.6</ele>
        <time>2019-08-16T15:02:18Z</time>
      </trkpt>
      <trkpt lat="47.46022" lon="6.70427">
        <ele>332.3</ele>
        <time>2019-08-16T15:02:19Z</time>
      </trkpt>
      <trkpt lat="47.46019" lon="6.70417">
        <ele>332.1</ele>
        <time>2019-08-16T15:02:20Z</time>
      </trkpt>
      <trkpt lat="47.46016" lon="6.70408">
        <ele>331.9</ele>
        <time>2019-08-16T15:02:21Z</time>
      </trkpt>
      <trkpt lat="47.46012" lon="6.704">
        <ele>331.7</ele>
        <time>2019-08-16T15:02:22Z</time>
      </trkpt>
      <trkpt lat="47.46009" lon="6.70391">
        <ele>331.5</ele>
        <time>2019-08-16T15:02:23Z</time>
      </trkpt>
      <trkpt lat="47.46005" lon="6.70382">
        <ele>331.3</ele>
        <time>2019-08-16T15:02:24Z</time>
      </trkpt>
      <trkpt lat="47.46001" lon="6.70373">
        <ele>331.1</ele>
        <time>2019-08-16T15:02:25Z</time>
      </trkpt>
      <trkpt lat="47.45998" lon="6.70365">
        <ele>331</ele>
        <time>2019-08-16T15:02:26Z</time>
      </trkpt>
      <trkpt lat="47.45994" lon="6.70356">
        <ele>330.8</ele>
        <time>2019-08-16T15:02:27Z</time>
      </trkpt>
      <trkpt lat="47.45992" lon="6.70348">
        <ele>330.6</ele>
        <time>2019-08-16T15:02:28Z</time>
      </trkpt>
      <trkpt lat="47.4599" lon="6.70338">
        <ele>330.4</ele>
        <time>2019-08-16T15:02:29Z</time>
      </trkpt>
      <trkpt lat="47.45987" lon="6.70328">
        <ele>330.3</ele>
        <time>2019-08-16T15:02:30Z</time>
      </trkpt>
      <trkpt lat="47.45986" lon="6.7032">
        <ele>330.1</ele>
        <time>2019-08-16T15:02:31Z</time>
      </trkpt>
      <trkpt lat="47.45984" lon="6.70312">
        <ele>330</ele>
        <time>2019-08-16T15:02:32Z</time>
      </trkpt>
      <trkpt lat="47.45983" lon="6.70304">
        <ele>329.8</ele>
        <time>2019-08-16T15:02:33Z</time>
      </trkpt>
      <trkpt lat="47.45982" lon="6.70296">
        <ele>329.7</ele>
        <time>2019-08-16T15:02:34Z</time>
      </trkpt>
      <trkpt lat="47.45981" lon="6.70286">
        <ele>329.5</ele>
        <time>2019-08-16T15:02:35Z</time>
      </trkpt>
      <trkpt lat="47.4598" lon="6.70276">
        <ele>329.4</ele>
        <time>2019-08-16T15:02:36Z</time>
      </trkpt>
      <trkpt lat="47.45978" lon="6.70266">
        <ele>329.2</ele>
        <time>2019-08-16T15:02:37Z</time>
      </trkpt>
      <trkpt lat="47.45976" lon="6.70255">
        <ele>329</ele>
        <time>2019-08-16T15:02:38Z</time>
      </trkpt>
      <trkpt lat="47.45973" lon="6.70245">
        <ele>328.9</ele>
        <time>2019-08-16T15:02:39Z</time>
      </trkpt>
      <trkpt lat="47.45971" lon="6.70236">
        <ele>328.7</ele>
        <time>2019-08-16T15:02:40Z</time>
      </trkpt>
      <trkpt lat="47.4597" lon="6.70226">
        <ele>328.5</ele>
        <time>2019-08-16T15:02:41Z</time>
      </trkpt>
      <trkpt lat="47.45967" lon="6.70216">
        <ele>328.3</ele>
        <time>2019-08-16T15:02:42Z</time>
      </trkpt>
      <trkpt lat="47.45964" lon="6.70207">
        <ele>328.1</ele>
        <time>2019-08-16T15:02:43Z</time>
      </trkpt>
      <trkpt lat="47.45961" lon="6.70198">
        <ele>327.8</ele>
        <time>2019-08-16T15:02:44Z</time>
      </trkpt>
      <trkpt lat="47.45958" lon="6.7019">
        <ele>327.7</ele>
        <time>2019-08-16T15:02:45Z</time>
      </trkpt>
      <trkpt lat="47.45956" lon="6.70181">
        <ele>327.5</ele>
        <time>2019-08-16T15:02:46Z</time>
      </trkpt>
      <trkpt lat="47.45954" lon="6.7017">
        <ele>327.2</ele>
        <time>2019-08-16T15:02:47Z</time>
      </trkpt>
      <trkpt lat="47.45952" lon="6.7016">
        <ele>327</ele>
        <time>2019-08-16T15:02:48Z</time>
      </trkpt>
      <trkpt lat="47.4595" lon="6.7015">
        <ele>326.8</ele>
        <time>2019-08-16T15:02:49Z</time>
      </trkpt>
      <trkpt lat="47.45949" lon="6.7014">
        <ele>326.6</ele>
        <time>2019-08-16T15:02:50Z</time>
      </trkpt>
      <trkpt lat="47.45947" lon="6.7013">
        <ele>326.4</ele>
        <time>2019-08-16T15:02:51Z</time>
      </trkpt>
      <trkpt lat="47.45946" lon="6.70119">
        <ele>326.2</ele>
        <time>2019-08-16T15:02:52Z</time>
      </trkpt>
      <trkpt lat="47.45945" lon="6.70108">
        <ele>326</ele>
        <time>2019-08-16T15:02:53Z</time>
      </trkpt>
      <trkpt lat="47.45944" lon="6.70098">
        <ele>325.8</ele>
        <time>2019-08-16T15:02:54Z</time>
      </trkpt>
      <trkpt lat="47.45944" lon="6.70088">
        <ele>325.6</ele>
        <time>2019-08-16T15:02:55Z</time>
      </trkpt>
      <trkpt lat="47.45943" lon="6.70078">
        <ele>325.5</ele>
        <time>2019-08-16T15:02:56Z</time>
      </trkpt>
      <trkpt lat="47.45942" lon="6.70068">
        <ele>325.3</ele>
        <time>2019-08-16T15:02:57Z</time>
      </trkpt>
      <trkpt lat="47.45941" lon="6.7006">
        <ele>325.2</ele>
        <time>2019-08-16T15:02:58Z</time>
      </trkpt>
      <trkpt lat="47.45941" lon="6.70051">
        <ele>325</ele>
        <time>2019-08-16T15:02:59Z</time>
      </trkpt>
      <trkpt lat="47.4594" lon="6.7004">
        <ele>324.3</ele>
        <time>2019-08-16T15:03:00Z</time>
      </trkpt>
      <trkpt lat="47.45941" lon="6.7003">
        <ele>323.9</ele>
        <time>2019-08-16T15:03:01Z</time>
      </trkpt>
      <trkpt lat="47.45941" lon="6.70022">
        <ele>323.6</ele>
        <time>2019-08-16T15:03:02Z</time>
      </trkpt>
      <trkpt lat="47.45941" lon="6.70015">
        <ele>323.3</ele>
        <time>2019-08-16T15:03:03Z</time>
      </trkpt>
      <trkpt lat="47.45942" lon="6.70006">
        <ele>322.9</ele>
        <time>2019-08-16T15:03:04Z</time>
      </trkpt>
      <trkpt lat="47.45943" lon="6.69997">
        <ele>322.5</ele>
        <time>2019-08-16T15:03:05Z</time>
      </trkpt>
      <trkpt lat="47.45943" lon="6.69986">
        <ele>322</ele>
        <time>2019-08-16T15:03:06Z</time>
      </trkpt>
      <trkpt lat="47.45944" lon="6.69977">
        <ele>321.6</ele>
        <time>2019-08-16T15:03:07Z</time>
      </trkpt>
      <trkpt lat="47.45945" lon="6.69966">
        <ele>321.2</ele>
        <time>2019-08-16T15:03:08Z</time>
      </trkpt>
      <trkpt lat="47.45946" lon="6.69951">
        <ele>320.7</ele>
        <time>2019-08-16T15:03:09Z</time>
      </trkpt>
      <trkpt lat="47.45947" lon="6.69941">
        <ele>320.4</ele>
        <time>2019-08-16T15:03:10Z</time>
      </trkpt>
      <trkpt lat="47.45947" lon="6.6993">
        <ele>320.1</ele>
        <time>2019-08-16T15:03:11Z</time>
      </trkpt>
      <trkpt lat="47.45948" lon="6.69917">
        <ele>319.7</ele>
        <time>2019-08-16T15:03:12Z</time>
      </trkpt>
      <trkpt lat="47.45949" lon="6.69905">
        <ele>319.4</ele>
        <time>2019-08-16T15:03:13Z</time>
      </trkpt>
      <trkpt lat="47.45949" lon="6.69894">
        <ele>319.1</ele>
        <time>2019-08-16T15:03:14Z</time>
      </trkpt>
      <trkpt lat="47.45951" lon="6.69883">
        <ele>318.9</ele>
        <time>2019-08-16T15:03:15Z</time>
      </trkpt>
      <trkpt lat="47.45953" lon="6.69871">
        <ele>318.6</ele>
        <time>2019-08-16T15:03:16Z</time>
      </trkpt>
      <trkpt lat="47.45955" lon="6.6986">
        <ele>318.3</ele>
        <time>2019-08-16T15:03:17Z</time>
      </trkpt>
      <trkpt lat="47.45956" lon="6.69848">
        <ele>317.9</ele>
        <time>2019-08-16T15:03:18Z</time>
      </trkpt>
      <trkpt lat="47.45957" lon="6.6984">
        <ele>317.6</ele>
        <time>2019-08-16T15:03:19Z</time>
      </trkpt>
      <trkpt lat="47.45958" lon="6.69831">
        <ele>317.3</ele>
        <time>2019-08-16T15:03:20Z</time>
      </trkpt>
      <trkpt lat="47.45958" lon="6.69821">
        <ele>316.9</ele>
        <time>2019-08-16T15:03:21Z</time>
      </trkpt>
      <trkpt lat="47.45958" lon="6.69811">
        <ele>316.5</ele>
        <time>2019-08-16T15:03:22Z</time>
      </trkpt>
      <trkpt lat="47.45958" lon="6.698">
        <ele>316.1</ele>
        <time>2019-08-16T15:03:23Z</time>
      </trkpt>
      <trkpt lat="47.45957" lon="6.69788">
        <ele>315.7</ele>
        <time>2019-08-16T15:03:24Z</time>
      </trkpt>
      <trkpt lat="47.45956" lon="6.69776">
        <ele>315.2</ele>
        <time>2019-08-16T15:03:25Z</time>
      </trkpt>
      <trkpt lat="47.45954" lon="6.69763">
        <ele>314.6</ele>
        <time>2019-08-16T15:03:26Z</time>
      </trkpt>
      <trkpt lat="47.45952" lon="6.69752">
        <ele>314</ele>
        <time>2019-08-16T15:03:27Z</time>
      </trkpt>
      <trkpt lat="47.45951" lon="6.69739">
        <ele>313.4</ele>
        <time>2019-08-16T15:03:28Z</time>
      </trkpt>
      <trkpt lat="47.4595" lon="6.69728">
        <ele>312.8</ele>
        <time>2019-08-16T15:03:29Z</time>
      </trkpt>
      <trkpt lat="47.45949" lon="6.69716">
        <ele>312.2</ele>
        <time>2019-08-16T15:03:30Z</time>
      </trkpt>
      <trkpt lat="47.45947" lon="6.69706">
        <ele>311.7</ele>
        <time>2019-08-16T15:03:31Z</time>
      </trkpt>
      <trkpt lat="47.45945" lon="6.69697">
        <ele>311.2</ele>
        <time>2019-08-16T15:03:32Z</time>
      </trkpt>
      <trkpt lat="47.45944" lon="6.69686">
        <ele>310.7</ele>
        <time>2019-08-16T15:03:33Z</time>
      </trkpt>
      <trkpt lat="47.45942" lon="6.69676">
        <ele>310.2</ele>
        <time>2019-08-16T15:03:34Z</time>
      </trkpt>
      <trkpt lat="47.4594" lon="6.69665">
        <ele>309.6</ele>
        <time>2019-08-16T15:03:35Z</time>
      </trkpt>
      <trkpt lat="47.45938" lon="6.69653">
        <ele>309.1</ele>
        <time>2019-08-16T15:03:36Z</time>
      </trkpt>
      <trkpt lat="47.45936" lon="6.69643">
        <ele>308.7</ele>
        <time>2019-08-16T15:03:37Z</time>
      </trkpt>
      <trkpt lat="47.45934" lon="6.69635">
        <ele>308.3</ele>
        <time>2019-08-16T15:03:38Z</time>
      </trkpt>
      <trkpt lat="47.45932" lon="6.69625">
        <ele>307.9</ele>
        <time>2019-08-16T15:03:39Z</time>
      </trkpt>
      <trkpt lat="47.4593" lon="6.69617">
        <ele>307.6</ele>
        <time>2019-08-16T15:03:40Z</time>
      </trkpt>
      <trkpt lat="47.45928" lon="6.69608">
        <ele>307.3</ele>
        <time>2019-08-16T15:03:41Z</time>
      </trkpt>
      <trkpt lat="47.45925" lon="6.69598">
        <ele>307</ele>
        <time>2019-08-16T15:03:42Z</time>
      </trkpt>
      <trkpt lat="47.45923" lon="6.69589">
        <ele>306.7</ele>
        <time>2019-08-16T15:03:43Z</time>
      </trkpt>
      <trkpt lat="47.45921" lon="6.69579">
        <ele>306.5</ele>
        <time>2019-08-16T15:03:44Z</time>
      </trkpt>
      <trkpt lat="47.45918" lon="6.69569">
        <ele>306.2</ele>
        <time>2019-08-16T15:03:45Z</time>
      </trkpt>
      <trkpt lat="47.45915" lon="6.6956">
        <ele>306</ele>
        <time>2019-08-16T15:03:46Z</time>
      </trkpt>
      <trkpt lat="47.45913" lon="6.6955">
        <ele>305.8</ele>
        <time>2019-08-16T15:03:47Z</time>
      </trkpt>
      <trkpt lat="47.4591" lon="6.69541">
        <ele>305.6</ele>
        <time>2019-08-16T15:03:48Z</time>
      </trkpt>
      <trkpt lat="47.45907" lon="6.69532">
        <ele>305.4</ele>
        <time>2019-08-16T15:03:49Z</time>
      </trkpt>
      <trkpt lat="47.45904" lon="6.69522">
        <ele>305.1</ele>
        <time>2019-08-16T15:03:50Z</time>
      </trkpt>
      <trkpt lat="47.45901" lon="6.69513">
        <ele>304.8</ele>
        <time>2019-08-16T15:03:51Z</time>
      </trkpt>
      <trkpt lat="47.45897" lon="6.69504">
        <ele>304.5</ele>
        <time>2019-08-16T15:03:52Z</time>
      </trkpt>
      <trkpt lat="47.45894" lon="6.69495">
        <ele>304.1</ele>
        <time>2019-08-16T15:03:53Z</time>
      </trkpt>
      <trkpt lat="47.4589" lon="6.69487">
        <ele>303.8</ele>
        <time>2019-08-16T15:03:54Z</time>
      </trkpt>
      <trkpt lat="47.45886" lon="6.69479">
        <ele>303.5</ele>
        <time>2019-08-16T15:03:55Z</time>
      </trkpt>
      <trkpt lat="47.45882" lon="6.69471">
        <ele>303.2</ele>
        <time>2019-08-16T15:03:56Z</time>
      </trkpt>
      <trkpt lat="47.45878" lon="6.69464">
        <ele>303</ele>
        <time>2019-08-16T15:03:57Z</time>
      </trkpt>
      <trkpt lat="47.45873" lon="6.69457">
        <ele>302.7</ele>
        <time>2019-08-16T15:03:58Z</time>
      </trkpt>
      <trkpt lat="47.45869" lon="6.6945">
        <ele>302.6</ele>
        <time>2019-08-16T15:03:59Z</time>
      </trkpt>
      <trkpt lat="47.45864" lon="6.69443">
        <ele>302.5</ele>
        <time>2019-08-16T15:04:00Z</time>
      </trkpt>
      <trkpt lat="47.4586" lon="6.69436">
        <ele>302.5</ele>
        <time>2019-08-16T15:04:01Z</time>
      </trkpt>
      <trkpt lat="47.45856" lon="6.69429">
        <ele>302.5</ele>
        <time>2019-08-16T15:04:02Z</time>
      </trkpt>
      <trkpt lat="47.45852" lon="6.69423">
        <ele>302.6</ele>
        <time>2019-08-16T15:04:03Z</time>
      </trkpt>
      <trkpt lat="47.45848" lon="6.69416">
        <ele>302.8</ele>
        <time>2019-08-16T15:04:04Z</time>
      </trkpt>
      <trkpt lat="47.45843" lon="6.6941">
        <ele>303</ele>
        <time>2019-08-16T15:04:05Z</time>
      </trkpt>
      <trkpt lat="47.45838" lon="6.69404">
        <ele>303.2</ele>
        <time>2019-08-16T15:04:06Z</time>
      </trkpt>
      <trkpt lat="47.45833" lon="6.69398">
        <ele>303.3</ele>
        <time>2019-08-16T15:04:07Z</time>
      </trkpt>
      <trkpt lat="47.45828" lon="6.69392">
        <ele>303.5</ele>
        <time>2019-08-16T15:04:08Z</time>
      </trkpt>
      <trkpt lat="47.45823" lon="6.69386">
        <ele>303.5</ele>
        <time>2019-08-16T15:04:09Z</time>
      </trkpt>
      <trkpt lat="47.45818" lon="6.6938">
        <ele>303.6</ele>
        <time>2019-08-16T15:04:10Z</time>
      </trkpt>
      <trkpt lat="47.45813" lon="6.69375">
        <ele>303.6</ele>
        <time>2019-08-16T15:04:11Z</time>
      </trkpt>
      <trkpt lat="47.45808" lon="6.6937">
        <ele>303.5</ele>
        <time>2019-08-16T15:04:12Z</time>
      </trkpt>
      <trkpt lat="47.45802" lon="6.69365">
        <ele>303.4</ele>
        <time>2019-08-16T15:04:13Z</time>
      </trkpt>
      <trkpt lat="47.45798" lon="6.69361">
        <ele>303.3</ele>
        <time>2019-08-16T15:04:14Z</time>
      </trkpt>
      <trkpt lat="47.45792" lon="6.69357">
        <ele>303.1</ele>
        <time>2019-08-16T15:04:15Z</time>
      </trkpt>
      <trkpt lat="47.45787" lon="6.69352">
        <ele>303</ele>
        <time>2019-08-16T15:04:16Z</time>
      </trkpt>
      <trkpt lat="47.45782" lon="6.69347">
        <ele>302.8</ele>
        <time>2019-08-16T15:04:17Z</time>
      </trkpt>
      <trkpt lat="47.45776" lon="6.69341">
        <ele>302.6</ele>
        <time>2019-08-16T15:04:18Z</time>
      </trkpt>
      <trkpt lat="47.4577" lon="6.69337">
        <ele>302.5</ele>
        <time>2019-08-16T15:04:19Z</time>
      </trkpt>
      <trkpt lat="47.45764" lon="6.69332">
        <ele>302.4</ele>
        <time>2019-08-16T15:04:20Z</time>
      </trkpt>
      <trkpt lat="47.45758" lon="6.69327">
        <ele>302.2</ele>
        <time>2019-08-16T15:04:21Z</time>
      </trkpt>
      <trkpt lat="47.45752" lon="6.69323">
        <ele>302</ele>
        <time>2019-08-16T15:04:22Z</time>
      </trkpt>
      <trkpt lat="47.45746" lon="6.69318">
        <ele>301.9</ele>
        <time>2019-08-16T15:04:23Z</time>
      </trkpt>
      <trkpt lat="47.45741" lon="6.69314">
        <ele>301.8</ele>
        <time>2019-08-16T15:04:24Z</time>
      </trkpt>
      <trkpt lat="47.45734" lon="6.69309">
        <ele>301.9</ele>
        <time>2019-08-16T15:04:25Z</time>
      </trkpt>
      <trkpt lat="47.45729" lon="6.69304">
        <ele>302</ele>
        <time>2019-08-16T15:04:26Z</time>
      </trkpt>
      <trkpt lat="47.45724" lon="6.693">
        <ele>302.2</ele>
        <time>2019-08-16T15:04:27Z</time>
      </trkpt>
      <trkpt lat="47.45717" lon="6.69294">
        <ele>302.6</ele>
        <time>2019-08-16T15:04:28Z</time>
      </trkpt>
      <trkpt lat="47.45712" lon="6.69289">
        <ele>302.6</ele>
        <time>2019-08-16T15:04:29Z</time>
      </trkpt>
      <trkpt lat="47.45706" lon="6.69285">
        <ele>302.7</ele>
        <time>2019-08-16T15:04:30Z</time>
      </trkpt>
      <trkpt lat="47.45701" lon="6.6928">
        <ele>302.7</ele>
        <time>2019-08-16T15:04:31Z</time>
      </trkpt>
      <trkpt lat="47.45696" lon="6.69275">
        <ele>302.8</ele>
        <time>2019-08-16T15:04:32Z</time>
      </trkpt>
      <trkpt lat="47.4569" lon="6.69271">
        <ele>302.8</ele>
        <time>2019-08-16T15:04:33Z</time>
      </trkpt>
      <trkpt lat="47.45686" lon="6.69267">
        <ele>302.9</ele>
        <time>2019-08-16T15:04:34Z</time>
      </trkpt>
      <trkpt lat="47.45681" lon="6.69263">
        <ele>302.9</ele>
        <time>2019-08-16T15:04:35Z</time>
      </trkpt>
      <trkpt lat="47.45676" lon="6.69259">
        <ele>303</ele>
        <time>2019-08-16T15:04:36Z</time>
      </trkpt>
      <trkpt lat="47.45672" lon="6.69255">
        <ele>303.1</ele>
        <time>2019-08-16T15:04:37Z</time>
      </trkpt>
      <trkpt lat="47.45667" lon="6.69251">
        <ele>303.1</ele>
        <time>2019-08-16T15:04:38Z</time>
      </trkpt>
      <trkpt lat="47.45662" lon="6.69246">
        <ele>303.2</ele>
        <time>2019-08-16T15:04:39Z</time>
      </trkpt>
      <trkpt lat="47.45658" lon="6.69241">
        <ele>303.3</ele>
        <time>2019-08-16T15:04:40Z</time>
      </trkpt>
      <trkpt lat="47.45653" lon="6.69235">
        <ele>303.4</ele>
        <time>2019-08-16T15:04:41Z</time>
      </trkpt>
      <trkpt lat="47.45649" lon="6.69231">
        <ele>303.5</ele>
        <time>2019-08-16T15:04:42Z</time>
      </trkpt>
      <trkpt lat="47.45644" lon="6.69226">
        <ele>303.5</ele>
        <time>2019-08-16T15:04:43Z</time>
      </trkpt>
      <trkpt lat="47.45639" lon="6.69221">
        <ele>303.6</ele>
        <time>2019-08-16T15:04:44Z</time>
      </trkpt>
      <trkpt lat="47.45635" lon="6.69215">
        <ele>303.7</ele>
        <time>2019-08-16T15:04:45Z</time>
      </trkpt>
      <trkpt lat="47.4563" lon="6.6921">
        <ele>303.7</ele>
        <time>2019-08-16T15:04:46Z</time>
      </trkpt>
      <trkpt lat="47.45625" lon="6.69205">
        <ele>303.8</ele>
        <time>2019-08-16T15:04:47Z</time>
      </trkpt>
      <trkpt lat="47.45621" lon="6.69198">
        <ele>303.8</ele>
        <time>2019-08-16T15:04:48Z</time>
      </trkpt>
      <trkpt lat="47.45617" lon="6.69192">
        <ele>303.9</ele>
        <time>2019-08-16T15:04:49Z</time>
      </trkpt>
      <trkpt lat="47.45613" lon="6.69187">
        <ele>303.9</ele>
        <time>2019-08-16T15:04:50Z</time>
      </trkpt>
      <trkpt lat="47.45609" lon="6.69182">
        <ele>303.9</ele>
        <time>2019-08-16T15:04:51Z</time>
      </trkpt>
      <trkpt lat="47.45604" lon="6.69176">
        <ele>304</ele>
        <time>2019-08-16T15:04:52Z</time>
      </trkpt>
      <trkpt lat="47.456" lon="6.69171">
        <ele>304</ele>
        <time>2019-08-16T15:04:53Z</time>
      </trkpt>
      <trkpt lat="47.45595" lon="6.69165">
        <ele>304</ele>
        <time>2019-08-16T15:04:54Z</time>
      </trkpt>
      <trkpt lat="47.45591" lon="6.6916">
        <ele>304.1</ele>
        <time>2019-08-16T15:04:55Z</time>
      </trkpt>
      <trkpt lat="47.45586" lon="6.69155">
        <ele>304.1</ele>
        <time>2019-08-16T15:04:56Z</time>
      </trkpt>
      <trkpt lat="47.45582" lon="6.69149">
        <ele>304.1</ele>
        <time>2019-08-16T15:04:57Z</time>
      </trkpt>
      <trkpt lat="47.45577" lon="6.69143">
        <ele>304.1</ele>
        <time>2019-08-16T15:04:58Z</time>
      </trkpt>
      <trkpt lat="47.45573" lon="6.69138">
        <ele>304.1</ele>
        <time>2019-08-16T15:04:59Z</time>
      </trkpt>
      <trkpt lat="47.45568" lon="6.69133">
        <ele>304.1</ele>
        <time>2019-08-16T15:05:00Z</time>
      </trkpt>
      <trkpt lat="47.45563" lon="6.69129">
        <ele>304.1</ele>
        <time>2019-08-16T15:05:01Z</time>
      </trkpt>
      <trkpt lat="47.45558" lon="6.69123">
        <ele>304.1</ele>
        <time>2019-08-16T15:05:02Z</time>
      </trkpt>
      <trkpt lat="47.45553" lon="6.69118">
        <ele>304.2</ele>
        <time>2019-08-16T15:05:03Z</time>
      </trkpt>
      <trkpt lat="47.45548" lon="6.69113">
        <ele>304.2</ele>
        <time>2019-08-16T15:05:04Z</time>
      </trkpt>
      <trkpt lat="47.45543" lon="6.69109">
        <ele>304.2</ele>
        <time>2019-08-16T15:05:05Z</time>
      </trkpt>
      <trkpt lat="47.45539" lon="6.69104">
        <ele>304.2</ele>
        <time>2019-08-16T15:05:06Z</time>
      </trkpt>
      <trkpt lat="47.45534" lon="6.691">
        <ele>304.1</ele>
        <time>2019-08-16T15:05:07Z</time>
      </trkpt>
      <trkpt lat="47.45529" lon="6.69097">
        <ele>304.1</ele>
        <time>2019-08-16T15:05:08Z</time>
      </trkpt>
      <trkpt lat="47.45525" lon="6.69092">
        <ele>304.1</ele>
        <time>2019-08-16T15:05:09Z</time>
      </trkpt>
      <trkpt lat="47.4552" lon="6.69088">
        <ele>304.1</ele>
        <time>2019-08-16T15:05:10Z</time>
      </trkpt>
      <trkpt lat="47.45515" lon="6.69084">
        <ele>304.1</ele>
        <time>2019-08-16T15:05:11Z</time>
      </trkpt>
      <trkpt lat="47.4551" lon="6.6908">
        <ele>304.1</ele>
        <time>2019-08-16T15:05:12Z</time>
      </trkpt>
      <trkpt lat="47.45506" lon="6.69077">
        <ele>304</ele>
        <time>2019-08-16T15:05:13Z</time>
      </trkpt>
      <trkpt lat="47.45501" lon="6.69074">
        <ele>304</ele>
        <time>2019-08-16T15:05:14Z</time>
      </trkpt>
      <trkpt lat="47.45497" lon="6.69071">
        <ele>303.9</ele>
        <time>2019-08-16T15:05:15Z</time>
      </trkpt>
      <trkpt lat="47.45493" lon="6.69069">
        <ele>303.9</ele>
        <time>2019-08-16T15:05:16Z</time>
      </trkpt>
      <trkpt lat="47.45488" lon="6.69065">
        <ele>303.8</ele>
        <time>2019-08-16T15:05:17Z</time>
      </trkpt>
      <trkpt lat="47.45484" lon="6.69062">
        <ele>303.8</ele>
        <time>2019-08-16T15:05:18Z</time>
      </trkpt>
      <trkpt lat="47.45479" lon="6.6906">
        <ele>303.7</ele>
        <time>2019-08-16T15:05:19Z</time>
      </trkpt>
      <trkpt lat="47.45473" lon="6.69056">
        <ele>303.6</ele>
        <time>2019-08-16T15:05:20Z</time>
      </trkpt>
      <trkpt lat="47.45468" lon="6.69053">
        <ele>303.6</ele>
        <time>2019-08-16T15:05:21Z</time>
      </trkpt>
      <trkpt lat="47.45464" lon="6.6905">
        <ele>303.6</ele>
        <time>2019-08-16T15:05:22Z</time>
      </trkpt>
      <trkpt lat="47.45459" lon="6.69046">
        <ele>303.5</ele>
        <time>2019-08-16T15:05:23Z</time>
      </trkpt>
      <trkpt lat="47.45455" lon="6.69042">
        <ele>303.5</ele>
        <time>2019-08-16T15:05:24Z</time>
      </trkpt>
      <trkpt lat="47.45451" lon="6.69039">
        <ele>303.5</ele>
        <time>2019-08-16T15:05:25Z</time>
      </trkpt>
      <trkpt lat="47.45447" lon="6.69036">
        <ele>303.5</ele>
        <time>2019-08-16T15:05:26Z</time>
      </trkpt>
      <trkpt lat="47.45445" lon="6.69033">
        <ele>303.5</ele>
        <time>2019-08-16T15:05:27Z</time>
      </trkpt>
      <trkpt lat="47.45443" lon="6.69029">
        <ele>303.5</ele>
        <time>2019-08-16T15:05:28Z</time>
      </trkpt>
      <trkpt lat="47.4544" lon="6.69024">
        <ele>303.5</ele>
        <time>2019-08-16T15:05:29Z</time>
      </trkpt>
      <trkpt lat="47.45436" lon="6.69017">
        <ele>303.5</ele>
        <time>2019-08-16T15:05:30Z</time>
      </trkpt>
      <trkpt lat="47.45433" lon="6.69012">
        <ele>303.5</ele>
        <time>2019-08-16T15:05:31Z</time>
      </trkpt>
      <trkpt lat="47.45431" lon="6.69005">
        <ele>303.5</ele>
        <time>2019-08-16T15:05:32Z</time>
      </trkpt>
      <trkpt lat="47.45428" lon="6.69">
        <ele>303.5</ele>
        <time>2019-08-16T15:05:33Z</time>
      </trkpt>
      <trkpt lat="47.45425" lon="6.68994">
        <ele>303.5</ele>
        <time>2019-08-16T15:05:34Z</time>
      </trkpt>
      <trkpt lat="47.45423" lon="6.68989">
        <ele>303.5</ele>
        <time>2019-08-16T15:05:35Z</time>
      </trkpt>
      <trkpt lat="47.4542" lon="6.68984">
        <ele>303.5</ele>
        <time>2019-08-16T15:05:36Z</time>
      </trkpt>
      <trkpt lat="47.45418" lon="6.68977">
        <ele>303.5</ele>
        <time>2019-08-16T15:05:37Z</time>
      </trkpt>
      <trkpt lat="47.45415" lon="6.6897">
        <ele>303.4</ele>
        <time>2019-08-16T15:05:38Z</time>
      </trkpt>
      <trkpt lat="47.45414" lon="6.68966">
        <ele>303.2</ele>
        <time>2019-08-16T15:05:39Z</time>
      </trkpt>
      <trkpt lat="47.45412" lon="6.68959">
        <ele>303.2</ele>
        <time>2019-08-16T15:05:41Z</time>
      </trkpt>
      <trkpt lat="47.45413" lon="6.68952">
        <ele>303.1</ele>
        <time>2019-08-16T15:05:43Z</time>
      </trkpt>
      <trkpt lat="47.45416" lon="6.6895">
        <ele>303.1</ele>
        <time>2019-08-16T15:05:44Z</time>
      </trkpt>
      <trkpt lat="47.45418" lon="6.68947">
        <ele>303.1</ele>
        <time>2019-08-16T15:05:45Z</time>
      </trkpt>
      <trkpt lat="47.45422" lon="6.68943">
        <ele>303.1</ele>
        <time>2019-08-16T15:05:46Z</time>
      </trkpt>
      <trkpt lat="47.45425" lon="6.6894">
        <ele>303.1</ele>
        <time>2019-08-16T15:05:47Z</time>
      </trkpt>
      <trkpt lat="47.45428" lon="6.68937">
        <ele>303.1</ele>
        <time>2019-08-16T15:05:48Z</time>
      </trkpt>
      <trkpt lat="47.45432" lon="6.68934">
        <ele>303.1</ele>
        <time>2019-08-16T15:05:49Z</time>
      </trkpt>
      <trkpt lat="47.45435" lon="6.68931">
        <ele>303.1</ele>
        <time>2019-08-16T15:05:50Z</time>
      </trkpt>
      <trkpt lat="47.45439" lon="6.68928">
        <ele>303.1</ele>
        <time>2019-08-16T15:05:51Z</time>
      </trkpt>
      <trkpt lat="47.45443" lon="6.68925">
        <ele>303.1</ele>
        <time>2019-08-16T15:05:52Z</time>
      </trkpt>
      <trkpt lat="47.45447" lon="6.68921">
        <ele>303.1</ele>
        <time>2019-08-16T15:05:53Z</time>
      </trkpt>
      <trkpt lat="47.45452" lon="6.68917">
        <ele>303.1</ele>
        <time>2019-08-16T15:05:54Z</time>
      </trkpt>
      <trkpt lat="47.45457" lon="6.68913">
        <ele>303.2</ele>
        <time>2019-08-16T15:05:55Z</time>
      </trkpt>
      <trkpt lat="47.45461" lon="6.68909">
        <ele>303.2</ele>
        <time>2019-08-16T15:05:56Z</time>
      </trkpt>
      <trkpt lat="47.45466" lon="6.68906">
        <ele>303.2</ele>
        <time>2019-08-16T15:05:57Z</time>
      </trkpt>
      <trkpt lat="47.45471" lon="6.68904">
        <ele>303.3</ele>
        <time>2019-08-16T15:05:58Z</time>
      </trkpt>
      <trkpt lat="47.45476" lon="6.68904">
        <ele>303.3</ele>
        <time>2019-08-16T15:05:59Z</time>
      </trkpt>
      <trkpt lat="47.45481" lon="6.68902">
        <ele>303.3</ele>
        <time>2019-08-16T15:06:00Z</time>
      </trkpt>
      <trkpt lat="47.45486" lon="6.68901">
        <ele>303.3</ele>
        <time>2019-08-16T15:06:01Z</time>
      </trkpt>
      <trkpt lat="47.45491" lon="6.68898">
        <ele>303.4</ele>
        <time>2019-08-16T15:06:02Z</time>
      </trkpt>
      <trkpt lat="47.45495" lon="6.68895">
        <ele>303.4</ele>
        <time>2019-08-16T15:06:03Z</time>
      </trkpt>
      <trkpt lat="47.455" lon="6.68892">
        <ele>303.4</ele>
        <time>2019-08-16T15:06:04Z</time>
      </trkpt>
      <trkpt lat="47.45503" lon="6.6889">
        <ele>303.4</ele>
        <time>2019-08-16T15:06:05Z</time>
      </trkpt>
      <trkpt lat="47.45507" lon="6.68887">
        <ele>303.5</ele>
        <time>2019-08-16T15:06:06Z</time>
      </trkpt>
      <trkpt lat="47.4551" lon="6.68882">
        <ele>303.5</ele>
        <time>2019-08-16T15:06:07Z</time>
      </trkpt>
      <trkpt lat="47.45513" lon="6.68877">
        <ele>303.6</ele>
        <time>2019-08-16T15:06:08Z</time>
      </trkpt>
      <trkpt lat="47.45516" lon="6.68874">
        <ele>303.6</ele>
        <time>2019-08-16T15:06:09Z</time>
      </trkpt>
      <trkpt lat="47.45519" lon="6.68871">
        <ele>303.6</ele>
        <time>2019-08-16T15:06:10Z</time>
      </trkpt>
      <trkpt lat="47.45522" lon="6.68867">
        <ele>303.7</ele>
        <time>2019-08-16T15:06:11Z</time>
      </trkpt>
      <trkpt lat="47.45525" lon="6.68863">
        <ele>303.7</ele>
        <time>2019-08-16T15:06:12Z</time>
      </trkpt>
      <trkpt lat="47.45528" lon="6.68859">
        <ele>303.7</ele>
        <time>2019-08-16T15:06:13Z</time>
      </trkpt>
      <trkpt lat="47.4553" lon="6.68855">
        <ele>303.7</ele>
        <time>2019-08-16T15:06:15Z</time>
      </trkpt>
      <trkpt lat="47.45526" lon="6.68856">
        <ele>303.7</ele>
        <time>2019-08-16T15:06:17Z</time>
      </trkpt>
      <trkpt lat="47.45523" lon="6.68853">
        <ele>303.7</ele>
        <time>2019-08-16T15:06:20Z</time>
      </trkpt>
      <trkpt lat="47.45518" lon="6.68849">
        <ele>303.7</ele>
        <time>2019-08-16T15:06:22Z</time>
      </trkpt>
      <trkpt lat="47.45514" lon="6.68845">
        <ele>303.7</ele>
        <time>2019-08-16T15:06:23Z</time>
      </trkpt>
      <trkpt lat="47.45511" lon="6.68841">
        <ele>303.7</ele>
        <time>2019-08-16T15:06:24Z</time>
      </trkpt>
      <trkpt lat="47.45508" lon="6.68836">
        <ele>303.7</ele>
        <time>2019-08-16T15:06:25Z</time>
      </trkpt>
      <trkpt lat="47.45505" lon="6.68831">
        <ele>303.7</ele>
        <time>2019-08-16T15:06:26Z</time>
      </trkpt>
      <trkpt lat="47.45503" lon="6.68827">
        <ele>303.7</ele>
        <time>2019-08-16T15:06:27Z</time>
      </trkpt>
      <trkpt lat="47.45499" lon="6.68822">
        <ele>303.7</ele>
        <time>2019-08-16T15:06:28Z</time>
      </trkpt>
      <trkpt lat="47.45496" lon="6.68818">
        <ele>303.7</ele>
        <time>2019-08-16T15:06:29Z</time>
      </trkpt>
      <trkpt lat="47.45492" lon="6.68815">
        <ele>303.7</ele>
        <time>2019-08-16T15:06:30Z</time>
      </trkpt>
      <trkpt lat="47.45488" lon="6.6881">
        <ele>303.7</ele>
        <time>2019-08-16T15:06:31Z</time>
      </trkpt>
      <trkpt lat="47.45484" lon="6.68807">
        <ele>303.7</ele>
        <time>2019-08-16T15:06:32Z</time>
      </trkpt>
      <trkpt lat="47.4548" lon="6.68803">
        <ele>303.7</ele>
        <time>2019-08-16T15:06:33Z</time>
      </trkpt>
      <trkpt lat="47.45476" lon="6.688">
        <ele>303.7</ele>
        <time>2019-08-16T15:06:34Z</time>
      </trkpt>
      <trkpt lat="47.45472" lon="6.68796">
        <ele>303.7</ele>
        <time>2019-08-16T15:06:35Z</time>
      </trkpt>
      <trkpt lat="47.45468" lon="6.68792">
        <ele>303.7</ele>
        <time>2019-08-16T15:06:36Z</time>
      </trkpt>
      <trkpt lat="47.45465" lon="6.68788">
        <ele>303.7</ele>
        <time>2019-08-16T15:06:37Z</time>
      </trkpt>
      <trkpt lat="47.4546" lon="6.68785">
        <ele>303.7</ele>
        <time>2019-08-16T15:06:38Z</time>
      </trkpt>
      <trkpt lat="47.45456" lon="6.68781">
        <ele>303.7</ele>
        <time>2019-08-16T15:06:39Z</time>
      </trkpt>
      <trkpt lat="47.45453" lon="6.68776">
        <ele>303.7</ele>
        <time>2019-08-16T15:06:40Z</time>
      </trkpt>
      <trkpt lat="47.45449" lon="6.68771">
        <ele>303.7</ele>
        <time>2019-08-16T15:06:41Z</time>
      </trkpt>
      <trkpt lat="47.45445" lon="6.68765">
        <ele>303.7</ele>
        <time>2019-08-16T15:06:42Z</time>
      </trkpt>
      <trkpt lat="47.45441" lon="6.6876">
        <ele>303.7</ele>
        <time>2019-08-16T15:06:43Z</time>
      </trkpt>
      <trkpt lat="47.45438" lon="6.68754">
        <ele>303.7</ele>
        <time>2019-08-16T15:06:44Z</time>
      </trkpt>
      <trkpt lat="47.45434" lon="6.68749">
        <ele>303.7</ele>
        <time>2019-08-16T15:06:45Z</time>
      </trkpt>
      <trkpt lat="47.4543" lon="6.68744">
        <ele>303.8</ele>
        <time>2019-08-16T15:06:46Z</time>
      </trkpt>
      <trkpt lat="47.45426" lon="6.68741">
        <ele>303.8</ele>
        <time>2019-08-16T15:06:47Z</time>
      </trkpt>
      <trkpt lat="47.45422" lon="6.68738">
        <ele>303.8</ele>
        <time>2019-08-16T15:06:48Z</time>
      </trkpt>
      <trkpt lat="47.45418" lon="6.68734">
        <ele>303.8</ele>
        <time>2019-08-16T15:06:49Z</time>
      </trkpt>
      <trkpt lat="47.45415" lon="6.68727">
        <ele>303.8</ele>
        <time>2019-08-16T15:06:50Z</time>
      </trkpt>
      <trkpt lat="47.45411" lon="6.68723">
        <ele>303.8</ele>
        <time>2019-08-16T15:06:51Z</time>
      </trkpt>
      <trkpt lat="47.45406" lon="6.68719">
        <ele>303.8</ele>
        <time>2019-08-16T15:06:52Z</time>
      </trkpt>
      <trkpt lat="47.45402" lon="6.68715">
        <ele>303.9</ele>
        <time>2019-08-16T15:06:53Z</time>
      </trkpt>
      <trkpt lat="47.45399" lon="6.68711">
        <ele>303.9</ele>
        <time>2019-08-16T15:06:54Z</time>
      </trkpt>
      <trkpt lat="47.45395" lon="6.68706">
        <ele>303.9</ele>
        <time>2019-08-16T15:06:55Z</time>
      </trkpt>
      <trkpt lat="47.45391" lon="6.68702">
        <ele>303.9</ele>
        <time>2019-08-16T15:06:56Z</time>
      </trkpt>
      <trkpt lat="47.45388" lon="6.68697">
        <ele>303.9</ele>
        <time>2019-08-16T15:06:57Z</time>
      </trkpt>
      <trkpt lat="47.45384" lon="6.68693">
        <ele>304</ele>
        <time>2019-08-16T15:06:58Z</time>
      </trkpt>
      <trkpt lat="47.4538" lon="6.6869">
        <ele>304</ele>
        <time>2019-08-16T15:06:59Z</time>
      </trkpt>
      <trkpt lat="47.45376" lon="6.68686">
        <ele>304</ele>
        <time>2019-08-16T15:07:00Z</time>
      </trkpt>
      <trkpt lat="47.45371" lon="6.68682">
        <ele>304</ele>
        <time>2019-08-16T15:07:01Z</time>
      </trkpt>
      <trkpt lat="47.45368" lon="6.68678">
        <ele>304</ele>
        <time>2019-08-16T15:07:02Z</time>
      </trkpt>
      <trkpt lat="47.45364" lon="6.68674">
        <ele>304</ele>
        <time>2019-08-16T15:07:03Z</time>
      </trkpt>
      <trkpt lat="47.4536" lon="6.6867">
        <ele>304</ele>
        <time>2019-08-16T15:07:04Z</time>
      </trkpt>
      <trkpt lat="47.45356" lon="6.68665">
        <ele>304</ele>
        <time>2019-08-16T15:07:05Z</time>
      </trkpt>
      <trkpt lat="47.45352" lon="6.68661">
        <ele>304</ele>
        <time>2019-08-16T15:07:06Z</time>
      </trkpt>
      <trkpt lat="47.45348" lon="6.68657">
        <ele>304</ele>
        <time>2019-08-16T15:07:07Z</time>
      </trkpt>
      <trkpt lat="47.45344" lon="6.68653">
        <ele>304</ele>
        <time>2019-08-16T15:07:08Z</time>
      </trkpt>
      <trkpt lat="47.45339" lon="6.6865">
        <ele>303.9</ele>
        <time>2019-08-16T15:07:09Z</time>
      </trkpt>
      <trkpt lat="47.45336" lon="6.68646">
        <ele>303.9</ele>
        <time>2019-08-16T15:07:10Z</time>
      </trkpt>
      <trkpt lat="47.45332" lon="6.68642">
        <ele>303.9</ele>
        <time>2019-08-16T15:07:11Z</time>
      </trkpt>
      <trkpt lat="47.45327" lon="6.68638">
        <ele>303.9</ele>
        <time>2019-08-16T15:07:12Z</time>
      </trkpt>
      <trkpt lat="47.45323" lon="6.68635">
        <ele>303.9</ele>
        <time>2019-08-16T15:07:13Z</time>
      </trkpt>
      <trkpt lat="47.4532" lon="6.68632">
        <ele>303.8</ele>
        <time>2019-08-16T15:07:14Z</time>
      </trkpt>
      <trkpt lat="47.45316" lon="6.68629">
        <ele>303.8</ele>
        <time>2019-08-16T15:07:15Z</time>
      </trkpt>
      <trkpt lat="47.45312" lon="6.68624">
        <ele>303.8</ele>
        <time>2019-08-16T15:07:16Z</time>
      </trkpt>
      <trkpt lat="47.45309" lon="6.68618">
        <ele>303.8</ele>
        <time>2019-08-16T15:07:17Z</time>
      </trkpt>
      <trkpt lat="47.45305" lon="6.68613">
        <ele>303.7</ele>
        <time>2019-08-16T15:07:18Z</time>
      </trkpt>
      <trkpt lat="47.45301" lon="6.68608">
        <ele>303.7</ele>
        <time>2019-08-16T15:07:19Z</time>
      </trkpt>
      <trkpt lat="47.45297" lon="6.68603">
        <ele>303.7</ele>
        <time>2019-08-16T15:07:20Z</time>
      </trkpt>
      <trkpt lat="47.45293" lon="6.68598">
        <ele>303.6</ele>
        <time>2019-08-16T15:07:21Z</time>
      </trkpt>
      <trkpt lat="47.45288" lon="6.68594">
        <ele>303.6</ele>
        <time>2019-08-16T15:07:22Z</time>
      </trkpt>
      <trkpt lat="47.45284" lon="6.68589">
        <ele>303.6</ele>
        <time>2019-08-16T15:07:23Z</time>
      </trkpt>
      <trkpt lat="47.45281" lon="6.68584">
        <ele>303.6</ele>
        <time>2019-08-16T15:07:24Z</time>
      </trkpt>
      <trkpt lat="47.45277" lon="6.68579">
        <ele>303.6</ele>
        <time>2019-08-16T15:07:25Z</time>
      </trkpt>
      <trkpt lat="47.45273" lon="6.68574">
        <ele>303.6</ele>
        <time>2019-08-16T15:07:26Z</time>
      </trkpt>
      <trkpt lat="47.45269" lon="6.68569">
        <ele>303.6</ele>
        <time>2019-08-16T15:07:27Z</time>
      </trkpt>
      <trkpt lat="47.45265" lon="6.68565">
        <ele>303.5</ele>
        <time>2019-08-16T15:07:28Z</time>
      </trkpt>
      <trkpt lat="47.45262" lon="6.68558">
        <ele>303.5</ele>
        <time>2019-08-16T15:07:29Z</time>
      </trkpt>
      <trkpt lat="47.45258" lon="6.68554">
        <ele>303.5</ele>
        <time>2019-08-16T15:07:30Z</time>
      </trkpt>
      <trkpt lat="47.45254" lon="6.68548">
        <ele>303.5</ele>
        <time>2019-08-16T15:07:31Z</time>
      </trkpt>
      <trkpt lat="47.4525" lon="6.68542">
        <ele>303.6</ele>
        <time>2019-08-16T15:07:32Z</time>
      </trkpt>
      <trkpt lat="47.45246" lon="6.68537">
        <ele>303.6</ele>
        <time>2019-08-16T15:07:33Z</time>
      </trkpt>
      <trkpt lat="47.45244" lon="6.68531">
        <ele>303.6</ele>
        <time>2019-08-16T15:07:34Z</time>
      </trkpt>
      <trkpt lat="47.45241" lon="6.68525">
        <ele>303.6</ele>
        <time>2019-08-16T15:07:35Z</time>
      </trkpt>
      <trkpt lat="47.45237" lon="6.68519">
        <ele>303.6</ele>
        <time>2019-08-16T15:07:36Z</time>
      </trkpt>
      <trkpt lat="47.45235" lon="6.68514">
        <ele>303.6</ele>
        <time>2019-08-16T15:07:37Z</time>
      </trkpt>
      <trkpt lat="47.45232" lon="6.68509">
        <ele>303.6</ele>
        <time>2019-08-16T15:07:38Z</time>
      </trkpt>
      <trkpt lat="47.45228" lon="6.68503">
        <ele>303.6</ele>
        <time>2019-08-16T15:07:39Z</time>
      </trkpt>
      <trkpt lat="47.45225" lon="6.68497">
        <ele>303.6</ele>
        <time>2019-08-16T15:07:40Z</time>
      </trkpt>
      <trkpt lat="47.45221" lon="6.68492">
        <ele>303.5</ele>
        <time>2019-08-16T15:07:41Z</time>
      </trkpt>
      <trkpt lat="47.45217" lon="6.68488">
        <ele>303.5</ele>
        <time>2019-08-16T15:07:42Z</time>
      </trkpt>
      <trkpt lat="47.45214" lon="6.68482">
        <ele>303.5</ele>
        <time>2019-08-16T15:07:43Z</time>
      </trkpt>
      <trkpt lat="47.45211" lon="6.68477">
        <ele>303.5</ele>
        <time>2019-08-16T15:07:44Z</time>
      </trkpt>
      <trkpt lat="47.45208" lon="6.68471">
        <ele>303.5</ele>
        <time>2019-08-16T15:07:45Z</time>
      </trkpt>
      <trkpt lat="47.45205" lon="6.68466">
        <ele>303.5</ele>
        <time>2019-08-16T15:07:46Z</time>
      </trkpt>
      <trkpt lat="47.45201" lon="6.6846">
        <ele>303.4</ele>
        <time>2019-08-16T15:07:47Z</time>
      </trkpt>
      <trkpt lat="47.45198" lon="6.68454">
        <ele>303.4</ele>
        <time>2019-08-16T15:07:48Z</time>
      </trkpt>
      <trkpt lat="47.45194" lon="6.68448">
        <ele>303.4</ele>
        <time>2019-08-16T15:07:49Z</time>
      </trkpt>
      <trkpt lat="47.4519" lon="6.68442">
        <ele>303.4</ele>
        <time>2019-08-16T15:07:50Z</time>
      </trkpt>
      <trkpt lat="47.45187" lon="6.68436">
        <ele>303.4</ele>
        <time>2019-08-16T15:07:51Z</time>
      </trkpt>
      <trkpt lat="47.45184" lon="6.68431">
        <ele>303.4</ele>
        <time>2019-08-16T15:07:52Z</time>
      </trkpt>
      <trkpt lat="47.45182" lon="6.68425">
        <ele>303.3</ele>
        <time>2019-08-16T15:07:53Z</time>
      </trkpt>
      <trkpt lat="47.45178" lon="6.68419">
        <ele>303.3</ele>
        <time>2019-08-16T15:07:54Z</time>
      </trkpt>
      <trkpt lat="47.45175" lon="6.68412">
        <ele>303.3</ele>
        <time>2019-08-16T15:07:55Z</time>
      </trkpt>
      <trkpt lat="47.45172" lon="6.68404">
        <ele>303.3</ele>
        <time>2019-08-16T15:07:56Z</time>
      </trkpt>
      <trkpt lat="47.45168" lon="6.68398">
        <ele>303.3</ele>
        <time>2019-08-16T15:07:57Z</time>
      </trkpt>
      <trkpt lat="47.45165" lon="6.68392">
        <ele>303.3</ele>
        <time>2019-08-16T15:07:58Z</time>
      </trkpt>
      <trkpt lat="47.45162" lon="6.68386">
        <ele>303.3</ele>
        <time>2019-08-16T15:07:59Z</time>
      </trkpt>
      <trkpt lat="47.45159" lon="6.68379">
        <ele>303.3</ele>
        <time>2019-08-16T15:08:00Z</time>
      </trkpt>
      <trkpt lat="47.45156" lon="6.68373">
        <ele>303.3</ele>
        <time>2019-08-16T15:08:01Z</time>
      </trkpt>
      <trkpt lat="47.45154" lon="6.68366">
        <ele>303.3</ele>
        <time>2019-08-16T15:08:02Z</time>
      </trkpt>
      <trkpt lat="47.45151" lon="6.68359">
        <ele>303.2</ele>
        <time>2019-08-16T15:08:03Z</time>
      </trkpt>
      <trkpt lat="47.45148" lon="6.68353">
        <ele>303.2</ele>
        <time>2019-08-16T15:08:04Z</time>
      </trkpt>
      <trkpt lat="47.45146" lon="6.68348">
        <ele>303.2</ele>
        <time>2019-08-16T15:08:05Z</time>
      </trkpt>
      <trkpt lat="47.45144" lon="6.68343">
        <ele>303.2</ele>
        <time>2019-08-16T15:08:06Z</time>
      </trkpt>
      <trkpt lat="47.45141" lon="6.68337">
        <ele>303.2</ele>
        <time>2019-08-16T15:08:07Z</time>
      </trkpt>
      <trkpt lat="47.45139" lon="6.68331">
        <ele>303.2</ele>
        <time>2019-08-16T15:08:08Z</time>
      </trkpt>
      <trkpt lat="47.45137" lon="6.68326">
        <ele>303.2</ele>
        <time>2019-08-16T15:08:09Z</time>
      </trkpt>
      <trkpt lat="47.45134" lon="6.68319">
        <ele>303.2</ele>
        <time>2019-08-16T15:08:10Z</time>
      </trkpt>
      <trkpt lat="47.45131" lon="6.68312">
        <ele>303.2</ele>
        <time>2019-08-16T15:08:11Z</time>
      </trkpt>
      <trkpt lat="47.45129" lon="6.68306">
        <ele>303.2</ele>
        <time>2019-08-16T15:08:12Z</time>
      </trkpt>
      <trkpt lat="47.45126" lon="6.68299">
        <ele>303.2</ele>
        <time>2019-08-16T15:08:13Z</time>
      </trkpt>
      <trkpt lat="47.45122" lon="6.68295">
        <ele>303.2</ele>
        <time>2019-08-16T15:08:14Z</time>
      </trkpt>
      <trkpt lat="47.4512" lon="6.68289">
        <ele>303.2</ele>
        <time>2019-08-16T15:08:15Z</time>
      </trkpt>
      <trkpt lat="47.45118" lon="6.68284">
        <ele>303.2</ele>
        <time>2019-08-16T15:08:16Z</time>
      </trkpt>
      <trkpt lat="47.45115" lon="6.68278">
        <ele>303.2</ele>
        <time>2019-08-16T15:08:17Z</time>
      </trkpt>
      <trkpt lat="47.45113" lon="6.68272">
        <ele>303.2</ele>
        <time>2019-08-16T15:08:18Z</time>
      </trkpt>
      <trkpt lat="47.45111" lon="6.68266">
        <ele>303.2</ele>
        <time>2019-08-16T15:08:19Z</time>
      </trkpt>
      <trkpt lat="47.45109" lon="6.6826">
        <ele>303.2</ele>
        <time>2019-08-16T15:08:20Z</time>
      </trkpt>
      <trkpt lat="47.45107" lon="6.68253">
        <ele>303.2</ele>
        <time>2019-08-16T15:08:21Z</time>
      </trkpt>
      <trkpt lat="47.45106" lon="6.68244">
        <ele>303.1</ele>
        <time>2019-08-16T15:08:22Z</time>
      </trkpt>
      <trkpt lat="47.45103" lon="6.68238">
        <ele>303.1</ele>
        <time>2019-08-16T15:08:23Z</time>
      </trkpt>
      <trkpt lat="47.451" lon="6.68232">
        <ele>303.1</ele>
        <time>2019-08-16T15:08:24Z</time>
      </trkpt>
      <trkpt lat="47.45098" lon="6.68224">
        <ele>303.1</ele>
        <time>2019-08-16T15:08:25Z</time>
      </trkpt>
      <trkpt lat="47.45095" lon="6.68217">
        <ele>303.1</ele>
        <time>2019-08-16T15:08:26Z</time>
      </trkpt>
      <trkpt lat="47.45093" lon="6.68211">
        <ele>303.1</ele>
        <time>2019-08-16T15:08:27Z</time>
      </trkpt>
      <trkpt lat="47.4509" lon="6.68203">
        <ele>303.1</ele>
        <time>2019-08-16T15:08:28Z</time>
      </trkpt>
      <trkpt lat="47.45087" lon="6.68196">
        <ele>303.1</ele>
        <time>2019-08-16T15:08:29Z</time>
      </trkpt>
      <trkpt lat="47.45085" lon="6.68188">
        <ele>303</ele>
        <time>2019-08-16T15:08:30Z</time>
      </trkpt>
      <trkpt lat="47.45083" lon="6.6818">
        <ele>303</ele>
        <time>2019-08-16T15:08:31Z</time>
      </trkpt>
      <trkpt lat="47.4508" lon="6.68173">
        <ele>303</ele>
        <time>2019-08-16T15:08:32Z</time>
      </trkpt>
      <trkpt lat="47.45078" lon="6.68166">
        <ele>303</ele>
        <time>2019-08-16T15:08:33Z</time>
      </trkpt>
      <trkpt lat="47.45075" lon="6.68158">
        <ele>303</ele>
        <time>2019-08-16T15:08:34Z</time>
      </trkpt>
      <trkpt lat="47.45073" lon="6.68152">
        <ele>303</ele>
        <time>2019-08-16T15:08:35Z</time>
      </trkpt>
      <trkpt lat="47.45071" lon="6.68147">
        <ele>303</ele>
        <time>2019-08-16T15:08:36Z</time>
      </trkpt>
      <trkpt lat="47.45069" lon="6.68138">
        <ele>303</ele>
        <time>2019-08-16T15:08:37Z</time>
      </trkpt>
      <trkpt lat="47.45067" lon="6.68131">
        <ele>302.9</ele>
        <time>2019-08-16T15:08:38Z</time>
      </trkpt>
      <trkpt lat="47.45065" lon="6.68124">
        <ele>302.9</ele>
        <time>2019-08-16T15:08:39Z</time>
      </trkpt>
      <trkpt lat="47.45062" lon="6.68117">
        <ele>302.9</ele>
        <time>2019-08-16T15:08:40Z</time>
      </trkpt>
      <trkpt lat="47.4506" lon="6.68109">
        <ele>302.9</ele>
        <time>2019-08-16T15:08:41Z</time>
      </trkpt>
      <trkpt lat="47.45058" lon="6.68102">
        <ele>302.9</ele>
        <time>2019-08-16T15:08:42Z</time>
      </trkpt>
      <trkpt lat="47.45056" lon="6.68095">
        <ele>302.9</ele>
        <time>2019-08-16T15:08:43Z</time>
      </trkpt>
      <trkpt lat="47.45055" lon="6.68088">
        <ele>302.9</ele>
        <time>2019-08-16T15:08:44Z</time>
      </trkpt>
      <trkpt lat="47.45053" lon="6.68081">
        <ele>302.9</ele>
        <time>2019-08-16T15:08:45Z</time>
      </trkpt>
      <trkpt lat="47.45051" lon="6.68074">
        <ele>302.9</ele>
        <time>2019-08-16T15:08:46Z</time>
      </trkpt>
      <trkpt lat="47.45048" lon="6.68066">
        <ele>302.9</ele>
        <time>2019-08-16T15:08:47Z</time>
      </trkpt>
      <trkpt lat="47.45046" lon="6.68059">
        <ele>302.9</ele>
        <time>2019-08-16T15:08:48Z</time>
      </trkpt>
      <trkpt lat="47.45044" lon="6.68052">
        <ele>302.9</ele>
        <time>2019-08-16T15:08:49Z</time>
      </trkpt>
      <trkpt lat="47.45041" lon="6.68045">
        <ele>302.9</ele>
        <time>2019-08-16T15:08:50Z</time>
      </trkpt>
      <trkpt lat="47.4504" lon="6.68038">
        <ele>302.9</ele>
        <time>2019-08-16T15:08:51Z</time>
      </trkpt>
      <trkpt lat="47.45038" lon="6.68031">
        <ele>303</ele>
        <time>2019-08-16T15:08:52Z</time>
      </trkpt>
      <trkpt lat="47.45035" lon="6.68024">
        <ele>303</ele>
        <time>2019-08-16T15:08:53Z</time>
      </trkpt>
      <trkpt lat="47.45034" lon="6.68017">
        <ele>303</ele>
        <time>2019-08-16T15:08:54Z</time>
      </trkpt>
      <trkpt lat="47.45033" lon="6.68011">
        <ele>303</ele>
        <time>2019-08-16T15:08:55Z</time>
      </trkpt>
      <trkpt lat="47.45032" lon="6.68005">
        <ele>303</ele>
        <time>2019-08-16T15:08:56Z</time>
      </trkpt>
      <trkpt lat="47.45031" lon="6.67998">
        <ele>303</ele>
        <time>2019-08-16T15:08:57Z</time>
      </trkpt>
      <trkpt lat="47.4503" lon="6.67991">
        <ele>303.1</ele>
        <time>2019-08-16T15:08:58Z</time>
      </trkpt>
      <trkpt lat="47.4503" lon="6.67984">
        <ele>303.1</ele>
        <time>2019-08-16T15:08:59Z</time>
      </trkpt>
      <trkpt lat="47.45029" lon="6.67977">
        <ele>303.1</ele>
        <time>2019-08-16T15:09:00Z</time>
      </trkpt>
      <trkpt lat="47.45027" lon="6.67969">
        <ele>303.1</ele>
        <time>2019-08-16T15:09:01Z</time>
      </trkpt>
      <trkpt lat="47.45026" lon="6.67962">
        <ele>303.1</ele>
        <time>2019-08-16T15:09:02Z</time>
      </trkpt>
      <trkpt lat="47.45026" lon="6.67954">
        <ele>303.2</ele>
        <time>2019-08-16T15:09:03Z</time>
      </trkpt>
      <trkpt lat="47.45025" lon="6.67947">
        <ele>303.2</ele>
        <time>2019-08-16T15:09:04Z</time>
      </trkpt>
      <trkpt lat="47.45025" lon="6.6794">
        <ele>303.2</ele>
        <time>2019-08-16T15:09:05Z</time>
      </trkpt>
      <trkpt lat="47.45024" lon="6.67933">
        <ele>303.2</ele>
        <time>2019-08-16T15:09:06Z</time>
      </trkpt>
      <trkpt lat="47.45023" lon="6.67926">
        <ele>303.2</ele>
        <time>2019-08-16T15:09:07Z</time>
      </trkpt>
      <trkpt lat="47.45022" lon="6.67919">
        <ele>303.2</ele>
        <time>2019-08-16T15:09:08Z</time>
      </trkpt>
      <trkpt lat="47.45021" lon="6.67912">
        <ele>303.2</ele>
        <time>2019-08-16T15:09:09Z</time>
      </trkpt>
      <trkpt lat="47.45019" lon="6.67904">
        <ele>303.2</ele>
        <time>2019-08-16T15:09:10Z</time>
      </trkpt>
      <trkpt lat="47.45018" lon="6.67897">
        <ele>303.2</ele>
        <time>2019-08-16T15:09:11Z</time>
      </trkpt>
      <trkpt lat="47.45016" lon="6.6789">
        <ele>303.2</ele>
        <time>2019-08-16T15:09:12Z</time>
      </trkpt>
      <trkpt lat="47.45015" lon="6.67883">
        <ele>303.2</ele>
        <time>2019-08-16T15:09:13Z</time>
      </trkpt>
      <trkpt lat="47.45014" lon="6.67876">
        <ele>303.2</ele>
        <time>2019-08-16T15:09:14Z</time>
      </trkpt>
      <trkpt lat="47.45014" lon="6.67868">
        <ele>303.2</ele>
        <time>2019-08-16T15:09:15Z</time>
      </trkpt>
      <trkpt lat="47.45013" lon="6.6786">
        <ele>303.2</ele>
        <time>2019-08-16T15:09:16Z</time>
      </trkpt>
      <trkpt lat="47.45012" lon="6.67852">
        <ele>303.2</ele>
        <time>2019-08-16T15:09:17Z</time>
      </trkpt>
      <trkpt lat="47.45012" lon="6.67844">
        <ele>303.2</ele>
        <time>2019-08-16T15:09:18Z</time>
      </trkpt>
      <trkpt lat="47.45011" lon="6.67839">
        <ele>303.2</ele>
        <time>2019-08-16T15:09:19Z</time>
      </trkpt>
      <trkpt lat="47.4501" lon="6.67832">
        <ele>303.2</ele>
        <time>2019-08-16T15:09:20Z</time>
      </trkpt>
      <trkpt lat="47.45008" lon="6.67824">
        <ele>303.1</ele>
        <time>2019-08-16T15:09:21Z</time>
      </trkpt>
      <trkpt lat="47.45007" lon="6.67816">
        <ele>303.1</ele>
        <time>2019-08-16T15:09:22Z</time>
      </trkpt>
      <trkpt lat="47.45006" lon="6.67809">
        <ele>303.1</ele>
        <time>2019-08-16T15:09:23Z</time>
      </trkpt>
      <trkpt lat="47.45005" lon="6.678">
        <ele>303</ele>
        <time>2019-08-16T15:09:24Z</time>
      </trkpt>
      <trkpt lat="47.45005" lon="6.67792">
        <ele>303</ele>
        <time>2019-08-16T15:09:25Z</time>
      </trkpt>
      <trkpt lat="47.45003" lon="6.67786">
        <ele>303</ele>
        <time>2019-08-16T15:09:26Z</time>
      </trkpt>
      <trkpt lat="47.45003" lon="6.67778">
        <ele>302.9</ele>
        <time>2019-08-16T15:09:27Z</time>
      </trkpt>
      <trkpt lat="47.45002" lon="6.67771">
        <ele>302.9</ele>
        <time>2019-08-16T15:09:28Z</time>
      </trkpt>
      <trkpt lat="47.45002" lon="6.67765">
        <ele>302.9</ele>
        <time>2019-08-16T15:09:29Z</time>
      </trkpt>
      <trkpt lat="47.45001" lon="6.67757">
        <ele>302.9</ele>
        <time>2019-08-16T15:09:30Z</time>
      </trkpt>
      <trkpt lat="47.45001" lon="6.6775">
        <ele>302.8</ele>
        <time>2019-08-16T15:09:31Z</time>
      </trkpt>
      <trkpt lat="47.45001" lon="6.67743">
        <ele>302.8</ele>
        <time>2019-08-16T15:09:32Z</time>
      </trkpt>
      <trkpt lat="47.45001" lon="6.67735">
        <ele>302.8</ele>
        <time>2019-08-16T15:09:33Z</time>
      </trkpt>
      <trkpt lat="47.45001" lon="6.67728">
        <ele>302.8</ele>
        <time>2019-08-16T15:09:34Z</time>
      </trkpt>
      <trkpt lat="47.45001" lon="6.67722">
        <ele>302.7</ele>
        <time>2019-08-16T15:09:35Z</time>
      </trkpt>
      <trkpt lat="47.45001" lon="6.67715">
        <ele>302.7</ele>
        <time>2019-08-16T15:09:36Z</time>
      </trkpt>
      <trkpt lat="47.45001" lon="6.67708">
        <ele>302.7</ele>
        <time>2019-08-16T15:09:37Z</time>
      </trkpt>
      <trkpt lat="47.45001" lon="6.67701">
        <ele>302.7</ele>
        <time>2019-08-16T15:09:38Z</time>
      </trkpt>
      <trkpt lat="47.45" lon="6.67694">
        <ele>302.7</ele>
        <time>2019-08-16T15:09:39Z</time>
      </trkpt>
      <trkpt lat="47.44999" lon="6.67688">
        <ele>302.7</ele>
        <time>2019-08-16T15:09:40Z</time>
      </trkpt>
      <trkpt lat="47.44999" lon="6.67681">
        <ele>302.7</ele>
        <time>2019-08-16T15:09:41Z</time>
      </trkpt>
      <trkpt lat="47.44998" lon="6.67673">
        <ele>302.6</ele>
        <time>2019-08-16T15:09:42Z</time>
      </trkpt>
      <trkpt lat="47.44997" lon="6.67665">
        <ele>302.6</ele>
        <time>2019-08-16T15:09:43Z</time>
      </trkpt>
      <trkpt lat="47.44996" lon="6.67657">
        <ele>302.6</ele>
        <time>2019-08-16T15:09:44Z</time>
      </trkpt>
      <trkpt lat="47.44996" lon="6.67649">
        <ele>302.6</ele>
        <time>2019-08-16T15:09:45Z</time>
      </trkpt>
      <trkpt lat="47.44995" lon="6.67641">
        <ele>302.6</ele>
        <time>2019-08-16T15:09:46Z</time>
      </trkpt>
      <trkpt lat="47.44994" lon="6.67633">
        <ele>302.6</ele>
        <time>2019-08-16T15:09:47Z</time>
      </trkpt>
      <trkpt lat="47.44994" lon="6.67626">
        <ele>302.5</ele>
        <time>2019-08-16T15:09:48Z</time>
      </trkpt>
      <trkpt lat="47.44994" lon="6.67619">
        <ele>302.5</ele>
        <time>2019-08-16T15:09:49Z</time>
      </trkpt>
      <trkpt lat="47.44994" lon="6.67613">
        <ele>302.5</ele>
        <time>2019-08-16T15:09:50Z</time>
      </trkpt>
      <trkpt lat="47.44994" lon="6.67606">
        <ele>302.5</ele>
        <time>2019-08-16T15:09:51Z</time>
      </trkpt>
      <trkpt lat="47.44994" lon="6.67599">
        <ele>302.5</ele>
        <time>2019-08-16T15:09:52Z</time>
      </trkpt>
      <trkpt lat="47.44993" lon="6.67592">
        <ele>302.4</ele>
        <time>2019-08-16T15:09:53Z</time>
      </trkpt>
      <trkpt lat="47.44993" lon="6.67585">
        <ele>302.4</ele>
        <time>2019-08-16T15:09:54Z</time>
      </trkpt>
      <trkpt lat="47.44993" lon="6.67577">
        <ele>302.4</ele>
        <time>2019-08-16T15:09:55Z</time>
      </trkpt>
      <trkpt lat="47.44993" lon="6.6757">
        <ele>302.3</ele>
        <time>2019-08-16T15:09:56Z</time>
      </trkpt>
      <trkpt lat="47.44993" lon="6.67562">
        <ele>302.2</ele>
        <time>2019-08-16T15:09:57Z</time>
      </trkpt>
      <trkpt lat="47.44993" lon="6.67555">
        <ele>302.2</ele>
        <time>2019-08-16T15:09:58Z</time>
      </trkpt>
      <trkpt lat="47.44993" lon="6.67548">
        <ele>302.1</ele>
        <time>2019-08-16T15:09:59Z</time>
      </trkpt>
      <trkpt lat="47.44992" lon="6.67541">
        <ele>302.1</ele>
        <time>2019-08-16T15:10:00Z</time>
      </trkpt>
      <trkpt lat="47.44991" lon="6.67535">
        <ele>302</ele>
        <time>2019-08-16T15:10:01Z</time>
      </trkpt>
      <trkpt lat="47.4499" lon="6.67529">
        <ele>301.9</ele>
        <time>2019-08-16T15:10:02Z</time>
      </trkpt>
      <trkpt lat="47.44989" lon="6.67522">
        <ele>301.8</ele>
        <time>2019-08-16T15:10:03Z</time>
      </trkpt>
      <trkpt lat="47.44988" lon="6.67516">
        <ele>301.7</ele>
        <time>2019-08-16T15:10:04Z</time>
      </trkpt>
      <trkpt lat="47.44988" lon="6.67509">
        <ele>301.6</ele>
        <time>2019-08-16T15:10:05Z</time>
      </trkpt>
      <trkpt lat="47.44988" lon="6.67501">
        <ele>301.5</ele>
        <time>2019-08-16T15:10:06Z</time>
      </trkpt>
      <trkpt lat="47.44987" lon="6.67493">
        <ele>301.3</ele>
        <time>2019-08-16T15:10:07Z</time>
      </trkpt>
      <trkpt lat="47.44987" lon="6.67483">
        <ele>301.2</ele>
        <time>2019-08-16T15:10:08Z</time>
      </trkpt>
      <trkpt lat="47.44986" lon="6.67475">
        <ele>301.1</ele>
        <time>2019-08-16T15:10:09Z</time>
      </trkpt>
      <trkpt lat="47.44985" lon="6.67466">
        <ele>300.9</ele>
        <time>2019-08-16T15:10:10Z</time>
      </trkpt>
      <trkpt lat="47.44985" lon="6.67455">
        <ele>300.8</ele>
        <time>2019-08-16T15:10:11Z</time>
      </trkpt>
      <trkpt lat="47.44984" lon="6.67447">
        <ele>300.7</ele>
        <time>2019-08-16T15:10:12Z</time>
      </trkpt>
      <trkpt lat="47.44983" lon="6.6744">
        <ele>300.6</ele>
        <time>2019-08-16T15:10:13Z</time>
      </trkpt>
      <trkpt lat="47.44982" lon="6.6743">
        <ele>300.5</ele>
        <time>2019-08-16T15:10:14Z</time>
      </trkpt>
      <trkpt lat="47.44981" lon="6.67421">
        <ele>300.4</ele>
        <time>2019-08-16T15:10:15Z</time>
      </trkpt>
      <trkpt lat="47.4498" lon="6.67412">
        <ele>300.4</ele>
        <time>2019-08-16T15:10:16Z</time>
      </trkpt>
      <trkpt lat="47.44979" lon="6.67404">
        <ele>300.3</ele>
        <time>2019-08-16T15:10:17Z</time>
      </trkpt>
      <trkpt lat="47.44979" lon="6.67398">
        <ele>300.3</ele>
        <time>2019-08-16T15:10:18Z</time>
      </trkpt>
      <trkpt lat="47.44978" lon="6.67391">
        <ele>300.3</ele>
        <time>2019-08-16T15:10:19Z</time>
      </trkpt>
      <trkpt lat="47.44977" lon="6.67384">
        <ele>300.2</ele>
        <time>2019-08-16T15:10:20Z</time>
      </trkpt>
      <trkpt lat="47.44977" lon="6.67375">
        <ele>300.2</ele>
        <time>2019-08-16T15:10:21Z</time>
      </trkpt>
      <trkpt lat="47.44976" lon="6.67367">
        <ele>300.2</ele>
        <time>2019-08-16T15:10:22Z</time>
      </trkpt>
      <trkpt lat="47.44975" lon="6.67358">
        <ele>300.1</ele>
        <time>2019-08-16T15:10:23Z</time>
      </trkpt>
      <trkpt lat="47.44975" lon="6.6735">
        <ele>300.1</ele>
        <time>2019-08-16T15:10:24Z</time>
      </trkpt>
      <trkpt lat="47.44974" lon="6.67342">
        <ele>300.1</ele>
        <time>2019-08-16T15:10:25Z</time>
      </trkpt>
      <trkpt lat="47.44974" lon="6.67334">
        <ele>300.1</ele>
        <time>2019-08-16T15:10:26Z</time>
      </trkpt>
      <trkpt lat="47.44973" lon="6.67327">
        <ele>300.1</ele>
        <time>2019-08-16T15:10:27Z</time>
      </trkpt>
      <trkpt lat="47.44972" lon="6.67321">
        <ele>300.1</ele>
        <time>2019-08-16T15:10:28Z</time>
      </trkpt>
      <trkpt lat="47.44972" lon="6.67314">
        <ele>300.1</ele>
        <time>2019-08-16T15:10:29Z</time>
      </trkpt>
      <trkpt lat="47.44972" lon="6.67307">
        <ele>300</ele>
        <time>2019-08-16T15:10:30Z</time>
      </trkpt>
      <trkpt lat="47.44971" lon="6.673">
        <ele>300</ele>
        <time>2019-08-16T15:10:31Z</time>
      </trkpt>
      <trkpt lat="47.44971" lon="6.67292">
        <ele>300</ele>
        <time>2019-08-16T15:10:32Z</time>
      </trkpt>
      <trkpt lat="47.4497" lon="6.67283">
        <ele>300</ele>
        <time>2019-08-16T15:10:33Z</time>
      </trkpt>
      <trkpt lat="47.4497" lon="6.67274">
        <ele>300</ele>
        <time>2019-08-16T15:10:34Z</time>
      </trkpt>
      <trkpt lat="47.44968" lon="6.67268">
        <ele>300</ele>
        <time>2019-08-16T15:10:35Z</time>
      </trkpt>
      <trkpt lat="47.44968" lon="6.6726">
        <ele>300</ele>
        <time>2019-08-16T15:10:36Z</time>
      </trkpt>
      <trkpt lat="47.44967" lon="6.67253">
        <ele>300</ele>
        <time>2019-08-16T15:10:37Z</time>
      </trkpt>
      <trkpt lat="47.44967" lon="6.67244">
        <ele>300</ele>
        <time>2019-08-16T15:10:38Z</time>
      </trkpt>
      <trkpt lat="47.44967" lon="6.67237">
        <ele>300</ele>
        <time>2019-08-16T15:10:39Z</time>
      </trkpt>
      <trkpt lat="47.44966" lon="6.6723">
        <ele>300</ele>
        <time>2019-08-16T15:10:40Z</time>
      </trkpt>
      <trkpt lat="47.44965" lon="6.67222">
        <ele>300</ele>
        <time>2019-08-16T15:10:41Z</time>
      </trkpt>
      <trkpt lat="47.44965" lon="6.67214">
        <ele>300</ele>
        <time>2019-08-16T15:10:42Z</time>
      </trkpt>
      <trkpt lat="47.44965" lon="6.67205">
        <ele>300</ele>
        <time>2019-08-16T15:10:43Z</time>
      </trkpt>
      <trkpt lat="47.44965" lon="6.67197">
        <ele>299.9</ele>
        <time>2019-08-16T15:10:44Z</time>
      </trkpt>
      <trkpt lat="47.44965" lon="6.67191">
        <ele>299.9</ele>
        <time>2019-08-16T15:10:45Z</time>
      </trkpt>
      <trkpt lat="47.44965" lon="6.67184">
        <ele>299.9</ele>
        <time>2019-08-16T15:10:46Z</time>
      </trkpt>
      <trkpt lat="47.44965" lon="6.67179">
        <ele>299.9</ele>
        <time>2019-08-16T15:10:47Z</time>
      </trkpt>
      <trkpt lat="47.44965" lon="6.6717">
        <ele>299.9</ele>
        <time>2019-08-16T15:10:48Z</time>
      </trkpt>
      <trkpt lat="47.44964" lon="6.67162">
        <ele>299.9</ele>
        <time>2019-08-16T15:10:49Z</time>
      </trkpt>
      <trkpt lat="47.44963" lon="6.67156">
        <ele>299.9</ele>
        <time>2019-08-16T15:10:50Z</time>
      </trkpt>
      <trkpt lat="47.44963" lon="6.67149">
        <ele>299.9</ele>
        <time>2019-08-16T15:10:51Z</time>
      </trkpt>
      <trkpt lat="47.44962" lon="6.67143">
        <ele>299.9</ele>
        <time>2019-08-16T15:10:52Z</time>
      </trkpt>
      <trkpt lat="47.44961" lon="6.67136">
        <ele>299.9</ele>
        <time>2019-08-16T15:10:53Z</time>
      </trkpt>
      <trkpt lat="47.4496" lon="6.67129">
        <ele>299.9</ele>
        <time>2019-08-16T15:10:54Z</time>
      </trkpt>
      <trkpt lat="47.44959" lon="6.67122">
        <ele>299.9</ele>
        <time>2019-08-16T15:10:55Z</time>
      </trkpt>
      <trkpt lat="47.44957" lon="6.67114">
        <ele>299.9</ele>
        <time>2019-08-16T15:10:56Z</time>
      </trkpt>
      <trkpt lat="47.44956" lon="6.67107">
        <ele>299.9</ele>
        <time>2019-08-16T15:10:57Z</time>
      </trkpt>
      <trkpt lat="47.44956" lon="6.671">
        <ele>299.9</ele>
        <time>2019-08-16T15:10:58Z</time>
      </trkpt>
      <trkpt lat="47.44955" lon="6.67093">
        <ele>299.9</ele>
        <time>2019-08-16T15:10:59Z</time>
      </trkpt>
      <trkpt lat="47.44953" lon="6.67089">
        <ele>299.9</ele>
        <time>2019-08-16T15:11:00Z</time>
      </trkpt>
      <trkpt lat="47.44953" lon="6.6708">
        <ele>299.9</ele>
        <time>2019-08-16T15:11:01Z</time>
      </trkpt>
      <trkpt lat="47.44953" lon="6.67074">
        <ele>299.8</ele>
        <time>2019-08-16T15:11:02Z</time>
      </trkpt>
      <trkpt lat="47.44952" lon="6.67067">
        <ele>299.8</ele>
        <time>2019-08-16T15:11:03Z</time>
      </trkpt>
      <trkpt lat="47.44952" lon="6.6706">
        <ele>299.8</ele>
        <time>2019-08-16T15:11:04Z</time>
      </trkpt>
      <trkpt lat="47.44953" lon="6.67053">
        <ele>299.8</ele>
        <time>2019-08-16T15:11:05Z</time>
      </trkpt>
      <trkpt lat="47.44953" lon="6.67046">
        <ele>299.8</ele>
        <time>2019-08-16T15:11:06Z</time>
      </trkpt>
      <trkpt lat="47.44953" lon="6.67039">
        <ele>299.8</ele>
        <time>2019-08-16T15:11:07Z</time>
      </trkpt>
      <trkpt lat="47.44952" lon="6.67032">
        <ele>299.7</ele>
        <time>2019-08-16T15:11:08Z</time>
      </trkpt>
      <trkpt lat="47.44949" lon="6.67022">
        <ele>299.7</ele>
        <time>2019-08-16T15:11:10Z</time>
      </trkpt>
      <trkpt lat="47.44949" lon="6.67016">
        <ele>299.7</ele>
        <time>2019-08-16T15:11:11Z</time>
      </trkpt>
      <trkpt lat="47.44948" lon="6.67006">
        <ele>299.7</ele>
        <time>2019-08-16T15:11:12Z</time>
      </trkpt>
      <trkpt lat="47.44948" lon="6.66999">
        <ele>299.6</ele>
        <time>2019-08-16T15:11:13Z</time>
      </trkpt>
      <trkpt lat="47.44947" lon="6.66992">
        <ele>299.6</ele>
        <time>2019-08-16T15:11:14Z</time>
      </trkpt>
      <trkpt lat="47.44947" lon="6.66982">
        <ele>299.6</ele>
        <time>2019-08-16T15:11:15Z</time>
      </trkpt>
      <trkpt lat="47.44947" lon="6.66976">
        <ele>299.6</ele>
        <time>2019-08-16T15:11:16Z</time>
      </trkpt>
      <trkpt lat="47.44947" lon="6.66968">
        <ele>299.6</ele>
        <time>2019-08-16T15:11:17Z</time>
      </trkpt>
      <trkpt lat="47.44946" lon="6.66962">
        <ele>299.5</ele>
        <time>2019-08-16T15:11:18Z</time>
      </trkpt>
      <trkpt lat="47.44945" lon="6.66955">
        <ele>299.5</ele>
        <time>2019-08-16T15:11:19Z</time>
      </trkpt>
      <trkpt lat="47.44945" lon="6.66947">
        <ele>299.5</ele>
        <time>2019-08-16T15:11:20Z</time>
      </trkpt>
      <trkpt lat="47.44945" lon="6.66939">
        <ele>299.5</ele>
        <time>2019-08-16T15:11:21Z</time>
      </trkpt>
      <trkpt lat="47.44944" lon="6.66933">
        <ele>299.5</ele>
        <time>2019-08-16T15:11:22Z</time>
      </trkpt>
      <trkpt lat="47.44944" lon="6.66927">
        <ele>299.5</ele>
        <time>2019-08-16T15:11:23Z</time>
      </trkpt>
      <trkpt lat="47.44943" lon="6.6692">
        <ele>299.5</ele>
        <time>2019-08-16T15:11:24Z</time>
      </trkpt>
      <trkpt lat="47.44943" lon="6.66912">
        <ele>299.5</ele>
        <time>2019-08-16T15:11:25Z</time>
      </trkpt>
      <trkpt lat="47.44942" lon="6.66905">
        <ele>299.5</ele>
        <time>2019-08-16T15:11:26Z</time>
      </trkpt>
      <trkpt lat="47.44941" lon="6.66898">
        <ele>299.5</ele>
        <time>2019-08-16T15:11:27Z</time>
      </trkpt>
      <trkpt lat="47.44941" lon="6.66892">
        <ele>299.5</ele>
        <time>2019-08-16T15:11:28Z</time>
      </trkpt>
      <trkpt lat="47.4494" lon="6.66884">
        <ele>299.5</ele>
        <time>2019-08-16T15:11:29Z</time>
      </trkpt>
      <trkpt lat="47.44939" lon="6.66877">
        <ele>299.5</ele>
        <time>2019-08-16T15:11:30Z</time>
      </trkpt>
      <trkpt lat="47.44938" lon="6.66869">
        <ele>299.5</ele>
        <time>2019-08-16T15:11:31Z</time>
      </trkpt>
      <trkpt lat="47.44937" lon="6.66862">
        <ele>299.5</ele>
        <time>2019-08-16T15:11:32Z</time>
      </trkpt>
      <trkpt lat="47.44937" lon="6.66855">
        <ele>299.5</ele>
        <time>2019-08-16T15:11:33Z</time>
      </trkpt>
      <trkpt lat="47.44936" lon="6.66849">
        <ele>299.5</ele>
        <time>2019-08-16T15:11:34Z</time>
      </trkpt>
      <trkpt lat="47.44934" lon="6.66842">
        <ele>299.5</ele>
        <time>2019-08-16T15:11:35Z</time>
      </trkpt>
      <trkpt lat="47.44933" lon="6.66835">
        <ele>299.5</ele>
        <time>2019-08-16T15:11:36Z</time>
      </trkpt>
      <trkpt lat="47.44932" lon="6.66827">
        <ele>299.5</ele>
        <time>2019-08-16T15:11:37Z</time>
      </trkpt>
      <trkpt lat="47.44931" lon="6.66821">
        <ele>299.5</ele>
        <time>2019-08-16T15:11:38Z</time>
      </trkpt>
      <trkpt lat="47.4493" lon="6.66813">
        <ele>299.5</ele>
        <time>2019-08-16T15:11:39Z</time>
      </trkpt>
      <trkpt lat="47.44929" lon="6.66806">
        <ele>299.5</ele>
        <time>2019-08-16T15:11:40Z</time>
      </trkpt>
      <trkpt lat="47.44928" lon="6.66798">
        <ele>299.5</ele>
        <time>2019-08-16T15:11:41Z</time>
      </trkpt>
      <trkpt lat="47.44926" lon="6.6679">
        <ele>299.5</ele>
        <time>2019-08-16T15:11:42Z</time>
      </trkpt>
      <trkpt lat="47.44925" lon="6.66784">
        <ele>299.5</ele>
        <time>2019-08-16T15:11:43Z</time>
      </trkpt>
      <trkpt lat="47.44924" lon="6.66773">
        <ele>299.5</ele>
        <time>2019-08-16T15:11:44Z</time>
      </trkpt>
      <trkpt lat="47.44923" lon="6.66766">
        <ele>299.5</ele>
        <time>2019-08-16T15:11:45Z</time>
      </trkpt>
      <trkpt lat="47.44922" lon="6.66759">
        <ele>299.6</ele>
        <time>2019-08-16T15:11:46Z</time>
      </trkpt>
      <trkpt lat="47.44922" lon="6.66754">
        <ele>299.6</ele>
        <time>2019-08-16T15:11:47Z</time>
      </trkpt>
      <trkpt lat="47.44922" lon="6.66745">
        <ele>299.6</ele>
        <time>2019-08-16T15:11:48Z</time>
      </trkpt>
      <trkpt lat="47.44921" lon="6.6674">
        <ele>299.6</ele>
        <time>2019-08-16T15:11:49Z</time>
      </trkpt>
      <trkpt lat="47.44922" lon="6.66734">
        <ele>299.6</ele>
        <time>2019-08-16T15:11:50Z</time>
      </trkpt>
      <trkpt lat="47.44923" lon="6.66726">
        <ele>299.6</ele>
        <time>2019-08-16T15:11:51Z</time>
      </trkpt>
      <trkpt lat="47.44923" lon="6.66719">
        <ele>299.6</ele>
        <time>2019-08-16T15:11:52Z</time>
      </trkpt>
      <trkpt lat="47.44923" lon="6.66711">
        <ele>299.6</ele>
        <time>2019-08-16T15:11:53Z</time>
      </trkpt>
      <trkpt lat="47.44924" lon="6.66706">
        <ele>299.6</ele>
        <time>2019-08-16T15:11:54Z</time>
      </trkpt>
      <trkpt lat="47.44925" lon="6.66699">
        <ele>299.6</ele>
        <time>2019-08-16T15:11:55Z</time>
      </trkpt>
      <trkpt lat="47.44925" lon="6.66693">
        <ele>299.6</ele>
        <time>2019-08-16T15:11:56Z</time>
      </trkpt>
      <trkpt lat="47.44925" lon="6.66686">
        <ele>299.6</ele>
        <time>2019-08-16T15:11:57Z</time>
      </trkpt>
      <trkpt lat="47.44925" lon="6.66679">
        <ele>299.6</ele>
        <time>2019-08-16T15:11:58Z</time>
      </trkpt>
      <trkpt lat="47.44924" lon="6.66672">
        <ele>299.6</ele>
        <time>2019-08-16T15:11:59Z</time>
      </trkpt>
      <trkpt lat="47.44924" lon="6.66664">
        <ele>299.6</ele>
        <time>2019-08-16T15:12:00Z</time>
      </trkpt>
      <trkpt lat="47.44924" lon="6.66656">
        <ele>299.6</ele>
        <time>2019-08-16T15:12:01Z</time>
      </trkpt>
      <trkpt lat="47.44923" lon="6.66649">
        <ele>299.6</ele>
        <time>2019-08-16T15:12:02Z</time>
      </trkpt>
      <trkpt lat="47.44923" lon="6.6664">
        <ele>299.6</ele>
        <time>2019-08-16T15:12:03Z</time>
      </trkpt>
      <trkpt lat="47.44922" lon="6.66636">
        <ele>299.6</ele>
        <time>2019-08-16T15:12:04Z</time>
      </trkpt>
      <trkpt lat="47.44921" lon="6.66629">
        <ele>299.6</ele>
        <time>2019-08-16T15:12:05Z</time>
      </trkpt>
      <trkpt lat="47.4492" lon="6.6662">
        <ele>299.6</ele>
        <time>2019-08-16T15:12:06Z</time>
      </trkpt>
      <trkpt lat="47.44919" lon="6.66612">
        <ele>299.6</ele>
        <time>2019-08-16T15:12:07Z</time>
      </trkpt>
      <trkpt lat="47.44918" lon="6.66605">
        <ele>299.6</ele>
        <time>2019-08-16T15:12:08Z</time>
      </trkpt>
      <trkpt lat="47.44918" lon="6.66598">
        <ele>299.6</ele>
        <time>2019-08-16T15:12:09Z</time>
      </trkpt>
      <trkpt lat="47.44917" lon="6.6659">
        <ele>299.6</ele>
        <time>2019-08-16T15:12:10Z</time>
      </trkpt>
      <trkpt lat="47.44917" lon="6.66581">
        <ele>299.6</ele>
        <time>2019-08-16T15:12:11Z</time>
      </trkpt>
      <trkpt lat="47.44916" lon="6.66575">
        <ele>299.6</ele>
        <time>2019-08-16T15:12:12Z</time>
      </trkpt>
      <trkpt lat="47.44915" lon="6.66568">
        <ele>299.6</ele>
        <time>2019-08-16T15:12:13Z</time>
      </trkpt>
      <trkpt lat="47.44915" lon="6.6656">
        <ele>299.6</ele>
        <time>2019-08-16T15:12:14Z</time>
      </trkpt>
      <trkpt lat="47.44914" lon="6.66552">
        <ele>299.6</ele>
        <time>2019-08-16T15:12:15Z</time>
      </trkpt>
      <trkpt lat="47.44914" lon="6.66546">
        <ele>299.6</ele>
        <time>2019-08-16T15:12:16Z</time>
      </trkpt>
      <trkpt lat="47.44913" lon="6.66539">
        <ele>299.6</ele>
        <time>2019-08-16T15:12:17Z</time>
      </trkpt>
      <trkpt lat="47.44912" lon="6.66532">
        <ele>299.6</ele>
        <time>2019-08-16T15:12:18Z</time>
      </trkpt>
      <trkpt lat="47.44911" lon="6.66526">
        <ele>299.5</ele>
        <time>2019-08-16T15:12:19Z</time>
      </trkpt>
      <trkpt lat="47.4491" lon="6.66519">
        <ele>299.5</ele>
        <time>2019-08-16T15:12:20Z</time>
      </trkpt>
      <trkpt lat="47.44909" lon="6.66512">
        <ele>299.5</ele>
        <time>2019-08-16T15:12:21Z</time>
      </trkpt>
      <trkpt lat="47.44907" lon="6.66502">
        <ele>299.5</ele>
        <time>2019-08-16T15:12:22Z</time>
      </trkpt>
      <trkpt lat="47.44906" lon="6.66495">
        <ele>299.5</ele>
        <time>2019-08-16T15:12:23Z</time>
      </trkpt>
      <trkpt lat="47.44906" lon="6.66489">
        <ele>299.5</ele>
        <time>2019-08-16T15:12:24Z</time>
      </trkpt>
      <trkpt lat="47.44905" lon="6.66482">
        <ele>299.5</ele>
        <time>2019-08-16T15:12:25Z</time>
      </trkpt>
      <trkpt lat="47.44905" lon="6.66475">
        <ele>299.5</ele>
        <time>2019-08-16T15:12:26Z</time>
      </trkpt>
      <trkpt lat="47.44905" lon="6.66468">
        <ele>299.5</ele>
        <time>2019-08-16T15:12:27Z</time>
      </trkpt>
      <trkpt lat="47.44903" lon="6.66462">
        <ele>299.5</ele>
        <time>2019-08-16T15:12:28Z</time>
      </trkpt>
      <trkpt lat="47.44902" lon="6.66455">
        <ele>299.5</ele>
        <time>2019-08-16T15:12:29Z</time>
      </trkpt>
      <trkpt lat="47.44901" lon="6.66447">
        <ele>299.5</ele>
        <time>2019-08-16T15:12:30Z</time>
      </trkpt>
      <trkpt lat="47.44899" lon="6.66439">
        <ele>299.5</ele>
        <time>2019-08-16T15:12:31Z</time>
      </trkpt>
      <trkpt lat="47.44898" lon="6.66431">
        <ele>299.5</ele>
        <time>2019-08-16T15:12:32Z</time>
      </trkpt>
      <trkpt lat="47.44897" lon="6.66424">
        <ele>299.5</ele>
        <time>2019-08-16T15:12:33Z</time>
      </trkpt>
      <trkpt lat="47.44896" lon="6.66417">
        <ele>299.5</ele>
        <time>2019-08-16T15:12:34Z</time>
      </trkpt>
      <trkpt lat="47.44895" lon="6.66411">
        <ele>299.5</ele>
        <time>2019-08-16T15:12:35Z</time>
      </trkpt>
      <trkpt lat="47.44895" lon="6.66403">
        <ele>299.5</ele>
        <time>2019-08-16T15:12:36Z</time>
      </trkpt>
      <trkpt lat="47.44894" lon="6.66396">
        <ele>299.5</ele>
        <time>2019-08-16T15:12:37Z</time>
      </trkpt>
      <trkpt lat="47.44893" lon="6.66388">
        <ele>299.4</ele>
        <time>2019-08-16T15:12:38Z</time>
      </trkpt>
      <trkpt lat="47.44892" lon="6.6638">
        <ele>299.4</ele>
        <time>2019-08-16T15:12:39Z</time>
      </trkpt>
      <trkpt lat="47.44891" lon="6.66373">
        <ele>299.4</ele>
        <time>2019-08-16T15:12:40Z</time>
      </trkpt>
      <trkpt lat="47.4489" lon="6.66367">
        <ele>299.4</ele>
        <time>2019-08-16T15:12:41Z</time>
      </trkpt>
      <trkpt lat="47.4489" lon="6.6636">
        <ele>299.4</ele>
        <time>2019-08-16T15:12:42Z</time>
      </trkpt>
      <trkpt lat="47.44889" lon="6.66354">
        <ele>299.4</ele>
        <time>2019-08-16T15:12:43Z</time>
      </trkpt>
      <trkpt lat="47.44889" lon="6.66348">
        <ele>299.4</ele>
        <time>2019-08-16T15:12:44Z</time>
      </trkpt>
      <trkpt lat="47.44889" lon="6.66341">
        <ele>299.3</ele>
        <time>2019-08-16T15:12:45Z</time>
      </trkpt>
      <trkpt lat="47.44888" lon="6.66333">
        <ele>299.3</ele>
        <time>2019-08-16T15:12:46Z</time>
      </trkpt>
      <trkpt lat="47.44887" lon="6.66324">
        <ele>299.3</ele>
        <time>2019-08-16T15:12:47Z</time>
      </trkpt>
      <trkpt lat="47.44887" lon="6.66316">
        <ele>299.3</ele>
        <time>2019-08-16T15:12:48Z</time>
      </trkpt>
      <trkpt lat="47.44886" lon="6.66309">
        <ele>299.2</ele>
        <time>2019-08-16T15:12:49Z</time>
      </trkpt>
      <trkpt lat="47.44885" lon="6.66303">
        <ele>299.2</ele>
        <time>2019-08-16T15:12:50Z</time>
      </trkpt>
      <trkpt lat="47.44884" lon="6.66297">
        <ele>299.2</ele>
        <time>2019-08-16T15:12:51Z</time>
      </trkpt>
      <trkpt lat="47.44882" lon="6.66289">
        <ele>299.2</ele>
        <time>2019-08-16T15:12:52Z</time>
      </trkpt>
      <trkpt lat="47.44882" lon="6.66281">
        <ele>299.2</ele>
        <time>2019-08-16T15:12:53Z</time>
      </trkpt>
      <trkpt lat="47.4488" lon="6.66273">
        <ele>299.2</ele>
        <time>2019-08-16T15:12:54Z</time>
      </trkpt>
      <trkpt lat="47.44879" lon="6.66265">
        <ele>299.2</ele>
        <time>2019-08-16T15:12:55Z</time>
      </trkpt>
      <trkpt lat="47.44879" lon="6.66257">
        <ele>299.2</ele>
        <time>2019-08-16T15:12:56Z</time>
      </trkpt>
      <trkpt lat="47.44879" lon="6.66252">
        <ele>299.2</ele>
        <time>2019-08-16T15:12:57Z</time>
      </trkpt>
      <trkpt lat="47.4488" lon="6.66246">
        <ele>299.2</ele>
        <time>2019-08-16T15:12:58Z</time>
      </trkpt>
      <trkpt lat="47.4488" lon="6.66239">
        <ele>299.2</ele>
        <time>2019-08-16T15:12:59Z</time>
      </trkpt>
      <trkpt lat="47.4488" lon="6.66233">
        <ele>299.2</ele>
        <time>2019-08-16T15:13:00Z</time>
      </trkpt>
      <trkpt lat="47.4488" lon="6.66227">
        <ele>299.2</ele>
        <time>2019-08-16T15:13:01Z</time>
      </trkpt>
      <trkpt lat="47.4488" lon="6.66222">
        <ele>299.2</ele>
        <time>2019-08-16T15:13:02Z</time>
      </trkpt>
      <trkpt lat="47.4488" lon="6.66215">
        <ele>299.2</ele>
        <time>2019-08-16T15:13:03Z</time>
      </trkpt>
      <trkpt lat="47.4488" lon="6.66207">
        <ele>299.2</ele>
        <time>2019-08-16T15:13:04Z</time>
      </trkpt>
      <trkpt lat="47.4488" lon="6.66198">
        <ele>299.3</ele>
        <time>2019-08-16T15:13:05Z</time>
      </trkpt>
      <trkpt lat="47.44879" lon="6.6619">
        <ele>299.3</ele>
        <time>2019-08-16T15:13:06Z</time>
      </trkpt>
      <trkpt lat="47.44879" lon="6.66182">
        <ele>299.3</ele>
        <time>2019-08-16T15:13:07Z</time>
      </trkpt>
      <trkpt lat="47.44878" lon="6.66176">
        <ele>299.3</ele>
        <time>2019-08-16T15:13:08Z</time>
      </trkpt>
      <trkpt lat="47.44878" lon="6.66169">
        <ele>299.3</ele>
        <time>2019-08-16T15:13:09Z</time>
      </trkpt>
      <trkpt lat="47.44877" lon="6.66163">
        <ele>299.4</ele>
        <time>2019-08-16T15:13:10Z</time>
      </trkpt>
      <trkpt lat="47.44877" lon="6.66155">
        <ele>299.4</ele>
        <time>2019-08-16T15:13:11Z</time>
      </trkpt>
      <trkpt lat="47.44877" lon="6.66148">
        <ele>299.4</ele>
        <time>2019-08-16T15:13:12Z</time>
      </trkpt>
      <trkpt lat="47.44877" lon="6.66141">
        <ele>299.4</ele>
        <time>2019-08-16T15:13:13Z</time>
      </trkpt>
      <trkpt lat="47.44877" lon="6.66134">
        <ele>299.4</ele>
        <time>2019-08-16T15:13:14Z</time>
      </trkpt>
      <trkpt lat="47.44876" lon="6.66126">
        <ele>299.4</ele>
        <time>2019-08-16T15:13:15Z</time>
      </trkpt>
      <trkpt lat="47.44876" lon="6.66119">
        <ele>299.4</ele>
        <time>2019-08-16T15:13:16Z</time>
      </trkpt>
      <trkpt lat="47.44875" lon="6.66112">
        <ele>299.4</ele>
        <time>2019-08-16T15:13:17Z</time>
      </trkpt>
      <trkpt lat="47.44875" lon="6.66105">
        <ele>299.4</ele>
        <time>2019-08-16T15:13:18Z</time>
      </trkpt>
      <trkpt lat="47.44874" lon="6.66097">
        <ele>299.4</ele>
        <time>2019-08-16T15:13:19Z</time>
      </trkpt>
      <trkpt lat="47.44873" lon="6.66091">
        <ele>299.4</ele>
        <time>2019-08-16T15:13:20Z</time>
      </trkpt>
      <trkpt lat="47.44872" lon="6.66084">
        <ele>299.4</ele>
        <time>2019-08-16T15:13:21Z</time>
      </trkpt>
      <trkpt lat="47.44871" lon="6.66076">
        <ele>299.4</ele>
        <time>2019-08-16T15:13:22Z</time>
      </trkpt>
      <trkpt lat="47.44871" lon="6.66069">
        <ele>299.4</ele>
        <time>2019-08-16T15:13:23Z</time>
      </trkpt>
      <trkpt lat="47.44871" lon="6.66062">
        <ele>299.4</ele>
        <time>2019-08-16T15:13:24Z</time>
      </trkpt>
      <trkpt lat="47.4487" lon="6.66056">
        <ele>299.4</ele>
        <time>2019-08-16T15:13:25Z</time>
      </trkpt>
      <trkpt lat="47.4487" lon="6.6605">
        <ele>299.4</ele>
        <time>2019-08-16T15:13:26Z</time>
      </trkpt>
      <trkpt lat="47.44869" lon="6.66043">
        <ele>299.4</ele>
        <time>2019-08-16T15:13:27Z</time>
      </trkpt>
      <trkpt lat="47.44869" lon="6.66034">
        <ele>299.4</ele>
        <time>2019-08-16T15:13:28Z</time>
      </trkpt>
      <trkpt lat="47.44868" lon="6.66029">
        <ele>299.4</ele>
        <time>2019-08-16T15:13:29Z</time>
      </trkpt>
      <trkpt lat="47.44868" lon="6.66023">
        <ele>299.4</ele>
        <time>2019-08-16T15:13:30Z</time>
      </trkpt>
      <trkpt lat="47.44868" lon="6.66014">
        <ele>299.4</ele>
        <time>2019-08-16T15:13:31Z</time>
      </trkpt>
      <trkpt lat="47.44867" lon="6.66006">
        <ele>299.3</ele>
        <time>2019-08-16T15:13:32Z</time>
      </trkpt>
      <trkpt lat="47.44866" lon="6.65999">
        <ele>299.3</ele>
        <time>2019-08-16T15:13:33Z</time>
      </trkpt>
      <trkpt lat="47.44866" lon="6.65992">
        <ele>299.3</ele>
        <time>2019-08-16T15:13:34Z</time>
      </trkpt>
      <trkpt lat="47.44866" lon="6.65985">
        <ele>299.3</ele>
        <time>2019-08-16T15:13:35Z</time>
      </trkpt>
      <trkpt lat="47.44867" lon="6.65979">
        <ele>299.3</ele>
        <time>2019-08-16T15:13:36Z</time>
      </trkpt>
      <trkpt lat="47.44866" lon="6.65972">
        <ele>299.3</ele>
        <time>2019-08-16T15:13:37Z</time>
      </trkpt>
      <trkpt lat="47.44866" lon="6.65966">
        <ele>299.3</ele>
        <time>2019-08-16T15:13:38Z</time>
      </trkpt>
      <trkpt lat="47.44865" lon="6.65959">
        <ele>299.3</ele>
        <time>2019-08-16T15:13:39Z</time>
      </trkpt>
      <trkpt lat="47.44864" lon="6.65953">
        <ele>299.3</ele>
        <time>2019-08-16T15:13:40Z</time>
      </trkpt>
      <trkpt lat="47.44864" lon="6.65945">
        <ele>299.3</ele>
        <time>2019-08-16T15:13:41Z</time>
      </trkpt>
      <trkpt lat="47.44862" lon="6.65937">
        <ele>299.3</ele>
        <time>2019-08-16T15:13:42Z</time>
      </trkpt>
      <trkpt lat="47.44862" lon="6.6593">
        <ele>299.3</ele>
        <time>2019-08-16T15:13:43Z</time>
      </trkpt>
      <trkpt lat="47.44861" lon="6.65924">
        <ele>299.3</ele>
        <time>2019-08-16T15:13:44Z</time>
      </trkpt>
      <trkpt lat="47.4486" lon="6.65917">
        <ele>299.3</ele>
        <time>2019-08-16T15:13:45Z</time>
      </trkpt>
      <trkpt lat="47.44859" lon="6.65909">
        <ele>299.3</ele>
        <time>2019-08-16T15:13:46Z</time>
      </trkpt>
      <trkpt lat="47.44858" lon="6.65901">
        <ele>299.3</ele>
        <time>2019-08-16T15:13:47Z</time>
      </trkpt>
      <trkpt lat="47.44858" lon="6.65893">
        <ele>299.3</ele>
        <time>2019-08-16T15:13:48Z</time>
      </trkpt>
      <trkpt lat="47.44857" lon="6.65885">
        <ele>299.3</ele>
        <time>2019-08-16T15:13:49Z</time>
      </trkpt>
      <trkpt lat="47.44857" lon="6.65876">
        <ele>299.3</ele>
        <time>2019-08-16T15:13:50Z</time>
      </trkpt>
      <trkpt lat="47.44856" lon="6.65871">
        <ele>299.3</ele>
        <time>2019-08-16T15:13:51Z</time>
      </trkpt>
      <trkpt lat="47.44855" lon="6.65864">
        <ele>299.3</ele>
        <time>2019-08-16T15:13:52Z</time>
      </trkpt>
      <trkpt lat="47.44855" lon="6.65856">
        <ele>299.3</ele>
        <time>2019-08-16T15:13:53Z</time>
      </trkpt>
      <trkpt lat="47.44855" lon="6.65849">
        <ele>299.3</ele>
        <time>2019-08-16T15:13:54Z</time>
      </trkpt>
      <trkpt lat="47.44854" lon="6.65841">
        <ele>299.3</ele>
        <time>2019-08-16T15:13:55Z</time>
      </trkpt>
      <trkpt lat="47.44854" lon="6.65834">
        <ele>299.3</ele>
        <time>2019-08-16T15:13:56Z</time>
      </trkpt>
      <trkpt lat="47.44854" lon="6.65827">
        <ele>299.3</ele>
        <time>2019-08-16T15:13:57Z</time>
      </trkpt>
      <trkpt lat="47.44853" lon="6.6582">
        <ele>299.3</ele>
        <time>2019-08-16T15:13:58Z</time>
      </trkpt>
      <trkpt lat="47.44853" lon="6.65812">
        <ele>299.3</ele>
        <time>2019-08-16T15:13:59Z</time>
      </trkpt>
      <trkpt lat="47.44853" lon="6.65804">
        <ele>299.3</ele>
        <time>2019-08-16T15:14:00Z</time>
      </trkpt>
      <trkpt lat="47.44852" lon="6.65795">
        <ele>299.3</ele>
        <time>2019-08-16T15:14:01Z</time>
      </trkpt>
      <trkpt lat="47.44851" lon="6.65789">
        <ele>299.3</ele>
        <time>2019-08-16T15:14:02Z</time>
      </trkpt>
      <trkpt lat="47.44851" lon="6.65781">
        <ele>299.3</ele>
        <time>2019-08-16T15:14:03Z</time>
      </trkpt>
      <trkpt lat="47.44851" lon="6.65774">
        <ele>299.3</ele>
        <time>2019-08-16T15:14:04Z</time>
      </trkpt>
      <trkpt lat="47.44851" lon="6.65768">
        <ele>299.3</ele>
        <time>2019-08-16T15:14:05Z</time>
      </trkpt>
      <trkpt lat="47.44851" lon="6.65761">
        <ele>299.2</ele>
        <time>2019-08-16T15:14:06Z</time>
      </trkpt>
      <trkpt lat="47.44851" lon="6.65753">
        <ele>299.2</ele>
        <time>2019-08-16T15:14:07Z</time>
      </trkpt>
      <trkpt lat="47.4485" lon="6.65747">
        <ele>299.2</ele>
        <time>2019-08-16T15:14:08Z</time>
      </trkpt>
      <trkpt lat="47.4485" lon="6.65739">
        <ele>299.2</ele>
        <time>2019-08-16T15:14:09Z</time>
      </trkpt>
      <trkpt lat="47.44849" lon="6.65732">
        <ele>299.2</ele>
        <time>2019-08-16T15:14:10Z</time>
      </trkpt>
      <trkpt lat="47.44849" lon="6.65725">
        <ele>299.2</ele>
        <time>2019-08-16T15:14:11Z</time>
      </trkpt>
      <trkpt lat="47.44848" lon="6.65717">
        <ele>299.2</ele>
        <time>2019-08-16T15:14:12Z</time>
      </trkpt>
      <trkpt lat="47.44847" lon="6.6571">
        <ele>299.2</ele>
        <time>2019-08-16T15:14:13Z</time>
      </trkpt>
      <trkpt lat="47.44846" lon="6.65701">
        <ele>299.2</ele>
        <time>2019-08-16T15:14:14Z</time>
      </trkpt>
      <trkpt lat="47.44845" lon="6.65693">
        <ele>299.2</ele>
        <time>2019-08-16T15:14:15Z</time>
      </trkpt>
      <trkpt lat="47.44844" lon="6.65684">
        <ele>299.2</ele>
        <time>2019-08-16T15:14:16Z</time>
      </trkpt>
      <trkpt lat="47.44842" lon="6.6568">
        <ele>299.2</ele>
        <time>2019-08-16T15:14:17Z</time>
      </trkpt>
      <trkpt lat="47.44841" lon="6.65674">
        <ele>299.2</ele>
        <time>2019-08-16T15:14:18Z</time>
      </trkpt>
      <trkpt lat="47.4484" lon="6.65668">
        <ele>299.2</ele>
        <time>2019-08-16T15:14:19Z</time>
      </trkpt>
      <trkpt lat="47.44839" lon="6.6566">
        <ele>299.2</ele>
        <time>2019-08-16T15:14:20Z</time>
      </trkpt>
      <trkpt lat="47.44838" lon="6.65652">
        <ele>299.2</ele>
        <time>2019-08-16T15:14:21Z</time>
      </trkpt>
      <trkpt lat="47.44838" lon="6.65645">
        <ele>299.2</ele>
        <time>2019-08-16T15:14:22Z</time>
      </trkpt>
      <trkpt lat="47.44837" lon="6.65637">
        <ele>299.2</ele>
        <time>2019-08-16T15:14:23Z</time>
      </trkpt>
      <trkpt lat="47.44837" lon="6.65629">
        <ele>299.3</ele>
        <time>2019-08-16T15:14:24Z</time>
      </trkpt>
      <trkpt lat="47.44837" lon="6.65622">
        <ele>299.3</ele>
        <time>2019-08-16T15:14:25Z</time>
      </trkpt>
      <trkpt lat="47.44836" lon="6.65615">
        <ele>299.3</ele>
        <time>2019-08-16T15:14:26Z</time>
      </trkpt>
      <trkpt lat="47.44835" lon="6.65609">
        <ele>299.3</ele>
        <time>2019-08-16T15:14:27Z</time>
      </trkpt>
      <trkpt lat="47.44834" lon="6.65603">
        <ele>299.3</ele>
        <time>2019-08-16T15:14:28Z</time>
      </trkpt>
      <trkpt lat="47.44834" lon="6.65598">
        <ele>299.3</ele>
        <time>2019-08-16T15:14:29Z</time>
      </trkpt>
      <trkpt lat="47.44833" lon="6.6559">
        <ele>299.3</ele>
        <time>2019-08-16T15:14:30Z</time>
      </trkpt>
      <trkpt lat="47.44833" lon="6.65582">
        <ele>299.3</ele>
        <time>2019-08-16T15:14:31Z</time>
      </trkpt>
      <trkpt lat="47.44832" lon="6.65573">
        <ele>299.3</ele>
        <time>2019-08-16T15:14:32Z</time>
      </trkpt>
      <trkpt lat="47.4483" lon="6.65566">
        <ele>299.3</ele>
        <time>2019-08-16T15:14:33Z</time>
      </trkpt>
      <trkpt lat="47.44829" lon="6.65558">
        <ele>299.3</ele>
        <time>2019-08-16T15:14:34Z</time>
      </trkpt>
      <trkpt lat="47.44828" lon="6.6555">
        <ele>299.3</ele>
        <time>2019-08-16T15:14:35Z</time>
      </trkpt>
      <trkpt lat="47.44827" lon="6.65542">
        <ele>299.3</ele>
        <time>2019-08-16T15:14:36Z</time>
      </trkpt>
      <trkpt lat="47.44826" lon="6.65534">
        <ele>299.3</ele>
        <time>2019-08-16T15:14:37Z</time>
      </trkpt>
      <trkpt lat="47.44825" lon="6.65526">
        <ele>299.3</ele>
        <time>2019-08-16T15:14:38Z</time>
      </trkpt>
      <trkpt lat="47.44825" lon="6.6552">
        <ele>299.3</ele>
        <time>2019-08-16T15:14:39Z</time>
      </trkpt>
      <trkpt lat="47.44825" lon="6.65513">
        <ele>299.4</ele>
        <time>2019-08-16T15:14:40Z</time>
      </trkpt>
      <trkpt lat="47.44825" lon="6.65508">
        <ele>299.4</ele>
        <time>2019-08-16T15:14:41Z</time>
      </trkpt>
      <trkpt lat="47.44825" lon="6.65499">
        <ele>299.4</ele>
        <time>2019-08-16T15:14:42Z</time>
      </trkpt>
      <trkpt lat="47.44825" lon="6.65493">
        <ele>299.4</ele>
        <time>2019-08-16T15:14:43Z</time>
      </trkpt>
      <trkpt lat="47.44824" lon="6.65484">
        <ele>299.4</ele>
        <time>2019-08-16T15:14:44Z</time>
      </trkpt>
      <trkpt lat="47.44824" lon="6.65477">
        <ele>299.4</ele>
        <time>2019-08-16T15:14:45Z</time>
      </trkpt>
      <trkpt lat="47.44823" lon="6.65469">
        <ele>299.4</ele>
        <time>2019-08-16T15:14:46Z</time>
      </trkpt>
      <trkpt lat="47.44821" lon="6.65462">
        <ele>299.4</ele>
        <time>2019-08-16T15:14:47Z</time>
      </trkpt>
      <trkpt lat="47.44821" lon="6.65456">
        <ele>299.4</ele>
        <time>2019-08-16T15:14:48Z</time>
      </trkpt>
      <trkpt lat="47.4482" lon="6.65449">
        <ele>299.4</ele>
        <time>2019-08-16T15:14:49Z</time>
      </trkpt>
      <trkpt lat="47.44819" lon="6.65443">
        <ele>299.4</ele>
        <time>2019-08-16T15:14:50Z</time>
      </trkpt>
      <trkpt lat="47.44818" lon="6.65435">
        <ele>299.4</ele>
        <time>2019-08-16T15:14:51Z</time>
      </trkpt>
      <trkpt lat="47.44818" lon="6.65428">
        <ele>299.4</ele>
        <time>2019-08-16T15:14:52Z</time>
      </trkpt>
      <trkpt lat="47.44817" lon="6.65421">
        <ele>299.5</ele>
        <time>2019-08-16T15:14:53Z</time>
      </trkpt>
      <trkpt lat="47.44817" lon="6.65413">
        <ele>299.5</ele>
        <time>2019-08-16T15:14:54Z</time>
      </trkpt>
      <trkpt lat="47.44818" lon="6.65405">
        <ele>299.5</ele>
        <time>2019-08-16T15:14:55Z</time>
      </trkpt>
      <trkpt lat="47.44818" lon="6.65398">
        <ele>299.5</ele>
        <time>2019-08-16T15:14:56Z</time>
      </trkpt>
      <trkpt lat="47.44818" lon="6.6539">
        <ele>299.5</ele>
        <time>2019-08-16T15:14:57Z</time>
      </trkpt>
      <trkpt lat="47.44818" lon="6.65383">
        <ele>299.5</ele>
        <time>2019-08-16T15:14:58Z</time>
      </trkpt>
      <trkpt lat="47.44818" lon="6.65377">
        <ele>299.5</ele>
        <time>2019-08-16T15:14:59Z</time>
      </trkpt>
      <trkpt lat="47.44818" lon="6.6537">
        <ele>299.5</ele>
        <time>2019-08-16T15:15:00Z</time>
      </trkpt>
      <trkpt lat="47.44817" lon="6.65366">
        <ele>299.5</ele>
        <time>2019-08-16T15:15:01Z</time>
      </trkpt>
      <trkpt lat="47.44817" lon="6.65358">
        <ele>299.5</ele>
        <time>2019-08-16T15:15:02Z</time>
      </trkpt>
      <trkpt lat="47.44817" lon="6.65349">
        <ele>299.6</ele>
        <time>2019-08-16T15:15:03Z</time>
      </trkpt>
      <trkpt lat="47.44817" lon="6.65342">
        <ele>299.6</ele>
        <time>2019-08-16T15:15:04Z</time>
      </trkpt>
      <trkpt lat="47.44816" lon="6.65336">
        <ele>299.6</ele>
        <time>2019-08-16T15:15:05Z</time>
      </trkpt>
      <trkpt lat="47.44816" lon="6.65329">
        <ele>299.6</ele>
        <time>2019-08-16T15:15:06Z</time>
      </trkpt>
      <trkpt lat="47.44815" lon="6.65322">
        <ele>299.6</ele>
        <time>2019-08-16T15:15:07Z</time>
      </trkpt>
      <trkpt lat="47.44815" lon="6.65315">
        <ele>299.6</ele>
        <time>2019-08-16T15:15:08Z</time>
      </trkpt>
      <trkpt lat="47.44815" lon="6.65309">
        <ele>299.5</ele>
        <time>2019-08-16T15:15:09Z</time>
      </trkpt>
      <trkpt lat="47.44814" lon="6.65299">
        <ele>299.5</ele>
        <time>2019-08-16T15:15:10Z</time>
      </trkpt>
      <trkpt lat="47.44814" lon="6.65291">
        <ele>299.5</ele>
        <time>2019-08-16T15:15:11Z</time>
      </trkpt>
      <trkpt lat="47.44815" lon="6.65285">
        <ele>299.5</ele>
        <time>2019-08-16T15:15:12Z</time>
      </trkpt>
      <trkpt lat="47.44815" lon="6.65278">
        <ele>299.5</ele>
        <time>2019-08-16T15:15:13Z</time>
      </trkpt>
      <trkpt lat="47.44815" lon="6.65271">
        <ele>299.4</ele>
        <time>2019-08-16T15:15:14Z</time>
      </trkpt>
      <trkpt lat="47.44814" lon="6.65264">
        <ele>299.4</ele>
        <time>2019-08-16T15:15:15Z</time>
      </trkpt>
      <trkpt lat="47.44814" lon="6.65257">
        <ele>299.4</ele>
        <time>2019-08-16T15:15:16Z</time>
      </trkpt>
      <trkpt lat="47.44812" lon="6.6525">
        <ele>299.4</ele>
        <time>2019-08-16T15:15:17Z</time>
      </trkpt>
      <trkpt lat="47.44811" lon="6.65244">
        <ele>299.4</ele>
        <time>2019-08-16T15:15:18Z</time>
      </trkpt>
      <trkpt lat="47.4481" lon="6.65237">
        <ele>299.3</ele>
        <time>2019-08-16T15:15:19Z</time>
      </trkpt>
      <trkpt lat="47.44809" lon="6.65231">
        <ele>299.3</ele>
        <time>2019-08-16T15:15:20Z</time>
      </trkpt>
      <trkpt lat="47.44809" lon="6.65224">
        <ele>299.3</ele>
        <time>2019-08-16T15:15:21Z</time>
      </trkpt>
      <trkpt lat="47.44808" lon="6.65218">
        <ele>299.3</ele>
        <time>2019-08-16T15:15:22Z</time>
      </trkpt>
      <trkpt lat="47.44808" lon="6.6521">
        <ele>299.2</ele>
        <time>2019-08-16T15:15:23Z</time>
      </trkpt>
      <trkpt lat="47.44808" lon="6.65202">
        <ele>299.2</ele>
        <time>2019-08-16T15:15:24Z</time>
      </trkpt>
      <trkpt lat="47.44808" lon="6.65195">
        <ele>299.2</ele>
        <time>2019-08-16T15:15:25Z</time>
      </trkpt>
      <trkpt lat="47.44807" lon="6.65187">
        <ele>299.2</ele>
        <time>2019-08-16T15:15:26Z</time>
      </trkpt>
      <trkpt lat="47.44806" lon="6.65178">
        <ele>299.1</ele>
        <time>2019-08-16T15:15:27Z</time>
      </trkpt>
      <trkpt lat="47.44805" lon="6.65171">
        <ele>299.1</ele>
        <time>2019-08-16T15:15:28Z</time>
      </trkpt>
      <trkpt lat="47.44804" lon="6.65164">
        <ele>299.1</ele>
        <time>2019-08-16T15:15:29Z</time>
      </trkpt>
      <trkpt lat="47.44804" lon="6.65156">
        <ele>299</ele>
        <time>2019-08-16T15:15:30Z</time>
      </trkpt>
      <trkpt lat="47.44803" lon="6.65149">
        <ele>299</ele>
        <time>2019-08-16T15:15:31Z</time>
      </trkpt>
      <trkpt lat="47.44803" lon="6.65143">
        <ele>299</ele>
        <time>2019-08-16T15:15:32Z</time>
      </trkpt>
      <trkpt lat="47.44803" lon="6.65136">
        <ele>298.9</ele>
        <time>2019-08-16T15:15:33Z</time>
      </trkpt>
      <trkpt lat="47.44803" lon="6.65128">
        <ele>298.9</ele>
        <time>2019-08-16T15:15:34Z</time>
      </trkpt>
      <trkpt lat="47.44802" lon="6.65122">
        <ele>298.9</ele>
        <time>2019-08-16T15:15:35Z</time>
      </trkpt>
      <trkpt lat="47.44802" lon="6.65115">
        <ele>298.9</ele>
        <time>2019-08-16T15:15:36Z</time>
      </trkpt>
      <trkpt lat="47.44802" lon="6.65109">
        <ele>298.8</ele>
        <time>2019-08-16T15:15:37Z</time>
      </trkpt>
      <trkpt lat="47.44803" lon="6.65103">
        <ele>298.8</ele>
        <time>2019-08-16T15:15:38Z</time>
      </trkpt>
      <trkpt lat="47.44803" lon="6.65097">
        <ele>298.8</ele>
        <time>2019-08-16T15:15:39Z</time>
      </trkpt>
      <trkpt lat="47.44803" lon="6.6509">
        <ele>298.8</ele>
        <time>2019-08-16T15:15:40Z</time>
      </trkpt>
      <trkpt lat="47.44802" lon="6.65083">
        <ele>298.8</ele>
        <time>2019-08-16T15:15:41Z</time>
      </trkpt>
      <trkpt lat="47.44802" lon="6.65077">
        <ele>298.7</ele>
        <time>2019-08-16T15:15:42Z</time>
      </trkpt>
      <trkpt lat="47.44801" lon="6.6507">
        <ele>298.7</ele>
        <time>2019-08-16T15:15:43Z</time>
      </trkpt>
      <trkpt lat="47.44801" lon="6.65064">
        <ele>298.7</ele>
        <time>2019-08-16T15:15:44Z</time>
      </trkpt>
      <trkpt lat="47.44802" lon="6.65058">
        <ele>298.6</ele>
        <time>2019-08-16T15:15:45Z</time>
      </trkpt>
      <trkpt lat="47.44802" lon="6.65051">
        <ele>298.6</ele>
        <time>2019-08-16T15:15:46Z</time>
      </trkpt>
      <trkpt lat="47.44801" lon="6.65044">
        <ele>298.6</ele>
        <time>2019-08-16T15:15:47Z</time>
      </trkpt>
      <trkpt lat="47.44801" lon="6.65037">
        <ele>298.5</ele>
        <time>2019-08-16T15:15:48Z</time>
      </trkpt>
      <trkpt lat="47.44801" lon="6.6503">
        <ele>298.5</ele>
        <time>2019-08-16T15:15:49Z</time>
      </trkpt>
      <trkpt lat="47.44801" lon="6.65023">
        <ele>298.4</ele>
        <time>2019-08-16T15:15:50Z</time>
      </trkpt>
      <trkpt lat="47.448" lon="6.65016">
        <ele>298.4</ele>
        <time>2019-08-16T15:15:51Z</time>
      </trkpt>
      <trkpt lat="47.448" lon="6.65008">
        <ele>298.3</ele>
        <time>2019-08-16T15:15:52Z</time>
      </trkpt>
      <trkpt lat="47.44798" lon="6.65001">
        <ele>298.3</ele>
        <time>2019-08-16T15:15:53Z</time>
      </trkpt>
      <trkpt lat="47.44797" lon="6.64995">
        <ele>298.2</ele>
        <time>2019-08-16T15:15:54Z</time>
      </trkpt>
      <trkpt lat="47.44796" lon="6.64989">
        <ele>298.2</ele>
        <time>2019-08-16T15:15:55Z</time>
      </trkpt>
      <trkpt lat="47.44796" lon="6.64983">
        <ele>298.2</ele>
        <time>2019-08-16T15:15:56Z</time>
      </trkpt>
      <trkpt lat="47.44795" lon="6.64977">
        <ele>298.1</ele>
        <time>2019-08-16T15:15:57Z</time>
      </trkpt>
      <trkpt lat="47.44795" lon="6.64968">
        <ele>298.1</ele>
        <time>2019-08-16T15:15:58Z</time>
      </trkpt>
      <trkpt lat="47.44795" lon="6.64959">
        <ele>298</ele>
        <time>2019-08-16T15:15:59Z</time>
      </trkpt>
      <trkpt lat="47.44794" lon="6.64949">
        <ele>298</ele>
        <time>2019-08-16T15:16:00Z</time>
      </trkpt>
      <trkpt lat="47.44793" lon="6.64941">
        <ele>297.9</ele>
        <time>2019-08-16T15:16:01Z</time>
      </trkpt>
      <trkpt lat="47.44791" lon="6.64933">
        <ele>297.9</ele>
        <time>2019-08-16T15:16:02Z</time>
      </trkpt>
      <trkpt lat="47.4479" lon="6.64925">
        <ele>297.8</ele>
        <time>2019-08-16T15:16:03Z</time>
      </trkpt>
      <trkpt lat="47.44788" lon="6.6492">
        <ele>297.8</ele>
        <time>2019-08-16T15:16:04Z</time>
      </trkpt>
      <trkpt lat="47.44786" lon="6.64914">
        <ele>297.7</ele>
        <time>2019-08-16T15:16:05Z</time>
      </trkpt>
      <trkpt lat="47.44785" lon="6.64908">
        <ele>297.6</ele>
        <time>2019-08-16T15:16:06Z</time>
      </trkpt>
      <trkpt lat="47.44784" lon="6.64898">
        <ele>297.6</ele>
        <time>2019-08-16T15:16:07Z</time>
      </trkpt>
      <trkpt lat="47.44784" lon="6.6489">
        <ele>297.6</ele>
        <time>2019-08-16T15:16:08Z</time>
      </trkpt>
      <trkpt lat="47.44783" lon="6.64882">
        <ele>297.6</ele>
        <time>2019-08-16T15:16:09Z</time>
      </trkpt>
      <trkpt lat="47.44782" lon="6.64875">
        <ele>297.6</ele>
        <time>2019-08-16T15:16:10Z</time>
      </trkpt>
      <trkpt lat="47.44782" lon="6.64866">
        <ele>297.6</ele>
        <time>2019-08-16T15:16:11Z</time>
      </trkpt>
      <trkpt lat="47.44779" lon="6.6486">
        <ele>297.6</ele>
        <time>2019-08-16T15:16:12Z</time>
      </trkpt>
      <trkpt lat="47.44778" lon="6.64852">
        <ele>297.7</ele>
        <time>2019-08-16T15:16:13Z</time>
      </trkpt>
      <trkpt lat="47.44776" lon="6.64846">
        <ele>297.7</ele>
        <time>2019-08-16T15:16:14Z</time>
      </trkpt>
      <trkpt lat="47.44776" lon="6.64839">
        <ele>297.7</ele>
        <time>2019-08-16T15:16:15Z</time>
      </trkpt>
      <trkpt lat="47.44775" lon="6.64832">
        <ele>297.7</ele>
        <time>2019-08-16T15:16:16Z</time>
      </trkpt>
      <trkpt lat="47.44774" lon="6.64824">
        <ele>297.8</ele>
        <time>2019-08-16T15:16:17Z</time>
      </trkpt>
      <trkpt lat="47.44774" lon="6.64816">
        <ele>297.8</ele>
        <time>2019-08-16T15:16:18Z</time>
      </trkpt>
      <trkpt lat="47.44774" lon="6.6481">
        <ele>297.8</ele>
        <time>2019-08-16T15:16:19Z</time>
      </trkpt>
      <trkpt lat="47.44773" lon="6.64803">
        <ele>297.7</ele>
        <time>2019-08-16T15:16:20Z</time>
      </trkpt>
      <trkpt lat="47.44772" lon="6.64797">
        <ele>297.7</ele>
        <time>2019-08-16T15:16:21Z</time>
      </trkpt>
      <trkpt lat="47.44773" lon="6.64791">
        <ele>297.7</ele>
        <time>2019-08-16T15:16:22Z</time>
      </trkpt>
      <trkpt lat="47.44772" lon="6.64784">
        <ele>297.7</ele>
        <time>2019-08-16T15:16:23Z</time>
      </trkpt>
      <trkpt lat="47.44772" lon="6.64778">
        <ele>297.6</ele>
        <time>2019-08-16T15:16:24Z</time>
      </trkpt>
      <trkpt lat="47.44771" lon="6.64771">
        <ele>297.6</ele>
        <time>2019-08-16T15:16:25Z</time>
      </trkpt>
      <trkpt lat="47.4477" lon="6.64765">
        <ele>297.6</ele>
        <time>2019-08-16T15:16:26Z</time>
      </trkpt>
      <trkpt lat="47.44769" lon="6.64757">
        <ele>297.5</ele>
        <time>2019-08-16T15:16:27Z</time>
      </trkpt>
      <trkpt lat="47.44769" lon="6.6475">
        <ele>297.5</ele>
        <time>2019-08-16T15:16:28Z</time>
      </trkpt>
      <trkpt lat="47.44769" lon="6.64743">
        <ele>297.4</ele>
        <time>2019-08-16T15:16:29Z</time>
      </trkpt>
      <trkpt lat="47.44769" lon="6.64737">
        <ele>297.4</ele>
        <time>2019-08-16T15:16:30Z</time>
      </trkpt>
      <trkpt lat="47.44769" lon="6.64731">
        <ele>297.4</ele>
        <time>2019-08-16T15:16:31Z</time>
      </trkpt>
      <trkpt lat="47.44769" lon="6.64725">
        <ele>297.4</ele>
        <time>2019-08-16T15:16:32Z</time>
      </trkpt>
      <trkpt lat="47.44769" lon="6.64718">
        <ele>297.4</ele>
        <time>2019-08-16T15:16:33Z</time>
      </trkpt>
      <trkpt lat="47.44768" lon="6.64711">
        <ele>297.5</ele>
        <time>2019-08-16T15:16:34Z</time>
      </trkpt>
      <trkpt lat="47.44767" lon="6.64704">
        <ele>297.5</ele>
        <time>2019-08-16T15:16:35Z</time>
      </trkpt>
      <trkpt lat="47.44766" lon="6.64698">
        <ele>297.5</ele>
        <time>2019-08-16T15:16:36Z</time>
      </trkpt>
      <trkpt lat="47.44765" lon="6.64691">
        <ele>297.6</ele>
        <time>2019-08-16T15:16:37Z</time>
      </trkpt>
      <trkpt lat="47.44765" lon="6.64684">
        <ele>297.6</ele>
        <time>2019-08-16T15:16:38Z</time>
      </trkpt>
      <trkpt lat="47.44764" lon="6.64677">
        <ele>297.7</ele>
        <time>2019-08-16T15:16:39Z</time>
      </trkpt>
      <trkpt lat="47.44764" lon="6.6467">
        <ele>297.7</ele>
        <time>2019-08-16T15:16:40Z</time>
      </trkpt>
      <trkpt lat="47.44764" lon="6.64663">
        <ele>297.7</ele>
        <time>2019-08-16T15:16:41Z</time>
      </trkpt>
      <trkpt lat="47.44763" lon="6.64656">
        <ele>297.8</ele>
        <time>2019-08-16T15:16:42Z</time>
      </trkpt>
      <trkpt lat="47.44763" lon="6.64649">
        <ele>297.8</ele>
        <time>2019-08-16T15:16:43Z</time>
      </trkpt>
      <trkpt lat="47.44763" lon="6.64642">
        <ele>297.8</ele>
        <time>2019-08-16T15:16:44Z</time>
      </trkpt>
      <trkpt lat="47.44762" lon="6.64635">
        <ele>297.7</ele>
        <time>2019-08-16T15:16:45Z</time>
      </trkpt>
      <trkpt lat="47.44762" lon="6.64628">
        <ele>297.7</ele>
        <time>2019-08-16T15:16:46Z</time>
      </trkpt>
      <trkpt lat="47.44762" lon="6.64622">
        <ele>297.7</ele>
        <time>2019-08-16T15:16:47Z</time>
      </trkpt>
      <trkpt lat="47.44761" lon="6.64615">
        <ele>297.7</ele>
        <time>2019-08-16T15:16:48Z</time>
      </trkpt>
      <trkpt lat="47.44761" lon="6.64608">
        <ele>297.6</ele>
        <time>2019-08-16T15:16:49Z</time>
      </trkpt>
      <trkpt lat="47.4476" lon="6.64601">
        <ele>297.6</ele>
        <time>2019-08-16T15:16:50Z</time>
      </trkpt>
      <trkpt lat="47.4476" lon="6.64594">
        <ele>297.5</ele>
        <time>2019-08-16T15:16:51Z</time>
      </trkpt>
      <trkpt lat="47.44759" lon="6.64588">
        <ele>297.5</ele>
        <time>2019-08-16T15:16:52Z</time>
      </trkpt>
      <trkpt lat="47.44759" lon="6.6458">
        <ele>297.4</ele>
        <time>2019-08-16T15:16:53Z</time>
      </trkpt>
      <trkpt lat="47.44758" lon="6.64573">
        <ele>297.4</ele>
        <time>2019-08-16T15:16:54Z</time>
      </trkpt>
      <trkpt lat="47.44757" lon="6.64565">
        <ele>297.3</ele>
        <time>2019-08-16T15:16:55Z</time>
      </trkpt>
      <trkpt lat="47.44757" lon="6.64558">
        <ele>297.3</ele>
        <time>2019-08-16T15:16:56Z</time>
      </trkpt>
      <trkpt lat="47.44756" lon="6.64551">
        <ele>297.4</ele>
        <time>2019-08-16T15:16:57Z</time>
      </trkpt>
      <trkpt lat="47.44756" lon="6.64544">
        <ele>297.4</ele>
        <time>2019-08-16T15:16:58Z</time>
      </trkpt>
      <trkpt lat="47.44755" lon="6.64537">
        <ele>297.5</ele>
        <time>2019-08-16T15:16:59Z</time>
      </trkpt>
      <trkpt lat="47.44754" lon="6.64531">
        <ele>297.5</ele>
        <time>2019-08-16T15:17:00Z</time>
      </trkpt>
      <trkpt lat="47.44753" lon="6.64524">
        <ele>297.6</ele>
        <time>2019-08-16T15:17:01Z</time>
      </trkpt>
      <trkpt lat="47.44752" lon="6.64517">
        <ele>297.6</ele>
        <time>2019-08-16T15:17:02Z</time>
      </trkpt>
      <trkpt lat="47.44751" lon="6.6451">
        <ele>297.7</ele>
        <time>2019-08-16T15:17:03Z</time>
      </trkpt>
      <trkpt lat="47.44751" lon="6.64503">
        <ele>297.7</ele>
        <time>2019-08-16T15:17:04Z</time>
      </trkpt>
      <trkpt lat="47.4475" lon="6.64496">
        <ele>297.8</ele>
        <time>2019-08-16T15:17:05Z</time>
      </trkpt>
      <trkpt lat="47.44749" lon="6.6449">
        <ele>297.8</ele>
        <time>2019-08-16T15:17:06Z</time>
      </trkpt>
      <trkpt lat="47.44748" lon="6.64483">
        <ele>297.8</ele>
        <time>2019-08-16T15:17:07Z</time>
      </trkpt>
      <trkpt lat="47.44747" lon="6.64476">
        <ele>297.8</ele>
        <time>2019-08-16T15:17:08Z</time>
      </trkpt>
      <trkpt lat="47.44746" lon="6.64469">
        <ele>297.8</ele>
        <time>2019-08-16T15:17:09Z</time>
      </trkpt>
      <trkpt lat="47.44745" lon="6.64463">
        <ele>297.8</ele>
        <time>2019-08-16T15:17:10Z</time>
      </trkpt>
      <trkpt lat="47.44744" lon="6.64457">
        <ele>297.7</ele>
        <time>2019-08-16T15:17:11Z</time>
      </trkpt>
      <trkpt lat="47.44744" lon="6.6445">
        <ele>297.6</ele>
        <time>2019-08-16T15:17:12Z</time>
      </trkpt>
      <trkpt lat="47.44744" lon="6.64444">
        <ele>297.5</ele>
        <time>2019-08-16T15:17:13Z</time>
      </trkpt>
      <trkpt lat="47.44744" lon="6.64437">
        <ele>297.5</ele>
        <time>2019-08-16T15:17:14Z</time>
      </trkpt>
      <trkpt lat="47.44744" lon="6.64431">
        <ele>297.4</ele>
        <time>2019-08-16T15:17:15Z</time>
      </trkpt>
      <trkpt lat="47.44743" lon="6.64425">
        <ele>297.4</ele>
        <time>2019-08-16T15:17:16Z</time>
      </trkpt>
      <trkpt lat="47.44742" lon="6.64418">
        <ele>297.4</ele>
        <time>2019-08-16T15:17:17Z</time>
      </trkpt>
      <trkpt lat="47.44742" lon="6.64411">
        <ele>297.4</ele>
        <time>2019-08-16T15:17:18Z</time>
      </trkpt>
      <trkpt lat="47.44741" lon="6.64404">
        <ele>297.5</ele>
        <time>2019-08-16T15:17:19Z</time>
      </trkpt>
      <trkpt lat="47.44741" lon="6.64397">
        <ele>297.5</ele>
        <time>2019-08-16T15:17:20Z</time>
      </trkpt>
      <trkpt lat="47.44741" lon="6.64391">
        <ele>297.6</ele>
        <time>2019-08-16T15:17:21Z</time>
      </trkpt>
      <trkpt lat="47.44741" lon="6.64384">
        <ele>297.6</ele>
        <time>2019-08-16T15:17:22Z</time>
      </trkpt>
      <trkpt lat="47.44741" lon="6.64377">
        <ele>297.7</ele>
        <time>2019-08-16T15:17:23Z</time>
      </trkpt>
      <trkpt lat="47.44741" lon="6.6437">
        <ele>297.7</ele>
        <time>2019-08-16T15:17:24Z</time>
      </trkpt>
      <trkpt lat="47.44741" lon="6.64364">
        <ele>297.7</ele>
        <time>2019-08-16T15:17:25Z</time>
      </trkpt>
      <trkpt lat="47.4474" lon="6.64358">
        <ele>297.8</ele>
        <time>2019-08-16T15:17:26Z</time>
      </trkpt>
      <trkpt lat="47.4474" lon="6.64351">
        <ele>297.8</ele>
        <time>2019-08-16T15:17:27Z</time>
      </trkpt>
      <trkpt lat="47.4474" lon="6.64345">
        <ele>297.8</ele>
        <time>2019-08-16T15:17:28Z</time>
      </trkpt>
      <trkpt lat="47.4474" lon="6.64339">
        <ele>297.7</ele>
        <time>2019-08-16T15:17:29Z</time>
      </trkpt>
      <trkpt lat="47.4474" lon="6.64332">
        <ele>297.7</ele>
        <time>2019-08-16T15:17:30Z</time>
      </trkpt>
      <trkpt lat="47.4474" lon="6.64325">
        <ele>297.6</ele>
        <time>2019-08-16T15:17:31Z</time>
      </trkpt>
      <trkpt lat="47.44739" lon="6.64318">
        <ele>297.6</ele>
        <time>2019-08-16T15:17:32Z</time>
      </trkpt>
      <trkpt lat="47.44739" lon="6.6431">
        <ele>297.5</ele>
        <time>2019-08-16T15:17:33Z</time>
      </trkpt>
      <trkpt lat="47.44738" lon="6.64304">
        <ele>297.5</ele>
        <time>2019-08-16T15:17:34Z</time>
      </trkpt>
      <trkpt lat="47.44737" lon="6.64297">
        <ele>297.4</ele>
        <time>2019-08-16T15:17:35Z</time>
      </trkpt>
      <trkpt lat="47.44735" lon="6.6429">
        <ele>297.4</ele>
        <time>2019-08-16T15:17:36Z</time>
      </trkpt>
      <trkpt lat="47.44735" lon="6.64283">
        <ele>297.4</ele>
        <time>2019-08-16T15:17:37Z</time>
      </trkpt>
      <trkpt lat="47.44734" lon="6.64276">
        <ele>297.4</ele>
        <time>2019-08-16T15:17:38Z</time>
      </trkpt>
      <trkpt lat="47.44734" lon="6.64269">
        <ele>297.4</ele>
        <time>2019-08-16T15:17:39Z</time>
      </trkpt>
      <trkpt lat="47.44733" lon="6.64261">
        <ele>297.5</ele>
        <time>2019-08-16T15:17:40Z</time>
      </trkpt>
      <trkpt lat="47.44732" lon="6.64254">
        <ele>297.5</ele>
        <time>2019-08-16T15:17:41Z</time>
      </trkpt>
      <trkpt lat="47.44732" lon="6.64247">
        <ele>297.5</ele>
        <time>2019-08-16T15:17:42Z</time>
      </trkpt>
      <trkpt lat="47.44732" lon="6.64238">
        <ele>297.5</ele>
        <time>2019-08-16T15:17:43Z</time>
      </trkpt>
      <trkpt lat="47.44732" lon="6.64231">
        <ele>297.5</ele>
        <time>2019-08-16T15:17:44Z</time>
      </trkpt>
      <trkpt lat="47.44731" lon="6.64224">
        <ele>297.5</ele>
        <time>2019-08-16T15:17:45Z</time>
      </trkpt>
      <trkpt lat="47.44729" lon="6.64217">
        <ele>297.5</ele>
        <time>2019-08-16T15:17:46Z</time>
      </trkpt>
      <trkpt lat="47.44728" lon="6.64209">
        <ele>297.5</ele>
        <time>2019-08-16T15:17:47Z</time>
      </trkpt>
      <trkpt lat="47.44727" lon="6.64203">
        <ele>297.5</ele>
        <time>2019-08-16T15:17:48Z</time>
      </trkpt>
      <trkpt lat="47.44727" lon="6.64194">
        <ele>297.5</ele>
        <time>2019-08-16T15:17:49Z</time>
      </trkpt>
      <trkpt lat="47.44727" lon="6.64187">
        <ele>297.6</ele>
        <time>2019-08-16T15:17:50Z</time>
      </trkpt>
      <trkpt lat="47.44727" lon="6.64181">
        <ele>297.6</ele>
        <time>2019-08-16T15:17:51Z</time>
      </trkpt>
      <trkpt lat="47.44726" lon="6.64174">
        <ele>297.6</ele>
        <time>2019-08-16T15:17:52Z</time>
      </trkpt>
      <trkpt lat="47.44726" lon="6.64167">
        <ele>297.6</ele>
        <time>2019-08-16T15:17:53Z</time>
      </trkpt>
      <trkpt lat="47.44725" lon="6.6416">
        <ele>297.6</ele>
        <time>2019-08-16T15:17:54Z</time>
      </trkpt>
      <trkpt lat="47.44724" lon="6.64153">
        <ele>297.6</ele>
        <time>2019-08-16T15:17:55Z</time>
      </trkpt>
      <trkpt lat="47.44723" lon="6.64145">
        <ele>297.6</ele>
        <time>2019-08-16T15:17:56Z</time>
      </trkpt>
      <trkpt lat="47.44722" lon="6.64138">
        <ele>297.5</ele>
        <time>2019-08-16T15:17:57Z</time>
      </trkpt>
      <trkpt lat="47.44721" lon="6.6413">
        <ele>297.5</ele>
        <time>2019-08-16T15:17:58Z</time>
      </trkpt>
      <trkpt lat="47.44721" lon="6.64123">
        <ele>297.5</ele>
        <time>2019-08-16T15:17:59Z</time>
      </trkpt>
      <trkpt lat="47.4472" lon="6.64115">
        <ele>297.5</ele>
        <time>2019-08-16T15:18:00Z</time>
      </trkpt>
      <trkpt lat="47.44719" lon="6.64107">
        <ele>297.5</ele>
        <time>2019-08-16T15:18:01Z</time>
      </trkpt>
      <trkpt lat="47.44718" lon="6.64099">
        <ele>297.5</ele>
        <time>2019-08-16T15:18:02Z</time>
      </trkpt>
      <trkpt lat="47.44717" lon="6.64092">
        <ele>297.5</ele>
        <time>2019-08-16T15:18:03Z</time>
      </trkpt>
      <trkpt lat="47.44716" lon="6.64085">
        <ele>297.5</ele>
        <time>2019-08-16T15:18:04Z</time>
      </trkpt>
      <trkpt lat="47.44715" lon="6.64077">
        <ele>297.5</ele>
        <time>2019-08-16T15:18:05Z</time>
      </trkpt>
      <trkpt lat="47.44715" lon="6.6407">
        <ele>297.5</ele>
        <time>2019-08-16T15:18:06Z</time>
      </trkpt>
      <trkpt lat="47.44714" lon="6.64064">
        <ele>297.5</ele>
        <time>2019-08-16T15:18:07Z</time>
      </trkpt>
      <trkpt lat="47.44713" lon="6.64056">
        <ele>297.5</ele>
        <time>2019-08-16T15:18:08Z</time>
      </trkpt>
      <trkpt lat="47.44712" lon="6.64048">
        <ele>297.5</ele>
        <time>2019-08-16T15:18:09Z</time>
      </trkpt>
      <trkpt lat="47.44712" lon="6.64042">
        <ele>297.5</ele>
        <time>2019-08-16T15:18:10Z</time>
      </trkpt>
      <trkpt lat="47.44711" lon="6.64035">
        <ele>297.5</ele>
        <time>2019-08-16T15:18:11Z</time>
      </trkpt>
      <trkpt lat="47.44711" lon="6.64028">
        <ele>297.6</ele>
        <time>2019-08-16T15:18:12Z</time>
      </trkpt>
      <trkpt lat="47.4471" lon="6.64022">
        <ele>297.6</ele>
        <time>2019-08-16T15:18:13Z</time>
      </trkpt>
      <trkpt lat="47.4471" lon="6.64015">
        <ele>297.6</ele>
        <time>2019-08-16T15:18:14Z</time>
      </trkpt>
      <trkpt lat="47.4471" lon="6.64008">
        <ele>297.6</ele>
        <time>2019-08-16T15:18:15Z</time>
      </trkpt>
      <trkpt lat="47.44709" lon="6.64002">
        <ele>297.6</ele>
        <time>2019-08-16T15:18:16Z</time>
      </trkpt>
      <trkpt lat="47.44709" lon="6.63996">
        <ele>297.6</ele>
        <time>2019-08-16T15:18:17Z</time>
      </trkpt>
      <trkpt lat="47.44709" lon="6.63989">
        <ele>297.6</ele>
        <time>2019-08-16T15:18:18Z</time>
      </trkpt>
      <trkpt lat="47.44709" lon="6.63984">
        <ele>297.7</ele>
        <time>2019-08-16T15:18:19Z</time>
      </trkpt>
      <trkpt lat="47.44709" lon="6.63977">
        <ele>297.7</ele>
        <time>2019-08-16T15:18:20Z</time>
      </trkpt>
      <trkpt lat="47.44709" lon="6.63971">
        <ele>297.7</ele>
        <time>2019-08-16T15:18:21Z</time>
      </trkpt>
      <trkpt lat="47.44709" lon="6.63965">
        <ele>297.7</ele>
        <time>2019-08-16T15:18:22Z</time>
      </trkpt>
      <trkpt lat="47.44709" lon="6.63957">
        <ele>297.7</ele>
        <time>2019-08-16T15:18:23Z</time>
      </trkpt>
      <trkpt lat="47.44709" lon="6.6395">
        <ele>297.8</ele>
        <time>2019-08-16T15:18:24Z</time>
      </trkpt>
      <trkpt lat="47.44708" lon="6.63943">
        <ele>297.8</ele>
        <time>2019-08-16T15:18:25Z</time>
      </trkpt>
      <trkpt lat="47.44708" lon="6.63936">
        <ele>297.8</ele>
        <time>2019-08-16T15:18:26Z</time>
      </trkpt>
      <trkpt lat="47.44707" lon="6.63929">
        <ele>297.8</ele>
        <time>2019-08-16T15:18:27Z</time>
      </trkpt>
      <trkpt lat="47.44707" lon="6.63922">
        <ele>297.8</ele>
        <time>2019-08-16T15:18:28Z</time>
      </trkpt>
      <trkpt lat="47.44707" lon="6.63914">
        <ele>297.8</ele>
        <time>2019-08-16T15:18:29Z</time>
      </trkpt>
      <trkpt lat="47.44707" lon="6.63907">
        <ele>297.8</ele>
        <time>2019-08-16T15:18:30Z</time>
      </trkpt>
      <trkpt lat="47.44707" lon="6.639">
        <ele>297.8</ele>
        <time>2019-08-16T15:18:31Z</time>
      </trkpt>
      <trkpt lat="47.44706" lon="6.63894">
        <ele>297.8</ele>
        <time>2019-08-16T15:18:32Z</time>
      </trkpt>
      <trkpt lat="47.44705" lon="6.63888">
        <ele>297.8</ele>
        <time>2019-08-16T15:18:33Z</time>
      </trkpt>
      <trkpt lat="47.44704" lon="6.63881">
        <ele>297.8</ele>
        <time>2019-08-16T15:18:34Z</time>
      </trkpt>
      <trkpt lat="47.44703" lon="6.63874">
        <ele>297.9</ele>
        <time>2019-08-16T15:18:35Z</time>
      </trkpt>
      <trkpt lat="47.44704" lon="6.63866">
        <ele>297.9</ele>
        <time>2019-08-16T15:18:36Z</time>
      </trkpt>
      <trkpt lat="47.44703" lon="6.63859">
        <ele>297.9</ele>
        <time>2019-08-16T15:18:37Z</time>
      </trkpt>
      <trkpt lat="47.44702" lon="6.63851">
        <ele>297.9</ele>
        <time>2019-08-16T15:18:38Z</time>
      </trkpt>
      <trkpt lat="47.44701" lon="6.63845">
        <ele>297.9</ele>
        <time>2019-08-16T15:18:39Z</time>
      </trkpt>
      <trkpt lat="47.44701" lon="6.63837">
        <ele>298</ele>
        <time>2019-08-16T15:18:40Z</time>
      </trkpt>
      <trkpt lat="47.44701" lon="6.6383">
        <ele>298</ele>
        <time>2019-08-16T15:18:41Z</time>
      </trkpt>
      <trkpt lat="47.447" lon="6.63823">
        <ele>298</ele>
        <time>2019-08-16T15:18:42Z</time>
      </trkpt>
      <trkpt lat="47.447" lon="6.63815">
        <ele>298</ele>
        <time>2019-08-16T15:18:43Z</time>
      </trkpt>
      <trkpt lat="47.44699" lon="6.63807">
        <ele>298.1</ele>
        <time>2019-08-16T15:18:44Z</time>
      </trkpt>
      <trkpt lat="47.44699" lon="6.63801">
        <ele>298.1</ele>
        <time>2019-08-16T15:18:45Z</time>
      </trkpt>
      <trkpt lat="47.44698" lon="6.63794">
        <ele>298.1</ele>
        <time>2019-08-16T15:18:46Z</time>
      </trkpt>
      <trkpt lat="47.44697" lon="6.63786">
        <ele>298.2</ele>
        <time>2019-08-16T15:18:47Z</time>
      </trkpt>
      <trkpt lat="47.44696" lon="6.63779">
        <ele>298.2</ele>
        <time>2019-08-16T15:18:48Z</time>
      </trkpt>
      <trkpt lat="47.44695" lon="6.63771">
        <ele>298.2</ele>
        <time>2019-08-16T15:18:49Z</time>
      </trkpt>
      <trkpt lat="47.44693" lon="6.63764">
        <ele>298.2</ele>
        <time>2019-08-16T15:18:50Z</time>
      </trkpt>
      <trkpt lat="47.44692" lon="6.63757">
        <ele>298.2</ele>
        <time>2019-08-16T15:18:51Z</time>
      </trkpt>
      <trkpt lat="47.44692" lon="6.6375">
        <ele>298.3</ele>
        <time>2019-08-16T15:18:52Z</time>
      </trkpt>
      <trkpt lat="47.44691" lon="6.63742">
        <ele>298.3</ele>
        <time>2019-08-16T15:18:53Z</time>
      </trkpt>
      <trkpt lat="47.4469" lon="6.63735">
        <ele>298.4</ele>
        <time>2019-08-16T15:18:54Z</time>
      </trkpt>
      <trkpt lat="47.44689" lon="6.63728">
        <ele>298.4</ele>
        <time>2019-08-16T15:18:55Z</time>
      </trkpt>
      <trkpt lat="47.44688" lon="6.63721">
        <ele>298.5</ele>
        <time>2019-08-16T15:18:56Z</time>
      </trkpt>
      <trkpt lat="47.44687" lon="6.63713">
        <ele>298.6</ele>
        <time>2019-08-16T15:18:57Z</time>
      </trkpt>
      <trkpt lat="47.44686" lon="6.63706">
        <ele>298.6</ele>
        <time>2019-08-16T15:18:58Z</time>
      </trkpt>
      <trkpt lat="47.44687" lon="6.637">
        <ele>298.6</ele>
        <time>2019-08-16T15:18:59Z</time>
      </trkpt>
      <trkpt lat="47.44686" lon="6.63693">
        <ele>298.7</ele>
        <time>2019-08-16T15:19:00Z</time>
      </trkpt>
      <trkpt lat="47.44686" lon="6.63686">
        <ele>298.7</ele>
        <time>2019-08-16T15:19:01Z</time>
      </trkpt>
      <trkpt lat="47.44685" lon="6.63677">
        <ele>298.8</ele>
        <time>2019-08-16T15:19:02Z</time>
      </trkpt>
      <trkpt lat="47.44685" lon="6.6367">
        <ele>298.8</ele>
        <time>2019-08-16T15:19:03Z</time>
      </trkpt>
      <trkpt lat="47.44685" lon="6.63662">
        <ele>298.8</ele>
        <time>2019-08-16T15:19:04Z</time>
      </trkpt>
      <trkpt lat="47.44684" lon="6.63655">
        <ele>298.9</ele>
        <time>2019-08-16T15:19:05Z</time>
      </trkpt>
      <trkpt lat="47.44685" lon="6.63648">
        <ele>298.9</ele>
        <time>2019-08-16T15:19:06Z</time>
      </trkpt>
      <trkpt lat="47.44684" lon="6.63642">
        <ele>299</ele>
        <time>2019-08-16T15:19:07Z</time>
      </trkpt>
      <trkpt lat="47.44683" lon="6.63634">
        <ele>299</ele>
        <time>2019-08-16T15:19:08Z</time>
      </trkpt>
      <trkpt lat="47.44683" lon="6.63627">
        <ele>299</ele>
        <time>2019-08-16T15:19:09Z</time>
      </trkpt>
      <trkpt lat="47.44683" lon="6.6362">
        <ele>299.1</ele>
        <time>2019-08-16T15:19:10Z</time>
      </trkpt>
      <trkpt lat="47.44682" lon="6.63611">
        <ele>299.1</ele>
        <time>2019-08-16T15:19:11Z</time>
      </trkpt>
      <trkpt lat="47.44681" lon="6.63605">
        <ele>299.1</ele>
        <time>2019-08-16T15:19:12Z</time>
      </trkpt>
      <trkpt lat="47.44681" lon="6.63598">
        <ele>299.2</ele>
        <time>2019-08-16T15:19:13Z</time>
      </trkpt>
      <trkpt lat="47.4468" lon="6.6359">
        <ele>299.2</ele>
        <time>2019-08-16T15:19:14Z</time>
      </trkpt>
      <trkpt lat="47.4468" lon="6.63582">
        <ele>299.2</ele>
        <time>2019-08-16T15:19:15Z</time>
      </trkpt>
      <trkpt lat="47.4468" lon="6.63575">
        <ele>299.2</ele>
        <time>2019-08-16T15:19:16Z</time>
      </trkpt>
      <trkpt lat="47.44679" lon="6.63567">
        <ele>299.2</ele>
        <time>2019-08-16T15:19:17Z</time>
      </trkpt>
      <trkpt lat="47.44679" lon="6.6356">
        <ele>299.2</ele>
        <time>2019-08-16T15:19:18Z</time>
      </trkpt>
      <trkpt lat="47.44679" lon="6.63552">
        <ele>299.2</ele>
        <time>2019-08-16T15:19:19Z</time>
      </trkpt>
      <trkpt lat="47.44678" lon="6.63544">
        <ele>299.2</ele>
        <time>2019-08-16T15:19:20Z</time>
      </trkpt>
      <trkpt lat="47.44677" lon="6.63537">
        <ele>299.2</ele>
        <time>2019-08-16T15:19:21Z</time>
      </trkpt>
      <trkpt lat="47.44676" lon="6.63529">
        <ele>299.2</ele>
        <time>2019-08-16T15:19:22Z</time>
      </trkpt>
      <trkpt lat="47.44676" lon="6.63523">
        <ele>299.2</ele>
        <time>2019-08-16T15:19:23Z</time>
      </trkpt>
      <trkpt lat="47.44676" lon="6.63516">
        <ele>299.2</ele>
        <time>2019-08-16T15:19:24Z</time>
      </trkpt>
      <trkpt lat="47.44675" lon="6.63509">
        <ele>299.2</ele>
        <time>2019-08-16T15:19:25Z</time>
      </trkpt>
      <trkpt lat="47.44675" lon="6.63503">
        <ele>299.2</ele>
        <time>2019-08-16T15:19:26Z</time>
      </trkpt>
      <trkpt lat="47.44675" lon="6.63495">
        <ele>299.1</ele>
        <time>2019-08-16T15:19:27Z</time>
      </trkpt>
      <trkpt lat="47.44675" lon="6.63488">
        <ele>299.1</ele>
        <time>2019-08-16T15:19:28Z</time>
      </trkpt>
      <trkpt lat="47.44675" lon="6.6348">
        <ele>299.1</ele>
        <time>2019-08-16T15:19:29Z</time>
      </trkpt>
      <trkpt lat="47.44675" lon="6.63473">
        <ele>299.1</ele>
        <time>2019-08-16T15:19:30Z</time>
      </trkpt>
      <trkpt lat="47.44673" lon="6.63466">
        <ele>299</ele>
        <time>2019-08-16T15:19:31Z</time>
      </trkpt>
      <trkpt lat="47.44673" lon="6.63459">
        <ele>299</ele>
        <time>2019-08-16T15:19:32Z</time>
      </trkpt>
      <trkpt lat="47.44672" lon="6.63451">
        <ele>299</ele>
        <time>2019-08-16T15:19:33Z</time>
      </trkpt>
      <trkpt lat="47.44672" lon="6.63442">
        <ele>299</ele>
        <time>2019-08-16T15:19:34Z</time>
      </trkpt>
      <trkpt lat="47.44671" lon="6.63433">
        <ele>299</ele>
        <time>2019-08-16T15:19:35Z</time>
      </trkpt>
      <trkpt lat="47.4467" lon="6.63424">
        <ele>298.9</ele>
        <time>2019-08-16T15:19:36Z</time>
      </trkpt>
      <trkpt lat="47.4467" lon="6.63416">
        <ele>298.9</ele>
        <time>2019-08-16T15:19:37Z</time>
      </trkpt>
      <trkpt lat="47.44668" lon="6.63407">
        <ele>298.9</ele>
        <time>2019-08-16T15:19:38Z</time>
      </trkpt>
      <trkpt lat="47.44667" lon="6.63399">
        <ele>298.9</ele>
        <time>2019-08-16T15:19:39Z</time>
      </trkpt>
      <trkpt lat="47.44666" lon="6.63391">
        <ele>298.9</ele>
        <time>2019-08-16T15:19:40Z</time>
      </trkpt>
      <trkpt lat="47.44665" lon="6.63383">
        <ele>298.8</ele>
        <time>2019-08-16T15:19:41Z</time>
      </trkpt>
      <trkpt lat="47.44664" lon="6.63375">
        <ele>298.8</ele>
        <time>2019-08-16T15:19:42Z</time>
      </trkpt>
      <trkpt lat="47.44663" lon="6.63368">
        <ele>298.7</ele>
        <time>2019-08-16T15:19:43Z</time>
      </trkpt>
      <trkpt lat="47.44661" lon="6.63361">
        <ele>298.7</ele>
        <time>2019-08-16T15:19:44Z</time>
      </trkpt>
      <trkpt lat="47.4466" lon="6.63353">
        <ele>298.7</ele>
        <time>2019-08-16T15:19:45Z</time>
      </trkpt>
      <trkpt lat="47.44658" lon="6.63345">
        <ele>298.7</ele>
        <time>2019-08-16T15:19:46Z</time>
      </trkpt>
      <trkpt lat="47.44657" lon="6.63338">
        <ele>298.7</ele>
        <time>2019-08-16T15:19:47Z</time>
      </trkpt>
      <trkpt lat="47.44656" lon="6.6333">
        <ele>298.7</ele>
        <time>2019-08-16T15:19:48Z</time>
      </trkpt>
      <trkpt lat="47.44656" lon="6.63322">
        <ele>298.8</ele>
        <time>2019-08-16T15:19:49Z</time>
      </trkpt>
      <trkpt lat="47.44655" lon="6.63315">
        <ele>298.9</ele>
        <time>2019-08-16T15:19:50Z</time>
      </trkpt>
      <trkpt lat="47.44655" lon="6.63308">
        <ele>298.9</ele>
        <time>2019-08-16T15:19:51Z</time>
      </trkpt>
      <trkpt lat="47.44654" lon="6.633">
        <ele>299</ele>
        <time>2019-08-16T15:19:52Z</time>
      </trkpt>
      <trkpt lat="47.44653" lon="6.63292">
        <ele>299.1</ele>
        <time>2019-08-16T15:19:53Z</time>
      </trkpt>
      <trkpt lat="47.44651" lon="6.63284">
        <ele>299.1</ele>
        <time>2019-08-16T15:19:54Z</time>
      </trkpt>
      <trkpt lat="47.4465" lon="6.63277">
        <ele>299.1</ele>
        <time>2019-08-16T15:19:55Z</time>
      </trkpt>
      <trkpt lat="47.4465" lon="6.63269">
        <ele>299.1</ele>
        <time>2019-08-16T15:19:56Z</time>
      </trkpt>
      <trkpt lat="47.44649" lon="6.63262">
        <ele>299.1</ele>
        <time>2019-08-16T15:19:57Z</time>
      </trkpt>
      <trkpt lat="47.44648" lon="6.63254">
        <ele>299.1</ele>
        <time>2019-08-16T15:19:58Z</time>
      </trkpt>
      <trkpt lat="47.44647" lon="6.63247">
        <ele>299.1</ele>
        <time>2019-08-16T15:19:59Z</time>
      </trkpt>
      <trkpt lat="47.44647" lon="6.63239">
        <ele>299.1</ele>
        <time>2019-08-16T15:20:00Z</time>
      </trkpt>
      <trkpt lat="47.44647" lon="6.63231">
        <ele>299.1</ele>
        <time>2019-08-16T15:20:01Z</time>
      </trkpt>
      <trkpt lat="47.44646" lon="6.63223">
        <ele>299.1</ele>
        <time>2019-08-16T15:20:02Z</time>
      </trkpt>
      <trkpt lat="47.44645" lon="6.63215">
        <ele>299.2</ele>
        <time>2019-08-16T15:20:03Z</time>
      </trkpt>
      <trkpt lat="47.44643" lon="6.63207">
        <ele>299.2</ele>
        <time>2019-08-16T15:20:04Z</time>
      </trkpt>
      <trkpt lat="47.44642" lon="6.63199">
        <ele>299.3</ele>
        <time>2019-08-16T15:20:05Z</time>
      </trkpt>
      <trkpt lat="47.44641" lon="6.63191">
        <ele>299.3</ele>
        <time>2019-08-16T15:20:06Z</time>
      </trkpt>
      <trkpt lat="47.44641" lon="6.63183">
        <ele>299.3</ele>
        <time>2019-08-16T15:20:07Z</time>
      </trkpt>
      <trkpt lat="47.4464" lon="6.63176">
        <ele>299.2</ele>
        <time>2019-08-16T15:20:08Z</time>
      </trkpt>
      <trkpt lat="47.44639" lon="6.63169">
        <ele>299.2</ele>
        <time>2019-08-16T15:20:09Z</time>
      </trkpt>
      <trkpt lat="47.44638" lon="6.63161">
        <ele>299.2</ele>
        <time>2019-08-16T15:20:10Z</time>
      </trkpt>
      <trkpt lat="47.44637" lon="6.63154">
        <ele>299.2</ele>
        <time>2019-08-16T15:20:11Z</time>
      </trkpt>
      <trkpt lat="47.44637" lon="6.63146">
        <ele>299.1</ele>
        <time>2019-08-16T15:20:12Z</time>
      </trkpt>
      <trkpt lat="47.44635" lon="6.63141">
        <ele>299.1</ele>
        <time>2019-08-16T15:20:13Z</time>
      </trkpt>
      <trkpt lat="47.44634" lon="6.63135">
        <ele>299.1</ele>
        <time>2019-08-16T15:20:14Z</time>
      </trkpt>
      <trkpt lat="47.44633" lon="6.63128">
        <ele>299</ele>
        <time>2019-08-16T15:20:15Z</time>
      </trkpt>
      <trkpt lat="47.4463" lon="6.63122">
        <ele>299</ele>
        <time>2019-08-16T15:20:16Z</time>
      </trkpt>
      <trkpt lat="47.44626" lon="6.63115">
        <ele>299</ele>
        <time>2019-08-16T15:20:17Z</time>
      </trkpt>
      <trkpt lat="47.44624" lon="6.63109">
        <ele>299</ele>
        <time>2019-08-16T15:20:18Z</time>
      </trkpt>
      <trkpt lat="47.44621" lon="6.63104">
        <ele>299</ele>
        <time>2019-08-16T15:20:19Z</time>
      </trkpt>
      <trkpt lat="47.44618" lon="6.63098">
        <ele>298.9</ele>
        <time>2019-08-16T15:20:20Z</time>
      </trkpt>
      <trkpt lat="47.44616" lon="6.63093">
        <ele>298.9</ele>
        <time>2019-08-16T15:20:21Z</time>
      </trkpt>
      <trkpt lat="47.44612" lon="6.63088">
        <ele>298.9</ele>
        <time>2019-08-16T15:20:22Z</time>
      </trkpt>
      <trkpt lat="47.44608" lon="6.63085">
        <ele>298.9</ele>
        <time>2019-08-16T15:20:23Z</time>
      </trkpt>
      <trkpt lat="47.44602" lon="6.63082">
        <ele>298.9</ele>
        <time>2019-08-16T15:20:24Z</time>
      </trkpt>
      <trkpt lat="47.44598" lon="6.63079">
        <ele>298.9</ele>
        <time>2019-08-16T15:20:25Z</time>
      </trkpt>
      <trkpt lat="47.44595" lon="6.63075">
        <ele>298.9</ele>
        <time>2019-08-16T15:20:26Z</time>
      </trkpt>
      <trkpt lat="47.44591" lon="6.6307">
        <ele>298.9</ele>
        <time>2019-08-16T15:20:27Z</time>
      </trkpt>
      <trkpt lat="47.44588" lon="6.63066">
        <ele>298.9</ele>
        <time>2019-08-16T15:20:28Z</time>
      </trkpt>
      <trkpt lat="47.44583" lon="6.63062">
        <ele>298.9</ele>
        <time>2019-08-16T15:20:29Z</time>
      </trkpt>
      <trkpt lat="47.4458" lon="6.63058">
        <ele>298.9</ele>
        <time>2019-08-16T15:20:30Z</time>
      </trkpt>
      <trkpt lat="47.44577" lon="6.63054">
        <ele>298.9</ele>
        <time>2019-08-16T15:20:31Z</time>
      </trkpt>
      <trkpt lat="47.44571" lon="6.63053">
        <ele>298.9</ele>
        <time>2019-08-16T15:20:32Z</time>
      </trkpt>
      <trkpt lat="47.44566" lon="6.63051">
        <ele>298.9</ele>
        <time>2019-08-16T15:20:33Z</time>
      </trkpt>
      <trkpt lat="47.4456" lon="6.63051">
        <ele>298.8</ele>
        <time>2019-08-16T15:20:34Z</time>
      </trkpt>
      <trkpt lat="47.44555" lon="6.63049">
        <ele>298.8</ele>
        <time>2019-08-16T15:20:35Z</time>
      </trkpt>
      <trkpt lat="47.44549" lon="6.63047">
        <ele>298.7</ele>
        <time>2019-08-16T15:20:36Z</time>
      </trkpt>
      <trkpt lat="47.44544" lon="6.63044">
        <ele>298.7</ele>
        <time>2019-08-16T15:20:37Z</time>
      </trkpt>
      <trkpt lat="47.44539" lon="6.63041">
        <ele>298.6</ele>
        <time>2019-08-16T15:20:38Z</time>
      </trkpt>
      <trkpt lat="47.44533" lon="6.63039">
        <ele>298.5</ele>
        <time>2019-08-16T15:20:39Z</time>
      </trkpt>
      <trkpt lat="47.44528" lon="6.63037">
        <ele>298.5</ele>
        <time>2019-08-16T15:20:40Z</time>
      </trkpt>
      <trkpt lat="47.44523" lon="6.63036">
        <ele>298.4</ele>
        <time>2019-08-16T15:20:41Z</time>
      </trkpt>
      <trkpt lat="47.44517" lon="6.63033">
        <ele>298.3</ele>
        <time>2019-08-16T15:20:42Z</time>
      </trkpt>
      <trkpt lat="47.44512" lon="6.6303">
        <ele>298.2</ele>
        <time>2019-08-16T15:20:43Z</time>
      </trkpt>
      <trkpt lat="47.44507" lon="6.63026">
        <ele>298.2</ele>
        <time>2019-08-16T15:20:44Z</time>
      </trkpt>
      <trkpt lat="47.44503" lon="6.63023">
        <ele>298.2</ele>
        <time>2019-08-16T15:20:45Z</time>
      </trkpt>
      <trkpt lat="47.44498" lon="6.63019">
        <ele>298.1</ele>
        <time>2019-08-16T15:20:46Z</time>
      </trkpt>
      <trkpt lat="47.44493" lon="6.63017">
        <ele>298.1</ele>
        <time>2019-08-16T15:20:47Z</time>
      </trkpt>
      <trkpt lat="47.44488" lon="6.63015">
        <ele>298.1</ele>
        <time>2019-08-16T15:20:48Z</time>
      </trkpt>
      <trkpt lat="47.44483" lon="6.63014">
        <ele>298.1</ele>
        <time>2019-08-16T15:20:49Z</time>
      </trkpt>
      <trkpt lat="47.44478" lon="6.63012">
        <ele>298.1</ele>
        <time>2019-08-16T15:20:50Z</time>
      </trkpt>
      <trkpt lat="47.44473" lon="6.6301">
        <ele>298.1</ele>
        <time>2019-08-16T15:20:51Z</time>
      </trkpt>
      <trkpt lat="47.44468" lon="6.63008">
        <ele>298.1</ele>
        <time>2019-08-16T15:20:52Z</time>
      </trkpt>
      <trkpt lat="47.44463" lon="6.63006">
        <ele>298.1</ele>
        <time>2019-08-16T15:20:53Z</time>
      </trkpt>
      <trkpt lat="47.44459" lon="6.63004">
        <ele>298.1</ele>
        <time>2019-08-16T15:20:54Z</time>
      </trkpt>
      <trkpt lat="47.44454" lon="6.63002">
        <ele>298.1</ele>
        <time>2019-08-16T15:20:55Z</time>
      </trkpt>
      <trkpt lat="47.44449" lon="6.63">
        <ele>298.1</ele>
        <time>2019-08-16T15:20:56Z</time>
      </trkpt>
      <trkpt lat="47.44444" lon="6.62998">
        <ele>298.1</ele>
        <time>2019-08-16T15:20:57Z</time>
      </trkpt>
      <trkpt lat="47.44439" lon="6.62997">
        <ele>298.1</ele>
        <time>2019-08-16T15:20:58Z</time>
      </trkpt>
      <trkpt lat="47.44434" lon="6.62996">
        <ele>298.1</ele>
        <time>2019-08-16T15:20:59Z</time>
      </trkpt>
      <trkpt lat="47.44429" lon="6.62995">
        <ele>298.1</ele>
        <time>2019-08-16T15:21:00Z</time>
      </trkpt>
      <trkpt lat="47.44424" lon="6.62992">
        <ele>298.1</ele>
        <time>2019-08-16T15:21:01Z</time>
      </trkpt>
      <trkpt lat="47.44419" lon="6.6299">
        <ele>298.1</ele>
        <time>2019-08-16T15:21:02Z</time>
      </trkpt>
      <trkpt lat="47.44415" lon="6.62989">
        <ele>298.1</ele>
        <time>2019-08-16T15:21:03Z</time>
      </trkpt>
      <trkpt lat="47.44409" lon="6.62987">
        <ele>298.1</ele>
        <time>2019-08-16T15:21:04Z</time>
      </trkpt>
      <trkpt lat="47.44404" lon="6.62985">
        <ele>298.1</ele>
        <time>2019-08-16T15:21:05Z</time>
      </trkpt>
      <trkpt lat="47.44398" lon="6.62983">
        <ele>298.1</ele>
        <time>2019-08-16T15:21:06Z</time>
      </trkpt>
      <trkpt lat="47.44393" lon="6.62982">
        <ele>298.1</ele>
        <time>2019-08-16T15:21:07Z</time>
      </trkpt>
      <trkpt lat="47.44387" lon="6.6298">
        <ele>298.1</ele>
        <time>2019-08-16T15:21:08Z</time>
      </trkpt>
      <trkpt lat="47.44382" lon="6.62978">
        <ele>298</ele>
        <time>2019-08-16T15:21:09Z</time>
      </trkpt>
      <trkpt lat="47.44377" lon="6.62976">
        <ele>298</ele>
        <time>2019-08-16T15:21:10Z</time>
      </trkpt>
      <trkpt lat="47.44371" lon="6.62973">
        <ele>298</ele>
        <time>2019-08-16T15:21:11Z</time>
      </trkpt>
      <trkpt lat="47.44366" lon="6.62971">
        <ele>298</ele>
        <time>2019-08-16T15:21:12Z</time>
      </trkpt>
      <trkpt lat="47.44362" lon="6.62969">
        <ele>297.9</ele>
        <time>2019-08-16T15:21:13Z</time>
      </trkpt>
      <trkpt lat="47.44357" lon="6.62966">
        <ele>297.9</ele>
        <time>2019-08-16T15:21:14Z</time>
      </trkpt>
      <trkpt lat="47.44352" lon="6.62963">
        <ele>297.8</ele>
        <time>2019-08-16T15:21:15Z</time>
      </trkpt>
      <trkpt lat="47.44348" lon="6.6296">
        <ele>297.8</ele>
        <time>2019-08-16T15:21:16Z</time>
      </trkpt>
      <trkpt lat="47.44343" lon="6.62957">
        <ele>297.7</ele>
        <time>2019-08-16T15:21:17Z</time>
      </trkpt>
      <trkpt lat="47.44338" lon="6.62955">
        <ele>297.7</ele>
        <time>2019-08-16T15:21:18Z</time>
      </trkpt>
      <trkpt lat="47.44333" lon="6.62952">
        <ele>297.6</ele>
        <time>2019-08-16T15:21:19Z</time>
      </trkpt>
      <trkpt lat="47.44329" lon="6.6295">
        <ele>297.6</ele>
        <time>2019-08-16T15:21:20Z</time>
      </trkpt>
      <trkpt lat="47.44325" lon="6.62947">
        <ele>297.6</ele>
        <time>2019-08-16T15:21:21Z</time>
      </trkpt>
      <trkpt lat="47.4432" lon="6.62945">
        <ele>297.6</ele>
        <time>2019-08-16T15:21:22Z</time>
      </trkpt>
      <trkpt lat="47.44316" lon="6.62944">
        <ele>297.6</ele>
        <time>2019-08-16T15:21:23Z</time>
      </trkpt>
      <trkpt lat="47.44312" lon="6.62942">
        <ele>297.6</ele>
        <time>2019-08-16T15:21:24Z</time>
      </trkpt>
      <trkpt lat="47.44308" lon="6.62941">
        <ele>297.6</ele>
        <time>2019-08-16T15:21:25Z</time>
      </trkpt>
      <trkpt lat="47.44303" lon="6.62939">
        <ele>297.6</ele>
        <time>2019-08-16T15:21:26Z</time>
      </trkpt>
      <trkpt lat="47.44298" lon="6.62937">
        <ele>297.7</ele>
        <time>2019-08-16T15:21:27Z</time>
      </trkpt>
      <trkpt lat="47.44293" lon="6.62934">
        <ele>297.7</ele>
        <time>2019-08-16T15:21:28Z</time>
      </trkpt>
      <trkpt lat="47.44288" lon="6.62931">
        <ele>297.8</ele>
        <time>2019-08-16T15:21:29Z</time>
      </trkpt>
      <trkpt lat="47.44282" lon="6.62927">
        <ele>297.8</ele>
        <time>2019-08-16T15:21:30Z</time>
      </trkpt>
      <trkpt lat="47.44277" lon="6.62925">
        <ele>297.8</ele>
        <time>2019-08-16T15:21:31Z</time>
      </trkpt>
      <trkpt lat="47.44272" lon="6.62923">
        <ele>297.8</ele>
        <time>2019-08-16T15:21:32Z</time>
      </trkpt>
      <trkpt lat="47.44266" lon="6.62921">
        <ele>297.8</ele>
        <time>2019-08-16T15:21:33Z</time>
      </trkpt>
      <trkpt lat="47.44261" lon="6.62919">
        <ele>297.8</ele>
        <time>2019-08-16T15:21:34Z</time>
      </trkpt>
      <trkpt lat="47.44256" lon="6.62917">
        <ele>297.8</ele>
        <time>2019-08-16T15:21:35Z</time>
      </trkpt>
      <trkpt lat="47.44251" lon="6.62914">
        <ele>297.8</ele>
        <time>2019-08-16T15:21:36Z</time>
      </trkpt>
      <trkpt lat="47.44246" lon="6.62911">
        <ele>297.8</ele>
        <time>2019-08-16T15:21:37Z</time>
      </trkpt>
      <trkpt lat="47.44242" lon="6.62909">
        <ele>297.8</ele>
        <time>2019-08-16T15:21:38Z</time>
      </trkpt>
      <trkpt lat="47.44236" lon="6.62909">
        <ele>297.8</ele>
        <time>2019-08-16T15:21:39Z</time>
      </trkpt>
      <trkpt lat="47.44231" lon="6.62907">
        <ele>297.7</ele>
        <time>2019-08-16T15:21:40Z</time>
      </trkpt>
      <trkpt lat="47.44226" lon="6.62904">
        <ele>297.7</ele>
        <time>2019-08-16T15:21:41Z</time>
      </trkpt>
      <trkpt lat="47.44221" lon="6.62902">
        <ele>297.7</ele>
        <time>2019-08-16T15:21:42Z</time>
      </trkpt>
      <trkpt lat="47.44216" lon="6.629">
        <ele>297.6</ele>
        <time>2019-08-16T15:21:43Z</time>
      </trkpt>
      <trkpt lat="47.44211" lon="6.62899">
        <ele>297.6</ele>
        <time>2019-08-16T15:21:44Z</time>
      </trkpt>
      <trkpt lat="47.44206" lon="6.62896">
        <ele>297.5</ele>
        <time>2019-08-16T15:21:45Z</time>
      </trkpt>
      <trkpt lat="47.442" lon="6.62895">
        <ele>297.5</ele>
        <time>2019-08-16T15:21:46Z</time>
      </trkpt>
      <trkpt lat="47.44195" lon="6.62893">
        <ele>297.4</ele>
        <time>2019-08-16T15:21:47Z</time>
      </trkpt>
      <trkpt lat="47.4419" lon="6.62892">
        <ele>297.4</ele>
        <time>2019-08-16T15:21:48Z</time>
      </trkpt>
      <trkpt lat="47.44184" lon="6.62891">
        <ele>297.3</ele>
        <time>2019-08-16T15:21:49Z</time>
      </trkpt>
      <trkpt lat="47.44178" lon="6.62891">
        <ele>297.2</ele>
        <time>2019-08-16T15:21:50Z</time>
      </trkpt>
      <trkpt lat="47.44172" lon="6.62893">
        <ele>297.2</ele>
        <time>2019-08-16T15:21:51Z</time>
      </trkpt>
      <trkpt lat="47.44167" lon="6.62894">
        <ele>297.1</ele>
        <time>2019-08-16T15:21:52Z</time>
      </trkpt>
      <trkpt lat="47.44161" lon="6.62894">
        <ele>297.1</ele>
        <time>2019-08-16T15:21:53Z</time>
      </trkpt>
      <trkpt lat="47.44156" lon="6.62893">
        <ele>297</ele>
        <time>2019-08-16T15:21:54Z</time>
      </trkpt>
      <trkpt lat="47.44152" lon="6.62892">
        <ele>297</ele>
        <time>2019-08-16T15:21:55Z</time>
      </trkpt>
      <trkpt lat="47.44147" lon="6.62889">
        <ele>296.9</ele>
        <time>2019-08-16T15:21:56Z</time>
      </trkpt>
      <trkpt lat="47.44142" lon="6.62887">
        <ele>296.8</ele>
        <time>2019-08-16T15:21:57Z</time>
      </trkpt>
      <trkpt lat="47.44138" lon="6.62884">
        <ele>296.7</ele>
        <time>2019-08-16T15:21:58Z</time>
      </trkpt>
      <trkpt lat="47.44133" lon="6.62882">
        <ele>296.6</ele>
        <time>2019-08-16T15:21:59Z</time>
      </trkpt>
      <trkpt lat="47.44128" lon="6.62881">
        <ele>296.5</ele>
        <time>2019-08-16T15:22:00Z</time>
      </trkpt>
      <trkpt lat="47.44123" lon="6.6288">
        <ele>296.4</ele>
        <time>2019-08-16T15:22:01Z</time>
      </trkpt>
      <trkpt lat="47.44119" lon="6.62879">
        <ele>296.3</ele>
        <time>2019-08-16T15:22:02Z</time>
      </trkpt>
      <trkpt lat="47.44114" lon="6.62878">
        <ele>296.2</ele>
        <time>2019-08-16T15:22:03Z</time>
      </trkpt>
      <trkpt lat="47.44109" lon="6.62876">
        <ele>296.1</ele>
        <time>2019-08-16T15:22:04Z</time>
      </trkpt>
      <trkpt lat="47.44105" lon="6.62876">
        <ele>296</ele>
        <time>2019-08-16T15:22:05Z</time>
      </trkpt>
      <trkpt lat="47.441" lon="6.62874">
        <ele>295.9</ele>
        <time>2019-08-16T15:22:06Z</time>
      </trkpt>
      <trkpt lat="47.44095" lon="6.62872">
        <ele>295.8</ele>
        <time>2019-08-16T15:22:07Z</time>
      </trkpt>
      <trkpt lat="47.4409" lon="6.62869">
        <ele>295.7</ele>
        <time>2019-08-16T15:22:08Z</time>
      </trkpt>
      <trkpt lat="47.44086" lon="6.62866">
        <ele>295.6</ele>
        <time>2019-08-16T15:22:09Z</time>
      </trkpt>
      <trkpt lat="47.44081" lon="6.62861">
        <ele>295.5</ele>
        <time>2019-08-16T15:22:10Z</time>
      </trkpt>
      <trkpt lat="47.44077" lon="6.62857">
        <ele>295.4</ele>
        <time>2019-08-16T15:22:11Z</time>
      </trkpt>
      <trkpt lat="47.44074" lon="6.62853">
        <ele>295.4</ele>
        <time>2019-08-16T15:22:12Z</time>
      </trkpt>
      <trkpt lat="47.44069" lon="6.6285">
        <ele>295.3</ele>
        <time>2019-08-16T15:22:13Z</time>
      </trkpt>
      <trkpt lat="47.44065" lon="6.62847">
        <ele>295.3</ele>
        <time>2019-08-16T15:22:14Z</time>
      </trkpt>
      <trkpt lat="47.4406" lon="6.62845">
        <ele>295.2</ele>
        <time>2019-08-16T15:22:15Z</time>
      </trkpt>
      <trkpt lat="47.44054" lon="6.62843">
        <ele>295.2</ele>
        <time>2019-08-16T15:22:16Z</time>
      </trkpt>
      <trkpt lat="47.44049" lon="6.6284">
        <ele>295.1</ele>
        <time>2019-08-16T15:22:17Z</time>
      </trkpt>
      <trkpt lat="47.44044" lon="6.62838">
        <ele>295.1</ele>
        <time>2019-08-16T15:22:18Z</time>
      </trkpt>
      <trkpt lat="47.44039" lon="6.62837">
        <ele>295</ele>
        <time>2019-08-16T15:22:19Z</time>
      </trkpt>
      <trkpt lat="47.44034" lon="6.62836">
        <ele>295</ele>
        <time>2019-08-16T15:22:20Z</time>
      </trkpt>
      <trkpt lat="47.44029" lon="6.62835">
        <ele>295</ele>
        <time>2019-08-16T15:22:21Z</time>
      </trkpt>
      <trkpt lat="47.44024" lon="6.62833">
        <ele>295</ele>
        <time>2019-08-16T15:22:22Z</time>
      </trkpt>
      <trkpt lat="47.44019" lon="6.62832">
        <ele>294.9</ele>
        <time>2019-08-16T15:22:23Z</time>
      </trkpt>
      <trkpt lat="47.44014" lon="6.62829">
        <ele>294.9</ele>
        <time>2019-08-16T15:22:24Z</time>
      </trkpt>
      <trkpt lat="47.44009" lon="6.62828">
        <ele>294.9</ele>
        <time>2019-08-16T15:22:25Z</time>
      </trkpt>
      <trkpt lat="47.44005" lon="6.62826">
        <ele>294.8</ele>
        <time>2019-08-16T15:22:26Z</time>
      </trkpt>
      <trkpt lat="47.44001" lon="6.62824">
        <ele>294.8</ele>
        <time>2019-08-16T15:22:27Z</time>
      </trkpt>
      <trkpt lat="47.43997" lon="6.62823">
        <ele>294.8</ele>
        <time>2019-08-16T15:22:28Z</time>
      </trkpt>
      <trkpt lat="47.43992" lon="6.62823">
        <ele>294.8</ele>
        <time>2019-08-16T15:22:29Z</time>
      </trkpt>
      <trkpt lat="47.43988" lon="6.62822">
        <ele>294.8</ele>
        <time>2019-08-16T15:22:30Z</time>
      </trkpt>
      <trkpt lat="47.43983" lon="6.62821">
        <ele>294.8</ele>
        <time>2019-08-16T15:22:31Z</time>
      </trkpt>
      <trkpt lat="47.43978" lon="6.62819">
        <ele>294.8</ele>
        <time>2019-08-16T15:22:32Z</time>
      </trkpt>
      <trkpt lat="47.43974" lon="6.62817">
        <ele>294.8</ele>
        <time>2019-08-16T15:22:33Z</time>
      </trkpt>
      <trkpt lat="47.4397" lon="6.62814">
        <ele>294.8</ele>
        <time>2019-08-16T15:22:34Z</time>
      </trkpt>
      <trkpt lat="47.43966" lon="6.62812">
        <ele>294.7</ele>
        <time>2019-08-16T15:22:35Z</time>
      </trkpt>
      <trkpt lat="47.43962" lon="6.6281">
        <ele>294.7</ele>
        <time>2019-08-16T15:22:36Z</time>
      </trkpt>
      <trkpt lat="47.43958" lon="6.62809">
        <ele>294.7</ele>
        <time>2019-08-16T15:22:37Z</time>
      </trkpt>
      <trkpt lat="47.43955" lon="6.62808">
        <ele>294.6</ele>
        <time>2019-08-16T15:22:38Z</time>
      </trkpt>
      <trkpt lat="47.43951" lon="6.62807">
        <ele>294.6</ele>
        <time>2019-08-16T15:22:39Z</time>
      </trkpt>
      <trkpt lat="47.43947" lon="6.62807">
        <ele>294.7</ele>
        <time>2019-08-16T15:22:40Z</time>
      </trkpt>
      <trkpt lat="47.43943" lon="6.62806">
        <ele>294.7</ele>
        <time>2019-08-16T15:22:41Z</time>
      </trkpt>
      <trkpt lat="47.43938" lon="6.62807">
        <ele>294.7</ele>
        <time>2019-08-16T15:22:42Z</time>
      </trkpt>
      <trkpt lat="47.43933" lon="6.62807">
        <ele>294.8</ele>
        <time>2019-08-16T15:22:43Z</time>
      </trkpt>
      <trkpt lat="47.43929" lon="6.62808">
        <ele>294.8</ele>
        <time>2019-08-16T15:22:44Z</time>
      </trkpt>
      <trkpt lat="47.43924" lon="6.6281">
        <ele>294.8</ele>
        <time>2019-08-16T15:22:45Z</time>
      </trkpt>
      <trkpt lat="47.4392" lon="6.62812">
        <ele>294.9</ele>
        <time>2019-08-16T15:22:46Z</time>
      </trkpt>
      <trkpt lat="47.43915" lon="6.62815">
        <ele>294.9</ele>
        <time>2019-08-16T15:22:47Z</time>
      </trkpt>
      <trkpt lat="47.4391" lon="6.62818">
        <ele>295</ele>
        <time>2019-08-16T15:22:48Z</time>
      </trkpt>
      <trkpt lat="47.43906" lon="6.62821">
        <ele>295</ele>
        <time>2019-08-16T15:22:49Z</time>
      </trkpt>
      <trkpt lat="47.43902" lon="6.62825">
        <ele>295.1</ele>
        <time>2019-08-16T15:22:50Z</time>
      </trkpt>
      <trkpt lat="47.43897" lon="6.62828">
        <ele>295.1</ele>
        <time>2019-08-16T15:22:51Z</time>
      </trkpt>
      <trkpt lat="47.43892" lon="6.62832">
        <ele>295.2</ele>
        <time>2019-08-16T15:22:52Z</time>
      </trkpt>
      <trkpt lat="47.43888" lon="6.62836">
        <ele>295.3</ele>
        <time>2019-08-16T15:22:53Z</time>
      </trkpt>
      <trkpt lat="47.43884" lon="6.6284">
        <ele>295.4</ele>
        <time>2019-08-16T15:22:54Z</time>
      </trkpt>
      <trkpt lat="47.4388" lon="6.62843">
        <ele>295.4</ele>
        <time>2019-08-16T15:22:55Z</time>
      </trkpt>
      <trkpt lat="47.43877" lon="6.62846">
        <ele>295.5</ele>
        <time>2019-08-16T15:22:56Z</time>
      </trkpt>
      <trkpt lat="47.43871" lon="6.62848">
        <ele>295.6</ele>
        <time>2019-08-16T15:22:57Z</time>
      </trkpt>
      <trkpt lat="47.43867" lon="6.62851">
        <ele>295.7</ele>
        <time>2019-08-16T15:22:58Z</time>
      </trkpt>
      <trkpt lat="47.43862" lon="6.62853">
        <ele>295.8</ele>
        <time>2019-08-16T15:22:59Z</time>
      </trkpt>
      <trkpt lat="47.43858" lon="6.62855">
        <ele>295.9</ele>
        <time>2019-08-16T15:23:00Z</time>
      </trkpt>
      <trkpt lat="47.43854" lon="6.62857">
        <ele>296</ele>
        <time>2019-08-16T15:23:01Z</time>
      </trkpt>
      <trkpt lat="47.4385" lon="6.62859">
        <ele>296.1</ele>
        <time>2019-08-16T15:23:02Z</time>
      </trkpt>
      <trkpt lat="47.43845" lon="6.62861">
        <ele>296.2</ele>
        <time>2019-08-16T15:23:03Z</time>
      </trkpt>
      <trkpt lat="47.43841" lon="6.62865">
        <ele>296.2</ele>
        <time>2019-08-16T15:23:04Z</time>
      </trkpt>
      <trkpt lat="47.43836" lon="6.62867">
        <ele>296.3</ele>
        <time>2019-08-16T15:23:05Z</time>
      </trkpt>
      <trkpt lat="47.43832" lon="6.6287">
        <ele>296.3</ele>
        <time>2019-08-16T15:23:06Z</time>
      </trkpt>
      <trkpt lat="47.43828" lon="6.62872">
        <ele>296.4</ele>
        <time>2019-08-16T15:23:07Z</time>
      </trkpt>
      <trkpt lat="47.43824" lon="6.62875">
        <ele>296.4</ele>
        <time>2019-08-16T15:23:08Z</time>
      </trkpt>
      <trkpt lat="47.43821" lon="6.62878">
        <ele>296.5</ele>
        <time>2019-08-16T15:23:09Z</time>
      </trkpt>
      <trkpt lat="47.43818" lon="6.62881">
        <ele>296.5</ele>
        <time>2019-08-16T15:23:10Z</time>
      </trkpt>
      <trkpt lat="47.43815" lon="6.62883">
        <ele>296.6</ele>
        <time>2019-08-16T15:23:11Z</time>
      </trkpt>
      <trkpt lat="47.43813" lon="6.62885">
        <ele>296.6</ele>
        <time>2019-08-16T15:23:12Z</time>
      </trkpt>
      <trkpt lat="47.43809" lon="6.62886">
        <ele>296.7</ele>
        <time>2019-08-16T15:23:14Z</time>
      </trkpt>
      <trkpt lat="47.43806" lon="6.62891">
        <ele>296.6</ele>
        <time>2019-08-16T15:23:16Z</time>
      </trkpt>
      <trkpt lat="47.43802" lon="6.62893">
        <ele>296.6</ele>
        <time>2019-08-16T15:23:17Z</time>
      </trkpt>
      <trkpt lat="47.43798" lon="6.62897">
        <ele>296.6</ele>
        <time>2019-08-16T15:23:18Z</time>
      </trkpt>
      <trkpt lat="47.43792" lon="6.629">
        <ele>296.6</ele>
        <time>2019-08-16T15:23:19Z</time>
      </trkpt>
      <trkpt lat="47.43785" lon="6.62903">
        <ele>296.6</ele>
        <time>2019-08-16T15:23:20Z</time>
      </trkpt>
      <trkpt lat="47.43778" lon="6.62906">
        <ele>296.5</ele>
        <time>2019-08-16T15:23:21Z</time>
      </trkpt>
      <trkpt lat="47.43773" lon="6.62908">
        <ele>296.5</ele>
        <time>2019-08-16T15:23:22Z</time>
      </trkpt>
      <trkpt lat="47.43768" lon="6.62911">
        <ele>296.5</ele>
        <time>2019-08-16T15:23:23Z</time>
      </trkpt>
      <trkpt lat="47.43764" lon="6.62914">
        <ele>296.5</ele>
        <time>2019-08-16T15:23:24Z</time>
      </trkpt>
      <trkpt lat="47.43759" lon="6.62915">
        <ele>296.5</ele>
        <time>2019-08-16T15:23:25Z</time>
      </trkpt>
      <trkpt lat="47.43754" lon="6.62917">
        <ele>296.5</ele>
        <time>2019-08-16T15:23:26Z</time>
      </trkpt>
      <trkpt lat="47.43749" lon="6.6292">
        <ele>296.5</ele>
        <time>2019-08-16T15:23:27Z</time>
      </trkpt>
      <trkpt lat="47.43745" lon="6.62922">
        <ele>296.5</ele>
        <time>2019-08-16T15:23:28Z</time>
      </trkpt>
      <trkpt lat="47.4374" lon="6.62924">
        <ele>296.5</ele>
        <time>2019-08-16T15:23:29Z</time>
      </trkpt>
      <trkpt lat="47.43735" lon="6.62926">
        <ele>296.5</ele>
        <time>2019-08-16T15:23:30Z</time>
      </trkpt>
      <trkpt lat="47.43731" lon="6.62929">
        <ele>296.5</ele>
        <time>2019-08-16T15:23:31Z</time>
      </trkpt>
      <trkpt lat="47.43726" lon="6.62932">
        <ele>296.5</ele>
        <time>2019-08-16T15:23:32Z</time>
      </trkpt>
      <trkpt lat="47.43721" lon="6.62934">
        <ele>296.5</ele>
        <time>2019-08-16T15:23:33Z</time>
      </trkpt>
      <trkpt lat="47.43717" lon="6.62937">
        <ele>296.5</ele>
        <time>2019-08-16T15:23:34Z</time>
      </trkpt>
      <trkpt lat="47.43712" lon="6.62941">
        <ele>296.5</ele>
        <time>2019-08-16T15:23:35Z</time>
      </trkpt>
      <trkpt lat="47.43707" lon="6.62944">
        <ele>296.5</ele>
        <time>2019-08-16T15:23:36Z</time>
      </trkpt>
      <trkpt lat="47.43703" lon="6.62948">
        <ele>296.5</ele>
        <time>2019-08-16T15:23:37Z</time>
      </trkpt>
      <trkpt lat="47.43698" lon="6.62952">
        <ele>296.5</ele>
        <time>2019-08-16T15:23:38Z</time>
      </trkpt>
      <trkpt lat="47.43693" lon="6.62956">
        <ele>296.5</ele>
        <time>2019-08-16T15:23:39Z</time>
      </trkpt>
      <trkpt lat="47.43689" lon="6.62959">
        <ele>296.5</ele>
        <time>2019-08-16T15:23:40Z</time>
      </trkpt>
      <trkpt lat="47.43685" lon="6.62962">
        <ele>296.5</ele>
        <time>2019-08-16T15:23:41Z</time>
      </trkpt>
      <trkpt lat="47.4368" lon="6.62965">
        <ele>296.5</ele>
        <time>2019-08-16T15:23:42Z</time>
      </trkpt>
      <trkpt lat="47.43676" lon="6.62969">
        <ele>296.5</ele>
        <time>2019-08-16T15:23:43Z</time>
      </trkpt>
      <trkpt lat="47.43671" lon="6.62972">
        <ele>296.5</ele>
        <time>2019-08-16T15:23:44Z</time>
      </trkpt>
      <trkpt lat="47.43667" lon="6.62975">
        <ele>296.5</ele>
        <time>2019-08-16T15:23:45Z</time>
      </trkpt>
      <trkpt lat="47.43662" lon="6.62978">
        <ele>296.6</ele>
        <time>2019-08-16T15:23:46Z</time>
      </trkpt>
      <trkpt lat="47.43658" lon="6.62981">
        <ele>296.6</ele>
        <time>2019-08-16T15:23:47Z</time>
      </trkpt>
      <trkpt lat="47.43654" lon="6.62983">
        <ele>296.6</ele>
        <time>2019-08-16T15:23:48Z</time>
      </trkpt>
      <trkpt lat="47.43649" lon="6.62985">
        <ele>296.6</ele>
        <time>2019-08-16T15:23:49Z</time>
      </trkpt>
      <trkpt lat="47.43645" lon="6.62988">
        <ele>296.6</ele>
        <time>2019-08-16T15:23:50Z</time>
      </trkpt>
      <trkpt lat="47.4364" lon="6.62991">
        <ele>296.6</ele>
        <time>2019-08-16T15:23:51Z</time>
      </trkpt>
      <trkpt lat="47.43637" lon="6.62993">
        <ele>296.6</ele>
        <time>2019-08-16T15:23:52Z</time>
      </trkpt>
      <trkpt lat="47.43633" lon="6.62996">
        <ele>296.6</ele>
        <time>2019-08-16T15:23:53Z</time>
      </trkpt>
      <trkpt lat="47.43629" lon="6.62999">
        <ele>296.7</ele>
        <time>2019-08-16T15:23:54Z</time>
      </trkpt>
      <trkpt lat="47.43625" lon="6.63003">
        <ele>296.7</ele>
        <time>2019-08-16T15:23:55Z</time>
      </trkpt>
      <trkpt lat="47.43621" lon="6.63006">
        <ele>296.7</ele>
        <time>2019-08-16T15:23:56Z</time>
      </trkpt>
      <trkpt lat="47.43616" lon="6.63009">
        <ele>296.7</ele>
        <time>2019-08-16T15:23:57Z</time>
      </trkpt>
      <trkpt lat="47.43611" lon="6.63012">
        <ele>296.7</ele>
        <time>2019-08-16T15:23:58Z</time>
      </trkpt>
      <trkpt lat="47.43607" lon="6.63016">
        <ele>296.8</ele>
        <time>2019-08-16T15:23:59Z</time>
      </trkpt>
      <trkpt lat="47.43603" lon="6.6302">
        <ele>296.8</ele>
        <time>2019-08-16T15:24:00Z</time>
      </trkpt>
      <trkpt lat="47.43599" lon="6.63025">
        <ele>296.9</ele>
        <time>2019-08-16T15:24:01Z</time>
      </trkpt>
      <trkpt lat="47.43594" lon="6.63028">
        <ele>296.9</ele>
        <time>2019-08-16T15:24:02Z</time>
      </trkpt>
      <trkpt lat="47.4359" lon="6.63032">
        <ele>297</ele>
        <time>2019-08-16T15:24:03Z</time>
      </trkpt>
      <trkpt lat="47.43586" lon="6.63036">
        <ele>297</ele>
        <time>2019-08-16T15:24:04Z</time>
      </trkpt>
      <trkpt lat="47.43581" lon="6.6304">
        <ele>297.1</ele>
        <time>2019-08-16T15:24:05Z</time>
      </trkpt>
      <trkpt lat="47.43576" lon="6.63044">
        <ele>297.2</ele>
        <time>2019-08-16T15:24:06Z</time>
      </trkpt>
      <trkpt lat="47.43571" lon="6.63046">
        <ele>297.2</ele>
        <time>2019-08-16T15:24:07Z</time>
      </trkpt>
      <trkpt lat="47.43567" lon="6.6305">
        <ele>297.3</ele>
        <time>2019-08-16T15:24:08Z</time>
      </trkpt>
      <trkpt lat="47.43563" lon="6.63053">
        <ele>297.3</ele>
        <time>2019-08-16T15:24:09Z</time>
      </trkpt>
      <trkpt lat="47.43558" lon="6.63056">
        <ele>297.4</ele>
        <time>2019-08-16T15:24:10Z</time>
      </trkpt>
      <trkpt lat="47.43554" lon="6.63059">
        <ele>297.4</ele>
        <time>2019-08-16T15:24:11Z</time>
      </trkpt>
      <trkpt lat="47.43549" lon="6.63062">
        <ele>297.4</ele>
        <time>2019-08-16T15:24:12Z</time>
      </trkpt>
      <trkpt lat="47.43545" lon="6.63065">
        <ele>297.4</ele>
        <time>2019-08-16T15:24:13Z</time>
      </trkpt>
      <trkpt lat="47.4354" lon="6.63068">
        <ele>297.4</ele>
        <time>2019-08-16T15:24:14Z</time>
      </trkpt>
      <trkpt lat="47.43536" lon="6.6307">
        <ele>297.4</ele>
        <time>2019-08-16T15:24:15Z</time>
      </trkpt>
      <trkpt lat="47.43531" lon="6.63073">
        <ele>297.4</ele>
        <time>2019-08-16T15:24:16Z</time>
      </trkpt>
      <trkpt lat="47.43526" lon="6.63076">
        <ele>297.4</ele>
        <time>2019-08-16T15:24:17Z</time>
      </trkpt>
      <trkpt lat="47.4352" lon="6.63078">
        <ele>297.4</ele>
        <time>2019-08-16T15:24:18Z</time>
      </trkpt>
      <trkpt lat="47.43517" lon="6.63081">
        <ele>297.4</ele>
        <time>2019-08-16T15:24:19Z</time>
      </trkpt>
      <trkpt lat="47.43512" lon="6.63083">
        <ele>297.3</ele>
        <time>2019-08-16T15:24:20Z</time>
      </trkpt>
      <trkpt lat="47.43507" lon="6.63084">
        <ele>297.3</ele>
        <time>2019-08-16T15:24:21Z</time>
      </trkpt>
      <trkpt lat="47.43502" lon="6.63085">
        <ele>297.3</ele>
        <time>2019-08-16T15:24:22Z</time>
      </trkpt>
      <trkpt lat="47.43497" lon="6.63087">
        <ele>297.2</ele>
        <time>2019-08-16T15:24:23Z</time>
      </trkpt>
      <trkpt lat="47.43493" lon="6.63089">
        <ele>297.2</ele>
        <time>2019-08-16T15:24:24Z</time>
      </trkpt>
      <trkpt lat="47.43488" lon="6.63091">
        <ele>297.2</ele>
        <time>2019-08-16T15:24:25Z</time>
      </trkpt>
      <trkpt lat="47.43483" lon="6.63093">
        <ele>297.1</ele>
        <time>2019-08-16T15:24:26Z</time>
      </trkpt>
      <trkpt lat="47.43477" lon="6.63095">
        <ele>297.1</ele>
        <time>2019-08-16T15:24:27Z</time>
      </trkpt>
      <trkpt lat="47.43472" lon="6.63098">
        <ele>297.1</ele>
        <time>2019-08-16T15:24:28Z</time>
      </trkpt>
      <trkpt lat="47.43467" lon="6.63101">
        <ele>297</ele>
        <time>2019-08-16T15:24:29Z</time>
      </trkpt>
      <trkpt lat="47.43462" lon="6.63103">
        <ele>297</ele>
        <time>2019-08-16T15:24:30Z</time>
      </trkpt>
      <trkpt lat="47.43457" lon="6.63105">
        <ele>297</ele>
        <time>2019-08-16T15:24:31Z</time>
      </trkpt>
      <trkpt lat="47.43452" lon="6.63107">
        <ele>296.9</ele>
        <time>2019-08-16T15:24:32Z</time>
      </trkpt>
      <trkpt lat="47.43447" lon="6.63109">
        <ele>296.9</ele>
        <time>2019-08-16T15:24:33Z</time>
      </trkpt>
      <trkpt lat="47.43442" lon="6.63113">
        <ele>296.9</ele>
        <time>2019-08-16T15:24:34Z</time>
      </trkpt>
      <trkpt lat="47.43439" lon="6.63117">
        <ele>296.8</ele>
        <time>2019-08-16T15:24:35Z</time>
      </trkpt>
      <trkpt lat="47.43436" lon="6.6312">
        <ele>296.8</ele>
        <time>2019-08-16T15:24:36Z</time>
      </trkpt>
      <trkpt lat="47.43432" lon="6.63122">
        <ele>296.8</ele>
        <time>2019-08-16T15:24:37Z</time>
      </trkpt>
      <trkpt lat="47.43428" lon="6.63123">
        <ele>296.8</ele>
        <time>2019-08-16T15:24:38Z</time>
      </trkpt>
      <trkpt lat="47.43424" lon="6.63125">
        <ele>296.8</ele>
        <time>2019-08-16T15:24:39Z</time>
      </trkpt>
      <trkpt lat="47.43419" lon="6.63126">
        <ele>296.7</ele>
        <time>2019-08-16T15:24:40Z</time>
      </trkpt>
      <trkpt lat="47.43415" lon="6.63127">
        <ele>296.7</ele>
        <time>2019-08-16T15:24:41Z</time>
      </trkpt>
      <trkpt lat="47.43411" lon="6.6313">
        <ele>296.7</ele>
        <time>2019-08-16T15:24:42Z</time>
      </trkpt>
      <trkpt lat="47.43407" lon="6.63132">
        <ele>296.7</ele>
        <time>2019-08-16T15:24:43Z</time>
      </trkpt>
      <trkpt lat="47.43403" lon="6.63133">
        <ele>296.7</ele>
        <time>2019-08-16T15:24:44Z</time>
      </trkpt>
      <trkpt lat="47.43399" lon="6.63136">
        <ele>296.7</ele>
        <time>2019-08-16T15:24:45Z</time>
      </trkpt>
      <trkpt lat="47.43395" lon="6.63137">
        <ele>296.7</ele>
        <time>2019-08-16T15:24:46Z</time>
      </trkpt>
      <trkpt lat="47.43391" lon="6.63139">
        <ele>296.7</ele>
        <time>2019-08-16T15:24:47Z</time>
      </trkpt>
      <trkpt lat="47.43387" lon="6.63142">
        <ele>296.7</ele>
        <time>2019-08-16T15:24:48Z</time>
      </trkpt>
      <trkpt lat="47.43383" lon="6.63144">
        <ele>296.7</ele>
        <time>2019-08-16T15:24:49Z</time>
      </trkpt>
      <trkpt lat="47.43378" lon="6.63147">
        <ele>296.7</ele>
        <time>2019-08-16T15:24:50Z</time>
      </trkpt>
      <trkpt lat="47.43374" lon="6.63149">
        <ele>296.7</ele>
        <time>2019-08-16T15:24:51Z</time>
      </trkpt>
      <trkpt lat="47.43369" lon="6.63151">
        <ele>296.7</ele>
        <time>2019-08-16T15:24:52Z</time>
      </trkpt>
      <trkpt lat="47.43365" lon="6.63152">
        <ele>296.7</ele>
        <time>2019-08-16T15:24:53Z</time>
      </trkpt>
      <trkpt lat="47.43362" lon="6.63153">
        <ele>296.7</ele>
        <time>2019-08-16T15:24:54Z</time>
      </trkpt>
      <trkpt lat="47.43358" lon="6.63153">
        <ele>296.7</ele>
        <time>2019-08-16T15:24:55Z</time>
      </trkpt>
      <trkpt lat="47.43354" lon="6.63154">
        <ele>296.7</ele>
        <time>2019-08-16T15:24:56Z</time>
      </trkpt>
      <trkpt lat="47.43351" lon="6.63155">
        <ele>296.7</ele>
        <time>2019-08-16T15:24:57Z</time>
      </trkpt>
      <trkpt lat="47.43347" lon="6.63156">
        <ele>296.7</ele>
        <time>2019-08-16T15:24:58Z</time>
      </trkpt>
      <trkpt lat="47.43344" lon="6.63157">
        <ele>296.7</ele>
        <time>2019-08-16T15:24:59Z</time>
      </trkpt>
      <trkpt lat="47.43341" lon="6.63159">
        <ele>296.7</ele>
        <time>2019-08-16T15:25:00Z</time>
      </trkpt>
      <trkpt lat="47.43337" lon="6.6316">
        <ele>296.7</ele>
        <time>2019-08-16T15:25:01Z</time>
      </trkpt>
      <trkpt lat="47.43333" lon="6.63161">
        <ele>296.7</ele>
        <time>2019-08-16T15:25:02Z</time>
      </trkpt>
      <trkpt lat="47.4333" lon="6.63162">
        <ele>296.7</ele>
        <time>2019-08-16T15:25:03Z</time>
      </trkpt>
      <trkpt lat="47.43327" lon="6.63163">
        <ele>296.7</ele>
        <time>2019-08-16T15:25:04Z</time>
      </trkpt>
      <trkpt lat="47.43323" lon="6.63163">
        <ele>296.7</ele>
        <time>2019-08-16T15:25:05Z</time>
      </trkpt>
      <trkpt lat="47.43318" lon="6.63165">
        <ele>296.7</ele>
        <time>2019-08-16T15:25:07Z</time>
      </trkpt>
      <trkpt lat="47.43314" lon="6.63166">
        <ele>296.7</ele>
        <time>2019-08-16T15:25:08Z</time>
      </trkpt>
      <trkpt lat="47.43311" lon="6.63165">
        <ele>296.7</ele>
        <time>2019-08-16T15:25:09Z</time>
      </trkpt>
      <trkpt lat="47.43307" lon="6.63166">
        <ele>296.8</ele>
        <time>2019-08-16T15:25:10Z</time>
      </trkpt>
      <trkpt lat="47.43304" lon="6.63167">
        <ele>296.8</ele>
        <time>2019-08-16T15:25:11Z</time>
      </trkpt>
      <trkpt lat="47.43299" lon="6.63168">
        <ele>296.8</ele>
        <time>2019-08-16T15:25:12Z</time>
      </trkpt>
      <trkpt lat="47.43296" lon="6.63169">
        <ele>296.8</ele>
        <time>2019-08-16T15:25:13Z</time>
      </trkpt>
      <trkpt lat="47.43291" lon="6.63171">
        <ele>296.8</ele>
        <time>2019-08-16T15:25:14Z</time>
      </trkpt>
      <trkpt lat="47.43287" lon="6.63171">
        <ele>296.8</ele>
        <time>2019-08-16T15:25:15Z</time>
      </trkpt>
      <trkpt lat="47.43283" lon="6.63171">
        <ele>296.8</ele>
        <time>2019-08-16T15:25:16Z</time>
      </trkpt>
      <trkpt lat="47.43279" lon="6.63171">
        <ele>296.8</ele>
        <time>2019-08-16T15:25:17Z</time>
      </trkpt>
      <trkpt lat="47.43275" lon="6.63171">
        <ele>296.8</ele>
        <time>2019-08-16T15:25:18Z</time>
      </trkpt>
      <trkpt lat="47.43271" lon="6.63172">
        <ele>296.8</ele>
        <time>2019-08-16T15:25:19Z</time>
      </trkpt>
      <trkpt lat="47.43267" lon="6.63172">
        <ele>296.8</ele>
        <time>2019-08-16T15:25:20Z</time>
      </trkpt>
      <trkpt lat="47.43263" lon="6.63172">
        <ele>296.8</ele>
        <time>2019-08-16T15:25:21Z</time>
      </trkpt>
      <trkpt lat="47.43259" lon="6.63171">
        <ele>296.8</ele>
        <time>2019-08-16T15:25:22Z</time>
      </trkpt>
      <trkpt lat="47.43256" lon="6.63171">
        <ele>296.8</ele>
        <time>2019-08-16T15:25:23Z</time>
      </trkpt>
      <trkpt lat="47.43251" lon="6.63172">
        <ele>296.9</ele>
        <time>2019-08-16T15:25:24Z</time>
      </trkpt>
      <trkpt lat="47.43246" lon="6.63173">
        <ele>296.9</ele>
        <time>2019-08-16T15:25:25Z</time>
      </trkpt>
      <trkpt lat="47.43243" lon="6.63175">
        <ele>296.9</ele>
        <time>2019-08-16T15:25:26Z</time>
      </trkpt>
      <trkpt lat="47.43238" lon="6.63176">
        <ele>296.9</ele>
        <time>2019-08-16T15:25:27Z</time>
      </trkpt>
      <trkpt lat="47.43233" lon="6.63177">
        <ele>296.9</ele>
        <time>2019-08-16T15:25:28Z</time>
      </trkpt>
      <trkpt lat="47.43229" lon="6.63177">
        <ele>296.9</ele>
        <time>2019-08-16T15:25:29Z</time>
      </trkpt>
      <trkpt lat="47.43224" lon="6.63175">
        <ele>296.9</ele>
        <time>2019-08-16T15:25:30Z</time>
      </trkpt>
      <trkpt lat="47.43221" lon="6.63175">
        <ele>296.9</ele>
        <time>2019-08-16T15:25:31Z</time>
      </trkpt>
      <trkpt lat="47.43217" lon="6.63175">
        <ele>296.9</ele>
        <time>2019-08-16T15:25:32Z</time>
      </trkpt>
      <trkpt lat="47.43212" lon="6.63174">
        <ele>296.9</ele>
        <time>2019-08-16T15:25:33Z</time>
      </trkpt>
      <trkpt lat="47.43208" lon="6.63174">
        <ele>296.9</ele>
        <time>2019-08-16T15:25:34Z</time>
      </trkpt>
      <trkpt lat="47.43203" lon="6.63174">
        <ele>296.9</ele>
        <time>2019-08-16T15:25:35Z</time>
      </trkpt>
      <trkpt lat="47.43198" lon="6.63175">
        <ele>296.9</ele>
        <time>2019-08-16T15:25:36Z</time>
      </trkpt>
      <trkpt lat="47.43194" lon="6.63175">
        <ele>296.9</ele>
        <time>2019-08-16T15:25:37Z</time>
      </trkpt>
      <trkpt lat="47.4319" lon="6.63175">
        <ele>296.9</ele>
        <time>2019-08-16T15:25:38Z</time>
      </trkpt>
      <trkpt lat="47.43186" lon="6.63175">
        <ele>296.9</ele>
        <time>2019-08-16T15:25:39Z</time>
      </trkpt>
      <trkpt lat="47.43181" lon="6.63174">
        <ele>296.9</ele>
        <time>2019-08-16T15:25:40Z</time>
      </trkpt>
      <trkpt lat="47.43176" lon="6.63173">
        <ele>296.9</ele>
        <time>2019-08-16T15:25:41Z</time>
      </trkpt>
      <trkpt lat="47.43171" lon="6.63172">
        <ele>296.9</ele>
        <time>2019-08-16T15:25:42Z</time>
      </trkpt>
      <trkpt lat="47.43166" lon="6.6317">
        <ele>296.9</ele>
        <time>2019-08-16T15:25:43Z</time>
      </trkpt>
      <trkpt lat="47.43162" lon="6.63169">
        <ele>296.9</ele>
        <time>2019-08-16T15:25:44Z</time>
      </trkpt>
      <trkpt lat="47.43158" lon="6.63168">
        <ele>296.9</ele>
        <time>2019-08-16T15:25:45Z</time>
      </trkpt>
      <trkpt lat="47.43154" lon="6.63167">
        <ele>296.9</ele>
        <time>2019-08-16T15:25:46Z</time>
      </trkpt>
      <trkpt lat="47.43149" lon="6.63165">
        <ele>296.9</ele>
        <time>2019-08-16T15:25:47Z</time>
      </trkpt>
      <trkpt lat="47.43145" lon="6.63164">
        <ele>296.9</ele>
        <time>2019-08-16T15:25:48Z</time>
      </trkpt>
      <trkpt lat="47.43141" lon="6.63163">
        <ele>296.9</ele>
        <time>2019-08-16T15:25:49Z</time>
      </trkpt>
      <trkpt lat="47.43136" lon="6.63162">
        <ele>296.9</ele>
        <time>2019-08-16T15:25:50Z</time>
      </trkpt>
      <trkpt lat="47.43132" lon="6.63161">
        <ele>296.9</ele>
        <time>2019-08-16T15:25:51Z</time>
      </trkpt>
      <trkpt lat="47.43128" lon="6.63159">
        <ele>296.8</ele>
        <time>2019-08-16T15:25:52Z</time>
      </trkpt>
      <trkpt lat="47.43124" lon="6.63158">
        <ele>296.8</ele>
        <time>2019-08-16T15:25:53Z</time>
      </trkpt>
      <trkpt lat="47.4312" lon="6.63156">
        <ele>296.8</ele>
        <time>2019-08-16T15:25:54Z</time>
      </trkpt>
      <trkpt lat="47.43116" lon="6.63155">
        <ele>296.8</ele>
        <time>2019-08-16T15:25:55Z</time>
      </trkpt>
      <trkpt lat="47.43111" lon="6.63154">
        <ele>296.8</ele>
        <time>2019-08-16T15:25:56Z</time>
      </trkpt>
      <trkpt lat="47.43106" lon="6.63153">
        <ele>296.8</ele>
        <time>2019-08-16T15:25:57Z</time>
      </trkpt>
      <trkpt lat="47.43101" lon="6.63152">
        <ele>296.8</ele>
        <time>2019-08-16T15:25:58Z</time>
      </trkpt>
      <trkpt lat="47.43096" lon="6.6315">
        <ele>296.7</ele>
        <time>2019-08-16T15:25:59Z</time>
      </trkpt>
      <trkpt lat="47.43091" lon="6.63149">
        <ele>296.7</ele>
        <time>2019-08-16T15:26:00Z</time>
      </trkpt>
      <trkpt lat="47.43087" lon="6.63146">
        <ele>296.7</ele>
        <time>2019-08-16T15:26:01Z</time>
      </trkpt>
      <trkpt lat="47.43082" lon="6.63146">
        <ele>296.7</ele>
        <time>2019-08-16T15:26:02Z</time>
      </trkpt>
      <trkpt lat="47.43077" lon="6.63144">
        <ele>296.7</ele>
        <time>2019-08-16T15:26:03Z</time>
      </trkpt>
      <trkpt lat="47.43072" lon="6.63142">
        <ele>296.6</ele>
        <time>2019-08-16T15:26:04Z</time>
      </trkpt>
      <trkpt lat="47.43067" lon="6.63141">
        <ele>296.6</ele>
        <time>2019-08-16T15:26:05Z</time>
      </trkpt>
      <trkpt lat="47.43063" lon="6.63139">
        <ele>296.6</ele>
        <time>2019-08-16T15:26:06Z</time>
      </trkpt>
      <trkpt lat="47.43059" lon="6.63138">
        <ele>296.6</ele>
        <time>2019-08-16T15:26:07Z</time>
      </trkpt>
      <trkpt lat="47.43055" lon="6.63137">
        <ele>296.6</ele>
        <time>2019-08-16T15:26:08Z</time>
      </trkpt>
      <trkpt lat="47.43051" lon="6.63137">
        <ele>296.6</ele>
        <time>2019-08-16T15:26:09Z</time>
      </trkpt>
      <trkpt lat="47.43046" lon="6.63137">
        <ele>296.5</ele>
        <time>2019-08-16T15:26:10Z</time>
      </trkpt>
      <trkpt lat="47.43042" lon="6.63134">
        <ele>296.5</ele>
        <time>2019-08-16T15:26:11Z</time>
      </trkpt>
      <trkpt lat="47.43038" lon="6.63133">
        <ele>296.5</ele>
        <time>2019-08-16T15:26:12Z</time>
      </trkpt>
      <trkpt lat="47.43034" lon="6.63131">
        <ele>296.5</ele>
        <time>2019-08-16T15:26:13Z</time>
      </trkpt>
      <trkpt lat="47.43029" lon="6.63129">
        <ele>296.5</ele>
        <time>2019-08-16T15:26:14Z</time>
      </trkpt>
      <trkpt lat="47.43025" lon="6.63128">
        <ele>296.5</ele>
        <time>2019-08-16T15:26:15Z</time>
      </trkpt>
      <trkpt lat="47.43021" lon="6.63125">
        <ele>296.5</ele>
        <time>2019-08-16T15:26:16Z</time>
      </trkpt>
      <trkpt lat="47.43017" lon="6.63123">
        <ele>296.5</ele>
        <time>2019-08-16T15:26:17Z</time>
      </trkpt>
      <trkpt lat="47.43013" lon="6.63121">
        <ele>296.5</ele>
        <time>2019-08-16T15:26:18Z</time>
      </trkpt>
      <trkpt lat="47.43008" lon="6.63119">
        <ele>296.5</ele>
        <time>2019-08-16T15:26:19Z</time>
      </trkpt>
      <trkpt lat="47.43004" lon="6.63115">
        <ele>296.5</ele>
        <time>2019-08-16T15:26:20Z</time>
      </trkpt>
      <trkpt lat="47.42999" lon="6.63114">
        <ele>296.5</ele>
        <time>2019-08-16T15:26:21Z</time>
      </trkpt>
      <trkpt lat="47.42995" lon="6.6311">
        <ele>296.5</ele>
        <time>2019-08-16T15:26:22Z</time>
      </trkpt>
      <trkpt lat="47.42991" lon="6.63107">
        <ele>296.5</ele>
        <time>2019-08-16T15:26:23Z</time>
      </trkpt>
      <trkpt lat="47.42986" lon="6.63103">
        <ele>296.5</ele>
        <time>2019-08-16T15:26:24Z</time>
      </trkpt>
      <trkpt lat="47.42981" lon="6.63099">
        <ele>296.5</ele>
        <time>2019-08-16T15:26:25Z</time>
      </trkpt>
      <trkpt lat="47.42976" lon="6.63096">
        <ele>296.5</ele>
        <time>2019-08-16T15:26:26Z</time>
      </trkpt>
      <trkpt lat="47.42971" lon="6.63092">
        <ele>296.5</ele>
        <time>2019-08-16T15:26:27Z</time>
      </trkpt>
      <trkpt lat="47.42967" lon="6.63088">
        <ele>296.6</ele>
        <time>2019-08-16T15:26:28Z</time>
      </trkpt>
      <trkpt lat="47.42962" lon="6.63082">
        <ele>296.6</ele>
        <time>2019-08-16T15:26:29Z</time>
      </trkpt>
      <trkpt lat="47.42957" lon="6.63077">
        <ele>296.7</ele>
        <time>2019-08-16T15:26:30Z</time>
      </trkpt>
      <trkpt lat="47.42952" lon="6.63073">
        <ele>296.7</ele>
        <time>2019-08-16T15:26:31Z</time>
      </trkpt>
      <trkpt lat="47.42947" lon="6.63069">
        <ele>296.7</ele>
        <time>2019-08-16T15:26:32Z</time>
      </trkpt>
      <trkpt lat="47.42942" lon="6.63066">
        <ele>296.6</ele>
        <time>2019-08-16T15:26:33Z</time>
      </trkpt>
      <trkpt lat="47.42937" lon="6.63063">
        <ele>296.6</ele>
        <time>2019-08-16T15:26:34Z</time>
      </trkpt>
      <trkpt lat="47.42932" lon="6.6306">
        <ele>296.5</ele>
        <time>2019-08-16T15:26:35Z</time>
      </trkpt>
      <trkpt lat="47.42927" lon="6.63057">
        <ele>296.5</ele>
        <time>2019-08-16T15:26:36Z</time>
      </trkpt>
      <trkpt lat="47.42923" lon="6.63054">
        <ele>296.4</ele>
        <time>2019-08-16T15:26:37Z</time>
      </trkpt>
      <trkpt lat="47.42918" lon="6.6305">
        <ele>296.4</ele>
        <time>2019-08-16T15:26:38Z</time>
      </trkpt>
      <trkpt lat="47.42914" lon="6.63045">
        <ele>296.3</ele>
        <time>2019-08-16T15:26:39Z</time>
      </trkpt>
      <trkpt lat="47.42909" lon="6.6304">
        <ele>296.3</ele>
        <time>2019-08-16T15:26:40Z</time>
      </trkpt>
      <trkpt lat="47.42904" lon="6.63036">
        <ele>296.2</ele>
        <time>2019-08-16T15:26:41Z</time>
      </trkpt>
      <trkpt lat="47.429" lon="6.63033">
        <ele>296.2</ele>
        <time>2019-08-16T15:26:42Z</time>
      </trkpt>
      <trkpt lat="47.42896" lon="6.63029">
        <ele>296.2</ele>
        <time>2019-08-16T15:26:43Z</time>
      </trkpt>
      <trkpt lat="47.42891" lon="6.63025">
        <ele>296.2</ele>
        <time>2019-08-16T15:26:44Z</time>
      </trkpt>
      <trkpt lat="47.42887" lon="6.63021">
        <ele>296.1</ele>
        <time>2019-08-16T15:26:45Z</time>
      </trkpt>
      <trkpt lat="47.42882" lon="6.63016">
        <ele>296.1</ele>
        <time>2019-08-16T15:26:46Z</time>
      </trkpt>
      <trkpt lat="47.42878" lon="6.63012">
        <ele>296.1</ele>
        <time>2019-08-16T15:26:47Z</time>
      </trkpt>
      <trkpt lat="47.42874" lon="6.63008">
        <ele>296.1</ele>
        <time>2019-08-16T15:26:48Z</time>
      </trkpt>
      <trkpt lat="47.42869" lon="6.63004">
        <ele>296.1</ele>
        <time>2019-08-16T15:26:49Z</time>
      </trkpt>
      <trkpt lat="47.42865" lon="6.63">
        <ele>296.1</ele>
        <time>2019-08-16T15:26:50Z</time>
      </trkpt>
      <trkpt lat="47.42861" lon="6.62995">
        <ele>296.1</ele>
        <time>2019-08-16T15:26:51Z</time>
      </trkpt>
      <trkpt lat="47.42857" lon="6.62991">
        <ele>296.2</ele>
        <time>2019-08-16T15:26:52Z</time>
      </trkpt>
      <trkpt lat="47.42852" lon="6.62984">
        <ele>296.3</ele>
        <time>2019-08-16T15:26:53Z</time>
      </trkpt>
      <trkpt lat="47.42848" lon="6.62979">
        <ele>296.4</ele>
        <time>2019-08-16T15:26:54Z</time>
      </trkpt>
      <trkpt lat="47.42844" lon="6.62973">
        <ele>296.6</ele>
        <time>2019-08-16T15:26:55Z</time>
      </trkpt>
      <trkpt lat="47.4284" lon="6.62969">
        <ele>296.7</ele>
        <time>2019-08-16T15:26:56Z</time>
      </trkpt>
      <trkpt lat="47.42835" lon="6.62964">
        <ele>296.8</ele>
        <time>2019-08-16T15:26:57Z</time>
      </trkpt>
      <trkpt lat="47.42831" lon="6.6296">
        <ele>297</ele>
        <time>2019-08-16T15:26:58Z</time>
      </trkpt>
      <trkpt lat="47.42826" lon="6.62956">
        <ele>297</ele>
        <time>2019-08-16T15:26:59Z</time>
      </trkpt>
      <trkpt lat="47.42822" lon="6.62952">
        <ele>297</ele>
        <time>2019-08-16T15:27:00Z</time>
      </trkpt>
      <trkpt lat="47.42818" lon="6.62948">
        <ele>296.9</ele>
        <time>2019-08-16T15:27:01Z</time>
      </trkpt>
      <trkpt lat="47.42813" lon="6.62942">
        <ele>296.9</ele>
        <time>2019-08-16T15:27:02Z</time>
      </trkpt>
      <trkpt lat="47.42809" lon="6.62937">
        <ele>296.8</ele>
        <time>2019-08-16T15:27:03Z</time>
      </trkpt>
      <trkpt lat="47.42804" lon="6.62932">
        <ele>296.8</ele>
        <time>2019-08-16T15:27:04Z</time>
      </trkpt>
      <trkpt lat="47.42801" lon="6.62927">
        <ele>296.7</ele>
        <time>2019-08-16T15:27:05Z</time>
      </trkpt>
      <trkpt lat="47.42797" lon="6.62922">
        <ele>296.7</ele>
        <time>2019-08-16T15:27:06Z</time>
      </trkpt>
      <trkpt lat="47.42793" lon="6.62917">
        <ele>296.7</ele>
        <time>2019-08-16T15:27:07Z</time>
      </trkpt>
      <trkpt lat="47.4279" lon="6.62912">
        <ele>296.8</ele>
        <time>2019-08-16T15:27:08Z</time>
      </trkpt>
      <trkpt lat="47.42787" lon="6.62906">
        <ele>296.8</ele>
        <time>2019-08-16T15:27:09Z</time>
      </trkpt>
      <trkpt lat="47.42784" lon="6.629">
        <ele>296.9</ele>
        <time>2019-08-16T15:27:10Z</time>
      </trkpt>
      <trkpt lat="47.42781" lon="6.62893">
        <ele>297.1</ele>
        <time>2019-08-16T15:27:11Z</time>
      </trkpt>
      <trkpt lat="47.42778" lon="6.62887">
        <ele>297.2</ele>
        <time>2019-08-16T15:27:12Z</time>
      </trkpt>
      <trkpt lat="47.42775" lon="6.62881">
        <ele>297.4</ele>
        <time>2019-08-16T15:27:13Z</time>
      </trkpt>
      <trkpt lat="47.42772" lon="6.62875">
        <ele>297.6</ele>
        <time>2019-08-16T15:27:14Z</time>
      </trkpt>
      <trkpt lat="47.42769" lon="6.62868">
        <ele>297.8</ele>
        <time>2019-08-16T15:27:15Z</time>
      </trkpt>
      <trkpt lat="47.42767" lon="6.62863">
        <ele>298</ele>
        <time>2019-08-16T15:27:16Z</time>
      </trkpt>
      <trkpt lat="47.42764" lon="6.62857">
        <ele>298.2</ele>
        <time>2019-08-16T15:27:17Z</time>
      </trkpt>
      <trkpt lat="47.42761" lon="6.6285">
        <ele>298.3</ele>
        <time>2019-08-16T15:27:18Z</time>
      </trkpt>
      <trkpt lat="47.42758" lon="6.62843">
        <ele>298.4</ele>
        <time>2019-08-16T15:27:19Z</time>
      </trkpt>
      <trkpt lat="47.42754" lon="6.62836">
        <ele>298.5</ele>
        <time>2019-08-16T15:27:20Z</time>
      </trkpt>
      <trkpt lat="47.42751" lon="6.6283">
        <ele>298.5</ele>
        <time>2019-08-16T15:27:21Z</time>
      </trkpt>
      <trkpt lat="47.42748" lon="6.62824">
        <ele>298.5</ele>
        <time>2019-08-16T15:27:22Z</time>
      </trkpt>
      <trkpt lat="47.42746" lon="6.62818">
        <ele>298.5</ele>
        <time>2019-08-16T15:27:23Z</time>
      </trkpt>
      <trkpt lat="47.42743" lon="6.62812">
        <ele>298.6</ele>
        <time>2019-08-16T15:27:24Z</time>
      </trkpt>
      <trkpt lat="47.4274" lon="6.62806">
        <ele>298.6</ele>
        <time>2019-08-16T15:27:25Z</time>
      </trkpt>
      <trkpt lat="47.42737" lon="6.628">
        <ele>298.6</ele>
        <time>2019-08-16T15:27:26Z</time>
      </trkpt>
      <trkpt lat="47.42734" lon="6.62794">
        <ele>298.6</ele>
        <time>2019-08-16T15:27:27Z</time>
      </trkpt>
      <trkpt lat="47.42732" lon="6.62787">
        <ele>298.5</ele>
        <time>2019-08-16T15:27:28Z</time>
      </trkpt>
      <trkpt lat="47.42729" lon="6.6278">
        <ele>298.5</ele>
        <time>2019-08-16T15:27:29Z</time>
      </trkpt>
      <trkpt lat="47.42727" lon="6.62773">
        <ele>298.5</ele>
        <time>2019-08-16T15:27:30Z</time>
      </trkpt>
      <trkpt lat="47.42724" lon="6.62765">
        <ele>298.4</ele>
        <time>2019-08-16T15:27:31Z</time>
      </trkpt>
      <trkpt lat="47.42722" lon="6.62759">
        <ele>298.4</ele>
        <time>2019-08-16T15:27:32Z</time>
      </trkpt>
      <trkpt lat="47.4272" lon="6.62752">
        <ele>298.4</ele>
        <time>2019-08-16T15:27:33Z</time>
      </trkpt>
      <trkpt lat="47.42718" lon="6.62746">
        <ele>298.4</ele>
        <time>2019-08-16T15:27:34Z</time>
      </trkpt>
      <trkpt lat="47.42716" lon="6.6274">
        <ele>298.5</ele>
        <time>2019-08-16T15:27:35Z</time>
      </trkpt>
      <trkpt lat="47.42714" lon="6.62734">
        <ele>298.5</ele>
        <time>2019-08-16T15:27:36Z</time>
      </trkpt>
      <trkpt lat="47.42712" lon="6.62727">
        <ele>298.5</ele>
        <time>2019-08-16T15:27:37Z</time>
      </trkpt>
      <trkpt lat="47.4271" lon="6.62721">
        <ele>298.6</ele>
        <time>2019-08-16T15:27:38Z</time>
      </trkpt>
      <trkpt lat="47.42708" lon="6.62714">
        <ele>298.6</ele>
        <time>2019-08-16T15:27:39Z</time>
      </trkpt>
      <trkpt lat="47.42706" lon="6.62707">
        <ele>298.6</ele>
        <time>2019-08-16T15:27:40Z</time>
      </trkpt>
      <trkpt lat="47.42705" lon="6.62701">
        <ele>298.7</ele>
        <time>2019-08-16T15:27:41Z</time>
      </trkpt>
      <trkpt lat="47.42703" lon="6.62694">
        <ele>298.7</ele>
        <time>2019-08-16T15:27:42Z</time>
      </trkpt>
      <trkpt lat="47.42701" lon="6.62686">
        <ele>298.7</ele>
        <time>2019-08-16T15:27:43Z</time>
      </trkpt>
      <trkpt lat="47.42699" lon="6.62679">
        <ele>298.7</ele>
        <time>2019-08-16T15:27:44Z</time>
      </trkpt>
      <trkpt lat="47.42698" lon="6.62674">
        <ele>298.7</ele>
        <time>2019-08-16T15:27:45Z</time>
      </trkpt>
      <trkpt lat="47.42696" lon="6.62667">
        <ele>298.7</ele>
        <time>2019-08-16T15:27:46Z</time>
      </trkpt>
      <trkpt lat="47.42695" lon="6.6266">
        <ele>298.7</ele>
        <time>2019-08-16T15:27:47Z</time>
      </trkpt>
      <trkpt lat="47.42693" lon="6.62652">
        <ele>298.7</ele>
        <time>2019-08-16T15:27:48Z</time>
      </trkpt>
      <trkpt lat="47.42692" lon="6.62645">
        <ele>298.7</ele>
        <time>2019-08-16T15:27:49Z</time>
      </trkpt>
      <trkpt lat="47.4269" lon="6.62639">
        <ele>298.6</ele>
        <time>2019-08-16T15:27:50Z</time>
      </trkpt>
      <trkpt lat="47.42689" lon="6.62632">
        <ele>298.6</ele>
        <time>2019-08-16T15:27:51Z</time>
      </trkpt>
      <trkpt lat="47.42687" lon="6.62626">
        <ele>298.6</ele>
        <time>2019-08-16T15:27:52Z</time>
      </trkpt>
      <trkpt lat="47.42686" lon="6.62619">
        <ele>298.5</ele>
        <time>2019-08-16T15:27:53Z</time>
      </trkpt>
      <trkpt lat="47.42684" lon="6.62612">
        <ele>298.5</ele>
        <time>2019-08-16T15:27:54Z</time>
      </trkpt>
      <trkpt lat="47.42683" lon="6.62605">
        <ele>298.4</ele>
        <time>2019-08-16T15:27:55Z</time>
      </trkpt>
      <trkpt lat="47.42682" lon="6.62598">
        <ele>298.4</ele>
        <time>2019-08-16T15:27:56Z</time>
      </trkpt>
      <trkpt lat="47.42681" lon="6.62592">
        <ele>298.3</ele>
        <time>2019-08-16T15:27:57Z</time>
      </trkpt>
      <trkpt lat="47.42679" lon="6.62586">
        <ele>298.3</ele>
        <time>2019-08-16T15:27:58Z</time>
      </trkpt>
      <trkpt lat="47.42678" lon="6.62579">
        <ele>298.3</ele>
        <time>2019-08-16T15:27:59Z</time>
      </trkpt>
      <trkpt lat="47.42677" lon="6.62572">
        <ele>298.3</ele>
        <time>2019-08-16T15:28:00Z</time>
      </trkpt>
      <trkpt lat="47.42676" lon="6.62566">
        <ele>298.3</ele>
        <time>2019-08-16T15:28:01Z</time>
      </trkpt>
      <trkpt lat="47.42674" lon="6.62558">
        <ele>298.3</ele>
        <time>2019-08-16T15:28:02Z</time>
      </trkpt>
      <trkpt lat="47.42672" lon="6.62551">
        <ele>298.3</ele>
        <time>2019-08-16T15:28:03Z</time>
      </trkpt>
      <trkpt lat="47.4267" lon="6.62544">
        <ele>298.3</ele>
        <time>2019-08-16T15:28:04Z</time>
      </trkpt>
      <trkpt lat="47.42668" lon="6.62537">
        <ele>298.4</ele>
        <time>2019-08-16T15:28:05Z</time>
      </trkpt>
      <trkpt lat="47.42667" lon="6.6253">
        <ele>298.4</ele>
        <time>2019-08-16T15:28:06Z</time>
      </trkpt>
      <trkpt lat="47.42665" lon="6.62523">
        <ele>298.4</ele>
        <time>2019-08-16T15:28:07Z</time>
      </trkpt>
      <trkpt lat="47.42664" lon="6.62515">
        <ele>298.4</ele>
        <time>2019-08-16T15:28:08Z</time>
      </trkpt>
      <trkpt lat="47.42663" lon="6.62508">
        <ele>298.4</ele>
        <time>2019-08-16T15:28:09Z</time>
      </trkpt>
      <trkpt lat="47.42661" lon="6.62501">
        <ele>298.4</ele>
        <time>2019-08-16T15:28:10Z</time>
      </trkpt>
      <trkpt lat="47.42659" lon="6.62495">
        <ele>298.5</ele>
        <time>2019-08-16T15:28:11Z</time>
      </trkpt>
      <trkpt lat="47.42658" lon="6.62488">
        <ele>298.6</ele>
        <time>2019-08-16T15:28:12Z</time>
      </trkpt>
      <trkpt lat="47.42657" lon="6.62481">
        <ele>298.7</ele>
        <time>2019-08-16T15:28:13Z</time>
      </trkpt>
      <trkpt lat="47.42656" lon="6.62475">
        <ele>298.7</ele>
        <time>2019-08-16T15:28:14Z</time>
      </trkpt>
      <trkpt lat="47.42654" lon="6.62468">
        <ele>298.8</ele>
        <time>2019-08-16T15:28:15Z</time>
      </trkpt>
      <trkpt lat="47.42654" lon="6.62462">
        <ele>298.9</ele>
        <time>2019-08-16T15:28:16Z</time>
      </trkpt>
      <trkpt lat="47.42653" lon="6.62454">
        <ele>299</ele>
        <time>2019-08-16T15:28:17Z</time>
      </trkpt>
      <trkpt lat="47.42651" lon="6.62447">
        <ele>299.1</ele>
        <time>2019-08-16T15:28:18Z</time>
      </trkpt>
      <trkpt lat="47.4265" lon="6.62439">
        <ele>299.2</ele>
        <time>2019-08-16T15:28:19Z</time>
      </trkpt>
      <trkpt lat="47.42648" lon="6.62432">
        <ele>299.2</ele>
        <time>2019-08-16T15:28:20Z</time>
      </trkpt>
      <trkpt lat="47.42647" lon="6.62425">
        <ele>299.2</ele>
        <time>2019-08-16T15:28:21Z</time>
      </trkpt>
      <trkpt lat="47.42646" lon="6.6242">
        <ele>299.2</ele>
        <time>2019-08-16T15:28:22Z</time>
      </trkpt>
      <trkpt lat="47.42645" lon="6.62414">
        <ele>299.2</ele>
        <time>2019-08-16T15:28:23Z</time>
      </trkpt>
      <trkpt lat="47.42644" lon="6.62408">
        <ele>299.2</ele>
        <time>2019-08-16T15:28:24Z</time>
      </trkpt>
      <trkpt lat="47.42643" lon="6.62401">
        <ele>299.2</ele>
        <time>2019-08-16T15:28:25Z</time>
      </trkpt>
      <trkpt lat="47.42642" lon="6.62395">
        <ele>299.2</ele>
        <time>2019-08-16T15:28:26Z</time>
      </trkpt>
      <trkpt lat="47.42641" lon="6.62388">
        <ele>299.2</ele>
        <time>2019-08-16T15:28:27Z</time>
      </trkpt>
      <trkpt lat="47.4264" lon="6.62382">
        <ele>299.2</ele>
        <time>2019-08-16T15:28:28Z</time>
      </trkpt>
      <trkpt lat="47.4264" lon="6.62376">
        <ele>299.2</ele>
        <time>2019-08-16T15:28:29Z</time>
      </trkpt>
      <trkpt lat="47.4264" lon="6.62369">
        <ele>299.2</ele>
        <time>2019-08-16T15:28:30Z</time>
      </trkpt>
      <trkpt lat="47.4264" lon="6.62362">
        <ele>299.2</ele>
        <time>2019-08-16T15:28:31Z</time>
      </trkpt>
      <trkpt lat="47.4264" lon="6.62355">
        <ele>299.2</ele>
        <time>2019-08-16T15:28:32Z</time>
      </trkpt>
      <trkpt lat="47.42639" lon="6.62348">
        <ele>299.2</ele>
        <time>2019-08-16T15:28:33Z</time>
      </trkpt>
      <trkpt lat="47.42639" lon="6.62343">
        <ele>299.2</ele>
        <time>2019-08-16T15:28:34Z</time>
      </trkpt>
      <trkpt lat="47.42638" lon="6.62336">
        <ele>299.2</ele>
        <time>2019-08-16T15:28:35Z</time>
      </trkpt>
      <trkpt lat="47.42637" lon="6.62329">
        <ele>299.2</ele>
        <time>2019-08-16T15:28:36Z</time>
      </trkpt>
      <trkpt lat="47.42637" lon="6.62322">
        <ele>299.2</ele>
        <time>2019-08-16T15:28:37Z</time>
      </trkpt>
      <trkpt lat="47.42637" lon="6.62315">
        <ele>299.3</ele>
        <time>2019-08-16T15:28:38Z</time>
      </trkpt>
      <trkpt lat="47.42637" lon="6.62308">
        <ele>299.3</ele>
        <time>2019-08-16T15:28:39Z</time>
      </trkpt>
      <trkpt lat="47.42636" lon="6.62301">
        <ele>299.3</ele>
        <time>2019-08-16T15:28:40Z</time>
      </trkpt>
      <trkpt lat="47.42636" lon="6.62294">
        <ele>299.3</ele>
        <time>2019-08-16T15:28:41Z</time>
      </trkpt>
      <trkpt lat="47.42636" lon="6.62288">
        <ele>299.3</ele>
        <time>2019-08-16T15:28:42Z</time>
      </trkpt>
      <trkpt lat="47.42636" lon="6.62281">
        <ele>299.3</ele>
        <time>2019-08-16T15:28:43Z</time>
      </trkpt>
      <trkpt lat="47.42635" lon="6.62274">
        <ele>299.3</ele>
        <time>2019-08-16T15:28:44Z</time>
      </trkpt>
      <trkpt lat="47.42635" lon="6.62268">
        <ele>299.3</ele>
        <time>2019-08-16T15:28:45Z</time>
      </trkpt>
      <trkpt lat="47.42634" lon="6.6226">
        <ele>299.3</ele>
        <time>2019-08-16T15:28:46Z</time>
      </trkpt>
      <trkpt lat="47.42633" lon="6.62253">
        <ele>299.3</ele>
        <time>2019-08-16T15:28:47Z</time>
      </trkpt>
      <trkpt lat="47.42632" lon="6.62246">
        <ele>299.3</ele>
        <time>2019-08-16T15:28:48Z</time>
      </trkpt>
      <trkpt lat="47.42631" lon="6.62238">
        <ele>299.3</ele>
        <time>2019-08-16T15:28:49Z</time>
      </trkpt>
      <trkpt lat="47.42631" lon="6.6223">
        <ele>299.3</ele>
        <time>2019-08-16T15:28:50Z</time>
      </trkpt>
      <trkpt lat="47.4263" lon="6.62223">
        <ele>299.3</ele>
        <time>2019-08-16T15:28:51Z</time>
      </trkpt>
      <trkpt lat="47.4263" lon="6.62216">
        <ele>299.3</ele>
        <time>2019-08-16T15:28:52Z</time>
      </trkpt>
      <trkpt lat="47.42629" lon="6.62209">
        <ele>299.3</ele>
        <time>2019-08-16T15:28:53Z</time>
      </trkpt>
      <trkpt lat="47.42629" lon="6.62201">
        <ele>299.3</ele>
        <time>2019-08-16T15:28:54Z</time>
      </trkpt>
      <trkpt lat="47.42628" lon="6.62194">
        <ele>299.3</ele>
        <time>2019-08-16T15:28:55Z</time>
      </trkpt>
      <trkpt lat="47.42628" lon="6.62186">
        <ele>299.3</ele>
        <time>2019-08-16T15:28:56Z</time>
      </trkpt>
      <trkpt lat="47.42627" lon="6.62178">
        <ele>299.3</ele>
        <time>2019-08-16T15:28:57Z</time>
      </trkpt>
      <trkpt lat="47.42626" lon="6.62171">
        <ele>299.2</ele>
        <time>2019-08-16T15:28:58Z</time>
      </trkpt>
      <trkpt lat="47.42625" lon="6.62164">
        <ele>299.2</ele>
        <time>2019-08-16T15:28:59Z</time>
      </trkpt>
      <trkpt lat="47.42625" lon="6.62157">
        <ele>299.2</ele>
        <time>2019-08-16T15:29:00Z</time>
      </trkpt>
      <trkpt lat="47.42624" lon="6.6215">
        <ele>299.2</ele>
        <time>2019-08-16T15:29:01Z</time>
      </trkpt>
      <trkpt lat="47.42624" lon="6.62143">
        <ele>299.2</ele>
        <time>2019-08-16T15:29:02Z</time>
      </trkpt>
      <trkpt lat="47.42624" lon="6.62136">
        <ele>299.2</ele>
        <time>2019-08-16T15:29:03Z</time>
      </trkpt>
      <trkpt lat="47.42624" lon="6.62128">
        <ele>299.2</ele>
        <time>2019-08-16T15:29:04Z</time>
      </trkpt>
      <trkpt lat="47.42624" lon="6.62121">
        <ele>299.2</ele>
        <time>2019-08-16T15:29:05Z</time>
      </trkpt>
      <trkpt lat="47.42624" lon="6.62114">
        <ele>299.2</ele>
        <time>2019-08-16T15:29:06Z</time>
      </trkpt>
      <trkpt lat="47.42624" lon="6.62106">
        <ele>299.2</ele>
        <time>2019-08-16T15:29:07Z</time>
      </trkpt>
      <trkpt lat="47.42624" lon="6.62098">
        <ele>299.3</ele>
        <time>2019-08-16T15:29:08Z</time>
      </trkpt>
      <trkpt lat="47.42623" lon="6.6209">
        <ele>299.3</ele>
        <time>2019-08-16T15:29:09Z</time>
      </trkpt>
      <trkpt lat="47.42623" lon="6.62083">
        <ele>299.3</ele>
        <time>2019-08-16T15:29:10Z</time>
      </trkpt>
      <trkpt lat="47.42623" lon="6.62076">
        <ele>299.2</ele>
        <time>2019-08-16T15:29:11Z</time>
      </trkpt>
      <trkpt lat="47.42623" lon="6.62068">
        <ele>299.2</ele>
        <time>2019-08-16T15:29:12Z</time>
      </trkpt>
      <trkpt lat="47.42623" lon="6.62061">
        <ele>299.2</ele>
        <time>2019-08-16T15:29:13Z</time>
      </trkpt>
      <trkpt lat="47.42623" lon="6.62054">
        <ele>299.1</ele>
        <time>2019-08-16T15:29:14Z</time>
      </trkpt>
      <trkpt lat="47.42623" lon="6.62046">
        <ele>299.1</ele>
        <time>2019-08-16T15:29:15Z</time>
      </trkpt>
      <trkpt lat="47.42624" lon="6.62039">
        <ele>299.1</ele>
        <time>2019-08-16T15:29:16Z</time>
      </trkpt>
      <trkpt lat="47.42624" lon="6.62031">
        <ele>299.1</ele>
        <time>2019-08-16T15:29:17Z</time>
      </trkpt>
      <trkpt lat="47.42624" lon="6.62023">
        <ele>299</ele>
        <time>2019-08-16T15:29:18Z</time>
      </trkpt>
      <trkpt lat="47.42624" lon="6.62015">
        <ele>299</ele>
        <time>2019-08-16T15:29:19Z</time>
      </trkpt>
      <trkpt lat="47.42624" lon="6.62008">
        <ele>299</ele>
        <time>2019-08-16T15:29:20Z</time>
      </trkpt>
      <trkpt lat="47.42625" lon="6.62001">
        <ele>299</ele>
        <time>2019-08-16T15:29:21Z</time>
      </trkpt>
      <trkpt lat="47.42625" lon="6.61993">
        <ele>298.9</ele>
        <time>2019-08-16T15:29:22Z</time>
      </trkpt>
      <trkpt lat="47.42625" lon="6.61986">
        <ele>298.9</ele>
        <time>2019-08-16T15:29:23Z</time>
      </trkpt>
      <trkpt lat="47.42626" lon="6.61978">
        <ele>298.9</ele>
        <time>2019-08-16T15:29:24Z</time>
      </trkpt>
      <trkpt lat="47.42627" lon="6.61971">
        <ele>298.9</ele>
        <time>2019-08-16T15:29:25Z</time>
      </trkpt>
      <trkpt lat="47.42627" lon="6.61962">
        <ele>298.9</ele>
        <time>2019-08-16T15:29:26Z</time>
      </trkpt>
      <trkpt lat="47.42628" lon="6.61955">
        <ele>298.9</ele>
        <time>2019-08-16T15:29:27Z</time>
      </trkpt>
      <trkpt lat="47.42629" lon="6.61947">
        <ele>298.9</ele>
        <time>2019-08-16T15:29:28Z</time>
      </trkpt>
      <trkpt lat="47.42629" lon="6.6194">
        <ele>298.9</ele>
        <time>2019-08-16T15:29:29Z</time>
      </trkpt>
      <trkpt lat="47.4263" lon="6.61933">
        <ele>298.9</ele>
        <time>2019-08-16T15:29:30Z</time>
      </trkpt>
      <trkpt lat="47.4263" lon="6.61926">
        <ele>298.9</ele>
        <time>2019-08-16T15:29:31Z</time>
      </trkpt>
      <trkpt lat="47.42631" lon="6.61919">
        <ele>298.9</ele>
        <time>2019-08-16T15:29:32Z</time>
      </trkpt>
      <trkpt lat="47.42631" lon="6.61911">
        <ele>298.9</ele>
        <time>2019-08-16T15:29:33Z</time>
      </trkpt>
      <trkpt lat="47.42632" lon="6.61905">
        <ele>299</ele>
        <time>2019-08-16T15:29:34Z</time>
      </trkpt>
      <trkpt lat="47.42633" lon="6.61898">
        <ele>299</ele>
        <time>2019-08-16T15:29:35Z</time>
      </trkpt>
      <trkpt lat="47.42634" lon="6.61891">
        <ele>299</ele>
        <time>2019-08-16T15:29:36Z</time>
      </trkpt>
      <trkpt lat="47.42636" lon="6.61883">
        <ele>299.1</ele>
        <time>2019-08-16T15:29:37Z</time>
      </trkpt>
      <trkpt lat="47.42636" lon="6.61877">
        <ele>299.1</ele>
        <time>2019-08-16T15:29:38Z</time>
      </trkpt>
      <trkpt lat="47.42637" lon="6.6187">
        <ele>299.1</ele>
        <time>2019-08-16T15:29:39Z</time>
      </trkpt>
      <trkpt lat="47.42638" lon="6.61865">
        <ele>299.2</ele>
        <time>2019-08-16T15:29:40Z</time>
      </trkpt>
      <trkpt lat="47.4264" lon="6.6186">
        <ele>299.1</ele>
        <time>2019-08-16T15:29:41Z</time>
      </trkpt>
      <trkpt lat="47.42641" lon="6.61854">
        <ele>299.1</ele>
        <time>2019-08-16T15:29:42Z</time>
      </trkpt>
      <trkpt lat="47.42642" lon="6.61848">
        <ele>299.1</ele>
        <time>2019-08-16T15:29:43Z</time>
      </trkpt>
      <trkpt lat="47.42642" lon="6.61841">
        <ele>299.1</ele>
        <time>2019-08-16T15:29:44Z</time>
      </trkpt>
      <trkpt lat="47.42642" lon="6.61835">
        <ele>299</ele>
        <time>2019-08-16T15:29:45Z</time>
      </trkpt>
      <trkpt lat="47.42643" lon="6.61829">
        <ele>299</ele>
        <time>2019-08-16T15:29:46Z</time>
      </trkpt>
      <trkpt lat="47.42644" lon="6.61823">
        <ele>299</ele>
        <time>2019-08-16T15:29:47Z</time>
      </trkpt>
      <trkpt lat="47.42646" lon="6.61816">
        <ele>299</ele>
        <time>2019-08-16T15:29:48Z</time>
      </trkpt>
      <trkpt lat="47.42647" lon="6.61809">
        <ele>299</ele>
        <time>2019-08-16T15:29:49Z</time>
      </trkpt>
      <trkpt lat="47.42648" lon="6.61803">
        <ele>298.9</ele>
        <time>2019-08-16T15:29:50Z</time>
      </trkpt>
      <trkpt lat="47.42649" lon="6.61796">
        <ele>298.9</ele>
        <time>2019-08-16T15:29:51Z</time>
      </trkpt>
      <trkpt lat="47.4265" lon="6.6179">
        <ele>298.9</ele>
        <time>2019-08-16T15:29:52Z</time>
      </trkpt>
      <trkpt lat="47.42651" lon="6.61783">
        <ele>298.8</ele>
        <time>2019-08-16T15:29:53Z</time>
      </trkpt>
      <trkpt lat="47.42652" lon="6.61777">
        <ele>298.8</ele>
        <time>2019-08-16T15:29:54Z</time>
      </trkpt>
      <trkpt lat="47.42654" lon="6.6177">
        <ele>298.7</ele>
        <time>2019-08-16T15:29:55Z</time>
      </trkpt>
      <trkpt lat="47.42655" lon="6.61763">
        <ele>298.6</ele>
        <time>2019-08-16T15:29:56Z</time>
      </trkpt>
      <trkpt lat="47.42657" lon="6.61755">
        <ele>298.6</ele>
        <time>2019-08-16T15:29:57Z</time>
      </trkpt>
      <trkpt lat="47.42658" lon="6.61748">
        <ele>298.5</ele>
        <time>2019-08-16T15:29:58Z</time>
      </trkpt>
      <trkpt lat="47.4266" lon="6.61743">
        <ele>298.5</ele>
        <time>2019-08-16T15:29:59Z</time>
      </trkpt>
      <trkpt lat="47.42661" lon="6.61737">
        <ele>298.4</ele>
        <time>2019-08-16T15:30:00Z</time>
      </trkpt>
      <trkpt lat="47.42662" lon="6.61731">
        <ele>298.4</ele>
        <time>2019-08-16T15:30:01Z</time>
      </trkpt>
      <trkpt lat="47.42664" lon="6.61725">
        <ele>298.3</ele>
        <time>2019-08-16T15:30:02Z</time>
      </trkpt>
      <trkpt lat="47.42666" lon="6.61719">
        <ele>298.3</ele>
        <time>2019-08-16T15:30:03Z</time>
      </trkpt>
      <trkpt lat="47.42667" lon="6.61713">
        <ele>298.2</ele>
        <time>2019-08-16T15:30:04Z</time>
      </trkpt>
      <trkpt lat="47.42669" lon="6.61706">
        <ele>298.2</ele>
        <time>2019-08-16T15:30:05Z</time>
      </trkpt>
      <trkpt lat="47.42671" lon="6.617">
        <ele>298.1</ele>
        <time>2019-08-16T15:30:06Z</time>
      </trkpt>
      <trkpt lat="47.42672" lon="6.61693">
        <ele>298</ele>
        <time>2019-08-16T15:30:07Z</time>
      </trkpt>
      <trkpt lat="47.42673" lon="6.61687">
        <ele>298</ele>
        <time>2019-08-16T15:30:08Z</time>
      </trkpt>
      <trkpt lat="47.42675" lon="6.61681">
        <ele>297.9</ele>
        <time>2019-08-16T15:30:09Z</time>
      </trkpt>
      <trkpt lat="47.42676" lon="6.61674">
        <ele>297.8</ele>
        <time>2019-08-16T15:30:10Z</time>
      </trkpt>
      <trkpt lat="47.42678" lon="6.61668">
        <ele>297.7</ele>
        <time>2019-08-16T15:30:11Z</time>
      </trkpt>
      <trkpt lat="47.4268" lon="6.61661">
        <ele>297.5</ele>
        <time>2019-08-16T15:30:12Z</time>
      </trkpt>
      <trkpt lat="47.42681" lon="6.61654">
        <ele>297.4</ele>
        <time>2019-08-16T15:30:13Z</time>
      </trkpt>
      <trkpt lat="47.42683" lon="6.61648">
        <ele>297.3</ele>
        <time>2019-08-16T15:30:14Z</time>
      </trkpt>
      <trkpt lat="47.42684" lon="6.61642">
        <ele>297.1</ele>
        <time>2019-08-16T15:30:15Z</time>
      </trkpt>
      <trkpt lat="47.42686" lon="6.61635">
        <ele>297</ele>
        <time>2019-08-16T15:30:16Z</time>
      </trkpt>
      <trkpt lat="47.42687" lon="6.61628">
        <ele>296.9</ele>
        <time>2019-08-16T15:30:17Z</time>
      </trkpt>
      <trkpt lat="47.42688" lon="6.61621">
        <ele>296.8</ele>
        <time>2019-08-16T15:30:18Z</time>
      </trkpt>
      <trkpt lat="47.4269" lon="6.61614">
        <ele>296.7</ele>
        <time>2019-08-16T15:30:19Z</time>
      </trkpt>
      <trkpt lat="47.42692" lon="6.61607">
        <ele>296.6</ele>
        <time>2019-08-16T15:30:20Z</time>
      </trkpt>
      <trkpt lat="47.42694" lon="6.61601">
        <ele>296.5</ele>
        <time>2019-08-16T15:30:21Z</time>
      </trkpt>
      <trkpt lat="47.42696" lon="6.61594">
        <ele>296.4</ele>
        <time>2019-08-16T15:30:22Z</time>
      </trkpt>
      <trkpt lat="47.42697" lon="6.61587">
        <ele>296.2</ele>
        <time>2019-08-16T15:30:23Z</time>
      </trkpt>
      <trkpt lat="47.42698" lon="6.6158">
        <ele>296.1</ele>
        <time>2019-08-16T15:30:24Z</time>
      </trkpt>
      <trkpt lat="47.42699" lon="6.61573">
        <ele>296</ele>
        <time>2019-08-16T15:30:25Z</time>
      </trkpt>
      <trkpt lat="47.42701" lon="6.61566">
        <ele>295.9</ele>
        <time>2019-08-16T15:30:26Z</time>
      </trkpt>
      <trkpt lat="47.42702" lon="6.6156">
        <ele>295.8</ele>
        <time>2019-08-16T15:30:27Z</time>
      </trkpt>
      <trkpt lat="47.42704" lon="6.61553">
        <ele>295.7</ele>
        <time>2019-08-16T15:30:28Z</time>
      </trkpt>
      <trkpt lat="47.42707" lon="6.61546">
        <ele>295.6</ele>
        <time>2019-08-16T15:30:29Z</time>
      </trkpt>
      <trkpt lat="47.42708" lon="6.61539">
        <ele>295.5</ele>
        <time>2019-08-16T15:30:30Z</time>
      </trkpt>
      <trkpt lat="47.4271" lon="6.61532">
        <ele>295.3</ele>
        <time>2019-08-16T15:30:31Z</time>
      </trkpt>
      <trkpt lat="47.42712" lon="6.61524">
        <ele>295.2</ele>
        <time>2019-08-16T15:30:32Z</time>
      </trkpt>
      <trkpt lat="47.42714" lon="6.61517">
        <ele>295</ele>
        <time>2019-08-16T15:30:33Z</time>
      </trkpt>
      <trkpt lat="47.42716" lon="6.6151">
        <ele>294.9</ele>
        <time>2019-08-16T15:30:34Z</time>
      </trkpt>
      <trkpt lat="47.42719" lon="6.61504">
        <ele>294.8</ele>
        <time>2019-08-16T15:30:35Z</time>
      </trkpt>
      <trkpt lat="47.42722" lon="6.61497">
        <ele>294.7</ele>
        <time>2019-08-16T15:30:36Z</time>
      </trkpt>
      <trkpt lat="47.42724" lon="6.6149">
        <ele>294.6</ele>
        <time>2019-08-16T15:30:37Z</time>
      </trkpt>
      <trkpt lat="47.42726" lon="6.61484">
        <ele>294.6</ele>
        <time>2019-08-16T15:30:38Z</time>
      </trkpt>
      <trkpt lat="47.42728" lon="6.61478">
        <ele>294.5</ele>
        <time>2019-08-16T15:30:39Z</time>
      </trkpt>
      <trkpt lat="47.4273" lon="6.61471">
        <ele>294.5</ele>
        <time>2019-08-16T15:30:40Z</time>
      </trkpt>
      <trkpt lat="47.42732" lon="6.61464">
        <ele>294.4</ele>
        <time>2019-08-16T15:30:41Z</time>
      </trkpt>
      <trkpt lat="47.42733" lon="6.61457">
        <ele>294.4</ele>
        <time>2019-08-16T15:30:42Z</time>
      </trkpt>
      <trkpt lat="47.42735" lon="6.61452">
        <ele>294.4</ele>
        <time>2019-08-16T15:30:43Z</time>
      </trkpt>
      <trkpt lat="47.42738" lon="6.61445">
        <ele>294.4</ele>
        <time>2019-08-16T15:30:44Z</time>
      </trkpt>
      <trkpt lat="47.4274" lon="6.61438">
        <ele>294.4</ele>
        <time>2019-08-16T15:30:45Z</time>
      </trkpt>
      <trkpt lat="47.42742" lon="6.61432">
        <ele>294.4</ele>
        <time>2019-08-16T15:30:46Z</time>
      </trkpt>
      <trkpt lat="47.42744" lon="6.61425">
        <ele>294.4</ele>
        <time>2019-08-16T15:30:47Z</time>
      </trkpt>
      <trkpt lat="47.42746" lon="6.61419">
        <ele>294.3</ele>
        <time>2019-08-16T15:30:48Z</time>
      </trkpt>
      <trkpt lat="47.42748" lon="6.61413">
        <ele>294.3</ele>
        <time>2019-08-16T15:30:49Z</time>
      </trkpt>
      <trkpt lat="47.4275" lon="6.61407">
        <ele>294.3</ele>
        <time>2019-08-16T15:30:50Z</time>
      </trkpt>
      <trkpt lat="47.42752" lon="6.61402">
        <ele>294.3</ele>
        <time>2019-08-16T15:30:51Z</time>
      </trkpt>
      <trkpt lat="47.42755" lon="6.61395">
        <ele>294.4</ele>
        <time>2019-08-16T15:30:52Z</time>
      </trkpt>
      <trkpt lat="47.42757" lon="6.61388">
        <ele>294.4</ele>
        <time>2019-08-16T15:30:53Z</time>
      </trkpt>
      <trkpt lat="47.4276" lon="6.61381">
        <ele>294.4</ele>
        <time>2019-08-16T15:30:54Z</time>
      </trkpt>
      <trkpt lat="47.42763" lon="6.61374">
        <ele>294.4</ele>
        <time>2019-08-16T15:30:55Z</time>
      </trkpt>
      <trkpt lat="47.42765" lon="6.61367">
        <ele>294.4</ele>
        <time>2019-08-16T15:30:56Z</time>
      </trkpt>
      <trkpt lat="47.42768" lon="6.61361">
        <ele>294.4</ele>
        <time>2019-08-16T15:30:57Z</time>
      </trkpt>
      <trkpt lat="47.4277" lon="6.61355">
        <ele>294.4</ele>
        <time>2019-08-16T15:30:58Z</time>
      </trkpt>
      <trkpt lat="47.42772" lon="6.61349">
        <ele>294.4</ele>
        <time>2019-08-16T15:30:59Z</time>
      </trkpt>
      <trkpt lat="47.42774" lon="6.61344">
        <ele>294.4</ele>
        <time>2019-08-16T15:31:00Z</time>
      </trkpt>
      <trkpt lat="47.42776" lon="6.61338">
        <ele>294.4</ele>
        <time>2019-08-16T15:31:01Z</time>
      </trkpt>
      <trkpt lat="47.42778" lon="6.61331">
        <ele>294.4</ele>
        <time>2019-08-16T15:31:02Z</time>
      </trkpt>
      <trkpt lat="47.4278" lon="6.61324">
        <ele>294.3</ele>
        <time>2019-08-16T15:31:03Z</time>
      </trkpt>
      <trkpt lat="47.42782" lon="6.61317">
        <ele>294.1</ele>
        <time>2019-08-16T15:31:04Z</time>
      </trkpt>
      <trkpt lat="47.42784" lon="6.61309">
        <ele>293.8</ele>
        <time>2019-08-16T15:31:05Z</time>
      </trkpt>
      <trkpt lat="47.42786" lon="6.61302">
        <ele>293.5</ele>
        <time>2019-08-16T15:31:06Z</time>
      </trkpt>
      <trkpt lat="47.42789" lon="6.61296">
        <ele>293.2</ele>
        <time>2019-08-16T15:31:07Z</time>
      </trkpt>
      <trkpt lat="47.42792" lon="6.6129">
        <ele>292.9</ele>
        <time>2019-08-16T15:31:08Z</time>
      </trkpt>
      <trkpt lat="47.42793" lon="6.61284">
        <ele>292.8</ele>
        <time>2019-08-16T15:31:09Z</time>
      </trkpt>
      <trkpt lat="47.42795" lon="6.6128">
        <ele>292.7</ele>
        <time>2019-08-16T15:31:10Z</time>
      </trkpt>
      <trkpt lat="47.42794" lon="6.61275">
        <ele>292.6</ele>
        <time>2019-08-16T15:31:12Z</time>
      </trkpt>
      <trkpt lat="47.42793" lon="6.61281">
        <ele>292.5</ele>
        <time>2019-08-16T15:31:16Z</time>
      </trkpt>
      <trkpt lat="47.42795" lon="6.61285">
        <ele>292.4</ele>
        <time>2019-08-16T15:31:30Z</time>
      </trkpt>
      <trkpt lat="47.42796" lon="6.6129">
        <ele>292.3</ele>
        <time>2019-08-16T15:31:34Z</time>
      </trkpt>
      <trkpt lat="47.42799" lon="6.61292">
        <ele>292.2</ele>
        <time>2019-08-16T15:31:37Z</time>
      </trkpt>
      <trkpt lat="47.42803" lon="6.61294">
        <ele>292.1</ele>
        <time>2019-08-16T15:31:39Z</time>
      </trkpt>
      <trkpt lat="47.42807" lon="6.61297">
        <ele>292</ele>
        <time>2019-08-16T15:31:41Z</time>
      </trkpt>
      <trkpt lat="47.42811" lon="6.61301">
        <ele>291.8</ele>
        <time>2019-08-16T15:31:43Z</time>
      </trkpt>
      <trkpt lat="47.42815" lon="6.61303">
        <ele>291.7</ele>
        <time>2019-08-16T15:31:45Z</time>
      </trkpt>
      <trkpt lat="47.4282" lon="6.61299">
        <ele>291.7</ele>
        <time>2019-08-16T15:31:47Z</time>
      </trkpt>
      <trkpt lat="47.42822" lon="6.61294">
        <ele>291.7</ele>
        <time>2019-08-16T15:31:48Z</time>
      </trkpt>
      <trkpt lat="47.42823" lon="6.61286">
        <ele>291.7</ele>
        <time>2019-08-16T15:31:49Z</time>
      </trkpt>
      <trkpt lat="47.42824" lon="6.61279">
        <ele>291.7</ele>
        <time>2019-08-16T15:31:50Z</time>
      </trkpt>
      <trkpt lat="47.42825" lon="6.6127">
        <ele>291.7</ele>
        <time>2019-08-16T15:31:51Z</time>
      </trkpt>
      <trkpt lat="47.42826" lon="6.61261">
        <ele>291.7</ele>
        <time>2019-08-16T15:31:52Z</time>
      </trkpt>
      <trkpt lat="47.42827" lon="6.61253">
        <ele>291.7</ele>
        <time>2019-08-16T15:31:53Z</time>
      </trkpt>
      <trkpt lat="47.42828" lon="6.61243">
        <ele>291.7</ele>
        <time>2019-08-16T15:31:54Z</time>
      </trkpt>
      <trkpt lat="47.4283" lon="6.61236">
        <ele>291.7</ele>
        <time>2019-08-16T15:31:55Z</time>
      </trkpt>
      <trkpt lat="47.42833" lon="6.6123">
        <ele>291.7</ele>
        <time>2019-08-16T15:31:56Z</time>
      </trkpt>
      <trkpt lat="47.42836" lon="6.61224">
        <ele>291.7</ele>
        <time>2019-08-16T15:31:57Z</time>
      </trkpt>
      <trkpt lat="47.42837" lon="6.61217">
        <ele>291.7</ele>
        <time>2019-08-16T15:31:58Z</time>
      </trkpt>
      <trkpt lat="47.42839" lon="6.6121">
        <ele>291.7</ele>
        <time>2019-08-16T15:31:59Z</time>
      </trkpt>
      <trkpt lat="47.42842" lon="6.61204">
        <ele>291.7</ele>
        <time>2019-08-16T15:32:00Z</time>
      </trkpt>
      <trkpt lat="47.42844" lon="6.61198">
        <ele>291.8</ele>
        <time>2019-08-16T15:32:01Z</time>
      </trkpt>
      <trkpt lat="47.42846" lon="6.61192">
        <ele>291.8</ele>
        <time>2019-08-16T15:32:02Z</time>
      </trkpt>
      <trkpt lat="47.42849" lon="6.61186">
        <ele>291.9</ele>
        <time>2019-08-16T15:32:03Z</time>
      </trkpt>
      <trkpt lat="47.42851" lon="6.6118">
        <ele>292</ele>
        <time>2019-08-16T15:32:04Z</time>
      </trkpt>
      <trkpt lat="47.42853" lon="6.61174">
        <ele>292.1</ele>
        <time>2019-08-16T15:32:05Z</time>
      </trkpt>
      <trkpt lat="47.42855" lon="6.61169">
        <ele>292.1</ele>
        <time>2019-08-16T15:32:06Z</time>
      </trkpt>
      <trkpt lat="47.42857" lon="6.61164">
        <ele>292.2</ele>
        <time>2019-08-16T15:32:07Z</time>
      </trkpt>
      <trkpt lat="47.42859" lon="6.6116">
        <ele>292.3</ele>
        <time>2019-08-16T15:32:08Z</time>
      </trkpt>
      <trkpt lat="47.42863" lon="6.61155">
        <ele>292.4</ele>
        <time>2019-08-16T15:32:10Z</time>
      </trkpt>
      <trkpt lat="47.42862" lon="6.61159">
        <ele>292.4</ele>
        <time>2019-08-16T15:32:16Z</time>
      </trkpt>
      <trkpt lat="47.42863" lon="6.61156">
        <ele>292.4</ele>
        <time>2019-08-16T15:33:54Z</time>
      </trkpt>
      <trkpt lat="47.42865" lon="6.61151">
        <ele>292.5</ele>
        <time>2019-08-16T15:33:56Z</time>
      </trkpt>
      <trkpt lat="47.42868" lon="6.61142">
        <ele>292.4</ele>
        <time>2019-08-16T15:33:58Z</time>
      </trkpt>
      <trkpt lat="47.42869" lon="6.61138">
        <ele>292.4</ele>
        <time>2019-08-16T15:33:59Z</time>
      </trkpt>
      <trkpt lat="47.42872" lon="6.61133">
        <ele>292.3</ele>
        <time>2019-08-16T15:34:00Z</time>
      </trkpt>
      <trkpt lat="47.42874" lon="6.61129">
        <ele>292.2</ele>
        <time>2019-08-16T15:34:01Z</time>
      </trkpt>
      <trkpt lat="47.42876" lon="6.61125">
        <ele>292.2</ele>
        <time>2019-08-16T15:34:02Z</time>
      </trkpt>
      <trkpt lat="47.42878" lon="6.6112">
        <ele>292.1</ele>
        <time>2019-08-16T15:34:03Z</time>
      </trkpt>
      <trkpt lat="47.4288" lon="6.61116">
        <ele>292</ele>
        <time>2019-08-16T15:34:04Z</time>
      </trkpt>
      <trkpt lat="47.42882" lon="6.61111">
        <ele>291.9</ele>
        <time>2019-08-16T15:34:05Z</time>
      </trkpt>
      <trkpt lat="47.42884" lon="6.61106">
        <ele>291.9</ele>
        <time>2019-08-16T15:34:06Z</time>
      </trkpt>
      <trkpt lat="47.42887" lon="6.611">
        <ele>291.9</ele>
        <time>2019-08-16T15:34:07Z</time>
      </trkpt>
      <trkpt lat="47.42889" lon="6.61095">
        <ele>291.9</ele>
        <time>2019-08-16T15:34:08Z</time>
      </trkpt>
      <trkpt lat="47.42892" lon="6.61089">
        <ele>291.9</ele>
        <time>2019-08-16T15:34:09Z</time>
      </trkpt>
      <trkpt lat="47.42894" lon="6.61084">
        <ele>292</ele>
        <time>2019-08-16T15:34:10Z</time>
      </trkpt>
      <trkpt lat="47.42896" lon="6.61078">
        <ele>292.1</ele>
        <time>2019-08-16T15:34:11Z</time>
      </trkpt>
      <trkpt lat="47.42898" lon="6.61073">
        <ele>292.2</ele>
        <time>2019-08-16T15:34:12Z</time>
      </trkpt>
      <trkpt lat="47.42901" lon="6.61068">
        <ele>292.3</ele>
        <time>2019-08-16T15:34:13Z</time>
      </trkpt>
      <trkpt lat="47.42903" lon="6.61063">
        <ele>292.4</ele>
        <time>2019-08-16T15:34:14Z</time>
      </trkpt>
      <trkpt lat="47.42905" lon="6.61058">
        <ele>292.6</ele>
        <time>2019-08-16T15:34:15Z</time>
      </trkpt>
      <trkpt lat="47.42907" lon="6.61053">
        <ele>292.7</ele>
        <time>2019-08-16T15:34:16Z</time>
      </trkpt>
      <trkpt lat="47.42909" lon="6.61048">
        <ele>292.9</ele>
        <time>2019-08-16T15:34:17Z</time>
      </trkpt>
      <trkpt lat="47.42911" lon="6.61044">
        <ele>293</ele>
        <time>2019-08-16T15:34:18Z</time>
      </trkpt>
      <trkpt lat="47.42914" lon="6.61039">
        <ele>293.2</ele>
        <time>2019-08-16T15:34:19Z</time>
      </trkpt>
      <trkpt lat="47.42916" lon="6.61034">
        <ele>293.3</ele>
        <time>2019-08-16T15:34:20Z</time>
      </trkpt>
      <trkpt lat="47.42918" lon="6.61028">
        <ele>293.4</ele>
        <time>2019-08-16T15:34:21Z</time>
      </trkpt>
      <trkpt lat="47.4292" lon="6.61023">
        <ele>293.5</ele>
        <time>2019-08-16T15:34:22Z</time>
      </trkpt>
      <trkpt lat="47.42922" lon="6.61018">
        <ele>293.6</ele>
        <time>2019-08-16T15:34:23Z</time>
      </trkpt>
      <trkpt lat="47.42924" lon="6.61013">
        <ele>293.6</ele>
        <time>2019-08-16T15:34:24Z</time>
      </trkpt>
      <trkpt lat="47.42926" lon="6.61007">
        <ele>293.6</ele>
        <time>2019-08-16T15:34:25Z</time>
      </trkpt>
      <trkpt lat="47.42929" lon="6.61002">
        <ele>293.7</ele>
        <time>2019-08-16T15:34:26Z</time>
      </trkpt>
      <trkpt lat="47.4293" lon="6.60996">
        <ele>293.7</ele>
        <time>2019-08-16T15:34:27Z</time>
      </trkpt>
      <trkpt lat="47.42932" lon="6.6099">
        <ele>293.7</ele>
        <time>2019-08-16T15:34:28Z</time>
      </trkpt>
      <trkpt lat="47.42935" lon="6.60985">
        <ele>293.7</ele>
        <time>2019-08-16T15:34:29Z</time>
      </trkpt>
      <trkpt lat="47.42937" lon="6.6098">
        <ele>293.7</ele>
        <time>2019-08-16T15:34:30Z</time>
      </trkpt>
      <trkpt lat="47.42939" lon="6.60975">
        <ele>293.7</ele>
        <time>2019-08-16T15:34:31Z</time>
      </trkpt>
      <trkpt lat="47.42942" lon="6.60969">
        <ele>293.7</ele>
        <time>2019-08-16T15:34:32Z</time>
      </trkpt>
      <trkpt lat="47.42944" lon="6.60964">
        <ele>293.7</ele>
        <time>2019-08-16T15:34:33Z</time>
      </trkpt>
      <trkpt lat="47.42946" lon="6.60959">
        <ele>293.7</ele>
        <time>2019-08-16T15:34:34Z</time>
      </trkpt>
      <trkpt lat="47.42949" lon="6.60954">
        <ele>293.7</ele>
        <time>2019-08-16T15:34:35Z</time>
      </trkpt>
      <trkpt lat="47.42951" lon="6.60948">
        <ele>293.7</ele>
        <time>2019-08-16T15:34:36Z</time>
      </trkpt>
      <trkpt lat="47.42953" lon="6.60944">
        <ele>293.7</ele>
        <time>2019-08-16T15:34:37Z</time>
      </trkpt>
      <trkpt lat="47.42955" lon="6.60939">
        <ele>293.7</ele>
        <time>2019-08-16T15:34:38Z</time>
      </trkpt>
      <trkpt lat="47.42958" lon="6.60935">
        <ele>293.7</ele>
        <time>2019-08-16T15:34:39Z</time>
      </trkpt>
      <trkpt lat="47.4296" lon="6.6093">
        <ele>293.7</ele>
        <time>2019-08-16T15:34:40Z</time>
      </trkpt>
      <trkpt lat="47.42962" lon="6.60925">
        <ele>293.7</ele>
        <time>2019-08-16T15:34:41Z</time>
      </trkpt>
      <trkpt lat="47.42965" lon="6.60919">
        <ele>293.7</ele>
        <time>2019-08-16T15:34:42Z</time>
      </trkpt>
      <trkpt lat="47.42968" lon="6.60914">
        <ele>293.7</ele>
        <time>2019-08-16T15:34:43Z</time>
      </trkpt>
      <trkpt lat="47.4297" lon="6.60907">
        <ele>293.7</ele>
        <time>2019-08-16T15:34:44Z</time>
      </trkpt>
      <trkpt lat="47.42972" lon="6.60901">
        <ele>293.7</ele>
        <time>2019-08-16T15:34:45Z</time>
      </trkpt>
      <trkpt lat="47.42974" lon="6.60894">
        <ele>293.7</ele>
        <time>2019-08-16T15:34:46Z</time>
      </trkpt>
      <trkpt lat="47.42977" lon="6.60887">
        <ele>293.7</ele>
        <time>2019-08-16T15:34:47Z</time>
      </trkpt>
      <trkpt lat="47.42979" lon="6.60881">
        <ele>293.7</ele>
        <time>2019-08-16T15:34:48Z</time>
      </trkpt>
      <trkpt lat="47.42981" lon="6.60875">
        <ele>293.6</ele>
        <time>2019-08-16T15:34:49Z</time>
      </trkpt>
      <trkpt lat="47.42983" lon="6.6087">
        <ele>293.6</ele>
        <time>2019-08-16T15:34:50Z</time>
      </trkpt>
      <trkpt lat="47.42985" lon="6.60864">
        <ele>293.5</ele>
        <time>2019-08-16T15:34:51Z</time>
      </trkpt>
      <trkpt lat="47.42987" lon="6.60859">
        <ele>293.5</ele>
        <time>2019-08-16T15:34:52Z</time>
      </trkpt>
      <trkpt lat="47.4299" lon="6.60854">
        <ele>293.4</ele>
        <time>2019-08-16T15:34:53Z</time>
      </trkpt>
      <trkpt lat="47.42993" lon="6.6085">
        <ele>293.3</ele>
        <time>2019-08-16T15:34:54Z</time>
      </trkpt>
      <trkpt lat="47.42994" lon="6.60845">
        <ele>293.2</ele>
        <time>2019-08-16T15:34:55Z</time>
      </trkpt>
      <trkpt lat="47.42997" lon="6.6084">
        <ele>293.1</ele>
        <time>2019-08-16T15:34:56Z</time>
      </trkpt>
      <trkpt lat="47.43" lon="6.60835">
        <ele>293</ele>
        <time>2019-08-16T15:34:57Z</time>
      </trkpt>
      <trkpt lat="47.43002" lon="6.6083">
        <ele>292.9</ele>
        <time>2019-08-16T15:34:58Z</time>
      </trkpt>
      <trkpt lat="47.43005" lon="6.60824">
        <ele>292.9</ele>
        <time>2019-08-16T15:34:59Z</time>
      </trkpt>
      <trkpt lat="47.43007" lon="6.60818">
        <ele>292.8</ele>
        <time>2019-08-16T15:35:00Z</time>
      </trkpt>
      <trkpt lat="47.43009" lon="6.60812">
        <ele>292.8</ele>
        <time>2019-08-16T15:35:01Z</time>
      </trkpt>
      <trkpt lat="47.43011" lon="6.60806">
        <ele>292.7</ele>
        <time>2019-08-16T15:35:02Z</time>
      </trkpt>
      <trkpt lat="47.43013" lon="6.60801">
        <ele>292.7</ele>
        <time>2019-08-16T15:35:03Z</time>
      </trkpt>
      <trkpt lat="47.43015" lon="6.60796">
        <ele>292.7</ele>
        <time>2019-08-16T15:35:04Z</time>
      </trkpt>
      <trkpt lat="47.43016" lon="6.60789">
        <ele>292.7</ele>
        <time>2019-08-16T15:35:05Z</time>
      </trkpt>
      <trkpt lat="47.43018" lon="6.60783">
        <ele>292.7</ele>
        <time>2019-08-16T15:35:06Z</time>
      </trkpt>
      <trkpt lat="47.4302" lon="6.60777">
        <ele>292.7</ele>
        <time>2019-08-16T15:35:07Z</time>
      </trkpt>
      <trkpt lat="47.43022" lon="6.60771">
        <ele>292.7</ele>
        <time>2019-08-16T15:35:08Z</time>
      </trkpt>
      <trkpt lat="47.43025" lon="6.60763">
        <ele>292.7</ele>
        <time>2019-08-16T15:35:09Z</time>
      </trkpt>
      <trkpt lat="47.43027" lon="6.60757">
        <ele>292.7</ele>
        <time>2019-08-16T15:35:10Z</time>
      </trkpt>
      <trkpt lat="47.43029" lon="6.6075">
        <ele>292.7</ele>
        <time>2019-08-16T15:35:11Z</time>
      </trkpt>
      <trkpt lat="47.43032" lon="6.60744">
        <ele>292.8</ele>
        <time>2019-08-16T15:35:12Z</time>
      </trkpt>
      <trkpt lat="47.43036" lon="6.60738">
        <ele>292.8</ele>
        <time>2019-08-16T15:35:13Z</time>
      </trkpt>
      <trkpt lat="47.43038" lon="6.60732">
        <ele>292.8</ele>
        <time>2019-08-16T15:35:14Z</time>
      </trkpt>
      <trkpt lat="47.43041" lon="6.60727">
        <ele>292.8</ele>
        <time>2019-08-16T15:35:15Z</time>
      </trkpt>
      <trkpt lat="47.43043" lon="6.60722">
        <ele>292.9</ele>
        <time>2019-08-16T15:35:16Z</time>
      </trkpt>
      <trkpt lat="47.43045" lon="6.60716">
        <ele>292.9</ele>
        <time>2019-08-16T15:35:17Z</time>
      </trkpt>
      <trkpt lat="47.43048" lon="6.6071">
        <ele>292.9</ele>
        <time>2019-08-16T15:35:18Z</time>
      </trkpt>
      <trkpt lat="47.43051" lon="6.60704">
        <ele>292.8</ele>
        <time>2019-08-16T15:35:19Z</time>
      </trkpt>
      <trkpt lat="47.43053" lon="6.60698">
        <ele>292.8</ele>
        <time>2019-08-16T15:35:20Z</time>
      </trkpt>
      <trkpt lat="47.43056" lon="6.6069">
        <ele>292.7</ele>
        <time>2019-08-16T15:35:21Z</time>
      </trkpt>
      <trkpt lat="47.43059" lon="6.60685">
        <ele>292.6</ele>
        <time>2019-08-16T15:35:22Z</time>
      </trkpt>
      <trkpt lat="47.43062" lon="6.6068">
        <ele>292.5</ele>
        <time>2019-08-16T15:35:23Z</time>
      </trkpt>
      <trkpt lat="47.43064" lon="6.60674">
        <ele>292.4</ele>
        <time>2019-08-16T15:35:24Z</time>
      </trkpt>
      <trkpt lat="47.43067" lon="6.60669">
        <ele>292.3</ele>
        <time>2019-08-16T15:35:25Z</time>
      </trkpt>
      <trkpt lat="47.4307" lon="6.60663">
        <ele>292.2</ele>
        <time>2019-08-16T15:35:26Z</time>
      </trkpt>
      <trkpt lat="47.43073" lon="6.60657">
        <ele>292.1</ele>
        <time>2019-08-16T15:35:27Z</time>
      </trkpt>
      <trkpt lat="47.43076" lon="6.60651">
        <ele>291.9</ele>
        <time>2019-08-16T15:35:28Z</time>
      </trkpt>
      <trkpt lat="47.43079" lon="6.60644">
        <ele>291.8</ele>
        <time>2019-08-16T15:35:29Z</time>
      </trkpt>
      <trkpt lat="47.43082" lon="6.60637">
        <ele>291.8</ele>
        <time>2019-08-16T15:35:30Z</time>
      </trkpt>
      <trkpt lat="47.43086" lon="6.60631">
        <ele>291.7</ele>
        <time>2019-08-16T15:35:31Z</time>
      </trkpt>
      <trkpt lat="47.43089" lon="6.60625">
        <ele>291.7</ele>
        <time>2019-08-16T15:35:32Z</time>
      </trkpt>
      <trkpt lat="47.43092" lon="6.60619">
        <ele>291.7</ele>
        <time>2019-08-16T15:35:33Z</time>
      </trkpt>
      <trkpt lat="47.43096" lon="6.60614">
        <ele>291.7</ele>
        <time>2019-08-16T15:35:34Z</time>
      </trkpt>
      <trkpt lat="47.43099" lon="6.60609">
        <ele>291.7</ele>
        <time>2019-08-16T15:35:35Z</time>
      </trkpt>
      <trkpt lat="47.43101" lon="6.60603">
        <ele>291.7</ele>
        <time>2019-08-16T15:35:36Z</time>
      </trkpt>
      <trkpt lat="47.43103" lon="6.60598">
        <ele>291.7</ele>
        <time>2019-08-16T15:35:37Z</time>
      </trkpt>
      <trkpt lat="47.43105" lon="6.60593">
        <ele>291.7</ele>
        <time>2019-08-16T15:35:38Z</time>
      </trkpt>
      <trkpt lat="47.43108" lon="6.60587">
        <ele>291.7</ele>
        <time>2019-08-16T15:35:39Z</time>
      </trkpt>
      <trkpt lat="47.4311" lon="6.60581">
        <ele>291.7</ele>
        <time>2019-08-16T15:35:40Z</time>
      </trkpt>
      <trkpt lat="47.43112" lon="6.60574">
        <ele>291.7</ele>
        <time>2019-08-16T15:35:41Z</time>
      </trkpt>
      <trkpt lat="47.43115" lon="6.60567">
        <ele>291.7</ele>
        <time>2019-08-16T15:35:42Z</time>
      </trkpt>
      <trkpt lat="47.43117" lon="6.60559">
        <ele>291.7</ele>
        <time>2019-08-16T15:35:43Z</time>
      </trkpt>
      <trkpt lat="47.4312" lon="6.60552">
        <ele>291.7</ele>
        <time>2019-08-16T15:35:44Z</time>
      </trkpt>
      <trkpt lat="47.43123" lon="6.60546">
        <ele>291.7</ele>
        <time>2019-08-16T15:35:45Z</time>
      </trkpt>
      <trkpt lat="47.43126" lon="6.60539">
        <ele>291.7</ele>
        <time>2019-08-16T15:35:46Z</time>
      </trkpt>
      <trkpt lat="47.43128" lon="6.60533">
        <ele>291.7</ele>
        <time>2019-08-16T15:35:47Z</time>
      </trkpt>
      <trkpt lat="47.43131" lon="6.60527">
        <ele>291.7</ele>
        <time>2019-08-16T15:35:48Z</time>
      </trkpt>
      <trkpt lat="47.43134" lon="6.60521">
        <ele>291.7</ele>
        <time>2019-08-16T15:35:49Z</time>
      </trkpt>
      <trkpt lat="47.43136" lon="6.60515">
        <ele>291.7</ele>
        <time>2019-08-16T15:35:50Z</time>
      </trkpt>
      <trkpt lat="47.43138" lon="6.60509">
        <ele>291.7</ele>
        <time>2019-08-16T15:35:51Z</time>
      </trkpt>
      <trkpt lat="47.43141" lon="6.60502">
        <ele>291.7</ele>
        <time>2019-08-16T15:35:52Z</time>
      </trkpt>
      <trkpt lat="47.43143" lon="6.60496">
        <ele>291.7</ele>
        <time>2019-08-16T15:35:53Z</time>
      </trkpt>
      <trkpt lat="47.43146" lon="6.6049">
        <ele>291.7</ele>
        <time>2019-08-16T15:35:54Z</time>
      </trkpt>
      <trkpt lat="47.43148" lon="6.60484">
        <ele>291.7</ele>
        <time>2019-08-16T15:35:55Z</time>
      </trkpt>
      <trkpt lat="47.43151" lon="6.60478">
        <ele>291.7</ele>
        <time>2019-08-16T15:35:56Z</time>
      </trkpt>
      <trkpt lat="47.43153" lon="6.60472">
        <ele>291.7</ele>
        <time>2019-08-16T15:35:57Z</time>
      </trkpt>
      <trkpt lat="47.43155" lon="6.60465">
        <ele>291.7</ele>
        <time>2019-08-16T15:35:58Z</time>
      </trkpt>
      <trkpt lat="47.43158" lon="6.6046">
        <ele>291.7</ele>
        <time>2019-08-16T15:35:59Z</time>
      </trkpt>
      <trkpt lat="47.4316" lon="6.60454">
        <ele>291.7</ele>
        <time>2019-08-16T15:36:00Z</time>
      </trkpt>
      <trkpt lat="47.43164" lon="6.60448">
        <ele>291.7</ele>
        <time>2019-08-16T15:36:01Z</time>
      </trkpt>
      <trkpt lat="47.43167" lon="6.60443">
        <ele>291.7</ele>
        <time>2019-08-16T15:36:02Z</time>
      </trkpt>
      <trkpt lat="47.43169" lon="6.60437">
        <ele>291.7</ele>
        <time>2019-08-16T15:36:03Z</time>
      </trkpt>
      <trkpt lat="47.43171" lon="6.60431">
        <ele>291.7</ele>
        <time>2019-08-16T15:36:04Z</time>
      </trkpt>
      <trkpt lat="47.43174" lon="6.60425">
        <ele>291.7</ele>
        <time>2019-08-16T15:36:05Z</time>
      </trkpt>
      <trkpt lat="47.43177" lon="6.60419">
        <ele>291.7</ele>
        <time>2019-08-16T15:36:06Z</time>
      </trkpt>
      <trkpt lat="47.4318" lon="6.60413">
        <ele>291.7</ele>
        <time>2019-08-16T15:36:07Z</time>
      </trkpt>
      <trkpt lat="47.43182" lon="6.60407">
        <ele>291.7</ele>
        <time>2019-08-16T15:36:08Z</time>
      </trkpt>
      <trkpt lat="47.43184" lon="6.604">
        <ele>291.7</ele>
        <time>2019-08-16T15:36:09Z</time>
      </trkpt>
      <trkpt lat="47.43187" lon="6.60394">
        <ele>291.7</ele>
        <time>2019-08-16T15:36:10Z</time>
      </trkpt>
      <trkpt lat="47.4319" lon="6.6039">
        <ele>291.7</ele>
        <time>2019-08-16T15:36:11Z</time>
      </trkpt>
      <trkpt lat="47.43192" lon="6.60383">
        <ele>291.7</ele>
        <time>2019-08-16T15:36:12Z</time>
      </trkpt>
      <trkpt lat="47.43195" lon="6.60376">
        <ele>291.7</ele>
        <time>2019-08-16T15:36:13Z</time>
      </trkpt>
      <trkpt lat="47.43197" lon="6.6037">
        <ele>291.7</ele>
        <time>2019-08-16T15:36:14Z</time>
      </trkpt>
      <trkpt lat="47.432" lon="6.60365">
        <ele>291.7</ele>
        <time>2019-08-16T15:36:15Z</time>
      </trkpt>
      <trkpt lat="47.43202" lon="6.6036">
        <ele>291.7</ele>
        <time>2019-08-16T15:36:16Z</time>
      </trkpt>
      <trkpt lat="47.43204" lon="6.60354">
        <ele>291.7</ele>
        <time>2019-08-16T15:36:17Z</time>
      </trkpt>
      <trkpt lat="47.43207" lon="6.60347">
        <ele>291.7</ele>
        <time>2019-08-16T15:36:18Z</time>
      </trkpt>
      <trkpt lat="47.4321" lon="6.60341">
        <ele>291.7</ele>
        <time>2019-08-16T15:36:19Z</time>
      </trkpt>
      <trkpt lat="47.43212" lon="6.60335">
        <ele>291.7</ele>
        <time>2019-08-16T15:36:20Z</time>
      </trkpt>
      <trkpt lat="47.43215" lon="6.60329">
        <ele>291.7</ele>
        <time>2019-08-16T15:36:21Z</time>
      </trkpt>
      <trkpt lat="47.43217" lon="6.60322">
        <ele>291.7</ele>
        <time>2019-08-16T15:36:22Z</time>
      </trkpt>
      <trkpt lat="47.43221" lon="6.60316">
        <ele>291.7</ele>
        <time>2019-08-16T15:36:23Z</time>
      </trkpt>
      <trkpt lat="47.43224" lon="6.60309">
        <ele>291.7</ele>
        <time>2019-08-16T15:36:24Z</time>
      </trkpt>
      <trkpt lat="47.43227" lon="6.60302">
        <ele>291.7</ele>
        <time>2019-08-16T15:36:25Z</time>
      </trkpt>
      <trkpt lat="47.4323" lon="6.60296">
        <ele>291.7</ele>
        <time>2019-08-16T15:36:26Z</time>
      </trkpt>
      <trkpt lat="47.43234" lon="6.60289">
        <ele>291.7</ele>
        <time>2019-08-16T15:36:27Z</time>
      </trkpt>
      <trkpt lat="47.43236" lon="6.60282">
        <ele>291.7</ele>
        <time>2019-08-16T15:36:28Z</time>
      </trkpt>
      <trkpt lat="47.43239" lon="6.60275">
        <ele>291.7</ele>
        <time>2019-08-16T15:36:29Z</time>
      </trkpt>
      <trkpt lat="47.43242" lon="6.60267">
        <ele>291.7</ele>
        <time>2019-08-16T15:36:30Z</time>
      </trkpt>
      <trkpt lat="47.43245" lon="6.6026">
        <ele>291.7</ele>
        <time>2019-08-16T15:36:31Z</time>
      </trkpt>
      <trkpt lat="47.43248" lon="6.60254">
        <ele>291.7</ele>
        <time>2019-08-16T15:36:32Z</time>
      </trkpt>
      <trkpt lat="47.43251" lon="6.60248">
        <ele>291.7</ele>
        <time>2019-08-16T15:36:33Z</time>
      </trkpt>
      <trkpt lat="47.43254" lon="6.60242">
        <ele>291.7</ele>
        <time>2019-08-16T15:36:34Z</time>
      </trkpt>
      <trkpt lat="47.43258" lon="6.60236">
        <ele>291.7</ele>
        <time>2019-08-16T15:36:35Z</time>
      </trkpt>
      <trkpt lat="47.43262" lon="6.6023">
        <ele>291.7</ele>
        <time>2019-08-16T15:36:36Z</time>
      </trkpt>
      <trkpt lat="47.43265" lon="6.60224">
        <ele>291.7</ele>
        <time>2019-08-16T15:36:37Z</time>
      </trkpt>
      <trkpt lat="47.43268" lon="6.60217">
        <ele>291.7</ele>
        <time>2019-08-16T15:36:38Z</time>
      </trkpt>
      <trkpt lat="47.43271" lon="6.6021">
        <ele>291.7</ele>
        <time>2019-08-16T15:36:39Z</time>
      </trkpt>
      <trkpt lat="47.43274" lon="6.60204">
        <ele>291.7</ele>
        <time>2019-08-16T15:36:40Z</time>
      </trkpt>
      <trkpt lat="47.43277" lon="6.60198">
        <ele>291.7</ele>
        <time>2019-08-16T15:36:41Z</time>
      </trkpt>
      <trkpt lat="47.43281" lon="6.60192">
        <ele>291.7</ele>
        <time>2019-08-16T15:36:42Z</time>
      </trkpt>
      <trkpt lat="47.43284" lon="6.60186">
        <ele>291.7</ele>
        <time>2019-08-16T15:36:43Z</time>
      </trkpt>
      <trkpt lat="47.43287" lon="6.60179">
        <ele>291.7</ele>
        <time>2019-08-16T15:36:44Z</time>
      </trkpt>
      <trkpt lat="47.4329" lon="6.60173">
        <ele>291.7</ele>
        <time>2019-08-16T15:36:45Z</time>
      </trkpt>
      <trkpt lat="47.43293" lon="6.60167">
        <ele>291.7</ele>
        <time>2019-08-16T15:36:46Z</time>
      </trkpt>
      <trkpt lat="47.43296" lon="6.60161">
        <ele>291.7</ele>
        <time>2019-08-16T15:36:47Z</time>
      </trkpt>
      <trkpt lat="47.43298" lon="6.60155">
        <ele>291.7</ele>
        <time>2019-08-16T15:36:48Z</time>
      </trkpt>
      <trkpt lat="47.43301" lon="6.60149">
        <ele>291.7</ele>
        <time>2019-08-16T15:36:49Z</time>
      </trkpt>
      <trkpt lat="47.43304" lon="6.60143">
        <ele>291.7</ele>
        <time>2019-08-16T15:36:50Z</time>
      </trkpt>
      <trkpt lat="47.43307" lon="6.60136">
        <ele>291.7</ele>
        <time>2019-08-16T15:36:51Z</time>
      </trkpt>
      <trkpt lat="47.4331" lon="6.60129">
        <ele>291.7</ele>
        <time>2019-08-16T15:36:52Z</time>
      </trkpt>
      <trkpt lat="47.43312" lon="6.60124">
        <ele>291.7</ele>
        <time>2019-08-16T15:36:53Z</time>
      </trkpt>
      <trkpt lat="47.43315" lon="6.60119">
        <ele>291.7</ele>
        <time>2019-08-16T15:36:54Z</time>
      </trkpt>
      <trkpt lat="47.43318" lon="6.60113">
        <ele>291.7</ele>
        <time>2019-08-16T15:36:55Z</time>
      </trkpt>
      <trkpt lat="47.43321" lon="6.60108">
        <ele>291.7</ele>
        <time>2019-08-16T15:36:56Z</time>
      </trkpt>
      <trkpt lat="47.43323" lon="6.60102">
        <ele>291.7</ele>
        <time>2019-08-16T15:36:57Z</time>
      </trkpt>
      <trkpt lat="47.43327" lon="6.60097">
        <ele>291.7</ele>
        <time>2019-08-16T15:36:58Z</time>
      </trkpt>
      <trkpt lat="47.4333" lon="6.60091">
        <ele>291.7</ele>
        <time>2019-08-16T15:36:59Z</time>
      </trkpt>
      <trkpt lat="47.43333" lon="6.60087">
        <ele>291.7</ele>
        <time>2019-08-16T15:37:00Z</time>
      </trkpt>
      <trkpt lat="47.43337" lon="6.60082">
        <ele>291.7</ele>
        <time>2019-08-16T15:37:01Z</time>
      </trkpt>
      <trkpt lat="47.4334" lon="6.60078">
        <ele>291.7</ele>
        <time>2019-08-16T15:37:02Z</time>
      </trkpt>
      <trkpt lat="47.43343" lon="6.60073">
        <ele>291.7</ele>
        <time>2019-08-16T15:37:03Z</time>
      </trkpt>
      <trkpt lat="47.43347" lon="6.60067">
        <ele>291.7</ele>
        <time>2019-08-16T15:37:04Z</time>
      </trkpt>
      <trkpt lat="47.4335" lon="6.60062">
        <ele>291.7</ele>
        <time>2019-08-16T15:37:05Z</time>
      </trkpt>
      <trkpt lat="47.43355" lon="6.60057">
        <ele>291.7</ele>
        <time>2019-08-16T15:37:06Z</time>
      </trkpt>
      <trkpt lat="47.43359" lon="6.60053">
        <ele>291.7</ele>
        <time>2019-08-16T15:37:07Z</time>
      </trkpt>
      <trkpt lat="47.43363" lon="6.6005">
        <ele>291.7</ele>
        <time>2019-08-16T15:37:08Z</time>
      </trkpt>
      <trkpt lat="47.43367" lon="6.60046">
        <ele>291.7</ele>
        <time>2019-08-16T15:37:09Z</time>
      </trkpt>
      <trkpt lat="47.43372" lon="6.60041">
        <ele>291.7</ele>
        <time>2019-08-16T15:37:10Z</time>
      </trkpt>
      <trkpt lat="47.43375" lon="6.60037">
        <ele>291.7</ele>
        <time>2019-08-16T15:37:11Z</time>
      </trkpt>
      <trkpt lat="47.43379" lon="6.60033">
        <ele>291.7</ele>
        <time>2019-08-16T15:37:12Z</time>
      </trkpt>
      <trkpt lat="47.43383" lon="6.60029">
        <ele>291.7</ele>
        <time>2019-08-16T15:37:13Z</time>
      </trkpt>
      <trkpt lat="47.43388" lon="6.60024">
        <ele>291.7</ele>
        <time>2019-08-16T15:37:14Z</time>
      </trkpt>
      <trkpt lat="47.43392" lon="6.60021">
        <ele>291.7</ele>
        <time>2019-08-16T15:37:15Z</time>
      </trkpt>
      <trkpt lat="47.43396" lon="6.60018">
        <ele>291.7</ele>
        <time>2019-08-16T15:37:16Z</time>
      </trkpt>
      <trkpt lat="47.43401" lon="6.60015">
        <ele>291.7</ele>
        <time>2019-08-16T15:37:17Z</time>
      </trkpt>
      <trkpt lat="47.43407" lon="6.60011">
        <ele>291.7</ele>
        <time>2019-08-16T15:37:18Z</time>
      </trkpt>
      <trkpt lat="47.43414" lon="6.60008">
        <ele>291.7</ele>
        <time>2019-08-16T15:37:19Z</time>
      </trkpt>
      <trkpt lat="47.4342" lon="6.60005">
        <ele>291.7</ele>
        <time>2019-08-16T15:37:20Z</time>
      </trkpt>
      <trkpt lat="47.43426" lon="6.60002">
        <ele>291.7</ele>
        <time>2019-08-16T15:37:21Z</time>
      </trkpt>
      <trkpt lat="47.43432" lon="6.59999">
        <ele>291.7</ele>
        <time>2019-08-16T15:37:22Z</time>
      </trkpt>
      <trkpt lat="47.43439" lon="6.59996">
        <ele>291.7</ele>
        <time>2019-08-16T15:37:23Z</time>
      </trkpt>
      <trkpt lat="47.43444" lon="6.59992">
        <ele>291.7</ele>
        <time>2019-08-16T15:37:24Z</time>
      </trkpt>
      <trkpt lat="47.4345" lon="6.5999">
        <ele>291.7</ele>
        <time>2019-08-16T15:37:25Z</time>
      </trkpt>
      <trkpt lat="47.43455" lon="6.59988">
        <ele>291.7</ele>
        <time>2019-08-16T15:37:26Z</time>
      </trkpt>
      <trkpt lat="47.4346" lon="6.59986">
        <ele>291.7</ele>
        <time>2019-08-16T15:37:27Z</time>
      </trkpt>
      <trkpt lat="47.43466" lon="6.59984">
        <ele>291.7</ele>
        <time>2019-08-16T15:37:28Z</time>
      </trkpt>
      <trkpt lat="47.43471" lon="6.5998">
        <ele>291.7</ele>
        <time>2019-08-16T15:37:29Z</time>
      </trkpt>
      <trkpt lat="47.43476" lon="6.59977">
        <ele>291.7</ele>
        <time>2019-08-16T15:37:30Z</time>
      </trkpt>
      <trkpt lat="47.43481" lon="6.59975">
        <ele>291.7</ele>
        <time>2019-08-16T15:37:31Z</time>
      </trkpt>
      <trkpt lat="47.43486" lon="6.59972">
        <ele>291.7</ele>
        <time>2019-08-16T15:37:32Z</time>
      </trkpt>
      <trkpt lat="47.4349" lon="6.59969">
        <ele>291.7</ele>
        <time>2019-08-16T15:37:33Z</time>
      </trkpt>
      <trkpt lat="47.43495" lon="6.59967">
        <ele>291.7</ele>
        <time>2019-08-16T15:37:34Z</time>
      </trkpt>
      <trkpt lat="47.435" lon="6.59964">
        <ele>291.7</ele>
        <time>2019-08-16T15:37:35Z</time>
      </trkpt>
      <trkpt lat="47.43505" lon="6.59961">
        <ele>291.7</ele>
        <time>2019-08-16T15:37:36Z</time>
      </trkpt>
      <trkpt lat="47.4351" lon="6.59958">
        <ele>291.7</ele>
        <time>2019-08-16T15:37:37Z</time>
      </trkpt>
      <trkpt lat="47.43516" lon="6.59955">
        <ele>291.7</ele>
        <time>2019-08-16T15:37:38Z</time>
      </trkpt>
      <trkpt lat="47.43521" lon="6.59952">
        <ele>291.7</ele>
        <time>2019-08-16T15:37:39Z</time>
      </trkpt>
      <trkpt lat="47.43526" lon="6.59949">
        <ele>291.7</ele>
        <time>2019-08-16T15:37:40Z</time>
      </trkpt>
      <trkpt lat="47.43532" lon="6.59948">
        <ele>291.7</ele>
        <time>2019-08-16T15:37:41Z</time>
      </trkpt>
      <trkpt lat="47.43536" lon="6.59946">
        <ele>291.7</ele>
        <time>2019-08-16T15:37:42Z</time>
      </trkpt>
      <trkpt lat="47.43541" lon="6.59944">
        <ele>291.7</ele>
        <time>2019-08-16T15:37:43Z</time>
      </trkpt>
      <trkpt lat="47.43545" lon="6.59943">
        <ele>291.7</ele>
        <time>2019-08-16T15:37:44Z</time>
      </trkpt>
      <trkpt lat="47.4355" lon="6.59942">
        <ele>291.7</ele>
        <time>2019-08-16T15:37:45Z</time>
      </trkpt>
      <trkpt lat="47.43555" lon="6.5994">
        <ele>291.7</ele>
        <time>2019-08-16T15:37:46Z</time>
      </trkpt>
      <trkpt lat="47.4356" lon="6.59939">
        <ele>291.7</ele>
        <time>2019-08-16T15:37:47Z</time>
      </trkpt>
      <trkpt lat="47.43565" lon="6.59937">
        <ele>291.7</ele>
        <time>2019-08-16T15:37:48Z</time>
      </trkpt>
      <trkpt lat="47.43569" lon="6.59935">
        <ele>291.7</ele>
        <time>2019-08-16T15:37:49Z</time>
      </trkpt>
      <trkpt lat="47.43574" lon="6.59933">
        <ele>291.7</ele>
        <time>2019-08-16T15:37:50Z</time>
      </trkpt>
      <trkpt lat="47.43578" lon="6.59931">
        <ele>291.7</ele>
        <time>2019-08-16T15:37:51Z</time>
      </trkpt>
      <trkpt lat="47.43582" lon="6.59928">
        <ele>291.7</ele>
        <time>2019-08-16T15:37:52Z</time>
      </trkpt>
      <trkpt lat="47.43588" lon="6.59926">
        <ele>291.7</ele>
        <time>2019-08-16T15:37:53Z</time>
      </trkpt>
      <trkpt lat="47.43593" lon="6.59923">
        <ele>291.7</ele>
        <time>2019-08-16T15:37:54Z</time>
      </trkpt>
      <trkpt lat="47.43599" lon="6.5992">
        <ele>291.7</ele>
        <time>2019-08-16T15:37:55Z</time>
      </trkpt>
      <trkpt lat="47.43604" lon="6.59918">
        <ele>291.7</ele>
        <time>2019-08-16T15:37:56Z</time>
      </trkpt>
      <trkpt lat="47.4361" lon="6.59915">
        <ele>291.7</ele>
        <time>2019-08-16T15:37:57Z</time>
      </trkpt>
      <trkpt lat="47.43615" lon="6.59913">
        <ele>291.8</ele>
        <time>2019-08-16T15:37:58Z</time>
      </trkpt>
      <trkpt lat="47.4362" lon="6.59911">
        <ele>291.8</ele>
        <time>2019-08-16T15:37:59Z</time>
      </trkpt>
      <trkpt lat="47.43625" lon="6.59908">
        <ele>291.9</ele>
        <time>2019-08-16T15:38:00Z</time>
      </trkpt>
      <trkpt lat="47.4363" lon="6.59905">
        <ele>292</ele>
        <time>2019-08-16T15:38:01Z</time>
      </trkpt>
      <trkpt lat="47.43635" lon="6.59903">
        <ele>292.2</ele>
        <time>2019-08-16T15:38:02Z</time>
      </trkpt>
      <trkpt lat="47.4364" lon="6.59901">
        <ele>292.3</ele>
        <time>2019-08-16T15:38:03Z</time>
      </trkpt>
      <trkpt lat="47.43645" lon="6.59898">
        <ele>292.4</ele>
        <time>2019-08-16T15:38:04Z</time>
      </trkpt>
      <trkpt lat="47.43652" lon="6.59894">
        <ele>292.5</ele>
        <time>2019-08-16T15:38:05Z</time>
      </trkpt>
      <trkpt lat="47.43657" lon="6.59891">
        <ele>292.6</ele>
        <time>2019-08-16T15:38:06Z</time>
      </trkpt>
      <trkpt lat="47.43662" lon="6.59887">
        <ele>292.6</ele>
        <time>2019-08-16T15:38:07Z</time>
      </trkpt>
      <trkpt lat="47.43668" lon="6.59885">
        <ele>292.6</ele>
        <time>2019-08-16T15:38:08Z</time>
      </trkpt>
      <trkpt lat="47.43673" lon="6.59882">
        <ele>292.6</ele>
        <time>2019-08-16T15:38:09Z</time>
      </trkpt>
      <trkpt lat="47.43678" lon="6.5988">
        <ele>292.6</ele>
        <time>2019-08-16T15:38:10Z</time>
      </trkpt>
      <trkpt lat="47.43684" lon="6.59878">
        <ele>292.5</ele>
        <time>2019-08-16T15:38:11Z</time>
      </trkpt>
      <trkpt lat="47.43689" lon="6.59876">
        <ele>292.4</ele>
        <time>2019-08-16T15:38:12Z</time>
      </trkpt>
      <trkpt lat="47.43695" lon="6.59875">
        <ele>292.3</ele>
        <time>2019-08-16T15:38:13Z</time>
      </trkpt>
      <trkpt lat="47.43702" lon="6.59873">
        <ele>292.1</ele>
        <time>2019-08-16T15:38:14Z</time>
      </trkpt>
      <trkpt lat="47.43707" lon="6.59871">
        <ele>292</ele>
        <time>2019-08-16T15:38:15Z</time>
      </trkpt>
      <trkpt lat="47.43712" lon="6.59869">
        <ele>291.9</ele>
        <time>2019-08-16T15:38:16Z</time>
      </trkpt>
      <trkpt lat="47.43718" lon="6.59866">
        <ele>291.8</ele>
        <time>2019-08-16T15:38:17Z</time>
      </trkpt>
      <trkpt lat="47.43724" lon="6.59864">
        <ele>291.7</ele>
        <time>2019-08-16T15:38:18Z</time>
      </trkpt>
      <trkpt lat="47.4373" lon="6.59862">
        <ele>291.7</ele>
        <time>2019-08-16T15:38:19Z</time>
      </trkpt>
      <trkpt lat="47.43735" lon="6.5986">
        <ele>291.7</ele>
        <time>2019-08-16T15:38:20Z</time>
      </trkpt>
      <trkpt lat="47.43741" lon="6.59859">
        <ele>291.7</ele>
        <time>2019-08-16T15:38:21Z</time>
      </trkpt>
      <trkpt lat="47.43745" lon="6.59857">
        <ele>291.7</ele>
        <time>2019-08-16T15:38:22Z</time>
      </trkpt>
      <trkpt lat="47.4375" lon="6.59856">
        <ele>291.7</ele>
        <time>2019-08-16T15:38:23Z</time>
      </trkpt>
      <trkpt lat="47.43755" lon="6.59855">
        <ele>291.7</ele>
        <time>2019-08-16T15:38:24Z</time>
      </trkpt>
      <trkpt lat="47.43761" lon="6.59855">
        <ele>291.7</ele>
        <time>2019-08-16T15:38:25Z</time>
      </trkpt>
      <trkpt lat="47.43766" lon="6.59854">
        <ele>291.7</ele>
        <time>2019-08-16T15:38:26Z</time>
      </trkpt>
      <trkpt lat="47.43771" lon="6.59853">
        <ele>291.7</ele>
        <time>2019-08-16T15:38:27Z</time>
      </trkpt>
      <trkpt lat="47.43777" lon="6.59852">
        <ele>291.7</ele>
        <time>2019-08-16T15:38:28Z</time>
      </trkpt>
      <trkpt lat="47.43783" lon="6.59851">
        <ele>291.7</ele>
        <time>2019-08-16T15:38:29Z</time>
      </trkpt>
      <trkpt lat="47.43787" lon="6.59849">
        <ele>291.7</ele>
        <time>2019-08-16T15:38:30Z</time>
      </trkpt>
      <trkpt lat="47.43792" lon="6.59847">
        <ele>291.7</ele>
        <time>2019-08-16T15:38:31Z</time>
      </trkpt>
      <trkpt lat="47.43798" lon="6.59846">
        <ele>291.7</ele>
        <time>2019-08-16T15:38:32Z</time>
      </trkpt>
      <trkpt lat="47.43803" lon="6.59845">
        <ele>291.7</ele>
        <time>2019-08-16T15:38:33Z</time>
      </trkpt>
      <trkpt lat="47.43809" lon="6.59844">
        <ele>291.7</ele>
        <time>2019-08-16T15:38:34Z</time>
      </trkpt>
      <trkpt lat="47.43814" lon="6.59844">
        <ele>291.7</ele>
        <time>2019-08-16T15:38:35Z</time>
      </trkpt>
      <trkpt lat="47.4382" lon="6.59841">
        <ele>291.7</ele>
        <time>2019-08-16T15:38:36Z</time>
      </trkpt>
      <trkpt lat="47.43825" lon="6.59838">
        <ele>291.7</ele>
        <time>2019-08-16T15:38:37Z</time>
      </trkpt>
      <trkpt lat="47.43831" lon="6.59836">
        <ele>291.7</ele>
        <time>2019-08-16T15:38:38Z</time>
      </trkpt>
      <trkpt lat="47.43836" lon="6.59835">
        <ele>291.7</ele>
        <time>2019-08-16T15:38:39Z</time>
      </trkpt>
      <trkpt lat="47.43841" lon="6.59834">
        <ele>291.7</ele>
        <time>2019-08-16T15:38:40Z</time>
      </trkpt>
      <trkpt lat="47.43846" lon="6.59833">
        <ele>291.7</ele>
        <time>2019-08-16T15:38:41Z</time>
      </trkpt>
      <trkpt lat="47.43851" lon="6.59831">
        <ele>291.7</ele>
        <time>2019-08-16T15:38:42Z</time>
      </trkpt>
      <trkpt lat="47.43857" lon="6.5983">
        <ele>291.7</ele>
        <time>2019-08-16T15:38:43Z</time>
      </trkpt>
      <trkpt lat="47.43863" lon="6.59829">
        <ele>291.7</ele>
        <time>2019-08-16T15:38:44Z</time>
      </trkpt>
      <trkpt lat="47.43868" lon="6.59827">
        <ele>291.7</ele>
        <time>2019-08-16T15:38:45Z</time>
      </trkpt>
      <trkpt lat="47.43874" lon="6.59825">
        <ele>291.8</ele>
        <time>2019-08-16T15:38:46Z</time>
      </trkpt>
      <trkpt lat="47.43879" lon="6.59824">
        <ele>291.8</ele>
        <time>2019-08-16T15:38:47Z</time>
      </trkpt>
      <trkpt lat="47.43884" lon="6.59823">
        <ele>291.8</ele>
        <time>2019-08-16T15:38:48Z</time>
      </trkpt>
      <trkpt lat="47.43889" lon="6.59822">
        <ele>291.9</ele>
        <time>2019-08-16T15:38:49Z</time>
      </trkpt>
      <trkpt lat="47.43894" lon="6.59821">
        <ele>291.9</ele>
        <time>2019-08-16T15:38:50Z</time>
      </trkpt>
      <trkpt lat="47.43898" lon="6.5982">
        <ele>291.9</ele>
        <time>2019-08-16T15:38:51Z</time>
      </trkpt>
      <trkpt lat="47.43903" lon="6.59819">
        <ele>291.8</ele>
        <time>2019-08-16T15:38:52Z</time>
      </trkpt>
      <trkpt lat="47.43909" lon="6.59818">
        <ele>291.8</ele>
        <time>2019-08-16T15:38:53Z</time>
      </trkpt>
      <trkpt lat="47.43915" lon="6.59817">
        <ele>291.8</ele>
        <time>2019-08-16T15:38:54Z</time>
      </trkpt>
      <trkpt lat="47.4392" lon="6.59816">
        <ele>291.7</ele>
        <time>2019-08-16T15:38:55Z</time>
      </trkpt>
      <trkpt lat="47.43925" lon="6.59816">
        <ele>291.7</ele>
        <time>2019-08-16T15:38:56Z</time>
      </trkpt>
      <trkpt lat="47.43929" lon="6.59815">
        <ele>291.7</ele>
        <time>2019-08-16T15:38:57Z</time>
      </trkpt>
      <trkpt lat="47.43934" lon="6.59815">
        <ele>291.7</ele>
        <time>2019-08-16T15:38:58Z</time>
      </trkpt>
      <trkpt lat="47.43938" lon="6.59814">
        <ele>291.7</ele>
        <time>2019-08-16T15:38:59Z</time>
      </trkpt>
      <trkpt lat="47.43942" lon="6.59813">
        <ele>291.7</ele>
        <time>2019-08-16T15:39:00Z</time>
      </trkpt>
      <trkpt lat="47.43946" lon="6.59812">
        <ele>291.7</ele>
        <time>2019-08-16T15:39:01Z</time>
      </trkpt>
      <trkpt lat="47.43951" lon="6.5981">
        <ele>291.7</ele>
        <time>2019-08-16T15:39:02Z</time>
      </trkpt>
      <trkpt lat="47.43957" lon="6.59807">
        <ele>291.7</ele>
        <time>2019-08-16T15:39:03Z</time>
      </trkpt>
      <trkpt lat="47.43963" lon="6.59805">
        <ele>291.7</ele>
        <time>2019-08-16T15:39:04Z</time>
      </trkpt>
      <trkpt lat="47.43968" lon="6.59803">
        <ele>291.7</ele>
        <time>2019-08-16T15:39:05Z</time>
      </trkpt>
      <trkpt lat="47.43974" lon="6.59802">
        <ele>291.7</ele>
        <time>2019-08-16T15:39:06Z</time>
      </trkpt>
      <trkpt lat="47.43978" lon="6.598">
        <ele>291.7</ele>
        <time>2019-08-16T15:39:07Z</time>
      </trkpt>
      <trkpt lat="47.43984" lon="6.598">
        <ele>291.7</ele>
        <time>2019-08-16T15:39:08Z</time>
      </trkpt>
      <trkpt lat="47.43989" lon="6.59798">
        <ele>291.7</ele>
        <time>2019-08-16T15:39:09Z</time>
      </trkpt>
      <trkpt lat="47.43994" lon="6.59797">
        <ele>291.7</ele>
        <time>2019-08-16T15:39:10Z</time>
      </trkpt>
      <trkpt lat="47.43999" lon="6.59796">
        <ele>291.7</ele>
        <time>2019-08-16T15:39:11Z</time>
      </trkpt>
      <trkpt lat="47.44005" lon="6.59796">
        <ele>291.7</ele>
        <time>2019-08-16T15:39:12Z</time>
      </trkpt>
      <trkpt lat="47.44011" lon="6.59795">
        <ele>291.7</ele>
        <time>2019-08-16T15:39:13Z</time>
      </trkpt>
      <trkpt lat="47.44016" lon="6.59793">
        <ele>291.7</ele>
        <time>2019-08-16T15:39:14Z</time>
      </trkpt>
      <trkpt lat="47.44021" lon="6.59792">
        <ele>291.7</ele>
        <time>2019-08-16T15:39:15Z</time>
      </trkpt>
      <trkpt lat="47.44026" lon="6.59792">
        <ele>291.7</ele>
        <time>2019-08-16T15:39:16Z</time>
      </trkpt>
      <trkpt lat="47.44032" lon="6.5979">
        <ele>291.7</ele>
        <time>2019-08-16T15:39:17Z</time>
      </trkpt>
      <trkpt lat="47.44038" lon="6.59788">
        <ele>291.7</ele>
        <time>2019-08-16T15:39:18Z</time>
      </trkpt>
      <trkpt lat="47.44043" lon="6.59787">
        <ele>291.7</ele>
        <time>2019-08-16T15:39:19Z</time>
      </trkpt>
      <trkpt lat="47.44049" lon="6.59785">
        <ele>291.6</ele>
        <time>2019-08-16T15:39:20Z</time>
      </trkpt>
      <trkpt lat="47.44054" lon="6.59783">
        <ele>291.6</ele>
        <time>2019-08-16T15:39:21Z</time>
      </trkpt>
      <trkpt lat="47.44058" lon="6.59783">
        <ele>291.6</ele>
        <time>2019-08-16T15:39:22Z</time>
      </trkpt>
      <trkpt lat="47.44063" lon="6.59782">
        <ele>291.5</ele>
        <time>2019-08-16T15:39:23Z</time>
      </trkpt>
      <trkpt lat="47.44068" lon="6.59781">
        <ele>291.4</ele>
        <time>2019-08-16T15:39:24Z</time>
      </trkpt>
      <trkpt lat="47.44073" lon="6.59779">
        <ele>291.4</ele>
        <time>2019-08-16T15:39:25Z</time>
      </trkpt>
      <trkpt lat="47.44078" lon="6.59778">
        <ele>291.3</ele>
        <time>2019-08-16T15:39:26Z</time>
      </trkpt>
      <trkpt lat="47.44083" lon="6.59776">
        <ele>291.1</ele>
        <time>2019-08-16T15:39:27Z</time>
      </trkpt>
      <trkpt lat="47.44088" lon="6.59775">
        <ele>291</ele>
        <time>2019-08-16T15:39:28Z</time>
      </trkpt>
      <trkpt lat="47.44093" lon="6.59774">
        <ele>290.9</ele>
        <time>2019-08-16T15:39:29Z</time>
      </trkpt>
      <trkpt lat="47.44099" lon="6.59773">
        <ele>290.8</ele>
        <time>2019-08-16T15:39:30Z</time>
      </trkpt>
      <trkpt lat="47.44103" lon="6.59772">
        <ele>290.8</ele>
        <time>2019-08-16T15:39:31Z</time>
      </trkpt>
      <trkpt lat="47.44108" lon="6.59771">
        <ele>290.7</ele>
        <time>2019-08-16T15:39:32Z</time>
      </trkpt>
      <trkpt lat="47.44112" lon="6.59771">
        <ele>290.7</ele>
        <time>2019-08-16T15:39:33Z</time>
      </trkpt>
      <trkpt lat="47.44117" lon="6.5977">
        <ele>290.7</ele>
        <time>2019-08-16T15:39:34Z</time>
      </trkpt>
      <trkpt lat="47.44122" lon="6.59769">
        <ele>290.8</ele>
        <time>2019-08-16T15:39:35Z</time>
      </trkpt>
      <trkpt lat="47.44127" lon="6.59767">
        <ele>290.8</ele>
        <time>2019-08-16T15:39:36Z</time>
      </trkpt>
      <trkpt lat="47.44132" lon="6.59766">
        <ele>290.9</ele>
        <time>2019-08-16T15:39:37Z</time>
      </trkpt>
      <trkpt lat="47.44137" lon="6.59764">
        <ele>291</ele>
        <time>2019-08-16T15:39:38Z</time>
      </trkpt>
      <trkpt lat="47.44143" lon="6.59763">
        <ele>291.1</ele>
        <time>2019-08-16T15:39:39Z</time>
      </trkpt>
      <trkpt lat="47.44147" lon="6.59763">
        <ele>291.2</ele>
        <time>2019-08-16T15:39:40Z</time>
      </trkpt>
      <trkpt lat="47.44152" lon="6.59762">
        <ele>291.3</ele>
        <time>2019-08-16T15:39:41Z</time>
      </trkpt>
      <trkpt lat="47.44157" lon="6.59761">
        <ele>291.4</ele>
        <time>2019-08-16T15:39:42Z</time>
      </trkpt>
      <trkpt lat="47.44163" lon="6.5976">
        <ele>291.5</ele>
        <time>2019-08-16T15:39:43Z</time>
      </trkpt>
      <trkpt lat="47.44168" lon="6.59759">
        <ele>291.6</ele>
        <time>2019-08-16T15:39:44Z</time>
      </trkpt>
      <trkpt lat="47.44173" lon="6.59758">
        <ele>291.6</ele>
        <time>2019-08-16T15:39:45Z</time>
      </trkpt>
      <trkpt lat="47.44179" lon="6.59756">
        <ele>291.6</ele>
        <time>2019-08-16T15:39:46Z</time>
      </trkpt>
      <trkpt lat="47.44185" lon="6.59757">
        <ele>291.6</ele>
        <time>2019-08-16T15:39:47Z</time>
      </trkpt>
      <trkpt lat="47.4419" lon="6.59756">
        <ele>291.7</ele>
        <time>2019-08-16T15:39:48Z</time>
      </trkpt>
      <trkpt lat="47.44195" lon="6.59756">
        <ele>291.7</ele>
        <time>2019-08-16T15:39:49Z</time>
      </trkpt>
      <trkpt lat="47.442" lon="6.59756">
        <ele>291.7</ele>
        <time>2019-08-16T15:39:50Z</time>
      </trkpt>
      <trkpt lat="47.44206" lon="6.59755">
        <ele>291.7</ele>
        <time>2019-08-16T15:39:51Z</time>
      </trkpt>
      <trkpt lat="47.44211" lon="6.59754">
        <ele>291.7</ele>
        <time>2019-08-16T15:39:52Z</time>
      </trkpt>
      <trkpt lat="47.44217" lon="6.59753">
        <ele>291.7</ele>
        <time>2019-08-16T15:39:53Z</time>
      </trkpt>
      <trkpt lat="47.44223" lon="6.59751">
        <ele>291.7</ele>
        <time>2019-08-16T15:39:54Z</time>
      </trkpt>
      <trkpt lat="47.44228" lon="6.59749">
        <ele>291.7</ele>
        <time>2019-08-16T15:39:55Z</time>
      </trkpt>
      <trkpt lat="47.44234" lon="6.59748">
        <ele>291.7</ele>
        <time>2019-08-16T15:39:56Z</time>
      </trkpt>
      <trkpt lat="47.44239" lon="6.59746">
        <ele>291.7</ele>
        <time>2019-08-16T15:39:57Z</time>
      </trkpt>
      <trkpt lat="47.44244" lon="6.59744">
        <ele>291.7</ele>
        <time>2019-08-16T15:39:58Z</time>
      </trkpt>
      <trkpt lat="47.44249" lon="6.59742">
        <ele>291.7</ele>
        <time>2019-08-16T15:39:59Z</time>
      </trkpt>
      <trkpt lat="47.44254" lon="6.59741">
        <ele>291.7</ele>
        <time>2019-08-16T15:40:00Z</time>
      </trkpt>
      <trkpt lat="47.4426" lon="6.5974">
        <ele>291.7</ele>
        <time>2019-08-16T15:40:01Z</time>
      </trkpt>
      <trkpt lat="47.44264" lon="6.59738">
        <ele>291.7</ele>
        <time>2019-08-16T15:40:02Z</time>
      </trkpt>
      <trkpt lat="47.44268" lon="6.59737">
        <ele>291.7</ele>
        <time>2019-08-16T15:40:03Z</time>
      </trkpt>
      <trkpt lat="47.44273" lon="6.59736">
        <ele>291.7</ele>
        <time>2019-08-16T15:40:04Z</time>
      </trkpt>
      <trkpt lat="47.44278" lon="6.59735">
        <ele>291.7</ele>
        <time>2019-08-16T15:40:05Z</time>
      </trkpt>
      <trkpt lat="47.44282" lon="6.59734">
        <ele>291.7</ele>
        <time>2019-08-16T15:40:06Z</time>
      </trkpt>
      <trkpt lat="47.44287" lon="6.59733">
        <ele>291.7</ele>
        <time>2019-08-16T15:40:07Z</time>
      </trkpt>
      <trkpt lat="47.44292" lon="6.59732">
        <ele>291.7</ele>
        <time>2019-08-16T15:40:08Z</time>
      </trkpt>
      <trkpt lat="47.44297" lon="6.5973">
        <ele>291.7</ele>
        <time>2019-08-16T15:40:09Z</time>
      </trkpt>
      <trkpt lat="47.44303" lon="6.59728">
        <ele>291.7</ele>
        <time>2019-08-16T15:40:10Z</time>
      </trkpt>
      <trkpt lat="47.44309" lon="6.59727">
        <ele>291.7</ele>
        <time>2019-08-16T15:40:11Z</time>
      </trkpt>
      <trkpt lat="47.44315" lon="6.59725">
        <ele>291.7</ele>
        <time>2019-08-16T15:40:12Z</time>
      </trkpt>
      <trkpt lat="47.4432" lon="6.59724">
        <ele>291.7</ele>
        <time>2019-08-16T15:40:13Z</time>
      </trkpt>
      <trkpt lat="47.44326" lon="6.59722">
        <ele>291.7</ele>
        <time>2019-08-16T15:40:14Z</time>
      </trkpt>
      <trkpt lat="47.44331" lon="6.59722">
        <ele>291.7</ele>
        <time>2019-08-16T15:40:15Z</time>
      </trkpt>
      <trkpt lat="47.44335" lon="6.59721">
        <ele>291.7</ele>
        <time>2019-08-16T15:40:16Z</time>
      </trkpt>
      <trkpt lat="47.44341" lon="6.59719">
        <ele>291.7</ele>
        <time>2019-08-16T15:40:17Z</time>
      </trkpt>
      <trkpt lat="47.44348" lon="6.59717">
        <ele>291.7</ele>
        <time>2019-08-16T15:40:18Z</time>
      </trkpt>
      <trkpt lat="47.44353" lon="6.59716">
        <ele>291.7</ele>
        <time>2019-08-16T15:40:19Z</time>
      </trkpt>
      <trkpt lat="47.44359" lon="6.59715">
        <ele>291.7</ele>
        <time>2019-08-16T15:40:20Z</time>
      </trkpt>
      <trkpt lat="47.44364" lon="6.59714">
        <ele>291.7</ele>
        <time>2019-08-16T15:40:21Z</time>
      </trkpt>
      <trkpt lat="47.4437" lon="6.59714">
        <ele>291.7</ele>
        <time>2019-08-16T15:40:22Z</time>
      </trkpt>
      <trkpt lat="47.44375" lon="6.5971">
        <ele>291.7</ele>
        <time>2019-08-16T15:40:23Z</time>
      </trkpt>
      <trkpt lat="47.4438" lon="6.59709">
        <ele>291.7</ele>
        <time>2019-08-16T15:40:24Z</time>
      </trkpt>
      <trkpt lat="47.44385" lon="6.59707">
        <ele>291.7</ele>
        <time>2019-08-16T15:40:25Z</time>
      </trkpt>
      <trkpt lat="47.4439" lon="6.59708">
        <ele>291.7</ele>
        <time>2019-08-16T15:40:26Z</time>
      </trkpt>
      <trkpt lat="47.44395" lon="6.59708">
        <ele>291.7</ele>
        <time>2019-08-16T15:40:27Z</time>
      </trkpt>
      <trkpt lat="47.44399" lon="6.59707">
        <ele>291.7</ele>
        <time>2019-08-16T15:40:28Z</time>
      </trkpt>
      <trkpt lat="47.44404" lon="6.59708">
        <ele>291.7</ele>
        <time>2019-08-16T15:40:29Z</time>
      </trkpt>
      <trkpt lat="47.44409" lon="6.59709">
        <ele>291.7</ele>
        <time>2019-08-16T15:40:30Z</time>
      </trkpt>
      <trkpt lat="47.44414" lon="6.59709">
        <ele>291.7</ele>
        <time>2019-08-16T15:40:31Z</time>
      </trkpt>
      <trkpt lat="47.44419" lon="6.59709">
        <ele>291.7</ele>
        <time>2019-08-16T15:40:32Z</time>
      </trkpt>
      <trkpt lat="47.44424" lon="6.5971">
        <ele>291.7</ele>
        <time>2019-08-16T15:40:33Z</time>
      </trkpt>
      <trkpt lat="47.44429" lon="6.5971">
        <ele>291.7</ele>
        <time>2019-08-16T15:40:34Z</time>
      </trkpt>
      <trkpt lat="47.44434" lon="6.5971">
        <ele>291.7</ele>
        <time>2019-08-16T15:40:35Z</time>
      </trkpt>
      <trkpt lat="47.4444" lon="6.5971">
        <ele>291.7</ele>
        <time>2019-08-16T15:40:36Z</time>
      </trkpt>
      <trkpt lat="47.44445" lon="6.5971">
        <ele>291.6</ele>
        <time>2019-08-16T15:40:37Z</time>
      </trkpt>
      <trkpt lat="47.4445" lon="6.5971">
        <ele>291.6</ele>
        <time>2019-08-16T15:40:38Z</time>
      </trkpt>
      <trkpt lat="47.44455" lon="6.59711">
        <ele>291.6</ele>
        <time>2019-08-16T15:40:39Z</time>
      </trkpt>
      <trkpt lat="47.4446" lon="6.59711">
        <ele>291.6</ele>
        <time>2019-08-16T15:40:40Z</time>
      </trkpt>
      <trkpt lat="47.44464" lon="6.59711">
        <ele>291.6</ele>
        <time>2019-08-16T15:40:41Z</time>
      </trkpt>
      <trkpt lat="47.4447" lon="6.59713">
        <ele>291.6</ele>
        <time>2019-08-16T15:40:42Z</time>
      </trkpt>
      <trkpt lat="47.44475" lon="6.59712">
        <ele>291.5</ele>
        <time>2019-08-16T15:40:43Z</time>
      </trkpt>
      <trkpt lat="47.44481" lon="6.5971">
        <ele>291.5</ele>
        <time>2019-08-16T15:40:44Z</time>
      </trkpt>
      <trkpt lat="47.44487" lon="6.5971">
        <ele>291.4</ele>
        <time>2019-08-16T15:40:45Z</time>
      </trkpt>
      <trkpt lat="47.44493" lon="6.5971">
        <ele>291.3</ele>
        <time>2019-08-16T15:40:46Z</time>
      </trkpt>
      <trkpt lat="47.44498" lon="6.59709">
        <ele>291.1</ele>
        <time>2019-08-16T15:40:47Z</time>
      </trkpt>
      <trkpt lat="47.44505" lon="6.5971">
        <ele>291</ele>
        <time>2019-08-16T15:40:48Z</time>
      </trkpt>
      <trkpt lat="47.4451" lon="6.5971">
        <ele>290.9</ele>
        <time>2019-08-16T15:40:49Z</time>
      </trkpt>
      <trkpt lat="47.44516" lon="6.5971">
        <ele>290.8</ele>
        <time>2019-08-16T15:40:50Z</time>
      </trkpt>
      <trkpt lat="47.44521" lon="6.59711">
        <ele>290.7</ele>
        <time>2019-08-16T15:40:51Z</time>
      </trkpt>
      <trkpt lat="47.44526" lon="6.5971">
        <ele>290.7</ele>
        <time>2019-08-16T15:40:52Z</time>
      </trkpt>
      <trkpt lat="47.44531" lon="6.5971">
        <ele>290.7</ele>
        <time>2019-08-16T15:40:53Z</time>
      </trkpt>
      <trkpt lat="47.44536" lon="6.59709">
        <ele>290.7</ele>
        <time>2019-08-16T15:40:54Z</time>
      </trkpt>
      <trkpt lat="47.44541" lon="6.59708">
        <ele>290.7</ele>
        <time>2019-08-16T15:40:55Z</time>
      </trkpt>
      <trkpt lat="47.44547" lon="6.59707">
        <ele>290.7</ele>
        <time>2019-08-16T15:40:56Z</time>
      </trkpt>
      <trkpt lat="47.44552" lon="6.59706">
        <ele>290.7</ele>
        <time>2019-08-16T15:40:57Z</time>
      </trkpt>
      <trkpt lat="47.44557" lon="6.59705">
        <ele>290.7</ele>
        <time>2019-08-16T15:40:58Z</time>
      </trkpt>
      <trkpt lat="47.44562" lon="6.59703">
        <ele>290.8</ele>
        <time>2019-08-16T15:40:59Z</time>
      </trkpt>
      <trkpt lat="47.44568" lon="6.59703">
        <ele>290.8</ele>
        <time>2019-08-16T15:41:00Z</time>
      </trkpt>
      <trkpt lat="47.44574" lon="6.59702">
        <ele>290.9</ele>
        <time>2019-08-16T15:41:01Z</time>
      </trkpt>
      <trkpt lat="47.44579" lon="6.59702">
        <ele>291</ele>
        <time>2019-08-16T15:41:02Z</time>
      </trkpt>
      <trkpt lat="47.44584" lon="6.59703">
        <ele>291.2</ele>
        <time>2019-08-16T15:41:03Z</time>
      </trkpt>
      <trkpt lat="47.44589" lon="6.59704">
        <ele>291.3</ele>
        <time>2019-08-16T15:41:04Z</time>
      </trkpt>
      <trkpt lat="47.44594" lon="6.59705">
        <ele>291.4</ele>
        <time>2019-08-16T15:41:05Z</time>
      </trkpt>
      <trkpt lat="47.44599" lon="6.59706">
        <ele>291.5</ele>
        <time>2019-08-16T15:41:06Z</time>
      </trkpt>
      <trkpt lat="47.44603" lon="6.59707">
        <ele>291.6</ele>
        <time>2019-08-16T15:41:07Z</time>
      </trkpt>
      <trkpt lat="47.44608" lon="6.59707">
        <ele>291.6</ele>
        <time>2019-08-16T15:41:08Z</time>
      </trkpt>
      <trkpt lat="47.44614" lon="6.59708">
        <ele>291.6</ele>
        <time>2019-08-16T15:41:09Z</time>
      </trkpt>
      <trkpt lat="47.44618" lon="6.59709">
        <ele>291.6</ele>
        <time>2019-08-16T15:41:10Z</time>
      </trkpt>
      <trkpt lat="47.44623" lon="6.5971">
        <ele>291.6</ele>
        <time>2019-08-16T15:41:11Z</time>
      </trkpt>
      <trkpt lat="47.44629" lon="6.59711">
        <ele>291.6</ele>
        <time>2019-08-16T15:41:12Z</time>
      </trkpt>
      <trkpt lat="47.44634" lon="6.59711">
        <ele>291.7</ele>
        <time>2019-08-16T15:41:13Z</time>
      </trkpt>
      <trkpt lat="47.44639" lon="6.59709">
        <ele>291.7</ele>
        <time>2019-08-16T15:41:14Z</time>
      </trkpt>
      <trkpt lat="47.44645" lon="6.59709">
        <ele>291.7</ele>
        <time>2019-08-16T15:41:15Z</time>
      </trkpt>
      <trkpt lat="47.44651" lon="6.59709">
        <ele>291.7</ele>
        <time>2019-08-16T15:41:16Z</time>
      </trkpt>
      <trkpt lat="47.44656" lon="6.5971">
        <ele>291.7</ele>
        <time>2019-08-16T15:41:17Z</time>
      </trkpt>
      <trkpt lat="47.44662" lon="6.5971">
        <ele>291.7</ele>
        <time>2019-08-16T15:41:18Z</time>
      </trkpt>
      <trkpt lat="47.44668" lon="6.5971">
        <ele>291.7</ele>
        <time>2019-08-16T15:41:19Z</time>
      </trkpt>
      <trkpt lat="47.44673" lon="6.59709">
        <ele>291.7</ele>
        <time>2019-08-16T15:41:20Z</time>
      </trkpt>
      <trkpt lat="47.44679" lon="6.59709">
        <ele>291.7</ele>
        <time>2019-08-16T15:41:21Z</time>
      </trkpt>
      <trkpt lat="47.44685" lon="6.5971">
        <ele>291.7</ele>
        <time>2019-08-16T15:41:22Z</time>
      </trkpt>
      <trkpt lat="47.44691" lon="6.59711">
        <ele>291.7</ele>
        <time>2019-08-16T15:41:23Z</time>
      </trkpt>
      <trkpt lat="47.44696" lon="6.5971">
        <ele>291.7</ele>
        <time>2019-08-16T15:41:24Z</time>
      </trkpt>
      <trkpt lat="47.44702" lon="6.5971">
        <ele>291.7</ele>
        <time>2019-08-16T15:41:25Z</time>
      </trkpt>
      <trkpt lat="47.44707" lon="6.59709">
        <ele>291.7</ele>
        <time>2019-08-16T15:41:26Z</time>
      </trkpt>
      <trkpt lat="47.44713" lon="6.59708">
        <ele>291.7</ele>
        <time>2019-08-16T15:41:27Z</time>
      </trkpt>
      <trkpt lat="47.44718" lon="6.59707">
        <ele>291.7</ele>
        <time>2019-08-16T15:41:28Z</time>
      </trkpt>
      <trkpt lat="47.44723" lon="6.59706">
        <ele>291.7</ele>
        <time>2019-08-16T15:41:29Z</time>
      </trkpt>
      <trkpt lat="47.44729" lon="6.59706">
        <ele>291.6</ele>
        <time>2019-08-16T15:41:30Z</time>
      </trkpt>
      <trkpt lat="47.44734" lon="6.59706">
        <ele>291.6</ele>
        <time>2019-08-16T15:41:31Z</time>
      </trkpt>
      <trkpt lat="47.44739" lon="6.59706">
        <ele>291.6</ele>
        <time>2019-08-16T15:41:32Z</time>
      </trkpt>
      <trkpt lat="47.44744" lon="6.59706">
        <ele>291.6</ele>
        <time>2019-08-16T15:41:33Z</time>
      </trkpt>
      <trkpt lat="47.44748" lon="6.59704">
        <ele>291.6</ele>
        <time>2019-08-16T15:41:34Z</time>
      </trkpt>
      <trkpt lat="47.44753" lon="6.59701">
        <ele>291.6</ele>
        <time>2019-08-16T15:41:35Z</time>
      </trkpt>
      <trkpt lat="47.44758" lon="6.59698">
        <ele>291.6</ele>
        <time>2019-08-16T15:41:36Z</time>
      </trkpt>
      <trkpt lat="47.44762" lon="6.59698">
        <ele>291.6</ele>
        <time>2019-08-16T15:41:37Z</time>
      </trkpt>
      <trkpt lat="47.44767" lon="6.59698">
        <ele>291.6</ele>
        <time>2019-08-16T15:41:38Z</time>
      </trkpt>
      <trkpt lat="47.44772" lon="6.59697">
        <ele>291.5</ele>
        <time>2019-08-16T15:41:39Z</time>
      </trkpt>
      <trkpt lat="47.44777" lon="6.59694">
        <ele>291.4</ele>
        <time>2019-08-16T15:41:40Z</time>
      </trkpt>
      <trkpt lat="47.44782" lon="6.59691">
        <ele>291.3</ele>
        <time>2019-08-16T15:41:41Z</time>
      </trkpt>
      <trkpt lat="47.44787" lon="6.59688">
        <ele>291.2</ele>
        <time>2019-08-16T15:41:42Z</time>
      </trkpt>
      <trkpt lat="47.44792" lon="6.59686">
        <ele>291.1</ele>
        <time>2019-08-16T15:41:43Z</time>
      </trkpt>
      <trkpt lat="47.44797" lon="6.59684">
        <ele>290.9</ele>
        <time>2019-08-16T15:41:44Z</time>
      </trkpt>
      <trkpt lat="47.44803" lon="6.59681">
        <ele>290.8</ele>
        <time>2019-08-16T15:41:45Z</time>
      </trkpt>
      <trkpt lat="47.44807" lon="6.59679">
        <ele>290.8</ele>
        <time>2019-08-16T15:41:46Z</time>
      </trkpt>
      <trkpt lat="47.44812" lon="6.59678">
        <ele>290.7</ele>
        <time>2019-08-16T15:41:47Z</time>
      </trkpt>
      <trkpt lat="47.44816" lon="6.59677">
        <ele>290.7</ele>
        <time>2019-08-16T15:41:48Z</time>
      </trkpt>
      <trkpt lat="47.44821" lon="6.59675">
        <ele>290.7</ele>
        <time>2019-08-16T15:41:49Z</time>
      </trkpt>
      <trkpt lat="47.44826" lon="6.59672">
        <ele>290.7</ele>
        <time>2019-08-16T15:41:50Z</time>
      </trkpt>
      <trkpt lat="47.44831" lon="6.5967">
        <ele>290.7</ele>
        <time>2019-08-16T15:41:51Z</time>
      </trkpt>
      <trkpt lat="47.44836" lon="6.59668">
        <ele>290.7</ele>
        <time>2019-08-16T15:41:52Z</time>
      </trkpt>
      <trkpt lat="47.4484" lon="6.59666">
        <ele>290.7</ele>
        <time>2019-08-16T15:41:53Z</time>
      </trkpt>
      <trkpt lat="47.44845" lon="6.59663">
        <ele>290.7</ele>
        <time>2019-08-16T15:41:54Z</time>
      </trkpt>
      <trkpt lat="47.4485" lon="6.59661">
        <ele>290.7</ele>
        <time>2019-08-16T15:41:55Z</time>
      </trkpt>
      <trkpt lat="47.44855" lon="6.59658">
        <ele>290.7</ele>
        <time>2019-08-16T15:41:56Z</time>
      </trkpt>
      <trkpt lat="47.44859" lon="6.59655">
        <ele>290.7</ele>
        <time>2019-08-16T15:41:57Z</time>
      </trkpt>
      <trkpt lat="47.44864" lon="6.59653">
        <ele>290.7</ele>
        <time>2019-08-16T15:41:58Z</time>
      </trkpt>
      <trkpt lat="47.44869" lon="6.59649">
        <ele>290.7</ele>
        <time>2019-08-16T15:41:59Z</time>
      </trkpt>
      <trkpt lat="47.44874" lon="6.59647">
        <ele>290.7</ele>
        <time>2019-08-16T15:42:00Z</time>
      </trkpt>
      <trkpt lat="47.44879" lon="6.59644">
        <ele>290.8</ele>
        <time>2019-08-16T15:42:01Z</time>
      </trkpt>
      <trkpt lat="47.44884" lon="6.59641">
        <ele>290.9</ele>
        <time>2019-08-16T15:42:02Z</time>
      </trkpt>
      <trkpt lat="47.44889" lon="6.59637">
        <ele>291</ele>
        <time>2019-08-16T15:42:03Z</time>
      </trkpt>
      <trkpt lat="47.44894" lon="6.59634">
        <ele>291.1</ele>
        <time>2019-08-16T15:42:04Z</time>
      </trkpt>
      <trkpt lat="47.44899" lon="6.59631">
        <ele>291.3</ele>
        <time>2019-08-16T15:42:05Z</time>
      </trkpt>
      <trkpt lat="47.44904" lon="6.59628">
        <ele>291.4</ele>
        <time>2019-08-16T15:42:06Z</time>
      </trkpt>
      <trkpt lat="47.44908" lon="6.59625">
        <ele>291.4</ele>
        <time>2019-08-16T15:42:07Z</time>
      </trkpt>
      <trkpt lat="47.44912" lon="6.59623">
        <ele>291.5</ele>
        <time>2019-08-16T15:42:08Z</time>
      </trkpt>
      <trkpt lat="47.44916" lon="6.59621">
        <ele>291.6</ele>
        <time>2019-08-16T15:42:09Z</time>
      </trkpt>
      <trkpt lat="47.4492" lon="6.5962">
        <ele>291.6</ele>
        <time>2019-08-16T15:42:10Z</time>
      </trkpt>
      <trkpt lat="47.44924" lon="6.59617">
        <ele>291.6</ele>
        <time>2019-08-16T15:42:11Z</time>
      </trkpt>
      <trkpt lat="47.44928" lon="6.59616">
        <ele>291.6</ele>
        <time>2019-08-16T15:42:12Z</time>
      </trkpt>
      <trkpt lat="47.44932" lon="6.59614">
        <ele>291.6</ele>
        <time>2019-08-16T15:42:13Z</time>
      </trkpt>
      <trkpt lat="47.44937" lon="6.59612">
        <ele>291.6</ele>
        <time>2019-08-16T15:42:14Z</time>
      </trkpt>
      <trkpt lat="47.44942" lon="6.5961">
        <ele>291.6</ele>
        <time>2019-08-16T15:42:15Z</time>
      </trkpt>
      <trkpt lat="47.44947" lon="6.59606">
        <ele>291.6</ele>
        <time>2019-08-16T15:42:16Z</time>
      </trkpt>
      <trkpt lat="47.44951" lon="6.59602">
        <ele>291.6</ele>
        <time>2019-08-16T15:42:17Z</time>
      </trkpt>
      <trkpt lat="47.44956" lon="6.59599">
        <ele>291.6</ele>
        <time>2019-08-16T15:42:18Z</time>
      </trkpt>
      <trkpt lat="47.44961" lon="6.59594">
        <ele>291.6</ele>
        <time>2019-08-16T15:42:19Z</time>
      </trkpt>
      <trkpt lat="47.44967" lon="6.5959">
        <ele>291.6</ele>
        <time>2019-08-16T15:42:20Z</time>
      </trkpt>
      <trkpt lat="47.44972" lon="6.59587">
        <ele>291.6</ele>
        <time>2019-08-16T15:42:21Z</time>
      </trkpt>
      <trkpt lat="47.44977" lon="6.59584">
        <ele>291.6</ele>
        <time>2019-08-16T15:42:22Z</time>
      </trkpt>
      <trkpt lat="47.44982" lon="6.59581">
        <ele>291.6</ele>
        <time>2019-08-16T15:42:23Z</time>
      </trkpt>
      <trkpt lat="47.44987" lon="6.59578">
        <ele>291.6</ele>
        <time>2019-08-16T15:42:24Z</time>
      </trkpt>
      <trkpt lat="47.44991" lon="6.59574">
        <ele>291.6</ele>
        <time>2019-08-16T15:42:25Z</time>
      </trkpt>
      <trkpt lat="47.44996" lon="6.5957">
        <ele>291.6</ele>
        <time>2019-08-16T15:42:26Z</time>
      </trkpt>
      <trkpt lat="47.45001" lon="6.59567">
        <ele>291.6</ele>
        <time>2019-08-16T15:42:27Z</time>
      </trkpt>
      <trkpt lat="47.45006" lon="6.59563">
        <ele>291.6</ele>
        <time>2019-08-16T15:42:28Z</time>
      </trkpt>
      <trkpt lat="47.4501" lon="6.5956">
        <ele>291.6</ele>
        <time>2019-08-16T15:42:29Z</time>
      </trkpt>
      <trkpt lat="47.45015" lon="6.59557">
        <ele>291.6</ele>
        <time>2019-08-16T15:42:30Z</time>
      </trkpt>
      <trkpt lat="47.4502" lon="6.59554">
        <ele>291.6</ele>
        <time>2019-08-16T15:42:31Z</time>
      </trkpt>
      <trkpt lat="47.45024" lon="6.5955">
        <ele>291.6</ele>
        <time>2019-08-16T15:42:32Z</time>
      </trkpt>
      <trkpt lat="47.45029" lon="6.59545">
        <ele>291.6</ele>
        <time>2019-08-16T15:42:33Z</time>
      </trkpt>
      <trkpt lat="47.45033" lon="6.59541">
        <ele>291.5</ele>
        <time>2019-08-16T15:42:34Z</time>
      </trkpt>
      <trkpt lat="47.45037" lon="6.59536">
        <ele>291.5</ele>
        <time>2019-08-16T15:42:35Z</time>
      </trkpt>
      <trkpt lat="47.45042" lon="6.59532">
        <ele>291.4</ele>
        <time>2019-08-16T15:42:36Z</time>
      </trkpt>
      <trkpt lat="47.45047" lon="6.59526">
        <ele>291.2</ele>
        <time>2019-08-16T15:42:37Z</time>
      </trkpt>
      <trkpt lat="47.45053" lon="6.59521">
        <ele>290.9</ele>
        <time>2019-08-16T15:42:38Z</time>
      </trkpt>
      <trkpt lat="47.45058" lon="6.59516">
        <ele>290.6</ele>
        <time>2019-08-16T15:42:39Z</time>
      </trkpt>
      <trkpt lat="47.45063" lon="6.59512">
        <ele>290.4</ele>
        <time>2019-08-16T15:42:40Z</time>
      </trkpt>
      <trkpt lat="47.45068" lon="6.59507">
        <ele>290.1</ele>
        <time>2019-08-16T15:42:41Z</time>
      </trkpt>
      <trkpt lat="47.45072" lon="6.59502">
        <ele>290</ele>
        <time>2019-08-16T15:42:42Z</time>
      </trkpt>
      <trkpt lat="47.45077" lon="6.59498">
        <ele>289.8</ele>
        <time>2019-08-16T15:42:43Z</time>
      </trkpt>
      <trkpt lat="47.45081" lon="6.59493">
        <ele>289.8</ele>
        <time>2019-08-16T15:42:44Z</time>
      </trkpt>
      <trkpt lat="47.45085" lon="6.59487">
        <ele>289.7</ele>
        <time>2019-08-16T15:42:45Z</time>
      </trkpt>
      <trkpt lat="47.45089" lon="6.5948">
        <ele>289.7</ele>
        <time>2019-08-16T15:42:46Z</time>
      </trkpt>
      <trkpt lat="47.45093" lon="6.59473">
        <ele>289.7</ele>
        <time>2019-08-16T15:42:47Z</time>
      </trkpt>
      <trkpt lat="47.45097" lon="6.59464">
        <ele>289.7</ele>
        <time>2019-08-16T15:42:48Z</time>
      </trkpt>
      <trkpt lat="47.45102" lon="6.59455">
        <ele>289.7</ele>
        <time>2019-08-16T15:42:49Z</time>
      </trkpt>
      <trkpt lat="47.45105" lon="6.59445">
        <ele>289.8</ele>
        <time>2019-08-16T15:42:50Z</time>
      </trkpt>
      <trkpt lat="47.45108" lon="6.59436">
        <ele>289.9</ele>
        <time>2019-08-16T15:42:51Z</time>
      </trkpt>
      <trkpt lat="47.45112" lon="6.59427">
        <ele>290.1</ele>
        <time>2019-08-16T15:42:52Z</time>
      </trkpt>
      <trkpt lat="47.45116" lon="6.5942">
        <ele>290.2</ele>
        <time>2019-08-16T15:42:53Z</time>
      </trkpt>
      <trkpt lat="47.4512" lon="6.59413">
        <ele>290.4</ele>
        <time>2019-08-16T15:42:54Z</time>
      </trkpt>
      <trkpt lat="47.45127" lon="6.59409">
        <ele>290.5</ele>
        <time>2019-08-16T15:42:55Z</time>
      </trkpt>
      <trkpt lat="47.45132" lon="6.59404">
        <ele>290.6</ele>
        <time>2019-08-16T15:42:56Z</time>
      </trkpt>
      <trkpt lat="47.45136" lon="6.59399">
        <ele>290.6</ele>
        <time>2019-08-16T15:42:57Z</time>
      </trkpt>
      <trkpt lat="47.4514" lon="6.59394">
        <ele>290.6</ele>
        <time>2019-08-16T15:42:58Z</time>
      </trkpt>
      <trkpt lat="47.45143" lon="6.59389">
        <ele>290.6</ele>
        <time>2019-08-16T15:42:59Z</time>
      </trkpt>
      <trkpt lat="47.45146" lon="6.59384">
        <ele>290.6</ele>
        <time>2019-08-16T15:43:00Z</time>
      </trkpt>
      <trkpt lat="47.4515" lon="6.5938">
        <ele>290.6</ele>
        <time>2019-08-16T15:43:01Z</time>
      </trkpt>
      <trkpt lat="47.45153" lon="6.59376">
        <ele>290.6</ele>
        <time>2019-08-16T15:43:02Z</time>
      </trkpt>
      <trkpt lat="47.45155" lon="6.5937">
        <ele>290.6</ele>
        <time>2019-08-16T15:43:03Z</time>
      </trkpt>
      <trkpt lat="47.45158" lon="6.59365">
        <ele>290.6</ele>
        <time>2019-08-16T15:43:04Z</time>
      </trkpt>
      <trkpt lat="47.45161" lon="6.59359">
        <ele>290.6</ele>
        <time>2019-08-16T15:43:05Z</time>
      </trkpt>
      <trkpt lat="47.45165" lon="6.59354">
        <ele>290.6</ele>
        <time>2019-08-16T15:43:06Z</time>
      </trkpt>
      <trkpt lat="47.45167" lon="6.59349">
        <ele>290.6</ele>
        <time>2019-08-16T15:43:07Z</time>
      </trkpt>
      <trkpt lat="47.4517" lon="6.59343">
        <ele>290.6</ele>
        <time>2019-08-16T15:43:08Z</time>
      </trkpt>
      <trkpt lat="47.45173" lon="6.59337">
        <ele>290.6</ele>
        <time>2019-08-16T15:43:09Z</time>
      </trkpt>
      <trkpt lat="47.45175" lon="6.59331">
        <ele>290.6</ele>
        <time>2019-08-16T15:43:10Z</time>
      </trkpt>
      <trkpt lat="47.45177" lon="6.59325">
        <ele>290.6</ele>
        <time>2019-08-16T15:43:11Z</time>
      </trkpt>
      <trkpt lat="47.45179" lon="6.59319">
        <ele>290.6</ele>
        <time>2019-08-16T15:43:12Z</time>
      </trkpt>
      <trkpt lat="47.45181" lon="6.59314">
        <ele>290.6</ele>
        <time>2019-08-16T15:43:13Z</time>
      </trkpt>
      <trkpt lat="47.45184" lon="6.59306">
        <ele>290.6</ele>
        <time>2019-08-16T15:43:14Z</time>
      </trkpt>
      <trkpt lat="47.45186" lon="6.593">
        <ele>290.6</ele>
        <time>2019-08-16T15:43:15Z</time>
      </trkpt>
      <trkpt lat="47.45188" lon="6.59294">
        <ele>290.6</ele>
        <time>2019-08-16T15:43:16Z</time>
      </trkpt>
      <trkpt lat="47.4519" lon="6.59289">
        <ele>290.5</ele>
        <time>2019-08-16T15:43:17Z</time>
      </trkpt>
      <trkpt lat="47.45192" lon="6.59282">
        <ele>290.4</ele>
        <time>2019-08-16T15:43:18Z</time>
      </trkpt>
      <trkpt lat="47.45194" lon="6.59275">
        <ele>290.3</ele>
        <time>2019-08-16T15:43:19Z</time>
      </trkpt>
      <trkpt lat="47.45196" lon="6.59267">
        <ele>290.2</ele>
        <time>2019-08-16T15:43:20Z</time>
      </trkpt>
      <trkpt lat="47.45197" lon="6.59259">
        <ele>290.1</ele>
        <time>2019-08-16T15:43:21Z</time>
      </trkpt>
      <trkpt lat="47.45199" lon="6.59251">
        <ele>290</ele>
        <time>2019-08-16T15:43:22Z</time>
      </trkpt>
      <trkpt lat="47.452" lon="6.59244">
        <ele>289.9</ele>
        <time>2019-08-16T15:43:23Z</time>
      </trkpt>
      <trkpt lat="47.45201" lon="6.59237">
        <ele>289.8</ele>
        <time>2019-08-16T15:43:24Z</time>
      </trkpt>
      <trkpt lat="47.45202" lon="6.5923">
        <ele>289.7</ele>
        <time>2019-08-16T15:43:25Z</time>
      </trkpt>
      <trkpt lat="47.45204" lon="6.59223">
        <ele>289.7</ele>
        <time>2019-08-16T15:43:26Z</time>
      </trkpt>
      <trkpt lat="47.45204" lon="6.59217">
        <ele>289.7</ele>
        <time>2019-08-16T15:43:27Z</time>
      </trkpt>
      <trkpt lat="47.45206" lon="6.5921">
        <ele>289.6</ele>
        <time>2019-08-16T15:43:28Z</time>
      </trkpt>
      <trkpt lat="47.45207" lon="6.59204">
        <ele>289.6</ele>
        <time>2019-08-16T15:43:29Z</time>
      </trkpt>
      <trkpt lat="47.45208" lon="6.59197">
        <ele>289.6</ele>
        <time>2019-08-16T15:43:30Z</time>
      </trkpt>
      <trkpt lat="47.45209" lon="6.59191">
        <ele>289.6</ele>
        <time>2019-08-16T15:43:31Z</time>
      </trkpt>
      <trkpt lat="47.4521" lon="6.59183">
        <ele>289.6</ele>
        <time>2019-08-16T15:43:32Z</time>
      </trkpt>
      <trkpt lat="47.45212" lon="6.59176">
        <ele>289.6</ele>
        <time>2019-08-16T15:43:33Z</time>
      </trkpt>
      <trkpt lat="47.45212" lon="6.59169">
        <ele>289.6</ele>
        <time>2019-08-16T15:43:34Z</time>
      </trkpt>
      <trkpt lat="47.45214" lon="6.59162">
        <ele>289.6</ele>
        <time>2019-08-16T15:43:35Z</time>
      </trkpt>
      <trkpt lat="47.45215" lon="6.59154">
        <ele>289.6</ele>
        <time>2019-08-16T15:43:36Z</time>
      </trkpt>
      <trkpt lat="47.45215" lon="6.59146">
        <ele>289.6</ele>
        <time>2019-08-16T15:43:37Z</time>
      </trkpt>
      <trkpt lat="47.45216" lon="6.59138">
        <ele>289.6</ele>
        <time>2019-08-16T15:43:38Z</time>
      </trkpt>
      <trkpt lat="47.45216" lon="6.5913">
        <ele>289.6</ele>
        <time>2019-08-16T15:43:39Z</time>
      </trkpt>
      <trkpt lat="47.45216" lon="6.59121">
        <ele>289.6</ele>
        <time>2019-08-16T15:43:40Z</time>
      </trkpt>
      <trkpt lat="47.45217" lon="6.59114">
        <ele>289.6</ele>
        <time>2019-08-16T15:43:41Z</time>
      </trkpt>
      <trkpt lat="47.45217" lon="6.59107">
        <ele>289.6</ele>
        <time>2019-08-16T15:43:42Z</time>
      </trkpt>
      <trkpt lat="47.45218" lon="6.59098">
        <ele>289.7</ele>
        <time>2019-08-16T15:43:43Z</time>
      </trkpt>
      <trkpt lat="47.45218" lon="6.59091">
        <ele>289.7</ele>
        <time>2019-08-16T15:43:44Z</time>
      </trkpt>
      <trkpt lat="47.45219" lon="6.59084">
        <ele>289.7</ele>
        <time>2019-08-16T15:43:45Z</time>
      </trkpt>
      <trkpt lat="47.4522" lon="6.59076">
        <ele>289.7</ele>
        <time>2019-08-16T15:43:46Z</time>
      </trkpt>
      <trkpt lat="47.4522" lon="6.59069">
        <ele>289.8</ele>
        <time>2019-08-16T15:43:47Z</time>
      </trkpt>
      <trkpt lat="47.45221" lon="6.59061">
        <ele>289.9</ele>
        <time>2019-08-16T15:43:48Z</time>
      </trkpt>
      <trkpt lat="47.45222" lon="6.59054">
        <ele>290</ele>
        <time>2019-08-16T15:43:49Z</time>
      </trkpt>
      <trkpt lat="47.45222" lon="6.59047">
        <ele>290.1</ele>
        <time>2019-08-16T15:43:50Z</time>
      </trkpt>
      <trkpt lat="47.45223" lon="6.5904">
        <ele>290.2</ele>
        <time>2019-08-16T15:43:51Z</time>
      </trkpt>
      <trkpt lat="47.45224" lon="6.59032">
        <ele>290.3</ele>
        <time>2019-08-16T15:43:52Z</time>
      </trkpt>
      <trkpt lat="47.45225" lon="6.59025">
        <ele>290.4</ele>
        <time>2019-08-16T15:43:53Z</time>
      </trkpt>
      <trkpt lat="47.45226" lon="6.59018">
        <ele>290.5</ele>
        <time>2019-08-16T15:43:54Z</time>
      </trkpt>
      <trkpt lat="47.45226" lon="6.59012">
        <ele>290.5</ele>
        <time>2019-08-16T15:43:55Z</time>
      </trkpt>
      <trkpt lat="47.45226" lon="6.59007">
        <ele>290.6</ele>
        <time>2019-08-16T15:43:56Z</time>
      </trkpt>
      <trkpt lat="47.45228" lon="6.59">
        <ele>290.6</ele>
        <time>2019-08-16T15:43:57Z</time>
      </trkpt>
      <trkpt lat="47.45229" lon="6.58994">
        <ele>290.6</ele>
        <time>2019-08-16T15:43:58Z</time>
      </trkpt>
      <trkpt lat="47.4523" lon="6.58989">
        <ele>290.6</ele>
        <time>2019-08-16T15:43:59Z</time>
      </trkpt>
      <trkpt lat="47.45231" lon="6.58984">
        <ele>290.6</ele>
        <time>2019-08-16T15:44:00Z</time>
      </trkpt>
      <trkpt lat="47.45233" lon="6.58978">
        <ele>290.6</ele>
        <time>2019-08-16T15:44:01Z</time>
      </trkpt>
      <trkpt lat="47.45234" lon="6.58972">
        <ele>290.6</ele>
        <time>2019-08-16T15:44:02Z</time>
      </trkpt>
      <trkpt lat="47.45235" lon="6.58965">
        <ele>290.6</ele>
        <time>2019-08-16T15:44:03Z</time>
      </trkpt>
      <trkpt lat="47.45236" lon="6.58959">
        <ele>290.6</ele>
        <time>2019-08-16T15:44:04Z</time>
      </trkpt>
      <trkpt lat="47.45237" lon="6.58951">
        <ele>290.6</ele>
        <time>2019-08-16T15:44:05Z</time>
      </trkpt>
      <trkpt lat="47.45237" lon="6.58946">
        <ele>290.6</ele>
        <time>2019-08-16T15:44:22Z</time>
      </trkpt>
      <trkpt lat="47.4524" lon="6.58946">
        <ele>290.6</ele>
        <time>2019-08-16T15:44:26Z</time>
      </trkpt>
      <trkpt lat="47.4524" lon="6.5894">
        <ele>290.6</ele>
        <time>2019-08-16T15:44:28Z</time>
      </trkpt>
      <trkpt lat="47.45237" lon="6.58933">
        <ele>290.6</ele>
        <time>2019-08-16T15:44:30Z</time>
      </trkpt>
      <trkpt lat="47.45236" lon="6.58929">
        <ele>290.6</ele>
        <time>2019-08-16T15:44:31Z</time>
      </trkpt>
      <trkpt lat="47.45235" lon="6.58924">
        <ele>290.6</ele>
        <time>2019-08-16T15:44:32Z</time>
      </trkpt>
      <trkpt lat="47.45235" lon="6.5892">
        <ele>290.6</ele>
        <time>2019-08-16T15:44:33Z</time>
      </trkpt>
      <trkpt lat="47.45232" lon="6.58916">
        <ele>290.6</ele>
        <time>2019-08-16T15:44:35Z</time>
      </trkpt>
      <trkpt lat="47.45228" lon="6.58909">
        <ele>290.6</ele>
        <time>2019-08-16T15:44:37Z</time>
      </trkpt>
      <trkpt lat="47.45226" lon="6.58904">
        <ele>290.5</ele>
        <time>2019-08-16T15:44:38Z</time>
      </trkpt>
      <trkpt lat="47.45223" lon="6.58898">
        <ele>290.5</ele>
        <time>2019-08-16T15:44:39Z</time>
      </trkpt>
      <trkpt lat="47.4522" lon="6.58892">
        <ele>290.5</ele>
        <time>2019-08-16T15:44:40Z</time>
      </trkpt>
      <trkpt lat="47.45218" lon="6.58887">
        <ele>290.5</ele>
        <time>2019-08-16T15:44:41Z</time>
      </trkpt>
      <trkpt lat="47.45216" lon="6.58881">
        <ele>290.5</ele>
        <time>2019-08-16T15:44:42Z</time>
      </trkpt>
      <trkpt lat="47.45213" lon="6.58876">
        <ele>290.5</ele>
        <time>2019-08-16T15:44:43Z</time>
      </trkpt>
      <trkpt lat="47.45212" lon="6.58869">
        <ele>290.6</ele>
        <time>2019-08-16T15:44:44Z</time>
      </trkpt>
      <trkpt lat="47.4521" lon="6.58865">
        <ele>290.6</ele>
        <time>2019-08-16T15:44:45Z</time>
      </trkpt>
      <trkpt lat="47.45208" lon="6.58859">
        <ele>290.6</ele>
        <time>2019-08-16T15:44:46Z</time>
      </trkpt>
      <trkpt lat="47.45206" lon="6.58854">
        <ele>290.6</ele>
        <time>2019-08-16T15:44:47Z</time>
      </trkpt>
      <trkpt lat="47.45204" lon="6.5885">
        <ele>290.7</ele>
        <time>2019-08-16T15:44:48Z</time>
      </trkpt>
      <trkpt lat="47.45203" lon="6.58843">
        <ele>290.7</ele>
        <time>2019-08-16T15:44:49Z</time>
      </trkpt>
      <trkpt lat="47.45201" lon="6.58838">
        <ele>290.7</ele>
        <time>2019-08-16T15:44:50Z</time>
      </trkpt>
      <trkpt lat="47.452" lon="6.58832">
        <ele>290.8</ele>
        <time>2019-08-16T15:44:51Z</time>
      </trkpt>
      <trkpt lat="47.45198" lon="6.58827">
        <ele>290.8</ele>
        <time>2019-08-16T15:44:52Z</time>
      </trkpt>
      <trkpt lat="47.45196" lon="6.5882">
        <ele>290.9</ele>
        <time>2019-08-16T15:44:53Z</time>
      </trkpt>
      <trkpt lat="47.45193" lon="6.58814">
        <ele>290.9</ele>
        <time>2019-08-16T15:44:54Z</time>
      </trkpt>
      <trkpt lat="47.45191" lon="6.58809">
        <ele>290.9</ele>
        <time>2019-08-16T15:44:55Z</time>
      </trkpt>
      <trkpt lat="47.45189" lon="6.58803">
        <ele>291</ele>
        <time>2019-08-16T15:44:56Z</time>
      </trkpt>
      <trkpt lat="47.45186" lon="6.58797">
        <ele>291</ele>
        <time>2019-08-16T15:44:57Z</time>
      </trkpt>
      <trkpt lat="47.45184" lon="6.5879">
        <ele>291</ele>
        <time>2019-08-16T15:44:58Z</time>
      </trkpt>
      <trkpt lat="47.45182" lon="6.58782">
        <ele>291</ele>
        <time>2019-08-16T15:44:59Z</time>
      </trkpt>
      <trkpt lat="47.4518" lon="6.58776">
        <ele>291</ele>
        <time>2019-08-16T15:45:00Z</time>
      </trkpt>
      <trkpt lat="47.45178" lon="6.58771">
        <ele>291</ele>
        <time>2019-08-16T15:45:01Z</time>
      </trkpt>
      <trkpt lat="47.45176" lon="6.58764">
        <ele>291</ele>
        <time>2019-08-16T15:45:02Z</time>
      </trkpt>
      <trkpt lat="47.45173" lon="6.58758">
        <ele>290.9</ele>
        <time>2019-08-16T15:45:03Z</time>
      </trkpt>
      <trkpt lat="47.45171" lon="6.5875">
        <ele>290.9</ele>
        <time>2019-08-16T15:45:04Z</time>
      </trkpt>
      <trkpt lat="47.45169" lon="6.58744">
        <ele>290.9</ele>
        <time>2019-08-16T15:45:05Z</time>
      </trkpt>
      <trkpt lat="47.45167" lon="6.58738">
        <ele>290.8</ele>
        <time>2019-08-16T15:45:06Z</time>
      </trkpt>
      <trkpt lat="47.45165" lon="6.58732">
        <ele>290.8</ele>
        <time>2019-08-16T15:45:07Z</time>
      </trkpt>
      <trkpt lat="47.45163" lon="6.58726">
        <ele>290.8</ele>
        <time>2019-08-16T15:45:08Z</time>
      </trkpt>
      <trkpt lat="47.4516" lon="6.58719">
        <ele>290.7</ele>
        <time>2019-08-16T15:45:09Z</time>
      </trkpt>
      <trkpt lat="47.45158" lon="6.58713">
        <ele>290.7</ele>
        <time>2019-08-16T15:45:10Z</time>
      </trkpt>
      <trkpt lat="47.45155" lon="6.58706">
        <ele>290.6</ele>
        <time>2019-08-16T15:45:11Z</time>
      </trkpt>
      <trkpt lat="47.45152" lon="6.587">
        <ele>290.6</ele>
        <time>2019-08-16T15:45:12Z</time>
      </trkpt>
      <trkpt lat="47.45149" lon="6.58693">
        <ele>290.5</ele>
        <time>2019-08-16T15:45:13Z</time>
      </trkpt>
      <trkpt lat="47.45147" lon="6.58688">
        <ele>290.5</ele>
        <time>2019-08-16T15:45:14Z</time>
      </trkpt>
      <trkpt lat="47.45144" lon="6.58682">
        <ele>290.5</ele>
        <time>2019-08-16T15:45:15Z</time>
      </trkpt>
      <trkpt lat="47.45142" lon="6.58675">
        <ele>290.4</ele>
        <time>2019-08-16T15:45:16Z</time>
      </trkpt>
      <trkpt lat="47.4514" lon="6.5867">
        <ele>290.4</ele>
        <time>2019-08-16T15:45:17Z</time>
      </trkpt>
      <trkpt lat="47.45138" lon="6.58663">
        <ele>290.4</ele>
        <time>2019-08-16T15:45:18Z</time>
      </trkpt>
      <trkpt lat="47.45136" lon="6.58656">
        <ele>290.3</ele>
        <time>2019-08-16T15:45:19Z</time>
      </trkpt>
      <trkpt lat="47.45134" lon="6.58649">
        <ele>290.3</ele>
        <time>2019-08-16T15:45:20Z</time>
      </trkpt>
      <trkpt lat="47.45131" lon="6.58643">
        <ele>290.3</ele>
        <time>2019-08-16T15:45:21Z</time>
      </trkpt>
      <trkpt lat="47.45129" lon="6.58636">
        <ele>290.2</ele>
        <time>2019-08-16T15:45:22Z</time>
      </trkpt>
      <trkpt lat="47.45127" lon="6.5863">
        <ele>290.2</ele>
        <time>2019-08-16T15:45:23Z</time>
      </trkpt>
      <trkpt lat="47.45124" lon="6.58624">
        <ele>290.2</ele>
        <time>2019-08-16T15:45:24Z</time>
      </trkpt>
      <trkpt lat="47.45122" lon="6.58617">
        <ele>290.1</ele>
        <time>2019-08-16T15:45:25Z</time>
      </trkpt>
      <trkpt lat="47.4512" lon="6.5861">
        <ele>290.1</ele>
        <time>2019-08-16T15:45:26Z</time>
      </trkpt>
      <trkpt lat="47.45118" lon="6.58603">
        <ele>290</ele>
        <time>2019-08-16T15:45:27Z</time>
      </trkpt>
      <trkpt lat="47.45116" lon="6.58597">
        <ele>290</ele>
        <time>2019-08-16T15:45:28Z</time>
      </trkpt>
      <trkpt lat="47.45113" lon="6.58592">
        <ele>290</ele>
        <time>2019-08-16T15:45:29Z</time>
      </trkpt>
      <trkpt lat="47.45111" lon="6.58586">
        <ele>290</ele>
        <time>2019-08-16T15:45:30Z</time>
      </trkpt>
      <trkpt lat="47.45109" lon="6.58581">
        <ele>290</ele>
        <time>2019-08-16T15:45:31Z</time>
      </trkpt>
      <trkpt lat="47.45107" lon="6.58575">
        <ele>289.9</ele>
        <time>2019-08-16T15:45:32Z</time>
      </trkpt>
      <trkpt lat="47.45104" lon="6.58569">
        <ele>289.9</ele>
        <time>2019-08-16T15:45:33Z</time>
      </trkpt>
      <trkpt lat="47.45102" lon="6.58564">
        <ele>289.9</ele>
        <time>2019-08-16T15:45:34Z</time>
      </trkpt>
      <trkpt lat="47.45098" lon="6.58558">
        <ele>289.9</ele>
        <time>2019-08-16T15:45:35Z</time>
      </trkpt>
      <trkpt lat="47.45096" lon="6.58551">
        <ele>289.8</ele>
        <time>2019-08-16T15:45:36Z</time>
      </trkpt>
      <trkpt lat="47.45094" lon="6.58545">
        <ele>289.8</ele>
        <time>2019-08-16T15:45:37Z</time>
      </trkpt>
      <trkpt lat="47.45091" lon="6.58538">
        <ele>289.8</ele>
        <time>2019-08-16T15:45:38Z</time>
      </trkpt>
      <trkpt lat="47.45089" lon="6.58532">
        <ele>289.8</ele>
        <time>2019-08-16T15:45:39Z</time>
      </trkpt>
      <trkpt lat="47.45086" lon="6.58526">
        <ele>289.8</ele>
        <time>2019-08-16T15:45:40Z</time>
      </trkpt>
      <trkpt lat="47.45083" lon="6.5852">
        <ele>289.8</ele>
        <time>2019-08-16T15:45:41Z</time>
      </trkpt>
      <trkpt lat="47.45081" lon="6.58514">
        <ele>289.8</ele>
        <time>2019-08-16T15:45:42Z</time>
      </trkpt>
      <trkpt lat="47.45078" lon="6.58508">
        <ele>289.8</ele>
        <time>2019-08-16T15:45:43Z</time>
      </trkpt>
      <trkpt lat="47.45075" lon="6.58502">
        <ele>289.8</ele>
        <time>2019-08-16T15:45:44Z</time>
      </trkpt>
      <trkpt lat="47.45073" lon="6.58497">
        <ele>289.8</ele>
        <time>2019-08-16T15:45:45Z</time>
      </trkpt>
      <trkpt lat="47.45071" lon="6.58492">
        <ele>289.8</ele>
        <time>2019-08-16T15:45:46Z</time>
      </trkpt>
      <trkpt lat="47.45069" lon="6.58488">
        <ele>289.8</ele>
        <time>2019-08-16T15:45:47Z</time>
      </trkpt>
      <trkpt lat="47.45066" lon="6.58483">
        <ele>289.8</ele>
        <time>2019-08-16T15:45:48Z</time>
      </trkpt>
      <trkpt lat="47.45064" lon="6.58479">
        <ele>289.8</ele>
        <time>2019-08-16T15:45:49Z</time>
      </trkpt>
      <trkpt lat="47.45062" lon="6.58473">
        <ele>289.8</ele>
        <time>2019-08-16T15:45:50Z</time>
      </trkpt>
      <trkpt lat="47.45059" lon="6.58468">
        <ele>289.8</ele>
        <time>2019-08-16T15:45:51Z</time>
      </trkpt>
      <trkpt lat="47.45056" lon="6.58463">
        <ele>289.8</ele>
        <time>2019-08-16T15:45:52Z</time>
      </trkpt>
      <trkpt lat="47.45053" lon="6.58457">
        <ele>289.8</ele>
        <time>2019-08-16T15:45:53Z</time>
      </trkpt>
      <trkpt lat="47.4505" lon="6.58452">
        <ele>289.8</ele>
        <time>2019-08-16T15:45:54Z</time>
      </trkpt>
      <trkpt lat="47.45047" lon="6.58447">
        <ele>289.8</ele>
        <time>2019-08-16T15:45:55Z</time>
      </trkpt>
      <trkpt lat="47.45044" lon="6.58441">
        <ele>289.8</ele>
        <time>2019-08-16T15:45:56Z</time>
      </trkpt>
      <trkpt lat="47.45041" lon="6.58435">
        <ele>289.8</ele>
        <time>2019-08-16T15:45:57Z</time>
      </trkpt>
      <trkpt lat="47.45039" lon="6.5843">
        <ele>289.8</ele>
        <time>2019-08-16T15:45:58Z</time>
      </trkpt>
      <trkpt lat="47.45036" lon="6.58425">
        <ele>289.8</ele>
        <time>2019-08-16T15:45:59Z</time>
      </trkpt>
      <trkpt lat="47.45033" lon="6.58419">
        <ele>289.8</ele>
        <time>2019-08-16T15:46:00Z</time>
      </trkpt>
      <trkpt lat="47.45031" lon="6.58414">
        <ele>289.8</ele>
        <time>2019-08-16T15:46:01Z</time>
      </trkpt>
      <trkpt lat="47.45028" lon="6.58409">
        <ele>289.8</ele>
        <time>2019-08-16T15:46:02Z</time>
      </trkpt>
      <trkpt lat="47.45025" lon="6.58404">
        <ele>289.8</ele>
        <time>2019-08-16T15:46:03Z</time>
      </trkpt>
      <trkpt lat="47.45022" lon="6.58399">
        <ele>289.8</ele>
        <time>2019-08-16T15:46:04Z</time>
      </trkpt>
      <trkpt lat="47.45019" lon="6.58393">
        <ele>289.8</ele>
        <time>2019-08-16T15:46:05Z</time>
      </trkpt>
      <trkpt lat="47.45016" lon="6.58388">
        <ele>289.8</ele>
        <time>2019-08-16T15:46:06Z</time>
      </trkpt>
      <trkpt lat="47.45012" lon="6.58383">
        <ele>289.8</ele>
        <time>2019-08-16T15:46:07Z</time>
      </trkpt>
      <trkpt lat="47.45009" lon="6.58377">
        <ele>289.8</ele>
        <time>2019-08-16T15:46:08Z</time>
      </trkpt>
      <trkpt lat="47.45006" lon="6.58373">
        <ele>289.8</ele>
        <time>2019-08-16T15:46:09Z</time>
      </trkpt>
      <trkpt lat="47.45003" lon="6.58369">
        <ele>289.8</ele>
        <time>2019-08-16T15:46:10Z</time>
      </trkpt>
      <trkpt lat="47.45" lon="6.58364">
        <ele>289.8</ele>
        <time>2019-08-16T15:46:11Z</time>
      </trkpt>
      <trkpt lat="47.44997" lon="6.58358">
        <ele>289.8</ele>
        <time>2019-08-16T15:46:12Z</time>
      </trkpt>
      <trkpt lat="47.44994" lon="6.58353">
        <ele>289.8</ele>
        <time>2019-08-16T15:46:13Z</time>
      </trkpt>
      <trkpt lat="47.44991" lon="6.58348">
        <ele>289.8</ele>
        <time>2019-08-16T15:46:14Z</time>
      </trkpt>
      <trkpt lat="47.44987" lon="6.58343">
        <ele>289.8</ele>
        <time>2019-08-16T15:46:15Z</time>
      </trkpt>
      <trkpt lat="47.44984" lon="6.58337">
        <ele>289.8</ele>
        <time>2019-08-16T15:46:16Z</time>
      </trkpt>
      <trkpt lat="47.44981" lon="6.58333">
        <ele>289.8</ele>
        <time>2019-08-16T15:46:17Z</time>
      </trkpt>
      <trkpt lat="47.44977" lon="6.58328">
        <ele>289.8</ele>
        <time>2019-08-16T15:46:18Z</time>
      </trkpt>
      <trkpt lat="47.44974" lon="6.58324">
        <ele>289.8</ele>
        <time>2019-08-16T15:46:19Z</time>
      </trkpt>
      <trkpt lat="47.44971" lon="6.5832">
        <ele>289.8</ele>
        <time>2019-08-16T15:46:20Z</time>
      </trkpt>
      <trkpt lat="47.44968" lon="6.58315">
        <ele>289.8</ele>
        <time>2019-08-16T15:46:21Z</time>
      </trkpt>
      <trkpt lat="47.44964" lon="6.58311">
        <ele>289.7</ele>
        <time>2019-08-16T15:46:22Z</time>
      </trkpt>
      <trkpt lat="47.44961" lon="6.58307">
        <ele>289.7</ele>
        <time>2019-08-16T15:46:23Z</time>
      </trkpt>
      <trkpt lat="47.44958" lon="6.58302">
        <ele>289.7</ele>
        <time>2019-08-16T15:46:24Z</time>
      </trkpt>
      <trkpt lat="47.44953" lon="6.58296">
        <ele>289.7</ele>
        <time>2019-08-16T15:46:25Z</time>
      </trkpt>
      <trkpt lat="47.44951" lon="6.5829">
        <ele>289.7</ele>
        <time>2019-08-16T15:46:26Z</time>
      </trkpt>
      <trkpt lat="47.44946" lon="6.58285">
        <ele>289.7</ele>
        <time>2019-08-16T15:46:27Z</time>
      </trkpt>
      <trkpt lat="47.44943" lon="6.5828">
        <ele>289.7</ele>
        <time>2019-08-16T15:46:28Z</time>
      </trkpt>
      <trkpt lat="47.4494" lon="6.58276">
        <ele>289.7</ele>
        <time>2019-08-16T15:46:29Z</time>
      </trkpt>
      <trkpt lat="47.44936" lon="6.58273">
        <ele>289.6</ele>
        <time>2019-08-16T15:46:30Z</time>
      </trkpt>
      <trkpt lat="47.44933" lon="6.58269">
        <ele>289.6</ele>
        <time>2019-08-16T15:46:31Z</time>
      </trkpt>
      <trkpt lat="47.44929" lon="6.58264">
        <ele>289.6</ele>
        <time>2019-08-16T15:46:32Z</time>
      </trkpt>
      <trkpt lat="47.44925" lon="6.58259">
        <ele>289.6</ele>
        <time>2019-08-16T15:46:33Z</time>
      </trkpt>
      <trkpt lat="47.44922" lon="6.58255">
        <ele>289.6</ele>
        <time>2019-08-16T15:46:34Z</time>
      </trkpt>
      <trkpt lat="47.4492" lon="6.5825">
        <ele>289.5</ele>
        <time>2019-08-16T15:46:35Z</time>
      </trkpt>
      <trkpt lat="47.44918" lon="6.58246">
        <ele>289.5</ele>
        <time>2019-08-16T15:46:36Z</time>
      </trkpt>
      <trkpt lat="47.44915" lon="6.58242">
        <ele>289.5</ele>
        <time>2019-08-16T15:46:37Z</time>
      </trkpt>
      <trkpt lat="47.44913" lon="6.58238">
        <ele>289.5</ele>
        <time>2019-08-16T15:46:38Z</time>
      </trkpt>
      <trkpt lat="47.4491" lon="6.58235">
        <ele>289.5</ele>
        <time>2019-08-16T15:46:39Z</time>
      </trkpt>
      <trkpt lat="47.44908" lon="6.58232">
        <ele>289.5</ele>
        <time>2019-08-16T15:46:40Z</time>
      </trkpt>
      <trkpt lat="47.44906" lon="6.5823">
        <ele>289.5</ele>
        <time>2019-08-16T15:46:41Z</time>
      </trkpt>
      <trkpt lat="47.44903" lon="6.58225">
        <ele>289.5</ele>
        <time>2019-08-16T15:46:43Z</time>
      </trkpt>
      <trkpt lat="47.44903" lon="6.58221">
        <ele>289.5</ele>
        <time>2019-08-16T15:46:45Z</time>
      </trkpt>
      <trkpt lat="47.44906" lon="6.58217">
        <ele>289.3</ele>
        <time>2019-08-16T15:46:52Z</time>
      </trkpt>
      <trkpt lat="47.44907" lon="6.58213">
        <ele>289.2</ele>
        <time>2019-08-16T15:46:59Z</time>
      </trkpt>
      <trkpt lat="47.44913" lon="6.58216">
        <ele>289.1</ele>
        <time>2019-08-16T15:47:38Z</time>
      </trkpt>
      <trkpt lat="47.44914" lon="6.5822">
        <ele>289.1</ele>
        <time>2019-08-16T15:47:43Z</time>
      </trkpt>
      <trkpt lat="47.44913" lon="6.58224">
        <ele>289</ele>
        <time>2019-08-16T15:47:53Z</time>
      </trkpt>
      <trkpt lat="47.44916" lon="6.58225">
        <ele>289</ele>
        <time>2019-08-16T15:48:03Z</time>
      </trkpt>
      <trkpt lat="47.44918" lon="6.58221">
        <ele>288.9</ele>
        <time>2019-08-16T15:48:13Z</time>
      </trkpt>
      <trkpt lat="47.44917" lon="6.58217">
        <ele>288.9</ele>
        <time>2019-08-16T15:48:21Z</time>
      </trkpt>
      <trkpt lat="47.44921" lon="6.58221">
        <ele>288.9</ele>
        <time>2019-08-16T15:48:38Z</time>
      </trkpt>
      <trkpt lat="47.44918" lon="6.5822">
        <ele>288.9</ele>
        <time>2019-08-16T15:48:48Z</time>
      </trkpt>
      <trkpt lat="47.44916" lon="6.58226">
        <ele>288.9</ele>
        <time>2019-08-16T15:49:33Z</time>
      </trkpt>
      <trkpt lat="47.44916" lon="6.58213">
        <ele>288.9</ele>
        <time>2019-08-16T15:52:08Z</time>
      </trkpt>
      <trkpt lat="47.44921" lon="6.58208">
        <ele>288.9</ele>
        <time>2019-08-16T15:52:10Z</time>
      </trkpt>
      <trkpt lat="47.44923" lon="6.58204">
        <ele>288.9</ele>
        <time>2019-08-16T15:52:11Z</time>
      </trkpt>
      <trkpt lat="47.44925" lon="6.58201">
        <ele>288.9</ele>
        <time>2019-08-16T15:52:12Z</time>
      </trkpt>
      <trkpt lat="47.44928" lon="6.58198">
        <ele>288.9</ele>
        <time>2019-08-16T15:52:13Z</time>
      </trkpt>
      <trkpt lat="47.4493" lon="6.58194">
        <ele>288.9</ele>
        <time>2019-08-16T15:52:14Z</time>
      </trkpt>
      <trkpt lat="47.44933" lon="6.5819">
        <ele>288.9</ele>
        <time>2019-08-16T15:52:15Z</time>
      </trkpt>
      <trkpt lat="47.44936" lon="6.58185">
        <ele>288.9</ele>
        <time>2019-08-16T15:52:16Z</time>
      </trkpt>
      <trkpt lat="47.4494" lon="6.58182">
        <ele>288.9</ele>
        <time>2019-08-16T15:52:17Z</time>
      </trkpt>
      <trkpt lat="47.44943" lon="6.58179">
        <ele>288.9</ele>
        <time>2019-08-16T15:52:18Z</time>
      </trkpt>
      <trkpt lat="47.44946" lon="6.58174">
        <ele>288.9</ele>
        <time>2019-08-16T15:52:19Z</time>
      </trkpt>
      <trkpt lat="47.44949" lon="6.58169">
        <ele>288.9</ele>
        <time>2019-08-16T15:52:20Z</time>
      </trkpt>
      <trkpt lat="47.44952" lon="6.58165">
        <ele>289</ele>
        <time>2019-08-16T15:52:21Z</time>
      </trkpt>
      <trkpt lat="47.44955" lon="6.5816">
        <ele>289</ele>
        <time>2019-08-16T15:52:22Z</time>
      </trkpt>
      <trkpt lat="47.44958" lon="6.58156">
        <ele>289</ele>
        <time>2019-08-16T15:52:23Z</time>
      </trkpt>
      <trkpt lat="47.44961" lon="6.58152">
        <ele>289.1</ele>
        <time>2019-08-16T15:52:24Z</time>
      </trkpt>
      <trkpt lat="47.44964" lon="6.58148">
        <ele>289.1</ele>
        <time>2019-08-16T15:52:25Z</time>
      </trkpt>
      <trkpt lat="47.44965" lon="6.58145">
        <ele>289.1</ele>
        <time>2019-08-16T15:52:26Z</time>
      </trkpt>
      <trkpt lat="47.44968" lon="6.58141">
        <ele>289.1</ele>
        <time>2019-08-16T15:52:27Z</time>
      </trkpt>
      <trkpt lat="47.4497" lon="6.58137">
        <ele>289.1</ele>
        <time>2019-08-16T15:52:28Z</time>
      </trkpt>
      <trkpt lat="47.44972" lon="6.58132">
        <ele>289.2</ele>
        <time>2019-08-16T15:52:29Z</time>
      </trkpt>
      <trkpt lat="47.44974" lon="6.58128">
        <ele>289.2</ele>
        <time>2019-08-16T15:52:30Z</time>
      </trkpt>
      <trkpt lat="47.44977" lon="6.58123">
        <ele>289.2</ele>
        <time>2019-08-16T15:52:31Z</time>
      </trkpt>
      <trkpt lat="47.4498" lon="6.5812">
        <ele>289.2</ele>
        <time>2019-08-16T15:52:32Z</time>
      </trkpt>
      <trkpt lat="47.44983" lon="6.58117">
        <ele>289.3</ele>
        <time>2019-08-16T15:52:33Z</time>
      </trkpt>
      <trkpt lat="47.44985" lon="6.58113">
        <ele>289.3</ele>
        <time>2019-08-16T15:52:34Z</time>
      </trkpt>
      <trkpt lat="47.44987" lon="6.5811">
        <ele>289.3</ele>
        <time>2019-08-16T15:52:35Z</time>
      </trkpt>
      <trkpt lat="47.4499" lon="6.58107">
        <ele>289.3</ele>
        <time>2019-08-16T15:52:36Z</time>
      </trkpt>
      <trkpt lat="47.44993" lon="6.58105">
        <ele>289.3</ele>
        <time>2019-08-16T15:52:37Z</time>
      </trkpt>
      <trkpt lat="47.44996" lon="6.58102">
        <ele>289.3</ele>
        <time>2019-08-16T15:52:38Z</time>
      </trkpt>
      <trkpt lat="47.44998" lon="6.58098">
        <ele>289.3</ele>
        <time>2019-08-16T15:52:39Z</time>
      </trkpt>
      <trkpt lat="47.45001" lon="6.58095">
        <ele>289.2</ele>
        <time>2019-08-16T15:52:40Z</time>
      </trkpt>
      <trkpt lat="47.45003" lon="6.58092">
        <ele>289.2</ele>
        <time>2019-08-16T15:52:41Z</time>
      </trkpt>
      <trkpt lat="47.45006" lon="6.58089">
        <ele>289.2</ele>
        <time>2019-08-16T15:52:42Z</time>
      </trkpt>
      <trkpt lat="47.45008" lon="6.58085">
        <ele>289.1</ele>
        <time>2019-08-16T15:52:43Z</time>
      </trkpt>
      <trkpt lat="47.4501" lon="6.58082">
        <ele>289</ele>
        <time>2019-08-16T15:52:44Z</time>
      </trkpt>
      <trkpt lat="47.45012" lon="6.58078">
        <ele>288.9</ele>
        <time>2019-08-16T15:52:45Z</time>
      </trkpt>
      <trkpt lat="47.45014" lon="6.58075">
        <ele>288.8</ele>
        <time>2019-08-16T15:52:46Z</time>
      </trkpt>
      <trkpt lat="47.45017" lon="6.58071">
        <ele>288.5</ele>
        <time>2019-08-16T15:52:48Z</time>
      </trkpt>
      <trkpt lat="47.45021" lon="6.58067">
        <ele>288.5</ele>
        <time>2019-08-16T15:52:50Z</time>
      </trkpt>
      <trkpt lat="47.45025" lon="6.58063">
        <ele>288.6</ele>
        <time>2019-08-16T15:52:52Z</time>
      </trkpt>
      <trkpt lat="47.45028" lon="6.58059">
        <ele>288.6</ele>
        <time>2019-08-16T15:52:54Z</time>
      </trkpt>
      <trkpt lat="47.45033" lon="6.5806">
        <ele>288.7</ele>
        <time>2019-08-16T15:52:56Z</time>
      </trkpt>
      <trkpt lat="47.45035" lon="6.58065">
        <ele>288.7</ele>
        <time>2019-08-16T15:52:57Z</time>
      </trkpt>
      <trkpt lat="47.45038" lon="6.58071">
        <ele>288.6</ele>
        <time>2019-08-16T15:52:58Z</time>
      </trkpt>
      <trkpt lat="47.45041" lon="6.58076">
        <ele>288.6</ele>
        <time>2019-08-16T15:52:59Z</time>
      </trkpt>
      <trkpt lat="47.45043" lon="6.58083">
        <ele>288.6</ele>
        <time>2019-08-16T15:53:00Z</time>
      </trkpt>
      <trkpt lat="47.45049" lon="6.58087">
        <ele>288.6</ele>
        <time>2019-08-16T15:53:01Z</time>
      </trkpt>
      <trkpt lat="47.45051" lon="6.58094">
        <ele>288.6</ele>
        <time>2019-08-16T15:53:02Z</time>
      </trkpt>
      <trkpt lat="47.45055" lon="6.58099">
        <ele>288.6</ele>
        <time>2019-08-16T15:53:03Z</time>
      </trkpt>
      <trkpt lat="47.45057" lon="6.58104">
        <ele>288.6</ele>
        <time>2019-08-16T15:53:04Z</time>
      </trkpt>
      <trkpt lat="47.45061" lon="6.58109">
        <ele>288.6</ele>
        <time>2019-08-16T15:53:05Z</time>
      </trkpt>
      <trkpt lat="47.45063" lon="6.58113">
        <ele>288.6</ele>
        <time>2019-08-16T15:53:06Z</time>
      </trkpt>
      <trkpt lat="47.45066" lon="6.58118">
        <ele>288.6</ele>
        <time>2019-08-16T15:53:07Z</time>
      </trkpt>
      <trkpt lat="47.45068" lon="6.58122">
        <ele>288.6</ele>
        <time>2019-08-16T15:53:08Z</time>
      </trkpt>
      <trkpt lat="47.4507" lon="6.58128">
        <ele>288.6</ele>
        <time>2019-08-16T15:53:09Z</time>
      </trkpt>
      <trkpt lat="47.45073" lon="6.58134">
        <ele>288.6</ele>
        <time>2019-08-16T15:53:10Z</time>
      </trkpt>
      <trkpt lat="47.45076" lon="6.5814">
        <ele>288.5</ele>
        <time>2019-08-16T15:53:11Z</time>
      </trkpt>
      <trkpt lat="47.4508" lon="6.58144">
        <ele>288.5</ele>
        <time>2019-08-16T15:53:12Z</time>
      </trkpt>
      <trkpt lat="47.45083" lon="6.58149">
        <ele>288.4</ele>
        <time>2019-08-16T15:53:13Z</time>
      </trkpt>
      <trkpt lat="47.45086" lon="6.58154">
        <ele>288.3</ele>
        <time>2019-08-16T15:53:14Z</time>
      </trkpt>
      <trkpt lat="47.45089" lon="6.58158">
        <ele>288.2</ele>
        <time>2019-08-16T15:53:15Z</time>
      </trkpt>
      <trkpt lat="47.45092" lon="6.58163">
        <ele>288.1</ele>
        <time>2019-08-16T15:53:16Z</time>
      </trkpt>
      <trkpt lat="47.45094" lon="6.58167">
        <ele>288</ele>
        <time>2019-08-16T15:53:17Z</time>
      </trkpt>
      <trkpt lat="47.45097" lon="6.58172">
        <ele>287.9</ele>
        <time>2019-08-16T15:53:18Z</time>
      </trkpt>
      <trkpt lat="47.451" lon="6.58176">
        <ele>287.9</ele>
        <time>2019-08-16T15:53:19Z</time>
      </trkpt>
      <trkpt lat="47.45104" lon="6.5818">
        <ele>287.8</ele>
        <time>2019-08-16T15:53:20Z</time>
      </trkpt>
      <trkpt lat="47.45107" lon="6.58185">
        <ele>287.7</ele>
        <time>2019-08-16T15:53:21Z</time>
      </trkpt>
      <trkpt lat="47.4511" lon="6.58189">
        <ele>287.7</ele>
        <time>2019-08-16T15:53:22Z</time>
      </trkpt>
      <trkpt lat="47.45113" lon="6.58193">
        <ele>287.6</ele>
        <time>2019-08-16T15:53:23Z</time>
      </trkpt>
      <trkpt lat="47.45117" lon="6.58197">
        <ele>287.6</ele>
        <time>2019-08-16T15:53:24Z</time>
      </trkpt>
      <trkpt lat="47.45121" lon="6.582">
        <ele>287.6</ele>
        <time>2019-08-16T15:53:25Z</time>
      </trkpt>
      <trkpt lat="47.45125" lon="6.58202">
        <ele>287.6</ele>
        <time>2019-08-16T15:53:26Z</time>
      </trkpt>
      <trkpt lat="47.45129" lon="6.58205">
        <ele>287.6</ele>
        <time>2019-08-16T15:53:27Z</time>
      </trkpt>
      <trkpt lat="47.45133" lon="6.58208">
        <ele>287.6</ele>
        <time>2019-08-16T15:53:28Z</time>
      </trkpt>
      <trkpt lat="47.45137" lon="6.58211">
        <ele>287.6</ele>
        <time>2019-08-16T15:53:29Z</time>
      </trkpt>
      <trkpt lat="47.4514" lon="6.58214">
        <ele>287.6</ele>
        <time>2019-08-16T15:53:30Z</time>
      </trkpt>
      <trkpt lat="47.45144" lon="6.58217">
        <ele>287.7</ele>
        <time>2019-08-16T15:53:31Z</time>
      </trkpt>
      <trkpt lat="47.45147" lon="6.58221">
        <ele>287.7</ele>
        <time>2019-08-16T15:53:32Z</time>
      </trkpt>
      <trkpt lat="47.45152" lon="6.58224">
        <ele>287.7</ele>
        <time>2019-08-16T15:53:33Z</time>
      </trkpt>
      <trkpt lat="47.45155" lon="6.58228">
        <ele>287.7</ele>
        <time>2019-08-16T15:53:34Z</time>
      </trkpt>
      <trkpt lat="47.45158" lon="6.58232">
        <ele>287.7</ele>
        <time>2019-08-16T15:53:35Z</time>
      </trkpt>
      <trkpt lat="47.45162" lon="6.58236">
        <ele>287.7</ele>
        <time>2019-08-16T15:53:36Z</time>
      </trkpt>
      <trkpt lat="47.45165" lon="6.5824">
        <ele>287.7</ele>
        <time>2019-08-16T15:53:37Z</time>
      </trkpt>
      <trkpt lat="47.45168" lon="6.58244">
        <ele>287.7</ele>
        <time>2019-08-16T15:53:38Z</time>
      </trkpt>
      <trkpt lat="47.45172" lon="6.58247">
        <ele>287.8</ele>
        <time>2019-08-16T15:53:39Z</time>
      </trkpt>
      <trkpt lat="47.45175" lon="6.5825">
        <ele>287.8</ele>
        <time>2019-08-16T15:53:40Z</time>
      </trkpt>
      <trkpt lat="47.45178" lon="6.58254">
        <ele>287.8</ele>
        <time>2019-08-16T15:53:41Z</time>
      </trkpt>
      <trkpt lat="47.45181" lon="6.58257">
        <ele>287.8</ele>
        <time>2019-08-16T15:53:42Z</time>
      </trkpt>
      <trkpt lat="47.45184" lon="6.5826">
        <ele>287.8</ele>
        <time>2019-08-16T15:53:43Z</time>
      </trkpt>
      <trkpt lat="47.45186" lon="6.58263">
        <ele>287.9</ele>
        <time>2019-08-16T15:53:44Z</time>
      </trkpt>
      <trkpt lat="47.45189" lon="6.58265">
        <ele>287.9</ele>
        <time>2019-08-16T15:53:45Z</time>
      </trkpt>
      <trkpt lat="47.45192" lon="6.58267">
        <ele>287.9</ele>
        <time>2019-08-16T15:53:46Z</time>
      </trkpt>
      <trkpt lat="47.45195" lon="6.5827">
        <ele>288.1</ele>
        <time>2019-08-16T15:53:47Z</time>
      </trkpt>
      <trkpt lat="47.45198" lon="6.58272">
        <ele>288.1</ele>
        <time>2019-08-16T15:53:49Z</time>
      </trkpt>
      <trkpt lat="47.452" lon="6.58277">
        <ele>288.2</ele>
        <time>2019-08-16T15:53:51Z</time>
      </trkpt>
      <trkpt lat="47.45203" lon="6.58279">
        <ele>288.3</ele>
        <time>2019-08-16T15:53:53Z</time>
      </trkpt>
      <trkpt lat="47.45205" lon="6.58281">
        <ele>288.3</ele>
        <time>2019-08-16T15:53:55Z</time>
      </trkpt>
      <trkpt lat="47.45208" lon="6.58284">
        <ele>288.4</ele>
        <time>2019-08-16T15:53:57Z</time>
      </trkpt>
      <trkpt lat="47.45209" lon="6.58289">
        <ele>288.4</ele>
        <time>2019-08-16T15:53:59Z</time>
      </trkpt>
      <trkpt lat="47.45213" lon="6.58292">
        <ele>288.5</ele>
        <time>2019-08-16T15:54:02Z</time>
      </trkpt>
      <trkpt lat="47.45216" lon="6.58293">
        <ele>288.5</ele>
        <time>2019-08-16T15:54:04Z</time>
      </trkpt>
      <trkpt lat="47.45219" lon="6.5829">
        <ele>288.6</ele>
        <time>2019-08-16T15:54:06Z</time>
      </trkpt>
      <trkpt lat="47.4522" lon="6.58285">
        <ele>288.6</ele>
        <time>2019-08-16T15:54:15Z</time>
      </trkpt>
    </trkseg>
  </trk>
</gpx>